<?xml version='1.0' encoding='UTF-8'?><gpx version="1.1" creator="JPX - https://github.com/jenetics/jpx" xmlns="http://www.topografix.com/GPX/1/1"><trk><trkseg><trkpt lat="38.1582798" lon="13.3152262"><ele>74.0</ele><time>2026-04-26T06:45:16.328Z</time></trkpt><trkpt lat="38.1583059" lon="13.3151351"><ele>74.0</ele><time>2026-04-26T06:45:18.328Z</time></trkpt><trkpt lat="38.1583632" lon="13.3150398"><ele>74.0</ele><time>2026-04-26T06:45:20.328Z</time></trkpt><trkpt lat="38.1583799" lon="13.3149565"><ele>74.0</ele><time>2026-04-26T06:45:22.328Z</time></trkpt><trkpt lat="38.1583926" lon="13.3148709"><ele>74.0</ele><time>2026-04-26T06:45:42.328Z</time></trkpt><trkpt lat="38.158447" lon="13.3147967"><ele>74.0</ele><time>2026-04-26T06:45:43.328Z</time></trkpt><trkpt lat="38.1585152" lon="13.3147337"><ele>73.25</ele><time>2026-04-26T06:45:44.327Z</time></trkpt><trkpt lat="38.1585821" lon="13.3146511"><ele>72.5</ele><time>2026-04-26T06:45:45.328Z</time></trkpt><trkpt lat="38.1586595" lon="13.3145424"><ele>71.75</ele><time>2026-04-26T06:45:46.328Z</time></trkpt><trkpt lat="38.158743" lon="13.3144172"><ele>71.0</ele><time>2026-04-26T06:45:47.328Z</time></trkpt><trkpt lat="38.1588323" lon="13.3142892"><ele>71.0</ele><time>2026-04-26T06:45:48.328Z</time></trkpt><trkpt lat="38.1589244" lon="13.3141665"><ele>71.0</ele><time>2026-04-26T06:45:49.328Z</time></trkpt><trkpt lat="38.1590138" lon="13.3140542"><ele>71.0</ele><time>2026-04-26T06:45:50.328Z</time></trkpt><trkpt lat="38.1590979" lon="13.3139438"><ele>71.0</ele><time>2026-04-26T06:45:51.328Z</time></trkpt><trkpt lat="38.1591793" lon="13.3138353"><ele>71.2</ele><time>2026-04-26T06:45:52.328Z</time></trkpt><trkpt lat="38.1592586" lon="13.3137339"><ele>71.39999999999999</ele><time>2026-04-26T06:45:53.328Z</time></trkpt><trkpt lat="38.1593375" lon="13.3136392"><ele>71.6</ele><time>2026-04-26T06:45:54.328Z</time></trkpt><trkpt lat="38.1594117" lon="13.3135427"><ele>71.8</ele><time>2026-04-26T06:45:55.328Z</time></trkpt><trkpt lat="38.1594829" lon="13.3134467"><ele>72.0</ele><time>2026-04-26T06:45:56.328Z</time></trkpt><trkpt lat="38.1595548" lon="13.3133511"><ele>72.0</ele><time>2026-04-26T06:45:57.328Z</time></trkpt><trkpt lat="38.1596273" lon="13.3132594"><ele>72.0</ele><time>2026-04-26T06:45:58.327Z</time></trkpt><trkpt lat="38.1596964" lon="13.3131731"><ele>72.0</ele><time>2026-04-26T06:45:59.327Z</time></trkpt><trkpt lat="38.1597569" lon="13.3130984"><ele>72.0</ele><time>2026-04-26T06:46:00.328Z</time></trkpt><trkpt lat="38.1598107" lon="13.3130292"><ele>72.0</ele><time>2026-04-26T06:46:01.328Z</time></trkpt><trkpt lat="38.1598603" lon="13.3129773"><ele>72.0</ele><time>2026-04-26T06:46:02.328Z</time></trkpt><trkpt lat="38.1599428" lon="13.312891"><ele>72.2</ele><time>2026-04-26T06:46:04.328Z</time></trkpt><trkpt lat="38.1600125" lon="13.3127974"><ele>72.4</ele><time>2026-04-26T06:46:06.328Z</time></trkpt><trkpt lat="38.1600646" lon="13.3127253"><ele>72.6</ele><time>2026-04-26T06:46:07.328Z</time></trkpt><trkpt lat="38.1601292" lon="13.3126432"><ele>72.8</ele><time>2026-04-26T06:46:08.328Z</time></trkpt><trkpt lat="38.1602004" lon="13.312547"><ele>73.0</ele><time>2026-04-26T06:46:09.328Z</time></trkpt><trkpt lat="38.1602864" lon="13.3124358"><ele>73.0</ele><time>2026-04-26T06:46:10.328Z</time></trkpt><trkpt lat="38.1603797" lon="13.3123185"><ele>73.0</ele><time>2026-04-26T06:46:11.328Z</time></trkpt><trkpt lat="38.1604683" lon="13.3121921"><ele>73.0</ele><time>2026-04-26T06:46:12.328Z</time></trkpt><trkpt lat="38.1605608" lon="13.3120697"><ele>73.0</ele><time>2026-04-26T06:46:13.328Z</time></trkpt><trkpt lat="38.1606593" lon="13.31194"><ele>73.66666666666666</ele><time>2026-04-26T06:46:14.328Z</time></trkpt><trkpt lat="38.1607625" lon="13.3118105"><ele>74.33333333333333</ele><time>2026-04-26T06:46:15.328Z</time></trkpt><trkpt lat="38.1608701" lon="13.3116668"><ele>75.0</ele><time>2026-04-26T06:46:16.328Z</time></trkpt><trkpt lat="38.1609879" lon="13.3115131"><ele>75.66666666666667</ele><time>2026-04-26T06:46:17.327Z</time></trkpt><trkpt lat="38.1611102" lon="13.3113571"><ele>76.33333333333334</ele><time>2026-04-26T06:46:18.328Z</time></trkpt><trkpt lat="38.1612364" lon="13.3111996"><ele>77.0</ele><time>2026-04-26T06:46:19.328Z</time></trkpt><trkpt lat="38.1613671" lon="13.3110391"><ele>77.0</ele><time>2026-04-26T06:46:20.328Z</time></trkpt><trkpt lat="38.1615046" lon="13.3108753"><ele>77.0</ele><time>2026-04-26T06:46:21.328Z</time></trkpt><trkpt lat="38.1616436" lon="13.3107041"><ele>77.0</ele><time>2026-04-26T06:46:22.328Z</time></trkpt><trkpt lat="38.1617886" lon="13.3105285"><ele>76.66666666666667</ele><time>2026-04-26T06:46:23.328Z</time></trkpt><trkpt lat="38.1619369" lon="13.3103549"><ele>76.33333333333333</ele><time>2026-04-26T06:46:24.328Z</time></trkpt><trkpt lat="38.1620856" lon="13.3101781"><ele>76.0</ele><time>2026-04-26T06:46:25.328Z</time></trkpt><trkpt lat="38.1622327" lon="13.3100013"><ele>76.33333333333333</ele><time>2026-04-26T06:46:26.328Z</time></trkpt><trkpt lat="38.162379" lon="13.3098292"><ele>76.66666666666667</ele><time>2026-04-26T06:46:27.328Z</time></trkpt><trkpt lat="38.1625259" lon="13.3096555"><ele>77.0</ele><time>2026-04-26T06:46:28.328Z</time></trkpt><trkpt lat="38.1626702" lon="13.3094816"><ele>78.33333333333334</ele><time>2026-04-26T06:46:29.328Z</time></trkpt><trkpt lat="38.1628144" lon="13.3093011"><ele>79.66666666666667</ele><time>2026-04-26T06:46:30.328Z</time></trkpt><trkpt lat="38.1629592" lon="13.3091182"><ele>81.0</ele><time>2026-04-26T06:46:31.328Z</time></trkpt><trkpt lat="38.163108" lon="13.3089389"><ele>80.66666666666667</ele><time>2026-04-26T06:46:32.328Z</time></trkpt><trkpt lat="38.1632577" lon="13.3087619"><ele>80.33333333333334</ele><time>2026-04-26T06:46:33.328Z</time></trkpt><trkpt lat="38.1634048" lon="13.3085818"><ele>80.0</ele><time>2026-04-26T06:46:34.328Z</time></trkpt><trkpt lat="38.1635534" lon="13.3084083"><ele>80.0</ele><time>2026-04-26T06:46:35.328Z</time></trkpt><trkpt lat="38.1636947" lon="13.3082303"><ele>80.0</ele><time>2026-04-26T06:46:36.327Z</time></trkpt><trkpt lat="38.1638319" lon="13.3080485"><ele>80.0</ele><time>2026-04-26T06:46:37.327Z</time></trkpt><trkpt lat="38.1639705" lon="13.3078785"><ele>79.0</ele><time>2026-04-26T06:46:38.327Z</time></trkpt><trkpt lat="38.1641053" lon="13.3077082"><ele>78.0</ele><time>2026-04-26T06:46:39.327Z</time></trkpt><trkpt lat="38.1642428" lon="13.3075396"><ele>77.0</ele><time>2026-04-26T06:46:40.327Z</time></trkpt><trkpt lat="38.1643783" lon="13.3073713"><ele>77.0</ele><time>2026-04-26T06:46:41.326Z</time></trkpt><trkpt lat="38.1645117" lon="13.3072049"><ele>77.0</ele><time>2026-04-26T06:46:42.327Z</time></trkpt><trkpt lat="38.1646433" lon="13.3070335"><ele>77.0</ele><time>2026-04-26T06:46:43.327Z</time></trkpt><trkpt lat="38.1647707" lon="13.3068696"><ele>76.0</ele><time>2026-04-26T06:46:44.327Z</time></trkpt><trkpt lat="38.164895" lon="13.3067137"><ele>75.0</ele><time>2026-04-26T06:46:45.327Z</time></trkpt><trkpt lat="38.1650108" lon="13.3065698"><ele>74.0</ele><time>2026-04-26T06:46:46.327Z</time></trkpt><trkpt lat="38.1651239" lon="13.3064295"><ele>74.25</ele><time>2026-04-26T06:46:47.327Z</time></trkpt><trkpt lat="38.1652244" lon="13.3063128"><ele>74.5</ele><time>2026-04-26T06:46:48.327Z</time></trkpt><trkpt lat="38.1653183" lon="13.3062092"><ele>74.75</ele><time>2026-04-26T06:46:49.327Z</time></trkpt><trkpt lat="38.1653954" lon="13.306108"><ele>75.0</ele><time>2026-04-26T06:46:50.327Z</time></trkpt><trkpt lat="38.1654578" lon="13.3060281"><ele>75.0</ele><time>2026-04-26T06:46:51.327Z</time></trkpt><trkpt lat="38.1655016" lon="13.3059682"><ele>75.0</ele><time>2026-04-26T06:46:52.327Z</time></trkpt><trkpt lat="38.1655464" lon="13.305854"><ele>75.0</ele><time>2026-04-26T06:46:54.327Z</time></trkpt><trkpt lat="38.1655146" lon="13.3057477"><ele>75.0</ele><time>2026-04-26T06:46:56.327Z</time></trkpt><trkpt lat="38.1654766" lon="13.3056836"><ele>75.0</ele><time>2026-04-26T06:46:57.327Z</time></trkpt><trkpt lat="38.1653062" lon="13.3055074"><ele>75.0</ele><time>2026-04-26T06:47:01.327Z</time></trkpt><trkpt lat="38.1653643" lon="13.3056055"><ele>75.0</ele><time>2026-04-26T06:47:02.327Z</time></trkpt><trkpt lat="38.1652553" lon="13.3056413"><ele>75.0</ele><time>2026-04-26T06:47:05.327Z</time></trkpt><trkpt lat="38.1651959" lon="13.3056982"><ele>75.0</ele><time>2026-04-26T06:47:06.327Z</time></trkpt><trkpt lat="38.1651245" lon="13.3057835"><ele>75.0</ele><time>2026-04-26T06:47:07.327Z</time></trkpt><trkpt lat="38.1650553" lon="13.3058716"><ele>75.0</ele><time>2026-04-26T06:47:08.327Z</time></trkpt><trkpt lat="38.164977" lon="13.3059664"><ele>75.0</ele><time>2026-04-26T06:47:09.327Z</time></trkpt><trkpt lat="38.164894" lon="13.3060744"><ele>75.0</ele><time>2026-04-26T06:47:10.327Z</time></trkpt><trkpt lat="38.1648049" lon="13.3061871"><ele>75.0</ele><time>2026-04-26T06:47:11.327Z</time></trkpt><trkpt lat="38.1647087" lon="13.3063013"><ele>75.5</ele><time>2026-04-26T06:47:12.327Z</time></trkpt><trkpt lat="38.1646151" lon="13.3064225"><ele>76.0</ele><time>2026-04-26T06:47:13.327Z</time></trkpt><trkpt lat="38.1645144" lon="13.3065461"><ele>76.5</ele><time>2026-04-26T06:47:14.327Z</time></trkpt><trkpt lat="38.1644144" lon="13.3066736"><ele>77.0</ele><time>2026-04-26T06:47:15.327Z</time></trkpt><trkpt lat="38.1643126" lon="13.3068019"><ele>77.0</ele><time>2026-04-26T06:47:16.327Z</time></trkpt><trkpt lat="38.1642084" lon="13.3069279"><ele>77.0</ele><time>2026-04-26T06:47:17.327Z</time></trkpt><trkpt lat="38.1641014" lon="13.3070568"><ele>77.0</ele><time>2026-04-26T06:47:18.327Z</time></trkpt><trkpt lat="38.1639952" lon="13.3071912"><ele>77.0</ele><time>2026-04-26T06:47:19.326Z</time></trkpt><trkpt lat="38.1638866" lon="13.3073205"><ele>78.66666666666667</ele><time>2026-04-26T06:47:20.327Z</time></trkpt><trkpt lat="38.1637755" lon="13.3074546"><ele>80.33333333333333</ele><time>2026-04-26T06:47:21.327Z</time></trkpt><trkpt lat="38.1636627" lon="13.3075913"><ele>82.0</ele><time>2026-04-26T06:47:22.327Z</time></trkpt><trkpt lat="38.1635473" lon="13.3077342"><ele>82.0</ele><time>2026-04-26T06:47:23.327Z</time></trkpt><trkpt lat="38.1634226" lon="13.3078748"><ele>82.0</ele><time>2026-04-26T06:47:24.327Z</time></trkpt><trkpt lat="38.1633069" lon="13.3080159"><ele>82.0</ele><time>2026-04-26T06:47:25.327Z</time></trkpt><trkpt lat="38.1631858" lon="13.3081617"><ele>82.0</ele><time>2026-04-26T06:47:26.327Z</time></trkpt><trkpt lat="38.1630667" lon="13.3083102"><ele>82.0</ele><time>2026-04-26T06:47:27.327Z</time></trkpt><trkpt lat="38.1629488" lon="13.3084574"><ele>82.0</ele><time>2026-04-26T06:47:28.327Z</time></trkpt><trkpt lat="38.1628307" lon="13.3086088"><ele>82.0</ele><time>2026-04-26T06:47:29.327Z</time></trkpt><trkpt lat="38.1627044" lon="13.3087532"><ele>82.0</ele><time>2026-04-26T06:47:30.327Z</time></trkpt><trkpt lat="38.162581" lon="13.3088958"><ele>82.0</ele><time>2026-04-26T06:47:31.327Z</time></trkpt><trkpt lat="38.162459" lon="13.3090345"><ele>81.0</ele><time>2026-04-26T06:47:32.327Z</time></trkpt><trkpt lat="38.1623411" lon="13.3091761"><ele>80.0</ele><time>2026-04-26T06:47:33.327Z</time></trkpt><trkpt lat="38.1622288" lon="13.3093184"><ele>79.0</ele><time>2026-04-26T06:47:34.327Z</time></trkpt><trkpt lat="38.1621193" lon="13.3094541"><ele>79.0</ele><time>2026-04-26T06:47:35.327Z</time></trkpt><trkpt lat="38.1620134" lon="13.3095858"><ele>79.0</ele><time>2026-04-26T06:47:36.327Z</time></trkpt><trkpt lat="38.1619125" lon="13.3097133"><ele>79.0</ele><time>2026-04-26T06:47:37.327Z</time></trkpt><trkpt lat="38.1618154" lon="13.3098318"><ele>79.0</ele><time>2026-04-26T06:47:38.327Z</time></trkpt><trkpt lat="38.1617203" lon="13.3099453"><ele>79.25</ele><time>2026-04-26T06:47:39.327Z</time></trkpt><trkpt lat="38.1616295" lon="13.3100566"><ele>79.5</ele><time>2026-04-26T06:47:40.327Z</time></trkpt><trkpt lat="38.161539" lon="13.3101646"><ele>79.75</ele><time>2026-04-26T06:47:41.327Z</time></trkpt><trkpt lat="38.1614504" lon="13.3102699"><ele>80.0</ele><time>2026-04-26T06:47:42.327Z</time></trkpt><trkpt lat="38.1613649" lon="13.3103736"><ele>80.0</ele><time>2026-04-26T06:47:43.326Z</time></trkpt><trkpt lat="38.161278" lon="13.3104755"><ele>80.0</ele><time>2026-04-26T06:47:44.327Z</time></trkpt><trkpt lat="38.1611938" lon="13.3105796"><ele>80.0</ele><time>2026-04-26T06:47:45.327Z</time></trkpt><trkpt lat="38.1611091" lon="13.31068"><ele>80.0</ele><time>2026-04-26T06:47:46.327Z</time></trkpt><trkpt lat="38.1610244" lon="13.3107804"><ele>79.5</ele><time>2026-04-26T06:47:47.326Z</time></trkpt><trkpt lat="38.1609396" lon="13.3108816"><ele>79.0</ele><time>2026-04-26T06:47:48.326Z</time></trkpt><trkpt lat="38.1608543" lon="13.3109794"><ele>78.5</ele><time>2026-04-26T06:47:49.327Z</time></trkpt><trkpt lat="38.1607688" lon="13.311084"><ele>78.0</ele><time>2026-04-26T06:47:50.327Z</time></trkpt><trkpt lat="38.1606815" lon="13.3111887"><ele>78.0</ele><time>2026-04-26T06:47:51.327Z</time></trkpt><trkpt lat="38.1605935" lon="13.3113001"><ele>78.0</ele><time>2026-04-26T06:47:52.327Z</time></trkpt><trkpt lat="38.160501" lon="13.3114118"><ele>78.0</ele><time>2026-04-26T06:47:53.327Z</time></trkpt><trkpt lat="38.1604059" lon="13.3115313"><ele>78.0</ele><time>2026-04-26T06:47:54.327Z</time></trkpt><trkpt lat="38.1602927" lon="13.3116667"><ele>77.0</ele><time>2026-04-26T06:47:55.327Z</time></trkpt><trkpt lat="38.160177" lon="13.311814"><ele>76.0</ele><time>2026-04-26T06:47:56.327Z</time></trkpt><trkpt lat="38.160061" lon="13.3119673"><ele>75.0</ele><time>2026-04-26T06:47:57.327Z</time></trkpt><trkpt lat="38.159941" lon="13.31213"><ele>74.0</ele><time>2026-04-26T06:47:58.327Z</time></trkpt><trkpt lat="38.1598194" lon="13.3122965"><ele>73.0</ele><time>2026-04-26T06:47:59.326Z</time></trkpt><trkpt lat="38.1596901" lon="13.3124571"><ele>72.0</ele><time>2026-04-26T06:48:00.327Z</time></trkpt><trkpt lat="38.159569" lon="13.3126285"><ele>72.0</ele><time>2026-04-26T06:48:01.327Z</time></trkpt><trkpt lat="38.1594488" lon="13.3127967"><ele>72.0</ele><time>2026-04-26T06:48:02.327Z</time></trkpt><trkpt lat="38.1593301" lon="13.3129625"><ele>72.0</ele><time>2026-04-26T06:48:03.327Z</time></trkpt><trkpt lat="38.1592129" lon="13.3131311"><ele>72.0</ele><time>2026-04-26T06:48:04.327Z</time></trkpt><trkpt lat="38.1590982" lon="13.3132981"><ele>72.0</ele><time>2026-04-26T06:48:05.327Z</time></trkpt><trkpt lat="38.1589822" lon="13.3134592"><ele>72.0</ele><time>2026-04-26T06:48:06.327Z</time></trkpt><trkpt lat="38.1588615" lon="13.3136157"><ele>72.33333333333333</ele><time>2026-04-26T06:48:07.327Z</time></trkpt><trkpt lat="38.1587387" lon="13.3137722"><ele>72.66666666666666</ele><time>2026-04-26T06:48:08.327Z</time></trkpt><trkpt lat="38.1586139" lon="13.31393"><ele>73.0</ele><time>2026-04-26T06:48:09.327Z</time></trkpt><trkpt lat="38.1584868" lon="13.3140882"><ele>72.0</ele><time>2026-04-26T06:48:10.327Z</time></trkpt><trkpt lat="38.1582083" lon="13.3143871"><ele>71.0</ele><time>2026-04-26T06:48:12.327Z</time></trkpt><trkpt lat="38.1580625" lon="13.3145359"><ele>71.0</ele><time>2026-04-26T06:48:13.327Z</time></trkpt><trkpt lat="38.1579104" lon="13.3146902"><ele>71.0</ele><time>2026-04-26T06:48:14.327Z</time></trkpt><trkpt lat="38.1577589" lon="13.3148463"><ele>71.0</ele><time>2026-04-26T06:48:15.327Z</time></trkpt><trkpt lat="38.1576142" lon="13.3150063"><ele>70.66666666666667</ele><time>2026-04-26T06:48:16.327Z</time></trkpt><trkpt lat="38.157475" lon="13.3151684"><ele>70.33333333333333</ele><time>2026-04-26T06:48:17.327Z</time></trkpt><trkpt lat="38.1573419" lon="13.3153299"><ele>70.0</ele><time>2026-04-26T06:48:18.327Z</time></trkpt><trkpt lat="38.1572111" lon="13.3154863"><ele>69.33333333333333</ele><time>2026-04-26T06:48:19.327Z</time></trkpt><trkpt lat="38.1570782" lon="13.3156459"><ele>68.66666666666667</ele><time>2026-04-26T06:48:20.327Z</time></trkpt><trkpt lat="38.1569464" lon="13.3157983"><ele>68.0</ele><time>2026-04-26T06:48:21.327Z</time></trkpt><trkpt lat="38.1568164" lon="13.3159557"><ele>68.0</ele><time>2026-04-26T06:48:22.326Z</time></trkpt><trkpt lat="38.1566881" lon="13.3161105"><ele>68.0</ele><time>2026-04-26T06:48:23.327Z</time></trkpt><trkpt lat="38.15656" lon="13.3162779"><ele>68.0</ele><time>2026-04-26T06:48:24.327Z</time></trkpt><trkpt lat="38.1564286" lon="13.3164411"><ele>67.0</ele><time>2026-04-26T06:48:25.326Z</time></trkpt><trkpt lat="38.1562977" lon="13.3166065"><ele>66.0</ele><time>2026-04-26T06:48:26.327Z</time></trkpt><trkpt lat="38.1561751" lon="13.3167712"><ele>65.0</ele><time>2026-04-26T06:48:27.327Z</time></trkpt><trkpt lat="38.156045" lon="13.3169313"><ele>65.0</ele><time>2026-04-26T06:48:28.327Z</time></trkpt><trkpt lat="38.1559172" lon="13.317097"><ele>65.0</ele><time>2026-04-26T06:48:29.327Z</time></trkpt><trkpt lat="38.1557952" lon="13.3172522"><ele>65.0</ele><time>2026-04-26T06:48:30.327Z</time></trkpt><trkpt lat="38.1556735" lon="13.3173971"><ele>64.25</ele><time>2026-04-26T06:48:31.327Z</time></trkpt><trkpt lat="38.1555589" lon="13.3175358"><ele>63.5</ele><time>2026-04-26T06:48:32.327Z</time></trkpt><trkpt lat="38.1554588" lon="13.317669"><ele>62.75</ele><time>2026-04-26T06:48:33.327Z</time></trkpt><trkpt lat="38.1553736" lon="13.3177852"><ele>62.0</ele><time>2026-04-26T06:48:34.327Z</time></trkpt><trkpt lat="38.1552952" lon="13.3178695"><ele>62.0</ele><time>2026-04-26T06:48:35.327Z</time></trkpt><trkpt lat="38.155216" lon="13.3179724"><ele>62.0</ele><time>2026-04-26T06:48:36.327Z</time></trkpt><trkpt lat="38.155135" lon="13.3180739"><ele>62.0</ele><time>2026-04-26T06:48:37.327Z</time></trkpt><trkpt lat="38.1550498" lon="13.318179"><ele>62.0</ele><time>2026-04-26T06:48:38.327Z</time></trkpt><trkpt lat="38.1549617" lon="13.3182858"><ele>62.25</ele><time>2026-04-26T06:48:39.327Z</time></trkpt><trkpt lat="38.1548721" lon="13.3183963"><ele>62.5</ele><time>2026-04-26T06:48:40.327Z</time></trkpt><trkpt lat="38.1547796" lon="13.3185114"><ele>62.75</ele><time>2026-04-26T06:48:41.327Z</time></trkpt><trkpt lat="38.1546805" lon="13.31863"><ele>63.0</ele><time>2026-04-26T06:48:42.326Z</time></trkpt><trkpt lat="38.154576" lon="13.3187524"><ele>63.0</ele><time>2026-04-26T06:48:43.327Z</time></trkpt><trkpt lat="38.1544685" lon="13.3188804"><ele>63.0</ele><time>2026-04-26T06:48:44.327Z</time></trkpt><trkpt lat="38.1543574" lon="13.319016"><ele>63.0</ele><time>2026-04-26T06:48:45.327Z</time></trkpt><trkpt lat="38.1542491" lon="13.3191482"><ele>62.5</ele><time>2026-04-26T06:48:46.327Z</time></trkpt><trkpt lat="38.1541445" lon="13.3192712"><ele>62.0</ele><time>2026-04-26T06:48:47.327Z</time></trkpt><trkpt lat="38.1540444" lon="13.3193906"><ele>61.5</ele><time>2026-04-26T06:48:48.327Z</time></trkpt><trkpt lat="38.1539531" lon="13.319504"><ele>61.0</ele><time>2026-04-26T06:48:49.327Z</time></trkpt><trkpt lat="38.1538703" lon="13.3196139"><ele>60.199999999999996</ele><time>2026-04-26T06:48:50.327Z</time></trkpt><trkpt lat="38.1537909" lon="13.3197159"><ele>59.39999999999999</ele><time>2026-04-26T06:48:51.326Z</time></trkpt><trkpt lat="38.1537141" lon="13.3198102"><ele>58.6</ele><time>2026-04-26T06:48:52.327Z</time></trkpt><trkpt lat="38.1536426" lon="13.3198998"><ele>57.8</ele><time>2026-04-26T06:48:53.327Z</time></trkpt><trkpt lat="38.1535718" lon="13.3199854"><ele>57.0</ele><time>2026-04-26T06:48:54.327Z</time></trkpt><trkpt lat="38.1535043" lon="13.3200658"><ele>56.833333333333336</ele><time>2026-04-26T06:48:55.327Z</time></trkpt><trkpt lat="38.1534397" lon="13.3201413"><ele>56.66666666666667</ele><time>2026-04-26T06:48:56.327Z</time></trkpt><trkpt lat="38.1533775" lon="13.3202072"><ele>56.5</ele><time>2026-04-26T06:48:57.327Z</time></trkpt><trkpt lat="38.1533245" lon="13.320264"><ele>56.333333333333336</ele><time>2026-04-26T06:48:58.327Z</time></trkpt><trkpt lat="38.1532658" lon="13.3203194"><ele>56.16666666666667</ele><time>2026-04-26T06:49:00.327Z</time></trkpt><trkpt lat="38.1531737" lon="13.3204369"><ele>56.0</ele><time>2026-04-26T06:51:01.326Z</time></trkpt><trkpt lat="38.1531026" lon="13.3205209"><ele>55.75</ele><time>2026-04-26T06:51:02.327Z</time></trkpt><trkpt lat="38.1530256" lon="13.3206175"><ele>55.5</ele><time>2026-04-26T06:51:03.327Z</time></trkpt><trkpt lat="38.1529441" lon="13.3207241"><ele>55.25</ele><time>2026-04-26T06:51:04.327Z</time></trkpt><trkpt lat="38.1528571" lon="13.3208434"><ele>55.0</ele><time>2026-04-26T06:51:05.327Z</time></trkpt><trkpt lat="38.1527622" lon="13.3209638"><ele>55.0</ele><time>2026-04-26T06:51:06.327Z</time></trkpt><trkpt lat="38.152659" lon="13.3210908"><ele>55.0</ele><time>2026-04-26T06:51:07.327Z</time></trkpt><trkpt lat="38.152556" lon="13.3212233"><ele>55.0</ele><time>2026-04-26T06:51:08.327Z</time></trkpt><trkpt lat="38.1524491" lon="13.3213594"><ele>55.0</ele><time>2026-04-26T06:51:09.327Z</time></trkpt><trkpt lat="38.1523419" lon="13.3214935"><ele>54.33333333333333</ele><time>2026-04-26T06:51:10.327Z</time></trkpt><trkpt lat="38.1522368" lon="13.3216244"><ele>53.66666666666667</ele><time>2026-04-26T06:51:11.327Z</time></trkpt><trkpt lat="38.1521317" lon="13.3217608"><ele>53.0</ele><time>2026-04-26T06:51:12.326Z</time></trkpt><trkpt lat="38.1520197" lon="13.3218988"><ele>53.0</ele><time>2026-04-26T06:51:13.327Z</time></trkpt><trkpt lat="38.1519045" lon="13.3220398"><ele>53.0</ele><time>2026-04-26T06:51:14.327Z</time></trkpt><trkpt lat="38.151779" lon="13.3221882"><ele>53.0</ele><time>2026-04-26T06:51:15.327Z</time></trkpt><trkpt lat="38.1516534" lon="13.322335"><ele>52.66666666666667</ele><time>2026-04-26T06:51:16.326Z</time></trkpt><trkpt lat="38.151529" lon="13.3224888"><ele>52.33333333333333</ele><time>2026-04-26T06:51:17.327Z</time></trkpt><trkpt lat="38.1514046" lon="13.3226464"><ele>52.0</ele><time>2026-04-26T06:51:18.327Z</time></trkpt><trkpt lat="38.151281" lon="13.3228015"><ele>52.0</ele><time>2026-04-26T06:51:19.327Z</time></trkpt><trkpt lat="38.1511606" lon="13.3229518"><ele>52.0</ele><time>2026-04-26T06:51:20.327Z</time></trkpt><trkpt lat="38.1510352" lon="13.3231072"><ele>52.0</ele><time>2026-04-26T06:51:21.326Z</time></trkpt><trkpt lat="38.1509067" lon="13.3232684"><ele>51.666666666666664</ele><time>2026-04-26T06:51:22.327Z</time></trkpt><trkpt lat="38.1507801" lon="13.3234285"><ele>51.33333333333333</ele><time>2026-04-26T06:51:23.327Z</time></trkpt><trkpt lat="38.150659" lon="13.3235829"><ele>51.0</ele><time>2026-04-26T06:51:24.327Z</time></trkpt><trkpt lat="38.1505396" lon="13.3237285"><ele>50.33333333333333</ele><time>2026-04-26T06:51:25.327Z</time></trkpt><trkpt lat="38.1504259" lon="13.3238695"><ele>49.666666666666664</ele><time>2026-04-26T06:51:26.326Z</time></trkpt><trkpt lat="38.15031" lon="13.3240084"><ele>49.0</ele><time>2026-04-26T06:51:27.327Z</time></trkpt><trkpt lat="38.1501937" lon="13.3241474"><ele>49.0</ele><time>2026-04-26T06:51:28.327Z</time></trkpt><trkpt lat="38.1500758" lon="13.3242827"><ele>49.0</ele><time>2026-04-26T06:51:29.327Z</time></trkpt><trkpt lat="38.1499569" lon="13.3244212"><ele>49.0</ele><time>2026-04-26T06:51:30.327Z</time></trkpt><trkpt lat="38.1498343" lon="13.3245545"><ele>48.666666666666664</ele><time>2026-04-26T06:51:31.327Z</time></trkpt><trkpt lat="38.1497038" lon="13.3246864"><ele>48.33333333333333</ele><time>2026-04-26T06:51:32.327Z</time></trkpt><trkpt lat="38.1495693" lon="13.3248157"><ele>48.0</ele><time>2026-04-26T06:51:33.327Z</time></trkpt><trkpt lat="38.1494384" lon="13.3249427"><ele>48.0</ele><time>2026-04-26T06:51:34.327Z</time></trkpt><trkpt lat="38.1493068" lon="13.3250705"><ele>48.0</ele><time>2026-04-26T06:51:35.327Z</time></trkpt><trkpt lat="38.1491717" lon="13.3252022"><ele>48.0</ele><time>2026-04-26T06:51:36.327Z</time></trkpt><trkpt lat="38.1490333" lon="13.3253327"><ele>48.0</ele><time>2026-04-26T06:51:37.326Z</time></trkpt><trkpt lat="38.1488906" lon="13.325464"><ele>48.0</ele><time>2026-04-26T06:51:38.327Z</time></trkpt><trkpt lat="38.1487587" lon="13.3255899"><ele>48.0</ele><time>2026-04-26T06:51:39.327Z</time></trkpt><trkpt lat="38.1485129" lon="13.3258016"><ele>48.0</ele><time>2026-04-26T06:51:41.327Z</time></trkpt><trkpt lat="38.1484039" lon="13.3259081"><ele>48.0</ele><time>2026-04-26T06:51:42.327Z</time></trkpt><trkpt lat="38.1482985" lon="13.3260069"><ele>48.0</ele><time>2026-04-26T06:51:43.327Z</time></trkpt><trkpt lat="38.1481904" lon="13.3261196"><ele>48.0</ele><time>2026-04-26T06:51:44.327Z</time></trkpt><trkpt lat="38.1480756" lon="13.3262359"><ele>48.0</ele><time>2026-04-26T06:51:45.327Z</time></trkpt><trkpt lat="38.1479506" lon="13.3263633"><ele>48.0</ele><time>2026-04-26T06:51:46.327Z</time></trkpt><trkpt lat="38.1478212" lon="13.3265039"><ele>48.0</ele><time>2026-04-26T06:51:47.327Z</time></trkpt><trkpt lat="38.1476836" lon="13.3266469"><ele>48.0</ele><time>2026-04-26T06:51:48.326Z</time></trkpt><trkpt lat="38.1475362" lon="13.326795"><ele>48.0</ele><time>2026-04-26T06:51:49.327Z</time></trkpt><trkpt lat="38.1473875" lon="13.3269397"><ele>48.0</ele><time>2026-04-26T06:51:50.327Z</time></trkpt><trkpt lat="38.1472447" lon="13.3270831"><ele>48.33333333333333</ele><time>2026-04-26T06:51:51.327Z</time></trkpt><trkpt lat="38.1470983" lon="13.3272309"><ele>48.666666666666664</ele><time>2026-04-26T06:51:52.327Z</time></trkpt><trkpt lat="38.1469543" lon="13.3273798"><ele>49.0</ele><time>2026-04-26T06:51:53.327Z</time></trkpt><trkpt lat="38.1467996" lon="13.327531"><ele>49.0</ele><time>2026-04-26T06:51:54.327Z</time></trkpt><trkpt lat="38.146645" lon="13.3276826"><ele>49.0</ele><time>2026-04-26T06:51:55.326Z</time></trkpt><trkpt lat="38.1464937" lon="13.3278303"><ele>49.0</ele><time>2026-04-26T06:51:56.327Z</time></trkpt><trkpt lat="38.1463487" lon="13.3279724"><ele>49.33333333333333</ele><time>2026-04-26T06:51:57.326Z</time></trkpt><trkpt lat="38.1462142" lon="13.328106"><ele>49.66666666666667</ele><time>2026-04-26T06:51:58.326Z</time></trkpt><trkpt lat="38.1460912" lon="13.3282347"><ele>50.0</ele><time>2026-04-26T06:51:59.327Z</time></trkpt><trkpt lat="38.1459731" lon="13.3283475"><ele>50.0</ele><time>2026-04-26T06:52:00.327Z</time></trkpt><trkpt lat="38.1458711" lon="13.3284506"><ele>50.0</ele><time>2026-04-26T06:52:01.327Z</time></trkpt><trkpt lat="38.1457781" lon="13.3285541"><ele>50.0</ele><time>2026-04-26T06:52:02.327Z</time></trkpt><trkpt lat="38.145693" lon="13.3286663"><ele>50.0</ele><time>2026-04-26T06:52:03.327Z</time></trkpt><trkpt lat="38.1456164" lon="13.3287843"><ele>49.75</ele><time>2026-04-26T06:52:04.327Z</time></trkpt><trkpt lat="38.1455363" lon="13.3288945"><ele>49.5</ele><time>2026-04-26T06:52:05.327Z</time></trkpt><trkpt lat="38.1454436" lon="13.3289941"><ele>49.25</ele><time>2026-04-26T06:52:06.327Z</time></trkpt><trkpt lat="38.1453354" lon="13.329093"><ele>49.0</ele><time>2026-04-26T06:52:07.326Z</time></trkpt><trkpt lat="38.1452141" lon="13.3292031"><ele>49.0</ele><time>2026-04-26T06:52:08.327Z</time></trkpt><trkpt lat="38.1450967" lon="13.3293348"><ele>49.0</ele><time>2026-04-26T06:52:09.327Z</time></trkpt><trkpt lat="38.1449744" lon="13.3294616"><ele>49.0</ele><time>2026-04-26T06:52:10.327Z</time></trkpt><trkpt lat="38.1448436" lon="13.329585"><ele>48.666666666666664</ele><time>2026-04-26T06:52:11.327Z</time></trkpt><trkpt lat="38.1447066" lon="13.3297109"><ele>48.33333333333333</ele><time>2026-04-26T06:52:12.327Z</time></trkpt><trkpt lat="38.1445709" lon="13.3298444"><ele>48.0</ele><time>2026-04-26T06:52:13.327Z</time></trkpt><trkpt lat="38.1444342" lon="13.3299803"><ele>48.0</ele><time>2026-04-26T06:52:14.327Z</time></trkpt><trkpt lat="38.1442958" lon="13.3301203"><ele>48.0</ele><time>2026-04-26T06:52:15.327Z</time></trkpt><trkpt lat="38.1441522" lon="13.3302611"><ele>48.0</ele><time>2026-04-26T06:52:16.326Z</time></trkpt><trkpt lat="38.1439969" lon="13.3303988"><ele>48.0</ele><time>2026-04-26T06:52:17.327Z</time></trkpt><trkpt lat="38.1438387" lon="13.3305274"><ele>48.0</ele><time>2026-04-26T06:52:18.327Z</time></trkpt><trkpt lat="38.1436755" lon="13.3306469"><ele>48.0</ele><time>2026-04-26T06:52:19.327Z</time></trkpt><trkpt lat="38.1435109" lon="13.3307557"><ele>47.666666666666664</ele><time>2026-04-26T06:52:20.327Z</time></trkpt><trkpt lat="38.143342" lon="13.3308526"><ele>47.33333333333333</ele><time>2026-04-26T06:52:21.327Z</time></trkpt><trkpt lat="38.1431658" lon="13.3309358"><ele>47.0</ele><time>2026-04-26T06:52:22.327Z</time></trkpt><trkpt lat="38.1429759" lon="13.3310303"><ele>47.0</ele><time>2026-04-26T06:52:23.327Z</time></trkpt><trkpt lat="38.1427734" lon="13.3311294"><ele>47.0</ele><time>2026-04-26T06:52:24.327Z</time></trkpt><trkpt lat="38.1425681" lon="13.3312004"><ele>47.0</ele><time>2026-04-26T06:52:25.327Z</time></trkpt><trkpt lat="38.1423636" lon="13.331248"><ele>46.666666666666664</ele><time>2026-04-26T06:52:26.327Z</time></trkpt><trkpt lat="38.1421482" lon="13.3312901"><ele>46.333333333333336</ele><time>2026-04-26T06:52:27.327Z</time></trkpt><trkpt lat="38.1419237" lon="13.3313221"><ele>46.0</ele><time>2026-04-26T06:52:28.327Z</time></trkpt><trkpt lat="38.1416959" lon="13.3313474"><ele>46.0</ele><time>2026-04-26T06:52:29.327Z</time></trkpt><trkpt lat="38.1414715" lon="13.3313487"><ele>46.0</ele><time>2026-04-26T06:52:30.327Z</time></trkpt><trkpt lat="38.141248" lon="13.3313401"><ele>46.0</ele><time>2026-04-26T06:52:31.327Z</time></trkpt><trkpt lat="38.1410341" lon="13.3313149"><ele>46.0</ele><time>2026-04-26T06:52:32.327Z</time></trkpt><trkpt lat="38.1408228" lon="13.3312876"><ele>46.0</ele><time>2026-04-26T06:52:33.327Z</time></trkpt><trkpt lat="38.1406144" lon="13.3312633"><ele>46.0</ele><time>2026-04-26T06:52:34.327Z</time></trkpt><trkpt lat="38.1404071" lon="13.3312447"><ele>45.333333333333336</ele><time>2026-04-26T06:52:35.326Z</time></trkpt><trkpt lat="38.1401987" lon="13.3312208"><ele>44.666666666666664</ele><time>2026-04-26T06:52:36.327Z</time></trkpt><trkpt lat="38.1399974" lon="13.3311873"><ele>44.0</ele><time>2026-04-26T06:52:37.327Z</time></trkpt><trkpt lat="38.1397975" lon="13.3311693"><ele>44.0</ele><time>2026-04-26T06:52:38.327Z</time></trkpt><trkpt lat="38.1396026" lon="13.331145"><ele>44.0</ele><time>2026-04-26T06:52:39.327Z</time></trkpt><trkpt lat="38.1394092" lon="13.3311162"><ele>44.0</ele><time>2026-04-26T06:52:40.327Z</time></trkpt><trkpt lat="38.1392224" lon="13.3310885"><ele>44.0</ele><time>2026-04-26T06:52:41.327Z</time></trkpt><trkpt lat="38.139039" lon="13.3310621"><ele>44.0</ele><time>2026-04-26T06:52:42.327Z</time></trkpt><trkpt lat="38.1388691" lon="13.3310324"><ele>44.0</ele><time>2026-04-26T06:52:43.327Z</time></trkpt><trkpt lat="38.1386946" lon="13.3310064"><ele>44.0</ele><time>2026-04-26T06:52:44.327Z</time></trkpt><trkpt lat="38.1385236" lon="13.3309794"><ele>44.0</ele><time>2026-04-26T06:52:45.327Z</time></trkpt><trkpt lat="38.138355" lon="13.3309566"><ele>44.0</ele><time>2026-04-26T06:52:46.326Z</time></trkpt><trkpt lat="38.1381924" lon="13.3309364"><ele>44.0</ele><time>2026-04-26T06:52:47.327Z</time></trkpt><trkpt lat="38.1380337" lon="13.3309155"><ele>44.0</ele><time>2026-04-26T06:52:48.326Z</time></trkpt><trkpt lat="38.1378775" lon="13.3308954"><ele>44.0</ele><time>2026-04-26T06:52:49.327Z</time></trkpt><trkpt lat="38.1377234" lon="13.3308739"><ele>44.0</ele><time>2026-04-26T06:52:50.327Z</time></trkpt><trkpt lat="38.1375686" lon="13.3308535"><ele>44.0</ele><time>2026-04-26T06:52:51.327Z</time></trkpt><trkpt lat="38.137407" lon="13.330833"><ele>44.0</ele><time>2026-04-26T06:52:52.327Z</time></trkpt><trkpt lat="38.1372478" lon="13.3308132"><ele>44.33333333333333</ele><time>2026-04-26T06:52:53.327Z</time></trkpt><trkpt lat="38.1370902" lon="13.3307889"><ele>44.666666666666664</ele><time>2026-04-26T06:52:54.327Z</time></trkpt><trkpt lat="38.1369341" lon="13.3307695"><ele>45.0</ele><time>2026-04-26T06:52:55.327Z</time></trkpt><trkpt lat="38.1367772" lon="13.3307524"><ele>45.0</ele><time>2026-04-26T06:52:56.327Z</time></trkpt><trkpt lat="38.1366175" lon="13.3307381"><ele>45.0</ele><time>2026-04-26T06:52:57.327Z</time></trkpt><trkpt lat="38.1364556" lon="13.3307266"><ele>45.0</ele><time>2026-04-26T06:52:58.327Z</time></trkpt><trkpt lat="38.136294" lon="13.3307078"><ele>45.333333333333336</ele><time>2026-04-26T06:52:59.327Z</time></trkpt><trkpt lat="38.1361334" lon="13.3306866"><ele>45.66666666666667</ele><time>2026-04-26T06:53:00.327Z</time></trkpt><trkpt lat="38.1359722" lon="13.3306646"><ele>46.0</ele><time>2026-04-26T06:53:01.327Z</time></trkpt><trkpt lat="38.1358103" lon="13.3306415"><ele>46.0</ele><time>2026-04-26T06:53:02.327Z</time></trkpt><trkpt lat="38.1356559" lon="13.3306237"><ele>46.0</ele><time>2026-04-26T06:53:03.327Z</time></trkpt><trkpt lat="38.1354935" lon="13.3305977"><ele>46.0</ele><time>2026-04-26T06:53:04.327Z</time></trkpt><trkpt lat="38.1353339" lon="13.3305759"><ele>46.0</ele><time>2026-04-26T06:53:05.327Z</time></trkpt><trkpt lat="38.1351767" lon="13.3305597"><ele>46.0</ele><time>2026-04-26T06:53:06.327Z</time></trkpt><trkpt lat="38.1350245" lon="13.3305433"><ele>46.0</ele><time>2026-04-26T06:53:07.327Z</time></trkpt><trkpt lat="38.1348772" lon="13.3305157"><ele>46.25</ele><time>2026-04-26T06:53:08.327Z</time></trkpt><trkpt lat="38.1347314" lon="13.3304959"><ele>46.5</ele><time>2026-04-26T06:53:09.327Z</time></trkpt><trkpt lat="38.134591" lon="13.3304769"><ele>46.75</ele><time>2026-04-26T06:53:10.327Z</time></trkpt><trkpt lat="38.1344518" lon="13.3304573"><ele>47.0</ele><time>2026-04-26T06:53:11.327Z</time></trkpt><trkpt lat="38.134314" lon="13.3304384"><ele>47.0</ele><time>2026-04-26T06:53:12.327Z</time></trkpt><trkpt lat="38.1341768" lon="13.3304183"><ele>47.0</ele><time>2026-04-26T06:53:13.327Z</time></trkpt><trkpt lat="38.1340316" lon="13.3303992"><ele>47.0</ele><time>2026-04-26T06:53:14.327Z</time></trkpt><trkpt lat="38.1338793" lon="13.3303768"><ele>47.0</ele><time>2026-04-26T06:53:15.327Z</time></trkpt><trkpt lat="38.1337305" lon="13.3303565"><ele>47.0</ele><time>2026-04-26T06:53:16.327Z</time></trkpt><trkpt lat="38.1335824" lon="13.3303284"><ele>47.0</ele><time>2026-04-26T06:53:17.327Z</time></trkpt><trkpt lat="38.1334314" lon="13.3303066"><ele>47.0</ele><time>2026-04-26T06:53:18.327Z</time></trkpt><trkpt lat="38.1332821" lon="13.3302853"><ele>47.0</ele><time>2026-04-26T06:53:19.327Z</time></trkpt><trkpt lat="38.1331468" lon="13.330274"><ele>47.0</ele><time>2026-04-26T06:53:20.327Z</time></trkpt><trkpt lat="38.1330184" lon="13.3302498"><ele>47.0</ele><time>2026-04-26T06:53:21.327Z</time></trkpt><trkpt lat="38.1329102" lon="13.330233"><ele>47.0</ele><time>2026-04-26T06:53:22.327Z</time></trkpt><trkpt lat="38.1328229" lon="13.3302253"><ele>47.0</ele><time>2026-04-26T06:53:23.327Z</time></trkpt><trkpt lat="38.132756" lon="13.3302233"><ele>47.0</ele><time>2026-04-26T06:53:24.327Z</time></trkpt><trkpt lat="38.1326685" lon="13.3302097"><ele>47.0</ele><time>2026-04-26T06:53:26.327Z</time></trkpt><trkpt lat="38.1325828" lon="13.3301981"><ele>47.0</ele><time>2026-04-26T06:53:51.327Z</time></trkpt><trkpt lat="38.132479" lon="13.3301805"><ele>47.0</ele><time>2026-04-26T06:53:53.327Z</time></trkpt><trkpt lat="38.1323605" lon="13.3301754"><ele>47.400000000000006</ele><time>2026-04-26T06:53:55.327Z</time></trkpt><trkpt lat="38.1322691" lon="13.3301657"><ele>47.800000000000004</ele><time>2026-04-26T06:53:56.327Z</time></trkpt><trkpt lat="38.1321621" lon="13.3301355"><ele>48.2</ele><time>2026-04-26T06:53:57.327Z</time></trkpt><trkpt lat="38.1320485" lon="13.3301155"><ele>48.6</ele><time>2026-04-26T06:53:58.327Z</time></trkpt><trkpt lat="38.1319217" lon="13.330099"><ele>49.0</ele><time>2026-04-26T06:53:59.327Z</time></trkpt><trkpt lat="38.1317851" lon="13.330087"><ele>49.0</ele><time>2026-04-26T06:54:00.327Z</time></trkpt><trkpt lat="38.1316442" lon="13.3300775"><ele>49.0</ele><time>2026-04-26T06:54:01.327Z</time></trkpt><trkpt lat="38.1314933" lon="13.3300538"><ele>49.0</ele><time>2026-04-26T06:54:02.327Z</time></trkpt><trkpt lat="38.1313343" lon="13.3300406"><ele>48.33333333333333</ele><time>2026-04-26T06:54:03.326Z</time></trkpt><trkpt lat="38.1311669" lon="13.3300166"><ele>47.666666666666664</ele><time>2026-04-26T06:54:04.327Z</time></trkpt><trkpt lat="38.1309933" lon="13.3300015"><ele>47.0</ele><time>2026-04-26T06:54:05.327Z</time></trkpt><trkpt lat="38.1308092" lon="13.3299789"><ele>48.0</ele><time>2026-04-26T06:54:06.327Z</time></trkpt><trkpt lat="38.1306208" lon="13.3299514"><ele>49.0</ele><time>2026-04-26T06:54:07.327Z</time></trkpt><trkpt lat="38.1304268" lon="13.3299233"><ele>50.0</ele><time>2026-04-26T06:54:08.327Z</time></trkpt><trkpt lat="38.1302247" lon="13.3298922"><ele>50.0</ele><time>2026-04-26T06:54:09.327Z</time></trkpt><trkpt lat="38.1300166" lon="13.3298547"><ele>50.0</ele><time>2026-04-26T06:54:10.327Z</time></trkpt><trkpt lat="38.1297978" lon="13.3298166"><ele>50.0</ele><time>2026-04-26T06:54:11.327Z</time></trkpt><trkpt lat="38.1295693" lon="13.3297821"><ele>50.5</ele><time>2026-04-26T06:54:12.327Z</time></trkpt><trkpt lat="38.129329" lon="13.3297617"><ele>51.0</ele><time>2026-04-26T06:54:13.327Z</time></trkpt><trkpt lat="38.1290891" lon="13.3297523"><ele>50.0</ele><time>2026-04-26T06:54:14.327Z</time></trkpt><trkpt lat="38.1288675" lon="13.3297201"><ele>49.0</ele><time>2026-04-26T06:54:15.327Z</time></trkpt><trkpt lat="38.1286266" lon="13.329695"><ele>49.0</ele><time>2026-04-26T06:54:16.327Z</time></trkpt><trkpt lat="38.1283904" lon="13.3296689"><ele>49.0</ele><time>2026-04-26T06:54:17.327Z</time></trkpt><trkpt lat="38.128151" lon="13.3296408"><ele>52.0</ele><time>2026-04-26T06:54:18.327Z</time></trkpt><trkpt lat="38.1279228" lon="13.3296035"><ele>55.0</ele><time>2026-04-26T06:54:19.326Z</time></trkpt><trkpt lat="38.1276921" lon="13.3295693"><ele>55.0</ele><time>2026-04-26T06:54:20.326Z</time></trkpt><trkpt lat="38.1274616" lon="13.3295378"><ele>55.0</ele><time>2026-04-26T06:54:21.326Z</time></trkpt><trkpt lat="38.1272309" lon="13.329512"><ele>54.5</ele><time>2026-04-26T06:54:22.327Z</time></trkpt><trkpt lat="38.1270013" lon="13.3294827"><ele>54.0</ele><time>2026-04-26T06:54:23.327Z</time></trkpt><trkpt lat="38.1267793" lon="13.3294509"><ele>56.33333333333333</ele><time>2026-04-26T06:54:24.327Z</time></trkpt><trkpt lat="38.1265577" lon="13.3294258"><ele>58.666666666666664</ele><time>2026-04-26T06:54:25.327Z</time></trkpt><trkpt lat="38.126337" lon="13.3293965"><ele>61.0</ele><time>2026-04-26T06:54:26.327Z</time></trkpt><trkpt lat="38.1261155" lon="13.3293686"><ele>61.0</ele><time>2026-04-26T06:54:27.327Z</time></trkpt><trkpt lat="38.1258958" lon="13.329348"><ele>61.0</ele><time>2026-04-26T06:54:28.327Z</time></trkpt><trkpt lat="38.1256764" lon="13.3293201"><ele>61.0</ele><time>2026-04-26T06:54:29.327Z</time></trkpt><trkpt lat="38.1254628" lon="13.3292841"><ele>60.666666666666664</ele><time>2026-04-26T06:54:30.327Z</time></trkpt><trkpt lat="38.1252628" lon="13.3292636"><ele>60.33333333333333</ele><time>2026-04-26T06:54:31.327Z</time></trkpt><trkpt lat="38.1250674" lon="13.3292389"><ele>60.0</ele><time>2026-04-26T06:54:32.326Z</time></trkpt><trkpt lat="38.1248687" lon="13.3292131"><ele>62.0</ele><time>2026-04-26T06:54:33.327Z</time></trkpt><trkpt lat="38.1246659" lon="13.3291864"><ele>64.0</ele><time>2026-04-26T06:54:34.327Z</time></trkpt><trkpt lat="38.1244685" lon="13.3291421"><ele>66.0</ele><time>2026-04-26T06:54:35.327Z</time></trkpt><trkpt lat="38.1242682" lon="13.3291059"><ele>63.66666666666667</ele><time>2026-04-26T06:54:36.326Z</time></trkpt><trkpt lat="38.1240621" lon="13.3290757"><ele>61.333333333333336</ele><time>2026-04-26T06:54:37.327Z</time></trkpt><trkpt lat="38.1238526" lon="13.329051"><ele>59.0</ele><time>2026-04-26T06:54:38.327Z</time></trkpt><trkpt lat="38.1236446" lon="13.3290274"><ele>59.0</ele><time>2026-04-26T06:54:39.327Z</time></trkpt><trkpt lat="38.1234306" lon="13.3289999"><ele>59.0</ele><time>2026-04-26T06:54:40.327Z</time></trkpt><trkpt lat="38.1232136" lon="13.3289754"><ele>59.0</ele><time>2026-04-26T06:54:41.327Z</time></trkpt><trkpt lat="38.1229969" lon="13.3289513"><ele>59.66666666666667</ele><time>2026-04-26T06:54:42.327Z</time></trkpt><trkpt lat="38.1227792" lon="13.3289257"><ele>60.33333333333333</ele><time>2026-04-26T06:54:43.326Z</time></trkpt><trkpt lat="38.1225601" lon="13.3289028"><ele>61.0</ele><time>2026-04-26T06:54:44.327Z</time></trkpt><trkpt lat="38.1223458" lon="13.3288768"><ele>61.0</ele><time>2026-04-26T06:54:45.327Z</time></trkpt><trkpt lat="38.1221278" lon="13.3288514"><ele>61.0</ele><time>2026-04-26T06:54:46.327Z</time></trkpt><trkpt lat="38.1219116" lon="13.3288224"><ele>61.0</ele><time>2026-04-26T06:54:47.327Z</time></trkpt><trkpt lat="38.1216971" lon="13.3287905"><ele>61.33333333333333</ele><time>2026-04-26T06:54:48.327Z</time></trkpt><trkpt lat="38.1214803" lon="13.3287699"><ele>61.66666666666667</ele><time>2026-04-26T06:54:49.327Z</time></trkpt><trkpt lat="38.1212689" lon="13.3287434"><ele>62.0</ele><time>2026-04-26T06:54:50.327Z</time></trkpt><trkpt lat="38.1210616" lon="13.3287175"><ele>62.0</ele><time>2026-04-26T06:54:51.327Z</time></trkpt><trkpt lat="38.1208564" lon="13.3286951"><ele>62.0</ele><time>2026-04-26T06:54:52.327Z</time></trkpt><trkpt lat="38.1206548" lon="13.3286732"><ele>62.0</ele><time>2026-04-26T06:54:53.326Z</time></trkpt><trkpt lat="38.120463" lon="13.328648"><ele>62.333333333333336</ele><time>2026-04-26T06:54:54.327Z</time></trkpt><trkpt lat="38.1202827" lon="13.3286314"><ele>62.66666666666667</ele><time>2026-04-26T06:54:55.327Z</time></trkpt><trkpt lat="38.1201147" lon="13.3286127"><ele>63.0</ele><time>2026-04-26T06:54:56.327Z</time></trkpt><trkpt lat="38.1199773" lon="13.3285982"><ele>63.833333333333336</ele><time>2026-04-26T06:54:57.327Z</time></trkpt><trkpt lat="38.1198598" lon="13.3285901"><ele>64.66666666666667</ele><time>2026-04-26T06:54:58.327Z</time></trkpt><trkpt lat="38.1197629" lon="13.3285879"><ele>65.5</ele><time>2026-04-26T06:54:59.327Z</time></trkpt><trkpt lat="38.1196818" lon="13.3285812"><ele>66.33333333333334</ele><time>2026-04-26T06:55:00.326Z</time></trkpt><trkpt lat="38.1196112" lon="13.328576"><ele>67.16666666666667</ele><time>2026-04-26T06:55:01.327Z</time></trkpt><trkpt lat="38.1195321" lon="13.3285583"><ele>68.0</ele><time>2026-04-26T06:55:02.327Z</time></trkpt><trkpt lat="38.1194458" lon="13.3285556"><ele>68.0</ele><time>2026-04-26T06:55:03.327Z</time></trkpt><trkpt lat="38.1193347" lon="13.3285727"><ele>68.0</ele><time>2026-04-26T06:55:04.327Z</time></trkpt><trkpt lat="38.1192054" lon="13.3285818"><ele>68.0</ele><time>2026-04-26T06:55:05.326Z</time></trkpt><trkpt lat="38.1190749" lon="13.3285981"><ele>68.0</ele><time>2026-04-26T06:55:06.326Z</time></trkpt><trkpt lat="38.1189349" lon="13.3286196"><ele>69.0</ele><time>2026-04-26T06:55:07.326Z</time></trkpt><trkpt lat="38.1187966" lon="13.3286226"><ele>70.0</ele><time>2026-04-26T06:55:08.326Z</time></trkpt><trkpt lat="38.1186446" lon="13.3286203"><ele>71.0</ele><time>2026-04-26T06:55:09.326Z</time></trkpt><trkpt lat="38.1184855" lon="13.3286007"><ele>71.0</ele><time>2026-04-26T06:55:10.326Z</time></trkpt><trkpt lat="38.1183161" lon="13.3286075"><ele>71.0</ele><time>2026-04-26T06:55:11.326Z</time></trkpt><trkpt lat="38.1181329" lon="13.3285873"><ele>71.0</ele><time>2026-04-26T06:55:12.326Z</time></trkpt><trkpt lat="38.1179316" lon="13.3285881"><ele>71.66666666666667</ele><time>2026-04-26T06:55:13.326Z</time></trkpt><trkpt lat="38.1177186" lon="13.3286026"><ele>72.33333333333333</ele><time>2026-04-26T06:55:14.326Z</time></trkpt><trkpt lat="38.1175088" lon="13.3286293"><ele>73.0</ele><time>2026-04-26T06:55:15.326Z</time></trkpt><trkpt lat="38.117261" lon="13.3286863"><ele>73.0</ele><time>2026-04-26T06:55:16.326Z</time></trkpt><trkpt lat="38.1170245" lon="13.3287477"><ele>73.0</ele><time>2026-04-26T06:55:17.326Z</time></trkpt><trkpt lat="38.1168127" lon="13.3287641"><ele>73.0</ele><time>2026-04-26T06:55:18.326Z</time></trkpt><trkpt lat="38.1165852" lon="13.3287899"><ele>73.0</ele><time>2026-04-26T06:55:19.326Z</time></trkpt><trkpt lat="38.1163626" lon="13.3288226"><ele>73.5</ele><time>2026-04-26T06:55:20.326Z</time></trkpt><trkpt lat="38.1161342" lon="13.3288684"><ele>74.0</ele><time>2026-04-26T06:55:21.326Z</time></trkpt><trkpt lat="38.1159072" lon="13.3289072"><ele>72.33333333333334</ele><time>2026-04-26T06:55:22.326Z</time></trkpt><trkpt lat="38.1156885" lon="13.3289428"><ele>70.66666666666667</ele><time>2026-04-26T06:55:23.326Z</time></trkpt><trkpt lat="38.1154723" lon="13.3289741"><ele>69.0</ele><time>2026-04-26T06:55:24.326Z</time></trkpt><trkpt lat="38.1152543" lon="13.329003"><ele>69.0</ele><time>2026-04-26T06:55:25.326Z</time></trkpt><trkpt lat="38.1150366" lon="13.3290338"><ele>69.0</ele><time>2026-04-26T06:55:26.326Z</time></trkpt><trkpt lat="38.1148128" lon="13.3290694"><ele>69.0</ele><time>2026-04-26T06:55:27.326Z</time></trkpt><trkpt lat="38.114594" lon="13.3291014"><ele>69.66666666666667</ele><time>2026-04-26T06:55:28.326Z</time></trkpt><trkpt lat="38.1143766" lon="13.3291341"><ele>70.33333333333334</ele><time>2026-04-26T06:55:29.326Z</time></trkpt><trkpt lat="38.1141572" lon="13.329165"><ele>71.0</ele><time>2026-04-26T06:55:30.326Z</time></trkpt><trkpt lat="38.1139378" lon="13.3291943"><ele>72.33333333333334</ele><time>2026-04-26T06:55:31.326Z</time></trkpt><trkpt lat="38.1137205" lon="13.329222"><ele>73.66666666666667</ele><time>2026-04-26T06:55:32.326Z</time></trkpt><trkpt lat="38.1135027" lon="13.3292498"><ele>75.0</ele><time>2026-04-26T06:55:33.326Z</time></trkpt><trkpt lat="38.1132859" lon="13.3292786"><ele>74.0</ele><time>2026-04-26T06:55:34.326Z</time></trkpt><trkpt lat="38.1130695" lon="13.3293084"><ele>73.0</ele><time>2026-04-26T06:55:35.326Z</time></trkpt><trkpt lat="38.1128542" lon="13.3293456"><ele>72.0</ele><time>2026-04-26T06:55:36.326Z</time></trkpt><trkpt lat="38.112635" lon="13.3293785"><ele>72.0</ele><time>2026-04-26T06:55:37.326Z</time></trkpt><trkpt lat="38.1124151" lon="13.3294118"><ele>72.0</ele><time>2026-04-26T06:55:38.326Z</time></trkpt><trkpt lat="38.1121937" lon="13.3294417"><ele>72.0</ele><time>2026-04-26T06:55:39.326Z</time></trkpt><trkpt lat="38.1119711" lon="13.3294723"><ele>72.5</ele><time>2026-04-26T06:55:40.326Z</time></trkpt><trkpt lat="38.1117465" lon="13.3295082"><ele>73.0</ele><time>2026-04-26T06:55:41.326Z</time></trkpt><trkpt lat="38.11152" lon="13.3295438"><ele>73.5</ele><time>2026-04-26T06:55:42.326Z</time></trkpt><trkpt lat="38.1112939" lon="13.329583"><ele>74.0</ele><time>2026-04-26T06:55:43.326Z</time></trkpt><trkpt lat="38.1110641" lon="13.3296198"><ele>74.0</ele><time>2026-04-26T06:55:44.326Z</time></trkpt><trkpt lat="38.1108295" lon="13.3296577"><ele>74.0</ele><time>2026-04-26T06:55:45.326Z</time></trkpt><trkpt lat="38.1105965" lon="13.3296954"><ele>73.5</ele><time>2026-04-26T06:55:46.325Z</time></trkpt><trkpt lat="38.110363" lon="13.3297262"><ele>73.0</ele><time>2026-04-26T06:55:47.325Z</time></trkpt><trkpt lat="38.1101297" lon="13.329756"><ele>74.5</ele><time>2026-04-26T06:55:48.326Z</time></trkpt><trkpt lat="38.1098928" lon="13.3297894"><ele>76.0</ele><time>2026-04-26T06:55:49.326Z</time></trkpt><trkpt lat="38.1096628" lon="13.3298167"><ele>76.0</ele><time>2026-04-26T06:55:50.326Z</time></trkpt><trkpt lat="38.109439" lon="13.3298364"><ele>76.0</ele><time>2026-04-26T06:55:51.326Z</time></trkpt><trkpt lat="38.1092228" lon="13.3298521"><ele>76.0</ele><time>2026-04-26T06:55:52.326Z</time></trkpt><trkpt lat="38.1090139" lon="13.3298648"><ele>74.66666666666666</ele><time>2026-04-26T06:55:53.326Z</time></trkpt><trkpt lat="38.1088044" lon="13.3298776"><ele>73.33333333333333</ele><time>2026-04-26T06:55:54.326Z</time></trkpt><trkpt lat="38.1085978" lon="13.3298989"><ele>72.0</ele><time>2026-04-26T06:55:55.326Z</time></trkpt><trkpt lat="38.1083928" lon="13.3299204"><ele>72.33333333333333</ele><time>2026-04-26T06:55:56.326Z</time></trkpt><trkpt lat="38.1081923" lon="13.329942"><ele>72.66666666666666</ele><time>2026-04-26T06:55:57.326Z</time></trkpt><trkpt lat="38.1079953" lon="13.329961"><ele>73.0</ele><time>2026-04-26T06:55:58.326Z</time></trkpt><trkpt lat="38.1078014" lon="13.3299739"><ele>73.0</ele><time>2026-04-26T06:55:59.326Z</time></trkpt><trkpt lat="38.107608" lon="13.3299846"><ele>73.0</ele><time>2026-04-26T06:56:00.326Z</time></trkpt><trkpt lat="38.1074172" lon="13.3299961"><ele>73.0</ele><time>2026-04-26T06:56:01.326Z</time></trkpt><trkpt lat="38.1072356" lon="13.330009"><ele>73.66666666666666</ele><time>2026-04-26T06:56:02.325Z</time></trkpt><trkpt lat="38.1070656" lon="13.3300215"><ele>74.33333333333333</ele><time>2026-04-26T06:56:03.326Z</time></trkpt><trkpt lat="38.106906" lon="13.3300309"><ele>75.0</ele><time>2026-04-26T06:56:04.326Z</time></trkpt><trkpt lat="38.1067573" lon="13.3300454"><ele>75.0</ele><time>2026-04-26T06:56:05.325Z</time></trkpt><trkpt lat="38.106614" lon="13.3300647"><ele>75.0</ele><time>2026-04-26T06:56:06.326Z</time></trkpt><trkpt lat="38.1064616" lon="13.3300705"><ele>75.0</ele><time>2026-04-26T06:56:07.326Z</time></trkpt><trkpt lat="38.1063061" lon="13.3300851"><ele>76.33333333333333</ele><time>2026-04-26T06:56:08.326Z</time></trkpt><trkpt lat="38.1061459" lon="13.3301011"><ele>77.66666666666666</ele><time>2026-04-26T06:56:09.326Z</time></trkpt><trkpt lat="38.1059786" lon="13.330112"><ele>79.0</ele><time>2026-04-26T06:56:10.325Z</time></trkpt><trkpt lat="38.1058043" lon="13.3301263"><ele>79.66666666666666</ele><time>2026-04-26T06:56:11.326Z</time></trkpt><trkpt lat="38.1056275" lon="13.3301422"><ele>80.33333333333333</ele><time>2026-04-26T06:56:12.326Z</time></trkpt><trkpt lat="38.1054487" lon="13.3301541"><ele>81.0</ele><time>2026-04-26T06:56:13.326Z</time></trkpt><trkpt lat="38.1052636" lon="13.3301686"><ele>81.0</ele><time>2026-04-26T06:56:14.326Z</time></trkpt><trkpt lat="38.1050773" lon="13.3301798"><ele>81.0</ele><time>2026-04-26T06:56:15.326Z</time></trkpt><trkpt lat="38.1048799" lon="13.3301791"><ele>81.0</ele><time>2026-04-26T06:56:16.326Z</time></trkpt><trkpt lat="38.1046741" lon="13.3301922"><ele>80.66666666666667</ele><time>2026-04-26T06:56:17.326Z</time></trkpt><trkpt lat="38.1044683" lon="13.3302045"><ele>80.33333333333334</ele><time>2026-04-26T06:56:18.326Z</time></trkpt><trkpt lat="38.1042581" lon="13.3302171"><ele>80.0</ele><time>2026-04-26T06:56:19.326Z</time></trkpt><trkpt lat="38.1040457" lon="13.3302348"><ele>80.0</ele><time>2026-04-26T06:56:20.326Z</time></trkpt><trkpt lat="38.1038328" lon="13.3302512"><ele>80.0</ele><time>2026-04-26T06:56:21.326Z</time></trkpt><trkpt lat="38.103609" lon="13.3302729"><ele>80.0</ele><time>2026-04-26T06:56:22.326Z</time></trkpt><trkpt lat="38.1033792" lon="13.3302944"><ele>79.33333333333334</ele><time>2026-04-26T06:56:23.326Z</time></trkpt><trkpt lat="38.1031551" lon="13.3303076"><ele>78.66666666666667</ele><time>2026-04-26T06:56:24.326Z</time></trkpt><trkpt lat="38.1029352" lon="13.330317"><ele>78.0</ele><time>2026-04-26T06:56:25.326Z</time></trkpt><trkpt lat="38.102709" lon="13.3303303"><ele>78.0</ele><time>2026-04-26T06:56:26.326Z</time></trkpt><trkpt lat="38.1024757" lon="13.3303532"><ele>78.0</ele><time>2026-04-26T06:56:27.326Z</time></trkpt><trkpt lat="38.1022492" lon="13.3303952"><ele>79.33333333333333</ele><time>2026-04-26T06:56:28.326Z</time></trkpt><trkpt lat="38.102034" lon="13.330421"><ele>80.66666666666666</ele><time>2026-04-26T06:56:29.326Z</time></trkpt><trkpt lat="38.1018228" lon="13.3304604"><ele>82.0</ele><time>2026-04-26T06:56:30.326Z</time></trkpt><trkpt lat="38.1016196" lon="13.3305159"><ele>83.0</ele><time>2026-04-26T06:56:31.326Z</time></trkpt><trkpt lat="38.10142" lon="13.3305837"><ele>84.0</ele><time>2026-04-26T06:56:32.326Z</time></trkpt><trkpt lat="38.1012261" lon="13.3306677"><ele>85.0</ele><time>2026-04-26T06:56:33.326Z</time></trkpt><trkpt lat="38.1010375" lon="13.3307724"><ele>85.0</ele><time>2026-04-26T06:56:34.326Z</time></trkpt><trkpt lat="38.1008534" lon="13.330893"><ele>85.0</ele><time>2026-04-26T06:56:35.326Z</time></trkpt><trkpt lat="38.1006746" lon="13.33103"><ele>85.0</ele><time>2026-04-26T06:56:36.326Z</time></trkpt><trkpt lat="38.1005043" lon="13.331183"><ele>85.0</ele><time>2026-04-26T06:56:37.326Z</time></trkpt><trkpt lat="38.1003349" lon="13.3313426"><ele>85.0</ele><time>2026-04-26T06:56:38.326Z</time></trkpt><trkpt lat="38.1001659" lon="13.3315128"><ele>85.0</ele><time>2026-04-26T06:56:39.326Z</time></trkpt><trkpt lat="38.1000052" lon="13.3316734"><ele>83.66666666666666</ele><time>2026-04-26T06:56:40.326Z</time></trkpt><trkpt lat="38.0998433" lon="13.3318351"><ele>82.33333333333333</ele><time>2026-04-26T06:56:41.326Z</time></trkpt><trkpt lat="38.0996792" lon="13.3319997"><ele>81.0</ele><time>2026-04-26T06:56:42.326Z</time></trkpt><trkpt lat="38.0995128" lon="13.332158"><ele>81.66666666666667</ele><time>2026-04-26T06:56:43.326Z</time></trkpt><trkpt lat="38.0993431" lon="13.3323109"><ele>82.33333333333334</ele><time>2026-04-26T06:56:44.326Z</time></trkpt><trkpt lat="38.0991644" lon="13.3324532"><ele>83.0</ele><time>2026-04-26T06:56:45.326Z</time></trkpt><trkpt lat="38.0989901" lon="13.3326003"><ele>81.66666666666667</ele><time>2026-04-26T06:56:46.326Z</time></trkpt><trkpt lat="38.0988163" lon="13.3327456"><ele>80.33333333333333</ele><time>2026-04-26T06:56:47.326Z</time></trkpt><trkpt lat="38.0986435" lon="13.332896"><ele>79.0</ele><time>2026-04-26T06:56:48.326Z</time></trkpt><trkpt lat="38.0984744" lon="13.3330482"><ele>79.33333333333333</ele><time>2026-04-26T06:56:49.326Z</time></trkpt><trkpt lat="38.0983073" lon="13.3332084"><ele>79.66666666666667</ele><time>2026-04-26T06:56:50.326Z</time></trkpt><trkpt lat="38.0981441" lon="13.3333721"><ele>80.0</ele><time>2026-04-26T06:56:51.326Z</time></trkpt><trkpt lat="38.0979812" lon="13.3335309"><ele>80.66666666666667</ele><time>2026-04-26T06:56:52.326Z</time></trkpt><trkpt lat="38.0978202" lon="13.3336944"><ele>81.33333333333333</ele><time>2026-04-26T06:56:53.326Z</time></trkpt><trkpt lat="38.0976595" lon="13.3338558"><ele>82.0</ele><time>2026-04-26T06:56:54.326Z</time></trkpt><trkpt lat="38.0975005" lon="13.3340176"><ele>80.33333333333333</ele><time>2026-04-26T06:56:55.326Z</time></trkpt><trkpt lat="38.0973371" lon="13.3341786"><ele>78.66666666666667</ele><time>2026-04-26T06:56:56.326Z</time></trkpt><trkpt lat="38.0971844" lon="13.3343484"><ele>77.0</ele><time>2026-04-26T06:56:57.326Z</time></trkpt><trkpt lat="38.0970332" lon="13.3345211"><ele>77.0</ele><time>2026-04-26T06:56:58.326Z</time></trkpt><trkpt lat="38.096886" lon="13.3346927"><ele>77.0</ele><time>2026-04-26T06:56:59.326Z</time></trkpt><trkpt lat="38.0967502" lon="13.3348839"><ele>77.0</ele><time>2026-04-26T06:57:00.325Z</time></trkpt><trkpt lat="38.0966049" lon="13.335069"><ele>77.0</ele><time>2026-04-26T06:57:01.326Z</time></trkpt><trkpt lat="38.0964718" lon="13.3352681"><ele>77.0</ele><time>2026-04-26T06:57:02.326Z</time></trkpt><trkpt lat="38.0963418" lon="13.3354695"><ele>77.0</ele><time>2026-04-26T06:57:03.326Z</time></trkpt><trkpt lat="38.0962084" lon="13.335666"><ele>77.0</ele><time>2026-04-26T06:57:04.326Z</time></trkpt><trkpt lat="38.0960723" lon="13.3358638"><ele>77.0</ele><time>2026-04-26T06:57:05.326Z</time></trkpt><trkpt lat="38.095934" lon="13.3360552"><ele>77.0</ele><time>2026-04-26T06:57:06.326Z</time></trkpt><trkpt lat="38.0957935" lon="13.3362461"><ele>77.0</ele><time>2026-04-26T06:57:07.326Z</time></trkpt><trkpt lat="38.095659" lon="13.3364375"><ele>77.0</ele><time>2026-04-26T06:57:08.326Z</time></trkpt><trkpt lat="38.0955168" lon="13.3366222"><ele>77.0</ele><time>2026-04-26T06:57:09.326Z</time></trkpt><trkpt lat="38.0953785" lon="13.3368028"><ele>77.0</ele><time>2026-04-26T06:57:10.326Z</time></trkpt><trkpt lat="38.0952414" lon="13.3369962"><ele>77.0</ele><time>2026-04-26T06:57:11.326Z</time></trkpt><trkpt lat="38.0951026" lon="13.3371889"><ele>77.0</ele><time>2026-04-26T06:57:12.326Z</time></trkpt><trkpt lat="38.0949722" lon="13.3373715"><ele>77.33333333333334</ele><time>2026-04-26T06:57:13.325Z</time></trkpt><trkpt lat="38.0948448" lon="13.3375443"><ele>77.66666666666667</ele><time>2026-04-26T06:57:14.325Z</time></trkpt><trkpt lat="38.094725" lon="13.3377074"><ele>78.0</ele><time>2026-04-26T06:57:15.326Z</time></trkpt><trkpt lat="38.0946071" lon="13.337867"><ele>78.0</ele><time>2026-04-26T06:57:16.326Z</time></trkpt><trkpt lat="38.0944886" lon="13.3380228"><ele>78.0</ele><time>2026-04-26T06:57:17.326Z</time></trkpt><trkpt lat="38.0943763" lon="13.3381774"><ele>78.0</ele><time>2026-04-26T06:57:18.326Z</time></trkpt><trkpt lat="38.0942733" lon="13.3383292"><ele>78.0</ele><time>2026-04-26T06:57:19.326Z</time></trkpt><trkpt lat="38.0941708" lon="13.3384704"><ele>78.0</ele><time>2026-04-26T06:57:20.326Z</time></trkpt><trkpt lat="38.094074" lon="13.3386063"><ele>78.0</ele><time>2026-04-26T06:57:21.326Z</time></trkpt><trkpt lat="38.0939785" lon="13.3387385"><ele>78.0</ele><time>2026-04-26T06:57:22.326Z</time></trkpt><trkpt lat="38.0938849" lon="13.3388655"><ele>77.75</ele><time>2026-04-26T06:57:23.326Z</time></trkpt><trkpt lat="38.0937925" lon="13.3389879"><ele>77.5</ele><time>2026-04-26T06:57:24.325Z</time></trkpt><trkpt lat="38.0937007" lon="13.3391053"><ele>77.25</ele><time>2026-04-26T06:57:25.326Z</time></trkpt><trkpt lat="38.0936122" lon="13.3392182"><ele>77.0</ele><time>2026-04-26T06:57:26.326Z</time></trkpt><trkpt lat="38.0935343" lon="13.3393143"><ele>77.0</ele><time>2026-04-26T06:57:27.325Z</time></trkpt><trkpt lat="38.0934672" lon="13.339418"><ele>77.0</ele><time>2026-04-26T06:57:28.326Z</time></trkpt><trkpt lat="38.0933772" lon="13.3395365"><ele>77.0</ele><time>2026-04-26T06:57:29.326Z</time></trkpt><trkpt lat="38.0932948" lon="13.3396586"><ele>77.0</ele><time>2026-04-26T06:57:30.326Z</time></trkpt><trkpt lat="38.0932057" lon="13.3397835"><ele>75.75</ele><time>2026-04-26T06:57:31.326Z</time></trkpt><trkpt lat="38.0931127" lon="13.3399137"><ele>74.5</ele><time>2026-04-26T06:57:32.326Z</time></trkpt><trkpt lat="38.093014" lon="13.3400447"><ele>73.25</ele><time>2026-04-26T06:57:33.325Z</time></trkpt><trkpt lat="38.092922" lon="13.3401903"><ele>72.0</ele><time>2026-04-26T06:57:34.326Z</time></trkpt><trkpt lat="38.0928245" lon="13.3403402"><ele>72.0</ele><time>2026-04-26T06:57:35.326Z</time></trkpt><trkpt lat="38.092721" lon="13.3404923"><ele>72.0</ele><time>2026-04-26T06:57:36.326Z</time></trkpt><trkpt lat="38.0926101" lon="13.3406406"><ele>72.0</ele><time>2026-04-26T06:57:37.326Z</time></trkpt><trkpt lat="38.0924996" lon="13.3408011"><ele>73.66666666666667</ele><time>2026-04-26T06:57:38.326Z</time></trkpt><trkpt lat="38.092388" lon="13.3409646"><ele>75.33333333333334</ele><time>2026-04-26T06:57:39.326Z</time></trkpt><trkpt lat="38.0922658" lon="13.3411252"><ele>77.0</ele><time>2026-04-26T06:57:40.326Z</time></trkpt><trkpt lat="38.0921489" lon="13.3412799"><ele>76.0</ele><time>2026-04-26T06:57:41.325Z</time></trkpt><trkpt lat="38.0920397" lon="13.3414286"><ele>75.0</ele><time>2026-04-26T06:57:42.326Z</time></trkpt><trkpt lat="38.0919309" lon="13.3415735"><ele>74.0</ele><time>2026-04-26T06:57:43.326Z</time></trkpt><trkpt lat="38.0918214" lon="13.3417108"><ele>74.0</ele><time>2026-04-26T06:57:44.326Z</time></trkpt><trkpt lat="38.0917118" lon="13.3418498"><ele>74.0</ele><time>2026-04-26T06:57:45.326Z</time></trkpt><trkpt lat="38.0916029" lon="13.3419929"><ele>74.0</ele><time>2026-04-26T06:57:46.326Z</time></trkpt><trkpt lat="38.0914964" lon="13.3421399"><ele>74.66666666666667</ele><time>2026-04-26T06:57:47.326Z</time></trkpt><trkpt lat="38.0913879" lon="13.3422931"><ele>75.33333333333333</ele><time>2026-04-26T06:57:48.325Z</time></trkpt><trkpt lat="38.0912796" lon="13.3424475"><ele>76.0</ele><time>2026-04-26T06:57:49.326Z</time></trkpt><trkpt lat="38.0911689" lon="13.3426006"><ele>76.0</ele><time>2026-04-26T06:57:50.326Z</time></trkpt><trkpt lat="38.091061" lon="13.3427565"><ele>76.0</ele><time>2026-04-26T06:57:51.326Z</time></trkpt><trkpt lat="38.090953" lon="13.3429211"><ele>76.0</ele><time>2026-04-26T06:57:52.326Z</time></trkpt><trkpt lat="38.0908395" lon="13.3430763"><ele>74.66666666666666</ele><time>2026-04-26T06:57:53.326Z</time></trkpt><trkpt lat="38.0907227" lon="13.3432384"><ele>73.33333333333333</ele><time>2026-04-26T06:57:54.326Z</time></trkpt><trkpt lat="38.0906083" lon="13.3434021"><ele>72.0</ele><time>2026-04-26T06:57:55.326Z</time></trkpt><trkpt lat="38.0904933" lon="13.3435659"><ele>72.0</ele><time>2026-04-26T06:57:56.326Z</time></trkpt><trkpt lat="38.0903868" lon="13.3437425"><ele>72.0</ele><time>2026-04-26T06:57:57.326Z</time></trkpt><trkpt lat="38.0902664" lon="13.3439059"><ele>72.0</ele><time>2026-04-26T06:57:58.326Z</time></trkpt><trkpt lat="38.0901473" lon="13.3440731"><ele>68.66666666666667</ele><time>2026-04-26T06:57:59.326Z</time></trkpt><trkpt lat="38.0900228" lon="13.3442406"><ele>65.33333333333334</ele><time>2026-04-26T06:58:00.326Z</time></trkpt><trkpt lat="38.0898968" lon="13.3444142"><ele>62.0</ele><time>2026-04-26T06:58:01.325Z</time></trkpt><trkpt lat="38.0897707" lon="13.3445899"><ele>65.33333333333334</ele><time>2026-04-26T06:58:02.326Z</time></trkpt><trkpt lat="38.0896408" lon="13.3447586"><ele>68.66666666666667</ele><time>2026-04-26T06:58:03.326Z</time></trkpt><trkpt lat="38.0895133" lon="13.3449297"><ele>72.0</ele><time>2026-04-26T06:58:04.326Z</time></trkpt><trkpt lat="38.0893847" lon="13.345104"><ele>72.0</ele><time>2026-04-26T06:58:05.326Z</time></trkpt><trkpt lat="38.0892557" lon="13.3452745"><ele>72.0</ele><time>2026-04-26T06:58:06.326Z</time></trkpt><trkpt lat="38.0891254" lon="13.3454458"><ele>72.0</ele><time>2026-04-26T06:58:07.326Z</time></trkpt><trkpt lat="38.0889948" lon="13.3456167"><ele>72.66666666666667</ele><time>2026-04-26T06:58:08.326Z</time></trkpt><trkpt lat="38.0888643" lon="13.3457861"><ele>73.33333333333334</ele><time>2026-04-26T06:58:09.326Z</time></trkpt><trkpt lat="38.0887324" lon="13.3459568"><ele>74.0</ele><time>2026-04-26T06:58:10.326Z</time></trkpt><trkpt lat="38.0886032" lon="13.3461301"><ele>74.0</ele><time>2026-04-26T06:58:11.326Z</time></trkpt><trkpt lat="38.0884689" lon="13.3463047"><ele>74.0</ele><time>2026-04-26T06:58:12.326Z</time></trkpt><trkpt lat="38.0883337" lon="13.3464874"><ele>74.0</ele><time>2026-04-26T06:58:13.325Z</time></trkpt><trkpt lat="38.0881914" lon="13.3466673"><ele>74.66666666666667</ele><time>2026-04-26T06:58:14.326Z</time></trkpt><trkpt lat="38.0880557" lon="13.3468539"><ele>75.33333333333333</ele><time>2026-04-26T06:58:15.326Z</time></trkpt><trkpt lat="38.0879163" lon="13.3470392"><ele>76.0</ele><time>2026-04-26T06:58:16.326Z</time></trkpt><trkpt lat="38.0877875" lon="13.3472223"><ele>76.33333333333333</ele><time>2026-04-26T06:58:17.326Z</time></trkpt><trkpt lat="38.0876714" lon="13.3474055"><ele>76.66666666666667</ele><time>2026-04-26T06:58:18.326Z</time></trkpt><trkpt lat="38.0875607" lon="13.3475871"><ele>77.0</ele><time>2026-04-26T06:58:19.326Z</time></trkpt><trkpt lat="38.0874403" lon="13.3477745"><ele>77.66666666666667</ele><time>2026-04-26T06:58:20.325Z</time></trkpt><trkpt lat="38.0873328" lon="13.3479708"><ele>78.33333333333333</ele><time>2026-04-26T06:58:21.326Z</time></trkpt><trkpt lat="38.0872315" lon="13.3481737"><ele>79.0</ele><time>2026-04-26T06:58:22.326Z</time></trkpt><trkpt lat="38.0871333" lon="13.3483784"><ele>79.0</ele><time>2026-04-26T06:58:23.326Z</time></trkpt><trkpt lat="38.0870384" lon="13.348586"><ele>79.0</ele><time>2026-04-26T06:58:24.326Z</time></trkpt><trkpt lat="38.086946" lon="13.3487956"><ele>79.0</ele><time>2026-04-26T06:58:25.326Z</time></trkpt><trkpt lat="38.086858" lon="13.3490086"><ele>78.0</ele><time>2026-04-26T06:58:26.326Z</time></trkpt><trkpt lat="38.0867722" lon="13.3492245"><ele>77.0</ele><time>2026-04-26T06:58:27.326Z</time></trkpt><trkpt lat="38.0866897" lon="13.3494424"><ele>76.0</ele><time>2026-04-26T06:58:28.326Z</time></trkpt><trkpt lat="38.0866097" lon="13.3496606"><ele>76.0</ele><time>2026-04-26T06:58:29.326Z</time></trkpt><trkpt lat="38.086532" lon="13.3498798"><ele>76.0</ele><time>2026-04-26T06:58:30.326Z</time></trkpt><trkpt lat="38.0864559" lon="13.3500982"><ele>76.0</ele><time>2026-04-26T06:58:31.326Z</time></trkpt><trkpt lat="38.086386" lon="13.350316"><ele>76.0</ele><time>2026-04-26T06:58:32.326Z</time></trkpt><trkpt lat="38.0863239" lon="13.350533"><ele>76.0</ele><time>2026-04-26T06:58:33.326Z</time></trkpt><trkpt lat="38.0862713" lon="13.350751"><ele>76.0</ele><time>2026-04-26T06:58:34.326Z</time></trkpt><trkpt lat="38.0862328" lon="13.3509733"><ele>75.33333333333333</ele><time>2026-04-26T06:58:35.326Z</time></trkpt><trkpt lat="38.0862076" lon="13.3511989"><ele>74.66666666666667</ele><time>2026-04-26T06:58:36.326Z</time></trkpt><trkpt lat="38.0861905" lon="13.3514253"><ele>74.0</ele><time>2026-04-26T06:58:37.326Z</time></trkpt><trkpt lat="38.086183" lon="13.351647"><ele>74.0</ele><time>2026-04-26T06:58:38.326Z</time></trkpt><trkpt lat="38.086181" lon="13.3518636"><ele>74.0</ele><time>2026-04-26T06:58:39.326Z</time></trkpt><trkpt lat="38.0861835" lon="13.352077"><ele>74.0</ele><time>2026-04-26T06:58:40.325Z</time></trkpt><trkpt lat="38.0861879" lon="13.3522832"><ele>74.0</ele><time>2026-04-26T06:58:41.326Z</time></trkpt><trkpt lat="38.0861899" lon="13.3524882"><ele>74.0</ele><time>2026-04-26T06:58:42.326Z</time></trkpt><trkpt lat="38.0861955" lon="13.3526981"><ele>74.0</ele><time>2026-04-26T06:58:43.326Z</time></trkpt><trkpt lat="38.0862075" lon="13.3529075"><ele>73.66666666666667</ele><time>2026-04-26T06:58:44.326Z</time></trkpt><trkpt lat="38.0862317" lon="13.3531166"><ele>73.33333333333333</ele><time>2026-04-26T06:58:45.326Z</time></trkpt><trkpt lat="38.0862639" lon="13.3533247"><ele>73.0</ele><time>2026-04-26T06:58:46.325Z</time></trkpt><trkpt lat="38.0862998" lon="13.3535277"><ele>73.0</ele><time>2026-04-26T06:58:47.326Z</time></trkpt><trkpt lat="38.0863365" lon="13.3537279"><ele>73.0</ele><time>2026-04-26T06:58:48.326Z</time></trkpt><trkpt lat="38.0863754" lon="13.3539277"><ele>73.0</ele><time>2026-04-26T06:58:49.326Z</time></trkpt><trkpt lat="38.0864164" lon="13.3541367"><ele>73.0</ele><time>2026-04-26T06:58:50.326Z</time></trkpt><trkpt lat="38.0864564" lon="13.3543501"><ele>73.0</ele><time>2026-04-26T06:58:51.326Z</time></trkpt><trkpt lat="38.0864973" lon="13.3545673"><ele>73.0</ele><time>2026-04-26T06:58:52.326Z</time></trkpt><trkpt lat="38.0865349" lon="13.3547854"><ele>73.0</ele><time>2026-04-26T06:58:53.326Z</time></trkpt><trkpt lat="38.086568" lon="13.3550062"><ele>73.0</ele><time>2026-04-26T06:58:54.326Z</time></trkpt><trkpt lat="38.0865931" lon="13.3552297"><ele>73.0</ele><time>2026-04-26T06:58:55.326Z</time></trkpt><trkpt lat="38.0866188" lon="13.3554476"><ele>71.66666666666666</ele><time>2026-04-26T06:58:56.326Z</time></trkpt><trkpt lat="38.0866472" lon="13.3556643"><ele>70.33333333333333</ele><time>2026-04-26T06:58:57.326Z</time></trkpt><trkpt lat="38.0866789" lon="13.3558813"><ele>69.0</ele><time>2026-04-26T06:58:58.326Z</time></trkpt><trkpt lat="38.0867101" lon="13.3560986"><ele>69.0</ele><time>2026-04-26T06:58:59.326Z</time></trkpt><trkpt lat="38.0867429" lon="13.356315"><ele>69.0</ele><time>2026-04-26T06:59:00.326Z</time></trkpt><trkpt lat="38.0867753" lon="13.3565325"><ele>69.0</ele><time>2026-04-26T06:59:01.325Z</time></trkpt><trkpt lat="38.0868072" lon="13.3567495"><ele>69.0</ele><time>2026-04-26T06:59:02.326Z</time></trkpt><trkpt lat="38.0868417" lon="13.3569664"><ele>69.0</ele><time>2026-04-26T06:59:03.326Z</time></trkpt><trkpt lat="38.0868763" lon="13.3571841"><ele>69.0</ele><time>2026-04-26T06:59:04.325Z</time></trkpt><trkpt lat="38.0869103" lon="13.3574031"><ele>69.0</ele><time>2026-04-26T06:59:05.326Z</time></trkpt><trkpt lat="38.0869465" lon="13.3576184"><ele>69.0</ele><time>2026-04-26T06:59:06.326Z</time></trkpt><trkpt lat="38.0869818" lon="13.3578351"><ele>69.0</ele><time>2026-04-26T06:59:07.326Z</time></trkpt><trkpt lat="38.0870164" lon="13.3580479"><ele>68.66666666666667</ele><time>2026-04-26T06:59:08.326Z</time></trkpt><trkpt lat="38.0870515" lon="13.358255"><ele>68.33333333333334</ele><time>2026-04-26T06:59:09.326Z</time></trkpt><trkpt lat="38.0870828" lon="13.3584539"><ele>68.0</ele><time>2026-04-26T06:59:10.326Z</time></trkpt><trkpt lat="38.087117" lon="13.3586476"><ele>68.0</ele><time>2026-04-26T06:59:11.326Z</time></trkpt><trkpt lat="38.0871498" lon="13.3588389"><ele>68.0</ele><time>2026-04-26T06:59:12.326Z</time></trkpt><trkpt lat="38.0871819" lon="13.3590317"><ele>68.0</ele><time>2026-04-26T06:59:13.326Z</time></trkpt><trkpt lat="38.0872132" lon="13.3592286"><ele>67.33333333333334</ele><time>2026-04-26T06:59:14.326Z</time></trkpt><trkpt lat="38.0872446" lon="13.3594295"><ele>66.66666666666667</ele><time>2026-04-26T06:59:15.326Z</time></trkpt><trkpt lat="38.0872741" lon="13.3596339"><ele>66.0</ele><time>2026-04-26T06:59:16.326Z</time></trkpt><trkpt lat="38.0873029" lon="13.3598356"><ele>66.0</ele><time>2026-04-26T06:59:17.326Z</time></trkpt><trkpt lat="38.0873306" lon="13.36003"><ele>66.0</ele><time>2026-04-26T06:59:18.326Z</time></trkpt><trkpt lat="38.0873571" lon="13.360222"><ele>66.0</ele><time>2026-04-26T06:59:19.326Z</time></trkpt><trkpt lat="38.0873883" lon="13.3604108"><ele>66.25</ele><time>2026-04-26T06:59:20.326Z</time></trkpt><trkpt lat="38.0874202" lon="13.3605936"><ele>66.5</ele><time>2026-04-26T06:59:21.326Z</time></trkpt><trkpt lat="38.087449" lon="13.3607718"><ele>66.75</ele><time>2026-04-26T06:59:22.326Z</time></trkpt><trkpt lat="38.0874764" lon="13.3609469"><ele>67.0</ele><time>2026-04-26T06:59:23.326Z</time></trkpt><trkpt lat="38.0875038" lon="13.3611214"><ele>65.5</ele><time>2026-04-26T06:59:24.326Z</time></trkpt><trkpt lat="38.0875313" lon="13.3612971"><ele>64.0</ele><time>2026-04-26T06:59:25.326Z</time></trkpt><trkpt lat="38.0875591" lon="13.361476"><ele>62.5</ele><time>2026-04-26T06:59:26.326Z</time></trkpt><trkpt lat="38.08759" lon="13.3616577"><ele>61.0</ele><time>2026-04-26T06:59:27.325Z</time></trkpt><trkpt lat="38.0876324" lon="13.3618227"><ele>61.0</ele><time>2026-04-26T06:59:28.326Z</time></trkpt><trkpt lat="38.087669" lon="13.3620154"><ele>61.0</ele><time>2026-04-26T06:59:29.326Z</time></trkpt><trkpt lat="38.0876985" lon="13.36221"><ele>61.0</ele><time>2026-04-26T06:59:30.326Z</time></trkpt><trkpt lat="38.0877296" lon="13.3624083"><ele>60.666666666666664</ele><time>2026-04-26T06:59:31.325Z</time></trkpt><trkpt lat="38.0877597" lon="13.3626123"><ele>60.33333333333333</ele><time>2026-04-26T06:59:32.326Z</time></trkpt><trkpt lat="38.0877916" lon="13.3628166"><ele>60.0</ele><time>2026-04-26T06:59:33.325Z</time></trkpt><trkpt lat="38.0878215" lon="13.3630226"><ele>60.0</ele><time>2026-04-26T06:59:34.326Z</time></trkpt><trkpt lat="38.0878542" lon="13.3632293"><ele>60.0</ele><time>2026-04-26T06:59:35.325Z</time></trkpt><trkpt lat="38.0878839" lon="13.363433"><ele>60.0</ele><time>2026-04-26T06:59:36.326Z</time></trkpt><trkpt lat="38.0879141" lon="13.3636328"><ele>60.0</ele><time>2026-04-26T06:59:37.326Z</time></trkpt><trkpt lat="38.0879473" lon="13.3638262"><ele>60.0</ele><time>2026-04-26T06:59:38.326Z</time></trkpt><trkpt lat="38.08798" lon="13.3640255"><ele>60.0</ele><time>2026-04-26T06:59:39.326Z</time></trkpt><trkpt lat="38.0880133" lon="13.3642239"><ele>59.33333333333333</ele><time>2026-04-26T06:59:40.326Z</time></trkpt><trkpt lat="38.0880459" lon="13.364425"><ele>58.666666666666664</ele><time>2026-04-26T06:59:41.325Z</time></trkpt><trkpt lat="38.0880775" lon="13.3646261"><ele>58.0</ele><time>2026-04-26T06:59:42.326Z</time></trkpt><trkpt lat="38.0881071" lon="13.3648309"><ele>58.0</ele><time>2026-04-26T06:59:43.326Z</time></trkpt><trkpt lat="38.0881359" lon="13.3650269"><ele>58.0</ele><time>2026-04-26T06:59:44.326Z</time></trkpt><trkpt lat="38.0881636" lon="13.3652216"><ele>58.0</ele><time>2026-04-26T06:59:45.326Z</time></trkpt><trkpt lat="38.0881924" lon="13.3654141"><ele>58.0</ele><time>2026-04-26T06:59:46.326Z</time></trkpt><trkpt lat="38.0882192" lon="13.3656012"><ele>58.0</ele><time>2026-04-26T06:59:47.326Z</time></trkpt><trkpt lat="38.0882474" lon="13.3657843"><ele>58.0</ele><time>2026-04-26T06:59:48.326Z</time></trkpt><trkpt lat="38.0882743" lon="13.3659529"><ele>58.0</ele><time>2026-04-26T06:59:49.326Z</time></trkpt><trkpt lat="38.0882969" lon="13.366107"><ele>57.8</ele><time>2026-04-26T06:59:50.326Z</time></trkpt><trkpt lat="38.0883191" lon="13.3662633"><ele>57.599999999999994</ele><time>2026-04-26T06:59:51.326Z</time></trkpt><trkpt lat="38.0883395" lon="13.3663868"><ele>57.400000000000006</ele><time>2026-04-26T06:59:52.326Z</time></trkpt><trkpt lat="38.0883549" lon="13.3664946"><ele>57.2</ele><time>2026-04-26T06:59:53.326Z</time></trkpt><trkpt lat="38.0883637" lon="13.3665923"><ele>57.0</ele><time>2026-04-26T06:59:54.326Z</time></trkpt><trkpt lat="38.0883653" lon="13.36668"><ele>57.0</ele><time>2026-04-26T06:59:55.326Z</time></trkpt><trkpt lat="38.0883668" lon="13.3667601"><ele>57.0</ele><time>2026-04-26T06:59:56.326Z</time></trkpt><trkpt lat="38.088378" lon="13.3669056"><ele>57.0</ele><time>2026-04-26T06:59:58.326Z</time></trkpt><trkpt lat="38.0883829" lon="13.3670279"><ele>57.0</ele><time>2026-04-26T07:00:00.326Z</time></trkpt><trkpt lat="38.088433" lon="13.3671447"><ele>57.0</ele><time>2026-04-26T07:01:32.326Z</time></trkpt><trkpt lat="38.0884628" lon="13.3672159"><ele>57.0</ele><time>2026-04-26T07:01:33.326Z</time></trkpt><trkpt lat="38.0884848" lon="13.3673037"><ele>56.8</ele><time>2026-04-26T07:01:34.326Z</time></trkpt><trkpt lat="38.0885054" lon="13.3674063"><ele>56.6</ele><time>2026-04-26T07:01:35.325Z</time></trkpt><trkpt lat="38.0885219" lon="13.3675241"><ele>56.39999999999999</ele><time>2026-04-26T07:01:36.325Z</time></trkpt><trkpt lat="38.0885414" lon="13.3676521"><ele>56.199999999999996</ele><time>2026-04-26T07:01:37.326Z</time></trkpt><trkpt lat="38.0885657" lon="13.3677861"><ele>56.0</ele><time>2026-04-26T07:01:38.326Z</time></trkpt><trkpt lat="38.0885921" lon="13.367929"><ele>55.5</ele><time>2026-04-26T07:01:39.325Z</time></trkpt><trkpt lat="38.088614" lon="13.36808"><ele>55.0</ele><time>2026-04-26T07:01:40.326Z</time></trkpt><trkpt lat="38.0886384" lon="13.3682364"><ele>54.5</ele><time>2026-04-26T07:01:41.325Z</time></trkpt><trkpt lat="38.0886648" lon="13.3684071"><ele>54.0</ele><time>2026-04-26T07:01:42.325Z</time></trkpt><trkpt lat="38.088695" lon="13.3685821"><ele>54.0</ele><time>2026-04-26T07:01:43.326Z</time></trkpt><trkpt lat="38.0887245" lon="13.3687638"><ele>54.0</ele><time>2026-04-26T07:01:44.326Z</time></trkpt><trkpt lat="38.0887594" lon="13.3689523"><ele>54.0</ele><time>2026-04-26T07:01:45.326Z</time></trkpt><trkpt lat="38.0888" lon="13.3691484"><ele>53.66666666666667</ele><time>2026-04-26T07:01:46.326Z</time></trkpt><trkpt lat="38.0888398" lon="13.3693451"><ele>53.333333333333336</ele><time>2026-04-26T07:01:47.326Z</time></trkpt><trkpt lat="38.0888864" lon="13.3695414"><ele>53.0</ele><time>2026-04-26T07:01:48.326Z</time></trkpt><trkpt lat="38.0889325" lon="13.3697437"><ele>53.0</ele><time>2026-04-26T07:01:49.326Z</time></trkpt><trkpt lat="38.0889794" lon="13.369945"><ele>53.0</ele><time>2026-04-26T07:01:50.326Z</time></trkpt><trkpt lat="38.0890664" lon="13.3703638"><ele>52.333333333333336</ele><time>2026-04-26T07:01:52.326Z</time></trkpt><trkpt lat="38.089113" lon="13.3705713"><ele>51.66666666666667</ele><time>2026-04-26T07:01:53.326Z</time></trkpt><trkpt lat="38.089158" lon="13.3707746"><ele>51.0</ele><time>2026-04-26T07:01:54.326Z</time></trkpt><trkpt lat="38.0892034" lon="13.3709883"><ele>51.0</ele><time>2026-04-26T07:01:55.326Z</time></trkpt><trkpt lat="38.0892508" lon="13.3711975"><ele>51.0</ele><time>2026-04-26T07:01:56.325Z</time></trkpt><trkpt lat="38.0892953" lon="13.3714096"><ele>51.0</ele><time>2026-04-26T07:01:57.326Z</time></trkpt><trkpt lat="38.0893436" lon="13.3716275"><ele>51.0</ele><time>2026-04-26T07:01:58.326Z</time></trkpt><trkpt lat="38.0893905" lon="13.3718468"><ele>51.0</ele><time>2026-04-26T07:01:59.326Z</time></trkpt><trkpt lat="38.0894384" lon="13.3720704"><ele>51.0</ele><time>2026-04-26T07:02:00.326Z</time></trkpt><trkpt lat="38.0894885" lon="13.3722942"><ele>52.0</ele><time>2026-04-26T07:02:01.325Z</time></trkpt><trkpt lat="38.0895363" lon="13.3725162"><ele>53.0</ele><time>2026-04-26T07:02:02.326Z</time></trkpt><trkpt lat="38.089586" lon="13.3727374"><ele>54.0</ele><time>2026-04-26T07:02:03.326Z</time></trkpt><trkpt lat="38.0896333" lon="13.372953"><ele>52.66666666666667</ele><time>2026-04-26T07:02:04.325Z</time></trkpt><trkpt lat="38.0896805" lon="13.3731687"><ele>51.333333333333336</ele><time>2026-04-26T07:02:05.326Z</time></trkpt><trkpt lat="38.0897289" lon="13.373393"><ele>50.0</ele><time>2026-04-26T07:02:06.326Z</time></trkpt><trkpt lat="38.0897807" lon="13.3736134"><ele>50.0</ele><time>2026-04-26T07:02:07.326Z</time></trkpt><trkpt lat="38.0898333" lon="13.3738283"><ele>50.0</ele><time>2026-04-26T07:02:08.326Z</time></trkpt><trkpt lat="38.089884" lon="13.374037"><ele>50.0</ele><time>2026-04-26T07:02:09.326Z</time></trkpt><trkpt lat="38.0899333" lon="13.3742496"><ele>49.333333333333336</ele><time>2026-04-26T07:02:10.326Z</time></trkpt><trkpt lat="38.0899817" lon="13.3744666"><ele>48.66666666666667</ele><time>2026-04-26T07:02:11.326Z</time></trkpt><trkpt lat="38.0900282" lon="13.3746898"><ele>48.0</ele><time>2026-04-26T07:02:12.326Z</time></trkpt><trkpt lat="38.0900752" lon="13.374918"><ele>47.666666666666664</ele><time>2026-04-26T07:02:13.325Z</time></trkpt><trkpt lat="38.0901214" lon="13.3751518"><ele>47.33333333333333</ele><time>2026-04-26T07:02:14.326Z</time></trkpt><trkpt lat="38.090171" lon="13.3753874"><ele>47.0</ele><time>2026-04-26T07:02:15.326Z</time></trkpt><trkpt lat="38.0902249" lon="13.3756257"><ele>46.33333333333333</ele><time>2026-04-26T07:02:16.326Z</time></trkpt><trkpt lat="38.0902823" lon="13.375864"><ele>45.666666666666664</ele><time>2026-04-26T07:02:17.326Z</time></trkpt><trkpt lat="38.0903406" lon="13.3760984"><ele>45.0</ele><time>2026-04-26T07:02:18.326Z</time></trkpt><trkpt lat="38.0903982" lon="13.3763261"><ele>44.0</ele><time>2026-04-26T07:02:19.326Z</time></trkpt><trkpt lat="38.0904518" lon="13.376548"><ele>43.0</ele><time>2026-04-26T07:02:20.326Z</time></trkpt><trkpt lat="38.0905032" lon="13.3767737"><ele>42.0</ele><time>2026-04-26T07:02:21.326Z</time></trkpt><trkpt lat="38.0905569" lon="13.3770011"><ele>42.333333333333336</ele><time>2026-04-26T07:02:22.326Z</time></trkpt><trkpt lat="38.0906064" lon="13.3772334"><ele>42.66666666666667</ele><time>2026-04-26T07:02:23.326Z</time></trkpt><trkpt lat="38.0906546" lon="13.3774672"><ele>43.0</ele><time>2026-04-26T07:02:24.326Z</time></trkpt><trkpt lat="38.0907041" lon="13.3777035"><ele>43.0</ele><time>2026-04-26T07:02:25.326Z</time></trkpt><trkpt lat="38.0907534" lon="13.3779454"><ele>43.0</ele><time>2026-04-26T07:02:26.326Z</time></trkpt><trkpt lat="38.0907963" lon="13.3781873"><ele>43.0</ele><time>2026-04-26T07:02:27.326Z</time></trkpt><trkpt lat="38.0908385" lon="13.3784218"><ele>42.333333333333336</ele><time>2026-04-26T07:02:28.326Z</time></trkpt><trkpt lat="38.0908728" lon="13.3786489"><ele>41.666666666666664</ele><time>2026-04-26T07:02:29.326Z</time></trkpt><trkpt lat="38.0908988" lon="13.3788766"><ele>41.0</ele><time>2026-04-26T07:02:30.326Z</time></trkpt><trkpt lat="38.090918" lon="13.3790969"><ele>40.33333333333333</ele><time>2026-04-26T07:02:31.326Z</time></trkpt><trkpt lat="38.0909293" lon="13.379318"><ele>39.666666666666664</ele><time>2026-04-26T07:02:32.326Z</time></trkpt><trkpt lat="38.0909307" lon="13.379538"><ele>39.0</ele><time>2026-04-26T07:02:33.326Z</time></trkpt><trkpt lat="38.0909257" lon="13.3797626"><ele>38.333333333333336</ele><time>2026-04-26T07:02:34.326Z</time></trkpt><trkpt lat="38.0909115" lon="13.3799956"><ele>37.66666666666667</ele><time>2026-04-26T07:02:35.326Z</time></trkpt><trkpt lat="38.0908942" lon="13.3802262"><ele>37.0</ele><time>2026-04-26T07:02:36.326Z</time></trkpt><trkpt lat="38.0908758" lon="13.3804548"><ele>36.333333333333336</ele><time>2026-04-26T07:02:37.326Z</time></trkpt><trkpt lat="38.0908471" lon="13.3806779"><ele>35.666666666666664</ele><time>2026-04-26T07:02:38.326Z</time></trkpt><trkpt lat="38.0908147" lon="13.3808981"><ele>35.0</ele><time>2026-04-26T07:02:39.326Z</time></trkpt><trkpt lat="38.0907764" lon="13.3811208"><ele>35.0</ele><time>2026-04-26T07:02:40.326Z</time></trkpt><trkpt lat="38.09073" lon="13.3813518"><ele>35.0</ele><time>2026-04-26T07:02:41.326Z</time></trkpt><trkpt lat="38.0906744" lon="13.3815817"><ele>35.0</ele><time>2026-04-26T07:02:42.326Z</time></trkpt><trkpt lat="38.0906132" lon="13.3818112"><ele>35.0</ele><time>2026-04-26T07:02:43.326Z</time></trkpt><trkpt lat="38.0905693" lon="13.3820657"><ele>35.0</ele><time>2026-04-26T07:02:44.326Z</time></trkpt><trkpt lat="38.0904946" lon="13.3822936"><ele>35.0</ele><time>2026-04-26T07:02:45.326Z</time></trkpt><trkpt lat="38.0904137" lon="13.3825203"><ele>35.0</ele><time>2026-04-26T07:02:46.326Z</time></trkpt><trkpt lat="38.0903288" lon="13.3827486"><ele>35.0</ele><time>2026-04-26T07:02:47.326Z</time></trkpt><trkpt lat="38.0902426" lon="13.3829828"><ele>35.0</ele><time>2026-04-26T07:02:48.326Z</time></trkpt><trkpt lat="38.0901534" lon="13.3832322"><ele>34.666666666666664</ele><time>2026-04-26T07:02:49.326Z</time></trkpt><trkpt lat="38.0900682" lon="13.3834718"><ele>34.333333333333336</ele><time>2026-04-26T07:02:50.326Z</time></trkpt><trkpt lat="38.0899847" lon="13.3837171"><ele>34.0</ele><time>2026-04-26T07:02:51.326Z</time></trkpt><trkpt lat="38.0898965" lon="13.3839585"><ele>33.0</ele><time>2026-04-26T07:02:52.326Z</time></trkpt><trkpt lat="38.0898095" lon="13.3842006"><ele>32.0</ele><time>2026-04-26T07:02:53.326Z</time></trkpt><trkpt lat="38.0897227" lon="13.3844444"><ele>31.0</ele><time>2026-04-26T07:02:54.326Z</time></trkpt><trkpt lat="38.0896284" lon="13.3846914"><ele>30.0</ele><time>2026-04-26T07:02:55.326Z</time></trkpt><trkpt lat="38.0895387" lon="13.3849333"><ele>29.0</ele><time>2026-04-26T07:02:56.326Z</time></trkpt><trkpt lat="38.0894476" lon="13.3851868"><ele>28.0</ele><time>2026-04-26T07:02:57.326Z</time></trkpt><trkpt lat="38.0893543" lon="13.3854444"><ele>28.333333333333336</ele><time>2026-04-26T07:02:58.325Z</time></trkpt><trkpt lat="38.0892667" lon="13.3857018"><ele>28.666666666666664</ele><time>2026-04-26T07:02:59.326Z</time></trkpt><trkpt lat="38.0891785" lon="13.3859673"><ele>29.0</ele><time>2026-04-26T07:03:00.325Z</time></trkpt><trkpt lat="38.0890881" lon="13.3862278"><ele>33.0</ele><time>2026-04-26T07:03:01.326Z</time></trkpt><trkpt lat="38.0890022" lon="13.3864953"><ele>37.0</ele><time>2026-04-26T07:03:02.326Z</time></trkpt><trkpt lat="38.0889214" lon="13.3867684"><ele>37.0</ele><time>2026-04-26T07:03:03.326Z</time></trkpt><trkpt lat="38.0888453" lon="13.3870514"><ele>37.0</ele><time>2026-04-26T07:03:04.326Z</time></trkpt><trkpt lat="38.0887717" lon="13.3873305"><ele>39.0</ele><time>2026-04-26T07:03:05.326Z</time></trkpt><trkpt lat="38.0887103" lon="13.3876127"><ele>41.0</ele><time>2026-04-26T07:03:06.326Z</time></trkpt><trkpt lat="38.0886496" lon="13.3878972"><ele>39.5</ele><time>2026-04-26T07:03:07.326Z</time></trkpt><trkpt lat="38.0885863" lon="13.3881828"><ele>38.0</ele><time>2026-04-26T07:03:08.326Z</time></trkpt><trkpt lat="38.0885207" lon="13.3884662"><ele>38.0</ele><time>2026-04-26T07:03:09.326Z</time></trkpt><trkpt lat="38.0884557" lon="13.3887556"><ele>38.0</ele><time>2026-04-26T07:03:10.326Z</time></trkpt><trkpt lat="38.0883936" lon="13.3890524"><ele>34.0</ele><time>2026-04-26T07:03:11.326Z</time></trkpt><trkpt lat="38.0883433" lon="13.3893478"><ele>30.0</ele><time>2026-04-26T07:03:12.326Z</time></trkpt><trkpt lat="38.0882839" lon="13.3896604"><ele>32.0</ele><time>2026-04-26T07:03:13.326Z</time></trkpt><trkpt lat="38.0882285" lon="13.3899718"><ele>34.0</ele><time>2026-04-26T07:03:14.326Z</time></trkpt><trkpt lat="38.0881676" lon="13.3902835"><ele>32.5</ele><time>2026-04-26T07:03:15.326Z</time></trkpt><trkpt lat="38.0881075" lon="13.3905976"><ele>31.0</ele><time>2026-04-26T07:03:16.326Z</time></trkpt><trkpt lat="38.0880436" lon="13.39091"><ele>31.0</ele><time>2026-04-26T07:03:17.325Z</time></trkpt><trkpt lat="38.08798" lon="13.391226"><ele>31.0</ele><time>2026-04-26T07:03:18.326Z</time></trkpt><trkpt lat="38.0879154" lon="13.3915421"><ele>30.0</ele><time>2026-04-26T07:03:19.326Z</time></trkpt><trkpt lat="38.0878434" lon="13.3918534"><ele>29.0</ele><time>2026-04-26T07:03:20.326Z</time></trkpt><trkpt lat="38.087783" lon="13.3921717"><ele>30.0</ele><time>2026-04-26T07:03:21.326Z</time></trkpt><trkpt lat="38.0876942" lon="13.3924713"><ele>31.0</ele><time>2026-04-26T07:03:22.326Z</time></trkpt><trkpt lat="38.0876066" lon="13.3927636"><ele>31.0</ele><time>2026-04-26T07:03:23.326Z</time></trkpt><trkpt lat="38.0875221" lon="13.3930522"><ele>31.0</ele><time>2026-04-26T07:03:24.326Z</time></trkpt><trkpt lat="38.087459" lon="13.393344"><ele>31.5</ele><time>2026-04-26T07:03:25.326Z</time></trkpt><trkpt lat="38.0874187" lon="13.3936374"><ele>32.0</ele><time>2026-04-26T07:03:26.326Z</time></trkpt><trkpt lat="38.0873927" lon="13.3939339"><ele>31.0</ele><time>2026-04-26T07:03:27.325Z</time></trkpt><trkpt lat="38.0873541" lon="13.3942197"><ele>30.0</ele><time>2026-04-26T07:03:28.326Z</time></trkpt><trkpt lat="38.087321" lon="13.3945028"><ele>30.333333333333336</ele><time>2026-04-26T07:03:29.326Z</time></trkpt><trkpt lat="38.0872932" lon="13.394788"><ele>30.666666666666668</ele><time>2026-04-26T07:03:30.326Z</time></trkpt><trkpt lat="38.0872717" lon="13.3950667"><ele>31.0</ele><time>2026-04-26T07:03:31.326Z</time></trkpt><trkpt lat="38.0872502" lon="13.3953551"><ele>31.5</ele><time>2026-04-26T07:03:32.326Z</time></trkpt><trkpt lat="38.087231" lon="13.3956459"><ele>32.0</ele><time>2026-04-26T07:03:33.326Z</time></trkpt><trkpt lat="38.0872092" lon="13.3959364"><ele>32.0</ele><time>2026-04-26T07:03:34.326Z</time></trkpt><trkpt lat="38.0871821" lon="13.3962261"><ele>32.0</ele><time>2026-04-26T07:03:35.326Z</time></trkpt><trkpt lat="38.0871657" lon="13.3965243"><ele>32.5</ele><time>2026-04-26T07:03:36.326Z</time></trkpt><trkpt lat="38.0871424" lon="13.3968199"><ele>33.0</ele><time>2026-04-26T07:03:37.326Z</time></trkpt><trkpt lat="38.0871127" lon="13.397113"><ele>33.5</ele><time>2026-04-26T07:03:38.326Z</time></trkpt><trkpt lat="38.0870859" lon="13.3974095"><ele>34.0</ele><time>2026-04-26T07:03:39.326Z</time></trkpt><trkpt lat="38.0870545" lon="13.3976971"><ele>34.0</ele><time>2026-04-26T07:03:40.326Z</time></trkpt><trkpt lat="38.0870349" lon="13.3979841"><ele>34.0</ele><time>2026-04-26T07:03:41.326Z</time></trkpt><trkpt lat="38.0870129" lon="13.3982689"><ele>32.5</ele><time>2026-04-26T07:03:42.326Z</time></trkpt><trkpt lat="38.0869928" lon="13.3985554"><ele>31.0</ele><time>2026-04-26T07:03:43.326Z</time></trkpt><trkpt lat="38.0869709" lon="13.3988492"><ele>30.5</ele><time>2026-04-26T07:03:44.326Z</time></trkpt><trkpt lat="38.0869517" lon="13.3991347"><ele>30.0</ele><time>2026-04-26T07:03:45.326Z</time></trkpt><trkpt lat="38.0869268" lon="13.399422"><ele>30.0</ele><time>2026-04-26T07:03:46.326Z</time></trkpt><trkpt lat="38.0869" lon="13.3997114"><ele>30.0</ele><time>2026-04-26T07:03:47.326Z</time></trkpt><trkpt lat="38.0868723" lon="13.4000028"><ele>30.0</ele><time>2026-04-26T07:03:48.326Z</time></trkpt><trkpt lat="38.086848" lon="13.4002983"><ele>30.0</ele><time>2026-04-26T07:03:49.325Z</time></trkpt><trkpt lat="38.0868281" lon="13.4005962"><ele>29.5</ele><time>2026-04-26T07:03:50.325Z</time></trkpt><trkpt lat="38.0868084" lon="13.4008883"><ele>29.0</ele><time>2026-04-26T07:03:51.326Z</time></trkpt><trkpt lat="38.0867828" lon="13.4011773"><ele>30.5</ele><time>2026-04-26T07:03:52.326Z</time></trkpt><trkpt lat="38.0867554" lon="13.4014657"><ele>32.0</ele><time>2026-04-26T07:03:53.326Z</time></trkpt><trkpt lat="38.0867287" lon="13.4017518"><ele>32.0</ele><time>2026-04-26T07:03:54.326Z</time></trkpt><trkpt lat="38.0866981" lon="13.4020452"><ele>32.0</ele><time>2026-04-26T07:03:55.326Z</time></trkpt><trkpt lat="38.086668" lon="13.4023357"><ele>32.0</ele><time>2026-04-26T07:03:56.326Z</time></trkpt><trkpt lat="38.0866355" lon="13.4026315"><ele>32.0</ele><time>2026-04-26T07:03:57.326Z</time></trkpt><trkpt lat="38.0866082" lon="13.4029275"><ele>32.5</ele><time>2026-04-26T07:03:58.326Z</time></trkpt><trkpt lat="38.0865839" lon="13.4032237"><ele>33.0</ele><time>2026-04-26T07:03:59.326Z</time></trkpt><trkpt lat="38.0865563" lon="13.4035103"><ele>33.0</ele><time>2026-04-26T07:04:00.326Z</time></trkpt><trkpt lat="38.0865283" lon="13.4037896"><ele>33.0</ele><time>2026-04-26T07:04:01.326Z</time></trkpt><trkpt lat="38.0865001" lon="13.4040676"><ele>33.0</ele><time>2026-04-26T07:04:02.326Z</time></trkpt><trkpt lat="38.0864745" lon="13.4043448"><ele>32.666666666666664</ele><time>2026-04-26T07:04:03.326Z</time></trkpt><trkpt lat="38.0864455" lon="13.4046201"><ele>32.33333333333333</ele><time>2026-04-26T07:04:04.326Z</time></trkpt><trkpt lat="38.0864177" lon="13.4048935"><ele>32.0</ele><time>2026-04-26T07:04:05.326Z</time></trkpt><trkpt lat="38.0863918" lon="13.4051634"><ele>32.0</ele><time>2026-04-26T07:04:06.326Z</time></trkpt><trkpt lat="38.0863663" lon="13.4054333"><ele>32.0</ele><time>2026-04-26T07:04:07.326Z</time></trkpt><trkpt lat="38.086347" lon="13.40571"><ele>32.0</ele><time>2026-04-26T07:04:08.326Z</time></trkpt><trkpt lat="38.086325" lon="13.4059824"><ele>31.666666666666664</ele><time>2026-04-26T07:04:09.326Z</time></trkpt><trkpt lat="38.0863081" lon="13.4062609"><ele>31.333333333333336</ele><time>2026-04-26T07:04:10.326Z</time></trkpt><trkpt lat="38.0862901" lon="13.4065447"><ele>31.0</ele><time>2026-04-26T07:04:11.326Z</time></trkpt><trkpt lat="38.0862681" lon="13.4068273"><ele>31.0</ele><time>2026-04-26T07:04:12.326Z</time></trkpt><trkpt lat="38.0862428" lon="13.4071147"><ele>31.0</ele><time>2026-04-26T07:04:13.326Z</time></trkpt><trkpt lat="38.0862188" lon="13.407405"><ele>31.0</ele><time>2026-04-26T07:04:14.326Z</time></trkpt><trkpt lat="38.0861948" lon="13.4076941"><ele>31.0</ele><time>2026-04-26T07:04:15.326Z</time></trkpt><trkpt lat="38.0861717" lon="13.4079938"><ele>31.0</ele><time>2026-04-26T07:04:16.326Z</time></trkpt><trkpt lat="38.086145" lon="13.4082996"><ele>31.0</ele><time>2026-04-26T07:04:17.326Z</time></trkpt><trkpt lat="38.0861159" lon="13.4086069"><ele>31.5</ele><time>2026-04-26T07:04:18.326Z</time></trkpt><trkpt lat="38.0860905" lon="13.4089147"><ele>32.0</ele><time>2026-04-26T07:04:19.326Z</time></trkpt><trkpt lat="38.0860645" lon="13.4092224"><ele>32.0</ele><time>2026-04-26T07:04:20.326Z</time></trkpt><trkpt lat="38.0860386" lon="13.4095255"><ele>32.0</ele><time>2026-04-26T07:04:21.326Z</time></trkpt><trkpt lat="38.0860147" lon="13.4098325"><ele>31.0</ele><time>2026-04-26T07:04:22.326Z</time></trkpt><trkpt lat="38.0859911" lon="13.4101405"><ele>30.0</ele><time>2026-04-26T07:04:23.326Z</time></trkpt><trkpt lat="38.0859635" lon="13.4104434"><ele>29.5</ele><time>2026-04-26T07:04:24.326Z</time></trkpt><trkpt lat="38.0859403" lon="13.4107521"><ele>29.0</ele><time>2026-04-26T07:04:25.326Z</time></trkpt><trkpt lat="38.0859147" lon="13.4110565"><ele>30.0</ele><time>2026-04-26T07:04:26.326Z</time></trkpt><trkpt lat="38.0858879" lon="13.4113616"><ele>31.0</ele><time>2026-04-26T07:04:27.326Z</time></trkpt><trkpt lat="38.0858603" lon="13.4116637"><ele>31.0</ele><time>2026-04-26T07:04:28.326Z</time></trkpt><trkpt lat="38.085839" lon="13.4119611"><ele>31.0</ele><time>2026-04-26T07:04:29.325Z</time></trkpt><trkpt lat="38.0858238" lon="13.4122558"><ele>31.0</ele><time>2026-04-26T07:04:30.326Z</time></trkpt><trkpt lat="38.0858025" lon="13.4125546"><ele>31.0</ele><time>2026-04-26T07:04:31.326Z</time></trkpt><trkpt lat="38.0857925" lon="13.4128557"><ele>31.0</ele><time>2026-04-26T07:04:32.326Z</time></trkpt><trkpt lat="38.0857855" lon="13.4131568"><ele>31.0</ele><time>2026-04-26T07:04:33.326Z</time></trkpt><trkpt lat="38.0857837" lon="13.4134612"><ele>31.0</ele><time>2026-04-26T07:04:34.326Z</time></trkpt><trkpt lat="38.0857846" lon="13.4137679"><ele>31.0</ele><time>2026-04-26T07:04:35.326Z</time></trkpt><trkpt lat="38.0857884" lon="13.4140766"><ele>31.0</ele><time>2026-04-26T07:04:36.326Z</time></trkpt><trkpt lat="38.0857934" lon="13.4143796"><ele>31.0</ele><time>2026-04-26T07:04:37.326Z</time></trkpt><trkpt lat="38.0857993" lon="13.4146752"><ele>31.5</ele><time>2026-04-26T07:04:38.325Z</time></trkpt><trkpt lat="38.0858073" lon="13.4149774"><ele>32.0</ele><time>2026-04-26T07:04:39.326Z</time></trkpt><trkpt lat="38.0858119" lon="13.4152782"><ele>32.0</ele><time>2026-04-26T07:04:40.326Z</time></trkpt><trkpt lat="38.0858159" lon="13.4155834"><ele>32.0</ele><time>2026-04-26T07:04:41.326Z</time></trkpt><trkpt lat="38.0858204" lon="13.4158904"><ele>32.0</ele><time>2026-04-26T07:04:42.326Z</time></trkpt><trkpt lat="38.0858138" lon="13.416199"><ele>32.0</ele><time>2026-04-26T07:04:43.326Z</time></trkpt><trkpt lat="38.0858167" lon="13.416509"><ele>31.0</ele><time>2026-04-26T07:04:44.325Z</time></trkpt><trkpt lat="38.0858223" lon="13.4168205"><ele>30.0</ele><time>2026-04-26T07:04:45.326Z</time></trkpt><trkpt lat="38.085828" lon="13.4171257"><ele>30.5</ele><time>2026-04-26T07:04:46.326Z</time></trkpt><trkpt lat="38.0858355" lon="13.4174406"><ele>31.0</ele><time>2026-04-26T07:04:47.326Z</time></trkpt><trkpt lat="38.0858378" lon="13.4177529"><ele>31.5</ele><time>2026-04-26T07:04:48.326Z</time></trkpt><trkpt lat="38.0858397" lon="13.418065"><ele>32.0</ele><time>2026-04-26T07:04:49.326Z</time></trkpt><trkpt lat="38.0858419" lon="13.4183859"><ele>32.0</ele><time>2026-04-26T07:04:50.325Z</time></trkpt><trkpt lat="38.0858405" lon="13.4187051"><ele>32.0</ele><time>2026-04-26T07:04:51.326Z</time></trkpt><trkpt lat="38.0858384" lon="13.4190244"><ele>31.0</ele><time>2026-04-26T07:04:52.326Z</time></trkpt><trkpt lat="38.0858408" lon="13.4193495"><ele>30.0</ele><time>2026-04-26T07:04:53.326Z</time></trkpt><trkpt lat="38.0858342" lon="13.4196706"><ele>29.5</ele><time>2026-04-26T07:04:54.326Z</time></trkpt><trkpt lat="38.085846" lon="13.4199949"><ele>29.0</ele><time>2026-04-26T07:04:55.326Z</time></trkpt><trkpt lat="38.0858464" lon="13.4203062"><ele>29.5</ele><time>2026-04-26T07:04:56.326Z</time></trkpt><trkpt lat="38.0858516" lon="13.4206083"><ele>30.0</ele><time>2026-04-26T07:04:57.326Z</time></trkpt><trkpt lat="38.0858601" lon="13.4209003"><ele>30.0</ele><time>2026-04-26T07:04:58.326Z</time></trkpt><trkpt lat="38.0858629" lon="13.4211825"><ele>30.0</ele><time>2026-04-26T07:04:59.326Z</time></trkpt><trkpt lat="38.0858645" lon="13.421457"><ele>30.0</ele><time>2026-04-26T07:05:00.326Z</time></trkpt><trkpt lat="38.0858656" lon="13.421726"><ele>30.0</ele><time>2026-04-26T07:05:01.326Z</time></trkpt><trkpt lat="38.0858635" lon="13.4219929"><ele>30.0</ele><time>2026-04-26T07:05:02.326Z</time></trkpt><trkpt lat="38.0858627" lon="13.4222592"><ele>30.0</ele><time>2026-04-26T07:05:03.326Z</time></trkpt><trkpt lat="38.0858634" lon="13.422527"><ele>30.0</ele><time>2026-04-26T07:05:04.326Z</time></trkpt><trkpt lat="38.0858657" lon="13.4227942"><ele>30.0</ele><time>2026-04-26T07:05:05.326Z</time></trkpt><trkpt lat="38.0858719" lon="13.4230503"><ele>30.0</ele><time>2026-04-26T07:05:06.326Z</time></trkpt><trkpt lat="38.085873" lon="13.4233238"><ele>30.0</ele><time>2026-04-26T07:05:07.326Z</time></trkpt><trkpt lat="38.0858783" lon="13.4235868"><ele>30.0</ele><time>2026-04-26T07:05:08.326Z</time></trkpt><trkpt lat="38.0858792" lon="13.4238488"><ele>30.0</ele><time>2026-04-26T07:05:09.326Z</time></trkpt><trkpt lat="38.0858835" lon="13.4241116"><ele>29.666666666666664</ele><time>2026-04-26T07:05:10.326Z</time></trkpt><trkpt lat="38.0858828" lon="13.4243757"><ele>29.333333333333332</ele><time>2026-04-26T07:05:11.326Z</time></trkpt><trkpt lat="38.0858784" lon="13.4246433"><ele>29.0</ele><time>2026-04-26T07:05:12.326Z</time></trkpt><trkpt lat="38.0858768" lon="13.4249134"><ele>28.333333333333332</ele><time>2026-04-26T07:05:13.326Z</time></trkpt><trkpt lat="38.085877" lon="13.4251895"><ele>27.666666666666664</ele><time>2026-04-26T07:05:14.326Z</time></trkpt><trkpt lat="38.0858788" lon="13.4254656"><ele>27.0</ele><time>2026-04-26T07:05:15.326Z</time></trkpt><trkpt lat="38.0858795" lon="13.4257436"><ele>27.0</ele><time>2026-04-26T07:05:16.326Z</time></trkpt><trkpt lat="38.0858834" lon="13.426019"><ele>27.0</ele><time>2026-04-26T07:05:17.326Z</time></trkpt><trkpt lat="38.0858879" lon="13.4263042"><ele>27.0</ele><time>2026-04-26T07:05:18.326Z</time></trkpt><trkpt lat="38.0858915" lon="13.426587"><ele>27.0</ele><time>2026-04-26T07:05:19.326Z</time></trkpt><trkpt lat="38.0858963" lon="13.426875"><ele>27.0</ele><time>2026-04-26T07:05:20.326Z</time></trkpt><trkpt lat="38.0859009" lon="13.4271685"><ele>28.5</ele><time>2026-04-26T07:05:21.326Z</time></trkpt><trkpt lat="38.0859084" lon="13.4274619"><ele>30.0</ele><time>2026-04-26T07:05:22.326Z</time></trkpt><trkpt lat="38.0859084" lon="13.4277573"><ele>31.0</ele><time>2026-04-26T07:05:23.326Z</time></trkpt><trkpt lat="38.0859104" lon="13.4280492"><ele>32.0</ele><time>2026-04-26T07:05:24.326Z</time></trkpt><trkpt lat="38.08591" lon="13.4283488"><ele>32.0</ele><time>2026-04-26T07:05:25.326Z</time></trkpt><trkpt lat="38.0859155" lon="13.4286485"><ele>32.0</ele><time>2026-04-26T07:05:26.326Z</time></trkpt><trkpt lat="38.0859196" lon="13.4289527"><ele>33.5</ele><time>2026-04-26T07:05:27.326Z</time></trkpt><trkpt lat="38.0859257" lon="13.4292629"><ele>35.0</ele><time>2026-04-26T07:05:28.326Z</time></trkpt><trkpt lat="38.0859345" lon="13.4295708"><ele>34.0</ele><time>2026-04-26T07:05:29.326Z</time></trkpt><trkpt lat="38.0859474" lon="13.4298809"><ele>33.0</ele><time>2026-04-26T07:05:30.326Z</time></trkpt><trkpt lat="38.0859586" lon="13.430189"><ele>33.5</ele><time>2026-04-26T07:05:31.325Z</time></trkpt><trkpt lat="38.0859692" lon="13.4304964"><ele>34.0</ele><time>2026-04-26T07:05:32.325Z</time></trkpt><trkpt lat="38.0859797" lon="13.4308043"><ele>34.0</ele><time>2026-04-26T07:05:33.326Z</time></trkpt><trkpt lat="38.0859885" lon="13.4311134"><ele>34.0</ele><time>2026-04-26T07:05:34.326Z</time></trkpt><trkpt lat="38.0859995" lon="13.4314235"><ele>34.0</ele><time>2026-04-26T07:05:35.326Z</time></trkpt><trkpt lat="38.0860112" lon="13.4317299"><ele>34.0</ele><time>2026-04-26T07:05:36.326Z</time></trkpt><trkpt lat="38.0860227" lon="13.4320376"><ele>35.5</ele><time>2026-04-26T07:05:37.326Z</time></trkpt><trkpt lat="38.0860363" lon="13.4323502"><ele>37.0</ele><time>2026-04-26T07:05:38.326Z</time></trkpt><trkpt lat="38.0860477" lon="13.4326762"><ele>38.0</ele><time>2026-04-26T07:05:39.325Z</time></trkpt><trkpt lat="38.0860519" lon="13.4329977"><ele>39.0</ele><time>2026-04-26T07:05:40.326Z</time></trkpt><trkpt lat="38.086047" lon="13.4333144"><ele>39.0</ele><time>2026-04-26T07:05:41.326Z</time></trkpt><trkpt lat="38.0860422" lon="13.4336373"><ele>39.0</ele><time>2026-04-26T07:05:42.326Z</time></trkpt><trkpt lat="38.0860204" lon="13.4339422"><ele>38.0</ele><time>2026-04-26T07:05:43.326Z</time></trkpt><trkpt lat="38.0859764" lon="13.434226"><ele>37.0</ele><time>2026-04-26T07:05:44.326Z</time></trkpt><trkpt lat="38.0859389" lon="13.4345188"><ele>37.0</ele><time>2026-04-26T07:05:45.326Z</time></trkpt><trkpt lat="38.0858525" lon="13.4347912"><ele>37.0</ele><time>2026-04-26T07:05:46.326Z</time></trkpt><trkpt lat="38.0857423" lon="13.435053"><ele>37.0</ele><time>2026-04-26T07:05:47.326Z</time></trkpt><trkpt lat="38.085603" lon="13.4352994"><ele>37.0</ele><time>2026-04-26T07:05:48.325Z</time></trkpt><trkpt lat="38.0854416" lon="13.4355281"><ele>35.5</ele><time>2026-04-26T07:05:49.326Z</time></trkpt><trkpt lat="38.0852688" lon="13.4357496"><ele>34.0</ele><time>2026-04-26T07:05:50.326Z</time></trkpt><trkpt lat="38.0850961" lon="13.4359647"><ele>34.0</ele><time>2026-04-26T07:05:51.325Z</time></trkpt><trkpt lat="38.0849331" lon="13.4361693"><ele>34.0</ele><time>2026-04-26T07:05:52.326Z</time></trkpt><trkpt lat="38.0847683" lon="13.4363643"><ele>34.5</ele><time>2026-04-26T07:05:53.326Z</time></trkpt><trkpt lat="38.084617" lon="13.4365725"><ele>35.0</ele><time>2026-04-26T07:05:54.325Z</time></trkpt><trkpt lat="38.0844732" lon="13.4367952"><ele>35.0</ele><time>2026-04-26T07:05:55.326Z</time></trkpt><trkpt lat="38.0843392" lon="13.4370434"><ele>35.0</ele><time>2026-04-26T07:05:56.326Z</time></trkpt><trkpt lat="38.0842096" lon="13.4373047"><ele>35.0</ele><time>2026-04-26T07:05:57.326Z</time></trkpt><trkpt lat="38.0840901" lon="13.4375715"><ele>35.0</ele><time>2026-04-26T07:05:58.326Z</time></trkpt><trkpt lat="38.0839896" lon="13.4378602"><ele>34.5</ele><time>2026-04-26T07:05:59.326Z</time></trkpt><trkpt lat="38.0838896" lon="13.4381535"><ele>34.0</ele><time>2026-04-26T07:06:00.326Z</time></trkpt><trkpt lat="38.0837921" lon="13.4384569"><ele>34.0</ele><time>2026-04-26T07:06:01.326Z</time></trkpt><trkpt lat="38.0836919" lon="13.4387495"><ele>34.0</ele><time>2026-04-26T07:06:02.326Z</time></trkpt><trkpt lat="38.0835953" lon="13.4390373"><ele>35.0</ele><time>2026-04-26T07:06:03.326Z</time></trkpt><trkpt lat="38.0834915" lon="13.4393344"><ele>36.0</ele><time>2026-04-26T07:06:04.326Z</time></trkpt><trkpt lat="38.0833791" lon="13.4396212"><ele>35.5</ele><time>2026-04-26T07:06:05.325Z</time></trkpt><trkpt lat="38.0832684" lon="13.4398923"><ele>35.0</ele><time>2026-04-26T07:06:06.325Z</time></trkpt><trkpt lat="38.0831648" lon="13.4401636"><ele>35.0</ele><time>2026-04-26T07:06:07.326Z</time></trkpt><trkpt lat="38.0830772" lon="13.4404395"><ele>35.0</ele><time>2026-04-26T07:06:08.326Z</time></trkpt><trkpt lat="38.083005" lon="13.4407185"><ele>35.0</ele><time>2026-04-26T07:06:09.326Z</time></trkpt><trkpt lat="38.0829609" lon="13.4410207"><ele>35.0</ele><time>2026-04-26T07:06:10.326Z</time></trkpt><trkpt lat="38.0829264" lon="13.4413469"><ele>35.0</ele><time>2026-04-26T07:06:11.326Z</time></trkpt><trkpt lat="38.0829243" lon="13.4417022"><ele>35.0</ele><time>2026-04-26T07:06:12.326Z</time></trkpt><trkpt lat="38.0829206" lon="13.4420177"><ele>34.0</ele><time>2026-04-26T07:06:13.325Z</time></trkpt><trkpt lat="38.0829342" lon="13.442347"><ele>33.0</ele><time>2026-04-26T07:06:14.326Z</time></trkpt><trkpt lat="38.082956" lon="13.4426755"><ele>33.0</ele><time>2026-04-26T07:06:15.326Z</time></trkpt><trkpt lat="38.0829792" lon="13.4430021"><ele>33.0</ele><time>2026-04-26T07:06:16.326Z</time></trkpt><trkpt lat="38.0830008" lon="13.4433207"><ele>33.0</ele><time>2026-04-26T07:06:17.326Z</time></trkpt><trkpt lat="38.0830097" lon="13.4436488"><ele>33.0</ele><time>2026-04-26T07:06:18.326Z</time></trkpt><trkpt lat="38.0830173" lon="13.4439489"><ele>32.5</ele><time>2026-04-26T07:06:19.326Z</time></trkpt><trkpt lat="38.0830287" lon="13.4442699"><ele>32.0</ele><time>2026-04-26T07:06:20.326Z</time></trkpt><trkpt lat="38.0830468" lon="13.4445763"><ele>32.0</ele><time>2026-04-26T07:06:21.326Z</time></trkpt><trkpt lat="38.0830573" lon="13.4449116"><ele>32.0</ele><time>2026-04-26T07:06:22.326Z</time></trkpt><trkpt lat="38.0830766" lon="13.4452257"><ele>31.0</ele><time>2026-04-26T07:06:23.326Z</time></trkpt><trkpt lat="38.0831022" lon="13.445551"><ele>30.0</ele><time>2026-04-26T07:06:24.326Z</time></trkpt><trkpt lat="38.0831274" lon="13.4458719"><ele>30.0</ele><time>2026-04-26T07:06:25.326Z</time></trkpt><trkpt lat="38.0831579" lon="13.4461971"><ele>30.0</ele><time>2026-04-26T07:06:26.326Z</time></trkpt><trkpt lat="38.0831877" lon="13.4465224"><ele>32.0</ele><time>2026-04-26T07:06:27.326Z</time></trkpt><trkpt lat="38.0831928" lon="13.4468327"><ele>34.0</ele><time>2026-04-26T07:06:28.326Z</time></trkpt><trkpt lat="38.0832209" lon="13.4471711"><ele>35.0</ele><time>2026-04-26T07:06:29.326Z</time></trkpt><trkpt lat="38.0832522" lon="13.4475092"><ele>36.0</ele><time>2026-04-26T07:06:30.326Z</time></trkpt><trkpt lat="38.0832768" lon="13.4478528"><ele>35.0</ele><time>2026-04-26T07:06:31.325Z</time></trkpt><trkpt lat="38.0833041" lon="13.4481876"><ele>34.0</ele><time>2026-04-26T07:06:32.326Z</time></trkpt><trkpt lat="38.0833372" lon="13.4485234"><ele>33.5</ele><time>2026-04-26T07:06:33.326Z</time></trkpt><trkpt lat="38.0833637" lon="13.4488571"><ele>33.0</ele><time>2026-04-26T07:06:34.326Z</time></trkpt><trkpt lat="38.0833843" lon="13.4491918"><ele>33.0</ele><time>2026-04-26T07:06:35.325Z</time></trkpt><trkpt lat="38.0833967" lon="13.4495219"><ele>33.0</ele><time>2026-04-26T07:06:36.325Z</time></trkpt><trkpt lat="38.0833963" lon="13.4498544"><ele>33.0</ele><time>2026-04-26T07:06:37.325Z</time></trkpt><trkpt lat="38.0833871" lon="13.4501884"><ele>33.0</ele><time>2026-04-26T07:06:38.325Z</time></trkpt><trkpt lat="38.083368" lon="13.4505134"><ele>33.0</ele><time>2026-04-26T07:06:39.325Z</time></trkpt><trkpt lat="38.083339" lon="13.4508362"><ele>33.0</ele><time>2026-04-26T07:06:40.325Z</time></trkpt><trkpt lat="38.0833032" lon="13.4511575"><ele>33.0</ele><time>2026-04-26T07:06:41.325Z</time></trkpt><trkpt lat="38.0832671" lon="13.451486"><ele>33.0</ele><time>2026-04-26T07:06:42.325Z</time></trkpt><trkpt lat="38.0832276" lon="13.4518152"><ele>34.0</ele><time>2026-04-26T07:06:43.325Z</time></trkpt><trkpt lat="38.083186" lon="13.4521352"><ele>35.0</ele><time>2026-04-26T07:06:44.325Z</time></trkpt><trkpt lat="38.0831481" lon="13.4524589"><ele>35.0</ele><time>2026-04-26T07:06:45.325Z</time></trkpt><trkpt lat="38.0831132" lon="13.4527846"><ele>35.0</ele><time>2026-04-26T07:06:46.325Z</time></trkpt><trkpt lat="38.0830809" lon="13.4531077"><ele>36.0</ele><time>2026-04-26T07:06:47.325Z</time></trkpt><trkpt lat="38.0830453" lon="13.4534401"><ele>37.0</ele><time>2026-04-26T07:06:48.325Z</time></trkpt><trkpt lat="38.083001" lon="13.4537812"><ele>37.0</ele><time>2026-04-26T07:06:49.325Z</time></trkpt><trkpt lat="38.0829721" lon="13.4541081"><ele>37.0</ele><time>2026-04-26T07:06:50.325Z</time></trkpt><trkpt lat="38.0829351" lon="13.4544438"><ele>37.0</ele><time>2026-04-26T07:06:51.325Z</time></trkpt><trkpt lat="38.082894" lon="13.4547804"><ele>37.0</ele><time>2026-04-26T07:06:52.325Z</time></trkpt><trkpt lat="38.0828496" lon="13.4551163"><ele>37.0</ele><time>2026-04-26T07:06:53.325Z</time></trkpt><trkpt lat="38.0828082" lon="13.4554487"><ele>37.0</ele><time>2026-04-26T07:06:54.325Z</time></trkpt><trkpt lat="38.0827645" lon="13.45578"><ele>36.5</ele><time>2026-04-26T07:06:55.325Z</time></trkpt><trkpt lat="38.0827186" lon="13.4561092"><ele>36.0</ele><time>2026-04-26T07:06:56.325Z</time></trkpt><trkpt lat="38.0826751" lon="13.4564346"><ele>36.0</ele><time>2026-04-26T07:06:57.325Z</time></trkpt><trkpt lat="38.0826328" lon="13.4567622"><ele>36.0</ele><time>2026-04-26T07:06:58.325Z</time></trkpt><trkpt lat="38.0825892" lon="13.4570852"><ele>37.0</ele><time>2026-04-26T07:06:59.325Z</time></trkpt><trkpt lat="38.0825482" lon="13.4574093"><ele>38.0</ele><time>2026-04-26T07:07:00.325Z</time></trkpt><trkpt lat="38.0825054" lon="13.4577412"><ele>38.5</ele><time>2026-04-26T07:07:01.325Z</time></trkpt><trkpt lat="38.0824662" lon="13.4580719"><ele>39.0</ele><time>2026-04-26T07:07:02.324Z</time></trkpt><trkpt lat="38.0824286" lon="13.4583983"><ele>40.5</ele><time>2026-04-26T07:07:03.325Z</time></trkpt><trkpt lat="38.0823929" lon="13.458719"><ele>42.0</ele><time>2026-04-26T07:07:04.325Z</time></trkpt><trkpt lat="38.0823574" lon="13.4590436"><ele>42.0</ele><time>2026-04-26T07:07:05.325Z</time></trkpt><trkpt lat="38.0823215" lon="13.4593683"><ele>42.0</ele><time>2026-04-26T07:07:06.325Z</time></trkpt><trkpt lat="38.0822773" lon="13.4596813"><ele>42.0</ele><time>2026-04-26T07:07:07.325Z</time></trkpt><trkpt lat="38.0822423" lon="13.4600014"><ele>42.0</ele><time>2026-04-26T07:07:08.325Z</time></trkpt><trkpt lat="38.0822091" lon="13.4603192"><ele>43.0</ele><time>2026-04-26T07:07:09.325Z</time></trkpt><trkpt lat="38.0821776" lon="13.4606334"><ele>44.0</ele><time>2026-04-26T07:07:10.325Z</time></trkpt><trkpt lat="38.0821644" lon="13.4609316"><ele>44.0</ele><time>2026-04-26T07:07:11.325Z</time></trkpt><trkpt lat="38.082146" lon="13.461262"><ele>44.0</ele><time>2026-04-26T07:07:12.325Z</time></trkpt><trkpt lat="38.0821302" lon="13.4615825"><ele>44.0</ele><time>2026-04-26T07:07:13.325Z</time></trkpt><trkpt lat="38.0821092" lon="13.4618914"><ele>44.0</ele><time>2026-04-26T07:07:14.325Z</time></trkpt><trkpt lat="38.0820951" lon="13.4622067"><ele>44.5</ele><time>2026-04-26T07:07:15.325Z</time></trkpt><trkpt lat="38.0820766" lon="13.4625235"><ele>45.0</ele><time>2026-04-26T07:07:16.325Z</time></trkpt><trkpt lat="38.0820584" lon="13.4628374"><ele>45.5</ele><time>2026-04-26T07:07:17.325Z</time></trkpt><trkpt lat="38.0820451" lon="13.4631555"><ele>46.0</ele><time>2026-04-26T07:07:18.325Z</time></trkpt><trkpt lat="38.0820245" lon="13.4634729"><ele>46.5</ele><time>2026-04-26T07:07:19.325Z</time></trkpt><trkpt lat="38.0820004" lon="13.463789"><ele>47.0</ele><time>2026-04-26T07:07:20.324Z</time></trkpt><trkpt lat="38.0819809" lon="13.4641092"><ele>47.0</ele><time>2026-04-26T07:07:21.325Z</time></trkpt><trkpt lat="38.0819568" lon="13.4644066"><ele>47.0</ele><time>2026-04-26T07:07:22.325Z</time></trkpt><trkpt lat="38.0819403" lon="13.4647305"><ele>46.0</ele><time>2026-04-26T07:07:23.325Z</time></trkpt><trkpt lat="38.0819243" lon="13.4650484"><ele>45.0</ele><time>2026-04-26T07:07:24.325Z</time></trkpt><trkpt lat="38.0819053" lon="13.4653582"><ele>45.5</ele><time>2026-04-26T07:07:25.325Z</time></trkpt><trkpt lat="38.0818834" lon="13.4656882"><ele>46.0</ele><time>2026-04-26T07:07:26.325Z</time></trkpt><trkpt lat="38.0818541" lon="13.4659995"><ele>46.5</ele><time>2026-04-26T07:07:27.325Z</time></trkpt><trkpt lat="38.0818274" lon="13.4663174"><ele>47.0</ele><time>2026-04-26T07:07:28.325Z</time></trkpt><trkpt lat="38.0817911" lon="13.4666173"><ele>47.0</ele><time>2026-04-26T07:07:29.325Z</time></trkpt><trkpt lat="38.0817645" lon="13.4669308"><ele>47.0</ele><time>2026-04-26T07:07:30.325Z</time></trkpt><trkpt lat="38.0817576" lon="13.4672572"><ele>47.5</ele><time>2026-04-26T07:07:31.325Z</time></trkpt><trkpt lat="38.0817381" lon="13.4675687"><ele>48.0</ele><time>2026-04-26T07:07:32.325Z</time></trkpt><trkpt lat="38.0817052" lon="13.4678429"><ele>49.0</ele><time>2026-04-26T07:07:33.325Z</time></trkpt><trkpt lat="38.0816665" lon="13.4681128"><ele>50.0</ele><time>2026-04-26T07:07:34.325Z</time></trkpt><trkpt lat="38.0816376" lon="13.4683682"><ele>51.0</ele><time>2026-04-26T07:07:35.325Z</time></trkpt><trkpt lat="38.0816135" lon="13.4685961"><ele>52.33333333333333</ele><time>2026-04-26T07:07:36.325Z</time></trkpt><trkpt lat="38.0815979" lon="13.4688539"><ele>53.666666666666664</ele><time>2026-04-26T07:07:37.325Z</time></trkpt><trkpt lat="38.0815812" lon="13.469138"><ele>55.0</ele><time>2026-04-26T07:07:38.325Z</time></trkpt><trkpt lat="38.08157" lon="13.4694388"><ele>55.0</ele><time>2026-04-26T07:07:39.325Z</time></trkpt><trkpt lat="38.0815521" lon="13.4697653"><ele>55.0</ele><time>2026-04-26T07:07:40.324Z</time></trkpt><trkpt lat="38.0815361" lon="13.4701125"><ele>55.0</ele><time>2026-04-26T07:07:41.325Z</time></trkpt><trkpt lat="38.081514" lon="13.4704131"><ele>55.0</ele><time>2026-04-26T07:07:42.325Z</time></trkpt><trkpt lat="38.0814884" lon="13.4707269"><ele>55.0</ele><time>2026-04-26T07:07:43.325Z</time></trkpt><trkpt lat="38.081454" lon="13.4710553"><ele>55.0</ele><time>2026-04-26T07:07:44.324Z</time></trkpt><trkpt lat="38.0814169" lon="13.4713821"><ele>54.5</ele><time>2026-04-26T07:07:45.325Z</time></trkpt><trkpt lat="38.0813807" lon="13.4717127"><ele>54.0</ele><time>2026-04-26T07:07:46.325Z</time></trkpt><trkpt lat="38.0813408" lon="13.4720402"><ele>54.5</ele><time>2026-04-26T07:07:47.325Z</time></trkpt><trkpt lat="38.0812999" lon="13.4723687"><ele>55.0</ele><time>2026-04-26T07:07:48.325Z</time></trkpt><trkpt lat="38.0812571" lon="13.4726974"><ele>55.0</ele><time>2026-04-26T07:07:49.325Z</time></trkpt><trkpt lat="38.081214" lon="13.4730249"><ele>55.0</ele><time>2026-04-26T07:07:50.325Z</time></trkpt><trkpt lat="38.0811687" lon="13.4733532"><ele>55.0</ele><time>2026-04-26T07:07:51.325Z</time></trkpt><trkpt lat="38.0811255" lon="13.4736767"><ele>55.0</ele><time>2026-04-26T07:07:52.325Z</time></trkpt><trkpt lat="38.0810864" lon="13.4740032"><ele>50.5</ele><time>2026-04-26T07:07:53.325Z</time></trkpt><trkpt lat="38.0810468" lon="13.4743293"><ele>46.0</ele><time>2026-04-26T07:07:54.324Z</time></trkpt><trkpt lat="38.0810068" lon="13.4746539"><ele>38.5</ele><time>2026-04-26T07:07:55.325Z</time></trkpt><trkpt lat="38.0809647" lon="13.4749756"><ele>31.0</ele><time>2026-04-26T07:07:56.324Z</time></trkpt><trkpt lat="38.080922" lon="13.4752948"><ele>30.0</ele><time>2026-04-26T07:07:57.325Z</time></trkpt><trkpt lat="38.080877" lon="13.4756148"><ele>29.0</ele><time>2026-04-26T07:07:58.325Z</time></trkpt><trkpt lat="38.0808339" lon="13.4759377"><ele>29.0</ele><time>2026-04-26T07:07:59.325Z</time></trkpt><trkpt lat="38.0807886" lon="13.4762575"><ele>29.0</ele><time>2026-04-26T07:08:00.325Z</time></trkpt><trkpt lat="38.0807482" lon="13.4765636"><ele>29.5</ele><time>2026-04-26T07:08:01.325Z</time></trkpt><trkpt lat="38.0807072" lon="13.4768707"><ele>30.0</ele><time>2026-04-26T07:08:02.325Z</time></trkpt><trkpt lat="38.0806641" lon="13.4772022"><ele>40.5</ele><time>2026-04-26T07:08:03.325Z</time></trkpt><trkpt lat="38.0806245" lon="13.4775131"><ele>51.0</ele><time>2026-04-26T07:08:04.325Z</time></trkpt><trkpt lat="38.0805815" lon="13.4778275"><ele>57.5</ele><time>2026-04-26T07:08:05.325Z</time></trkpt><trkpt lat="38.080541" lon="13.4781408"><ele>64.0</ele><time>2026-04-26T07:08:06.325Z</time></trkpt><trkpt lat="38.0805013" lon="13.4784593"><ele>65.0</ele><time>2026-04-26T07:08:07.325Z</time></trkpt><trkpt lat="38.0804627" lon="13.478776"><ele>66.0</ele><time>2026-04-26T07:08:08.325Z</time></trkpt><trkpt lat="38.0804238" lon="13.4790951"><ele>66.0</ele><time>2026-04-26T07:08:09.325Z</time></trkpt><trkpt lat="38.0803813" lon="13.4794176"><ele>66.0</ele><time>2026-04-26T07:08:10.325Z</time></trkpt><trkpt lat="38.0803357" lon="13.4797094"><ele>66.5</ele><time>2026-04-26T07:08:11.325Z</time></trkpt><trkpt lat="38.0802878" lon="13.4800291"><ele>67.0</ele><time>2026-04-26T07:08:12.325Z</time></trkpt><trkpt lat="38.0802428" lon="13.4803516"><ele>68.0</ele><time>2026-04-26T07:08:13.325Z</time></trkpt><trkpt lat="38.0802008" lon="13.4806699"><ele>69.0</ele><time>2026-04-26T07:08:14.325Z</time></trkpt><trkpt lat="38.0801535" lon="13.4809869"><ele>69.0</ele><time>2026-04-26T07:08:15.325Z</time></trkpt><trkpt lat="38.0801173" lon="13.481294"><ele>69.0</ele><time>2026-04-26T07:08:16.325Z</time></trkpt><trkpt lat="38.0800786" lon="13.4816166"><ele>69.0</ele><time>2026-04-26T07:08:17.325Z</time></trkpt><trkpt lat="38.0800389" lon="13.4819469"><ele>69.0</ele><time>2026-04-26T07:08:18.325Z</time></trkpt><trkpt lat="38.080003" lon="13.4822827"><ele>69.0</ele><time>2026-04-26T07:08:19.325Z</time></trkpt><trkpt lat="38.0799631" lon="13.4826309"><ele>69.0</ele><time>2026-04-26T07:08:20.325Z</time></trkpt><trkpt lat="38.0799249" lon="13.482974"><ele>70.5</ele><time>2026-04-26T07:08:21.325Z</time></trkpt><trkpt lat="38.0798827" lon="13.4833148"><ele>72.0</ele><time>2026-04-26T07:08:22.325Z</time></trkpt><trkpt lat="38.0798392" lon="13.4836519"><ele>70.5</ele><time>2026-04-26T07:08:23.325Z</time></trkpt><trkpt lat="38.0797899" lon="13.4839842"><ele>69.0</ele><time>2026-04-26T07:08:24.325Z</time></trkpt><trkpt lat="38.0797379" lon="13.4843167"><ele>68.0</ele><time>2026-04-26T07:08:25.325Z</time></trkpt><trkpt lat="38.0796883" lon="13.4846139"><ele>67.0</ele><time>2026-04-26T07:08:26.325Z</time></trkpt><trkpt lat="38.0796444" lon="13.4849039"><ele>67.0</ele><time>2026-04-26T07:08:27.325Z</time></trkpt><trkpt lat="38.079604" lon="13.4851826"><ele>67.0</ele><time>2026-04-26T07:08:28.325Z</time></trkpt><trkpt lat="38.0795672" lon="13.4854693"><ele>67.0</ele><time>2026-04-26T07:08:29.325Z</time></trkpt><trkpt lat="38.0795258" lon="13.4857702"><ele>67.0</ele><time>2026-04-26T07:08:30.325Z</time></trkpt><trkpt lat="38.0794815" lon="13.4861184"><ele>66.5</ele><time>2026-04-26T07:08:31.325Z</time></trkpt><trkpt lat="38.0794374" lon="13.486415"><ele>66.0</ele><time>2026-04-26T07:08:32.325Z</time></trkpt><trkpt lat="38.0793942" lon="13.4867177"><ele>66.0</ele><time>2026-04-26T07:08:33.325Z</time></trkpt><trkpt lat="38.0793492" lon="13.4870212"><ele>66.0</ele><time>2026-04-26T07:08:34.325Z</time></trkpt><trkpt lat="38.0792988" lon="13.4873221"><ele>69.0</ele><time>2026-04-26T07:08:35.325Z</time></trkpt><trkpt lat="38.079242" lon="13.4876206"><ele>72.0</ele><time>2026-04-26T07:08:36.325Z</time></trkpt><trkpt lat="38.079176" lon="13.4879168"><ele>74.0</ele><time>2026-04-26T07:08:37.325Z</time></trkpt><trkpt lat="38.0791042" lon="13.4882191"><ele>76.0</ele><time>2026-04-26T07:08:38.325Z</time></trkpt><trkpt lat="38.079027" lon="13.4885151"><ele>86.5</ele><time>2026-04-26T07:08:39.325Z</time></trkpt><trkpt lat="38.0789424" lon="13.4887989"><ele>97.0</ele><time>2026-04-26T07:08:40.325Z</time></trkpt><trkpt lat="38.0788535" lon="13.4890895"><ele>97.0</ele><time>2026-04-26T07:08:41.325Z</time></trkpt><trkpt lat="38.0787584" lon="13.4893789"><ele>97.0</ele><time>2026-04-26T07:08:42.325Z</time></trkpt><trkpt lat="38.0786591" lon="13.4896738"><ele>94.5</ele><time>2026-04-26T07:08:43.325Z</time></trkpt><trkpt lat="38.0785531" lon="13.4899655"><ele>92.0</ele><time>2026-04-26T07:08:44.325Z</time></trkpt><trkpt lat="38.0784456" lon="13.4902474"><ele>88.0</ele><time>2026-04-26T07:08:45.325Z</time></trkpt><trkpt lat="38.078342" lon="13.4905287"><ele>84.0</ele><time>2026-04-26T07:08:46.325Z</time></trkpt><trkpt lat="38.0782368" lon="13.4908029"><ele>94.5</ele><time>2026-04-26T07:08:47.325Z</time></trkpt><trkpt lat="38.0781334" lon="13.491084"><ele>105.0</ele><time>2026-04-26T07:08:48.325Z</time></trkpt><trkpt lat="38.0780335" lon="13.491365"><ele>105.0</ele><time>2026-04-26T07:08:49.325Z</time></trkpt><trkpt lat="38.0779297" lon="13.4916545"><ele>105.0</ele><time>2026-04-26T07:08:50.325Z</time></trkpt><trkpt lat="38.0778263" lon="13.491954"><ele>96.5</ele><time>2026-04-26T07:08:51.325Z</time></trkpt><trkpt lat="38.077729" lon="13.4922606"><ele>88.0</ele><time>2026-04-26T07:08:52.325Z</time></trkpt><trkpt lat="38.0776284" lon="13.4925462"><ele>88.0</ele><time>2026-04-26T07:08:53.325Z</time></trkpt><trkpt lat="38.0775165" lon="13.4928284"><ele>88.0</ele><time>2026-04-26T07:08:54.325Z</time></trkpt><trkpt lat="38.0774051" lon="13.493113"><ele>90.5</ele><time>2026-04-26T07:08:55.325Z</time></trkpt><trkpt lat="38.0773001" lon="13.4933983"><ele>93.0</ele><time>2026-04-26T07:08:56.325Z</time></trkpt><trkpt lat="38.0771965" lon="13.4937043"><ele>88.0</ele><time>2026-04-26T07:08:57.325Z</time></trkpt><trkpt lat="38.0770871" lon="13.4940273"><ele>83.0</ele><time>2026-04-26T07:08:58.325Z</time></trkpt><trkpt lat="38.0769805" lon="13.4943555"><ele>81.5</ele><time>2026-04-26T07:08:59.325Z</time></trkpt><trkpt lat="38.0768582" lon="13.4946593"><ele>80.0</ele><time>2026-04-26T07:09:00.325Z</time></trkpt><trkpt lat="38.0767301" lon="13.4949672"><ele>82.0</ele><time>2026-04-26T07:09:01.325Z</time></trkpt><trkpt lat="38.0765973" lon="13.4952596"><ele>84.0</ele><time>2026-04-26T07:09:02.325Z</time></trkpt><trkpt lat="38.076452" lon="13.4955491"><ele>84.0</ele><time>2026-04-26T07:09:03.325Z</time></trkpt><trkpt lat="38.0762986" lon="13.4958302"><ele>84.0</ele><time>2026-04-26T07:09:04.325Z</time></trkpt><trkpt lat="38.0761455" lon="13.4961041"><ele>85.0</ele><time>2026-04-26T07:09:05.325Z</time></trkpt><trkpt lat="38.075991" lon="13.4963775"><ele>86.0</ele><time>2026-04-26T07:09:06.325Z</time></trkpt><trkpt lat="38.0758369" lon="13.4966454"><ele>87.0</ele><time>2026-04-26T07:09:07.325Z</time></trkpt><trkpt lat="38.0756805" lon="13.4969099"><ele>88.0</ele><time>2026-04-26T07:09:08.325Z</time></trkpt><trkpt lat="38.0755233" lon="13.4971749"><ele>88.0</ele><time>2026-04-26T07:09:09.325Z</time></trkpt><trkpt lat="38.0753712" lon="13.4974377"><ele>88.0</ele><time>2026-04-26T07:09:10.325Z</time></trkpt><trkpt lat="38.075221" lon="13.4976793"><ele>88.0</ele><time>2026-04-26T07:09:11.325Z</time></trkpt><trkpt lat="38.0750653" lon="13.4979515"><ele>88.0</ele><time>2026-04-26T07:09:12.325Z</time></trkpt><trkpt lat="38.0749188" lon="13.4982447"><ele>89.5</ele><time>2026-04-26T07:09:13.325Z</time></trkpt><trkpt lat="38.0747585" lon="13.4985429"><ele>91.0</ele><time>2026-04-26T07:09:14.325Z</time></trkpt><trkpt lat="38.0745849" lon="13.4988314"><ele>91.5</ele><time>2026-04-26T07:09:15.325Z</time></trkpt><trkpt lat="38.074422" lon="13.4991121"><ele>92.0</ele><time>2026-04-26T07:09:16.325Z</time></trkpt><trkpt lat="38.0742563" lon="13.4993723"><ele>95.0</ele><time>2026-04-26T07:09:17.324Z</time></trkpt><trkpt lat="38.0741041" lon="13.49963"><ele>98.0</ele><time>2026-04-26T07:09:18.325Z</time></trkpt><trkpt lat="38.0739658" lon="13.4998412"><ele>98.0</ele><time>2026-04-26T07:09:19.325Z</time></trkpt><trkpt lat="38.0738326" lon="13.5000551"><ele>98.0</ele><time>2026-04-26T07:09:20.325Z</time></trkpt><trkpt lat="38.0736905" lon="13.5002951"><ele>97.5</ele><time>2026-04-26T07:09:21.325Z</time></trkpt><trkpt lat="38.0735476" lon="13.5005351"><ele>97.0</ele><time>2026-04-26T07:09:22.325Z</time></trkpt><trkpt lat="38.0733976" lon="13.5007852"><ele>99.0</ele><time>2026-04-26T07:09:23.325Z</time></trkpt><trkpt lat="38.0732522" lon="13.5010345"><ele>101.0</ele><time>2026-04-26T07:09:24.325Z</time></trkpt><trkpt lat="38.0731044" lon="13.5012804"><ele>102.0</ele><time>2026-04-26T07:09:25.325Z</time></trkpt><trkpt lat="38.0729607" lon="13.5015241"><ele>103.0</ele><time>2026-04-26T07:09:26.325Z</time></trkpt><trkpt lat="38.0728102" lon="13.5017687"><ele>103.0</ele><time>2026-04-26T07:09:27.325Z</time></trkpt><trkpt lat="38.0726581" lon="13.5020125"><ele>103.0</ele><time>2026-04-26T07:09:28.325Z</time></trkpt><trkpt lat="38.0724984" lon="13.5022403"><ele>103.0</ele><time>2026-04-26T07:09:29.325Z</time></trkpt><trkpt lat="38.0723318" lon="13.5024738"><ele>103.0</ele><time>2026-04-26T07:09:30.325Z</time></trkpt><trkpt lat="38.0721603" lon="13.5027114"><ele>103.0</ele><time>2026-04-26T07:09:31.325Z</time></trkpt><trkpt lat="38.0719858" lon="13.5029474"><ele>103.0</ele><time>2026-04-26T07:09:32.325Z</time></trkpt><trkpt lat="38.0718065" lon="13.503179"><ele>103.0</ele><time>2026-04-26T07:09:33.325Z</time></trkpt><trkpt lat="38.0716256" lon="13.5034055"><ele>103.0</ele><time>2026-04-26T07:09:34.325Z</time></trkpt><trkpt lat="38.0714431" lon="13.5036278"><ele>103.5</ele><time>2026-04-26T07:09:35.325Z</time></trkpt><trkpt lat="38.0712622" lon="13.5038535"><ele>104.0</ele><time>2026-04-26T07:09:36.325Z</time></trkpt><trkpt lat="38.0710756" lon="13.5040607"><ele>104.0</ele><time>2026-04-26T07:09:37.325Z</time></trkpt><trkpt lat="38.070888" lon="13.5042496"><ele>104.0</ele><time>2026-04-26T07:09:38.325Z</time></trkpt><trkpt lat="38.0707019" lon="13.504452"><ele>106.5</ele><time>2026-04-26T07:09:39.325Z</time></trkpt><trkpt lat="38.0705154" lon="13.5046956"><ele>109.0</ele><time>2026-04-26T07:09:40.325Z</time></trkpt><trkpt lat="38.0703321" lon="13.5048944"><ele>109.0</ele><time>2026-04-26T07:09:41.325Z</time></trkpt><trkpt lat="38.070149" lon="13.5051112"><ele>109.0</ele><time>2026-04-26T07:09:42.325Z</time></trkpt><trkpt lat="38.0699695" lon="13.505329"><ele>112.0</ele><time>2026-04-26T07:09:43.325Z</time></trkpt><trkpt lat="38.0697905" lon="13.5055416"><ele>115.0</ele><time>2026-04-26T07:09:44.325Z</time></trkpt><trkpt lat="38.0696124" lon="13.5057556"><ele>115.0</ele><time>2026-04-26T07:09:45.325Z</time></trkpt><trkpt lat="38.0694326" lon="13.50597"><ele>115.0</ele><time>2026-04-26T07:09:46.325Z</time></trkpt><trkpt lat="38.0692516" lon="13.5061818"><ele>116.0</ele><time>2026-04-26T07:09:47.325Z</time></trkpt><trkpt lat="38.0690695" lon="13.5063934"><ele>117.0</ele><time>2026-04-26T07:09:48.325Z</time></trkpt><trkpt lat="38.0688832" lon="13.5065963"><ele>117.0</ele><time>2026-04-26T07:09:49.325Z</time></trkpt><trkpt lat="38.0687008" lon="13.5068423"><ele>117.0</ele><time>2026-04-26T07:09:50.325Z</time></trkpt><trkpt lat="38.0685294" lon="13.5070606"><ele>116.5</ele><time>2026-04-26T07:09:51.325Z</time></trkpt><trkpt lat="38.0683518" lon="13.5072761"><ele>116.0</ele><time>2026-04-26T07:09:52.325Z</time></trkpt><trkpt lat="38.0681728" lon="13.5075002"><ele>116.0</ele><time>2026-04-26T07:09:53.325Z</time></trkpt><trkpt lat="38.0679804" lon="13.5077218"><ele>116.0</ele><time>2026-04-26T07:09:54.325Z</time></trkpt><trkpt lat="38.067793" lon="13.5079462"><ele>115.5</ele><time>2026-04-26T07:09:55.325Z</time></trkpt><trkpt lat="38.067618" lon="13.5081541"><ele>115.0</ele><time>2026-04-26T07:09:56.325Z</time></trkpt><trkpt lat="38.0674689" lon="13.5083477"><ele>115.66666666666667</ele><time>2026-04-26T07:09:57.325Z</time></trkpt><trkpt lat="38.0673457" lon="13.5085388"><ele>116.33333333333334</ele><time>2026-04-26T07:09:58.325Z</time></trkpt><trkpt lat="38.0672344" lon="13.5087307"><ele>117.0</ele><time>2026-04-26T07:09:59.324Z</time></trkpt><trkpt lat="38.0671327" lon="13.508919"><ele>117.0</ele><time>2026-04-26T07:10:00.325Z</time></trkpt><trkpt lat="38.0670436" lon="13.5090811"><ele>117.0</ele><time>2026-04-26T07:10:01.325Z</time></trkpt><trkpt lat="38.0669549" lon="13.5092139"><ele>117.0</ele><time>2026-04-26T07:10:02.325Z</time></trkpt><trkpt lat="38.066878" lon="13.5093553"><ele>117.0</ele><time>2026-04-26T07:10:03.325Z</time></trkpt><trkpt lat="38.0668018" lon="13.5095165"><ele>117.33333333333334</ele><time>2026-04-26T07:10:04.325Z</time></trkpt><trkpt lat="38.06672" lon="13.509677"><ele>117.66666666666667</ele><time>2026-04-26T07:10:05.325Z</time></trkpt><trkpt lat="38.0666247" lon="13.5098413"><ele>118.0</ele><time>2026-04-26T07:10:06.325Z</time></trkpt><trkpt lat="38.0665499" lon="13.5099963"><ele>118.0</ele><time>2026-04-26T07:10:07.324Z</time></trkpt><trkpt lat="38.0664372" lon="13.5101643"><ele>118.0</ele><time>2026-04-26T07:10:08.325Z</time></trkpt><trkpt lat="38.0651744" lon="13.511059"><ele>116.5</ele><time>2026-04-26T07:10:09.325Z</time></trkpt><trkpt lat="38.0649912" lon="13.5112829"><ele>115.0</ele><time>2026-04-26T07:10:10.325Z</time></trkpt><trkpt lat="38.0648068" lon="13.511505"><ele>115.0</ele><time>2026-04-26T07:10:11.325Z</time></trkpt><trkpt lat="38.0646198" lon="13.5117272"><ele>115.0</ele><time>2026-04-26T07:10:12.324Z</time></trkpt><trkpt lat="38.0644351" lon="13.5119556"><ele>112.0</ele><time>2026-04-26T07:10:13.325Z</time></trkpt><trkpt lat="38.0642475" lon="13.5121839"><ele>109.0</ele><time>2026-04-26T07:10:14.325Z</time></trkpt><trkpt lat="38.06406" lon="13.512413"><ele>108.5</ele><time>2026-04-26T07:10:15.325Z</time></trkpt><trkpt lat="38.0638702" lon="13.5126399"><ele>108.0</ele><time>2026-04-26T07:10:16.324Z</time></trkpt><trkpt lat="38.0636815" lon="13.5128649"><ele>104.5</ele><time>2026-04-26T07:10:17.325Z</time></trkpt><trkpt lat="38.0634948" lon="13.5130935"><ele>101.0</ele><time>2026-04-26T07:10:18.325Z</time></trkpt><trkpt lat="38.0633079" lon="13.5133128"><ele>98.5</ele><time>2026-04-26T07:10:19.325Z</time></trkpt><trkpt lat="38.0631185" lon="13.5135333"><ele>96.0</ele><time>2026-04-26T07:10:20.325Z</time></trkpt><trkpt lat="38.0629328" lon="13.5137505"><ele>96.0</ele><time>2026-04-26T07:10:21.325Z</time></trkpt><trkpt lat="38.0627464" lon="13.5139727"><ele>96.0</ele><time>2026-04-26T07:10:22.325Z</time></trkpt><trkpt lat="38.0625649" lon="13.5141896"><ele>100.5</ele><time>2026-04-26T07:10:23.325Z</time></trkpt><trkpt lat="38.0623829" lon="13.5144094"><ele>105.0</ele><time>2026-04-26T07:10:24.325Z</time></trkpt><trkpt lat="38.0621999" lon="13.5146301"><ele>105.5</ele><time>2026-04-26T07:10:25.325Z</time></trkpt><trkpt lat="38.0620153" lon="13.5148533"><ele>106.0</ele><time>2026-04-26T07:10:26.325Z</time></trkpt><trkpt lat="38.0618377" lon="13.5150766"><ele>106.0</ele><time>2026-04-26T07:10:27.325Z</time></trkpt><trkpt lat="38.0616581" lon="13.5153027"><ele>106.0</ele><time>2026-04-26T07:10:28.325Z</time></trkpt><trkpt lat="38.061486" lon="13.5155365"><ele>99.5</ele><time>2026-04-26T07:10:29.325Z</time></trkpt><trkpt lat="38.0613195" lon="13.5157819"><ele>93.0</ele><time>2026-04-26T07:10:30.325Z</time></trkpt><trkpt lat="38.0611618" lon="13.5160361"><ele>88.0</ele><time>2026-04-26T07:10:31.325Z</time></trkpt><trkpt lat="38.0610153" lon="13.5162938"><ele>83.0</ele><time>2026-04-26T07:10:32.325Z</time></trkpt><trkpt lat="38.0608773" lon="13.5165701"><ele>78.5</ele><time>2026-04-26T07:10:33.325Z</time></trkpt><trkpt lat="38.0607552" lon="13.5168525"><ele>74.0</ele><time>2026-04-26T07:10:34.325Z</time></trkpt><trkpt lat="38.0606393" lon="13.517142"><ele>74.0</ele><time>2026-04-26T07:10:35.325Z</time></trkpt><trkpt lat="38.0605365" lon="13.5174388"><ele>74.0</ele><time>2026-04-26T07:10:36.324Z</time></trkpt><trkpt lat="38.0604419" lon="13.5177385"><ele>76.0</ele><time>2026-04-26T07:10:37.325Z</time></trkpt><trkpt lat="38.0603553" lon="13.5180484"><ele>78.0</ele><time>2026-04-26T07:10:38.325Z</time></trkpt><trkpt lat="38.0602837" lon="13.5183566"><ele>78.0</ele><time>2026-04-26T07:10:39.325Z</time></trkpt><trkpt lat="38.0602236" lon="13.5186707"><ele>78.0</ele><time>2026-04-26T07:10:40.325Z</time></trkpt><trkpt lat="38.0601733" lon="13.5189882"><ele>81.0</ele><time>2026-04-26T07:10:41.325Z</time></trkpt><trkpt lat="38.060131" lon="13.5193014"><ele>84.0</ele><time>2026-04-26T07:10:42.325Z</time></trkpt><trkpt lat="38.0600989" lon="13.5196165"><ele>86.0</ele><time>2026-04-26T07:10:43.325Z</time></trkpt><trkpt lat="38.0600794" lon="13.5199276"><ele>88.0</ele><time>2026-04-26T07:10:44.324Z</time></trkpt><trkpt lat="38.0600715" lon="13.5202423"><ele>88.0</ele><time>2026-04-26T07:10:45.325Z</time></trkpt><trkpt lat="38.0600798" lon="13.5205574"><ele>88.0</ele><time>2026-04-26T07:10:46.325Z</time></trkpt><trkpt lat="38.0600944" lon="13.5208769"><ele>88.0</ele><time>2026-04-26T07:10:47.324Z</time></trkpt><trkpt lat="38.0601246" lon="13.5211954"><ele>88.0</ele><time>2026-04-26T07:10:48.325Z</time></trkpt><trkpt lat="38.0601583" lon="13.5215175"><ele>85.0</ele><time>2026-04-26T07:10:49.325Z</time></trkpt><trkpt lat="38.060196" lon="13.5218367"><ele>82.0</ele><time>2026-04-26T07:10:50.325Z</time></trkpt><trkpt lat="38.0602353" lon="13.5221579"><ele>80.0</ele><time>2026-04-26T07:10:51.325Z</time></trkpt><trkpt lat="38.0603171" lon="13.5227991"><ele>78.0</ele><time>2026-04-26T07:10:53.325Z</time></trkpt><trkpt lat="38.060352" lon="13.5231259"><ele>76.0</ele><time>2026-04-26T07:10:54.325Z</time></trkpt><trkpt lat="38.0603898" lon="13.5234503"><ele>73.5</ele><time>2026-04-26T07:10:55.325Z</time></trkpt><trkpt lat="38.0604256" lon="13.5237689"><ele>71.0</ele><time>2026-04-26T07:10:56.325Z</time></trkpt><trkpt lat="38.0604616" lon="13.5240843"><ele>71.0</ele><time>2026-04-26T07:10:57.324Z</time></trkpt><trkpt lat="38.0605615" lon="13.524365"><ele>71.0</ele><time>2026-04-26T07:10:58.325Z</time></trkpt><trkpt lat="38.0606055" lon="13.5246434"><ele>71.0</ele><time>2026-04-26T07:10:59.325Z</time></trkpt><trkpt lat="38.0606452" lon="13.524918"><ele>71.0</ele><time>2026-04-26T07:11:00.325Z</time></trkpt><trkpt lat="38.0606877" lon="13.5251884"><ele>71.0</ele><time>2026-04-26T07:11:01.325Z</time></trkpt><trkpt lat="38.0607225" lon="13.5254556"><ele>70.33333333333334</ele><time>2026-04-26T07:11:02.325Z</time></trkpt><trkpt lat="38.0607547" lon="13.5257087"><ele>69.66666666666667</ele><time>2026-04-26T07:11:03.325Z</time></trkpt><trkpt lat="38.0607814" lon="13.5259674"><ele>69.0</ele><time>2026-04-26T07:11:04.325Z</time></trkpt><trkpt lat="38.0607993" lon="13.5262403"><ele>68.0</ele><time>2026-04-26T07:11:05.325Z</time></trkpt><trkpt lat="38.0607532" lon="13.5265477"><ele>67.0</ele><time>2026-04-26T07:11:06.325Z</time></trkpt><trkpt lat="38.0606701" lon="13.526881"><ele>66.0</ele><time>2026-04-26T07:11:07.325Z</time></trkpt><trkpt lat="38.0605881" lon="13.5271903"><ele>65.0</ele><time>2026-04-26T07:11:08.325Z</time></trkpt><trkpt lat="38.0604985" lon="13.5274933"><ele>65.0</ele><time>2026-04-26T07:11:09.324Z</time></trkpt><trkpt lat="38.0604237" lon="13.5277619"><ele>65.0</ele><time>2026-04-26T07:11:10.324Z</time></trkpt><trkpt lat="38.0603305" lon="13.5280393"><ele>65.0</ele><time>2026-04-26T07:11:11.325Z</time></trkpt><trkpt lat="38.0602202" lon="13.5283213"><ele>65.0</ele><time>2026-04-26T07:11:12.325Z</time></trkpt><trkpt lat="38.0600967" lon="13.5286082"><ele>62.5</ele><time>2026-04-26T07:11:13.325Z</time></trkpt><trkpt lat="38.0599703" lon="13.5289098"><ele>60.0</ele><time>2026-04-26T07:11:14.325Z</time></trkpt><trkpt lat="38.0598411" lon="13.5292142"><ele>53.0</ele><time>2026-04-26T07:11:15.325Z</time></trkpt><trkpt lat="38.059719" lon="13.5295286"><ele>46.0</ele><time>2026-04-26T07:11:16.325Z</time></trkpt><trkpt lat="38.0596077" lon="13.5298547"><ele>43.5</ele><time>2026-04-26T07:11:17.325Z</time></trkpt><trkpt lat="38.0595077" lon="13.5301705"><ele>41.0</ele><time>2026-04-26T07:11:18.325Z</time></trkpt><trkpt lat="38.0593916" lon="13.5304739"><ele>41.0</ele><time>2026-04-26T07:11:19.324Z</time></trkpt><trkpt lat="38.0592795" lon="13.5307741"><ele>41.0</ele><time>2026-04-26T07:11:20.325Z</time></trkpt><trkpt lat="38.0591661" lon="13.5310697"><ele>50.5</ele><time>2026-04-26T07:11:21.325Z</time></trkpt><trkpt lat="38.0590527" lon="13.5313616"><ele>60.0</ele><time>2026-04-26T07:11:22.325Z</time></trkpt><trkpt lat="38.0589503" lon="13.5316571"><ele>60.0</ele><time>2026-04-26T07:11:23.325Z</time></trkpt><trkpt lat="38.0588488" lon="13.5319548"><ele>60.0</ele><time>2026-04-26T07:11:24.325Z</time></trkpt><trkpt lat="38.0587426" lon="13.53226"><ele>62.0</ele><time>2026-04-26T07:11:25.325Z</time></trkpt><trkpt lat="38.0586341" lon="13.5325693"><ele>64.0</ele><time>2026-04-26T07:11:26.325Z</time></trkpt><trkpt lat="38.0585226" lon="13.5328777"><ele>64.0</ele><time>2026-04-26T07:11:27.325Z</time></trkpt><trkpt lat="38.0584041" lon="13.5331816"><ele>64.0</ele><time>2026-04-26T07:11:28.325Z</time></trkpt><trkpt lat="38.0582973" lon="13.5334914"><ele>66.5</ele><time>2026-04-26T07:11:29.325Z</time></trkpt><trkpt lat="38.0581821" lon="13.5337941"><ele>69.0</ele><time>2026-04-26T07:11:30.325Z</time></trkpt><trkpt lat="38.0580684" lon="13.5340975"><ele>69.0</ele><time>2026-04-26T07:11:31.325Z</time></trkpt><trkpt lat="38.0579545" lon="13.5343996"><ele>69.0</ele><time>2026-04-26T07:11:32.325Z</time></trkpt><trkpt lat="38.0578386" lon="13.5347009"><ele>69.0</ele><time>2026-04-26T07:11:33.325Z</time></trkpt><trkpt lat="38.0577234" lon="13.5349869"><ele>69.0</ele><time>2026-04-26T07:11:34.325Z</time></trkpt><trkpt lat="38.0576092" lon="13.5352758"><ele>68.5</ele><time>2026-04-26T07:11:35.325Z</time></trkpt><trkpt lat="38.0574986" lon="13.5355608"><ele>68.0</ele><time>2026-04-26T07:11:36.324Z</time></trkpt><trkpt lat="38.0573751" lon="13.5358364"><ele>68.0</ele><time>2026-04-26T07:11:37.325Z</time></trkpt><trkpt lat="38.0572647" lon="13.5361059"><ele>68.0</ele><time>2026-04-26T07:11:38.325Z</time></trkpt><trkpt lat="38.0571401" lon="13.5363795"><ele>67.5</ele><time>2026-04-26T07:11:39.324Z</time></trkpt><trkpt lat="38.0570132" lon="13.5366473"><ele>67.0</ele><time>2026-04-26T07:11:40.325Z</time></trkpt><trkpt lat="38.0568753" lon="13.5369197"><ele>66.5</ele><time>2026-04-26T07:11:41.325Z</time></trkpt><trkpt lat="38.0567189" lon="13.537176"><ele>66.0</ele><time>2026-04-26T07:11:42.325Z</time></trkpt><trkpt lat="38.0565641" lon="13.5374604"><ele>66.0</ele><time>2026-04-26T07:11:43.325Z</time></trkpt><trkpt lat="38.0563739" lon="13.5377425"><ele>66.0</ele><time>2026-04-26T07:11:44.324Z</time></trkpt><trkpt lat="38.0562078" lon="13.5380024"><ele>64.0</ele><time>2026-04-26T07:11:45.325Z</time></trkpt><trkpt lat="38.056044" lon="13.5382562"><ele>62.0</ele><time>2026-04-26T07:11:46.325Z</time></trkpt><trkpt lat="38.0558647" lon="13.5385181"><ele>56.5</ele><time>2026-04-26T07:11:47.325Z</time></trkpt><trkpt lat="38.0556816" lon="13.5387751"><ele>51.0</ele><time>2026-04-26T07:11:48.325Z</time></trkpt><trkpt lat="38.0555017" lon="13.5390269"><ele>51.0</ele><time>2026-04-26T07:11:49.325Z</time></trkpt><trkpt lat="38.0553115" lon="13.5392651"><ele>51.0</ele><time>2026-04-26T07:11:50.325Z</time></trkpt><trkpt lat="38.0551068" lon="13.5394837"><ele>42.0</ele><time>2026-04-26T07:11:51.325Z</time></trkpt><trkpt lat="38.0548954" lon="13.5396983"><ele>33.0</ele><time>2026-04-26T07:11:52.325Z</time></trkpt><trkpt lat="38.054673" lon="13.5398992"><ele>33.0</ele><time>2026-04-26T07:11:53.325Z</time></trkpt><trkpt lat="38.0544411" lon="13.5401015"><ele>33.0</ele><time>2026-04-26T07:11:54.325Z</time></trkpt><trkpt lat="38.0541771" lon="13.5402952"><ele>44.0</ele><time>2026-04-26T07:11:55.325Z</time></trkpt><trkpt lat="38.0539145" lon="13.540479"><ele>55.0</ele><time>2026-04-26T07:11:56.325Z</time></trkpt><trkpt lat="38.0536837" lon="13.5406503"><ele>55.0</ele><time>2026-04-26T07:11:57.325Z</time></trkpt><trkpt lat="38.0534512" lon="13.5408577"><ele>55.0</ele><time>2026-04-26T07:11:58.325Z</time></trkpt><trkpt lat="38.0531944" lon="13.5410411"><ele>54.0</ele><time>2026-04-26T07:11:59.325Z</time></trkpt><trkpt lat="38.0529719" lon="13.5412479"><ele>53.0</ele><time>2026-04-26T07:12:00.325Z</time></trkpt><trkpt lat="38.0535065" lon="13.5419799"><ele>43.5</ele><time>2026-04-26T07:12:01.325Z</time></trkpt><trkpt lat="38.0533386" lon="13.5422224"><ele>34.0</ele><time>2026-04-26T07:12:02.325Z</time></trkpt><trkpt lat="38.0531706" lon="13.5424654"><ele>33.0</ele><time>2026-04-26T07:12:03.325Z</time></trkpt><trkpt lat="38.0530042" lon="13.5427083"><ele>32.0</ele><time>2026-04-26T07:12:04.325Z</time></trkpt><trkpt lat="38.0528349" lon="13.5429574"><ele>31.5</ele><time>2026-04-26T07:12:05.325Z</time></trkpt><trkpt lat="38.0526649" lon="13.5432143"><ele>31.0</ele><time>2026-04-26T07:12:06.325Z</time></trkpt><trkpt lat="38.0524956" lon="13.5434671"><ele>40.0</ele><time>2026-04-26T07:12:07.325Z</time></trkpt><trkpt lat="38.05233" lon="13.5437283"><ele>49.0</ele><time>2026-04-26T07:12:08.325Z</time></trkpt><trkpt lat="38.052162" lon="13.5439864"><ele>49.0</ele><time>2026-04-26T07:12:09.325Z</time></trkpt><trkpt lat="38.0519914" lon="13.5442362"><ele>49.0</ele><time>2026-04-26T07:12:10.325Z</time></trkpt><trkpt lat="38.0518219" lon="13.5444877"><ele>42.0</ele><time>2026-04-26T07:12:11.325Z</time></trkpt><trkpt lat="38.0516579" lon="13.5447423"><ele>35.0</ele><time>2026-04-26T07:12:12.325Z</time></trkpt><trkpt lat="38.0514954" lon="13.5449956"><ele>38.5</ele><time>2026-04-26T07:12:13.324Z</time></trkpt><trkpt lat="38.0513239" lon="13.5452516"><ele>42.0</ele><time>2026-04-26T07:12:14.325Z</time></trkpt><trkpt lat="38.0511565" lon="13.5455071"><ele>42.0</ele><time>2026-04-26T07:12:15.325Z</time></trkpt><trkpt lat="38.0509871" lon="13.545759"><ele>42.0</ele><time>2026-04-26T07:12:16.324Z</time></trkpt><trkpt lat="38.050816" lon="13.5460136"><ele>29.0</ele><time>2026-04-26T07:12:17.325Z</time></trkpt><trkpt lat="38.0506467" lon="13.5462707"><ele>16.0</ele><time>2026-04-26T07:12:18.325Z</time></trkpt><trkpt lat="38.0504826" lon="13.546524"><ele>16.0</ele><time>2026-04-26T07:12:19.325Z</time></trkpt><trkpt lat="38.050321" lon="13.5467708"><ele>16.0</ele><time>2026-04-26T07:12:20.325Z</time></trkpt><trkpt lat="38.0501581" lon="13.547018"><ele>15.0</ele><time>2026-04-26T07:12:21.324Z</time></trkpt><trkpt lat="38.0499966" lon="13.5472626"><ele>14.0</ele><time>2026-04-26T07:12:22.325Z</time></trkpt><trkpt lat="38.049832" lon="13.5475077"><ele>13.5</ele><time>2026-04-26T07:12:23.325Z</time></trkpt><trkpt lat="38.049672" lon="13.5477548"><ele>13.0</ele><time>2026-04-26T07:12:24.325Z</time></trkpt><trkpt lat="38.0495147" lon="13.5479952"><ele>13.0</ele><time>2026-04-26T07:12:25.325Z</time></trkpt><trkpt lat="38.0493527" lon="13.5482352"><ele>13.0</ele><time>2026-04-26T07:12:26.325Z</time></trkpt><trkpt lat="38.0491843" lon="13.5484757"><ele>18.0</ele><time>2026-04-26T07:12:27.325Z</time></trkpt><trkpt lat="38.0490235" lon="13.548718"><ele>23.0</ele><time>2026-04-26T07:12:28.325Z</time></trkpt><trkpt lat="38.0488616" lon="13.5489605"><ele>23.0</ele><time>2026-04-26T07:12:29.325Z</time></trkpt><trkpt lat="38.0486946" lon="13.5492088"><ele>23.0</ele><time>2026-04-26T07:12:30.325Z</time></trkpt><trkpt lat="38.0485273" lon="13.5494577"><ele>21.5</ele><time>2026-04-26T07:12:31.325Z</time></trkpt><trkpt lat="38.0483576" lon="13.5497074"><ele>20.0</ele><time>2026-04-26T07:12:32.325Z</time></trkpt><trkpt lat="38.0481843" lon="13.5499563"><ele>19.5</ele><time>2026-04-26T07:12:33.325Z</time></trkpt><trkpt lat="38.0480081" lon="13.5502024"><ele>19.0</ele><time>2026-04-26T07:12:34.325Z</time></trkpt><trkpt lat="38.0478241" lon="13.5504407"><ele>19.0</ele><time>2026-04-26T07:12:35.325Z</time></trkpt><trkpt lat="38.0476409" lon="13.5506656"><ele>19.0</ele><time>2026-04-26T07:12:36.325Z</time></trkpt><trkpt lat="38.0474546" lon="13.5508848"><ele>20.0</ele><time>2026-04-26T07:12:37.325Z</time></trkpt><trkpt lat="38.0472706" lon="13.5511001"><ele>21.0</ele><time>2026-04-26T07:12:38.325Z</time></trkpt><trkpt lat="38.0470843" lon="13.5513231"><ele>21.0</ele><time>2026-04-26T07:12:39.325Z</time></trkpt><trkpt lat="38.0468971" lon="13.551545"><ele>21.0</ele><time>2026-04-26T07:12:40.325Z</time></trkpt><trkpt lat="38.0467061" lon="13.5517725"><ele>22.0</ele><time>2026-04-26T07:12:41.325Z</time></trkpt><trkpt lat="38.0465087" lon="13.552022"><ele>23.0</ele><time>2026-04-26T07:12:42.325Z</time></trkpt><trkpt lat="38.0463112" lon="13.5522677"><ele>23.0</ele><time>2026-04-26T07:12:43.325Z</time></trkpt><trkpt lat="38.046114" lon="13.5525134"><ele>23.0</ele><time>2026-04-26T07:12:44.324Z</time></trkpt><trkpt lat="38.0459203" lon="13.5527559"><ele>23.5</ele><time>2026-04-26T07:12:45.325Z</time></trkpt><trkpt lat="38.0457262" lon="13.5530011"><ele>24.0</ele><time>2026-04-26T07:12:46.325Z</time></trkpt><trkpt lat="38.0455405" lon="13.5532364"><ele>24.0</ele><time>2026-04-26T07:12:47.325Z</time></trkpt><trkpt lat="38.0453568" lon="13.553465"><ele>24.0</ele><time>2026-04-26T07:12:48.325Z</time></trkpt><trkpt lat="38.0451715" lon="13.5536813"><ele>21.0</ele><time>2026-04-26T07:12:49.325Z</time></trkpt><trkpt lat="38.0449858" lon="13.553905"><ele>18.0</ele><time>2026-04-26T07:12:50.325Z</time></trkpt><trkpt lat="38.0448016" lon="13.5541237"><ele>21.5</ele><time>2026-04-26T07:12:51.325Z</time></trkpt><trkpt lat="38.0446163" lon="13.5543386"><ele>25.0</ele><time>2026-04-26T07:12:52.325Z</time></trkpt><trkpt lat="38.0444305" lon="13.5545503"><ele>25.0</ele><time>2026-04-26T07:12:53.324Z</time></trkpt><trkpt lat="38.0442472" lon="13.5547572"><ele>25.0</ele><time>2026-04-26T07:12:54.325Z</time></trkpt><trkpt lat="38.0440694" lon="13.5549623"><ele>28.5</ele><time>2026-04-26T07:12:55.325Z</time></trkpt><trkpt lat="38.0438947" lon="13.555166"><ele>32.0</ele><time>2026-04-26T07:12:56.325Z</time></trkpt><trkpt lat="38.0437264" lon="13.55537"><ele>30.0</ele><time>2026-04-26T07:12:57.325Z</time></trkpt><trkpt lat="38.0435579" lon="13.5555801"><ele>28.0</ele><time>2026-04-26T07:12:58.325Z</time></trkpt><trkpt lat="38.0433881" lon="13.5557907"><ele>30.0</ele><time>2026-04-26T07:12:59.325Z</time></trkpt><trkpt lat="38.0432169" lon="13.5560021"><ele>32.0</ele><time>2026-04-26T07:13:00.324Z</time></trkpt><trkpt lat="38.0430503" lon="13.5562146"><ele>32.0</ele><time>2026-04-26T07:13:01.325Z</time></trkpt><trkpt lat="38.042889" lon="13.5564356"><ele>32.0</ele><time>2026-04-26T07:13:02.325Z</time></trkpt><trkpt lat="38.0427317" lon="13.5566647"><ele>32.0</ele><time>2026-04-26T07:13:03.325Z</time></trkpt><trkpt lat="38.0425752" lon="13.5569019"><ele>32.0</ele><time>2026-04-26T07:13:04.325Z</time></trkpt><trkpt lat="38.0424211" lon="13.5571456"><ele>44.0</ele><time>2026-04-26T07:13:05.325Z</time></trkpt><trkpt lat="38.0422706" lon="13.557391"><ele>56.0</ele><time>2026-04-26T07:13:06.325Z</time></trkpt><trkpt lat="38.0421229" lon="13.5576378"><ele>51.5</ele><time>2026-04-26T07:13:07.325Z</time></trkpt><trkpt lat="38.0419727" lon="13.5578798"><ele>47.0</ele><time>2026-04-26T07:13:08.325Z</time></trkpt><trkpt lat="38.0418282" lon="13.5581142"><ele>47.0</ele><time>2026-04-26T07:13:09.325Z</time></trkpt><trkpt lat="38.0416819" lon="13.5583481"><ele>47.0</ele><time>2026-04-26T07:13:10.325Z</time></trkpt><trkpt lat="38.0415313" lon="13.5585859"><ele>43.0</ele><time>2026-04-26T07:13:11.324Z</time></trkpt><trkpt lat="38.0413796" lon="13.5588266"><ele>39.0</ele><time>2026-04-26T07:13:12.325Z</time></trkpt><trkpt lat="38.0412281" lon="13.559064"><ele>39.0</ele><time>2026-04-26T07:13:13.325Z</time></trkpt><trkpt lat="38.0410671" lon="13.5593014"><ele>39.0</ele><time>2026-04-26T07:13:14.325Z</time></trkpt><trkpt lat="38.0409015" lon="13.5595364"><ele>47.0</ele><time>2026-04-26T07:13:15.325Z</time></trkpt><trkpt lat="38.0407321" lon="13.559769"><ele>55.0</ele><time>2026-04-26T07:13:16.325Z</time></trkpt><trkpt lat="38.0405598" lon="13.5600029"><ele>55.0</ele><time>2026-04-26T07:13:17.325Z</time></trkpt><trkpt lat="38.040383" lon="13.5602306"><ele>55.0</ele><time>2026-04-26T07:13:18.324Z</time></trkpt><trkpt lat="38.0402005" lon="13.5604577"><ele>52.5</ele><time>2026-04-26T07:13:19.325Z</time></trkpt><trkpt lat="38.0400142" lon="13.5606822"><ele>50.0</ele><time>2026-04-26T07:13:20.325Z</time></trkpt><trkpt lat="38.0398224" lon="13.5609033"><ele>50.5</ele><time>2026-04-26T07:13:21.325Z</time></trkpt><trkpt lat="38.0396293" lon="13.5611188"><ele>51.0</ele><time>2026-04-26T07:13:22.325Z</time></trkpt><trkpt lat="38.03943" lon="13.5613303"><ele>51.0</ele><time>2026-04-26T07:13:23.325Z</time></trkpt><trkpt lat="38.0392287" lon="13.5615337"><ele>51.0</ele><time>2026-04-26T07:13:24.325Z</time></trkpt><trkpt lat="38.0390218" lon="13.5617374"><ele>43.0</ele><time>2026-04-26T07:13:25.325Z</time></trkpt><trkpt lat="38.0388123" lon="13.5619333"><ele>35.0</ele><time>2026-04-26T07:13:26.325Z</time></trkpt><trkpt lat="38.0386039" lon="13.5621222"><ele>32.5</ele><time>2026-04-26T07:13:27.325Z</time></trkpt><trkpt lat="38.0383915" lon="13.5623087"><ele>30.0</ele><time>2026-04-26T07:13:28.325Z</time></trkpt><trkpt lat="38.038173" lon="13.5624906"><ele>30.0</ele><time>2026-04-26T07:13:29.325Z</time></trkpt><trkpt lat="38.0379544" lon="13.5626593"><ele>30.0</ele><time>2026-04-26T07:13:30.325Z</time></trkpt><trkpt lat="38.0377382" lon="13.5628204"><ele>39.0</ele><time>2026-04-26T07:13:31.325Z</time></trkpt><trkpt lat="38.0375234" lon="13.5629772"><ele>48.0</ele><time>2026-04-26T07:13:32.325Z</time></trkpt><trkpt lat="38.0373133" lon="13.5631278"><ele>53.5</ele><time>2026-04-26T07:13:33.325Z</time></trkpt><trkpt lat="38.0371057" lon="13.5632744"><ele>59.0</ele><time>2026-04-26T07:13:34.325Z</time></trkpt><trkpt lat="38.0368982" lon="13.563423"><ele>59.0</ele><time>2026-04-26T07:13:35.325Z</time></trkpt><trkpt lat="38.0366899" lon="13.5635772"><ele>59.0</ele><time>2026-04-26T07:13:36.325Z</time></trkpt><trkpt lat="38.0364791" lon="13.5637385"><ele>63.5</ele><time>2026-04-26T07:13:37.325Z</time></trkpt><trkpt lat="38.0362736" lon="13.5639052"><ele>68.0</ele><time>2026-04-26T07:13:38.325Z</time></trkpt><trkpt lat="38.0360705" lon="13.5640757"><ele>68.0</ele><time>2026-04-26T07:13:39.325Z</time></trkpt><trkpt lat="38.0358696" lon="13.5642604"><ele>68.0</ele><time>2026-04-26T07:13:40.325Z</time></trkpt><trkpt lat="38.0356743" lon="13.5644523"><ele>70.0</ele><time>2026-04-26T07:13:41.325Z</time></trkpt><trkpt lat="38.035481" lon="13.5646572"><ele>72.0</ele><time>2026-04-26T07:13:42.325Z</time></trkpt><trkpt lat="38.0352874" lon="13.5648691"><ele>72.0</ele><time>2026-04-26T07:13:43.325Z</time></trkpt><trkpt lat="38.0350991" lon="13.565092"><ele>72.0</ele><time>2026-04-26T07:13:44.325Z</time></trkpt><trkpt lat="38.0349083" lon="13.5653265"><ele>72.5</ele><time>2026-04-26T07:13:45.325Z</time></trkpt><trkpt lat="38.034721" lon="13.5655711"><ele>73.0</ele><time>2026-04-26T07:13:46.325Z</time></trkpt><trkpt lat="38.034537" lon="13.5658417"><ele>73.0</ele><time>2026-04-26T07:13:47.324Z</time></trkpt><trkpt lat="38.0343591" lon="13.566126"><ele>73.0</ele><time>2026-04-26T07:13:48.325Z</time></trkpt><trkpt lat="38.0341827" lon="13.566416"><ele>74.5</ele><time>2026-04-26T07:13:49.325Z</time></trkpt><trkpt lat="38.0340153" lon="13.5667084"><ele>76.0</ele><time>2026-04-26T07:13:50.325Z</time></trkpt><trkpt lat="38.0338559" lon="13.5669978"><ele>75.0</ele><time>2026-04-26T07:13:51.325Z</time></trkpt><trkpt lat="38.0337058" lon="13.5672885"><ele>74.0</ele><time>2026-04-26T07:13:52.325Z</time></trkpt><trkpt lat="38.0335613" lon="13.5675692"><ele>74.0</ele><time>2026-04-26T07:13:53.325Z</time></trkpt><trkpt lat="38.0334171" lon="13.5678526"><ele>74.0</ele><time>2026-04-26T07:13:54.325Z</time></trkpt><trkpt lat="38.0332711" lon="13.5681353"><ele>75.0</ele><time>2026-04-26T07:13:55.325Z</time></trkpt><trkpt lat="38.0331231" lon="13.5684173"><ele>76.0</ele><time>2026-04-26T07:13:56.325Z</time></trkpt><trkpt lat="38.0329753" lon="13.5687026"><ele>76.0</ele><time>2026-04-26T07:13:57.325Z</time></trkpt><trkpt lat="38.0328263" lon="13.5689875"><ele>76.0</ele><time>2026-04-26T07:13:58.325Z</time></trkpt><trkpt lat="38.0326724" lon="13.5692731"><ele>75.5</ele><time>2026-04-26T07:13:59.325Z</time></trkpt><trkpt lat="38.032516" lon="13.5695592"><ele>75.0</ele><time>2026-04-26T07:14:00.325Z</time></trkpt><trkpt lat="38.0323604" lon="13.5698465"><ele>76.5</ele><time>2026-04-26T07:14:01.325Z</time></trkpt><trkpt lat="38.0322075" lon="13.5701278"><ele>78.0</ele><time>2026-04-26T07:14:02.325Z</time></trkpt><trkpt lat="38.0320548" lon="13.5704025"><ele>78.0</ele><time>2026-04-26T07:14:03.325Z</time></trkpt><trkpt lat="38.0319087" lon="13.5706695"><ele>78.0</ele><time>2026-04-26T07:14:04.325Z</time></trkpt><trkpt lat="38.0317646" lon="13.5709267"><ele>77.5</ele><time>2026-04-26T07:14:05.325Z</time></trkpt><trkpt lat="38.0316254" lon="13.5711911"><ele>77.0</ele><time>2026-04-26T07:14:06.324Z</time></trkpt><trkpt lat="38.0314861" lon="13.5714575"><ele>77.0</ele><time>2026-04-26T07:14:07.325Z</time></trkpt><trkpt lat="38.0313464" lon="13.5717257"><ele>77.0</ele><time>2026-04-26T07:14:08.325Z</time></trkpt><trkpt lat="38.031209" lon="13.5719913"><ele>75.0</ele><time>2026-04-26T07:14:09.325Z</time></trkpt><trkpt lat="38.0310627" lon="13.5722466"><ele>73.0</ele><time>2026-04-26T07:14:10.325Z</time></trkpt><trkpt lat="38.0309273" lon="13.5725078"><ele>75.5</ele><time>2026-04-26T07:14:11.325Z</time></trkpt><trkpt lat="38.030788" lon="13.5727732"><ele>78.0</ele><time>2026-04-26T07:14:12.325Z</time></trkpt><trkpt lat="38.0306448" lon="13.5730428"><ele>78.0</ele><time>2026-04-26T07:14:13.325Z</time></trkpt><trkpt lat="38.0305022" lon="13.5733167"><ele>78.0</ele><time>2026-04-26T07:14:14.325Z</time></trkpt><trkpt lat="38.0303563" lon="13.5735911"><ele>78.5</ele><time>2026-04-26T07:14:15.324Z</time></trkpt><trkpt lat="38.0302119" lon="13.5738689"><ele>79.0</ele><time>2026-04-26T07:14:16.325Z</time></trkpt><trkpt lat="38.0300691" lon="13.5741427"><ele>81.0</ele><time>2026-04-26T07:14:17.325Z</time></trkpt><trkpt lat="38.0299264" lon="13.5744214"><ele>83.0</ele><time>2026-04-26T07:14:18.325Z</time></trkpt><trkpt lat="38.0297828" lon="13.5746948"><ele>83.0</ele><time>2026-04-26T07:14:19.325Z</time></trkpt><trkpt lat="38.0296384" lon="13.5749643"><ele>83.0</ele><time>2026-04-26T07:14:20.325Z</time></trkpt><trkpt lat="38.0294966" lon="13.5752344"><ele>81.5</ele><time>2026-04-26T07:14:21.325Z</time></trkpt><trkpt lat="38.0293579" lon="13.5754989"><ele>80.0</ele><time>2026-04-26T07:14:22.325Z</time></trkpt><trkpt lat="38.0292181" lon="13.5757662"><ele>82.0</ele><time>2026-04-26T07:14:23.324Z</time></trkpt><trkpt lat="38.029076" lon="13.5760335"><ele>84.0</ele><time>2026-04-26T07:14:24.325Z</time></trkpt><trkpt lat="38.0289309" lon="13.5763028"><ele>84.0</ele><time>2026-04-26T07:14:25.325Z</time></trkpt><trkpt lat="38.0287881" lon="13.5765743"><ele>84.0</ele><time>2026-04-26T07:14:26.325Z</time></trkpt><trkpt lat="38.028648" lon="13.5768441"><ele>83.0</ele><time>2026-04-26T07:14:27.325Z</time></trkpt><trkpt lat="38.0285104" lon="13.577113"><ele>82.0</ele><time>2026-04-26T07:14:28.325Z</time></trkpt><trkpt lat="38.0283714" lon="13.5773828"><ele>84.5</ele><time>2026-04-26T07:14:29.325Z</time></trkpt><trkpt lat="38.028231" lon="13.5776543"><ele>87.0</ele><time>2026-04-26T07:14:30.325Z</time></trkpt><trkpt lat="38.0280853" lon="13.5779196"><ele>87.0</ele><time>2026-04-26T07:14:31.325Z</time></trkpt><trkpt lat="38.0279413" lon="13.5781859"><ele>87.0</ele><time>2026-04-26T07:14:32.325Z</time></trkpt><trkpt lat="38.0277957" lon="13.5784513"><ele>86.5</ele><time>2026-04-26T07:14:33.325Z</time></trkpt><trkpt lat="38.027654" lon="13.5787221"><ele>86.0</ele><time>2026-04-26T07:14:34.325Z</time></trkpt><trkpt lat="38.0275114" lon="13.5789928"><ele>89.0</ele><time>2026-04-26T07:14:35.325Z</time></trkpt><trkpt lat="38.0273719" lon="13.579257"><ele>92.0</ele><time>2026-04-26T07:14:36.325Z</time></trkpt><trkpt lat="38.0272299" lon="13.5795206"><ele>92.0</ele><time>2026-04-26T07:14:37.325Z</time></trkpt><trkpt lat="38.0270874" lon="13.5797852"><ele>92.0</ele><time>2026-04-26T07:14:38.325Z</time></trkpt><trkpt lat="38.0269465" lon="13.5800554"><ele>92.0</ele><time>2026-04-26T07:14:39.325Z</time></trkpt><trkpt lat="38.0268092" lon="13.5803231"><ele>92.0</ele><time>2026-04-26T07:14:40.325Z</time></trkpt><trkpt lat="38.0266703" lon="13.5805909"><ele>94.5</ele><time>2026-04-26T07:14:41.325Z</time></trkpt><trkpt lat="38.0265288" lon="13.5808625"><ele>97.0</ele><time>2026-04-26T07:14:42.325Z</time></trkpt><trkpt lat="38.0263906" lon="13.5811282"><ele>97.5</ele><time>2026-04-26T07:14:43.325Z</time></trkpt><trkpt lat="38.0262478" lon="13.581395"><ele>98.0</ele><time>2026-04-26T07:14:44.325Z</time></trkpt><trkpt lat="38.026106" lon="13.5816589"><ele>98.0</ele><time>2026-04-26T07:14:45.325Z</time></trkpt><trkpt lat="38.0259611" lon="13.5819241"><ele>98.0</ele><time>2026-04-26T07:14:46.325Z</time></trkpt><trkpt lat="38.0258187" lon="13.5821943"><ele>101.5</ele><time>2026-04-26T07:14:47.325Z</time></trkpt><trkpt lat="38.025678" lon="13.5824634"><ele>105.0</ele><time>2026-04-26T07:14:48.325Z</time></trkpt><trkpt lat="38.0255419" lon="13.5827365"><ele>104.5</ele><time>2026-04-26T07:14:49.325Z</time></trkpt><trkpt lat="38.0254024" lon="13.583011"><ele>104.0</ele><time>2026-04-26T07:14:50.324Z</time></trkpt><trkpt lat="38.025262" lon="13.5832844"><ele>104.0</ele><time>2026-04-26T07:14:51.325Z</time></trkpt><trkpt lat="38.0251179" lon="13.5835614"><ele>104.0</ele><time>2026-04-26T07:14:52.325Z</time></trkpt><trkpt lat="38.0249741" lon="13.5838415"><ele>107.0</ele><time>2026-04-26T07:14:53.325Z</time></trkpt><trkpt lat="38.0248295" lon="13.584118"><ele>110.0</ele><time>2026-04-26T07:14:54.325Z</time></trkpt><trkpt lat="38.0246829" lon="13.5843941"><ele>109.0</ele><time>2026-04-26T07:14:55.325Z</time></trkpt><trkpt lat="38.0245345" lon="13.584667"><ele>108.0</ele><time>2026-04-26T07:14:56.325Z</time></trkpt><trkpt lat="38.0243882" lon="13.5849379"><ele>108.0</ele><time>2026-04-26T07:14:57.325Z</time></trkpt><trkpt lat="38.0242417" lon="13.5852211"><ele>108.0</ele><time>2026-04-26T07:14:58.325Z</time></trkpt><trkpt lat="38.0240957" lon="13.5855009"><ele>106.5</ele><time>2026-04-26T07:14:59.325Z</time></trkpt><trkpt lat="38.0239486" lon="13.5857801"><ele>105.0</ele><time>2026-04-26T07:15:00.325Z</time></trkpt><trkpt lat="38.0237941" lon="13.5860584"><ele>103.0</ele><time>2026-04-26T07:15:01.325Z</time></trkpt><trkpt lat="38.0236445" lon="13.5863379"><ele>101.0</ele><time>2026-04-26T07:15:02.325Z</time></trkpt><trkpt lat="38.0234987" lon="13.5866185"><ele>101.0</ele><time>2026-04-26T07:15:03.325Z</time></trkpt><trkpt lat="38.0233528" lon="13.5868993"><ele>101.0</ele><time>2026-04-26T07:15:04.325Z</time></trkpt><trkpt lat="38.0232074" lon="13.5871788"><ele>99.5</ele><time>2026-04-26T07:15:05.325Z</time></trkpt><trkpt lat="38.0230628" lon="13.5874525"><ele>98.0</ele><time>2026-04-26T07:15:06.325Z</time></trkpt><trkpt lat="38.0229171" lon="13.5877283"><ele>96.5</ele><time>2026-04-26T07:15:07.325Z</time></trkpt><trkpt lat="38.0227722" lon="13.5879996"><ele>95.0</ele><time>2026-04-26T07:15:08.325Z</time></trkpt><trkpt lat="38.0226289" lon="13.5882685"><ele>95.0</ele><time>2026-04-26T07:15:09.325Z</time></trkpt><trkpt lat="38.0224855" lon="13.588546"><ele>95.0</ele><time>2026-04-26T07:15:10.325Z</time></trkpt><trkpt lat="38.0223352" lon="13.5888439"><ele>93.5</ele><time>2026-04-26T07:15:11.325Z</time></trkpt><trkpt lat="38.0221863" lon="13.5891384"><ele>92.0</ele><time>2026-04-26T07:15:12.325Z</time></trkpt><trkpt lat="38.0220405" lon="13.5894176"><ele>95.0</ele><time>2026-04-26T07:15:13.324Z</time></trkpt><trkpt lat="38.0219016" lon="13.589695"><ele>98.0</ele><time>2026-04-26T07:15:14.325Z</time></trkpt><trkpt lat="38.0217707" lon="13.5899679"><ele>98.0</ele><time>2026-04-26T07:15:15.325Z</time></trkpt><trkpt lat="38.0216501" lon="13.5902449"><ele>98.0</ele><time>2026-04-26T07:15:16.325Z</time></trkpt><trkpt lat="38.0215351" lon="13.5905287"><ele>105.0</ele><time>2026-04-26T07:15:17.325Z</time></trkpt><trkpt lat="38.021428" lon="13.5908216"><ele>112.0</ele><time>2026-04-26T07:15:18.325Z</time></trkpt><trkpt lat="38.0213245" lon="13.5911163"><ele>112.0</ele><time>2026-04-26T07:15:19.325Z</time></trkpt><trkpt lat="38.0212247" lon="13.591411"><ele>112.0</ele><time>2026-04-26T07:15:20.325Z</time></trkpt><trkpt lat="38.0211349" lon="13.5917024"><ele>112.0</ele><time>2026-04-26T07:15:21.325Z</time></trkpt><trkpt lat="38.0210488" lon="13.5920006"><ele>112.0</ele><time>2026-04-26T07:15:22.325Z</time></trkpt><trkpt lat="38.0209679" lon="13.5923021"><ele>113.0</ele><time>2026-04-26T07:15:23.325Z</time></trkpt><trkpt lat="38.0208989" lon="13.5926116"><ele>114.0</ele><time>2026-04-26T07:15:24.324Z</time></trkpt><trkpt lat="38.0208388" lon="13.5929209"><ele>117.0</ele><time>2026-04-26T07:15:25.324Z</time></trkpt><trkpt lat="38.020786" lon="13.5932335"><ele>120.0</ele><time>2026-04-26T07:15:26.325Z</time></trkpt><trkpt lat="38.0207408" lon="13.593553"><ele>119.5</ele><time>2026-04-26T07:15:27.325Z</time></trkpt><trkpt lat="38.0206953" lon="13.5938739"><ele>119.0</ele><time>2026-04-26T07:15:28.325Z</time></trkpt><trkpt lat="38.0206543" lon="13.5941954"><ele>115.5</ele><time>2026-04-26T07:15:29.325Z</time></trkpt><trkpt lat="38.0206153" lon="13.5945238"><ele>112.0</ele><time>2026-04-26T07:15:30.325Z</time></trkpt><trkpt lat="38.0205808" lon="13.5948497"><ele>112.0</ele><time>2026-04-26T07:15:31.325Z</time></trkpt><trkpt lat="38.0205621" lon="13.5951759"><ele>112.0</ele><time>2026-04-26T07:15:32.325Z</time></trkpt><trkpt lat="38.020538" lon="13.5954998"><ele>106.5</ele><time>2026-04-26T07:15:33.325Z</time></trkpt><trkpt lat="38.0205167" lon="13.5958371"><ele>101.0</ele><time>2026-04-26T07:15:34.324Z</time></trkpt><trkpt lat="38.020499" lon="13.5961784"><ele>101.0</ele><time>2026-04-26T07:15:35.325Z</time></trkpt><trkpt lat="38.020465" lon="13.5965207"><ele>101.0</ele><time>2026-04-26T07:15:36.324Z</time></trkpt><trkpt lat="38.0204325" lon="13.5968632"><ele>103.5</ele><time>2026-04-26T07:15:37.325Z</time></trkpt><trkpt lat="38.0203946" lon="13.5972072"><ele>106.0</ele><time>2026-04-26T07:15:38.325Z</time></trkpt><trkpt lat="38.0203576" lon="13.5975462"><ele>106.0</ele><time>2026-04-26T07:15:39.325Z</time></trkpt><trkpt lat="38.0203098" lon="13.5978839"><ele>106.0</ele><time>2026-04-26T07:15:40.325Z</time></trkpt><trkpt lat="38.020256" lon="13.5982172"><ele>106.0</ele><time>2026-04-26T07:15:41.325Z</time></trkpt><trkpt lat="38.0201831" lon="13.598546"><ele>106.0</ele><time>2026-04-26T07:15:42.325Z</time></trkpt><trkpt lat="38.0201166" lon="13.5988653"><ele>105.0</ele><time>2026-04-26T07:15:43.325Z</time></trkpt><trkpt lat="38.0200452" lon="13.5991881"><ele>104.0</ele><time>2026-04-26T07:15:44.325Z</time></trkpt><trkpt lat="38.0199659" lon="13.5995105"><ele>108.0</ele><time>2026-04-26T07:15:45.325Z</time></trkpt><trkpt lat="38.0198744" lon="13.5998274"><ele>112.0</ele><time>2026-04-26T07:15:46.325Z</time></trkpt><trkpt lat="38.0197908" lon="13.6001277"><ele>109.5</ele><time>2026-04-26T07:15:47.325Z</time></trkpt><trkpt lat="38.0196868" lon="13.6004421"><ele>107.0</ele><time>2026-04-26T07:15:48.325Z</time></trkpt><trkpt lat="38.0195533" lon="13.6007566"><ele>107.0</ele><time>2026-04-26T07:15:49.324Z</time></trkpt><trkpt lat="38.019436" lon="13.6010674"><ele>107.0</ele><time>2026-04-26T07:15:50.325Z</time></trkpt><trkpt lat="38.019312" lon="13.6013719"><ele>102.5</ele><time>2026-04-26T07:15:51.325Z</time></trkpt><trkpt lat="38.0191568" lon="13.6016716"><ele>98.0</ele><time>2026-04-26T07:15:52.325Z</time></trkpt><trkpt lat="38.0189609" lon="13.6019547"><ele>94.0</ele><time>2026-04-26T07:15:53.325Z</time></trkpt><trkpt lat="38.0188018" lon="13.6022418"><ele>90.0</ele><time>2026-04-26T07:15:54.325Z</time></trkpt><trkpt lat="38.0186334" lon="13.6025249"><ele>90.0</ele><time>2026-04-26T07:15:55.325Z</time></trkpt><trkpt lat="38.0184582" lon="13.6027992"><ele>90.0</ele><time>2026-04-26T07:15:56.325Z</time></trkpt><trkpt lat="38.0182785" lon="13.6030656"><ele>89.5</ele><time>2026-04-26T07:15:57.325Z</time></trkpt><trkpt lat="38.0180977" lon="13.6033189"><ele>89.0</ele><time>2026-04-26T07:15:58.324Z</time></trkpt><trkpt lat="38.0179143" lon="13.6035652"><ele>84.5</ele><time>2026-04-26T07:15:59.325Z</time></trkpt><trkpt lat="38.0177307" lon="13.6038022"><ele>80.0</ele><time>2026-04-26T07:16:00.325Z</time></trkpt><trkpt lat="38.0175463" lon="13.6040388"><ele>79.5</ele><time>2026-04-26T07:16:01.325Z</time></trkpt><trkpt lat="38.0173665" lon="13.6042764"><ele>79.0</ele><time>2026-04-26T07:16:02.325Z</time></trkpt><trkpt lat="38.0171873" lon="13.604509"><ele>79.0</ele><time>2026-04-26T07:16:03.325Z</time></trkpt><trkpt lat="38.0170076" lon="13.604739"><ele>79.0</ele><time>2026-04-26T07:16:04.325Z</time></trkpt><trkpt lat="38.0168307" lon="13.6049687"><ele>79.0</ele><time>2026-04-26T07:16:05.325Z</time></trkpt><trkpt lat="38.0166535" lon="13.6052008"><ele>79.0</ele><time>2026-04-26T07:16:06.325Z</time></trkpt><trkpt lat="38.0164767" lon="13.60543"><ele>80.5</ele><time>2026-04-26T07:16:07.325Z</time></trkpt><trkpt lat="38.0162992" lon="13.6056631"><ele>82.0</ele><time>2026-04-26T07:16:08.325Z</time></trkpt><trkpt lat="38.0161183" lon="13.6059008"><ele>82.0</ele><time>2026-04-26T07:16:09.325Z</time></trkpt><trkpt lat="38.0159432" lon="13.6061377"><ele>82.0</ele><time>2026-04-26T07:16:10.325Z</time></trkpt><trkpt lat="38.0157638" lon="13.6063765"><ele>81.0</ele><time>2026-04-26T07:16:11.325Z</time></trkpt><trkpt lat="38.0155853" lon="13.6066136"><ele>80.0</ele><time>2026-04-26T07:16:12.325Z</time></trkpt><trkpt lat="38.0154029" lon="13.6068504"><ele>78.5</ele><time>2026-04-26T07:16:13.325Z</time></trkpt><trkpt lat="38.0152285" lon="13.6070858"><ele>77.0</ele><time>2026-04-26T07:16:14.325Z</time></trkpt><trkpt lat="38.0150474" lon="13.60732"><ele>77.0</ele><time>2026-04-26T07:16:15.325Z</time></trkpt><trkpt lat="38.0148655" lon="13.6075511"><ele>77.0</ele><time>2026-04-26T07:16:16.325Z</time></trkpt><trkpt lat="38.014685" lon="13.6077895"><ele>75.5</ele><time>2026-04-26T07:16:17.325Z</time></trkpt><trkpt lat="38.0145091" lon="13.6080315"><ele>74.0</ele><time>2026-04-26T07:16:18.324Z</time></trkpt><trkpt lat="38.0143342" lon="13.6082761"><ele>74.0</ele><time>2026-04-26T07:16:19.325Z</time></trkpt><trkpt lat="38.0141614" lon="13.6085246"><ele>74.0</ele><time>2026-04-26T07:16:20.325Z</time></trkpt><trkpt lat="38.0139969" lon="13.6087763"><ele>69.0</ele><time>2026-04-26T07:16:21.325Z</time></trkpt><trkpt lat="38.0138374" lon="13.6090272"><ele>64.0</ele><time>2026-04-26T07:16:22.325Z</time></trkpt><trkpt lat="38.013682" lon="13.6092852"><ele>62.5</ele><time>2026-04-26T07:16:23.325Z</time></trkpt><trkpt lat="38.0135269" lon="13.6095415"><ele>61.0</ele><time>2026-04-26T07:16:24.325Z</time></trkpt><trkpt lat="38.0133683" lon="13.6097966"><ele>66.0</ele><time>2026-04-26T07:16:25.325Z</time></trkpt><trkpt lat="38.0132085" lon="13.6100522"><ele>71.0</ele><time>2026-04-26T07:16:26.325Z</time></trkpt><trkpt lat="38.0130448" lon="13.6103099"><ele>68.5</ele><time>2026-04-26T07:16:27.325Z</time></trkpt><trkpt lat="38.0128832" lon="13.6105724"><ele>66.0</ele><time>2026-04-26T07:16:28.325Z</time></trkpt><trkpt lat="38.0127201" lon="13.6108343"><ele>66.0</ele><time>2026-04-26T07:16:29.325Z</time></trkpt><trkpt lat="38.0125506" lon="13.6110926"><ele>66.0</ele><time>2026-04-26T07:16:30.325Z</time></trkpt><trkpt lat="38.012383" lon="13.611348"><ele>67.0</ele><time>2026-04-26T07:16:31.325Z</time></trkpt><trkpt lat="38.0122156" lon="13.6116038"><ele>68.0</ele><time>2026-04-26T07:16:32.325Z</time></trkpt><trkpt lat="38.0120515" lon="13.6118611"><ele>64.5</ele><time>2026-04-26T07:16:33.325Z</time></trkpt><trkpt lat="38.01189" lon="13.6121153"><ele>61.0</ele><time>2026-04-26T07:16:34.325Z</time></trkpt><trkpt lat="38.0117289" lon="13.6123695"><ele>58.5</ele><time>2026-04-26T07:16:35.325Z</time></trkpt><trkpt lat="38.0115666" lon="13.6126293"><ele>56.0</ele><time>2026-04-26T07:16:36.325Z</time></trkpt><trkpt lat="38.0114019" lon="13.6128876"><ele>53.5</ele><time>2026-04-26T07:16:37.324Z</time></trkpt><trkpt lat="38.0112398" lon="13.613149"><ele>51.0</ele><time>2026-04-26T07:16:38.325Z</time></trkpt><trkpt lat="38.0110741" lon="13.6134185"><ele>50.0</ele><time>2026-04-26T07:16:39.325Z</time></trkpt><trkpt lat="38.010907" lon="13.6136856"><ele>49.0</ele><time>2026-04-26T07:16:40.325Z</time></trkpt><trkpt lat="38.0107391" lon="13.6139545"><ele>50.0</ele><time>2026-04-26T07:16:41.325Z</time></trkpt><trkpt lat="38.0105699" lon="13.614223"><ele>51.0</ele><time>2026-04-26T07:16:42.325Z</time></trkpt><trkpt lat="38.0103963" lon="13.6144934"><ele>51.0</ele><time>2026-04-26T07:16:43.325Z</time></trkpt><trkpt lat="38.0102275" lon="13.6147636"><ele>51.0</ele><time>2026-04-26T07:16:44.324Z</time></trkpt><trkpt lat="38.01006" lon="13.6150313"><ele>50.5</ele><time>2026-04-26T07:16:45.325Z</time></trkpt><trkpt lat="38.0098879" lon="13.6152993"><ele>50.0</ele><time>2026-04-26T07:16:46.325Z</time></trkpt><trkpt lat="38.009719" lon="13.6155648"><ele>50.0</ele><time>2026-04-26T07:16:47.325Z</time></trkpt><trkpt lat="38.0095479" lon="13.6158297"><ele>50.0</ele><time>2026-04-26T07:16:48.325Z</time></trkpt><trkpt lat="38.0093797" lon="13.6160913"><ele>45.5</ele><time>2026-04-26T07:16:49.325Z</time></trkpt><trkpt lat="38.0092123" lon="13.6163461"><ele>41.0</ele><time>2026-04-26T07:16:50.325Z</time></trkpt><trkpt lat="38.00905" lon="13.6166012"><ele>38.5</ele><time>2026-04-26T07:16:51.325Z</time></trkpt><trkpt lat="38.0088927" lon="13.616854"><ele>36.0</ele><time>2026-04-26T07:16:52.325Z</time></trkpt><trkpt lat="38.0087339" lon="13.617111"><ele>34.5</ele><time>2026-04-26T07:16:53.325Z</time></trkpt><trkpt lat="38.0085727" lon="13.6173655"><ele>33.0</ele><time>2026-04-26T07:16:54.325Z</time></trkpt><trkpt lat="38.0084059" lon="13.6176228"><ele>33.0</ele><time>2026-04-26T07:16:55.325Z</time></trkpt><trkpt lat="38.0082439" lon="13.6178827"><ele>33.0</ele><time>2026-04-26T07:16:56.325Z</time></trkpt><trkpt lat="38.0080772" lon="13.6181484"><ele>33.0</ele><time>2026-04-26T07:16:57.325Z</time></trkpt><trkpt lat="38.0079061" lon="13.6184186"><ele>33.0</ele><time>2026-04-26T07:16:58.325Z</time></trkpt><trkpt lat="38.007735" lon="13.6186835"><ele>33.0</ele><time>2026-04-26T07:16:59.325Z</time></trkpt><trkpt lat="38.0075667" lon="13.6189434"><ele>33.0</ele><time>2026-04-26T07:17:00.325Z</time></trkpt><trkpt lat="38.0074083" lon="13.6191947"><ele>33.0</ele><time>2026-04-26T07:17:01.325Z</time></trkpt><trkpt lat="38.0072462" lon="13.6194457"><ele>33.0</ele><time>2026-04-26T07:17:02.325Z</time></trkpt><trkpt lat="38.0070882" lon="13.6196968"><ele>33.0</ele><time>2026-04-26T07:17:03.325Z</time></trkpt><trkpt lat="38.0069289" lon="13.6199499"><ele>33.0</ele><time>2026-04-26T07:17:04.325Z</time></trkpt><trkpt lat="38.0067692" lon="13.6201998"><ele>34.5</ele><time>2026-04-26T07:17:05.325Z</time></trkpt><trkpt lat="38.0066119" lon="13.620453"><ele>36.0</ele><time>2026-04-26T07:17:06.325Z</time></trkpt><trkpt lat="38.0064568" lon="13.6207036"><ele>36.0</ele><time>2026-04-26T07:17:07.325Z</time></trkpt><trkpt lat="38.0063" lon="13.6209568"><ele>36.0</ele><time>2026-04-26T07:17:08.324Z</time></trkpt><trkpt lat="38.0061438" lon="13.6212148"><ele>33.5</ele><time>2026-04-26T07:17:09.325Z</time></trkpt><trkpt lat="38.0059907" lon="13.6214777"><ele>31.0</ele><time>2026-04-26T07:17:10.324Z</time></trkpt><trkpt lat="38.0058418" lon="13.6217405"><ele>31.0</ele><time>2026-04-26T07:17:11.325Z</time></trkpt><trkpt lat="38.0056982" lon="13.6220101"><ele>31.0</ele><time>2026-04-26T07:17:12.324Z</time></trkpt><trkpt lat="38.0055604" lon="13.622282"><ele>31.0</ele><time>2026-04-26T07:17:13.325Z</time></trkpt><trkpt lat="38.0054254" lon="13.6225586"><ele>31.0</ele><time>2026-04-26T07:17:14.325Z</time></trkpt><trkpt lat="38.0052978" lon="13.6228391"><ele>28.5</ele><time>2026-04-26T07:17:15.325Z</time></trkpt><trkpt lat="38.0051721" lon="13.6231275"><ele>26.0</ele><time>2026-04-26T07:17:16.324Z</time></trkpt><trkpt lat="38.0050556" lon="13.6234224"><ele>27.5</ele><time>2026-04-26T07:17:17.325Z</time></trkpt><trkpt lat="38.0049476" lon="13.6237178"><ele>29.0</ele><time>2026-04-26T07:17:18.325Z</time></trkpt><trkpt lat="38.0048413" lon="13.6240164"><ele>29.0</ele><time>2026-04-26T07:17:19.325Z</time></trkpt><trkpt lat="38.004741" lon="13.6243161"><ele>29.0</ele><time>2026-04-26T07:17:20.324Z</time></trkpt><trkpt lat="38.0046429" lon="13.6246172"><ele>32.0</ele><time>2026-04-26T07:17:21.325Z</time></trkpt><trkpt lat="38.0045507" lon="13.6249124"><ele>35.0</ele><time>2026-04-26T07:17:22.325Z</time></trkpt><trkpt lat="38.0044567" lon="13.6252065"><ele>34.5</ele><time>2026-04-26T07:17:23.324Z</time></trkpt><trkpt lat="38.0043642" lon="13.6254926"><ele>34.0</ele><time>2026-04-26T07:17:24.325Z</time></trkpt><trkpt lat="38.0042753" lon="13.6257793"><ele>34.0</ele><time>2026-04-26T07:17:25.325Z</time></trkpt><trkpt lat="38.0041844" lon="13.6260682"><ele>34.0</ele><time>2026-04-26T07:17:26.325Z</time></trkpt><trkpt lat="38.0040934" lon="13.6263553"><ele>37.5</ele><time>2026-04-26T07:17:27.325Z</time></trkpt><trkpt lat="38.0039998" lon="13.6266502"><ele>41.0</ele><time>2026-04-26T07:17:28.325Z</time></trkpt><trkpt lat="38.0039011" lon="13.6269381"><ele>38.5</ele><time>2026-04-26T07:17:29.325Z</time></trkpt><trkpt lat="38.0038063" lon="13.6272315"><ele>36.0</ele><time>2026-04-26T07:17:30.325Z</time></trkpt><trkpt lat="38.0037106" lon="13.6275195"><ele>36.0</ele><time>2026-04-26T07:17:31.325Z</time></trkpt><trkpt lat="38.003614" lon="13.6278077"><ele>36.0</ele><time>2026-04-26T07:17:32.325Z</time></trkpt><trkpt lat="38.0035192" lon="13.6281054"><ele>36.0</ele><time>2026-04-26T07:17:33.325Z</time></trkpt><trkpt lat="38.0034226" lon="13.6283954"><ele>36.0</ele><time>2026-04-26T07:17:34.325Z</time></trkpt><trkpt lat="38.0033225" lon="13.6286845"><ele>44.0</ele><time>2026-04-26T07:17:35.325Z</time></trkpt><trkpt lat="38.0032273" lon="13.6289828"><ele>52.0</ele><time>2026-04-26T07:17:36.325Z</time></trkpt><trkpt lat="38.0031286" lon="13.6292758"><ele>51.0</ele><time>2026-04-26T07:17:37.325Z</time></trkpt><trkpt lat="38.0030283" lon="13.6295706"><ele>50.0</ele><time>2026-04-26T07:17:38.325Z</time></trkpt><trkpt lat="38.0029337" lon="13.6298657"><ele>50.0</ele><time>2026-04-26T07:17:39.325Z</time></trkpt><trkpt lat="38.002837" lon="13.6301629"><ele>50.0</ele><time>2026-04-26T07:17:40.325Z</time></trkpt><trkpt lat="38.0027416" lon="13.6304567"><ele>48.0</ele><time>2026-04-26T07:17:41.325Z</time></trkpt><trkpt lat="38.0026458" lon="13.6307464"><ele>46.0</ele><time>2026-04-26T07:17:42.325Z</time></trkpt><trkpt lat="38.0025489" lon="13.6310383"><ele>46.5</ele><time>2026-04-26T07:17:43.325Z</time></trkpt><trkpt lat="38.0024517" lon="13.6313322"><ele>47.0</ele><time>2026-04-26T07:17:44.325Z</time></trkpt><trkpt lat="38.0023536" lon="13.6316231"><ele>47.0</ele><time>2026-04-26T07:17:45.325Z</time></trkpt><trkpt lat="38.0022561" lon="13.6319169"><ele>47.0</ele><time>2026-04-26T07:17:46.325Z</time></trkpt><trkpt lat="38.0021565" lon="13.6322153"><ele>41.5</ele><time>2026-04-26T07:17:47.325Z</time></trkpt><trkpt lat="38.0020573" lon="13.6325127"><ele>36.0</ele><time>2026-04-26T07:17:48.325Z</time></trkpt><trkpt lat="38.0019526" lon="13.6328077"><ele>34.5</ele><time>2026-04-26T07:17:49.325Z</time></trkpt><trkpt lat="38.0018418" lon="13.6331007"><ele>33.0</ele><time>2026-04-26T07:17:50.325Z</time></trkpt><trkpt lat="38.0017262" lon="13.6333933"><ele>36.0</ele><time>2026-04-26T07:17:51.325Z</time></trkpt><trkpt lat="38.0015975" lon="13.6336792"><ele>39.0</ele><time>2026-04-26T07:17:52.325Z</time></trkpt><trkpt lat="38.0014649" lon="13.6339672"><ele>39.0</ele><time>2026-04-26T07:17:53.325Z</time></trkpt><trkpt lat="38.0013204" lon="13.6342498"><ele>39.0</ele><time>2026-04-26T07:17:54.325Z</time></trkpt><trkpt lat="38.0011696" lon="13.634531"><ele>41.5</ele><time>2026-04-26T07:17:55.324Z</time></trkpt><trkpt lat="38.0010162" lon="13.6348092"><ele>44.0</ele><time>2026-04-26T07:17:56.325Z</time></trkpt><trkpt lat="38.0008588" lon="13.6350876"><ele>46.0</ele><time>2026-04-26T07:17:57.325Z</time></trkpt><trkpt lat="38.0006979" lon="13.6353647"><ele>48.0</ele><time>2026-04-26T07:17:58.325Z</time></trkpt><trkpt lat="38.0005416" lon="13.6356438"><ele>48.0</ele><time>2026-04-26T07:17:59.325Z</time></trkpt><trkpt lat="38.0003925" lon="13.6359268"><ele>48.0</ele><time>2026-04-26T07:18:00.325Z</time></trkpt><trkpt lat="38.0002457" lon="13.6362172"><ele>47.5</ele><time>2026-04-26T07:18:01.325Z</time></trkpt><trkpt lat="38.000098" lon="13.6365173"><ele>47.0</ele><time>2026-04-26T07:18:02.325Z</time></trkpt><trkpt lat="37.9999596" lon="13.6368308"><ele>46.5</ele><time>2026-04-26T07:18:03.325Z</time></trkpt><trkpt lat="37.9998295" lon="13.6371421"><ele>46.0</ele><time>2026-04-26T07:18:04.325Z</time></trkpt><trkpt lat="37.9997042" lon="13.6374654"><ele>46.0</ele><time>2026-04-26T07:18:05.325Z</time></trkpt><trkpt lat="37.9995895" lon="13.6377993"><ele>46.0</ele><time>2026-04-26T07:18:06.325Z</time></trkpt><trkpt lat="37.9994845" lon="13.6381284"><ele>44.5</ele><time>2026-04-26T07:18:07.325Z</time></trkpt><trkpt lat="37.9993926" lon="13.6384477"><ele>43.0</ele><time>2026-04-26T07:18:08.325Z</time></trkpt><trkpt lat="37.9993036" lon="13.6387642"><ele>42.0</ele><time>2026-04-26T07:18:09.325Z</time></trkpt><trkpt lat="37.9992235" lon="13.6390822"><ele>41.0</ele><time>2026-04-26T07:18:10.325Z</time></trkpt><trkpt lat="37.9991508" lon="13.6393962"><ele>52.5</ele><time>2026-04-26T07:18:11.325Z</time></trkpt><trkpt lat="37.9990888" lon="13.6397144"><ele>64.0</ele><time>2026-04-26T07:18:12.325Z</time></trkpt><trkpt lat="37.9990373" lon="13.64003"><ele>64.0</ele><time>2026-04-26T07:18:13.325Z</time></trkpt><trkpt lat="37.9989921" lon="13.6403412"><ele>64.0</ele><time>2026-04-26T07:18:14.324Z</time></trkpt><trkpt lat="37.9989457" lon="13.6406495"><ele>64.0</ele><time>2026-04-26T07:18:15.325Z</time></trkpt><trkpt lat="37.9989065" lon="13.6409664"><ele>64.0</ele><time>2026-04-26T07:18:16.325Z</time></trkpt><trkpt lat="37.9988636" lon="13.6412843"><ele>60.5</ele><time>2026-04-26T07:18:17.325Z</time></trkpt><trkpt lat="37.9988184" lon="13.6416002"><ele>57.0</ele><time>2026-04-26T07:18:18.325Z</time></trkpt><trkpt lat="37.9987638" lon="13.6419124"><ele>55.5</ele><time>2026-04-26T07:18:19.325Z</time></trkpt><trkpt lat="37.9986969" lon="13.6422229"><ele>54.0</ele><time>2026-04-26T07:18:20.325Z</time></trkpt><trkpt lat="37.9986221" lon="13.6425298"><ele>51.5</ele><time>2026-04-26T07:18:21.325Z</time></trkpt><trkpt lat="37.9985397" lon="13.6428386"><ele>49.0</ele><time>2026-04-26T07:18:22.325Z</time></trkpt><trkpt lat="37.9984495" lon="13.6431464"><ele>49.0</ele><time>2026-04-26T07:18:23.325Z</time></trkpt><trkpt lat="37.9983522" lon="13.643444"><ele>49.0</ele><time>2026-04-26T07:18:24.325Z</time></trkpt><trkpt lat="37.9982509" lon="13.6437428"><ele>62.5</ele><time>2026-04-26T07:18:25.325Z</time></trkpt><trkpt lat="37.9981385" lon="13.6440384"><ele>76.0</ele><time>2026-04-26T07:18:26.325Z</time></trkpt><trkpt lat="37.9980148" lon="13.6443235"><ele>72.0</ele><time>2026-04-26T07:18:27.325Z</time></trkpt><trkpt lat="37.9978902" lon="13.6445894"><ele>68.0</ele><time>2026-04-26T07:18:28.325Z</time></trkpt><trkpt lat="37.9977602" lon="13.6448422"><ele>68.0</ele><time>2026-04-26T07:18:29.325Z</time></trkpt><trkpt lat="37.9976234" lon="13.6450956"><ele>68.0</ele><time>2026-04-26T07:18:30.325Z</time></trkpt><trkpt lat="37.9974822" lon="13.6453471"><ele>78.66666666666667</ele><time>2026-04-26T07:18:31.325Z</time></trkpt><trkpt lat="37.997339" lon="13.6455722"><ele>89.33333333333334</ele><time>2026-04-26T07:18:32.325Z</time></trkpt><trkpt lat="37.9971952" lon="13.6457808"><ele>100.0</ele><time>2026-04-26T07:18:33.325Z</time></trkpt><trkpt lat="37.997054" lon="13.6459851"><ele>95.33333333333334</ele><time>2026-04-26T07:18:34.325Z</time></trkpt><trkpt lat="37.9969093" lon="13.6461889"><ele>90.66666666666667</ele><time>2026-04-26T07:18:35.325Z</time></trkpt><trkpt lat="37.9967669" lon="13.6463931"><ele>86.0</ele><time>2026-04-26T07:18:36.325Z</time></trkpt><trkpt lat="37.9966226" lon="13.6466077"><ele>90.0</ele><time>2026-04-26T07:18:37.325Z</time></trkpt><trkpt lat="37.9964788" lon="13.6468304"><ele>94.0</ele><time>2026-04-26T07:18:38.325Z</time></trkpt><trkpt lat="37.9954265" lon="13.6482217"><ele>94.0</ele><time>2026-04-26T07:18:43.324Z</time></trkpt><trkpt lat="37.9952486" lon="13.6484328"><ele>94.0</ele><time>2026-04-26T07:18:44.325Z</time></trkpt><trkpt lat="37.9950812" lon="13.6486703"><ele>94.0</ele><time>2026-04-26T07:18:45.325Z</time></trkpt><trkpt lat="37.9949048" lon="13.6489173"><ele>94.0</ele><time>2026-04-26T07:18:46.324Z</time></trkpt><trkpt lat="37.9947306" lon="13.6491583"><ele>94.0</ele><time>2026-04-26T07:18:47.325Z</time></trkpt><trkpt lat="37.9945563" lon="13.6493988"><ele>94.0</ele><time>2026-04-26T07:18:48.325Z</time></trkpt><trkpt lat="37.9943847" lon="13.6496373"><ele>88.5</ele><time>2026-04-26T07:18:49.325Z</time></trkpt><trkpt lat="37.9942125" lon="13.6498756"><ele>83.0</ele><time>2026-04-26T07:18:50.325Z</time></trkpt><trkpt lat="37.9940429" lon="13.6501143"><ele>96.5</ele><time>2026-04-26T07:18:51.324Z</time></trkpt><trkpt lat="37.9938721" lon="13.6503672"><ele>110.0</ele><time>2026-04-26T07:18:52.325Z</time></trkpt><trkpt lat="37.9936973" lon="13.6506147"><ele>110.0</ele><time>2026-04-26T07:18:53.325Z</time></trkpt><trkpt lat="37.9935165" lon="13.6508708"><ele>110.0</ele><time>2026-04-26T07:18:54.325Z</time></trkpt><trkpt lat="37.9933371" lon="13.6511265"><ele>123.0</ele><time>2026-04-26T07:18:55.325Z</time></trkpt><trkpt lat="37.993146" lon="13.6513908"><ele>136.0</ele><time>2026-04-26T07:18:56.325Z</time></trkpt><trkpt lat="37.9929534" lon="13.6516639"><ele>136.0</ele><time>2026-04-26T07:18:57.325Z</time></trkpt><trkpt lat="37.9927668" lon="13.6518936"><ele>136.0</ele><time>2026-04-26T07:18:58.325Z</time></trkpt><trkpt lat="37.9925849" lon="13.6521101"><ele>128.5</ele><time>2026-04-26T07:18:59.325Z</time></trkpt><trkpt lat="37.9924008" lon="13.6523187"><ele>121.0</ele><time>2026-04-26T07:19:00.325Z</time></trkpt><trkpt lat="37.992219" lon="13.6525112"><ele>113.0</ele><time>2026-04-26T07:19:01.324Z</time></trkpt><trkpt lat="37.9916588" lon="13.6531575"><ele>113.0</ele><time>2026-04-26T07:19:04.325Z</time></trkpt><trkpt lat="37.9914563" lon="13.6533387"><ele>113.0</ele><time>2026-04-26T07:19:05.325Z</time></trkpt><trkpt lat="37.9912207" lon="13.6534635"><ele>113.0</ele><time>2026-04-26T07:19:06.325Z</time></trkpt><trkpt lat="37.9910037" lon="13.6535503"><ele>113.0</ele><time>2026-04-26T07:19:07.325Z</time></trkpt><trkpt lat="37.990786" lon="13.6536453"><ele>115.33333333333333</ele><time>2026-04-26T07:19:08.325Z</time></trkpt><trkpt lat="37.9905745" lon="13.6537173"><ele>117.66666666666666</ele><time>2026-04-26T07:19:09.325Z</time></trkpt><trkpt lat="37.9903604" lon="13.6537917"><ele>120.0</ele><time>2026-04-26T07:19:10.325Z</time></trkpt><trkpt lat="37.990147" lon="13.6538539"><ele>126.0</ele><time>2026-04-26T07:19:11.325Z</time></trkpt><trkpt lat="37.989936" lon="13.653905"><ele>132.0</ele><time>2026-04-26T07:19:12.325Z</time></trkpt><trkpt lat="37.9896898" lon="13.6542003"><ele>110.0</ele><time>2026-04-26T07:19:13.324Z</time></trkpt><trkpt lat="37.9894301" lon="13.6547352"><ele>110.0</ele><time>2026-04-26T07:19:14.325Z</time></trkpt><trkpt lat="37.9891801" lon="13.6548661"><ele>110.0</ele><time>2026-04-26T07:19:15.324Z</time></trkpt><trkpt lat="37.9889262" lon="13.6549792"><ele>115.0</ele><time>2026-04-26T07:19:16.325Z</time></trkpt><trkpt lat="37.9886776" lon="13.6550773"><ele>120.0</ele><time>2026-04-26T07:19:17.325Z</time></trkpt><trkpt lat="37.9884258" lon="13.6551512"><ele>114.0</ele><time>2026-04-26T07:19:18.325Z</time></trkpt><trkpt lat="37.9881642" lon="13.655276"><ele>108.0</ele><time>2026-04-26T07:19:19.325Z</time></trkpt><trkpt lat="37.9879096" lon="13.6554077"><ele>108.0</ele><time>2026-04-26T07:19:20.324Z</time></trkpt><trkpt lat="37.987633" lon="13.6555738"><ele>108.0</ele><time>2026-04-26T07:19:21.324Z</time></trkpt><trkpt lat="37.9873742" lon="13.6557245"><ele>115.5</ele><time>2026-04-26T07:19:22.325Z</time></trkpt><trkpt lat="37.9871285" lon="13.6558873"><ele>123.0</ele><time>2026-04-26T07:19:23.325Z</time></trkpt><trkpt lat="37.9868889" lon="13.6560551"><ele>119.0</ele><time>2026-04-26T07:19:24.324Z</time></trkpt><trkpt lat="37.9866567" lon="13.6562293"><ele>115.0</ele><time>2026-04-26T07:19:25.325Z</time></trkpt><trkpt lat="37.9864308" lon="13.6564142"><ele>115.0</ele><time>2026-04-26T07:19:26.325Z</time></trkpt><trkpt lat="37.9862135" lon="13.6566"><ele>115.0</ele><time>2026-04-26T07:19:27.325Z</time></trkpt><trkpt lat="37.9859995" lon="13.6567883"><ele>117.5</ele><time>2026-04-26T07:19:28.325Z</time></trkpt><trkpt lat="37.9857927" lon="13.6569868"><ele>120.0</ele><time>2026-04-26T07:19:29.325Z</time></trkpt><trkpt lat="37.9855884" lon="13.657194"><ele>120.0</ele><time>2026-04-26T07:19:30.325Z</time></trkpt><trkpt lat="37.985387" lon="13.6574149"><ele>120.0</ele><time>2026-04-26T07:19:31.325Z</time></trkpt><trkpt lat="37.9851931" lon="13.6576435"><ele>125.0</ele><time>2026-04-26T07:19:32.325Z</time></trkpt><trkpt lat="37.9850059" lon="13.65788"><ele>130.0</ele><time>2026-04-26T07:19:33.325Z</time></trkpt><trkpt lat="37.9848216" lon="13.6581295"><ele>130.0</ele><time>2026-04-26T07:19:34.325Z</time></trkpt><trkpt lat="37.9846416" lon="13.658378"><ele>130.0</ele><time>2026-04-26T07:19:35.325Z</time></trkpt><trkpt lat="37.9844677" lon="13.6586369"><ele>128.5</ele><time>2026-04-26T07:19:36.325Z</time></trkpt><trkpt lat="37.9843036" lon="13.6589036"><ele>127.0</ele><time>2026-04-26T07:19:37.325Z</time></trkpt><trkpt lat="37.9841427" lon="13.659173"><ele>130.0</ele><time>2026-04-26T07:19:38.325Z</time></trkpt><trkpt lat="37.9839883" lon="13.6594447"><ele>133.0</ele><time>2026-04-26T07:19:39.325Z</time></trkpt><trkpt lat="37.9838366" lon="13.6597275"><ele>133.0</ele><time>2026-04-26T07:19:40.325Z</time></trkpt><trkpt lat="37.983697" lon="13.6600132"><ele>133.0</ele><time>2026-04-26T07:19:41.325Z</time></trkpt><trkpt lat="37.9835684" lon="13.660299"><ele>129.0</ele><time>2026-04-26T07:19:42.325Z</time></trkpt><trkpt lat="37.983452" lon="13.6605872"><ele>125.0</ele><time>2026-04-26T07:19:43.325Z</time></trkpt><trkpt lat="37.983326" lon="13.6608773"><ele>131.5</ele><time>2026-04-26T07:19:44.325Z</time></trkpt><trkpt lat="37.9832102" lon="13.6611722"><ele>138.0</ele><time>2026-04-26T07:19:45.325Z</time></trkpt><trkpt lat="37.9830961" lon="13.6615006"><ele>138.0</ele><time>2026-04-26T07:19:46.325Z</time></trkpt><trkpt lat="37.9829961" lon="13.6617983"><ele>138.0</ele><time>2026-04-26T07:19:47.325Z</time></trkpt><trkpt lat="37.9828984" lon="13.6621412"><ele>134.5</ele><time>2026-04-26T07:19:48.325Z</time></trkpt><trkpt lat="37.9828431" lon="13.6624399"><ele>131.0</ele><time>2026-04-26T07:19:49.325Z</time></trkpt><trkpt lat="37.9827939" lon="13.6627728"><ele>128.0</ele><time>2026-04-26T07:19:50.325Z</time></trkpt><trkpt lat="37.9827288" lon="13.6631088"><ele>125.0</ele><time>2026-04-26T07:19:51.325Z</time></trkpt><trkpt lat="37.9826599" lon="13.6634337"><ele>124.0</ele><time>2026-04-26T07:19:52.325Z</time></trkpt><trkpt lat="37.9825894" lon="13.6637628"><ele>123.0</ele><time>2026-04-26T07:19:53.325Z</time></trkpt><trkpt lat="37.9825178" lon="13.6640838"><ele>126.5</ele><time>2026-04-26T07:19:54.325Z</time></trkpt><trkpt lat="37.9824493" lon="13.6643979"><ele>130.0</ele><time>2026-04-26T07:19:55.325Z</time></trkpt><trkpt lat="37.9823809" lon="13.6647079"><ele>130.0</ele><time>2026-04-26T07:19:56.325Z</time></trkpt><trkpt lat="37.9823094" lon="13.6650157"><ele>130.0</ele><time>2026-04-26T07:19:57.325Z</time></trkpt><trkpt lat="37.9822366" lon="13.6653291"><ele>128.0</ele><time>2026-04-26T07:19:58.325Z</time></trkpt><trkpt lat="37.9821612" lon="13.6656506"><ele>126.0</ele><time>2026-04-26T07:19:59.325Z</time></trkpt><trkpt lat="37.9820833" lon="13.6659704"><ele>125.0</ele><time>2026-04-26T07:20:00.325Z</time></trkpt><trkpt lat="37.982" lon="13.6663034"><ele>124.0</ele><time>2026-04-26T07:20:01.325Z</time></trkpt><trkpt lat="37.9819038" lon="13.666633"><ele>124.0</ele><time>2026-04-26T07:20:02.325Z</time></trkpt><trkpt lat="37.9818012" lon="13.6669597"><ele>124.0</ele><time>2026-04-26T07:20:03.325Z</time></trkpt><trkpt lat="37.9816985" lon="13.6672856"><ele>124.5</ele><time>2026-04-26T07:20:04.325Z</time></trkpt><trkpt lat="37.9815874" lon="13.667602"><ele>125.0</ele><time>2026-04-26T07:20:05.325Z</time></trkpt><trkpt lat="37.9814718" lon="13.6679092"><ele>125.0</ele><time>2026-04-26T07:20:06.325Z</time></trkpt><trkpt lat="37.9813477" lon="13.6682066"><ele>125.0</ele><time>2026-04-26T07:20:07.324Z</time></trkpt><trkpt lat="37.9812185" lon="13.6685021"><ele>118.5</ele><time>2026-04-26T07:20:08.325Z</time></trkpt><trkpt lat="37.9810918" lon="13.6687929"><ele>112.0</ele><time>2026-04-26T07:20:09.325Z</time></trkpt><trkpt lat="37.9809645" lon="13.6690816"><ele>116.0</ele><time>2026-04-26T07:20:10.324Z</time></trkpt><trkpt lat="37.9808362" lon="13.6693657"><ele>120.0</ele><time>2026-04-26T07:20:11.325Z</time></trkpt><trkpt lat="37.9807032" lon="13.6696507"><ele>108.5</ele><time>2026-04-26T07:20:12.325Z</time></trkpt><trkpt lat="37.9805715" lon="13.6699376"><ele>97.0</ele><time>2026-04-26T07:20:13.325Z</time></trkpt><trkpt lat="37.9804398" lon="13.6702232"><ele>87.5</ele><time>2026-04-26T07:20:14.325Z</time></trkpt><trkpt lat="37.9803082" lon="13.6705117"><ele>78.0</ele><time>2026-04-26T07:20:15.325Z</time></trkpt><trkpt lat="37.980174" lon="13.6707915"><ele>78.0</ele><time>2026-04-26T07:20:16.325Z</time></trkpt><trkpt lat="37.9800447" lon="13.6710743"><ele>78.0</ele><time>2026-04-26T07:20:17.325Z</time></trkpt><trkpt lat="37.9799149" lon="13.6713631"><ele>79.0</ele><time>2026-04-26T07:20:18.325Z</time></trkpt><trkpt lat="37.9797876" lon="13.6716495"><ele>80.0</ele><time>2026-04-26T07:20:19.325Z</time></trkpt><trkpt lat="37.9796546" lon="13.6719391"><ele>60.0</ele><time>2026-04-26T07:20:20.325Z</time></trkpt><trkpt lat="37.9795239" lon="13.6722272"><ele>40.0</ele><time>2026-04-26T07:20:21.325Z</time></trkpt><trkpt lat="37.9793905" lon="13.6725124"><ele>34.5</ele><time>2026-04-26T07:20:22.324Z</time></trkpt><trkpt lat="37.9792608" lon="13.672799"><ele>29.0</ele><time>2026-04-26T07:20:23.325Z</time></trkpt><trkpt lat="37.9791323" lon="13.6730796"><ele>46.0</ele><time>2026-04-26T07:20:24.325Z</time></trkpt><trkpt lat="37.9790022" lon="13.6733509"><ele>63.0</ele><time>2026-04-26T07:20:25.325Z</time></trkpt><trkpt lat="37.978875" lon="13.6736264"><ele>75.0</ele><time>2026-04-26T07:20:26.325Z</time></trkpt><trkpt lat="37.9787478" lon="13.6739068"><ele>87.0</ele><time>2026-04-26T07:20:27.325Z</time></trkpt><trkpt lat="37.9786219" lon="13.6741852"><ele>91.0</ele><time>2026-04-26T07:20:28.325Z</time></trkpt><trkpt lat="37.9784977" lon="13.6744605"><ele>95.0</ele><time>2026-04-26T07:20:29.325Z</time></trkpt><trkpt lat="37.9783699" lon="13.6747413"><ele>93.5</ele><time>2026-04-26T07:20:30.325Z</time></trkpt><trkpt lat="37.9782396" lon="13.6750249"><ele>92.0</ele><time>2026-04-26T07:20:31.325Z</time></trkpt><trkpt lat="37.9781112" lon="13.6753105"><ele>92.0</ele><time>2026-04-26T07:20:32.325Z</time></trkpt><trkpt lat="37.9779815" lon="13.6755962"><ele>92.0</ele><time>2026-04-26T07:20:33.325Z</time></trkpt><trkpt lat="37.9778483" lon="13.6758815"><ele>88.5</ele><time>2026-04-26T07:20:34.325Z</time></trkpt><trkpt lat="37.9777172" lon="13.6761715"><ele>85.0</ele><time>2026-04-26T07:20:35.325Z</time></trkpt><trkpt lat="37.9775873" lon="13.6764615"><ele>92.0</ele><time>2026-04-26T07:20:36.325Z</time></trkpt><trkpt lat="37.9774539" lon="13.6767532"><ele>99.0</ele><time>2026-04-26T07:20:37.325Z</time></trkpt><trkpt lat="37.9773219" lon="13.6770386"><ele>99.0</ele><time>2026-04-26T07:20:38.325Z</time></trkpt><trkpt lat="37.9771962" lon="13.6773154"><ele>99.0</ele><time>2026-04-26T07:20:39.325Z</time></trkpt><trkpt lat="37.9770742" lon="13.6775857"><ele>92.5</ele><time>2026-04-26T07:20:40.325Z</time></trkpt><trkpt lat="37.9769498" lon="13.6778582"><ele>86.0</ele><time>2026-04-26T07:20:41.325Z</time></trkpt><trkpt lat="37.9768298" lon="13.6781277"><ele>86.0</ele><time>2026-04-26T07:20:42.325Z</time></trkpt><trkpt lat="37.9767041" lon="13.6783968"><ele>86.0</ele><time>2026-04-26T07:20:43.325Z</time></trkpt><trkpt lat="37.9765831" lon="13.678662"><ele>85.5</ele><time>2026-04-26T07:20:44.325Z</time></trkpt><trkpt lat="37.9764587" lon="13.6789295"><ele>85.0</ele><time>2026-04-26T07:20:45.325Z</time></trkpt><trkpt lat="37.9763307" lon="13.6791998"><ele>78.0</ele><time>2026-04-26T07:20:46.325Z</time></trkpt><trkpt lat="37.9762036" lon="13.6794742"><ele>71.0</ele><time>2026-04-26T07:20:47.325Z</time></trkpt><trkpt lat="37.9760782" lon="13.679749"><ele>71.0</ele><time>2026-04-26T07:20:48.325Z</time></trkpt><trkpt lat="37.9759512" lon="13.680028"><ele>71.0</ele><time>2026-04-26T07:20:49.325Z</time></trkpt><trkpt lat="37.9758182" lon="13.6803112"><ele>80.5</ele><time>2026-04-26T07:20:50.324Z</time></trkpt><trkpt lat="37.9756872" lon="13.6805919"><ele>90.0</ele><time>2026-04-26T07:20:51.325Z</time></trkpt><trkpt lat="37.9755602" lon="13.6808726"><ele>86.5</ele><time>2026-04-26T07:20:52.325Z</time></trkpt><trkpt lat="37.975436" lon="13.6811598"><ele>83.0</ele><time>2026-04-26T07:20:53.325Z</time></trkpt><trkpt lat="37.9753134" lon="13.6814411"><ele>83.0</ele><time>2026-04-26T07:20:54.324Z</time></trkpt><trkpt lat="37.9751956" lon="13.6817232"><ele>83.0</ele><time>2026-04-26T07:20:55.325Z</time></trkpt><trkpt lat="37.9750786" lon="13.6820042"><ele>92.0</ele><time>2026-04-26T07:20:56.325Z</time></trkpt><trkpt lat="37.9749693" lon="13.6822826"><ele>101.0</ele><time>2026-04-26T07:20:57.324Z</time></trkpt><trkpt lat="37.9748589" lon="13.6825569"><ele>102.0</ele><time>2026-04-26T07:20:58.325Z</time></trkpt><trkpt lat="37.9747542" lon="13.6828145"><ele>103.0</ele><time>2026-04-26T07:20:59.325Z</time></trkpt><trkpt lat="37.9746494" lon="13.683072"><ele>103.0</ele><time>2026-04-26T07:21:00.325Z</time></trkpt><trkpt lat="37.9745439" lon="13.6833326"><ele>103.0</ele><time>2026-04-26T07:21:01.325Z</time></trkpt><trkpt lat="37.9744415" lon="13.6835964"><ele>102.0</ele><time>2026-04-26T07:21:02.325Z</time></trkpt><trkpt lat="37.9743545" lon="13.6838481"><ele>101.0</ele><time>2026-04-26T07:21:03.325Z</time></trkpt><trkpt lat="37.9742782" lon="13.6841065"><ele>100.0</ele><time>2026-04-26T07:21:04.325Z</time></trkpt><trkpt lat="37.9742038" lon="13.6843561"><ele>101.5</ele><time>2026-04-26T07:21:05.325Z</time></trkpt><trkpt lat="37.9741344" lon="13.6845965"><ele>103.0</ele><time>2026-04-26T07:21:06.324Z</time></trkpt><trkpt lat="37.9737616" lon="13.6859769"><ele>93.33333333333334</ele><time>2026-04-26T07:21:12.325Z</time></trkpt><trkpt lat="37.9737135" lon="13.6862315"><ele>83.66666666666667</ele><time>2026-04-26T07:21:13.325Z</time></trkpt><trkpt lat="37.9736805" lon="13.6864203"><ele>74.0</ele><time>2026-04-26T07:21:14.325Z</time></trkpt><trkpt lat="37.97364" lon="13.6866062"><ele>74.0</ele><time>2026-04-26T07:21:15.325Z</time></trkpt><trkpt lat="37.9736078" lon="13.6867894"><ele>74.0</ele><time>2026-04-26T07:21:16.325Z</time></trkpt><trkpt lat="37.9735824" lon="13.6869777"><ele>74.0</ele><time>2026-04-26T07:21:17.325Z</time></trkpt><trkpt lat="37.9735558" lon="13.6871543"><ele>74.0</ele><time>2026-04-26T07:21:18.325Z</time></trkpt><trkpt lat="37.9735287" lon="13.6873457"><ele>72.25</ele><time>2026-04-26T07:21:19.325Z</time></trkpt><trkpt lat="37.9735079" lon="13.6875158"><ele>70.5</ele><time>2026-04-26T07:21:20.325Z</time></trkpt><trkpt lat="37.9734897" lon="13.6876695"><ele>68.75</ele><time>2026-04-26T07:21:21.325Z</time></trkpt><trkpt lat="37.9734561" lon="13.6878055"><ele>67.0</ele><time>2026-04-26T07:21:22.325Z</time></trkpt><trkpt lat="37.9734117" lon="13.6879076"><ele>69.2</ele><time>2026-04-26T07:21:23.325Z</time></trkpt><trkpt lat="37.9733487" lon="13.6879838"><ele>71.4</ele><time>2026-04-26T07:21:24.325Z</time></trkpt><trkpt lat="37.973269" lon="13.6880329"><ele>73.6</ele><time>2026-04-26T07:21:25.325Z</time></trkpt><trkpt lat="37.973171" lon="13.6880549"><ele>75.8</ele><time>2026-04-26T07:21:26.325Z</time></trkpt><trkpt lat="37.9730595" lon="13.6880411"><ele>78.0</ele><time>2026-04-26T07:21:27.325Z</time></trkpt><trkpt lat="37.9729434" lon="13.6879894"><ele>78.0</ele><time>2026-04-26T07:21:28.324Z</time></trkpt><trkpt lat="37.9728254" lon="13.6879012"><ele>78.0</ele><time>2026-04-26T07:21:29.325Z</time></trkpt><trkpt lat="37.9727149" lon="13.6877916"><ele>78.0</ele><time>2026-04-26T07:21:30.325Z</time></trkpt><trkpt lat="37.9726105" lon="13.6876621"><ele>78.0</ele><time>2026-04-26T07:21:31.325Z</time></trkpt><trkpt lat="37.972512" lon="13.6875176"><ele>78.75</ele><time>2026-04-26T07:21:32.325Z</time></trkpt><trkpt lat="37.9724233" lon="13.6873811"><ele>79.5</ele><time>2026-04-26T07:21:33.325Z</time></trkpt><trkpt lat="37.9723452" lon="13.6872738"><ele>80.25</ele><time>2026-04-26T07:21:34.325Z</time></trkpt><trkpt lat="37.9722774" lon="13.6871792"><ele>81.0</ele><time>2026-04-26T07:21:35.325Z</time></trkpt><trkpt lat="37.972207" lon="13.6870713"><ele>81.0</ele><time>2026-04-26T07:21:36.325Z</time></trkpt><trkpt lat="37.9721456" lon="13.6869519"><ele>81.0</ele><time>2026-04-26T07:21:37.325Z</time></trkpt><trkpt lat="37.9721" lon="13.6868154"><ele>81.0</ele><time>2026-04-26T07:21:38.325Z</time></trkpt><trkpt lat="37.9720722" lon="13.6866559"><ele>81.0</ele><time>2026-04-26T07:21:39.325Z</time></trkpt><trkpt lat="37.9720636" lon="13.686491"><ele>80.0</ele><time>2026-04-26T07:21:40.324Z</time></trkpt><trkpt lat="37.9720747" lon="13.6863126"><ele>79.0</ele><time>2026-04-26T07:21:41.324Z</time></trkpt><trkpt lat="37.9721066" lon="13.6861456"><ele>78.0</ele><time>2026-04-26T07:21:42.324Z</time></trkpt><trkpt lat="37.972162" lon="13.685989"><ele>77.0</ele><time>2026-04-26T07:21:43.324Z</time></trkpt><trkpt lat="37.9722385" lon="13.6858503"><ele>77.0</ele><time>2026-04-26T07:21:44.323Z</time></trkpt><trkpt lat="37.9723326" lon="13.685727"><ele>77.0</ele><time>2026-04-26T07:21:45.324Z</time></trkpt><trkpt lat="37.9724465" lon="13.685619"><ele>77.0</ele><time>2026-04-26T07:21:46.324Z</time></trkpt><trkpt lat="37.9725743" lon="13.6855334"><ele>77.0</ele><time>2026-04-26T07:21:47.324Z</time></trkpt><trkpt lat="37.9727198" lon="13.6854805"><ele>78.33333333333334</ele><time>2026-04-26T07:21:48.324Z</time></trkpt><trkpt lat="37.9728697" lon="13.6854601"><ele>79.66666666666667</ele><time>2026-04-26T07:21:49.324Z</time></trkpt><trkpt lat="37.9730298" lon="13.6854843"><ele>81.0</ele><time>2026-04-26T07:21:50.324Z</time></trkpt><trkpt lat="37.9731914" lon="13.6855297"><ele>81.0</ele><time>2026-04-26T07:21:51.324Z</time></trkpt><trkpt lat="37.9733458" lon="13.6855933"><ele>81.0</ele><time>2026-04-26T07:21:52.324Z</time></trkpt><trkpt lat="37.9735017" lon="13.6856483"><ele>81.0</ele><time>2026-04-26T07:21:53.323Z</time></trkpt><trkpt lat="37.9736609" lon="13.6857039"><ele>84.0</ele><time>2026-04-26T07:21:54.324Z</time></trkpt><trkpt lat="37.9738185" lon="13.6857517"><ele>87.0</ele><time>2026-04-26T07:21:55.324Z</time></trkpt><trkpt lat="37.9739756" lon="13.6857957"><ele>90.0</ele><time>2026-04-26T07:21:56.324Z</time></trkpt><trkpt lat="37.9741201" lon="13.685842"><ele>91.0</ele><time>2026-04-26T07:21:57.324Z</time></trkpt><trkpt lat="37.9742478" lon="13.685893"><ele>92.0</ele><time>2026-04-26T07:21:58.324Z</time></trkpt><trkpt lat="37.9743658" lon="13.6859479"><ele>93.0</ele><time>2026-04-26T07:21:59.323Z</time></trkpt><trkpt lat="37.9744751" lon="13.6860028"><ele>94.0</ele><time>2026-04-26T07:22:00.324Z</time></trkpt><trkpt lat="37.9745804" lon="13.6860687"><ele>93.25</ele><time>2026-04-26T07:22:01.324Z</time></trkpt><trkpt lat="37.9746804" lon="13.6861458"><ele>92.5</ele><time>2026-04-26T07:22:02.324Z</time></trkpt><trkpt lat="37.9747693" lon="13.6862368"><ele>91.75</ele><time>2026-04-26T07:22:03.324Z</time></trkpt><trkpt lat="37.9748572" lon="13.6863329"><ele>91.0</ele><time>2026-04-26T07:22:04.324Z</time></trkpt><trkpt lat="37.9749478" lon="13.6864351"><ele>93.6</ele><time>2026-04-26T07:22:05.324Z</time></trkpt><trkpt lat="37.9750388" lon="13.6865293"><ele>96.19999999999999</ele><time>2026-04-26T07:22:06.324Z</time></trkpt><trkpt lat="37.975123" lon="13.686612"><ele>98.80000000000001</ele><time>2026-04-26T07:22:07.324Z</time></trkpt><trkpt lat="37.9752012" lon="13.6866853"><ele>101.4</ele><time>2026-04-26T07:22:08.324Z</time></trkpt><trkpt lat="37.9752811" lon="13.6867483"><ele>104.0</ele><time>2026-04-26T07:22:09.324Z</time></trkpt><trkpt lat="37.9753589" lon="13.6867876"><ele>103.99999999999999</ele><time>2026-04-26T07:22:10.323Z</time></trkpt><trkpt lat="37.9754324" lon="13.6867943"><ele>104.0</ele><time>2026-04-26T07:22:11.324Z</time></trkpt><trkpt lat="37.9755377" lon="13.6867672"><ele>104.0</ele><time>2026-04-26T07:22:13.324Z</time></trkpt><trkpt lat="37.9755923" lon="13.6867217"><ele>104.0</ele><time>2026-04-26T07:22:15.324Z</time></trkpt><trkpt lat="37.9756398" lon="13.6866516"><ele>103.99999999999999</ele><time>2026-04-26T07:22:19.324Z</time></trkpt><trkpt lat="37.9756747" lon="13.6865635"><ele>104.0</ele><time>2026-04-26T07:22:22.324Z</time></trkpt><trkpt lat="37.9756514" lon="13.6864427"><ele>104.0</ele><time>2026-04-26T07:22:24.324Z</time></trkpt><trkpt lat="37.9756295" lon="13.6863621"><ele>104.0</ele><time>2026-04-26T07:22:25.324Z</time></trkpt><trkpt lat="37.9755943" lon="13.6862476"><ele>104.0</ele><time>2026-04-26T07:22:26.323Z</time></trkpt><trkpt lat="37.9755537" lon="13.6861157"><ele>104.0</ele><time>2026-04-26T07:22:27.324Z</time></trkpt><trkpt lat="37.9755103" lon="13.6859552"><ele>104.0</ele><time>2026-04-26T07:22:28.324Z</time></trkpt><trkpt lat="37.9754625" lon="13.6857787"><ele>105.0</ele><time>2026-04-26T07:22:29.324Z</time></trkpt><trkpt lat="37.9754101" lon="13.6855817"><ele>106.0</ele><time>2026-04-26T07:22:30.324Z</time></trkpt><trkpt lat="37.9753525" lon="13.6853821"><ele>107.0</ele><time>2026-04-26T07:22:31.324Z</time></trkpt><trkpt lat="37.975293" lon="13.685183"><ele>103.66666666666666</ele><time>2026-04-26T07:22:32.324Z</time></trkpt><trkpt lat="37.9752333" lon="13.6849694"><ele>100.33333333333334</ele><time>2026-04-26T07:22:33.324Z</time></trkpt><trkpt lat="37.9751691" lon="13.6847451"><ele>97.0</ele><time>2026-04-26T07:22:34.324Z</time></trkpt><trkpt lat="37.9751045" lon="13.6845156"><ele>98.0</ele><time>2026-04-26T07:22:35.324Z</time></trkpt><trkpt lat="37.9750393" lon="13.68428"><ele>99.0</ele><time>2026-04-26T07:22:36.324Z</time></trkpt><trkpt lat="37.9749682" lon="13.6840442"><ele>100.0</ele><time>2026-04-26T07:22:37.324Z</time></trkpt><trkpt lat="37.9748979" lon="13.6838072"><ele>101.0</ele><time>2026-04-26T07:22:38.324Z</time></trkpt><trkpt lat="37.9748306" lon="13.6835635"><ele>102.0</ele><time>2026-04-26T07:22:39.324Z</time></trkpt><trkpt lat="37.9747572" lon="13.6833218"><ele>103.0</ele><time>2026-04-26T07:22:40.324Z</time></trkpt><trkpt lat="37.9746811" lon="13.6830696"><ele>103.0</ele><time>2026-04-26T07:22:41.323Z</time></trkpt><trkpt lat="37.9746079" lon="13.6828286"><ele>103.0</ele><time>2026-04-26T07:22:42.324Z</time></trkpt><trkpt lat="37.9745414" lon="13.6826001"><ele>103.0</ele><time>2026-04-26T07:22:43.324Z</time></trkpt><trkpt lat="37.9744855" lon="13.6824032"><ele>103.0</ele><time>2026-04-26T07:22:44.324Z</time></trkpt><trkpt lat="37.9744472" lon="13.6822172"><ele>103.0</ele><time>2026-04-26T07:22:45.324Z</time></trkpt><trkpt lat="37.9744288" lon="13.682025"><ele>103.0</ele><time>2026-04-26T07:22:46.324Z</time></trkpt><trkpt lat="37.9744455" lon="13.6818136"><ele>103.0</ele><time>2026-04-26T07:22:47.324Z</time></trkpt><trkpt lat="37.9744786" lon="13.6815985"><ele>103.0</ele><time>2026-04-26T07:22:48.324Z</time></trkpt><trkpt lat="37.9745396" lon="13.6814071"><ele>103.0</ele><time>2026-04-26T07:22:49.324Z</time></trkpt><trkpt lat="37.9746198" lon="13.6812683"><ele>103.0</ele><time>2026-04-26T07:22:50.324Z</time></trkpt><trkpt lat="37.974705" lon="13.6811403"><ele>103.0</ele><time>2026-04-26T07:22:51.324Z</time></trkpt><trkpt lat="37.9747753" lon="13.6810093"><ele>103.0</ele><time>2026-04-26T07:22:52.324Z</time></trkpt><trkpt lat="37.974795" lon="13.6808707"><ele>103.0</ele><time>2026-04-26T07:22:53.324Z</time></trkpt><trkpt lat="37.9747813" lon="13.6807324"><ele>104.75</ele><time>2026-04-26T07:22:54.324Z</time></trkpt><trkpt lat="37.9747195" lon="13.6805867"><ele>106.5</ele><time>2026-04-26T07:22:55.324Z</time></trkpt><trkpt lat="37.9746356" lon="13.6804456"><ele>108.25</ele><time>2026-04-26T07:22:56.324Z</time></trkpt><trkpt lat="37.9745417" lon="13.680304"><ele>110.0</ele><time>2026-04-26T07:22:57.324Z</time></trkpt><trkpt lat="37.9744487" lon="13.6801548"><ele>110.0</ele><time>2026-04-26T07:22:58.324Z</time></trkpt><trkpt lat="37.9743577" lon="13.6800043"><ele>110.0</ele><time>2026-04-26T07:22:59.323Z</time></trkpt><trkpt lat="37.9742876" lon="13.6798599"><ele>110.0</ele><time>2026-04-26T07:23:00.324Z</time></trkpt><trkpt lat="37.9742515" lon="13.6797136"><ele>110.0</ele><time>2026-04-26T07:23:01.324Z</time></trkpt><trkpt lat="37.974257" lon="13.6795759"><ele>109.99999999999999</ele><time>2026-04-26T07:23:02.324Z</time></trkpt><trkpt lat="37.974286" lon="13.6794537"><ele>110.0</ele><time>2026-04-26T07:23:03.324Z</time></trkpt><trkpt lat="37.9743071" lon="13.6793505"><ele>110.0</ele><time>2026-04-26T07:23:04.323Z</time></trkpt><trkpt lat="37.974249" lon="13.6792403"><ele>110.0</ele><time>2026-04-26T07:23:06.324Z</time></trkpt><trkpt lat="37.9741842" lon="13.6792528"><ele>109.99999999999999</ele><time>2026-04-26T07:23:07.324Z</time></trkpt><trkpt lat="37.9741184" lon="13.6793267"><ele>110.0</ele><time>2026-04-26T07:23:08.324Z</time></trkpt><trkpt lat="37.9740547" lon="13.6794573"><ele>113.75</ele><time>2026-04-26T07:23:09.324Z</time></trkpt><trkpt lat="37.9740118" lon="13.6795967"><ele>117.5</ele><time>2026-04-26T07:23:10.324Z</time></trkpt><trkpt lat="37.9739871" lon="13.6797402"><ele>121.25</ele><time>2026-04-26T07:23:11.324Z</time></trkpt><trkpt lat="37.9739929" lon="13.6798857"><ele>125.0</ele><time>2026-04-26T07:23:12.324Z</time></trkpt><trkpt lat="37.9740179" lon="13.6800308"><ele>125.0</ele><time>2026-04-26T07:23:13.324Z</time></trkpt><trkpt lat="37.9740285" lon="13.6801794"><ele>125.0</ele><time>2026-04-26T07:23:14.324Z</time></trkpt><trkpt lat="37.9740012" lon="13.6803349"><ele>125.0</ele><time>2026-04-26T07:23:15.324Z</time></trkpt><trkpt lat="37.9739389" lon="13.6804959"><ele>125.0</ele><time>2026-04-26T07:23:16.324Z</time></trkpt><trkpt lat="37.9738461" lon="13.680647"><ele>125.66666666666666</ele><time>2026-04-26T07:23:17.324Z</time></trkpt><trkpt lat="37.9737415" lon="13.6808048"><ele>126.33333333333334</ele><time>2026-04-26T07:23:18.324Z</time></trkpt><trkpt lat="37.9736385" lon="13.6809903"><ele>127.0</ele><time>2026-04-26T07:23:19.324Z</time></trkpt><trkpt lat="37.9735577" lon="13.6812105"><ele>125.75</ele><time>2026-04-26T07:23:20.324Z</time></trkpt><trkpt lat="37.973515" lon="13.6814344"><ele>124.5</ele><time>2026-04-26T07:23:21.324Z</time></trkpt><trkpt lat="37.973507" lon="13.6816267"><ele>123.25</ele><time>2026-04-26T07:23:22.324Z</time></trkpt><trkpt lat="37.9734951" lon="13.6817697"><ele>122.0</ele><time>2026-04-26T07:23:23.324Z</time></trkpt><trkpt lat="37.9734691" lon="13.6818707"><ele>122.0</ele><time>2026-04-26T07:23:24.324Z</time></trkpt><trkpt lat="37.9733894" lon="13.6819064"><ele>121.99999999999999</ele><time>2026-04-26T07:23:26.324Z</time></trkpt><trkpt lat="37.9733357" lon="13.6817684"><ele>121.99999999999999</ele><time>2026-04-26T07:23:28.324Z</time></trkpt><trkpt lat="37.9733179" lon="13.6816412"><ele>122.0</ele><time>2026-04-26T07:23:29.324Z</time></trkpt><trkpt lat="37.9732963" lon="13.68149"><ele>122.0</ele><time>2026-04-26T07:23:30.323Z</time></trkpt><trkpt lat="37.973262" lon="13.6813129"><ele>127.66666666666666</ele><time>2026-04-26T07:23:31.324Z</time></trkpt><trkpt lat="37.9732358" lon="13.6811104"><ele>133.33333333333334</ele><time>2026-04-26T07:23:32.324Z</time></trkpt><trkpt lat="37.9732306" lon="13.6808903"><ele>139.0</ele><time>2026-04-26T07:23:33.324Z</time></trkpt><trkpt lat="37.9732561" lon="13.6806769"><ele>139.66666666666669</ele><time>2026-04-26T07:23:34.323Z</time></trkpt><trkpt lat="37.9733056" lon="13.6804637"><ele>140.33333333333334</ele><time>2026-04-26T07:23:35.324Z</time></trkpt><trkpt lat="37.9733537" lon="13.6802451"><ele>141.0</ele><time>2026-04-26T07:23:36.323Z</time></trkpt><trkpt lat="37.9733911" lon="13.6800201"><ele>136.33333333333334</ele><time>2026-04-26T07:23:37.323Z</time></trkpt><trkpt lat="37.9734027" lon="13.6797827"><ele>131.66666666666669</ele><time>2026-04-26T07:23:38.324Z</time></trkpt><trkpt lat="37.9733935" lon="13.67956"><ele>127.0</ele><time>2026-04-26T07:23:39.324Z</time></trkpt><trkpt lat="37.9733732" lon="13.679363"><ele>133.25</ele><time>2026-04-26T07:23:40.324Z</time></trkpt><trkpt lat="37.9733277" lon="13.6791735"><ele>139.5</ele><time>2026-04-26T07:23:41.324Z</time></trkpt><trkpt lat="37.9732727" lon="13.6789947"><ele>145.75</ele><time>2026-04-26T07:23:42.324Z</time></trkpt><trkpt lat="37.9732401" lon="13.678831"><ele>152.0</ele><time>2026-04-26T07:23:43.324Z</time></trkpt><trkpt lat="37.9732389" lon="13.678669"><ele>150.25</ele><time>2026-04-26T07:23:44.324Z</time></trkpt><trkpt lat="37.9732779" lon="13.6785216"><ele>148.5</ele><time>2026-04-26T07:23:45.324Z</time></trkpt><trkpt lat="37.9733544" lon="13.678402"><ele>146.75</ele><time>2026-04-26T07:23:46.324Z</time></trkpt><trkpt lat="37.9734693" lon="13.678299"><ele>145.0</ele><time>2026-04-26T07:23:47.324Z</time></trkpt><trkpt lat="37.9735955" lon="13.6781988"><ele>145.0</ele><time>2026-04-26T07:23:48.324Z</time></trkpt><trkpt lat="37.9737179" lon="13.6781049"><ele>145.0</ele><time>2026-04-26T07:23:49.324Z</time></trkpt><trkpt lat="37.9738396" lon="13.6780314"><ele>145.0</ele><time>2026-04-26T07:23:50.324Z</time></trkpt><trkpt lat="37.9739734" lon="13.6779893"><ele>145.0</ele><time>2026-04-26T07:23:51.324Z</time></trkpt><trkpt lat="37.9741181" lon="13.6779808"><ele>137.66666666666669</ele><time>2026-04-26T07:23:52.324Z</time></trkpt><trkpt lat="37.974266" lon="13.6779737"><ele>130.33333333333334</ele><time>2026-04-26T07:23:53.324Z</time></trkpt><trkpt lat="37.9744215" lon="13.6779291"><ele>123.0</ele><time>2026-04-26T07:23:54.324Z</time></trkpt><trkpt lat="37.9745626" lon="13.6778369"><ele>134.33333333333334</ele><time>2026-04-26T07:23:55.323Z</time></trkpt><trkpt lat="37.9746951" lon="13.6777007"><ele>145.66666666666669</ele><time>2026-04-26T07:23:56.324Z</time></trkpt><trkpt lat="37.9748232" lon="13.6775405"><ele>157.0</ele><time>2026-04-26T07:23:57.324Z</time></trkpt><trkpt lat="37.9749433" lon="13.6773612"><ele>156.66666666666669</ele><time>2026-04-26T07:23:58.323Z</time></trkpt><trkpt lat="37.9750714" lon="13.6771936"><ele>156.33333333333334</ele><time>2026-04-26T07:23:59.324Z</time></trkpt><trkpt lat="37.9751944" lon="13.6770372"><ele>156.0</ele><time>2026-04-26T07:24:00.324Z</time></trkpt><trkpt lat="37.9753043" lon="13.6769019"><ele>156.0</ele><time>2026-04-26T07:24:01.324Z</time></trkpt><trkpt lat="37.9753832" lon="13.67675"><ele>156.0</ele><time>2026-04-26T07:24:02.324Z</time></trkpt><trkpt lat="37.9754318" lon="13.6765715"><ele>156.0</ele><time>2026-04-26T07:24:03.324Z</time></trkpt><trkpt lat="37.9754604" lon="13.676377"><ele>156.0</ele><time>2026-04-26T07:24:04.324Z</time></trkpt><trkpt lat="37.9754966" lon="13.6761827"><ele>157.5</ele><time>2026-04-26T07:24:05.324Z</time></trkpt><trkpt lat="37.9755638" lon="13.6760078"><ele>159.0</ele><time>2026-04-26T07:24:06.324Z</time></trkpt><trkpt lat="37.9756471" lon="13.6758617"><ele>160.5</ele><time>2026-04-26T07:24:07.324Z</time></trkpt><trkpt lat="37.9757434" lon="13.6757268"><ele>162.0</ele><time>2026-04-26T07:24:08.324Z</time></trkpt><trkpt lat="37.9758544" lon="13.6756134"><ele>162.0</ele><time>2026-04-26T07:24:09.324Z</time></trkpt><trkpt lat="37.975974" lon="13.6755142"><ele>162.0</ele><time>2026-04-26T07:24:10.324Z</time></trkpt><trkpt lat="37.9760952" lon="13.6754298"><ele>162.0</ele><time>2026-04-26T07:24:11.324Z</time></trkpt><trkpt lat="37.9762217" lon="13.6753733"><ele>162.0</ele><time>2026-04-26T07:24:12.323Z</time></trkpt><trkpt lat="37.9763527" lon="13.6753484"><ele>162.0</ele><time>2026-04-26T07:24:13.324Z</time></trkpt><trkpt lat="37.9764896" lon="13.6753562"><ele>162.0</ele><time>2026-04-26T07:24:14.324Z</time></trkpt><trkpt lat="37.9766066" lon="13.6753969"><ele>162.0</ele><time>2026-04-26T07:24:15.324Z</time></trkpt><trkpt lat="37.9767135" lon="13.6754235"><ele>162.0</ele><time>2026-04-26T07:24:16.324Z</time></trkpt><trkpt lat="37.9768102" lon="13.6754277"><ele>160.0</ele><time>2026-04-26T07:24:17.324Z</time></trkpt><trkpt lat="37.9769024" lon="13.6753713"><ele>158.0</ele><time>2026-04-26T07:24:18.324Z</time></trkpt><trkpt lat="37.9769736" lon="13.6752801"><ele>156.0</ele><time>2026-04-26T07:24:19.324Z</time></trkpt><trkpt lat="37.9769996" lon="13.6751583"><ele>154.0</ele><time>2026-04-26T07:24:20.324Z</time></trkpt><trkpt lat="37.9770002" lon="13.6750448"><ele>152.0</ele><time>2026-04-26T07:24:21.324Z</time></trkpt><trkpt lat="37.9769626" lon="13.6749537"><ele>152.0</ele><time>2026-04-26T07:24:22.324Z</time></trkpt><trkpt lat="37.9769032" lon="13.6748506"><ele>152.0</ele><time>2026-04-26T07:24:23.323Z</time></trkpt><trkpt lat="37.9768332" lon="13.6747568"><ele>152.0</ele><time>2026-04-26T07:24:24.324Z</time></trkpt><trkpt lat="37.976753" lon="13.6746672"><ele>152.0</ele><time>2026-04-26T07:24:25.324Z</time></trkpt><trkpt lat="37.9766561" lon="13.6745933"><ele>152.0</ele><time>2026-04-26T07:24:26.324Z</time></trkpt><trkpt lat="37.9765523" lon="13.6745465"><ele>158.5</ele><time>2026-04-26T07:24:27.324Z</time></trkpt><trkpt lat="37.9764329" lon="13.6745126"><ele>165.0</ele><time>2026-04-26T07:24:28.324Z</time></trkpt><trkpt lat="37.976303" lon="13.674502"><ele>171.5</ele><time>2026-04-26T07:24:29.324Z</time></trkpt><trkpt lat="37.9761661" lon="13.6745248"><ele>178.0</ele><time>2026-04-26T07:24:30.324Z</time></trkpt><trkpt lat="37.9760216" lon="13.674569"><ele>178.0</ele><time>2026-04-26T07:24:31.324Z</time></trkpt><trkpt lat="37.9758732" lon="13.6746152"><ele>178.0</ele><time>2026-04-26T07:24:32.324Z</time></trkpt><trkpt lat="37.9757295" lon="13.6746752"><ele>178.0</ele><time>2026-04-26T07:24:33.324Z</time></trkpt><trkpt lat="37.9755994" lon="13.6747162"><ele>178.0</ele><time>2026-04-26T07:24:34.324Z</time></trkpt><trkpt lat="37.9754751" lon="13.6747392"><ele>178.4</ele><time>2026-04-26T07:24:35.324Z</time></trkpt><trkpt lat="37.9753619" lon="13.6747071"><ele>178.8</ele><time>2026-04-26T07:24:36.324Z</time></trkpt><trkpt lat="37.9752646" lon="13.6746487"><ele>179.2</ele><time>2026-04-26T07:24:37.324Z</time></trkpt><trkpt lat="37.975186" lon="13.6745874"><ele>179.6</ele><time>2026-04-26T07:24:38.324Z</time></trkpt><trkpt lat="37.9751346" lon="13.6745376"><ele>180.0</ele><time>2026-04-26T07:24:39.324Z</time></trkpt><trkpt lat="37.9750562" lon="13.6744789"><ele>180.4</ele><time>2026-04-26T07:24:41.324Z</time></trkpt><trkpt lat="37.9749617" lon="13.6743989"><ele>180.8</ele><time>2026-04-26T07:24:43.324Z</time></trkpt><trkpt lat="37.9748564" lon="13.6743861"><ele>181.2</ele><time>2026-04-26T07:24:45.324Z</time></trkpt><trkpt lat="37.974817" lon="13.674518"><ele>181.6</ele><time>2026-04-26T07:24:47.324Z</time></trkpt><trkpt lat="37.974859" lon="13.6745965"><ele>182.0</ele><time>2026-04-26T07:24:48.324Z</time></trkpt><trkpt lat="37.9749378" lon="13.6746698"><ele>181.5</ele><time>2026-04-26T07:24:49.324Z</time></trkpt><trkpt lat="37.9750133" lon="13.6747562"><ele>181.0</ele><time>2026-04-26T07:24:50.324Z</time></trkpt><trkpt lat="37.9750739" lon="13.6748853"><ele>180.5</ele><time>2026-04-26T07:24:51.324Z</time></trkpt><trkpt lat="37.9750878" lon="13.6750252"><ele>180.0</ele><time>2026-04-26T07:24:52.324Z</time></trkpt><trkpt lat="37.9750838" lon="13.6751816"><ele>182.25</ele><time>2026-04-26T07:24:53.324Z</time></trkpt><trkpt lat="37.9750552" lon="13.6753203"><ele>184.5</ele><time>2026-04-26T07:24:54.324Z</time></trkpt><trkpt lat="37.9750068" lon="13.6754482"><ele>186.75</ele><time>2026-04-26T07:24:55.324Z</time></trkpt><trkpt lat="37.974928" lon="13.6755629"><ele>189.0</ele><time>2026-04-26T07:24:56.324Z</time></trkpt><trkpt lat="37.9748388" lon="13.6756706"><ele>189.0</ele><time>2026-04-26T07:24:57.324Z</time></trkpt><trkpt lat="37.9747527" lon="13.6757881"><ele>189.0</ele><time>2026-04-26T07:24:58.324Z</time></trkpt><trkpt lat="37.9746785" lon="13.6759186"><ele>189.0</ele><time>2026-04-26T07:24:59.324Z</time></trkpt><trkpt lat="37.9746255" lon="13.6760654"><ele>189.0</ele><time>2026-04-26T07:25:00.324Z</time></trkpt><trkpt lat="37.9745832" lon="13.6762029"><ele>187.2</ele><time>2026-04-26T07:25:01.324Z</time></trkpt><trkpt lat="37.9745405" lon="13.6763071"><ele>185.39999999999998</ele><time>2026-04-26T07:25:02.324Z</time></trkpt><trkpt lat="37.9744848" lon="13.6763905"><ele>183.6</ele><time>2026-04-26T07:25:03.324Z</time></trkpt><trkpt lat="37.9743922" lon="13.676434"><ele>181.8</ele><time>2026-04-26T07:25:04.324Z</time></trkpt><trkpt lat="37.9742836" lon="13.676443"><ele>180.0</ele><time>2026-04-26T07:25:05.324Z</time></trkpt><trkpt lat="37.9741595" lon="13.6764228"><ele>184.5</ele><time>2026-04-26T07:25:06.324Z</time></trkpt><trkpt lat="37.9740288" lon="13.6764069"><ele>189.0</ele><time>2026-04-26T07:25:07.324Z</time></trkpt><trkpt lat="37.9738849" lon="13.6764108"><ele>193.5</ele><time>2026-04-26T07:25:08.324Z</time></trkpt><trkpt lat="37.9737332" lon="13.6764411"><ele>198.0</ele><time>2026-04-26T07:25:09.324Z</time></trkpt><trkpt lat="37.973575" lon="13.6764931"><ele>198.0</ele><time>2026-04-26T07:25:10.324Z</time></trkpt><trkpt lat="37.9734047" lon="13.6765494"><ele>198.0</ele><time>2026-04-26T07:25:11.324Z</time></trkpt><trkpt lat="37.9732402" lon="13.6765917"><ele>198.0</ele><time>2026-04-26T07:25:12.324Z</time></trkpt><trkpt lat="37.9730846" lon="13.6766315"><ele>196.0</ele><time>2026-04-26T07:25:13.324Z</time></trkpt><trkpt lat="37.9729549" lon="13.6766974"><ele>194.0</ele><time>2026-04-26T07:25:14.324Z</time></trkpt><trkpt lat="37.9728492" lon="13.6768086"><ele>192.0</ele><time>2026-04-26T07:25:15.323Z</time></trkpt><trkpt lat="37.9727475" lon="13.6769584"><ele>190.0</ele><time>2026-04-26T07:25:16.324Z</time></trkpt><trkpt lat="37.9726599" lon="13.6771485"><ele>190.0</ele><time>2026-04-26T07:25:17.324Z</time></trkpt><trkpt lat="37.9725563" lon="13.67735"><ele>190.0</ele><time>2026-04-26T07:25:18.324Z</time></trkpt><trkpt lat="37.9724362" lon="13.677568"><ele>190.0</ele><time>2026-04-26T07:25:19.324Z</time></trkpt><trkpt lat="37.9723144" lon="13.6777812"><ele>193.33333333333334</ele><time>2026-04-26T07:25:20.324Z</time></trkpt><trkpt lat="37.9722218" lon="13.6779989"><ele>196.66666666666669</ele><time>2026-04-26T07:25:21.324Z</time></trkpt><trkpt lat="37.9721566" lon="13.6781969"><ele>200.0</ele><time>2026-04-26T07:25:22.324Z</time></trkpt><trkpt lat="37.9721119" lon="13.6783682"><ele>200.0</ele><time>2026-04-26T07:25:23.324Z</time></trkpt><trkpt lat="37.9720622" lon="13.6785064"><ele>200.0</ele><time>2026-04-26T07:25:24.324Z</time></trkpt><trkpt lat="37.9720143" lon="13.6786155"><ele>200.0</ele><time>2026-04-26T07:25:25.324Z</time></trkpt><trkpt lat="37.9719497" lon="13.6786899"><ele>200.0</ele><time>2026-04-26T07:25:26.323Z</time></trkpt><trkpt lat="37.9718823" lon="13.6787356"><ele>200.0</ele><time>2026-04-26T07:25:27.324Z</time></trkpt><trkpt lat="37.9718112" lon="13.6787109"><ele>200.0</ele><time>2026-04-26T07:25:28.324Z</time></trkpt><trkpt lat="37.9717845" lon="13.6786383"><ele>200.0</ele><time>2026-04-26T07:25:29.324Z</time></trkpt><trkpt lat="37.9717794" lon="13.6785301"><ele>200.0</ele><time>2026-04-26T07:25:30.324Z</time></trkpt><trkpt lat="37.9718162" lon="13.6784073"><ele>200.0</ele><time>2026-04-26T07:25:31.324Z</time></trkpt><trkpt lat="37.9718606" lon="13.6782552"><ele>200.0</ele><time>2026-04-26T07:25:32.324Z</time></trkpt><trkpt lat="37.9719062" lon="13.6780877"><ele>200.0</ele><time>2026-04-26T07:25:33.323Z</time></trkpt><trkpt lat="37.9719481" lon="13.6779006"><ele>200.0</ele><time>2026-04-26T07:25:34.324Z</time></trkpt><trkpt lat="37.9719778" lon="13.6776948"><ele>200.0</ele><time>2026-04-26T07:25:35.324Z</time></trkpt><trkpt lat="37.9719956" lon="13.6774945"><ele>203.0</ele><time>2026-04-26T07:25:36.324Z</time></trkpt><trkpt lat="37.972012" lon="13.677319"><ele>206.0</ele><time>2026-04-26T07:25:37.324Z</time></trkpt><trkpt lat="37.9720267" lon="13.6771682"><ele>209.0</ele><time>2026-04-26T07:25:38.324Z</time></trkpt><trkpt lat="37.9720341" lon="13.6770335"><ele>212.0</ele><time>2026-04-26T07:25:39.324Z</time></trkpt><trkpt lat="37.9720424" lon="13.6769024"><ele>213.8</ele><time>2026-04-26T07:25:40.324Z</time></trkpt><trkpt lat="37.9720513" lon="13.6767725"><ele>215.6</ele><time>2026-04-26T07:25:41.324Z</time></trkpt><trkpt lat="37.9720707" lon="13.6766414"><ele>217.40000000000003</ele><time>2026-04-26T07:25:42.324Z</time></trkpt><trkpt lat="37.9721049" lon="13.6764998"><ele>219.20000000000002</ele><time>2026-04-26T07:25:43.323Z</time></trkpt><trkpt lat="37.972161" lon="13.6763609"><ele>221.0</ele><time>2026-04-26T07:25:44.324Z</time></trkpt><trkpt lat="37.9722454" lon="13.6762067"><ele>221.0</ele><time>2026-04-26T07:25:45.324Z</time></trkpt><trkpt lat="37.9723366" lon="13.676042"><ele>221.0</ele><time>2026-04-26T07:25:46.324Z</time></trkpt><trkpt lat="37.9724333" lon="13.6758787"><ele>221.0</ele><time>2026-04-26T07:25:47.324Z</time></trkpt><trkpt lat="37.9725375" lon="13.6757268"><ele>221.0</ele><time>2026-04-26T07:25:48.324Z</time></trkpt><trkpt lat="37.9726322" lon="13.6756016"><ele>221.00000000000003</ele><time>2026-04-26T07:25:49.324Z</time></trkpt><trkpt lat="37.9727244" lon="13.6755009"><ele>221.00000000000003</ele><time>2026-04-26T07:25:50.324Z</time></trkpt><trkpt lat="37.9728011" lon="13.6754089"><ele>221.0</ele><time>2026-04-26T07:25:51.324Z</time></trkpt><trkpt lat="37.9728566" lon="13.6753376"><ele>221.0</ele><time>2026-04-26T07:25:52.324Z</time></trkpt><trkpt lat="37.9729154" lon="13.6752375"><ele>222.20000000000002</ele><time>2026-04-26T07:25:54.324Z</time></trkpt><trkpt lat="37.9729003" lon="13.6751355"><ele>223.40000000000003</ele><time>2026-04-26T07:25:56.324Z</time></trkpt><trkpt lat="37.9727858" lon="13.6750618"><ele>224.6</ele><time>2026-04-26T07:25:58.324Z</time></trkpt><trkpt lat="37.9726998" lon="13.6750911"><ele>225.8</ele><time>2026-04-26T07:25:59.324Z</time></trkpt><trkpt lat="37.9725998" lon="13.6751701"><ele>227.0</ele><time>2026-04-26T07:26:00.323Z</time></trkpt><trkpt lat="37.9724764" lon="13.6752828"><ele>228.33333333333334</ele><time>2026-04-26T07:26:01.323Z</time></trkpt><trkpt lat="37.9723324" lon="13.6753978"><ele>229.66666666666669</ele><time>2026-04-26T07:26:02.323Z</time></trkpt><trkpt lat="37.9721672" lon="13.675512"><ele>231.0</ele><time>2026-04-26T07:26:03.324Z</time></trkpt><trkpt lat="37.9719976" lon="13.6756458"><ele>231.0</ele><time>2026-04-26T07:26:04.324Z</time></trkpt><trkpt lat="37.9718214" lon="13.6758006"><ele>231.0</ele><time>2026-04-26T07:26:05.324Z</time></trkpt><trkpt lat="37.9716441" lon="13.6759679"><ele>231.0</ele><time>2026-04-26T07:26:06.324Z</time></trkpt><trkpt lat="37.9714731" lon="13.6761382"><ele>233.0</ele><time>2026-04-26T07:26:07.324Z</time></trkpt><trkpt lat="37.9713128" lon="13.6762922"><ele>235.0</ele><time>2026-04-26T07:26:08.324Z</time></trkpt><trkpt lat="37.9711715" lon="13.67643"><ele>237.0</ele><time>2026-04-26T07:26:09.323Z</time></trkpt><trkpt lat="37.9710595" lon="13.6765605"><ele>237.0</ele><time>2026-04-26T07:26:10.324Z</time></trkpt><trkpt lat="37.9709846" lon="13.6766937"><ele>237.0</ele><time>2026-04-26T07:26:11.324Z</time></trkpt><trkpt lat="37.9709281" lon="13.6768752"><ele>237.0</ele><time>2026-04-26T07:26:12.324Z</time></trkpt><trkpt lat="37.970891" lon="13.6770817"><ele>240.0</ele><time>2026-04-26T07:26:13.323Z</time></trkpt><trkpt lat="37.9708502" lon="13.6772833"><ele>243.0</ele><time>2026-04-26T07:26:14.324Z</time></trkpt><trkpt lat="37.970813" lon="13.6774531"><ele>246.0</ele><time>2026-04-26T07:26:15.324Z</time></trkpt><trkpt lat="37.9707723" lon="13.6775777"><ele>249.0</ele><time>2026-04-26T07:26:16.324Z</time></trkpt><trkpt lat="37.9707107" lon="13.6776698"><ele>249.0</ele><time>2026-04-26T07:26:17.324Z</time></trkpt><trkpt lat="37.9706264" lon="13.6777292"><ele>249.0</ele><time>2026-04-26T07:26:18.324Z</time></trkpt><trkpt lat="37.9704987" lon="13.677766"><ele>249.0</ele><time>2026-04-26T07:26:19.324Z</time></trkpt><trkpt lat="37.970348" lon="13.6777931"><ele>249.0</ele><time>2026-04-26T07:26:20.324Z</time></trkpt><trkpt lat="37.9701916" lon="13.6778037"><ele>249.0</ele><time>2026-04-26T07:26:21.324Z</time></trkpt><trkpt lat="37.9700247" lon="13.677781"><ele>249.0</ele><time>2026-04-26T07:26:22.324Z</time></trkpt><trkpt lat="37.9698506" lon="13.6777566"><ele>249.0</ele><time>2026-04-26T07:26:23.324Z</time></trkpt><trkpt lat="37.9696604" lon="13.6777529"><ele>249.0</ele><time>2026-04-26T07:26:24.324Z</time></trkpt><trkpt lat="37.9694713" lon="13.6777648"><ele>249.0</ele><time>2026-04-26T07:26:25.324Z</time></trkpt><trkpt lat="37.9692814" lon="13.6777779"><ele>249.0</ele><time>2026-04-26T07:26:26.324Z</time></trkpt><trkpt lat="37.9690949" lon="13.6777713"><ele>256.3333333333333</ele><time>2026-04-26T07:26:27.324Z</time></trkpt><trkpt lat="37.9689247" lon="13.6777271"><ele>263.66666666666663</ele><time>2026-04-26T07:26:28.324Z</time></trkpt><trkpt lat="37.9687488" lon="13.6776561"><ele>271.0</ele><time>2026-04-26T07:26:29.323Z</time></trkpt><trkpt lat="37.9685667" lon="13.6775962"><ele>271.0</ele><time>2026-04-26T07:26:30.324Z</time></trkpt><trkpt lat="37.9683756" lon="13.6775572"><ele>271.0</ele><time>2026-04-26T07:26:31.324Z</time></trkpt><trkpt lat="37.9681771" lon="13.6775268"><ele>271.0</ele><time>2026-04-26T07:26:32.324Z</time></trkpt><trkpt lat="37.9679782" lon="13.6774688"><ele>270.66666666666663</ele><time>2026-04-26T07:26:33.324Z</time></trkpt><trkpt lat="37.9677937" lon="13.6773838"><ele>270.3333333333333</ele><time>2026-04-26T07:26:34.324Z</time></trkpt><trkpt lat="37.9676342" lon="13.677266"><ele>270.0</ele><time>2026-04-26T07:26:35.324Z</time></trkpt><trkpt lat="37.9674797" lon="13.6771542"><ele>269.0</ele><time>2026-04-26T07:26:36.323Z</time></trkpt><trkpt lat="37.9673283" lon="13.6770574"><ele>268.0</ele><time>2026-04-26T07:26:37.324Z</time></trkpt><trkpt lat="37.9671626" lon="13.6769893"><ele>267.0</ele><time>2026-04-26T07:26:38.324Z</time></trkpt><trkpt lat="37.9670085" lon="13.6769486"><ele>268.2</ele><time>2026-04-26T07:26:39.324Z</time></trkpt><trkpt lat="37.9668781" lon="13.6769143"><ele>269.4</ele><time>2026-04-26T07:26:40.324Z</time></trkpt><trkpt lat="37.9667651" lon="13.6769076"><ele>270.6</ele><time>2026-04-26T07:26:41.324Z</time></trkpt><trkpt lat="37.9666716" lon="13.6769366"><ele>271.8</ele><time>2026-04-26T07:26:42.324Z</time></trkpt><trkpt lat="37.9665902" lon="13.6770237"><ele>273.0</ele><time>2026-04-26T07:26:43.324Z</time></trkpt><trkpt lat="37.9665173" lon="13.6771307"><ele>273.0</ele><time>2026-04-26T07:26:44.324Z</time></trkpt><trkpt lat="37.9664482" lon="13.6772129"><ele>273.0</ele><time>2026-04-26T07:26:45.324Z</time></trkpt><trkpt lat="37.9663634" lon="13.6772369"><ele>273.0</ele><time>2026-04-26T07:26:46.324Z</time></trkpt><trkpt lat="37.9662677" lon="13.6772017"><ele>273.0</ele><time>2026-04-26T07:26:47.324Z</time></trkpt><trkpt lat="37.9661571" lon="13.677106"><ele>273.0</ele><time>2026-04-26T07:26:48.324Z</time></trkpt><trkpt lat="37.9660603" lon="13.6769567"><ele>281.6666666666667</ele><time>2026-04-26T07:26:49.324Z</time></trkpt><trkpt lat="37.9659776" lon="13.6767796"><ele>290.33333333333337</ele><time>2026-04-26T07:26:50.324Z</time></trkpt><trkpt lat="37.9659293" lon="13.6765803"><ele>299.0</ele><time>2026-04-26T07:26:51.324Z</time></trkpt><trkpt lat="37.9659117" lon="13.6763803"><ele>299.0</ele><time>2026-04-26T07:26:52.324Z</time></trkpt><trkpt lat="37.9659105" lon="13.6761937"><ele>299.0</ele><time>2026-04-26T07:26:53.324Z</time></trkpt><trkpt lat="37.9659123" lon="13.6760267"><ele>299.0</ele><time>2026-04-26T07:26:54.324Z</time></trkpt><trkpt lat="37.9658785" lon="13.6758669"><ele>299.0</ele><time>2026-04-26T07:26:55.324Z</time></trkpt><trkpt lat="37.9658028" lon="13.6757099"><ele>297.6666666666667</ele><time>2026-04-26T07:26:56.324Z</time></trkpt><trkpt lat="37.9657071" lon="13.6755482"><ele>296.3333333333333</ele><time>2026-04-26T07:26:57.324Z</time></trkpt><trkpt lat="37.965598" lon="13.6754087"><ele>295.0</ele><time>2026-04-26T07:26:58.323Z</time></trkpt><trkpt lat="37.9654662" lon="13.6752892"><ele>297.3333333333333</ele><time>2026-04-26T07:26:59.324Z</time></trkpt><trkpt lat="37.965313" lon="13.6752002"><ele>299.6666666666667</ele><time>2026-04-26T07:27:00.324Z</time></trkpt><trkpt lat="37.9651443" lon="13.6751616"><ele>302.0</ele><time>2026-04-26T07:27:01.324Z</time></trkpt><trkpt lat="37.9649751" lon="13.675113"><ele>302.0</ele><time>2026-04-26T07:27:02.324Z</time></trkpt><trkpt lat="37.9648077" lon="13.6750469"><ele>302.0</ele><time>2026-04-26T07:27:03.324Z</time></trkpt><trkpt lat="37.9646366" lon="13.6749414"><ele>302.0</ele><time>2026-04-26T07:27:04.324Z</time></trkpt><trkpt lat="37.9644743" lon="13.6748183"><ele>302.0</ele><time>2026-04-26T07:27:05.324Z</time></trkpt><trkpt lat="37.964328" lon="13.6746851"><ele>302.0</ele><time>2026-04-26T07:27:06.324Z</time></trkpt><trkpt lat="37.964197" lon="13.6745181"><ele>302.0</ele><time>2026-04-26T07:27:07.324Z</time></trkpt><trkpt lat="37.9640755" lon="13.6743267"><ele>304.33333333333337</ele><time>2026-04-26T07:27:08.324Z</time></trkpt><trkpt lat="37.9639534" lon="13.6741299"><ele>306.6666666666667</ele><time>2026-04-26T07:27:09.323Z</time></trkpt><trkpt lat="37.9638282" lon="13.6739534"><ele>309.0</ele><time>2026-04-26T07:27:10.324Z</time></trkpt><trkpt lat="37.9636911" lon="13.6738138"><ele>309.0</ele><time>2026-04-26T07:27:11.324Z</time></trkpt><trkpt lat="37.9635676" lon="13.6737133"><ele>309.0</ele><time>2026-04-26T07:27:12.324Z</time></trkpt><trkpt lat="37.9634748" lon="13.6736125"><ele>309.0</ele><time>2026-04-26T07:27:13.324Z</time></trkpt><trkpt lat="37.9634164" lon="13.6735"><ele>309.0</ele><time>2026-04-26T07:27:14.324Z</time></trkpt><trkpt lat="37.9633988" lon="13.6733519"><ele>309.75</ele><time>2026-04-26T07:27:15.324Z</time></trkpt><trkpt lat="37.9634078" lon="13.6732002"><ele>310.5</ele><time>2026-04-26T07:27:16.324Z</time></trkpt><trkpt lat="37.963401" lon="13.6730338"><ele>311.25</ele><time>2026-04-26T07:27:17.324Z</time></trkpt><trkpt lat="37.9633605" lon="13.6728924"><ele>312.0</ele><time>2026-04-26T07:27:18.324Z</time></trkpt><trkpt lat="37.9632674" lon="13.6727637"><ele>314.75</ele><time>2026-04-26T07:27:19.324Z</time></trkpt><trkpt lat="37.963143" lon="13.6726701"><ele>317.5</ele><time>2026-04-26T07:27:20.323Z</time></trkpt><trkpt lat="37.9630069" lon="13.672581"><ele>320.25</ele><time>2026-04-26T07:27:21.324Z</time></trkpt><trkpt lat="37.9628677" lon="13.6725089"><ele>323.0</ele><time>2026-04-26T07:27:22.324Z</time></trkpt><trkpt lat="37.9627157" lon="13.6724414"><ele>323.0</ele><time>2026-04-26T07:27:23.323Z</time></trkpt><trkpt lat="37.9625724" lon="13.6723998"><ele>323.0</ele><time>2026-04-26T07:27:24.323Z</time></trkpt><trkpt lat="37.9624387" lon="13.6723691"><ele>323.0</ele><time>2026-04-26T07:27:25.324Z</time></trkpt><trkpt lat="37.9623241" lon="13.6723219"><ele>323.0</ele><time>2026-04-26T07:27:26.324Z</time></trkpt><trkpt lat="37.9622278" lon="13.6722402"><ele>324.25</ele><time>2026-04-26T07:27:27.323Z</time></trkpt><trkpt lat="37.9621651" lon="13.6721166"><ele>325.5</ele><time>2026-04-26T07:27:28.324Z</time></trkpt><trkpt lat="37.9621341" lon="13.6719585"><ele>326.75</ele><time>2026-04-26T07:27:29.324Z</time></trkpt><trkpt lat="37.962131" lon="13.6717652"><ele>328.0</ele><time>2026-04-26T07:27:30.324Z</time></trkpt><trkpt lat="37.9621344" lon="13.6715786"><ele>328.0</ele><time>2026-04-26T07:27:31.324Z</time></trkpt><trkpt lat="37.962138" lon="13.6713923"><ele>328.0</ele><time>2026-04-26T07:27:32.324Z</time></trkpt><trkpt lat="37.9621292" lon="13.6712301"><ele>328.0</ele><time>2026-04-26T07:27:33.324Z</time></trkpt><trkpt lat="37.9621141" lon="13.6710749"><ele>328.0</ele><time>2026-04-26T07:27:34.323Z</time></trkpt><trkpt lat="37.9620823" lon="13.6709235"><ele>327.66666666666663</ele><time>2026-04-26T07:27:35.324Z</time></trkpt><trkpt lat="37.9620149" lon="13.6707718"><ele>327.3333333333333</ele><time>2026-04-26T07:27:36.324Z</time></trkpt><trkpt lat="37.9619193" lon="13.6705943"><ele>327.0</ele><time>2026-04-26T07:27:37.324Z</time></trkpt><trkpt lat="37.9618068" lon="13.6704118"><ele>328.0</ele><time>2026-04-26T07:27:38.324Z</time></trkpt><trkpt lat="37.9616812" lon="13.67023"><ele>329.0</ele><time>2026-04-26T07:27:39.324Z</time></trkpt><trkpt lat="37.9615396" lon="13.6700681"><ele>330.0</ele><time>2026-04-26T07:27:40.324Z</time></trkpt><trkpt lat="37.9613969" lon="13.6699363"><ele>330.0</ele><time>2026-04-26T07:27:41.324Z</time></trkpt><trkpt lat="37.9612556" lon="13.6698378"><ele>330.0</ele><time>2026-04-26T07:27:42.324Z</time></trkpt><trkpt lat="37.9611228" lon="13.6697674"><ele>330.0</ele><time>2026-04-26T07:27:43.324Z</time></trkpt><trkpt lat="37.960978" lon="13.6697279"><ele>329.3333333333333</ele><time>2026-04-26T07:27:44.324Z</time></trkpt><trkpt lat="37.9608142" lon="13.669728"><ele>328.66666666666663</ele><time>2026-04-26T07:27:45.324Z</time></trkpt><trkpt lat="37.9606302" lon="13.669728"><ele>328.0</ele><time>2026-04-26T07:27:46.324Z</time></trkpt><trkpt lat="37.9604441" lon="13.6697213"><ele>328.0</ele><time>2026-04-26T07:27:47.324Z</time></trkpt><trkpt lat="37.9602578" lon="13.6697074"><ele>328.0</ele><time>2026-04-26T07:27:48.324Z</time></trkpt><trkpt lat="37.960063" lon="13.6696917"><ele>328.0</ele><time>2026-04-26T07:27:49.324Z</time></trkpt><trkpt lat="37.9598699" lon="13.66968"><ele>329.3333333333333</ele><time>2026-04-26T07:27:50.324Z</time></trkpt><trkpt lat="37.9596863" lon="13.6696627"><ele>330.6666666666667</ele><time>2026-04-26T07:27:51.324Z</time></trkpt><trkpt lat="37.9595255" lon="13.669632"><ele>332.0</ele><time>2026-04-26T07:27:52.324Z</time></trkpt><trkpt lat="37.959371" lon="13.6695576"><ele>332.0</ele><time>2026-04-26T07:27:53.324Z</time></trkpt><trkpt lat="37.9592232" lon="13.6694528"><ele>332.0</ele><time>2026-04-26T07:27:54.324Z</time></trkpt><trkpt lat="37.9590962" lon="13.6693188"><ele>332.0</ele><time>2026-04-26T07:27:55.324Z</time></trkpt><trkpt lat="37.9590083" lon="13.6691663"><ele>333.6666666666667</ele><time>2026-04-26T07:27:56.324Z</time></trkpt><trkpt lat="37.9589435" lon="13.6689886"><ele>335.3333333333333</ele><time>2026-04-26T07:27:57.324Z</time></trkpt><trkpt lat="37.9589025" lon="13.6687993"><ele>337.0</ele><time>2026-04-26T07:27:58.324Z</time></trkpt><trkpt lat="37.9588686" lon="13.668617"><ele>336.0</ele><time>2026-04-26T07:27:59.324Z</time></trkpt><trkpt lat="37.9588073" lon="13.6684605"><ele>335.0</ele><time>2026-04-26T07:28:00.324Z</time></trkpt><trkpt lat="37.9587207" lon="13.668337"><ele>334.0</ele><time>2026-04-26T07:28:01.324Z</time></trkpt><trkpt lat="37.9585946" lon="13.6682449"><ele>333.0</ele><time>2026-04-26T07:28:02.324Z</time></trkpt><trkpt lat="37.95844" lon="13.6681591"><ele>339.6666666666667</ele><time>2026-04-26T07:28:03.324Z</time></trkpt><trkpt lat="37.9582801" lon="13.6680678"><ele>346.33333333333337</ele><time>2026-04-26T07:28:04.324Z</time></trkpt><trkpt lat="37.9581073" lon="13.6679664"><ele>353.0</ele><time>2026-04-26T07:28:05.324Z</time></trkpt><trkpt lat="37.9579288" lon="13.6678676"><ele>353.0</ele><time>2026-04-26T07:28:06.324Z</time></trkpt><trkpt lat="37.9577558" lon="13.6677708"><ele>353.0</ele><time>2026-04-26T07:28:07.324Z</time></trkpt><trkpt lat="37.9575902" lon="13.6676524"><ele>353.0</ele><time>2026-04-26T07:28:08.324Z</time></trkpt><trkpt lat="37.9574454" lon="13.6675038"><ele>353.0</ele><time>2026-04-26T07:28:09.323Z</time></trkpt><trkpt lat="37.9573058" lon="13.6673488"><ele>353.0</ele><time>2026-04-26T07:28:10.324Z</time></trkpt><trkpt lat="37.9571748" lon="13.6671997"><ele>353.0</ele><time>2026-04-26T07:28:11.324Z</time></trkpt><trkpt lat="37.9570541" lon="13.6670658"><ele>351.75</ele><time>2026-04-26T07:28:12.324Z</time></trkpt><trkpt lat="37.9569575" lon="13.6669319"><ele>350.5</ele><time>2026-04-26T07:28:13.324Z</time></trkpt><trkpt lat="37.9568898" lon="13.6667821"><ele>349.25</ele><time>2026-04-26T07:28:14.324Z</time></trkpt><trkpt lat="37.9568456" lon="13.6665958"><ele>348.0</ele><time>2026-04-26T07:28:15.324Z</time></trkpt><trkpt lat="37.9568094" lon="13.6663934"><ele>348.0</ele><time>2026-04-26T07:28:16.324Z</time></trkpt><trkpt lat="37.9567494" lon="13.6661697"><ele>348.0</ele><time>2026-04-26T07:28:17.324Z</time></trkpt><trkpt lat="37.9566491" lon="13.6659468"><ele>348.0</ele><time>2026-04-26T07:28:18.324Z</time></trkpt><trkpt lat="37.956546" lon="13.6657219"><ele>352.0</ele><time>2026-04-26T07:28:19.324Z</time></trkpt><trkpt lat="37.9564541" lon="13.6655098"><ele>356.0</ele><time>2026-04-26T07:28:20.324Z</time></trkpt><trkpt lat="37.9563715" lon="13.665334"><ele>360.0</ele><time>2026-04-26T07:28:21.324Z</time></trkpt><trkpt lat="37.9563014" lon="13.6651975"><ele>360.0</ele><time>2026-04-26T07:28:22.324Z</time></trkpt><trkpt lat="37.9562206" lon="13.6651133"><ele>360.0</ele><time>2026-04-26T07:28:23.324Z</time></trkpt><trkpt lat="37.9561323" lon="13.6650892"><ele>360.0</ele><time>2026-04-26T07:28:24.324Z</time></trkpt><trkpt lat="37.9560508" lon="13.665134"><ele>360.0</ele><time>2026-04-26T07:28:25.324Z</time></trkpt><trkpt lat="37.9559778" lon="13.6652342"><ele>360.0</ele><time>2026-04-26T07:28:26.324Z</time></trkpt><trkpt lat="37.9559015" lon="13.6653881"><ele>364.0</ele><time>2026-04-26T07:28:27.324Z</time></trkpt><trkpt lat="37.9558223" lon="13.6655701"><ele>368.0</ele><time>2026-04-26T07:28:28.323Z</time></trkpt><trkpt lat="37.9557342" lon="13.6657583"><ele>372.0</ele><time>2026-04-26T07:28:29.324Z</time></trkpt><trkpt lat="37.9556318" lon="13.665942"><ele>374.0</ele><time>2026-04-26T07:28:30.324Z</time></trkpt><trkpt lat="37.9555159" lon="13.6661233"><ele>376.0</ele><time>2026-04-26T07:28:31.324Z</time></trkpt><trkpt lat="37.9553834" lon="13.6662847"><ele>378.0</ele><time>2026-04-26T07:28:32.323Z</time></trkpt><trkpt lat="37.9552217" lon="13.6664356"><ele>378.0</ele><time>2026-04-26T07:28:33.324Z</time></trkpt><trkpt lat="37.9550486" lon="13.6665761"><ele>378.0</ele><time>2026-04-26T07:28:34.324Z</time></trkpt><trkpt lat="37.9548661" lon="13.6667162"><ele>378.0</ele><time>2026-04-26T07:28:35.324Z</time></trkpt><trkpt lat="37.9546915" lon="13.6668511"><ele>381.33333333333337</ele><time>2026-04-26T07:28:36.324Z</time></trkpt><trkpt lat="37.9545452" lon="13.6669717"><ele>384.6666666666667</ele><time>2026-04-26T07:28:37.324Z</time></trkpt><trkpt lat="37.9544435" lon="13.6671046"><ele>388.0</ele><time>2026-04-26T07:28:38.324Z</time></trkpt><trkpt lat="37.9543756" lon="13.6672731"><ele>388.0</ele><time>2026-04-26T07:28:39.324Z</time></trkpt><trkpt lat="37.954291" lon="13.6674561"><ele>388.0</ele><time>2026-04-26T07:28:40.324Z</time></trkpt><trkpt lat="37.9541877" lon="13.6676598"><ele>388.0</ele><time>2026-04-26T07:28:41.324Z</time></trkpt><trkpt lat="37.9540597" lon="13.6678574"><ele>390.0</ele><time>2026-04-26T07:28:42.324Z</time></trkpt><trkpt lat="37.9539089" lon="13.6680565"><ele>392.0</ele><time>2026-04-26T07:28:43.324Z</time></trkpt><trkpt lat="37.9537519" lon="13.6682397"><ele>394.0</ele><time>2026-04-26T07:28:44.324Z</time></trkpt><trkpt lat="37.953595" lon="13.6683973"><ele>394.0</ele><time>2026-04-26T07:28:45.324Z</time></trkpt><trkpt lat="37.9534547" lon="13.6685316"><ele>394.0</ele><time>2026-04-26T07:28:46.323Z</time></trkpt><trkpt lat="37.9533229" lon="13.6686363"><ele>394.0</ele><time>2026-04-26T07:28:47.324Z</time></trkpt><trkpt lat="37.9531715" lon="13.6687144"><ele>399.33333333333337</ele><time>2026-04-26T07:28:48.323Z</time></trkpt><trkpt lat="37.9530077" lon="13.6687584"><ele>404.66666666666663</ele><time>2026-04-26T07:28:49.324Z</time></trkpt><trkpt lat="37.9528406" lon="13.6688099"><ele>410.0</ele><time>2026-04-26T07:28:50.324Z</time></trkpt><trkpt lat="37.9526681" lon="13.6688698"><ele>410.0</ele><time>2026-04-26T07:28:51.323Z</time></trkpt><trkpt lat="37.9525078" lon="13.6689401"><ele>410.0</ele><time>2026-04-26T07:28:52.324Z</time></trkpt><trkpt lat="37.9523581" lon="13.6690146"><ele>410.0</ele><time>2026-04-26T07:28:53.324Z</time></trkpt><trkpt lat="37.9522353" lon="13.6691116"><ele>410.0</ele><time>2026-04-26T07:28:54.324Z</time></trkpt><trkpt lat="37.9521179" lon="13.669222"><ele>410.0</ele><time>2026-04-26T07:28:55.324Z</time></trkpt><trkpt lat="37.9520017" lon="13.6693586"><ele>410.0</ele><time>2026-04-26T07:28:56.324Z</time></trkpt><trkpt lat="37.9518776" lon="13.6694949"><ele>413.66666666666663</ele><time>2026-04-26T07:28:57.324Z</time></trkpt><trkpt lat="37.9517422" lon="13.6696154"><ele>417.33333333333337</ele><time>2026-04-26T07:28:58.324Z</time></trkpt><trkpt lat="37.951592" lon="13.6697026"><ele>421.0</ele><time>2026-04-26T07:28:59.324Z</time></trkpt><trkpt lat="37.95144" lon="13.6697647"><ele>421.0</ele><time>2026-04-26T07:29:00.324Z</time></trkpt><trkpt lat="37.9513086" lon="13.6697836"><ele>421.0</ele><time>2026-04-26T07:29:01.324Z</time></trkpt><trkpt lat="37.9511861" lon="13.6697744"><ele>421.0</ele><time>2026-04-26T07:29:02.323Z</time></trkpt><trkpt lat="37.9510869" lon="13.6697251"><ele>421.0</ele><time>2026-04-26T07:29:03.324Z</time></trkpt><trkpt lat="37.9509939" lon="13.6696264"><ele>421.0</ele><time>2026-04-26T07:29:04.324Z</time></trkpt><trkpt lat="37.9509072" lon="13.6695049"><ele>421.0</ele><time>2026-04-26T07:29:05.324Z</time></trkpt><trkpt lat="37.950818" lon="13.6693991"><ele>421.0</ele><time>2026-04-26T07:29:06.324Z</time></trkpt><trkpt lat="37.9506929" lon="13.6693387"><ele>421.0</ele><time>2026-04-26T07:29:07.324Z</time></trkpt><trkpt lat="37.9505499" lon="13.6693303"><ele>422.33333333333337</ele><time>2026-04-26T07:29:08.324Z</time></trkpt><trkpt lat="37.9503884" lon="13.6693614"><ele>423.66666666666663</ele><time>2026-04-26T07:29:09.324Z</time></trkpt><trkpt lat="37.9502125" lon="13.6694421"><ele>425.0</ele><time>2026-04-26T07:29:10.324Z</time></trkpt><trkpt lat="37.9500566" lon="13.6695294"><ele>426.75</ele><time>2026-04-26T07:29:11.323Z</time></trkpt><trkpt lat="37.9499273" lon="13.6695896"><ele>428.5</ele><time>2026-04-26T07:29:12.324Z</time></trkpt><trkpt lat="37.949812" lon="13.6696064"><ele>430.25</ele><time>2026-04-26T07:29:13.324Z</time></trkpt><trkpt lat="37.9496975" lon="13.669557"><ele>432.0</ele><time>2026-04-26T07:29:14.324Z</time></trkpt><trkpt lat="37.949589" lon="13.6694434"><ele>430.0</ele><time>2026-04-26T07:29:15.324Z</time></trkpt><trkpt lat="37.9494789" lon="13.6693229"><ele>428.0</ele><time>2026-04-26T07:29:16.324Z</time></trkpt><trkpt lat="37.9493547" lon="13.6692059"><ele>426.0</ele><time>2026-04-26T07:29:17.323Z</time></trkpt><trkpt lat="37.949231" lon="13.6691348"><ele>424.0</ele><time>2026-04-26T07:29:18.324Z</time></trkpt><trkpt lat="37.9491146" lon="13.6690841"><ele>424.0</ele><time>2026-04-26T07:29:19.324Z</time></trkpt><trkpt lat="37.9489967" lon="13.6690342"><ele>424.0</ele><time>2026-04-26T07:29:20.324Z</time></trkpt><trkpt lat="37.9488823" lon="13.6689733"><ele>424.0</ele><time>2026-04-26T07:29:21.324Z</time></trkpt><trkpt lat="37.9487616" lon="13.6688971"><ele>424.0</ele><time>2026-04-26T07:29:22.324Z</time></trkpt><trkpt lat="37.9486401" lon="13.6688169"><ele>424.0</ele><time>2026-04-26T07:29:23.324Z</time></trkpt><trkpt lat="37.9485279" lon="13.6687355"><ele>424.0</ele><time>2026-04-26T07:29:24.324Z</time></trkpt><trkpt lat="37.9484185" lon="13.6686542"><ele>424.0</ele><time>2026-04-26T07:29:25.324Z</time></trkpt><trkpt lat="37.9483132" lon="13.6685713"><ele>424.0</ele><time>2026-04-26T07:29:26.324Z</time></trkpt><trkpt lat="37.9482036" lon="13.6684869"><ele>422.25</ele><time>2026-04-26T07:29:27.323Z</time></trkpt><trkpt lat="37.9480959" lon="13.6684023"><ele>420.5</ele><time>2026-04-26T07:29:28.324Z</time></trkpt><trkpt lat="37.9479924" lon="13.6683108"><ele>418.75</ele><time>2026-04-26T07:29:29.324Z</time></trkpt><trkpt lat="37.9478872" lon="13.6682123"><ele>417.0</ele><time>2026-04-26T07:29:30.324Z</time></trkpt><trkpt lat="37.9477828" lon="13.6681024"><ele>417.0</ele><time>2026-04-26T07:29:31.324Z</time></trkpt><trkpt lat="37.9476831" lon="13.6679896"><ele>417.0</ele><time>2026-04-26T07:29:32.324Z</time></trkpt><trkpt lat="37.9475784" lon="13.6678734"><ele>417.0</ele><time>2026-04-26T07:29:33.324Z</time></trkpt><trkpt lat="37.9474624" lon="13.6677632"><ele>417.0</ele><time>2026-04-26T07:29:34.324Z</time></trkpt><trkpt lat="37.9473326" lon="13.6676614"><ele>417.0</ele><time>2026-04-26T07:29:35.324Z</time></trkpt><trkpt lat="37.947192" lon="13.6675633"><ele>417.0</ele><time>2026-04-26T07:29:36.324Z</time></trkpt><trkpt lat="37.9470422" lon="13.6674667"><ele>417.0</ele><time>2026-04-26T07:29:37.324Z</time></trkpt><trkpt lat="37.9468802" lon="13.6673706"><ele>417.0</ele><time>2026-04-26T07:29:38.324Z</time></trkpt><trkpt lat="37.946713" lon="13.6672886"><ele>417.0</ele><time>2026-04-26T07:29:39.324Z</time></trkpt><trkpt lat="37.9465433" lon="13.6672133"><ele>417.0</ele><time>2026-04-26T07:29:40.324Z</time></trkpt><trkpt lat="37.946354" lon="13.66715"><ele>424.0</ele><time>2026-04-26T07:29:41.323Z</time></trkpt><trkpt lat="37.9461645" lon="13.6670943"><ele>431.0</ele><time>2026-04-26T07:29:42.324Z</time></trkpt><trkpt lat="37.9459989" lon="13.6670502"><ele>438.0</ele><time>2026-04-26T07:29:43.324Z</time></trkpt><trkpt lat="37.9458801" lon="13.6669966"><ele>436.79999999999995</ele><time>2026-04-26T07:29:44.324Z</time></trkpt><trkpt lat="37.9458232" lon="13.6669312"><ele>435.59999999999997</ele><time>2026-04-26T07:29:45.324Z</time></trkpt><trkpt lat="37.9457935" lon="13.6668344"><ele>434.40000000000003</ele><time>2026-04-26T07:29:46.323Z</time></trkpt><trkpt lat="37.9458022" lon="13.6667002"><ele>433.20000000000005</ele><time>2026-04-26T07:29:47.324Z</time></trkpt><trkpt lat="37.9458189" lon="13.6665652"><ele>432.0</ele><time>2026-04-26T07:29:48.324Z</time></trkpt><trkpt lat="37.9458205" lon="13.6664224"><ele>432.0</ele><time>2026-04-26T07:29:49.324Z</time></trkpt><trkpt lat="37.945778" lon="13.6662888"><ele>432.0</ele><time>2026-04-26T07:29:50.324Z</time></trkpt><trkpt lat="37.9456765" lon="13.666154"><ele>432.0</ele><time>2026-04-26T07:29:51.324Z</time></trkpt><trkpt lat="37.9455724" lon="13.6660344"><ele>432.0</ele><time>2026-04-26T07:29:52.324Z</time></trkpt><trkpt lat="37.94549" lon="13.6659159"><ele>431.75</ele><time>2026-04-26T07:29:53.323Z</time></trkpt><trkpt lat="37.9454425" lon="13.6657833"><ele>431.5</ele><time>2026-04-26T07:29:54.324Z</time></trkpt><trkpt lat="37.9454288" lon="13.6656289"><ele>431.25</ele><time>2026-04-26T07:29:55.324Z</time></trkpt><trkpt lat="37.9454278" lon="13.6654591"><ele>431.0</ele><time>2026-04-26T07:29:56.323Z</time></trkpt><trkpt lat="37.9454334" lon="13.6652985"><ele>431.5</ele><time>2026-04-26T07:29:57.324Z</time></trkpt><trkpt lat="37.9454097" lon="13.6651296"><ele>432.0</ele><time>2026-04-26T07:29:58.324Z</time></trkpt><trkpt lat="37.9453326" lon="13.6649797"><ele>432.5</ele><time>2026-04-26T07:29:59.324Z</time></trkpt><trkpt lat="37.9452176" lon="13.6648545"><ele>433.0</ele><time>2026-04-26T07:30:00.324Z</time></trkpt><trkpt lat="37.9450766" lon="13.6647683"><ele>435.5</ele><time>2026-04-26T07:30:01.324Z</time></trkpt><trkpt lat="37.9449345" lon="13.6647175"><ele>438.0</ele><time>2026-04-26T07:30:02.324Z</time></trkpt><trkpt lat="37.9447879" lon="13.6646926"><ele>440.5</ele><time>2026-04-26T07:30:03.324Z</time></trkpt><trkpt lat="37.9446622" lon="13.6647011"><ele>443.0</ele><time>2026-04-26T07:30:04.324Z</time></trkpt><trkpt lat="37.9445384" lon="13.6647546"><ele>443.0</ele><time>2026-04-26T07:30:05.324Z</time></trkpt><trkpt lat="37.9444176" lon="13.6648616"><ele>443.0</ele><time>2026-04-26T07:30:06.324Z</time></trkpt><trkpt lat="37.9443033" lon="13.6649886"><ele>443.0</ele><time>2026-04-26T07:30:07.324Z</time></trkpt><trkpt lat="37.9441863" lon="13.6651266"><ele>444.66666666666663</ele><time>2026-04-26T07:30:08.324Z</time></trkpt><trkpt lat="37.9440686" lon="13.6652603"><ele>446.33333333333337</ele><time>2026-04-26T07:30:09.324Z</time></trkpt><trkpt lat="37.9439484" lon="13.6653814"><ele>448.0</ele><time>2026-04-26T07:30:10.323Z</time></trkpt><trkpt lat="37.9438262" lon="13.665478"><ele>450.75</ele><time>2026-04-26T07:30:11.324Z</time></trkpt><trkpt lat="37.9437019" lon="13.665544"><ele>453.5</ele><time>2026-04-26T07:30:12.324Z</time></trkpt><trkpt lat="37.9435714" lon="13.6656018"><ele>456.25</ele><time>2026-04-26T07:30:13.324Z</time></trkpt><trkpt lat="37.9434443" lon="13.6656489"><ele>459.0</ele><time>2026-04-26T07:30:14.324Z</time></trkpt><trkpt lat="37.9433201" lon="13.6656917"><ele>460.75</ele><time>2026-04-26T07:30:15.324Z</time></trkpt><trkpt lat="37.9431971" lon="13.665721"><ele>462.5</ele><time>2026-04-26T07:30:16.324Z</time></trkpt><trkpt lat="37.9430774" lon="13.6657158"><ele>464.25</ele><time>2026-04-26T07:30:17.324Z</time></trkpt><trkpt lat="37.9429576" lon="13.6656779"><ele>466.0</ele><time>2026-04-26T07:30:18.324Z</time></trkpt><trkpt lat="37.9428297" lon="13.6656233"><ele>466.0</ele><time>2026-04-26T07:30:19.323Z</time></trkpt><trkpt lat="37.9427031" lon="13.6655497"><ele>466.0</ele><time>2026-04-26T07:30:20.324Z</time></trkpt><trkpt lat="37.9425622" lon="13.6654611"><ele>466.0</ele><time>2026-04-26T07:30:21.324Z</time></trkpt><trkpt lat="37.94242" lon="13.6653779"><ele>464.75</ele><time>2026-04-26T07:30:22.324Z</time></trkpt><trkpt lat="37.9422732" lon="13.6653048"><ele>463.5</ele><time>2026-04-26T07:30:23.324Z</time></trkpt><trkpt lat="37.9421269" lon="13.6652645"><ele>462.25</ele><time>2026-04-26T07:30:24.324Z</time></trkpt><trkpt lat="37.9419919" lon="13.6652303"><ele>461.0</ele><time>2026-04-26T07:30:25.324Z</time></trkpt><trkpt lat="37.9418668" lon="13.6651781"><ele>461.0</ele><time>2026-04-26T07:30:26.324Z</time></trkpt><trkpt lat="37.941754" lon="13.6651001"><ele>461.0</ele><time>2026-04-26T07:30:27.324Z</time></trkpt><trkpt lat="37.9416405" lon="13.6649849"><ele>461.0</ele><time>2026-04-26T07:30:28.324Z</time></trkpt><trkpt lat="37.9415333" lon="13.6648408"><ele>461.0</ele><time>2026-04-26T07:30:29.323Z</time></trkpt><trkpt lat="37.9414206" lon="13.6646928"><ele>459.75</ele><time>2026-04-26T07:30:30.324Z</time></trkpt><trkpt lat="37.9413172" lon="13.6645462"><ele>458.5</ele><time>2026-04-26T07:30:31.324Z</time></trkpt><trkpt lat="37.9412209" lon="13.664402"><ele>457.25</ele><time>2026-04-26T07:30:32.324Z</time></trkpt><trkpt lat="37.9411405" lon="13.6642607"><ele>456.0</ele><time>2026-04-26T07:30:33.323Z</time></trkpt><trkpt lat="37.9410837" lon="13.6641076"><ele>456.0</ele><time>2026-04-26T07:30:34.323Z</time></trkpt><trkpt lat="37.9410482" lon="13.6639309"><ele>456.0</ele><time>2026-04-26T07:30:35.323Z</time></trkpt><trkpt lat="37.9410186" lon="13.663749"><ele>456.0</ele><time>2026-04-26T07:30:36.323Z</time></trkpt><trkpt lat="37.9409896" lon="13.6635654"><ele>456.0</ele><time>2026-04-26T07:30:37.324Z</time></trkpt><trkpt lat="37.9409646" lon="13.6633876"><ele>458.5</ele><time>2026-04-26T07:30:38.324Z</time></trkpt><trkpt lat="37.9409178" lon="13.6632435"><ele>461.0</ele><time>2026-04-26T07:30:39.324Z</time></trkpt><trkpt lat="37.9408556" lon="13.66312"><ele>463.5</ele><time>2026-04-26T07:30:40.324Z</time></trkpt><trkpt lat="37.9407455" lon="13.6630117"><ele>466.0</ele><time>2026-04-26T07:30:41.324Z</time></trkpt><trkpt lat="37.9406179" lon="13.662936"><ele>466.0</ele><time>2026-04-26T07:30:42.324Z</time></trkpt><trkpt lat="37.9404801" lon="13.662901"><ele>466.0</ele><time>2026-04-26T07:30:43.324Z</time></trkpt><trkpt lat="37.9403313" lon="13.6628693"><ele>466.0</ele><time>2026-04-26T07:30:44.323Z</time></trkpt><trkpt lat="37.9401988" lon="13.662827"><ele>466.0</ele><time>2026-04-26T07:30:45.324Z</time></trkpt><trkpt lat="37.9400818" lon="13.6627785"><ele>465.0</ele><time>2026-04-26T07:30:46.324Z</time></trkpt><trkpt lat="37.9399862" lon="13.6627175"><ele>464.0</ele><time>2026-04-26T07:30:47.324Z</time></trkpt><trkpt lat="37.9399042" lon="13.6626524"><ele>463.0</ele><time>2026-04-26T07:30:48.324Z</time></trkpt><trkpt lat="37.9398267" lon="13.662594"><ele>462.0</ele><time>2026-04-26T07:30:49.324Z</time></trkpt><trkpt lat="37.9397612" lon="13.6625614"><ele>461.0</ele><time>2026-04-26T07:30:50.324Z</time></trkpt><trkpt lat="37.9396282" lon="13.6625753"><ele>461.0</ele><time>2026-04-26T07:30:52.323Z</time></trkpt><trkpt lat="37.9395177" lon="13.6625669"><ele>461.0</ele><time>2026-04-26T07:30:53.324Z</time></trkpt><trkpt lat="37.9393895" lon="13.6625317"><ele>461.0</ele><time>2026-04-26T07:30:54.324Z</time></trkpt><trkpt lat="37.9392563" lon="13.6624796"><ele>461.0</ele><time>2026-04-26T07:30:55.324Z</time></trkpt><trkpt lat="37.939113" lon="13.6624267"><ele>466.0</ele><time>2026-04-26T07:30:56.324Z</time></trkpt><trkpt lat="37.9389623" lon="13.6623772"><ele>471.0</ele><time>2026-04-26T07:30:57.324Z</time></trkpt><trkpt lat="37.9388112" lon="13.6623501"><ele>476.0</ele><time>2026-04-26T07:30:58.324Z</time></trkpt><trkpt lat="37.9386404" lon="13.662348"><ele>476.0</ele><time>2026-04-26T07:30:59.323Z</time></trkpt><trkpt lat="37.9384625" lon="13.6623643"><ele>476.0</ele><time>2026-04-26T07:31:00.324Z</time></trkpt><trkpt lat="37.9382925" lon="13.6623744"><ele>476.0</ele><time>2026-04-26T07:31:01.324Z</time></trkpt><trkpt lat="37.9381277" lon="13.66236"><ele>480.3333333333333</ele><time>2026-04-26T07:31:02.323Z</time></trkpt><trkpt lat="37.9379565" lon="13.6623115"><ele>484.66666666666663</ele><time>2026-04-26T07:31:03.324Z</time></trkpt><trkpt lat="37.9377839" lon="13.6622518"><ele>489.0</ele><time>2026-04-26T07:31:04.324Z</time></trkpt><trkpt lat="37.9376029" lon="13.6621996"><ele>492.66666666666663</ele><time>2026-04-26T07:31:05.324Z</time></trkpt><trkpt lat="37.9374159" lon="13.6621522"><ele>496.3333333333333</ele><time>2026-04-26T07:31:06.324Z</time></trkpt><trkpt lat="37.9372238" lon="13.6621193"><ele>500.0</ele><time>2026-04-26T07:31:07.324Z</time></trkpt><trkpt lat="37.937025" lon="13.6620863"><ele>500.0</ele><time>2026-04-26T07:31:08.324Z</time></trkpt><trkpt lat="37.9368282" lon="13.6620498"><ele>500.0</ele><time>2026-04-26T07:31:09.324Z</time></trkpt><trkpt lat="37.9366331" lon="13.662015"><ele>500.0</ele><time>2026-04-26T07:31:10.324Z</time></trkpt><trkpt lat="37.9364448" lon="13.6619904"><ele>502.3333333333333</ele><time>2026-04-26T07:31:11.324Z</time></trkpt><trkpt lat="37.9362752" lon="13.6619774"><ele>504.66666666666663</ele><time>2026-04-26T07:31:12.324Z</time></trkpt><trkpt lat="37.9361238" lon="13.6619704"><ele>507.0</ele><time>2026-04-26T07:31:13.324Z</time></trkpt><trkpt lat="37.9359932" lon="13.6619838"><ele>507.40000000000003</ele><time>2026-04-26T07:31:14.324Z</time></trkpt><trkpt lat="37.9358824" lon="13.6620082"><ele>507.80000000000007</ele><time>2026-04-26T07:31:15.324Z</time></trkpt><trkpt lat="37.9357918" lon="13.662043"><ele>508.2</ele><time>2026-04-26T07:31:16.324Z</time></trkpt><trkpt lat="37.935727" lon="13.6621151"><ele>508.6</ele><time>2026-04-26T07:31:17.323Z</time></trkpt><trkpt lat="37.9356777" lon="13.6622111"><ele>509.0</ele><time>2026-04-26T07:31:18.323Z</time></trkpt><trkpt lat="37.9356606" lon="13.6623277"><ele>509.0</ele><time>2026-04-26T07:31:19.324Z</time></trkpt><trkpt lat="37.9356758" lon="13.6624464"><ele>509.0</ele><time>2026-04-26T07:31:20.324Z</time></trkpt><trkpt lat="37.9357123" lon="13.6625582"><ele>509.0</ele><time>2026-04-26T07:31:21.324Z</time></trkpt><trkpt lat="37.9357818" lon="13.6626419"><ele>509.0</ele><time>2026-04-26T07:31:22.324Z</time></trkpt><trkpt lat="37.9358788" lon="13.6627057"><ele>509.0</ele><time>2026-04-26T07:31:23.324Z</time></trkpt><trkpt lat="37.9359971" lon="13.662766"><ele>515.25</ele><time>2026-04-26T07:31:24.324Z</time></trkpt><trkpt lat="37.9361317" lon="13.6628164"><ele>521.5</ele><time>2026-04-26T07:31:25.324Z</time></trkpt><trkpt lat="37.9362613" lon="13.6628819"><ele>527.75</ele><time>2026-04-26T07:31:26.324Z</time></trkpt><trkpt lat="37.9363986" lon="13.6629396"><ele>534.0</ele><time>2026-04-26T07:31:27.324Z</time></trkpt><trkpt lat="37.9365413" lon="13.6629959"><ele>534.0</ele><time>2026-04-26T07:31:28.324Z</time></trkpt><trkpt lat="37.9366894" lon="13.6630498"><ele>534.0</ele><time>2026-04-26T07:31:29.324Z</time></trkpt><trkpt lat="37.9368482" lon="13.6631004"><ele>534.0</ele><time>2026-04-26T07:31:30.324Z</time></trkpt><trkpt lat="37.9370042" lon="13.663147"><ele>533.0</ele><time>2026-04-26T07:31:31.324Z</time></trkpt><trkpt lat="37.937154" lon="13.6631851"><ele>532.0</ele><time>2026-04-26T07:31:32.324Z</time></trkpt><trkpt lat="37.9372801" lon="13.663219"><ele>531.0</ele><time>2026-04-26T07:31:33.324Z</time></trkpt><trkpt lat="37.937377" lon="13.6632594"><ele>530.0</ele><time>2026-04-26T07:31:34.323Z</time></trkpt><trkpt lat="37.9374533" lon="13.66331"><ele>530.0</ele><time>2026-04-26T07:31:35.323Z</time></trkpt><trkpt lat="37.9375063" lon="13.6633944"><ele>530.0</ele><time>2026-04-26T07:31:36.323Z</time></trkpt><trkpt lat="37.9375418" lon="13.6634954"><ele>530.0</ele><time>2026-04-26T07:31:37.323Z</time></trkpt><trkpt lat="37.937545" lon="13.6636063"><ele>530.0</ele><time>2026-04-26T07:31:38.323Z</time></trkpt><trkpt lat="37.9375257" lon="13.6637111"><ele>530.0</ele><time>2026-04-26T07:31:39.323Z</time></trkpt><trkpt lat="37.9374697" lon="13.6637968"><ele>530.0</ele><time>2026-04-26T07:31:40.323Z</time></trkpt><trkpt lat="37.9373934" lon="13.6638667"><ele>537.5</ele><time>2026-04-26T07:31:41.323Z</time></trkpt><trkpt lat="37.9372997" lon="13.6639098"><ele>545.0</ele><time>2026-04-26T07:31:42.323Z</time></trkpt><trkpt lat="37.9371855" lon="13.6639051"><ele>552.5</ele><time>2026-04-26T07:31:43.323Z</time></trkpt><trkpt lat="37.9370607" lon="13.6638774"><ele>560.0</ele><time>2026-04-26T07:31:44.323Z</time></trkpt><trkpt lat="37.9369217" lon="13.6638371"><ele>560.0</ele><time>2026-04-26T07:31:45.323Z</time></trkpt><trkpt lat="37.9367756" lon="13.6637873"><ele>560.0</ele><time>2026-04-26T07:31:46.323Z</time></trkpt><trkpt lat="37.9366268" lon="13.6637175"><ele>560.0</ele><time>2026-04-26T07:31:47.323Z</time></trkpt><trkpt lat="37.9364769" lon="13.6636368"><ele>551.3333333333333</ele><time>2026-04-26T07:31:48.323Z</time></trkpt><trkpt lat="37.9363264" lon="13.6635558"><ele>542.6666666666666</ele><time>2026-04-26T07:31:49.323Z</time></trkpt><trkpt lat="37.9361852" lon="13.6634876"><ele>534.0</ele><time>2026-04-26T07:31:50.323Z</time></trkpt><trkpt lat="37.9360494" lon="13.6634314"><ele>534.0</ele><time>2026-04-26T07:31:51.323Z</time></trkpt><trkpt lat="37.9359208" lon="13.6633901"><ele>534.0</ele><time>2026-04-26T07:31:52.323Z</time></trkpt><trkpt lat="37.935796" lon="13.6633717"><ele>534.0</ele><time>2026-04-26T07:31:53.323Z</time></trkpt><trkpt lat="37.9356686" lon="13.6633605"><ele>534.0</ele><time>2026-04-26T07:31:54.323Z</time></trkpt><trkpt lat="37.935543" lon="13.6633746"><ele>537.8</ele><time>2026-04-26T07:31:55.323Z</time></trkpt><trkpt lat="37.9354134" lon="13.6634101"><ele>541.5999999999999</ele><time>2026-04-26T07:31:56.322Z</time></trkpt><trkpt lat="37.9352944" lon="13.663453"><ele>545.4</ele><time>2026-04-26T07:31:57.323Z</time></trkpt><trkpt lat="37.9351953" lon="13.6634829"><ele>549.1999999999999</ele><time>2026-04-26T07:31:58.323Z</time></trkpt><trkpt lat="37.935109" lon="13.6635101"><ele>553.0</ele><time>2026-04-26T07:31:59.323Z</time></trkpt><trkpt lat="37.9350415" lon="13.6635308"><ele>553.3333333333334</ele><time>2026-04-26T07:32:00.323Z</time></trkpt><trkpt lat="37.9349396" lon="13.663601"><ele>553.6666666666667</ele><time>2026-04-26T07:32:02.322Z</time></trkpt><trkpt lat="37.9349019" lon="13.6636654"><ele>554.0</ele><time>2026-04-26T07:32:03.323Z</time></trkpt><trkpt lat="37.9348703" lon="13.6637588"><ele>554.3333333333334</ele><time>2026-04-26T07:32:04.323Z</time></trkpt><trkpt lat="37.9348477" lon="13.663865"><ele>554.6666666666666</ele><time>2026-04-26T07:32:05.323Z</time></trkpt><trkpt lat="37.9348387" lon="13.6639614"><ele>555.0</ele><time>2026-04-26T07:32:06.322Z</time></trkpt><trkpt lat="37.9348799" lon="13.6641219"><ele>557.8333333333334</ele><time>2026-04-26T07:32:08.323Z</time></trkpt><trkpt lat="37.9349154" lon="13.6642008"><ele>560.6666666666666</ele><time>2026-04-26T07:32:09.323Z</time></trkpt><trkpt lat="37.93495" lon="13.6642786"><ele>563.5</ele><time>2026-04-26T07:32:10.323Z</time></trkpt><trkpt lat="37.9349746" lon="13.6643525"><ele>566.3333333333333</ele><time>2026-04-26T07:32:11.323Z</time></trkpt><trkpt lat="37.9350327" lon="13.6644923"><ele>569.1666666666666</ele><time>2026-04-26T07:32:13.322Z</time></trkpt><trkpt lat="37.9350628" lon="13.6645717"><ele>572.0</ele><time>2026-04-26T07:32:14.323Z</time></trkpt><trkpt lat="37.9350986" lon="13.6646506"><ele>574.4</ele><time>2026-04-26T07:32:15.323Z</time></trkpt><trkpt lat="37.9351415" lon="13.664752"><ele>576.8000000000001</ele><time>2026-04-26T07:32:16.323Z</time></trkpt><trkpt lat="37.9351802" lon="13.6648647"><ele>579.2</ele><time>2026-04-26T07:32:17.323Z</time></trkpt><trkpt lat="37.9352081" lon="13.6649841"><ele>581.6</ele><time>2026-04-26T07:32:18.323Z</time></trkpt><trkpt lat="37.9352338" lon="13.6651091"><ele>584.0</ele><time>2026-04-26T07:32:19.322Z</time></trkpt><trkpt lat="37.9352497" lon="13.6652458"><ele>584.5</ele><time>2026-04-26T07:32:20.323Z</time></trkpt><trkpt lat="37.9352617" lon="13.6653863"><ele>585.0</ele><time>2026-04-26T07:32:21.323Z</time></trkpt><trkpt lat="37.935271" lon="13.6655384"><ele>585.5</ele><time>2026-04-26T07:32:22.323Z</time></trkpt><trkpt lat="37.9352825" lon="13.6656922"><ele>586.0</ele><time>2026-04-26T07:32:23.323Z</time></trkpt><trkpt lat="37.9352934" lon="13.6658647"><ele>586.0</ele><time>2026-04-26T07:32:24.323Z</time></trkpt><trkpt lat="37.935308" lon="13.6660404"><ele>586.0</ele><time>2026-04-26T07:32:25.323Z</time></trkpt><trkpt lat="37.9353184" lon="13.6662204"><ele>586.0</ele><time>2026-04-26T07:32:26.323Z</time></trkpt><trkpt lat="37.9353275" lon="13.6663962"><ele>586.0</ele><time>2026-04-26T07:32:27.323Z</time></trkpt><trkpt lat="37.9353356" lon="13.6665757"><ele>586.5</ele><time>2026-04-26T07:32:28.323Z</time></trkpt><trkpt lat="37.9353468" lon="13.66676"><ele>587.0</ele><time>2026-04-26T07:32:29.323Z</time></trkpt><trkpt lat="37.9353601" lon="13.6669478"><ele>587.5</ele><time>2026-04-26T07:32:30.323Z</time></trkpt><trkpt lat="37.9353723" lon="13.6671235"><ele>588.0</ele><time>2026-04-26T07:32:31.322Z</time></trkpt><trkpt lat="37.9353862" lon="13.6672919"><ele>588.0</ele><time>2026-04-26T07:32:32.323Z</time></trkpt><trkpt lat="37.9353981" lon="13.6674678"><ele>588.0</ele><time>2026-04-26T07:32:33.323Z</time></trkpt><trkpt lat="37.9354116" lon="13.6676407"><ele>588.0</ele><time>2026-04-26T07:32:34.323Z</time></trkpt><trkpt lat="37.9354215" lon="13.6678047"><ele>588.0</ele><time>2026-04-26T07:32:35.323Z</time></trkpt><trkpt lat="37.9354323" lon="13.6679588"><ele>588.5</ele><time>2026-04-26T07:32:36.323Z</time></trkpt><trkpt lat="37.9354441" lon="13.6681035"><ele>589.0</ele><time>2026-04-26T07:32:37.323Z</time></trkpt><trkpt lat="37.9354533" lon="13.6682504"><ele>589.5</ele><time>2026-04-26T07:32:38.323Z</time></trkpt><trkpt lat="37.9354665" lon="13.668402"><ele>590.0</ele><time>2026-04-26T07:32:39.323Z</time></trkpt><trkpt lat="37.9354905" lon="13.6685431"><ele>590.0</ele><time>2026-04-26T07:32:40.323Z</time></trkpt><trkpt lat="37.9355211" lon="13.6686736"><ele>590.0</ele><time>2026-04-26T07:32:41.323Z</time></trkpt><trkpt lat="37.9355534" lon="13.6687893"><ele>590.0</ele><time>2026-04-26T07:32:42.323Z</time></trkpt><trkpt lat="37.9355919" lon="13.6688781"><ele>590.0</ele><time>2026-04-26T07:32:43.323Z</time></trkpt><trkpt lat="37.9356218" lon="13.6689559"><ele>590.0</ele><time>2026-04-26T07:32:44.323Z</time></trkpt><trkpt lat="37.9356708" lon="13.6691057"><ele>590.0</ele><time>2026-04-26T07:32:46.323Z</time></trkpt><trkpt lat="37.9357039" lon="13.6691898"><ele>590.0</ele><time>2026-04-26T07:32:47.323Z</time></trkpt><trkpt lat="37.9357387" lon="13.6692855"><ele>590.0</ele><time>2026-04-26T07:32:48.323Z</time></trkpt><trkpt lat="37.935776" lon="13.6693904"><ele>590.0</ele><time>2026-04-26T07:32:49.323Z</time></trkpt><trkpt lat="37.9358161" lon="13.6695104"><ele>590.0</ele><time>2026-04-26T07:32:50.323Z</time></trkpt><trkpt lat="37.9358617" lon="13.6696472"><ele>593.0</ele><time>2026-04-26T07:32:51.323Z</time></trkpt><trkpt lat="37.9359088" lon="13.6697942"><ele>596.0</ele><time>2026-04-26T07:32:52.323Z</time></trkpt><trkpt lat="37.9359641" lon="13.6699481"><ele>599.0</ele><time>2026-04-26T07:32:53.323Z</time></trkpt><trkpt lat="37.936011" lon="13.6700916"><ele>602.0</ele><time>2026-04-26T07:32:54.322Z</time></trkpt><trkpt lat="37.9360509" lon="13.6702201"><ele>601.3333333333333</ele><time>2026-04-26T07:32:55.323Z</time></trkpt><trkpt lat="37.936086" lon="13.6703408"><ele>600.6666666666666</ele><time>2026-04-26T07:32:56.323Z</time></trkpt><trkpt lat="37.9361164" lon="13.6704529"><ele>600.0</ele><time>2026-04-26T07:32:57.323Z</time></trkpt><trkpt lat="37.9361279" lon="13.6705644"><ele>599.3333333333334</ele><time>2026-04-26T07:32:58.323Z</time></trkpt><trkpt lat="37.9361217" lon="13.670659"><ele>598.6666666666667</ele><time>2026-04-26T07:32:59.323Z</time></trkpt><trkpt lat="37.9360812" lon="13.6707583"><ele>598.0</ele><time>2026-04-26T07:33:00.323Z</time></trkpt><trkpt lat="37.9360216" lon="13.670859"><ele>598.0</ele><time>2026-04-26T07:33:01.323Z</time></trkpt><trkpt lat="37.9359421" lon="13.6709479"><ele>598.0</ele><time>2026-04-26T07:33:02.322Z</time></trkpt><trkpt lat="37.9358448" lon="13.6710252"><ele>598.0</ele><time>2026-04-26T07:33:03.323Z</time></trkpt><trkpt lat="37.9357446" lon="13.6711123"><ele>598.0</ele><time>2026-04-26T07:33:04.323Z</time></trkpt><trkpt lat="37.935645" lon="13.6712033"><ele>597.4</ele><time>2026-04-26T07:33:05.323Z</time></trkpt><trkpt lat="37.9355437" lon="13.6712888"><ele>596.8</ele><time>2026-04-26T07:33:06.323Z</time></trkpt><trkpt lat="37.935459" lon="13.6713838"><ele>596.2</ele><time>2026-04-26T07:33:07.322Z</time></trkpt><trkpt lat="37.935401" lon="13.6714833"><ele>595.6</ele><time>2026-04-26T07:33:08.322Z</time></trkpt><trkpt lat="37.9353636" lon="13.6715919"><ele>595.0</ele><time>2026-04-26T07:33:09.323Z</time></trkpt><trkpt lat="37.9353646" lon="13.6717151"><ele>595.0</ele><time>2026-04-26T07:33:10.323Z</time></trkpt><trkpt lat="37.9353855" lon="13.6718451"><ele>595.0</ele><time>2026-04-26T07:33:11.323Z</time></trkpt><trkpt lat="37.9354166" lon="13.6719758"><ele>595.0</ele><time>2026-04-26T07:33:12.323Z</time></trkpt><trkpt lat="37.9354562" lon="13.6721108"><ele>595.0</ele><time>2026-04-26T07:33:13.323Z</time></trkpt><trkpt lat="37.9355089" lon="13.6722357"><ele>595.0</ele><time>2026-04-26T07:33:14.323Z</time></trkpt><trkpt lat="37.9355624" lon="13.6723721"><ele>594.2</ele><time>2026-04-26T07:33:15.323Z</time></trkpt><trkpt lat="37.9356093" lon="13.672503"><ele>593.4</ele><time>2026-04-26T07:33:16.323Z</time></trkpt><trkpt lat="37.9356501" lon="13.6726265"><ele>592.6</ele><time>2026-04-26T07:33:17.323Z</time></trkpt><trkpt lat="37.9356936" lon="13.6727453"><ele>591.8</ele><time>2026-04-26T07:33:18.323Z</time></trkpt><trkpt lat="37.9357223" lon="13.6728592"><ele>591.0</ele><time>2026-04-26T07:33:19.323Z</time></trkpt><trkpt lat="37.9357416" lon="13.6729728"><ele>590.8</ele><time>2026-04-26T07:33:20.323Z</time></trkpt><trkpt lat="37.935733" lon="13.6730844"><ele>590.6</ele><time>2026-04-26T07:33:21.323Z</time></trkpt><trkpt lat="37.9356923" lon="13.6731818"><ele>590.4</ele><time>2026-04-26T07:33:22.323Z</time></trkpt><trkpt lat="37.9356336" lon="13.6732682"><ele>590.2</ele><time>2026-04-26T07:33:23.322Z</time></trkpt><trkpt lat="37.9355553" lon="13.6733347"><ele>590.0</ele><time>2026-04-26T07:33:24.323Z</time></trkpt><trkpt lat="37.9354572" lon="13.6733827"><ele>590.0</ele><time>2026-04-26T07:33:25.323Z</time></trkpt><trkpt lat="37.9353459" lon="13.6734184"><ele>590.0</ele><time>2026-04-26T07:33:26.323Z</time></trkpt><trkpt lat="37.9352243" lon="13.6734487"><ele>590.0</ele><time>2026-04-26T07:33:27.323Z</time></trkpt><trkpt lat="37.9351043" lon="13.6734789"><ele>590.0</ele><time>2026-04-26T07:33:28.323Z</time></trkpt><trkpt lat="37.9349838" lon="13.6735038"><ele>587.5</ele><time>2026-04-26T07:33:29.323Z</time></trkpt><trkpt lat="37.934869" lon="13.6735185"><ele>585.0</ele><time>2026-04-26T07:33:30.323Z</time></trkpt><trkpt lat="37.9347568" lon="13.6735221"><ele>582.5</ele><time>2026-04-26T07:33:31.323Z</time></trkpt><trkpt lat="37.9346471" lon="13.6735012"><ele>580.0</ele><time>2026-04-26T07:33:32.323Z</time></trkpt><trkpt lat="37.9345412" lon="13.6734546"><ele>580.0</ele><time>2026-04-26T07:33:33.323Z</time></trkpt><trkpt lat="37.934445" lon="13.6733852"><ele>580.0</ele><time>2026-04-26T07:33:34.323Z</time></trkpt><trkpt lat="37.9343454" lon="13.6733033"><ele>580.0</ele><time>2026-04-26T07:33:35.323Z</time></trkpt><trkpt lat="37.9342399" lon="13.6732088"><ele>580.0</ele><time>2026-04-26T07:33:36.322Z</time></trkpt><trkpt lat="37.9341365" lon="13.6731054"><ele>580.0</ele><time>2026-04-26T07:33:37.323Z</time></trkpt><trkpt lat="37.934047" lon="13.6730017"><ele>580.0</ele><time>2026-04-26T07:33:38.323Z</time></trkpt><trkpt lat="37.9339592" lon="13.6729084"><ele>580.0</ele><time>2026-04-26T07:33:39.323Z</time></trkpt><trkpt lat="37.9338676" lon="13.672829"><ele>580.0</ele><time>2026-04-26T07:33:40.322Z</time></trkpt><trkpt lat="37.9337676" lon="13.6727658"><ele>578.0</ele><time>2026-04-26T07:33:41.323Z</time></trkpt><trkpt lat="37.933669" lon="13.672737"><ele>576.0</ele><time>2026-04-26T07:33:42.323Z</time></trkpt><trkpt lat="37.9335702" lon="13.672733"><ele>574.0</ele><time>2026-04-26T07:33:43.323Z</time></trkpt><trkpt lat="37.9334691" lon="13.6727555"><ele>572.0</ele><time>2026-04-26T07:33:44.323Z</time></trkpt><trkpt lat="37.9333803" lon="13.6727951"><ele>570.0</ele><time>2026-04-26T07:33:45.323Z</time></trkpt><trkpt lat="37.93329" lon="13.6728633"><ele>570.0</ele><time>2026-04-26T07:33:46.323Z</time></trkpt><trkpt lat="37.9331953" lon="13.6729451"><ele>570.0</ele><time>2026-04-26T07:33:47.323Z</time></trkpt><trkpt lat="37.9330975" lon="13.6730399"><ele>570.0</ele><time>2026-04-26T07:33:48.323Z</time></trkpt><trkpt lat="37.9329978" lon="13.6731245"><ele>570.0</ele><time>2026-04-26T07:33:49.323Z</time></trkpt><trkpt lat="37.9329047" lon="13.6732069"><ele>570.0</ele><time>2026-04-26T07:33:50.323Z</time></trkpt><trkpt lat="37.9328095" lon="13.6732861"><ele>570.0</ele><time>2026-04-26T07:33:51.323Z</time></trkpt><trkpt lat="37.9327189" lon="13.6733583"><ele>570.0</ele><time>2026-04-26T07:33:52.323Z</time></trkpt><trkpt lat="37.9326262" lon="13.6734195"><ele>570.0</ele><time>2026-04-26T07:33:53.323Z</time></trkpt><trkpt lat="37.9325365" lon="13.6734568"><ele>570.0</ele><time>2026-04-26T07:33:54.323Z</time></trkpt><trkpt lat="37.932446" lon="13.6734691"><ele>568.5</ele><time>2026-04-26T07:33:55.323Z</time></trkpt><trkpt lat="37.9323713" lon="13.6734372"><ele>567.0</ele><time>2026-04-26T07:33:56.323Z</time></trkpt><trkpt lat="37.9323134" lon="13.6733699"><ele>565.5</ele><time>2026-04-26T07:33:57.323Z</time></trkpt><trkpt lat="37.9322583" lon="13.6732867"><ele>564.0</ele><time>2026-04-26T07:33:58.323Z</time></trkpt><trkpt lat="37.9322238" lon="13.6731764"><ele>562.5</ele><time>2026-04-26T07:33:59.323Z</time></trkpt><trkpt lat="37.9322096" lon="13.6730466"><ele>561.0</ele><time>2026-04-26T07:34:00.323Z</time></trkpt><trkpt lat="37.9321937" lon="13.6729008"><ele>558.5</ele><time>2026-04-26T07:34:01.323Z</time></trkpt><trkpt lat="37.9321781" lon="13.6727338"><ele>556.0</ele><time>2026-04-26T07:34:02.322Z</time></trkpt><trkpt lat="37.9321649" lon="13.6725632"><ele>553.5</ele><time>2026-04-26T07:34:03.323Z</time></trkpt><trkpt lat="37.9321432" lon="13.6723897"><ele>551.0</ele><time>2026-04-26T07:34:04.323Z</time></trkpt><trkpt lat="37.9321131" lon="13.6722182"><ele>551.0</ele><time>2026-04-26T07:34:05.323Z</time></trkpt><trkpt lat="37.932077" lon="13.67205"><ele>551.0</ele><time>2026-04-26T07:34:06.323Z</time></trkpt><trkpt lat="37.9320357" lon="13.6718813"><ele>551.0</ele><time>2026-04-26T07:34:07.323Z</time></trkpt><trkpt lat="37.9319912" lon="13.6717264"><ele>551.0</ele><time>2026-04-26T07:34:08.323Z</time></trkpt><trkpt lat="37.9319407" lon="13.6715736"><ele>547.5</ele><time>2026-04-26T07:34:09.323Z</time></trkpt><trkpt lat="37.9318865" lon="13.6714219"><ele>544.0</ele><time>2026-04-26T07:34:10.323Z</time></trkpt><trkpt lat="37.9318264" lon="13.6712904"><ele>540.5</ele><time>2026-04-26T07:34:11.323Z</time></trkpt><trkpt lat="37.9317466" lon="13.6711771"><ele>537.0</ele><time>2026-04-26T07:34:12.323Z</time></trkpt><trkpt lat="37.931662" lon="13.6710783"><ele>536.6</ele><time>2026-04-26T07:34:13.323Z</time></trkpt><trkpt lat="37.9315742" lon="13.6709873"><ele>536.2</ele><time>2026-04-26T07:34:14.323Z</time></trkpt><trkpt lat="37.9314854" lon="13.6708972"><ele>535.8</ele><time>2026-04-26T07:34:15.323Z</time></trkpt><trkpt lat="37.9314069" lon="13.6707986"><ele>535.4</ele><time>2026-04-26T07:34:16.323Z</time></trkpt><trkpt lat="37.9313336" lon="13.6707001"><ele>535.0</ele><time>2026-04-26T07:34:17.323Z</time></trkpt><trkpt lat="37.9312642" lon="13.6705985"><ele>535.0</ele><time>2026-04-26T07:34:18.323Z</time></trkpt><trkpt lat="37.9311945" lon="13.6705032"><ele>535.0</ele><time>2026-04-26T07:34:19.323Z</time></trkpt><trkpt lat="37.9311228" lon="13.6704045"><ele>535.0</ele><time>2026-04-26T07:34:20.323Z</time></trkpt><trkpt lat="37.93105" lon="13.6703017"><ele>535.0</ele><time>2026-04-26T07:34:21.323Z</time></trkpt><trkpt lat="37.9309713" lon="13.6701949"><ele>535.0</ele><time>2026-04-26T07:34:22.323Z</time></trkpt><trkpt lat="37.9308945" lon="13.6700922"><ele>533.75</ele><time>2026-04-26T07:34:23.323Z</time></trkpt><trkpt lat="37.9308097" lon="13.6699902"><ele>532.5</ele><time>2026-04-26T07:34:24.323Z</time></trkpt><trkpt lat="37.930723" lon="13.6698921"><ele>531.25</ele><time>2026-04-26T07:34:25.323Z</time></trkpt><trkpt lat="37.9306421" lon="13.6697921"><ele>530.0</ele><time>2026-04-26T07:34:26.323Z</time></trkpt><trkpt lat="37.9305608" lon="13.6696932"><ele>530.0</ele><time>2026-04-26T07:34:27.323Z</time></trkpt><trkpt lat="37.9304729" lon="13.6695926"><ele>530.0</ele><time>2026-04-26T07:34:28.323Z</time></trkpt><trkpt lat="37.9303853" lon="13.6694946"><ele>530.0</ele><time>2026-04-26T07:34:29.322Z</time></trkpt><trkpt lat="37.930293" lon="13.669397"><ele>530.0</ele><time>2026-04-26T07:34:30.323Z</time></trkpt><trkpt lat="37.9301989" lon="13.6692926"><ele>528.25</ele><time>2026-04-26T07:34:31.323Z</time></trkpt><trkpt lat="37.9301055" lon="13.6691836"><ele>526.5</ele><time>2026-04-26T07:34:32.323Z</time></trkpt><trkpt lat="37.9300145" lon="13.6690744"><ele>524.75</ele><time>2026-04-26T07:34:33.323Z</time></trkpt><trkpt lat="37.9299249" lon="13.668967"><ele>523.0</ele><time>2026-04-26T07:34:34.323Z</time></trkpt><trkpt lat="37.9298302" lon="13.6688674"><ele>523.0</ele><time>2026-04-26T07:34:35.323Z</time></trkpt><trkpt lat="37.9297365" lon="13.6687702"><ele>523.0</ele><time>2026-04-26T07:34:36.323Z</time></trkpt><trkpt lat="37.9296406" lon="13.6686796"><ele>523.0</ele><time>2026-04-26T07:34:37.323Z</time></trkpt><trkpt lat="37.9295452" lon="13.6685884"><ele>523.0</ele><time>2026-04-26T07:34:38.323Z</time></trkpt><trkpt lat="37.9294443" lon="13.6684962"><ele>521.75</ele><time>2026-04-26T07:34:39.323Z</time></trkpt><trkpt lat="37.9293473" lon="13.6684009"><ele>520.5</ele><time>2026-04-26T07:34:40.323Z</time></trkpt><trkpt lat="37.9292436" lon="13.668305"><ele>519.25</ele><time>2026-04-26T07:34:41.322Z</time></trkpt><trkpt lat="37.9291416" lon="13.6682074"><ele>518.0</ele><time>2026-04-26T07:34:42.323Z</time></trkpt><trkpt lat="37.9290443" lon="13.6681167"><ele>518.0</ele><time>2026-04-26T07:34:43.323Z</time></trkpt><trkpt lat="37.9289484" lon="13.6680316"><ele>518.0</ele><time>2026-04-26T07:34:44.323Z</time></trkpt><trkpt lat="37.9288558" lon="13.6679549"><ele>518.0</ele><time>2026-04-26T07:34:45.323Z</time></trkpt><trkpt lat="37.9287823" lon="13.6678875"><ele>518.0</ele><time>2026-04-26T07:34:46.323Z</time></trkpt><trkpt lat="37.9287216" lon="13.6678191"><ele>518.0</ele><time>2026-04-26T07:34:47.323Z</time></trkpt><trkpt lat="37.9286703" lon="13.6677595"><ele>516.0</ele><time>2026-04-26T07:34:48.323Z</time></trkpt><trkpt lat="37.9286232" lon="13.6676556"><ele>514.0</ele><time>2026-04-26T07:34:50.323Z</time></trkpt><trkpt lat="37.9285919" lon="13.6675383"><ele>511.99999999999994</ele><time>2026-04-26T07:34:52.323Z</time></trkpt><trkpt lat="37.9285501" lon="13.6674532"><ele>510.0</ele><time>2026-04-26T07:34:53.323Z</time></trkpt><trkpt lat="37.9284887" lon="13.6673401"><ele>508.0</ele><time>2026-04-26T07:34:54.323Z</time></trkpt><trkpt lat="37.9284261" lon="13.6672347"><ele>508.5</ele><time>2026-04-26T07:34:55.323Z</time></trkpt><trkpt lat="37.9283665" lon="13.6671081"><ele>509.0</ele><time>2026-04-26T07:34:56.323Z</time></trkpt><trkpt lat="37.9282985" lon="13.6669702"><ele>509.5</ele><time>2026-04-26T07:34:57.323Z</time></trkpt><trkpt lat="37.9282284" lon="13.6668135"><ele>510.0</ele><time>2026-04-26T07:34:58.323Z</time></trkpt><trkpt lat="37.9281542" lon="13.6666532"><ele>510.0</ele><time>2026-04-26T07:34:59.323Z</time></trkpt><trkpt lat="37.9280701" lon="13.6665096"><ele>510.0</ele><time>2026-04-26T07:35:00.323Z</time></trkpt><trkpt lat="37.9279613" lon="13.6664085"><ele>510.0</ele><time>2026-04-26T07:35:01.323Z</time></trkpt><trkpt lat="37.9278547" lon="13.6663392"><ele>510.0</ele><time>2026-04-26T07:35:02.323Z</time></trkpt><trkpt lat="37.9277454" lon="13.6662908"><ele>510.0</ele><time>2026-04-26T07:35:03.323Z</time></trkpt><trkpt lat="37.9276378" lon="13.6662611"><ele>510.0</ele><time>2026-04-26T07:35:04.323Z</time></trkpt><trkpt lat="37.9275361" lon="13.6662396"><ele>510.0</ele><time>2026-04-26T07:35:05.323Z</time></trkpt><trkpt lat="37.9274392" lon="13.6662114"><ele>510.0</ele><time>2026-04-26T07:35:06.323Z</time></trkpt><trkpt lat="37.9273489" lon="13.6661671"><ele>510.0</ele><time>2026-04-26T07:35:07.323Z</time></trkpt><trkpt lat="37.9272815" lon="13.6661128"><ele>510.3333333333333</ele><time>2026-04-26T07:35:08.323Z</time></trkpt><trkpt lat="37.9272237" lon="13.6660604"><ele>510.66666666666663</ele><time>2026-04-26T07:35:09.322Z</time></trkpt><trkpt lat="37.9271739" lon="13.6659942"><ele>511.0</ele><time>2026-04-26T07:35:10.323Z</time></trkpt><trkpt lat="37.9270747" lon="13.6658807"><ele>511.3333333333333</ele><time>2026-04-26T07:35:12.323Z</time></trkpt><trkpt lat="37.9270212" lon="13.6658186"><ele>511.66666666666663</ele><time>2026-04-26T07:35:13.323Z</time></trkpt><trkpt lat="37.9269591" lon="13.6657518"><ele>512.0</ele><time>2026-04-26T07:35:14.323Z</time></trkpt><trkpt lat="37.9268894" lon="13.6656769"><ele>512.0</ele><time>2026-04-26T07:35:15.323Z</time></trkpt><trkpt lat="37.926813" lon="13.6656259"><ele>512.0</ele><time>2026-04-26T07:35:16.323Z</time></trkpt><trkpt lat="37.9267251" lon="13.6656119"><ele>512.0</ele><time>2026-04-26T07:35:17.323Z</time></trkpt><trkpt lat="37.9266293" lon="13.6656382"><ele>512.0</ele><time>2026-04-26T07:35:18.323Z</time></trkpt><trkpt lat="37.9265418" lon="13.6657233"><ele>512.0</ele><time>2026-04-26T07:35:19.323Z</time></trkpt><trkpt lat="37.926447" lon="13.6658187"><ele>513.25</ele><time>2026-04-26T07:35:20.323Z</time></trkpt><trkpt lat="37.9263596" lon="13.6659206"><ele>514.5</ele><time>2026-04-26T07:35:21.323Z</time></trkpt><trkpt lat="37.9262683" lon="13.6660239"><ele>515.75</ele><time>2026-04-26T07:35:22.323Z</time></trkpt><trkpt lat="37.9261665" lon="13.6661304"><ele>517.0</ele><time>2026-04-26T07:35:23.323Z</time></trkpt><trkpt lat="37.9260691" lon="13.6662393"><ele>516.75</ele><time>2026-04-26T07:35:24.323Z</time></trkpt><trkpt lat="37.9259834" lon="13.6663602"><ele>516.5</ele><time>2026-04-26T07:35:25.323Z</time></trkpt><trkpt lat="37.9259235" lon="13.6665136"><ele>516.25</ele><time>2026-04-26T07:35:26.323Z</time></trkpt><trkpt lat="37.9258925" lon="13.6666862"><ele>516.0</ele><time>2026-04-26T07:35:27.323Z</time></trkpt><trkpt lat="37.925887" lon="13.6668639"><ele>517.8</ele><time>2026-04-26T07:35:28.323Z</time></trkpt><trkpt lat="37.9258917" lon="13.6670358"><ele>519.6</ele><time>2026-04-26T07:35:29.322Z</time></trkpt><trkpt lat="37.9258955" lon="13.6671857"><ele>521.4</ele><time>2026-04-26T07:35:30.323Z</time></trkpt><trkpt lat="37.925881" lon="13.6673014"><ele>523.2</ele><time>2026-04-26T07:35:31.323Z</time></trkpt><trkpt lat="37.9258599" lon="13.6673788"><ele>525.0</ele><time>2026-04-26T07:35:32.323Z</time></trkpt><trkpt lat="37.925794" lon="13.6674733"><ele>525.0</ele><time>2026-04-26T07:35:34.322Z</time></trkpt><trkpt lat="37.9257404" lon="13.6675446"><ele>525.0</ele><time>2026-04-26T07:35:35.323Z</time></trkpt><trkpt lat="37.9256724" lon="13.6676365"><ele>525.0</ele><time>2026-04-26T07:35:36.323Z</time></trkpt><trkpt lat="37.925579" lon="13.6677452"><ele>525.0</ele><time>2026-04-26T07:35:37.323Z</time></trkpt><trkpt lat="37.9254571" lon="13.66787"><ele>528.6666666666666</ele><time>2026-04-26T07:35:38.323Z</time></trkpt><trkpt lat="37.9253291" lon="13.6680098"><ele>532.3333333333333</ele><time>2026-04-26T07:35:39.323Z</time></trkpt><trkpt lat="37.9251972" lon="13.6681459"><ele>536.0</ele><time>2026-04-26T07:35:40.323Z</time></trkpt><trkpt lat="37.9250758" lon="13.6682797"><ele>536.0</ele><time>2026-04-26T07:35:41.323Z</time></trkpt><trkpt lat="37.9249724" lon="13.6684352"><ele>536.0</ele><time>2026-04-26T07:35:42.323Z</time></trkpt><trkpt lat="37.9248963" lon="13.6686294"><ele>536.0</ele><time>2026-04-26T07:35:43.323Z</time></trkpt><trkpt lat="37.9248534" lon="13.6688355"><ele>536.0</ele><time>2026-04-26T07:35:44.323Z</time></trkpt><trkpt lat="37.9248136" lon="13.6690291"><ele>536.0</ele><time>2026-04-26T07:35:45.323Z</time></trkpt><trkpt lat="37.924764" lon="13.6691943"><ele>536.0</ele><time>2026-04-26T07:35:46.323Z</time></trkpt><trkpt lat="37.924694" lon="13.6693132"><ele>536.0</ele><time>2026-04-26T07:35:47.323Z</time></trkpt><trkpt lat="37.9245921" lon="13.6693947"><ele>536.0</ele><time>2026-04-26T07:35:48.323Z</time></trkpt><trkpt lat="37.9244724" lon="13.6694693"><ele>536.0</ele><time>2026-04-26T07:35:49.323Z</time></trkpt><trkpt lat="37.9243576" lon="13.6695617"><ele>536.0</ele><time>2026-04-26T07:35:50.323Z</time></trkpt><trkpt lat="37.924241" lon="13.6697346"><ele>536.0</ele><time>2026-04-26T07:35:51.323Z</time></trkpt><trkpt lat="37.9241103" lon="13.6699377"><ele>536.0</ele><time>2026-04-26T07:35:52.323Z</time></trkpt><trkpt lat="37.9239694" lon="13.6701585"><ele>536.0</ele><time>2026-04-26T07:35:53.323Z</time></trkpt><trkpt lat="37.9238352" lon="13.6703645"><ele>536.0</ele><time>2026-04-26T07:35:54.323Z</time></trkpt><trkpt lat="37.9237182" lon="13.6705636"><ele>538.3333333333333</ele><time>2026-04-26T07:35:55.323Z</time></trkpt><trkpt lat="37.9236259" lon="13.6707766"><ele>540.6666666666666</ele><time>2026-04-26T07:35:56.323Z</time></trkpt><trkpt lat="37.9235685" lon="13.6709941"><ele>543.0</ele><time>2026-04-26T07:35:57.323Z</time></trkpt><trkpt lat="37.9235188" lon="13.6711977"><ele>544.0</ele><time>2026-04-26T07:35:58.323Z</time></trkpt><trkpt lat="37.9234687" lon="13.6713803"><ele>545.0</ele><time>2026-04-26T07:35:59.323Z</time></trkpt><trkpt lat="37.9233828" lon="13.6715217"><ele>546.0</ele><time>2026-04-26T07:36:00.322Z</time></trkpt><trkpt lat="37.9232697" lon="13.6716515"><ele>547.0</ele><time>2026-04-26T07:36:01.323Z</time></trkpt><trkpt lat="37.923133" lon="13.6717356"><ele>543.6666666666667</ele><time>2026-04-26T07:36:02.323Z</time></trkpt><trkpt lat="37.9229698" lon="13.6717769"><ele>540.3333333333334</ele><time>2026-04-26T07:36:03.323Z</time></trkpt><trkpt lat="37.9227794" lon="13.6717571"><ele>537.0</ele><time>2026-04-26T07:36:04.323Z</time></trkpt><trkpt lat="37.9225657" lon="13.6717084"><ele>536.6666666666666</ele><time>2026-04-26T07:36:05.323Z</time></trkpt><trkpt lat="37.9223456" lon="13.6716625"><ele>536.3333333333333</ele><time>2026-04-26T07:36:06.323Z</time></trkpt><trkpt lat="37.9221281" lon="13.6716187"><ele>536.0</ele><time>2026-04-26T07:36:07.323Z</time></trkpt><trkpt lat="37.9219058" lon="13.6715746"><ele>535.6666666666666</ele><time>2026-04-26T07:36:08.323Z</time></trkpt><trkpt lat="37.9216858" lon="13.6715275"><ele>535.3333333333334</ele><time>2026-04-26T07:36:09.322Z</time></trkpt><trkpt lat="37.9214826" lon="13.6714852"><ele>535.0</ele><time>2026-04-26T07:36:10.323Z</time></trkpt><trkpt lat="37.9212989" lon="13.6714475"><ele>535.0</ele><time>2026-04-26T07:36:11.323Z</time></trkpt><trkpt lat="37.9211262" lon="13.6714322"><ele>535.0</ele><time>2026-04-26T07:36:12.323Z</time></trkpt><trkpt lat="37.9209646" lon="13.6714577"><ele>535.0</ele><time>2026-04-26T07:36:13.323Z</time></trkpt><trkpt lat="37.9208193" lon="13.6715296"><ele>534.5</ele><time>2026-04-26T07:36:14.322Z</time></trkpt><trkpt lat="37.9206797" lon="13.6716379"><ele>534.0</ele><time>2026-04-26T07:36:15.323Z</time></trkpt><trkpt lat="37.9205531" lon="13.6717418"><ele>533.5</ele><time>2026-04-26T07:36:16.323Z</time></trkpt><trkpt lat="37.9204329" lon="13.6718192"><ele>533.0</ele><time>2026-04-26T07:36:17.323Z</time></trkpt><trkpt lat="37.9203056" lon="13.6718468"><ele>533.0</ele><time>2026-04-26T07:36:18.323Z</time></trkpt><trkpt lat="37.9201556" lon="13.671828"><ele>533.0</ele><time>2026-04-26T07:36:19.323Z</time></trkpt><trkpt lat="37.9200068" lon="13.6717938"><ele>533.0</ele><time>2026-04-26T07:36:20.323Z</time></trkpt><trkpt lat="37.9198512" lon="13.67175"><ele>532.75</ele><time>2026-04-26T07:36:21.323Z</time></trkpt><trkpt lat="37.9197018" lon="13.6717368"><ele>532.5</ele><time>2026-04-26T07:36:22.323Z</time></trkpt><trkpt lat="37.9195646" lon="13.6717649"><ele>532.25</ele><time>2026-04-26T07:36:23.323Z</time></trkpt><trkpt lat="37.9194491" lon="13.6718587"><ele>532.0</ele><time>2026-04-26T07:36:24.323Z</time></trkpt><trkpt lat="37.9193268" lon="13.6719891"><ele>532.3333333333334</ele><time>2026-04-26T07:36:25.323Z</time></trkpt><trkpt lat="37.9192064" lon="13.6721313"><ele>532.6666666666666</ele><time>2026-04-26T07:36:26.323Z</time></trkpt><trkpt lat="37.9190784" lon="13.6722686"><ele>533.0</ele><time>2026-04-26T07:36:27.323Z</time></trkpt><trkpt lat="37.9189492" lon="13.6723866"><ele>533.0</ele><time>2026-04-26T07:36:28.323Z</time></trkpt><trkpt lat="37.918821" lon="13.6724761"><ele>533.0</ele><time>2026-04-26T07:36:29.323Z</time></trkpt><trkpt lat="37.9186946" lon="13.6725424"><ele>533.0</ele><time>2026-04-26T07:36:30.323Z</time></trkpt><trkpt lat="37.9185655" lon="13.6725886"><ele>533.0</ele><time>2026-04-26T07:36:31.323Z</time></trkpt><trkpt lat="37.9184331" lon="13.6726288"><ele>531.5</ele><time>2026-04-26T07:36:32.323Z</time></trkpt><trkpt lat="37.9182964" lon="13.6726699"><ele>530.0</ele><time>2026-04-26T07:36:33.323Z</time></trkpt><trkpt lat="37.9181658" lon="13.6727029"><ele>528.5</ele><time>2026-04-26T07:36:34.323Z</time></trkpt><trkpt lat="37.9180376" lon="13.6727387"><ele>527.0</ele><time>2026-04-26T07:36:35.323Z</time></trkpt><trkpt lat="37.9179141" lon="13.6727735"><ele>526.25</ele><time>2026-04-26T07:36:36.323Z</time></trkpt><trkpt lat="37.9177996" lon="13.6728106"><ele>525.5</ele><time>2026-04-26T07:36:37.323Z</time></trkpt><trkpt lat="37.9176827" lon="13.6728452"><ele>524.75</ele><time>2026-04-26T07:36:38.323Z</time></trkpt><trkpt lat="37.9175678" lon="13.6728774"><ele>524.0</ele><time>2026-04-26T07:36:39.323Z</time></trkpt><trkpt lat="37.9174512" lon="13.672912"><ele>523.0</ele><time>2026-04-26T07:36:40.322Z</time></trkpt><trkpt lat="37.9173329" lon="13.6729469"><ele>522.0</ele><time>2026-04-26T07:36:41.323Z</time></trkpt><trkpt lat="37.9172196" lon="13.6729819"><ele>521.0</ele><time>2026-04-26T07:36:42.323Z</time></trkpt><trkpt lat="37.9171159" lon="13.6730152"><ele>520.0</ele><time>2026-04-26T07:36:43.323Z</time></trkpt><trkpt lat="37.917015" lon="13.6730456"><ele>519.0</ele><time>2026-04-26T07:36:44.323Z</time></trkpt><trkpt lat="37.9169183" lon="13.6730558"><ele>519.0</ele><time>2026-04-26T07:36:45.323Z</time></trkpt><trkpt lat="37.9168278" lon="13.6730427"><ele>519.0</ele><time>2026-04-26T07:36:46.323Z</time></trkpt><trkpt lat="37.9167369" lon="13.6730089"><ele>519.0</ele><time>2026-04-26T07:36:47.323Z</time></trkpt><trkpt lat="37.9166415" lon="13.6729591"><ele>519.0</ele><time>2026-04-26T07:36:48.323Z</time></trkpt><trkpt lat="37.9165351" lon="13.6729257"><ele>519.0</ele><time>2026-04-26T07:36:49.323Z</time></trkpt><trkpt lat="37.9164139" lon="13.6729199"><ele>518.25</ele><time>2026-04-26T07:36:50.323Z</time></trkpt><trkpt lat="37.9162851" lon="13.6729505"><ele>517.5</ele><time>2026-04-26T07:36:51.323Z</time></trkpt><trkpt lat="37.9161509" lon="13.6730162"><ele>516.75</ele><time>2026-04-26T07:36:52.323Z</time></trkpt><trkpt lat="37.9160125" lon="13.6731075"><ele>516.0</ele><time>2026-04-26T07:36:53.323Z</time></trkpt><trkpt lat="37.915864" lon="13.6732002"><ele>515.3333333333334</ele><time>2026-04-26T07:36:54.323Z</time></trkpt><trkpt lat="37.9157114" lon="13.673294"><ele>514.6666666666667</ele><time>2026-04-26T07:36:55.323Z</time></trkpt><trkpt lat="37.9155673" lon="13.6733864"><ele>514.0</ele><time>2026-04-26T07:36:56.323Z</time></trkpt><trkpt lat="37.9154288" lon="13.6734722"><ele>514.0</ele><time>2026-04-26T07:36:57.323Z</time></trkpt><trkpt lat="37.9153007" lon="13.673539"><ele>514.0</ele><time>2026-04-26T07:36:58.322Z</time></trkpt><trkpt lat="37.915179" lon="13.6735913"><ele>514.0</ele><time>2026-04-26T07:36:59.323Z</time></trkpt><trkpt lat="37.9150513" lon="13.6736168"><ele>514.0</ele><time>2026-04-26T07:37:00.322Z</time></trkpt><trkpt lat="37.9149129" lon="13.6736328"><ele>509.0</ele><time>2026-04-26T07:37:01.323Z</time></trkpt><trkpt lat="37.9147358" lon="13.6736529"><ele>504.0</ele><time>2026-04-26T07:37:02.323Z</time></trkpt><trkpt lat="37.9145359" lon="13.6736837"><ele>499.0</ele><time>2026-04-26T07:37:03.323Z</time></trkpt><trkpt lat="37.9143289" lon="13.6737098"><ele>498.33333333333337</ele><time>2026-04-26T07:37:04.323Z</time></trkpt><trkpt lat="37.9141351" lon="13.673725"><ele>497.66666666666663</ele><time>2026-04-26T07:37:05.322Z</time></trkpt><trkpt lat="37.9139717" lon="13.6737292"><ele>497.0</ele><time>2026-04-26T07:37:06.323Z</time></trkpt><trkpt lat="37.9138267" lon="13.6737122"><ele>497.0</ele><time>2026-04-26T07:37:07.323Z</time></trkpt><trkpt lat="37.9136854" lon="13.6736601"><ele>497.0</ele><time>2026-04-26T07:37:08.323Z</time></trkpt><trkpt lat="37.913551" lon="13.673582"><ele>497.0</ele><time>2026-04-26T07:37:09.322Z</time></trkpt><trkpt lat="37.9134215" lon="13.6734779"><ele>497.0</ele><time>2026-04-26T07:37:10.323Z</time></trkpt><trkpt lat="37.9133013" lon="13.6733924"><ele>499.0</ele><time>2026-04-26T07:37:11.323Z</time></trkpt><trkpt lat="37.9131916" lon="13.673321"><ele>501.0</ele><time>2026-04-26T07:37:12.323Z</time></trkpt><trkpt lat="37.9130873" lon="13.6732868"><ele>503.0</ele><time>2026-04-26T07:37:13.323Z</time></trkpt><trkpt lat="37.9129794" lon="13.6732929"><ele>505.0</ele><time>2026-04-26T07:37:14.323Z</time></trkpt><trkpt lat="37.9128671" lon="13.6733608"><ele>505.0</ele><time>2026-04-26T07:37:15.323Z</time></trkpt><trkpt lat="37.9127552" lon="13.673482"><ele>505.0</ele><time>2026-04-26T07:37:16.323Z</time></trkpt><trkpt lat="37.9126191" lon="13.673603"><ele>505.0</ele><time>2026-04-26T07:37:17.323Z</time></trkpt><trkpt lat="37.9124604" lon="13.6737214"><ele>499.6666666666667</ele><time>2026-04-26T07:37:18.323Z</time></trkpt><trkpt lat="37.9123086" lon="13.67384"><ele>494.33333333333337</ele><time>2026-04-26T07:37:19.322Z</time></trkpt><trkpt lat="37.9121785" lon="13.6739399"><ele>489.0</ele><time>2026-04-26T07:37:20.323Z</time></trkpt><trkpt lat="37.912049" lon="13.6739905"><ele>489.0</ele><time>2026-04-26T07:37:21.323Z</time></trkpt><trkpt lat="37.9119024" lon="13.674005"><ele>489.0</ele><time>2026-04-26T07:37:22.323Z</time></trkpt><trkpt lat="37.9117252" lon="13.6739822"><ele>489.0</ele><time>2026-04-26T07:37:23.323Z</time></trkpt><trkpt lat="37.9115465" lon="13.673956"><ele>488.33333333333337</ele><time>2026-04-26T07:37:24.322Z</time></trkpt><trkpt lat="37.9113802" lon="13.6739216"><ele>487.6666666666667</ele><time>2026-04-26T07:37:25.323Z</time></trkpt><trkpt lat="37.9112346" lon="13.6738597"><ele>487.0</ele><time>2026-04-26T07:37:26.323Z</time></trkpt><trkpt lat="37.9110843" lon="13.6737581"><ele>487.0</ele><time>2026-04-26T07:37:27.323Z</time></trkpt><trkpt lat="37.9109432" lon="13.6736308"><ele>487.0</ele><time>2026-04-26T07:37:28.323Z</time></trkpt><trkpt lat="37.9108066" lon="13.6734963"><ele>487.0</ele><time>2026-04-26T07:37:29.323Z</time></trkpt><trkpt lat="37.9106788" lon="13.6733732"><ele>487.25</ele><time>2026-04-26T07:37:30.323Z</time></trkpt><trkpt lat="37.9105656" lon="13.6732534"><ele>487.5</ele><time>2026-04-26T07:37:31.323Z</time></trkpt><trkpt lat="37.9104687" lon="13.6731335"><ele>487.75</ele><time>2026-04-26T07:37:32.322Z</time></trkpt><trkpt lat="37.9103732" lon="13.6730035"><ele>488.0</ele><time>2026-04-26T07:37:33.323Z</time></trkpt><trkpt lat="37.9102729" lon="13.6728512"><ele>484.3333333333333</ele><time>2026-04-26T07:37:34.323Z</time></trkpt><trkpt lat="37.9101652" lon="13.6726569"><ele>480.66666666666663</ele><time>2026-04-26T07:37:35.323Z</time></trkpt><trkpt lat="37.9100547" lon="13.6724557"><ele>477.0</ele><time>2026-04-26T07:37:36.323Z</time></trkpt><trkpt lat="37.9099441" lon="13.6722544"><ele>477.0</ele><time>2026-04-26T07:37:37.323Z</time></trkpt><trkpt lat="37.9098427" lon="13.6720592"><ele>477.0</ele><time>2026-04-26T07:37:38.323Z</time></trkpt><trkpt lat="37.9097432" lon="13.6718757"><ele>477.0</ele><time>2026-04-26T07:37:39.323Z</time></trkpt><trkpt lat="37.9096539" lon="13.671691"><ele>476.33333333333337</ele><time>2026-04-26T07:37:40.323Z</time></trkpt><trkpt lat="37.9095692" lon="13.6714898"><ele>475.6666666666667</ele><time>2026-04-26T07:37:41.323Z</time></trkpt><trkpt lat="37.9095043" lon="13.6712749"><ele>475.0</ele><time>2026-04-26T07:37:42.323Z</time></trkpt><trkpt lat="37.9094608" lon="13.6710929"><ele>475.0</ele><time>2026-04-26T07:37:43.323Z</time></trkpt><trkpt lat="37.9094166" lon="13.6709227"><ele>475.0</ele><time>2026-04-26T07:37:44.323Z</time></trkpt><trkpt lat="37.9093648" lon="13.6707831"><ele>475.0</ele><time>2026-04-26T07:37:45.323Z</time></trkpt><trkpt lat="37.909285" lon="13.6706962"><ele>475.0</ele><time>2026-04-26T07:37:46.323Z</time></trkpt><trkpt lat="37.9091649" lon="13.6706583"><ele>473.25</ele><time>2026-04-26T07:37:47.323Z</time></trkpt><trkpt lat="37.909028" lon="13.6706417"><ele>471.5</ele><time>2026-04-26T07:37:48.323Z</time></trkpt><trkpt lat="37.9088818" lon="13.6706598"><ele>469.75</ele><time>2026-04-26T07:37:49.323Z</time></trkpt><trkpt lat="37.9087202" lon="13.670694"><ele>468.0</ele><time>2026-04-26T07:37:50.323Z</time></trkpt><trkpt lat="37.9085556" lon="13.6707709"><ele>468.0</ele><time>2026-04-26T07:37:51.323Z</time></trkpt><trkpt lat="37.9083836" lon="13.6708847"><ele>468.0</ele><time>2026-04-26T07:37:52.323Z</time></trkpt><trkpt lat="37.9082024" lon="13.6710184"><ele>468.0</ele><time>2026-04-26T07:37:53.323Z</time></trkpt><trkpt lat="37.908022" lon="13.6711676"><ele>466.66666666666663</ele><time>2026-04-26T07:37:54.323Z</time></trkpt><trkpt lat="37.9078384" lon="13.6713126"><ele>465.3333333333333</ele><time>2026-04-26T07:37:55.323Z</time></trkpt><trkpt lat="37.9076654" lon="13.6714483"><ele>464.0</ele><time>2026-04-26T07:37:56.323Z</time></trkpt><trkpt lat="37.907508" lon="13.6715902"><ele>466.66666666666663</ele><time>2026-04-26T07:37:57.323Z</time></trkpt><trkpt lat="37.9073621" lon="13.6717582"><ele>469.33333333333337</ele><time>2026-04-26T07:37:58.323Z</time></trkpt><trkpt lat="37.9072215" lon="13.6719508"><ele>472.0</ele><time>2026-04-26T07:37:59.323Z</time></trkpt><trkpt lat="37.9070814" lon="13.6721562"><ele>472.0</ele><time>2026-04-26T07:38:00.323Z</time></trkpt><trkpt lat="37.9069625" lon="13.6723345"><ele>472.0</ele><time>2026-04-26T07:38:01.323Z</time></trkpt><trkpt lat="37.9068661" lon="13.6724957"><ele>472.0</ele><time>2026-04-26T07:38:02.322Z</time></trkpt><trkpt lat="37.9068096" lon="13.6726657"><ele>472.0</ele><time>2026-04-26T07:38:03.323Z</time></trkpt><trkpt lat="37.9067938" lon="13.6728692"><ele>472.0</ele><time>2026-04-26T07:38:04.322Z</time></trkpt><trkpt lat="37.9067813" lon="13.6730679"><ele>472.0</ele><time>2026-04-26T07:38:05.323Z</time></trkpt><trkpt lat="37.9067388" lon="13.6732623"><ele>475.33333333333337</ele><time>2026-04-26T07:38:06.323Z</time></trkpt><trkpt lat="37.9066648" lon="13.67347"><ele>478.66666666666663</ele><time>2026-04-26T07:38:07.323Z</time></trkpt><trkpt lat="37.9065689" lon="13.6736851"><ele>482.0</ele><time>2026-04-26T07:38:08.323Z</time></trkpt><trkpt lat="37.9064758" lon="13.6738871"><ele>482.0</ele><time>2026-04-26T07:38:09.323Z</time></trkpt><trkpt lat="37.9063923" lon="13.6740566"><ele>482.0</ele><time>2026-04-26T07:38:10.323Z</time></trkpt><trkpt lat="37.9063099" lon="13.6741829"><ele>482.0</ele><time>2026-04-26T07:38:11.323Z</time></trkpt><trkpt lat="37.906206" lon="13.6742864"><ele>482.0</ele><time>2026-04-26T07:38:12.323Z</time></trkpt><trkpt lat="37.9060752" lon="13.674371"><ele>480.66666666666663</ele><time>2026-04-26T07:38:13.323Z</time></trkpt><trkpt lat="37.9059159" lon="13.6744487"><ele>479.33333333333337</ele><time>2026-04-26T07:38:14.323Z</time></trkpt><trkpt lat="37.9057421" lon="13.6745311"><ele>478.0</ele><time>2026-04-26T07:38:15.323Z</time></trkpt><trkpt lat="37.905553" lon="13.6746268"><ele>481.33333333333337</ele><time>2026-04-26T07:38:16.323Z</time></trkpt><trkpt lat="37.9053537" lon="13.6747258"><ele>484.66666666666663</ele><time>2026-04-26T07:38:17.323Z</time></trkpt><trkpt lat="37.9051686" lon="13.6748171"><ele>488.0</ele><time>2026-04-26T07:38:18.323Z</time></trkpt><trkpt lat="37.9050188" lon="13.6749026"><ele>489.66666666666663</ele><time>2026-04-26T07:38:19.323Z</time></trkpt><trkpt lat="37.9048965" lon="13.675013"><ele>491.33333333333337</ele><time>2026-04-26T07:38:20.323Z</time></trkpt><trkpt lat="37.9047984" lon="13.6751778"><ele>493.0</ele><time>2026-04-26T07:38:21.323Z</time></trkpt><trkpt lat="37.9047122" lon="13.6753704"><ele>493.0</ele><time>2026-04-26T07:38:22.322Z</time></trkpt><trkpt lat="37.9046454" lon="13.6755518"><ele>492.99999999999994</ele><time>2026-04-26T07:38:23.323Z</time></trkpt><trkpt lat="37.9045895" lon="13.6756958"><ele>492.99999999999994</ele><time>2026-04-26T07:38:24.323Z</time></trkpt><trkpt lat="37.9045339" lon="13.6757874"><ele>493.0</ele><time>2026-04-26T07:38:25.323Z</time></trkpt><trkpt lat="37.9044686" lon="13.6758094"><ele>493.0</ele><time>2026-04-26T07:38:26.323Z</time></trkpt><trkpt lat="37.9044053" lon="13.6757833"><ele>493.0</ele><time>2026-04-26T07:38:27.323Z</time></trkpt><trkpt lat="37.9043515" lon="13.6757213"><ele>493.0</ele><time>2026-04-26T07:38:28.323Z</time></trkpt><trkpt lat="37.9043232" lon="13.6755948"><ele>493.0</ele><time>2026-04-26T07:38:29.323Z</time></trkpt><trkpt lat="37.904324" lon="13.6754083"><ele>493.0</ele><time>2026-04-26T07:38:30.323Z</time></trkpt><trkpt lat="37.9043329" lon="13.675202"><ele>496.0</ele><time>2026-04-26T07:38:31.323Z</time></trkpt><trkpt lat="37.9043408" lon="13.6749697"><ele>499.0</ele><time>2026-04-26T07:38:32.323Z</time></trkpt><trkpt lat="37.9043388" lon="13.6747519"><ele>502.0</ele><time>2026-04-26T07:38:33.323Z</time></trkpt><trkpt lat="37.9043505" lon="13.6745626"><ele>504.0</ele><time>2026-04-26T07:38:34.323Z</time></trkpt><trkpt lat="37.9043912" lon="13.6743958"><ele>506.0</ele><time>2026-04-26T07:38:35.323Z</time></trkpt><trkpt lat="37.9044789" lon="13.6742186"><ele>508.0</ele><time>2026-04-26T07:38:36.323Z</time></trkpt><trkpt lat="37.9046005" lon="13.6740394"><ele>508.0</ele><time>2026-04-26T07:38:37.323Z</time></trkpt><trkpt lat="37.9047211" lon="13.673842"><ele>508.0</ele><time>2026-04-26T07:38:38.323Z</time></trkpt><trkpt lat="37.9048317" lon="13.6736625"><ele>508.0</ele><time>2026-04-26T07:38:39.323Z</time></trkpt><trkpt lat="37.9049102" lon="13.6734962"><ele>513.3333333333334</ele><time>2026-04-26T07:38:40.323Z</time></trkpt><trkpt lat="37.9049541" lon="13.6733141"><ele>518.6666666666666</ele><time>2026-04-26T07:38:41.323Z</time></trkpt><trkpt lat="37.9049732" lon="13.6730899"><ele>524.0</ele><time>2026-04-26T07:38:42.323Z</time></trkpt><trkpt lat="37.9049853" lon="13.672829"><ele>525.3333333333333</ele><time>2026-04-26T07:38:43.323Z</time></trkpt><trkpt lat="37.9049946" lon="13.6725596"><ele>526.6666666666666</ele><time>2026-04-26T07:38:44.323Z</time></trkpt><trkpt lat="37.9050143" lon="13.6722932"><ele>528.0</ele><time>2026-04-26T07:38:45.323Z</time></trkpt><trkpt lat="37.9050339" lon="13.6720554"><ele>529.0</ele><time>2026-04-26T07:38:46.322Z</time></trkpt><trkpt lat="37.905026" lon="13.6718819"><ele>530.0</ele><time>2026-04-26T07:38:47.323Z</time></trkpt><trkpt lat="37.9050089" lon="13.671748"><ele>531.0</ele><time>2026-04-26T07:38:48.323Z</time></trkpt><trkpt lat="37.9049264" lon="13.6716179"><ele>532.0</ele><time>2026-04-26T07:38:49.323Z</time></trkpt><trkpt lat="37.9048325" lon="13.6714935"><ele>532.0</ele><time>2026-04-26T07:38:50.323Z</time></trkpt><trkpt lat="37.9047602" lon="13.6713585"><ele>532.0</ele><time>2026-04-26T07:38:51.323Z</time></trkpt><trkpt lat="37.9047263" lon="13.6711922"><ele>532.0</ele><time>2026-04-26T07:38:52.323Z</time></trkpt><trkpt lat="37.9047324" lon="13.6710093"><ele>532.0</ele><time>2026-04-26T07:38:53.323Z</time></trkpt><trkpt lat="37.9047443" lon="13.6708365"><ele>531.8000000000001</ele><time>2026-04-26T07:38:54.323Z</time></trkpt><trkpt lat="37.9047477" lon="13.6706973"><ele>531.6</ele><time>2026-04-26T07:38:55.323Z</time></trkpt><trkpt lat="37.9047104" lon="13.6705913"><ele>531.4000000000001</ele><time>2026-04-26T07:38:56.322Z</time></trkpt><trkpt lat="37.9046379" lon="13.6705183"><ele>531.2</ele><time>2026-04-26T07:38:57.323Z</time></trkpt><trkpt lat="37.9045533" lon="13.6704975"><ele>531.0</ele><time>2026-04-26T07:38:58.323Z</time></trkpt><trkpt lat="37.9044613" lon="13.6705357"><ele>531.0</ele><time>2026-04-26T07:38:59.323Z</time></trkpt><trkpt lat="37.9043909" lon="13.6706284"><ele>531.0</ele><time>2026-04-26T07:39:00.323Z</time></trkpt><trkpt lat="37.9043708" lon="13.6707514"><ele>531.0</ele><time>2026-04-26T07:39:01.323Z</time></trkpt><trkpt lat="37.9043902" lon="13.6708904"><ele>531.0</ele><time>2026-04-26T07:39:02.322Z</time></trkpt><trkpt lat="37.9044432" lon="13.6710165"><ele>531.0</ele><time>2026-04-26T07:39:03.323Z</time></trkpt><trkpt lat="37.9044953" lon="13.671145"><ele>531.2</ele><time>2026-04-26T07:39:04.323Z</time></trkpt><trkpt lat="37.9045396" lon="13.6712711"><ele>531.4000000000001</ele><time>2026-04-26T07:39:05.323Z</time></trkpt><trkpt lat="37.9045674" lon="13.6713974"><ele>531.6</ele><time>2026-04-26T07:39:06.323Z</time></trkpt><trkpt lat="37.9045785" lon="13.6715194"><ele>531.8000000000001</ele><time>2026-04-26T07:39:07.323Z</time></trkpt><trkpt lat="37.904551" lon="13.6716401"><ele>532.0</ele><time>2026-04-26T07:39:08.323Z</time></trkpt><trkpt lat="37.9044984" lon="13.6717427"><ele>532.0</ele><time>2026-04-26T07:39:09.323Z</time></trkpt><trkpt lat="37.9044378" lon="13.6718396"><ele>532.0</ele><time>2026-04-26T07:39:10.323Z</time></trkpt><trkpt lat="37.9043399" lon="13.6719188"><ele>532.0</ele><time>2026-04-26T07:39:11.323Z</time></trkpt><trkpt lat="37.9042012" lon="13.6719749"><ele>532.0</ele><time>2026-04-26T07:39:12.323Z</time></trkpt><trkpt lat="37.9040464" lon="13.6720215"><ele>536.0</ele><time>2026-04-26T07:39:13.322Z</time></trkpt><trkpt lat="37.9038852" lon="13.6720778"><ele>540.0</ele><time>2026-04-26T07:39:14.323Z</time></trkpt><trkpt lat="37.9037325" lon="13.6721435"><ele>544.0</ele><time>2026-04-26T07:39:15.323Z</time></trkpt><trkpt lat="37.9035981" lon="13.6722356"><ele>544.0</ele><time>2026-04-26T07:39:16.323Z</time></trkpt><trkpt lat="37.9034918" lon="13.6723638"><ele>544.0</ele><time>2026-04-26T07:39:17.323Z</time></trkpt><trkpt lat="37.9034237" lon="13.6725051"><ele>544.0</ele><time>2026-04-26T07:39:18.323Z</time></trkpt><trkpt lat="37.9033586" lon="13.6726234"><ele>544.0</ele><time>2026-04-26T07:39:19.323Z</time></trkpt><trkpt lat="37.9032689" lon="13.6726795"><ele>545.8</ele><time>2026-04-26T07:39:20.323Z</time></trkpt><trkpt lat="37.9031811" lon="13.6726836"><ele>547.5999999999999</ele><time>2026-04-26T07:39:21.323Z</time></trkpt><trkpt lat="37.9031196" lon="13.6726214"><ele>549.4</ele><time>2026-04-26T07:39:22.323Z</time></trkpt><trkpt lat="37.9030908" lon="13.6725102"><ele>551.1999999999999</ele><time>2026-04-26T07:39:23.323Z</time></trkpt><trkpt lat="37.9031036" lon="13.6723714"><ele>553.0</ele><time>2026-04-26T07:39:24.323Z</time></trkpt><trkpt lat="37.9031524" lon="13.6722247"><ele>553.0</ele><time>2026-04-26T07:39:25.323Z</time></trkpt><trkpt lat="37.9032281" lon="13.6720737"><ele>553.0</ele><time>2026-04-26T07:39:26.323Z</time></trkpt><trkpt lat="37.9033091" lon="13.6719042"><ele>553.0</ele><time>2026-04-26T07:39:27.323Z</time></trkpt><trkpt lat="37.9033993" lon="13.6717269"><ele>553.0</ele><time>2026-04-26T07:39:28.323Z</time></trkpt><trkpt lat="37.9034845" lon="13.6715337"><ele>553.0</ele><time>2026-04-26T07:39:29.323Z</time></trkpt><trkpt lat="37.9035421" lon="13.671311"><ele>553.0</ele><time>2026-04-26T07:39:30.323Z</time></trkpt><trkpt lat="37.9035784" lon="13.6710933"><ele>553.0</ele><time>2026-04-26T07:39:31.323Z</time></trkpt><trkpt lat="37.9035852" lon="13.6708814"><ele>553.0</ele><time>2026-04-26T07:39:32.323Z</time></trkpt><trkpt lat="37.9035744" lon="13.6706805"><ele>553.0</ele><time>2026-04-26T07:39:33.323Z</time></trkpt><trkpt lat="37.9035566" lon="13.6705143"><ele>553.0</ele><time>2026-04-26T07:39:34.323Z</time></trkpt><trkpt lat="37.9035125" lon="13.6703798"><ele>553.0</ele><time>2026-04-26T07:39:35.323Z</time></trkpt><trkpt lat="37.9034391" lon="13.6702861"><ele>553.0</ele><time>2026-04-26T07:39:36.323Z</time></trkpt><trkpt lat="37.903336" lon="13.6702436"><ele>553.0</ele><time>2026-04-26T07:39:37.323Z</time></trkpt><trkpt lat="37.903228" lon="13.6702818"><ele>553.0</ele><time>2026-04-26T07:39:38.323Z</time></trkpt><trkpt lat="37.9031392" lon="13.6703812"><ele>557.6666666666667</ele><time>2026-04-26T07:39:39.323Z</time></trkpt><trkpt lat="37.9030618" lon="13.6705205"><ele>562.3333333333334</ele><time>2026-04-26T07:39:40.323Z</time></trkpt><trkpt lat="37.9029741" lon="13.6706963"><ele>567.0</ele><time>2026-04-26T07:39:41.323Z</time></trkpt><trkpt lat="37.9028759" lon="13.6709008"><ele>566.3333333333334</ele><time>2026-04-26T07:39:42.322Z</time></trkpt><trkpt lat="37.9027796" lon="13.6711107"><ele>565.6666666666667</ele><time>2026-04-26T07:39:43.322Z</time></trkpt><trkpt lat="37.9027072" lon="13.6713328"><ele>565.0</ele><time>2026-04-26T07:39:44.323Z</time></trkpt><trkpt lat="37.902669" lon="13.671546"><ele>565.0</ele><time>2026-04-26T07:39:45.323Z</time></trkpt><trkpt lat="37.9026531" lon="13.6717472"><ele>565.0</ele><time>2026-04-26T07:39:46.323Z</time></trkpt><trkpt lat="37.9026334" lon="13.6719031"><ele>565.0</ele><time>2026-04-26T07:39:47.322Z</time></trkpt><trkpt lat="37.9026026" lon="13.6720146"><ele>565.0</ele><time>2026-04-26T07:39:48.323Z</time></trkpt><trkpt lat="37.90254" lon="13.6720871"><ele>569.0</ele><time>2026-04-26T07:39:49.323Z</time></trkpt><trkpt lat="37.9024626" lon="13.6721077"><ele>573.0</ele><time>2026-04-26T07:39:50.323Z</time></trkpt><trkpt lat="37.9023826" lon="13.6720503"><ele>577.0</ele><time>2026-04-26T07:39:51.323Z</time></trkpt><trkpt lat="37.9023514" lon="13.6719617"><ele>581.0</ele><time>2026-04-26T07:39:52.323Z</time></trkpt><trkpt lat="37.9023516" lon="13.6718274"><ele>585.0</ele><time>2026-04-26T07:39:53.323Z</time></trkpt><trkpt lat="37.9023755" lon="13.6716554"><ele>585.3333333333334</ele><time>2026-04-26T07:39:54.323Z</time></trkpt><trkpt lat="37.9024081" lon="13.6714637"><ele>585.6666666666667</ele><time>2026-04-26T07:39:55.323Z</time></trkpt><trkpt lat="37.9024332" lon="13.6712431"><ele>586.0</ele><time>2026-04-26T07:39:56.323Z</time></trkpt><trkpt lat="37.9024549" lon="13.6709927"><ele>587.3333333333334</ele><time>2026-04-26T07:39:57.323Z</time></trkpt><trkpt lat="37.9024761" lon="13.6707226"><ele>588.6666666666666</ele><time>2026-04-26T07:39:58.323Z</time></trkpt><trkpt lat="37.9024972" lon="13.6704622"><ele>590.0</ele><time>2026-04-26T07:39:59.322Z</time></trkpt><trkpt lat="37.9025161" lon="13.6702218"><ele>591.6666666666666</ele><time>2026-04-26T07:40:00.323Z</time></trkpt><trkpt lat="37.9025352" lon="13.670001"><ele>593.3333333333334</ele><time>2026-04-26T07:40:01.323Z</time></trkpt><trkpt lat="37.9025432" lon="13.6698136"><ele>595.0</ele><time>2026-04-26T07:40:02.323Z</time></trkpt><trkpt lat="37.9025211" lon="13.6696487"><ele>595.0</ele><time>2026-04-26T07:40:03.323Z</time></trkpt><trkpt lat="37.9024508" lon="13.6695051"><ele>595.0</ele><time>2026-04-26T07:40:04.323Z</time></trkpt><trkpt lat="37.9023286" lon="13.6693926"><ele>595.0</ele><time>2026-04-26T07:40:05.323Z</time></trkpt><trkpt lat="37.9021845" lon="13.66928"><ele>596.0</ele><time>2026-04-26T07:40:06.323Z</time></trkpt><trkpt lat="37.9020327" lon="13.6691656"><ele>597.0</ele><time>2026-04-26T07:40:07.323Z</time></trkpt><trkpt lat="37.9018891" lon="13.6690307"><ele>598.0</ele><time>2026-04-26T07:40:08.323Z</time></trkpt><trkpt lat="37.9017558" lon="13.6688815"><ele>599.6666666666667</ele><time>2026-04-26T07:40:09.323Z</time></trkpt><trkpt lat="37.9016245" lon="13.6687155"><ele>601.3333333333334</ele><time>2026-04-26T07:40:10.322Z</time></trkpt><trkpt lat="37.9015043" lon="13.6685271"><ele>603.0</ele><time>2026-04-26T07:40:11.323Z</time></trkpt><trkpt lat="37.9013913" lon="13.6683245"><ele>603.0</ele><time>2026-04-26T07:40:12.323Z</time></trkpt><trkpt lat="37.9012934" lon="13.6681145"><ele>603.0</ele><time>2026-04-26T07:40:13.323Z</time></trkpt><trkpt lat="37.9011961" lon="13.6679169"><ele>603.0</ele><time>2026-04-26T07:40:14.323Z</time></trkpt><trkpt lat="37.9011043" lon="13.6677433"><ele>602.0</ele><time>2026-04-26T07:40:15.323Z</time></trkpt><trkpt lat="37.9009917" lon="13.6675983"><ele>601.0</ele><time>2026-04-26T07:40:16.323Z</time></trkpt><trkpt lat="37.900853" lon="13.6675157"><ele>600.0</ele><time>2026-04-26T07:40:17.323Z</time></trkpt><trkpt lat="37.9007003" lon="13.6674671"><ele>600.0</ele><time>2026-04-26T07:40:18.323Z</time></trkpt><trkpt lat="37.9005238" lon="13.6674459"><ele>600.0</ele><time>2026-04-26T07:40:19.323Z</time></trkpt><trkpt lat="37.9003408" lon="13.6674269"><ele>600.0</ele><time>2026-04-26T07:40:20.323Z</time></trkpt><trkpt lat="37.9001609" lon="13.6673987"><ele>599.0</ele><time>2026-04-26T07:40:21.323Z</time></trkpt><trkpt lat="37.9000025" lon="13.6673342"><ele>598.0</ele><time>2026-04-26T07:40:22.323Z</time></trkpt><trkpt lat="37.8998684" lon="13.6672273"><ele>597.0</ele><time>2026-04-26T07:40:23.323Z</time></trkpt><trkpt lat="37.899746" lon="13.6670918"><ele>597.0</ele><time>2026-04-26T07:40:24.323Z</time></trkpt><trkpt lat="37.8996184" lon="13.6669629"><ele>597.0</ele><time>2026-04-26T07:40:25.323Z</time></trkpt><trkpt lat="37.8994696" lon="13.6668762"><ele>597.0</ele><time>2026-04-26T07:40:26.323Z</time></trkpt><trkpt lat="37.89928" lon="13.6668403"><ele>599.6666666666666</ele><time>2026-04-26T07:40:27.323Z</time></trkpt><trkpt lat="37.8990726" lon="13.6668396"><ele>602.3333333333333</ele><time>2026-04-26T07:40:28.323Z</time></trkpt><trkpt lat="37.8988698" lon="13.6668349"><ele>605.0</ele><time>2026-04-26T07:40:29.323Z</time></trkpt><trkpt lat="37.8986694" lon="13.6668233"><ele>605.0</ele><time>2026-04-26T07:40:30.323Z</time></trkpt><trkpt lat="37.8984815" lon="13.6667963"><ele>605.0</ele><time>2026-04-26T07:40:31.323Z</time></trkpt><trkpt lat="37.8982964" lon="13.6667466"><ele>605.0</ele><time>2026-04-26T07:40:32.323Z</time></trkpt><trkpt lat="37.8981116" lon="13.6666828"><ele>604.0</ele><time>2026-04-26T07:40:33.323Z</time></trkpt><trkpt lat="37.8979323" lon="13.666612"><ele>603.0</ele><time>2026-04-26T07:40:34.323Z</time></trkpt><trkpt lat="37.8977619" lon="13.6665343"><ele>602.0</ele><time>2026-04-26T07:40:35.32Z</time></trkpt><trkpt lat="37.8976026" lon="13.6664321"><ele>602.3333333333333</ele><time>2026-04-26T07:40:36.323Z</time></trkpt><trkpt lat="37.8974574" lon="13.6663018"><ele>602.6666666666666</ele><time>2026-04-26T07:40:37.323Z</time></trkpt><trkpt lat="37.8973238" lon="13.66613"><ele>603.0</ele><time>2026-04-26T07:40:38.323Z</time></trkpt><trkpt lat="37.8972031" lon="13.6659439"><ele>600.3333333333334</ele><time>2026-04-26T07:40:39.323Z</time></trkpt><trkpt lat="37.8970757" lon="13.6657629"><ele>597.6666666666667</ele><time>2026-04-26T07:40:40.323Z</time></trkpt><trkpt lat="37.8969489" lon="13.6655978"><ele>595.0</ele><time>2026-04-26T07:40:41.323Z</time></trkpt><trkpt lat="37.8967989" lon="13.6654498"><ele>596.3333333333334</ele><time>2026-04-26T07:40:42.323Z</time></trkpt><trkpt lat="37.8966213" lon="13.6653513"><ele>597.6666666666666</ele><time>2026-04-26T07:40:43.323Z</time></trkpt><trkpt lat="37.8964419" lon="13.6652742"><ele>599.0</ele><time>2026-04-26T07:40:44.323Z</time></trkpt><trkpt lat="37.896255" lon="13.6652177"><ele>595.0</ele><time>2026-04-26T07:40:45.323Z</time></trkpt><trkpt lat="37.8960505" lon="13.6652047"><ele>591.0</ele><time>2026-04-26T07:40:46.323Z</time></trkpt><trkpt lat="37.8958638" lon="13.6652185"><ele>587.0</ele><time>2026-04-26T07:40:47.323Z</time></trkpt><trkpt lat="37.8957084" lon="13.6652364"><ele>587.0</ele><time>2026-04-26T07:40:48.322Z</time></trkpt><trkpt lat="37.8955888" lon="13.6652366"><ele>587.0</ele><time>2026-04-26T07:40:49.323Z</time></trkpt><trkpt lat="37.8954842" lon="13.6651793"><ele>587.0</ele><time>2026-04-26T07:40:50.323Z</time></trkpt><trkpt lat="37.8953919" lon="13.6650885"><ele>587.0</ele><time>2026-04-26T07:40:51.323Z</time></trkpt><trkpt lat="37.8953333" lon="13.6649333"><ele>587.0</ele><time>2026-04-26T07:40:52.322Z</time></trkpt><trkpt lat="37.8952972" lon="13.6647445"><ele>587.0</ele><time>2026-04-26T07:40:53.323Z</time></trkpt><trkpt lat="37.8952744" lon="13.6645264"><ele>587.0</ele><time>2026-04-26T07:40:54.323Z</time></trkpt><trkpt lat="37.8952456" lon="13.6643027"><ele>586.0</ele><time>2026-04-26T07:40:55.322Z</time></trkpt><trkpt lat="37.8952129" lon="13.6640666"><ele>585.0</ele><time>2026-04-26T07:40:56.323Z</time></trkpt><trkpt lat="37.8951838" lon="13.6638377"><ele>584.0</ele><time>2026-04-26T07:40:57.323Z</time></trkpt><trkpt lat="37.8951809" lon="13.6636121"><ele>583.6666666666666</ele><time>2026-04-26T07:40:58.323Z</time></trkpt><trkpt lat="37.8951977" lon="13.6633818"><ele>583.3333333333334</ele><time>2026-04-26T07:40:59.322Z</time></trkpt><trkpt lat="37.8952425" lon="13.6631562"><ele>583.0</ele><time>2026-04-26T07:41:00.323Z</time></trkpt><trkpt lat="37.8952881" lon="13.662943"><ele>583.3333333333334</ele><time>2026-04-26T07:41:01.323Z</time></trkpt><trkpt lat="37.8953232" lon="13.6627412"><ele>583.6666666666666</ele><time>2026-04-26T07:41:02.323Z</time></trkpt><trkpt lat="37.8953303" lon="13.6625433"><ele>584.0</ele><time>2026-04-26T07:41:03.323Z</time></trkpt><trkpt lat="37.8952922" lon="13.6623336"><ele>584.0</ele><time>2026-04-26T07:41:04.323Z</time></trkpt><trkpt lat="37.8952133" lon="13.6621082"><ele>584.0</ele><time>2026-04-26T07:41:05.323Z</time></trkpt><trkpt lat="37.895118" lon="13.6618713"><ele>584.0</ele><time>2026-04-26T07:41:06.323Z</time></trkpt><trkpt lat="37.8950305" lon="13.6616439"><ele>586.6666666666666</ele><time>2026-04-26T07:41:07.323Z</time></trkpt><trkpt lat="37.89495" lon="13.6614295"><ele>589.3333333333334</ele><time>2026-04-26T07:41:08.323Z</time></trkpt><trkpt lat="37.8948813" lon="13.6612337"><ele>592.0</ele><time>2026-04-26T07:41:09.323Z</time></trkpt><trkpt lat="37.8948262" lon="13.6610511"><ele>593.0</ele><time>2026-04-26T07:41:10.323Z</time></trkpt><trkpt lat="37.8948126" lon="13.6608575"><ele>594.0</ele><time>2026-04-26T07:41:11.323Z</time></trkpt><trkpt lat="37.89483" lon="13.6606419"><ele>595.0</ele><time>2026-04-26T07:41:12.323Z</time></trkpt><trkpt lat="37.8948577" lon="13.6604093"><ele>594.6666666666667</ele><time>2026-04-26T07:41:13.323Z</time></trkpt><trkpt lat="37.8948885" lon="13.6601646"><ele>594.3333333333334</ele><time>2026-04-26T07:41:14.323Z</time></trkpt><trkpt lat="37.894923" lon="13.6599314"><ele>594.0</ele><time>2026-04-26T07:41:15.323Z</time></trkpt><trkpt lat="37.8949499" lon="13.6597102"><ele>594.0</ele><time>2026-04-26T07:41:16.323Z</time></trkpt><trkpt lat="37.8949649" lon="13.6595101"><ele>594.0</ele><time>2026-04-26T07:41:17.323Z</time></trkpt><trkpt lat="37.8949465" lon="13.6593256"><ele>594.0</ele><time>2026-04-26T07:41:18.323Z</time></trkpt><trkpt lat="37.8948938" lon="13.6591518"><ele>593.6666666666666</ele><time>2026-04-26T07:41:19.322Z</time></trkpt><trkpt lat="37.8948118" lon="13.6590019"><ele>593.3333333333333</ele><time>2026-04-26T07:41:20.323Z</time></trkpt><trkpt lat="37.8946884" lon="13.6588528"><ele>593.0</ele><time>2026-04-26T07:41:21.323Z</time></trkpt><trkpt lat="37.8945319" lon="13.6587378"><ele>594.6666666666666</ele><time>2026-04-26T07:41:22.323Z</time></trkpt><trkpt lat="37.8943726" lon="13.6586148"><ele>596.3333333333334</ele><time>2026-04-26T07:41:23.323Z</time></trkpt><trkpt lat="37.8942293" lon="13.6584981"><ele>598.0</ele><time>2026-04-26T07:41:24.323Z</time></trkpt><trkpt lat="37.8941046" lon="13.6583836"><ele>594.3333333333334</ele><time>2026-04-26T07:41:25.323Z</time></trkpt><trkpt lat="37.894006" lon="13.6582464"><ele>590.6666666666666</ele><time>2026-04-26T07:41:26.323Z</time></trkpt><trkpt lat="37.8939206" lon="13.6580742"><ele>587.0</ele><time>2026-04-26T07:41:27.323Z</time></trkpt><trkpt lat="37.8938458" lon="13.6578846"><ele>588.6666666666666</ele><time>2026-04-26T07:41:28.323Z</time></trkpt><trkpt lat="37.8937687" lon="13.6577017"><ele>590.3333333333334</ele><time>2026-04-26T07:41:29.323Z</time></trkpt><trkpt lat="37.8936898" lon="13.6575106"><ele>592.0</ele><time>2026-04-26T07:41:30.323Z</time></trkpt><trkpt lat="37.8936054" lon="13.6573315"><ele>592.0</ele><time>2026-04-26T07:41:31.323Z</time></trkpt><trkpt lat="37.8935113" lon="13.6571611"><ele>592.0</ele><time>2026-04-26T07:41:32.323Z</time></trkpt><trkpt lat="37.8934064" lon="13.6570014"><ele>592.0</ele><time>2026-04-26T07:41:33.323Z</time></trkpt><trkpt lat="37.8932812" lon="13.6568637"><ele>591.0</ele><time>2026-04-26T07:41:34.323Z</time></trkpt><trkpt lat="37.8931407" lon="13.6567607"><ele>590.0</ele><time>2026-04-26T07:41:35.323Z</time></trkpt><trkpt lat="37.8929874" lon="13.6566802"><ele>589.0</ele><time>2026-04-26T07:41:36.323Z</time></trkpt><trkpt lat="37.8928074" lon="13.656614"><ele>589.0</ele><time>2026-04-26T07:41:37.323Z</time></trkpt><trkpt lat="37.8926128" lon="13.6565649"><ele>589.0</ele><time>2026-04-26T07:41:38.323Z</time></trkpt><trkpt lat="37.892411" lon="13.6565232"><ele>589.0</ele><time>2026-04-26T07:41:39.323Z</time></trkpt><trkpt lat="37.8922064" lon="13.6564799"><ele>586.3333333333334</ele><time>2026-04-26T07:41:40.323Z</time></trkpt><trkpt lat="37.8920008" lon="13.6564431"><ele>583.6666666666666</ele><time>2026-04-26T07:41:41.323Z</time></trkpt><trkpt lat="37.8918179" lon="13.6564164"><ele>581.0</ele><time>2026-04-26T07:41:42.322Z</time></trkpt><trkpt lat="37.8916649" lon="13.6563732"><ele>579.3333333333333</ele><time>2026-04-26T07:41:43.323Z</time></trkpt><trkpt lat="37.891512" lon="13.6562816"><ele>577.6666666666666</ele><time>2026-04-26T07:41:44.323Z</time></trkpt><trkpt lat="37.8913552" lon="13.6561572"><ele>576.0</ele><time>2026-04-26T07:41:45.323Z</time></trkpt><trkpt lat="37.8911991" lon="13.656031"><ele>582.6666666666666</ele><time>2026-04-26T07:41:46.323Z</time></trkpt><trkpt lat="37.891045" lon="13.6559208"><ele>589.3333333333333</ele><time>2026-04-26T07:41:47.323Z</time></trkpt><trkpt lat="37.8908977" lon="13.6558545"><ele>596.0</ele><time>2026-04-26T07:41:48.323Z</time></trkpt><trkpt lat="37.8907207" lon="13.6558343"><ele>596.0</ele><time>2026-04-26T07:41:49.322Z</time></trkpt><trkpt lat="37.890522" lon="13.6558375"><ele>596.0</ele><time>2026-04-26T07:41:50.323Z</time></trkpt><trkpt lat="37.8903009" lon="13.6558635"><ele>596.0</ele><time>2026-04-26T07:41:51.323Z</time></trkpt><trkpt lat="37.8900601" lon="13.6558817"><ele>595.0</ele><time>2026-04-26T07:41:52.323Z</time></trkpt><trkpt lat="37.8898013" lon="13.6558996"><ele>594.0</ele><time>2026-04-26T07:41:53.323Z</time></trkpt><trkpt lat="37.8895291" lon="13.6559163"><ele>594.0</ele><time>2026-04-26T07:41:54.323Z</time></trkpt><trkpt lat="37.889264" lon="13.6559335"><ele>594.0</ele><time>2026-04-26T07:41:55.323Z</time></trkpt><trkpt lat="37.8890282" lon="13.6559531"><ele>595.0</ele><time>2026-04-26T07:41:56.323Z</time></trkpt><trkpt lat="37.8888262" lon="13.6559978"><ele>596.0</ele><time>2026-04-26T07:41:57.323Z</time></trkpt><trkpt lat="37.8886499" lon="13.6560503"><ele>597.0</ele><time>2026-04-26T07:41:58.323Z</time></trkpt><trkpt lat="37.8885068" lon="13.6560911"><ele>598.2</ele><time>2026-04-26T07:41:59.323Z</time></trkpt><trkpt lat="37.8883958" lon="13.6561096"><ele>599.4000000000001</ele><time>2026-04-26T07:42:00.323Z</time></trkpt><trkpt lat="37.888327" lon="13.656066"><ele>600.5999999999999</ele><time>2026-04-26T07:42:01.323Z</time></trkpt><trkpt lat="37.8882795" lon="13.6559917"><ele>601.8</ele><time>2026-04-26T07:42:02.323Z</time></trkpt><trkpt lat="37.8882764" lon="13.655873"><ele>603.0</ele><time>2026-04-26T07:42:03.323Z</time></trkpt><trkpt lat="37.8883222" lon="13.6557506"><ele>603.0</ele><time>2026-04-26T07:42:04.323Z</time></trkpt><trkpt lat="37.8884173" lon="13.6556596"><ele>603.0</ele><time>2026-04-26T07:42:05.323Z</time></trkpt><trkpt lat="37.8885601" lon="13.6555886"><ele>603.0</ele><time>2026-04-26T07:42:06.323Z</time></trkpt><trkpt lat="37.888725" lon="13.6555032"><ele>601.0</ele><time>2026-04-26T07:42:07.323Z</time></trkpt><trkpt lat="37.8889032" lon="13.6553782"><ele>599.0</ele><time>2026-04-26T07:42:08.323Z</time></trkpt><trkpt lat="37.8890899" lon="13.6552538"><ele>597.0</ele><time>2026-04-26T07:42:09.322Z</time></trkpt><trkpt lat="37.8892664" lon="13.655138"><ele>602.25</ele><time>2026-04-26T07:42:10.323Z</time></trkpt><trkpt lat="37.8893998" lon="13.6550378"><ele>607.5</ele><time>2026-04-26T07:42:11.323Z</time></trkpt><trkpt lat="37.8894995" lon="13.6549518"><ele>612.75</ele><time>2026-04-26T07:42:12.323Z</time></trkpt><trkpt lat="37.8895575" lon="13.6548557"><ele>618.0</ele><time>2026-04-26T07:42:13.323Z</time></trkpt><trkpt lat="37.8895613" lon="13.654749"><ele>618.0</ele><time>2026-04-26T07:42:14.323Z</time></trkpt><trkpt lat="37.8895144" lon="13.6546332"><ele>618.0</ele><time>2026-04-26T07:42:15.323Z</time></trkpt><trkpt lat="37.8894157" lon="13.6545825"><ele>618.0</ele><time>2026-04-26T07:42:16.323Z</time></trkpt><trkpt lat="37.889287" lon="13.6545974"><ele>618.0</ele><time>2026-04-26T07:42:17.322Z</time></trkpt><trkpt lat="37.8891455" lon="13.6546836"><ele>615.0</ele><time>2026-04-26T07:42:18.323Z</time></trkpt><trkpt lat="37.8889869" lon="13.654781"><ele>612.0</ele><time>2026-04-26T07:42:19.323Z</time></trkpt><trkpt lat="37.8888087" lon="13.6548711"><ele>609.0</ele><time>2026-04-26T07:42:20.323Z</time></trkpt><trkpt lat="37.8886195" lon="13.6549148"><ele>609.0</ele><time>2026-04-26T07:42:21.323Z</time></trkpt><trkpt lat="37.8884352" lon="13.6549082"><ele>609.0</ele><time>2026-04-26T07:42:22.323Z</time></trkpt><trkpt lat="37.8882281" lon="13.6548629"><ele>609.0</ele><time>2026-04-26T07:42:23.323Z</time></trkpt><trkpt lat="37.8880178" lon="13.6548048"><ele>611.5</ele><time>2026-04-26T07:42:24.323Z</time></trkpt><trkpt lat="37.8877905" lon="13.6547232"><ele>614.0</ele><time>2026-04-26T07:42:25.323Z</time></trkpt><trkpt lat="37.8875561" lon="13.654624"><ele>616.5</ele><time>2026-04-26T07:42:26.323Z</time></trkpt><trkpt lat="37.8873208" lon="13.6545167"><ele>619.0</ele><time>2026-04-26T07:42:27.323Z</time></trkpt><trkpt lat="37.887092" lon="13.6543984"><ele>619.0</ele><time>2026-04-26T07:42:28.323Z</time></trkpt><trkpt lat="37.8868617" lon="13.6542825"><ele>619.0</ele><time>2026-04-26T07:42:29.323Z</time></trkpt><trkpt lat="37.8866283" lon="13.6541459"><ele>624.0</ele><time>2026-04-26T07:42:30.323Z</time></trkpt><trkpt lat="37.8863908" lon="13.6540009"><ele>629.0</ele><time>2026-04-26T07:42:31.322Z</time></trkpt><trkpt lat="37.8861629" lon="13.6538442"><ele>629.0</ele><time>2026-04-26T07:42:32.323Z</time></trkpt><trkpt lat="37.8859442" lon="13.6536949"><ele>629.0</ele><time>2026-04-26T07:42:33.323Z</time></trkpt><trkpt lat="37.8857466" lon="13.6535608"><ele>629.6666666666666</ele><time>2026-04-26T07:42:34.323Z</time></trkpt><trkpt lat="37.885572" lon="13.6534195"><ele>630.3333333333334</ele><time>2026-04-26T07:42:35.323Z</time></trkpt><trkpt lat="37.8854258" lon="13.6532608"><ele>631.0</ele><time>2026-04-26T07:42:36.323Z</time></trkpt><trkpt lat="37.8852822" lon="13.653068"><ele>631.0</ele><time>2026-04-26T07:42:37.323Z</time></trkpt><trkpt lat="37.8851516" lon="13.6528782"><ele>631.0</ele><time>2026-04-26T07:42:38.323Z</time></trkpt><trkpt lat="37.8850416" lon="13.6527334"><ele>631.0</ele><time>2026-04-26T07:42:39.323Z</time></trkpt><trkpt lat="37.8849303" lon="13.6526244"><ele>632.5</ele><time>2026-04-26T07:42:40.323Z</time></trkpt><trkpt lat="37.8848077" lon="13.6525591"><ele>634.0</ele><time>2026-04-26T07:42:41.323Z</time></trkpt><trkpt lat="37.8846778" lon="13.6525085"><ele>635.5</ele><time>2026-04-26T07:42:42.323Z</time></trkpt><trkpt lat="37.8845498" lon="13.6524535"><ele>637.0</ele><time>2026-04-26T07:42:43.323Z</time></trkpt><trkpt lat="37.884427" lon="13.652369"><ele>637.0</ele><time>2026-04-26T07:42:44.323Z</time></trkpt><trkpt lat="37.8843149" lon="13.6522323"><ele>637.0</ele><time>2026-04-26T07:42:45.321Z</time></trkpt><trkpt lat="37.8842167" lon="13.6520692"><ele>637.0</ele><time>2026-04-26T07:42:46.322Z</time></trkpt><trkpt lat="37.8841398" lon="13.6518965"><ele>638.0</ele><time>2026-04-26T07:42:47.322Z</time></trkpt><trkpt lat="37.884062" lon="13.6517225"><ele>639.0</ele><time>2026-04-26T07:42:48.322Z</time></trkpt><trkpt lat="37.8839616" lon="13.6515677"><ele>640.0</ele><time>2026-04-26T07:42:49.322Z</time></trkpt><trkpt lat="37.8838338" lon="13.6514281"><ele>640.0</ele><time>2026-04-26T07:42:50.322Z</time></trkpt><trkpt lat="37.8836756" lon="13.6512994"><ele>640.0</ele><time>2026-04-26T07:42:51.322Z</time></trkpt><trkpt lat="37.8835174" lon="13.6511748"><ele>640.0</ele><time>2026-04-26T07:42:52.322Z</time></trkpt><trkpt lat="37.8833665" lon="13.651056"><ele>639.25</ele><time>2026-04-26T07:42:53.322Z</time></trkpt><trkpt lat="37.8832339" lon="13.6509489"><ele>638.5</ele><time>2026-04-26T07:42:54.322Z</time></trkpt><trkpt lat="37.88314" lon="13.6508568"><ele>637.75</ele><time>2026-04-26T07:42:55.322Z</time></trkpt><trkpt lat="37.8830691" lon="13.6507397"><ele>637.0</ele><time>2026-04-26T07:42:56.321Z</time></trkpt><trkpt lat="37.8830044" lon="13.6505584"><ele>637.0</ele><time>2026-04-26T07:42:57.322Z</time></trkpt><trkpt lat="37.8829076" lon="13.6503519"><ele>637.0</ele><time>2026-04-26T07:42:58.322Z</time></trkpt><trkpt lat="37.8827734" lon="13.6501315"><ele>637.0</ele><time>2026-04-26T07:42:59.322Z</time></trkpt><trkpt lat="37.8826125" lon="13.6499017"><ele>641.0</ele><time>2026-04-26T07:43:00.322Z</time></trkpt><trkpt lat="37.8824327" lon="13.6496695"><ele>645.0</ele><time>2026-04-26T07:43:01.322Z</time></trkpt><trkpt lat="37.8822463" lon="13.6494355"><ele>645.0</ele><time>2026-04-26T07:43:02.322Z</time></trkpt><trkpt lat="37.8820623" lon="13.6492259"><ele>645.0</ele><time>2026-04-26T07:43:03.321Z</time></trkpt><trkpt lat="37.8818818" lon="13.6490268"><ele>632.0</ele><time>2026-04-26T07:43:04.322Z</time></trkpt><trkpt lat="37.8817115" lon="13.6488364"><ele>619.0</ele><time>2026-04-26T07:43:05.322Z</time></trkpt><trkpt lat="37.8815442" lon="13.6486372"><ele>622.3333333333334</ele><time>2026-04-26T07:43:06.322Z</time></trkpt><trkpt lat="37.8813855" lon="13.6484383"><ele>625.6666666666666</ele><time>2026-04-26T07:43:07.322Z</time></trkpt><trkpt lat="37.8812361" lon="13.6482411"><ele>629.0</ele><time>2026-04-26T07:43:08.322Z</time></trkpt><trkpt lat="37.8810903" lon="13.6480514"><ele>629.0</ele><time>2026-04-26T07:43:09.322Z</time></trkpt><trkpt lat="37.8809451" lon="13.6478779"><ele>629.0</ele><time>2026-04-26T07:43:10.322Z</time></trkpt><trkpt lat="37.8807972" lon="13.6477347"><ele>629.0</ele><time>2026-04-26T07:43:11.322Z</time></trkpt><trkpt lat="37.880659" lon="13.6476369"><ele>626.25</ele><time>2026-04-26T07:43:12.322Z</time></trkpt><trkpt lat="37.8805129" lon="13.6475754"><ele>623.5</ele><time>2026-04-26T07:43:13.322Z</time></trkpt><trkpt lat="37.8803793" lon="13.6475586"><ele>620.75</ele><time>2026-04-26T07:43:14.322Z</time></trkpt><trkpt lat="37.8802459" lon="13.6475611"><ele>618.0</ele><time>2026-04-26T07:43:15.322Z</time></trkpt><trkpt lat="37.8801015" lon="13.6475845"><ele>614.0</ele><time>2026-04-26T07:43:16.322Z</time></trkpt><trkpt lat="37.8799543" lon="13.6475715"><ele>610.0</ele><time>2026-04-26T07:43:17.322Z</time></trkpt><trkpt lat="37.8797967" lon="13.6475163"><ele>606.0</ele><time>2026-04-26T07:43:18.322Z</time></trkpt><trkpt lat="37.8796194" lon="13.6474076"><ele>606.0</ele><time>2026-04-26T07:43:19.322Z</time></trkpt><trkpt lat="37.879445" lon="13.6472691"><ele>606.0</ele><time>2026-04-26T07:43:20.322Z</time></trkpt><trkpt lat="37.8792691" lon="13.647123"><ele>606.0</ele><time>2026-04-26T07:43:21.322Z</time></trkpt><trkpt lat="37.8791206" lon="13.6469721"><ele>604.75</ele><time>2026-04-26T07:43:22.322Z</time></trkpt><trkpt lat="37.8790045" lon="13.6468292"><ele>603.5</ele><time>2026-04-26T07:43:23.322Z</time></trkpt><trkpt lat="37.878906" lon="13.6466999"><ele>602.25</ele><time>2026-04-26T07:43:24.321Z</time></trkpt><trkpt lat="37.8788359" lon="13.6465612"><ele>601.0</ele><time>2026-04-26T07:43:25.322Z</time></trkpt><trkpt lat="37.8788051" lon="13.6464063"><ele>601.0</ele><time>2026-04-26T07:43:26.322Z</time></trkpt><trkpt lat="37.8788076" lon="13.6462179"><ele>601.0</ele><time>2026-04-26T07:43:27.322Z</time></trkpt><trkpt lat="37.8788295" lon="13.6460156"><ele>601.0</ele><time>2026-04-26T07:43:28.322Z</time></trkpt><trkpt lat="37.8788442" lon="13.64582"><ele>599.0</ele><time>2026-04-26T07:43:29.322Z</time></trkpt><trkpt lat="37.8788512" lon="13.6456413"><ele>597.0</ele><time>2026-04-26T07:43:30.322Z</time></trkpt><trkpt lat="37.8788304" lon="13.6454896"><ele>595.0</ele><time>2026-04-26T07:43:31.322Z</time></trkpt><trkpt lat="37.8787665" lon="13.645357"><ele>593.0</ele><time>2026-04-26T07:43:32.322Z</time></trkpt><trkpt lat="37.8786567" lon="13.6452606"><ele>592.5</ele><time>2026-04-26T07:43:33.322Z</time></trkpt><trkpt lat="37.8785458" lon="13.6452216"><ele>592.0</ele><time>2026-04-26T07:43:34.322Z</time></trkpt><trkpt lat="37.8784207" lon="13.6452582"><ele>591.5</ele><time>2026-04-26T07:43:35.322Z</time></trkpt><trkpt lat="37.8783121" lon="13.6453365"><ele>591.0</ele><time>2026-04-26T07:43:36.322Z</time></trkpt><trkpt lat="37.8782109" lon="13.6454463"><ele>594.2</ele><time>2026-04-26T07:43:37.322Z</time></trkpt><trkpt lat="37.8781253" lon="13.6455411"><ele>597.4000000000001</ele><time>2026-04-26T07:43:38.322Z</time></trkpt><trkpt lat="37.8780348" lon="13.645609"><ele>600.6</ele><time>2026-04-26T07:43:39.322Z</time></trkpt><trkpt lat="37.8779388" lon="13.6456177"><ele>603.8000000000001</ele><time>2026-04-26T07:43:40.322Z</time></trkpt><trkpt lat="37.8778534" lon="13.6455748"><ele>607.0</ele><time>2026-04-26T07:43:41.322Z</time></trkpt><trkpt lat="37.8777693" lon="13.6454917"><ele>607.0</ele><time>2026-04-26T07:43:42.322Z</time></trkpt><trkpt lat="37.8777085" lon="13.6453805"><ele>607.0</ele><time>2026-04-26T07:43:43.322Z</time></trkpt><trkpt lat="37.8776873" lon="13.6452668"><ele>607.0</ele><time>2026-04-26T07:43:44.321Z</time></trkpt><trkpt lat="37.8776774" lon="13.6451437"><ele>607.0</ele><time>2026-04-26T07:43:45.321Z</time></trkpt><trkpt lat="37.8776556" lon="13.6450134"><ele>607.0</ele><time>2026-04-26T07:43:46.322Z</time></trkpt><trkpt lat="37.8775943" lon="13.6449196"><ele>603.0</ele><time>2026-04-26T07:43:47.322Z</time></trkpt><trkpt lat="37.8774927" lon="13.6448569"><ele>599.0</ele><time>2026-04-26T07:43:48.322Z</time></trkpt><trkpt lat="37.8773655" lon="13.6448345"><ele>595.0</ele><time>2026-04-26T07:43:49.322Z</time></trkpt><trkpt lat="37.8772228" lon="13.6448382"><ele>591.0</ele><time>2026-04-26T07:43:50.322Z</time></trkpt><trkpt lat="37.8770763" lon="13.644837"><ele>591.0</ele><time>2026-04-26T07:43:51.322Z</time></trkpt><trkpt lat="37.8769237" lon="13.644808"><ele>591.0</ele><time>2026-04-26T07:43:52.322Z</time></trkpt><trkpt lat="37.8767742" lon="13.6447616"><ele>591.0</ele><time>2026-04-26T07:43:53.322Z</time></trkpt><trkpt lat="37.8766211" lon="13.6446812"><ele>589.3333333333334</ele><time>2026-04-26T07:43:54.322Z</time></trkpt><trkpt lat="37.8764761" lon="13.6445733"><ele>587.6666666666667</ele><time>2026-04-26T07:43:55.322Z</time></trkpt><trkpt lat="37.8763311" lon="13.6444507"><ele>586.0</ele><time>2026-04-26T07:43:56.321Z</time></trkpt><trkpt lat="37.8761833" lon="13.6443118"><ele>582.6666666666667</ele><time>2026-04-26T07:43:57.322Z</time></trkpt><trkpt lat="37.8760342" lon="13.6441628"><ele>579.3333333333334</ele><time>2026-04-26T07:43:58.321Z</time></trkpt><trkpt lat="37.8758739" lon="13.6439992"><ele>576.0</ele><time>2026-04-26T07:43:59.322Z</time></trkpt><trkpt lat="37.8757083" lon="13.6438211"><ele>576.0</ele><time>2026-04-26T07:44:00.322Z</time></trkpt><trkpt lat="37.875541" lon="13.6436413"><ele>576.0</ele><time>2026-04-26T07:44:01.322Z</time></trkpt><trkpt lat="37.8753683" lon="13.6434623"><ele>576.0</ele><time>2026-04-26T07:44:02.322Z</time></trkpt><trkpt lat="37.8751965" lon="13.6432793"><ele>572.3333333333334</ele><time>2026-04-26T07:44:03.322Z</time></trkpt><trkpt lat="37.8750299" lon="13.643095"><ele>568.6666666666667</ele><time>2026-04-26T07:44:04.322Z</time></trkpt><trkpt lat="37.8748572" lon="13.6429117"><ele>565.0</ele><time>2026-04-26T07:44:05.322Z</time></trkpt><trkpt lat="37.8746845" lon="13.6427298"><ele>563.5</ele><time>2026-04-26T07:44:06.321Z</time></trkpt><trkpt lat="37.8745123" lon="13.6425428"><ele>562.0</ele><time>2026-04-26T07:44:07.322Z</time></trkpt><trkpt lat="37.8743409" lon="13.6423569"><ele>559.0</ele><time>2026-04-26T07:44:08.322Z</time></trkpt><trkpt lat="37.8741715" lon="13.642172"><ele>556.0</ele><time>2026-04-26T07:44:09.322Z</time></trkpt><trkpt lat="37.874006" lon="13.6419891"><ele>553.0</ele><time>2026-04-26T07:44:10.321Z</time></trkpt><trkpt lat="37.8738446" lon="13.6418109"><ele>551.6666666666667</ele><time>2026-04-26T07:44:11.322Z</time></trkpt><trkpt lat="37.8736809" lon="13.6416242"><ele>550.3333333333334</ele><time>2026-04-26T07:44:12.322Z</time></trkpt><trkpt lat="37.8735166" lon="13.6414278"><ele>549.0</ele><time>2026-04-26T07:44:13.322Z</time></trkpt><trkpt lat="37.873351" lon="13.641218"><ele>547.0</ele><time>2026-04-26T07:44:14.322Z</time></trkpt><trkpt lat="37.8731907" lon="13.6409849"><ele>545.0</ele><time>2026-04-26T07:44:15.321Z</time></trkpt><trkpt lat="37.8730438" lon="13.6407354"><ele>545.0</ele><time>2026-04-26T07:44:16.322Z</time></trkpt><trkpt lat="37.8729104" lon="13.6404836"><ele>545.0</ele><time>2026-04-26T07:44:17.322Z</time></trkpt><trkpt lat="37.8727806" lon="13.640234"><ele>544.5</ele><time>2026-04-26T07:44:18.322Z</time></trkpt><trkpt lat="37.8726485" lon="13.6399978"><ele>544.0</ele><time>2026-04-26T07:44:19.322Z</time></trkpt><trkpt lat="37.8725054" lon="13.6397808"><ele>544.0</ele><time>2026-04-26T07:44:20.322Z</time></trkpt><trkpt lat="37.8723476" lon="13.6395879"><ele>544.0</ele><time>2026-04-26T07:44:21.322Z</time></trkpt><trkpt lat="37.8721767" lon="13.639412"><ele>544.0</ele><time>2026-04-26T07:44:22.322Z</time></trkpt><trkpt lat="37.8719969" lon="13.6392682"><ele>544.0</ele><time>2026-04-26T07:44:23.322Z</time></trkpt><trkpt lat="37.8718186" lon="13.6391345"><ele>544.0</ele><time>2026-04-26T07:44:24.322Z</time></trkpt><trkpt lat="37.8716413" lon="13.6390026"><ele>544.0</ele><time>2026-04-26T07:44:25.322Z</time></trkpt><trkpt lat="37.8714654" lon="13.6388712"><ele>543.0</ele><time>2026-04-26T07:44:26.322Z</time></trkpt><trkpt lat="37.8712978" lon="13.6387573"><ele>542.0</ele><time>2026-04-26T07:44:27.322Z</time></trkpt><trkpt lat="37.8711467" lon="13.6386718"><ele>541.0</ele><time>2026-04-26T07:44:28.322Z</time></trkpt><trkpt lat="37.8710032" lon="13.6386127"><ele>543.3333333333334</ele><time>2026-04-26T07:44:29.322Z</time></trkpt><trkpt lat="37.8708537" lon="13.6386002"><ele>545.6666666666666</ele><time>2026-04-26T07:44:30.322Z</time></trkpt><trkpt lat="37.8706893" lon="13.6386217"><ele>548.0</ele><time>2026-04-26T07:44:31.322Z</time></trkpt><trkpt lat="37.8705038" lon="13.6386529"><ele>548.0</ele><time>2026-04-26T07:44:32.322Z</time></trkpt><trkpt lat="37.8703087" lon="13.638687"><ele>548.0</ele><time>2026-04-26T07:44:33.322Z</time></trkpt><trkpt lat="37.8701036" lon="13.6387244"><ele>548.0</ele><time>2026-04-26T07:44:34.322Z</time></trkpt><trkpt lat="37.8698907" lon="13.6387571"><ele>545.6666666666666</ele><time>2026-04-26T07:44:35.322Z</time></trkpt><trkpt lat="37.869683" lon="13.638791"><ele>543.3333333333334</ele><time>2026-04-26T07:44:36.322Z</time></trkpt><trkpt lat="37.869483" lon="13.6388279"><ele>541.0</ele><time>2026-04-26T07:44:37.322Z</time></trkpt><trkpt lat="37.8692932" lon="13.6388593"><ele>540.6666666666667</ele><time>2026-04-26T07:44:38.322Z</time></trkpt><trkpt lat="37.8691022" lon="13.6388841"><ele>540.3333333333334</ele><time>2026-04-26T07:44:39.322Z</time></trkpt><trkpt lat="37.8689023" lon="13.6388937"><ele>540.0</ele><time>2026-04-26T07:44:40.322Z</time></trkpt><trkpt lat="37.8686999" lon="13.6388885"><ele>540.0</ele><time>2026-04-26T07:44:41.322Z</time></trkpt><trkpt lat="37.868503" lon="13.6388709"><ele>540.0</ele><time>2026-04-26T07:44:42.322Z</time></trkpt><trkpt lat="37.8683135" lon="13.6388655"><ele>540.0</ele><time>2026-04-26T07:44:43.322Z</time></trkpt><trkpt lat="37.8681211" lon="13.6388943"><ele>540.6666666666666</ele><time>2026-04-26T07:44:44.322Z</time></trkpt><trkpt lat="37.8679176" lon="13.6389469"><ele>541.3333333333333</ele><time>2026-04-26T07:44:45.322Z</time></trkpt><trkpt lat="37.8677151" lon="13.6390063"><ele>542.0</ele><time>2026-04-26T07:44:46.322Z</time></trkpt><trkpt lat="37.8675246" lon="13.6390651"><ele>543.0</ele><time>2026-04-26T07:44:47.321Z</time></trkpt><trkpt lat="37.8673409" lon="13.6391209"><ele>544.0</ele><time>2026-04-26T07:44:48.322Z</time></trkpt><trkpt lat="37.8671733" lon="13.6391711"><ele>545.0</ele><time>2026-04-26T07:44:49.322Z</time></trkpt><trkpt lat="37.8670232" lon="13.6392162"><ele>545.0</ele><time>2026-04-26T07:44:50.322Z</time></trkpt><trkpt lat="37.8668782" lon="13.6392649"><ele>545.0</ele><time>2026-04-26T07:44:51.322Z</time></trkpt><trkpt lat="37.8667537" lon="13.6393229"><ele>545.0</ele><time>2026-04-26T07:44:52.322Z</time></trkpt><trkpt lat="37.8666561" lon="13.6393912"><ele>545.0</ele><time>2026-04-26T07:44:53.322Z</time></trkpt><trkpt lat="37.8665661" lon="13.6394857"><ele>543.3333333333333</ele><time>2026-04-26T07:44:54.322Z</time></trkpt><trkpt lat="37.8664946" lon="13.6395956"><ele>541.6666666666666</ele><time>2026-04-26T07:44:55.322Z</time></trkpt><trkpt lat="37.8664394" lon="13.6396977"><ele>540.0</ele><time>2026-04-26T07:44:56.321Z</time></trkpt><trkpt lat="37.866396" lon="13.6397884"><ele>538.3333333333334</ele><time>2026-04-26T07:44:57.322Z</time></trkpt><trkpt lat="37.8663571" lon="13.6398725"><ele>536.6666666666667</ele><time>2026-04-26T07:44:58.322Z</time></trkpt><trkpt lat="37.8663197" lon="13.639951"><ele>535.0</ele><time>2026-04-26T07:44:59.322Z</time></trkpt><trkpt lat="37.8662799" lon="13.6400267"><ele>535.0</ele><time>2026-04-26T07:45:00.322Z</time></trkpt><trkpt lat="37.8662244" lon="13.6400986"><ele>535.0</ele><time>2026-04-26T07:45:01.322Z</time></trkpt><trkpt lat="37.8661538" lon="13.6401561"><ele>535.0</ele><time>2026-04-26T07:45:02.322Z</time></trkpt><trkpt lat="37.8660648" lon="13.6402088"><ele>535.0</ele><time>2026-04-26T07:45:03.321Z</time></trkpt><trkpt lat="37.8659765" lon="13.6402507"><ele>535.0</ele><time>2026-04-26T07:45:04.322Z</time></trkpt><trkpt lat="37.8658995" lon="13.6402905"><ele>535.0</ele><time>2026-04-26T07:45:05.322Z</time></trkpt><trkpt lat="37.8658348" lon="13.6403403"><ele>536.5</ele><time>2026-04-26T07:45:06.322Z</time></trkpt><trkpt lat="37.8657849" lon="13.6404081"><ele>538.0</ele><time>2026-04-26T07:45:07.322Z</time></trkpt><trkpt lat="37.8657533" lon="13.6405021"><ele>539.5</ele><time>2026-04-26T07:45:08.322Z</time></trkpt><trkpt lat="37.8657341" lon="13.640606"><ele>541.0</ele><time>2026-04-26T07:45:09.322Z</time></trkpt><trkpt lat="37.865727" lon="13.6407086"><ele>542.5</ele><time>2026-04-26T07:45:10.322Z</time></trkpt><trkpt lat="37.8657249" lon="13.6408115"><ele>544.0</ele><time>2026-04-26T07:45:11.322Z</time></trkpt><trkpt lat="37.8657272" lon="13.6409121"><ele>544.0</ele><time>2026-04-26T07:45:12.322Z</time></trkpt><trkpt lat="37.8657323" lon="13.6410135"><ele>544.0</ele><time>2026-04-26T07:45:13.322Z</time></trkpt><trkpt lat="37.8657349" lon="13.6411118"><ele>544.0</ele><time>2026-04-26T07:45:14.322Z</time></trkpt><trkpt lat="37.8657344" lon="13.6411998"><ele>544.0</ele><time>2026-04-26T07:45:15.322Z</time></trkpt><trkpt lat="37.865734" lon="13.6412797"><ele>544.0</ele><time>2026-04-26T07:45:16.322Z</time></trkpt><trkpt lat="37.8657026" lon="13.6414264"><ele>544.0</ele><time>2026-04-26T07:45:18.322Z</time></trkpt><trkpt lat="37.8656609" lon="13.6414925"><ele>542.1666666666667</ele><time>2026-04-26T07:45:19.321Z</time></trkpt><trkpt lat="37.8656006" lon="13.6415508"><ele>540.3333333333334</ele><time>2026-04-26T07:45:20.321Z</time></trkpt><trkpt lat="37.8655296" lon="13.6415863"><ele>538.5</ele><time>2026-04-26T07:45:21.322Z</time></trkpt><trkpt lat="37.8654516" lon="13.6416083"><ele>536.6666666666666</ele><time>2026-04-26T07:45:22.322Z</time></trkpt><trkpt lat="37.865367" lon="13.6416234"><ele>534.8333333333333</ele><time>2026-04-26T07:45:23.322Z</time></trkpt><trkpt lat="37.8652832" lon="13.6416258"><ele>533.0</ele><time>2026-04-26T07:45:24.322Z</time></trkpt><trkpt lat="37.865197" lon="13.6416123"><ele>533.0</ele><time>2026-04-26T07:45:25.322Z</time></trkpt><trkpt lat="37.8651167" lon="13.6415951"><ele>533.0</ele><time>2026-04-26T07:45:26.322Z</time></trkpt><trkpt lat="37.865039" lon="13.6415764"><ele>533.0</ele><time>2026-04-26T07:45:27.322Z</time></trkpt><trkpt lat="37.864958" lon="13.641553"><ele>533.0</ele><time>2026-04-26T07:45:28.322Z</time></trkpt><trkpt lat="37.8648714" lon="13.641528"><ele>533.0</ele><time>2026-04-26T07:45:29.322Z</time></trkpt><trkpt lat="37.8647891" lon="13.6415102"><ele>533.0</ele><time>2026-04-26T07:45:30.322Z</time></trkpt><trkpt lat="37.8647092" lon="13.6414927"><ele>534.6666666666666</ele><time>2026-04-26T07:45:31.322Z</time></trkpt><trkpt lat="37.8646334" lon="13.6414712"><ele>536.3333333333333</ele><time>2026-04-26T07:45:32.322Z</time></trkpt><trkpt lat="37.8645619" lon="13.6414462"><ele>538.0</ele><time>2026-04-26T07:45:33.322Z</time></trkpt><trkpt lat="37.8644984" lon="13.6414011"><ele>539.6666666666666</ele><time>2026-04-26T07:45:34.322Z</time></trkpt><trkpt lat="37.8644378" lon="13.6413291"><ele>541.3333333333334</ele><time>2026-04-26T07:45:35.322Z</time></trkpt><trkpt lat="37.8643889" lon="13.6412407"><ele>543.0</ele><time>2026-04-26T07:45:36.322Z</time></trkpt><trkpt lat="37.8643359" lon="13.6411388"><ele>544.1666666666666</ele><time>2026-04-26T07:45:37.322Z</time></trkpt><trkpt lat="37.8642853" lon="13.6410359"><ele>545.3333333333334</ele><time>2026-04-26T07:45:38.322Z</time></trkpt><trkpt lat="37.8642282" lon="13.6409383"><ele>546.5</ele><time>2026-04-26T07:45:39.322Z</time></trkpt><trkpt lat="37.8641748" lon="13.6408459"><ele>547.6666666666667</ele><time>2026-04-26T07:45:40.322Z</time></trkpt><trkpt lat="37.8641252" lon="13.6407591"><ele>548.8333333333334</ele><time>2026-04-26T07:45:41.322Z</time></trkpt><trkpt lat="37.8640821" lon="13.6406844"><ele>550.0</ele><time>2026-04-26T07:45:42.322Z</time></trkpt><trkpt lat="37.8640379" lon="13.6406177"><ele>550.0</ele><time>2026-04-26T07:45:43.322Z</time></trkpt><trkpt lat="37.863979" lon="13.6405529"><ele>550.0</ele><time>2026-04-26T07:45:44.322Z</time></trkpt><trkpt lat="37.8638986" lon="13.6405133"><ele>550.0</ele><time>2026-04-26T07:45:45.322Z</time></trkpt><trkpt lat="37.8637887" lon="13.6404973"><ele>550.0</ele><time>2026-04-26T07:45:46.322Z</time></trkpt><trkpt lat="37.8636683" lon="13.6405048"><ele>550.0</ele><time>2026-04-26T07:45:47.322Z</time></trkpt><trkpt lat="37.8635486" lon="13.6405237"><ele>549.4</ele><time>2026-04-26T07:45:48.322Z</time></trkpt><trkpt lat="37.8634466" lon="13.6405386"><ele>548.8</ele><time>2026-04-26T07:45:49.322Z</time></trkpt><trkpt lat="37.8633508" lon="13.6405403"><ele>548.2</ele><time>2026-04-26T07:45:50.322Z</time></trkpt><trkpt lat="37.863256" lon="13.6405523"><ele>547.6</ele><time>2026-04-26T07:45:51.322Z</time></trkpt><trkpt lat="37.863162" lon="13.6405687"><ele>547.0</ele><time>2026-04-26T07:45:52.322Z</time></trkpt><trkpt lat="37.8630716" lon="13.6405956"><ele>547.0</ele><time>2026-04-26T07:45:53.322Z</time></trkpt><trkpt lat="37.8629841" lon="13.6406433"><ele>547.0</ele><time>2026-04-26T07:45:54.322Z</time></trkpt><trkpt lat="37.8628962" lon="13.6407379"><ele>547.0</ele><time>2026-04-26T07:45:55.322Z</time></trkpt><trkpt lat="37.8627958" lon="13.6408811"><ele>547.0</ele><time>2026-04-26T07:45:56.322Z</time></trkpt><trkpt lat="37.8626655" lon="13.6410502"><ele>544.0</ele><time>2026-04-26T07:45:57.321Z</time></trkpt><trkpt lat="37.8625204" lon="13.6412272"><ele>541.0</ele><time>2026-04-26T07:45:58.322Z</time></trkpt><trkpt lat="37.8623812" lon="13.6413936"><ele>538.0</ele><time>2026-04-26T07:45:59.322Z</time></trkpt><trkpt lat="37.862254" lon="13.6415472"><ele>538.0</ele><time>2026-04-26T07:46:00.322Z</time></trkpt><trkpt lat="37.8621379" lon="13.6416677"><ele>538.0</ele><time>2026-04-26T07:46:01.322Z</time></trkpt><trkpt lat="37.8620411" lon="13.641747"><ele>538.0</ele><time>2026-04-26T07:46:02.322Z</time></trkpt><trkpt lat="37.8619378" lon="13.6417859"><ele>538.0</ele><time>2026-04-26T07:46:03.322Z</time></trkpt><trkpt lat="37.861831" lon="13.6417651"><ele>538.25</ele><time>2026-04-26T07:46:04.322Z</time></trkpt><trkpt lat="37.861712" lon="13.6416914"><ele>538.5</ele><time>2026-04-26T07:46:05.322Z</time></trkpt><trkpt lat="37.8615991" lon="13.6415761"><ele>538.75</ele><time>2026-04-26T07:46:06.322Z</time></trkpt><trkpt lat="37.8614744" lon="13.6414586"><ele>539.0</ele><time>2026-04-26T07:46:07.322Z</time></trkpt><trkpt lat="37.8613491" lon="13.6413516"><ele>539.0</ele><time>2026-04-26T07:46:08.321Z</time></trkpt><trkpt lat="37.8612239" lon="13.6412679"><ele>539.0</ele><time>2026-04-26T07:46:09.322Z</time></trkpt><trkpt lat="37.8610849" lon="13.6412256"><ele>539.0</ele><time>2026-04-26T07:46:10.322Z</time></trkpt><trkpt lat="37.8609534" lon="13.6412257"><ele>539.0</ele><time>2026-04-26T07:46:11.322Z</time></trkpt><trkpt lat="37.8608278" lon="13.6412295"><ele>539.5</ele><time>2026-04-26T07:46:12.322Z</time></trkpt><trkpt lat="37.8607248" lon="13.6411977"><ele>540.0</ele><time>2026-04-26T07:46:13.322Z</time></trkpt><trkpt lat="37.8606294" lon="13.6411125"><ele>540.5</ele><time>2026-04-26T07:46:14.322Z</time></trkpt><trkpt lat="37.8605355" lon="13.6409813"><ele>541.0</ele><time>2026-04-26T07:46:15.322Z</time></trkpt><trkpt lat="37.860426" lon="13.6408508"><ele>541.0</ele><time>2026-04-26T07:46:16.322Z</time></trkpt><trkpt lat="37.860314" lon="13.6407142"><ele>541.0</ele><time>2026-04-26T07:46:17.322Z</time></trkpt><trkpt lat="37.8601914" lon="13.6405894"><ele>541.0</ele><time>2026-04-26T07:46:18.322Z</time></trkpt><trkpt lat="37.8600497" lon="13.640506"><ele>535.6666666666667</ele><time>2026-04-26T07:46:19.322Z</time></trkpt><trkpt lat="37.8598841" lon="13.640465"><ele>530.3333333333334</ele><time>2026-04-26T07:46:20.322Z</time></trkpt><trkpt lat="37.8596919" lon="13.6404521"><ele>525.0</ele><time>2026-04-26T07:46:21.322Z</time></trkpt><trkpt lat="37.859483" lon="13.6404563"><ele>520.5</ele><time>2026-04-26T07:46:22.322Z</time></trkpt><trkpt lat="37.859258" lon="13.6404746"><ele>516.0</ele><time>2026-04-26T07:46:23.321Z</time></trkpt><trkpt lat="37.8590201" lon="13.6405097"><ele>516.0</ele><time>2026-04-26T07:46:24.322Z</time></trkpt><trkpt lat="37.8587825" lon="13.6405533"><ele>516.0</ele><time>2026-04-26T07:46:25.322Z</time></trkpt><trkpt lat="37.8585552" lon="13.6405999"><ele>515.3333333333334</ele><time>2026-04-26T07:46:26.321Z</time></trkpt><trkpt lat="37.8583425" lon="13.6406531"><ele>514.6666666666667</ele><time>2026-04-26T07:46:27.322Z</time></trkpt><trkpt lat="37.8581414" lon="13.6407004"><ele>514.0</ele><time>2026-04-26T07:46:28.322Z</time></trkpt><trkpt lat="37.8579596" lon="13.6407386"><ele>514.0</ele><time>2026-04-26T07:46:29.322Z</time></trkpt><trkpt lat="37.8577944" lon="13.6407681"><ele>514.0</ele><time>2026-04-26T07:46:30.322Z</time></trkpt><trkpt lat="37.857642" lon="13.6407812"><ele>514.0</ele><time>2026-04-26T07:46:31.322Z</time></trkpt><trkpt lat="37.857496" lon="13.6407645"><ele>513.6666666666667</ele><time>2026-04-26T07:46:32.322Z</time></trkpt><trkpt lat="37.8573456" lon="13.6407298"><ele>513.3333333333334</ele><time>2026-04-26T07:46:33.322Z</time></trkpt><trkpt lat="37.8571853" lon="13.6406562"><ele>513.0</ele><time>2026-04-26T07:46:34.322Z</time></trkpt><trkpt lat="37.8570182" lon="13.6405548"><ele>513.0</ele><time>2026-04-26T07:46:35.322Z</time></trkpt><trkpt lat="37.8568491" lon="13.6404481"><ele>513.0</ele><time>2026-04-26T07:46:36.322Z</time></trkpt><trkpt lat="37.8566799" lon="13.6403309"><ele>513.0</ele><time>2026-04-26T07:46:37.322Z</time></trkpt><trkpt lat="37.85651" lon="13.6402154"><ele>517.3333333333334</ele><time>2026-04-26T07:46:38.322Z</time></trkpt><trkpt lat="37.8563499" lon="13.6401061"><ele>521.6666666666667</ele><time>2026-04-26T07:46:39.322Z</time></trkpt><trkpt lat="37.8561963" lon="13.6400046"><ele>526.0</ele><time>2026-04-26T07:46:40.322Z</time></trkpt><trkpt lat="37.8560466" lon="13.6399174"><ele>521.0</ele><time>2026-04-26T07:46:41.322Z</time></trkpt><trkpt lat="37.8558875" lon="13.6398666"><ele>516.0</ele><time>2026-04-26T07:46:42.322Z</time></trkpt><trkpt lat="37.8557117" lon="13.6398377"><ele>511.0</ele><time>2026-04-26T07:46:43.322Z</time></trkpt><trkpt lat="37.8555368" lon="13.6398248"><ele>511.0</ele><time>2026-04-26T07:46:44.322Z</time></trkpt><trkpt lat="37.8553751" lon="13.6398239"><ele>511.0</ele><time>2026-04-26T07:46:45.322Z</time></trkpt><trkpt lat="37.8552229" lon="13.6398458"><ele>511.0</ele><time>2026-04-26T07:46:46.322Z</time></trkpt><trkpt lat="37.8550701" lon="13.6399052"><ele>510.33333333333337</ele><time>2026-04-26T07:46:47.322Z</time></trkpt><trkpt lat="37.8548996" lon="13.6400161"><ele>509.66666666666663</ele><time>2026-04-26T07:46:48.322Z</time></trkpt><trkpt lat="37.8547224" lon="13.6401511"><ele>509.0</ele><time>2026-04-26T07:46:49.322Z</time></trkpt><trkpt lat="37.8545538" lon="13.640283"><ele>502.3333333333333</ele><time>2026-04-26T07:46:50.322Z</time></trkpt><trkpt lat="37.854403" lon="13.640387"><ele>495.66666666666663</ele><time>2026-04-26T07:46:51.322Z</time></trkpt><trkpt lat="37.8542644" lon="13.6404571"><ele>489.0</ele><time>2026-04-26T07:46:52.322Z</time></trkpt><trkpt lat="37.854122" lon="13.6404925"><ele>488.66666666666663</ele><time>2026-04-26T07:46:53.322Z</time></trkpt><trkpt lat="37.8539678" lon="13.6405042"><ele>488.3333333333333</ele><time>2026-04-26T07:46:54.322Z</time></trkpt><trkpt lat="37.8538029" lon="13.6404899"><ele>488.0</ele><time>2026-04-26T07:46:55.322Z</time></trkpt><trkpt lat="37.853632" lon="13.6404743"><ele>488.0</ele><time>2026-04-26T07:46:56.322Z</time></trkpt><trkpt lat="37.8534753" lon="13.6404469"><ele>488.0</ele><time>2026-04-26T07:46:57.322Z</time></trkpt><trkpt lat="37.8533211" lon="13.640396"><ele>488.0</ele><time>2026-04-26T07:46:58.322Z</time></trkpt><trkpt lat="37.853172" lon="13.6403015"><ele>494.66666666666663</ele><time>2026-04-26T07:46:59.322Z</time></trkpt><trkpt lat="37.8530154" lon="13.6401962"><ele>501.33333333333337</ele><time>2026-04-26T07:47:00.322Z</time></trkpt><trkpt lat="37.8528701" lon="13.6400985"><ele>508.0</ele><time>2026-04-26T07:47:01.322Z</time></trkpt><trkpt lat="37.8527538" lon="13.6400134"><ele>508.0</ele><time>2026-04-26T07:47:02.322Z</time></trkpt><trkpt lat="37.8526751" lon="13.6399133"><ele>508.0</ele><time>2026-04-26T07:47:03.322Z</time></trkpt><trkpt lat="37.8526196" lon="13.6397911"><ele>508.0</ele><time>2026-04-26T07:47:04.322Z</time></trkpt><trkpt lat="37.8526078" lon="13.6396438"><ele>508.0</ele><time>2026-04-26T07:47:05.322Z</time></trkpt><trkpt lat="37.8526443" lon="13.6394752"><ele>508.33333333333337</ele><time>2026-04-26T07:47:06.322Z</time></trkpt><trkpt lat="37.8526976" lon="13.6392673"><ele>508.66666666666663</ele><time>2026-04-26T07:47:07.322Z</time></trkpt><trkpt lat="37.8527695" lon="13.639032"><ele>509.0</ele><time>2026-04-26T07:47:08.322Z</time></trkpt><trkpt lat="37.8528688" lon="13.6387956"><ele>507.3333333333333</ele><time>2026-04-26T07:47:09.322Z</time></trkpt><trkpt lat="37.8529698" lon="13.6385806"><ele>505.66666666666663</ele><time>2026-04-26T07:47:10.322Z</time></trkpt><trkpt lat="37.8530527" lon="13.6384063"><ele>504.0</ele><time>2026-04-26T07:47:11.322Z</time></trkpt><trkpt lat="37.8531134" lon="13.6382428"><ele>504.0</ele><time>2026-04-26T07:47:12.322Z</time></trkpt><trkpt lat="37.8531284" lon="13.6380745"><ele>504.0</ele><time>2026-04-26T07:47:13.322Z</time></trkpt><trkpt lat="37.8530824" lon="13.6378706"><ele>504.0</ele><time>2026-04-26T07:47:14.322Z</time></trkpt><trkpt lat="37.8530046" lon="13.6376444"><ele>504.66666666666663</ele><time>2026-04-26T07:47:15.322Z</time></trkpt><trkpt lat="37.8529352" lon="13.6373923"><ele>505.3333333333333</ele><time>2026-04-26T07:47:16.322Z</time></trkpt><trkpt lat="37.8528662" lon="13.63714"><ele>506.0</ele><time>2026-04-26T07:47:17.322Z</time></trkpt><trkpt lat="37.8527979" lon="13.636897"><ele>507.3333333333333</ele><time>2026-04-26T07:47:18.322Z</time></trkpt><trkpt lat="37.8527275" lon="13.636667"><ele>508.66666666666663</ele><time>2026-04-26T07:47:19.322Z</time></trkpt><trkpt lat="37.8526533" lon="13.6364505"><ele>510.0</ele><time>2026-04-26T07:47:20.322Z</time></trkpt><trkpt lat="37.8525459" lon="13.6362506"><ele>504.66666666666663</ele><time>2026-04-26T07:47:21.322Z</time></trkpt><trkpt lat="37.8524043" lon="13.6360788"><ele>499.3333333333333</ele><time>2026-04-26T07:47:22.322Z</time></trkpt><trkpt lat="37.8522385" lon="13.6359122"><ele>494.0</ele><time>2026-04-26T07:47:23.322Z</time></trkpt><trkpt lat="37.8520728" lon="13.6357619"><ele>494.0</ele><time>2026-04-26T07:47:24.322Z</time></trkpt><trkpt lat="37.8519345" lon="13.6356252"><ele>494.0</ele><time>2026-04-26T07:47:25.322Z</time></trkpt><trkpt lat="37.85184" lon="13.6355139"><ele>494.0</ele><time>2026-04-26T07:47:26.321Z</time></trkpt><trkpt lat="37.8517618" lon="13.6354017"><ele>494.0</ele><time>2026-04-26T07:47:27.322Z</time></trkpt><trkpt lat="37.8517277" lon="13.6352648"><ele>489.5</ele><time>2026-04-26T07:47:28.322Z</time></trkpt><trkpt lat="37.8517275" lon="13.6350985"><ele>485.0</ele><time>2026-04-26T07:47:29.322Z</time></trkpt><trkpt lat="37.8517445" lon="13.6349237"><ele>480.5</ele><time>2026-04-26T07:47:30.322Z</time></trkpt><trkpt lat="37.8517538" lon="13.6347748"><ele>476.0</ele><time>2026-04-26T07:47:31.322Z</time></trkpt><trkpt lat="37.851735" lon="13.6346603"><ele>476.0</ele><time>2026-04-26T07:47:32.322Z</time></trkpt><trkpt lat="37.8516709" lon="13.6345517"><ele>476.0</ele><time>2026-04-26T07:47:33.322Z</time></trkpt><trkpt lat="37.8515755" lon="13.6344649"><ele>476.0</ele><time>2026-04-26T07:47:34.322Z</time></trkpt><trkpt lat="37.8514582" lon="13.634409"><ele>476.0</ele><time>2026-04-26T07:47:35.322Z</time></trkpt><trkpt lat="37.8513316" lon="13.6344231"><ele>476.0</ele><time>2026-04-26T07:47:36.322Z</time></trkpt><trkpt lat="37.8512121" lon="13.6344951"><ele>476.0</ele><time>2026-04-26T07:47:37.322Z</time></trkpt><trkpt lat="37.851106" lon="13.6346197"><ele>476.0</ele><time>2026-04-26T07:47:38.322Z</time></trkpt><trkpt lat="37.8509975" lon="13.6347965"><ele>476.0</ele><time>2026-04-26T07:47:39.322Z</time></trkpt><trkpt lat="37.8509319" lon="13.6349914"><ele>476.0</ele><time>2026-04-26T07:47:40.321Z</time></trkpt><trkpt lat="37.8508718" lon="13.6351555"><ele>476.0</ele><time>2026-04-26T07:47:41.322Z</time></trkpt><trkpt lat="37.8508042" lon="13.635284"><ele>476.0</ele><time>2026-04-26T07:47:42.322Z</time></trkpt><trkpt lat="37.8507138" lon="13.6353921"><ele>470.0</ele><time>2026-04-26T07:47:43.322Z</time></trkpt><trkpt lat="37.8505783" lon="13.6354713"><ele>464.0</ele><time>2026-04-26T07:47:44.322Z</time></trkpt><trkpt lat="37.8504094" lon="13.6355466"><ele>458.0</ele><time>2026-04-26T07:47:45.322Z</time></trkpt><trkpt lat="37.8502276" lon="13.6356155"><ele>460.0</ele><time>2026-04-26T07:47:46.322Z</time></trkpt><trkpt lat="37.8500333" lon="13.6356892"><ele>462.0</ele><time>2026-04-26T07:47:47.322Z</time></trkpt><trkpt lat="37.8498332" lon="13.6357714"><ele>464.0</ele><time>2026-04-26T07:47:48.322Z</time></trkpt><trkpt lat="37.849646" lon="13.6358559"><ele>464.0</ele><time>2026-04-26T07:47:49.322Z</time></trkpt><trkpt lat="37.8494743" lon="13.6359498"><ele>464.0</ele><time>2026-04-26T07:47:50.322Z</time></trkpt><trkpt lat="37.8493088" lon="13.6360622"><ele>464.0</ele><time>2026-04-26T07:47:51.322Z</time></trkpt><trkpt lat="37.8491418" lon="13.6361884"><ele>460.66666666666663</ele><time>2026-04-26T07:47:52.322Z</time></trkpt><trkpt lat="37.848971" lon="13.6363153"><ele>457.33333333333337</ele><time>2026-04-26T07:47:53.322Z</time></trkpt><trkpt lat="37.8487939" lon="13.6364442"><ele>454.0</ele><time>2026-04-26T07:47:54.322Z</time></trkpt><trkpt lat="37.8486147" lon="13.6365733"><ele>455.0</ele><time>2026-04-26T07:47:55.322Z</time></trkpt><trkpt lat="37.8484505" lon="13.6367017"><ele>456.0</ele><time>2026-04-26T07:47:56.322Z</time></trkpt><trkpt lat="37.8483019" lon="13.6368046"><ele>457.0</ele><time>2026-04-26T07:47:57.322Z</time></trkpt><trkpt lat="37.8481625" lon="13.636891"><ele>457.0</ele><time>2026-04-26T07:47:58.321Z</time></trkpt><trkpt lat="37.8480199" lon="13.6369388"><ele>457.0</ele><time>2026-04-26T07:47:59.322Z</time></trkpt><trkpt lat="37.847857" lon="13.6369323"><ele>457.0</ele><time>2026-04-26T07:48:00.322Z</time></trkpt><trkpt lat="37.8476744" lon="13.6368622"><ele>457.0</ele><time>2026-04-26T07:48:01.322Z</time></trkpt><trkpt lat="37.8474721" lon="13.6367907"><ele>457.0</ele><time>2026-04-26T07:48:02.322Z</time></trkpt><trkpt lat="37.8472646" lon="13.6366985"><ele>457.0</ele><time>2026-04-26T07:48:03.322Z</time></trkpt><trkpt lat="37.8470824" lon="13.6366127"><ele>457.0</ele><time>2026-04-26T07:48:04.322Z</time></trkpt><trkpt lat="37.8469124" lon="13.6365531"><ele>457.0</ele><time>2026-04-26T07:48:05.322Z</time></trkpt><trkpt lat="37.8467415" lon="13.6365169"><ele>457.0</ele><time>2026-04-26T07:48:06.322Z</time></trkpt><trkpt lat="37.8465607" lon="13.6365427"><ele>457.33333333333337</ele><time>2026-04-26T07:48:07.322Z</time></trkpt><trkpt lat="37.8463613" lon="13.6365995"><ele>457.66666666666663</ele><time>2026-04-26T07:48:08.321Z</time></trkpt><trkpt lat="37.8461658" lon="13.6366496"><ele>458.0</ele><time>2026-04-26T07:48:09.322Z</time></trkpt><trkpt lat="37.8459793" lon="13.6366755"><ele>459.66666666666663</ele><time>2026-04-26T07:48:10.322Z</time></trkpt><trkpt lat="37.845775" lon="13.6366607"><ele>461.33333333333337</ele><time>2026-04-26T07:48:11.321Z</time></trkpt><trkpt lat="37.8455559" lon="13.6366291"><ele>463.0</ele><time>2026-04-26T07:48:12.322Z</time></trkpt><trkpt lat="37.8453373" lon="13.6365821"><ele>463.0</ele><time>2026-04-26T07:48:13.322Z</time></trkpt><trkpt lat="37.8451411" lon="13.6365378"><ele>463.0</ele><time>2026-04-26T07:48:14.322Z</time></trkpt><trkpt lat="37.8449614" lon="13.6365101"><ele>463.0</ele><time>2026-04-26T07:48:15.322Z</time></trkpt><trkpt lat="37.8447863" lon="13.6365215"><ele>463.0</ele><time>2026-04-26T07:48:16.322Z</time></trkpt><trkpt lat="37.8446158" lon="13.6365889"><ele>463.0</ele><time>2026-04-26T07:48:17.322Z</time></trkpt><trkpt lat="37.8444374" lon="13.6367062"><ele>463.0</ele><time>2026-04-26T07:48:18.322Z</time></trkpt><trkpt lat="37.8442706" lon="13.6368341"><ele>464.33333333333337</ele><time>2026-04-26T07:48:19.322Z</time></trkpt><trkpt lat="37.8441075" lon="13.6369421"><ele>465.66666666666663</ele><time>2026-04-26T07:48:20.322Z</time></trkpt><trkpt lat="37.8439497" lon="13.6370282"><ele>467.0</ele><time>2026-04-26T07:48:21.322Z</time></trkpt><trkpt lat="37.8437981" lon="13.6370937"><ele>465.25</ele><time>2026-04-26T07:48:22.322Z</time></trkpt><trkpt lat="37.8436475" lon="13.6371327"><ele>463.5</ele><time>2026-04-26T07:48:23.322Z</time></trkpt><trkpt lat="37.8435154" lon="13.6371598"><ele>461.75</ele><time>2026-04-26T07:48:24.322Z</time></trkpt><trkpt lat="37.8433979" lon="13.6371704"><ele>460.0</ele><time>2026-04-26T07:48:25.322Z</time></trkpt><trkpt lat="37.843303" lon="13.6371777"><ele>460.00000000000006</ele><time>2026-04-26T07:48:26.322Z</time></trkpt><trkpt lat="37.8432262" lon="13.63718"><ele>460.0</ele><time>2026-04-26T07:48:27.322Z</time></trkpt><trkpt lat="37.8431531" lon="13.6371874"><ele>460.0</ele><time>2026-04-26T07:48:28.322Z</time></trkpt><trkpt lat="37.8430381" lon="13.6372001"><ele>460.0</ele><time>2026-04-26T07:48:30.322Z</time></trkpt><trkpt lat="37.8429504" lon="13.6372159"><ele>460.00000000000006</ele><time>2026-04-26T07:48:32.321Z</time></trkpt><trkpt lat="37.8428795" lon="13.6372219"><ele>460.0</ele><time>2026-04-26T07:48:34.322Z</time></trkpt><trkpt lat="37.8428091" lon="13.6372376"><ele>460.0</ele><time>2026-04-26T07:48:39.322Z</time></trkpt><trkpt lat="37.8427436" lon="13.6372403"><ele>460.0</ele><time>2026-04-26T07:48:42.322Z</time></trkpt><trkpt lat="37.8426272" lon="13.6371958"><ele>460.0</ele><time>2026-04-26T07:48:45.322Z</time></trkpt><trkpt lat="37.8425503" lon="13.6371678"><ele>460.0</ele><time>2026-04-26T07:48:46.322Z</time></trkpt><trkpt lat="37.8424482" lon="13.6371198"><ele>460.0</ele><time>2026-04-26T07:48:47.322Z</time></trkpt><trkpt lat="37.8423215" lon="13.6370317"><ele>460.0</ele><time>2026-04-26T07:48:48.322Z</time></trkpt><trkpt lat="37.8421717" lon="13.6369183"><ele>460.0</ele><time>2026-04-26T07:48:49.322Z</time></trkpt><trkpt lat="37.8420006" lon="13.6367908"><ele>460.0</ele><time>2026-04-26T07:48:50.322Z</time></trkpt><trkpt lat="37.8418026" lon="13.6366493"><ele>464.0</ele><time>2026-04-26T07:48:51.322Z</time></trkpt><trkpt lat="37.8415817" lon="13.6364953"><ele>468.0</ele><time>2026-04-26T07:48:52.322Z</time></trkpt><trkpt lat="37.8413392" lon="13.6363363"><ele>468.0</ele><time>2026-04-26T07:48:53.321Z</time></trkpt><trkpt lat="37.8410851" lon="13.636165"><ele>468.0</ele><time>2026-04-26T07:48:54.322Z</time></trkpt><trkpt lat="37.8408323" lon="13.6359917"><ele>466.5</ele><time>2026-04-26T07:48:55.322Z</time></trkpt><trkpt lat="37.8405901" lon="13.6358228"><ele>465.0</ele><time>2026-04-26T07:48:56.321Z</time></trkpt><trkpt lat="37.8403787" lon="13.635675"><ele>465.0</ele><time>2026-04-26T07:48:57.322Z</time></trkpt><trkpt lat="37.8401854" lon="13.6355347"><ele>465.0</ele><time>2026-04-26T07:48:58.322Z</time></trkpt><trkpt lat="37.8400065" lon="13.6353829"><ele>465.0</ele><time>2026-04-26T07:48:59.322Z</time></trkpt><trkpt lat="37.8398513" lon="13.6352185"><ele>464.0</ele><time>2026-04-26T07:49:00.322Z</time></trkpt><trkpt lat="37.8397277" lon="13.6350489"><ele>463.0</ele><time>2026-04-26T07:49:01.321Z</time></trkpt><trkpt lat="37.8395959" lon="13.6348944"><ele>462.0</ele><time>2026-04-26T07:49:02.321Z</time></trkpt><trkpt lat="37.8394415" lon="13.6347644"><ele>468.33333333333337</ele><time>2026-04-26T07:49:03.322Z</time></trkpt><trkpt lat="37.8392565" lon="13.6346703"><ele>474.6666666666667</ele><time>2026-04-26T07:49:04.322Z</time></trkpt><trkpt lat="37.8390625" lon="13.6345911"><ele>481.0</ele><time>2026-04-26T07:49:05.321Z</time></trkpt><trkpt lat="37.8388708" lon="13.6345396"><ele>481.0</ele><time>2026-04-26T07:49:06.322Z</time></trkpt><trkpt lat="37.8386923" lon="13.6345"><ele>481.0</ele><time>2026-04-26T07:49:07.322Z</time></trkpt><trkpt lat="37.8385245" lon="13.634446"><ele>481.0</ele><time>2026-04-26T07:49:08.322Z</time></trkpt><trkpt lat="37.8383812" lon="13.6343738"><ele>479.25</ele><time>2026-04-26T07:49:09.322Z</time></trkpt><trkpt lat="37.8382712" lon="13.634261"><ele>477.5</ele><time>2026-04-26T07:49:10.322Z</time></trkpt><trkpt lat="37.838188" lon="13.6341346"><ele>475.75</ele><time>2026-04-26T07:49:11.322Z</time></trkpt><trkpt lat="37.8381107" lon="13.6340029"><ele>474.0</ele><time>2026-04-26T07:49:12.322Z</time></trkpt><trkpt lat="37.8380362" lon="13.6338823"><ele>474.0</ele><time>2026-04-26T07:49:13.322Z</time></trkpt><trkpt lat="37.8379547" lon="13.6337829"><ele>474.0</ele><time>2026-04-26T07:49:14.322Z</time></trkpt><trkpt lat="37.8378637" lon="13.6337166"><ele>474.0</ele><time>2026-04-26T07:49:15.322Z</time></trkpt><trkpt lat="37.8377549" lon="13.6336844"><ele>474.0</ele><time>2026-04-26T07:49:16.321Z</time></trkpt><trkpt lat="37.8376189" lon="13.6337143"><ele>478.0</ele><time>2026-04-26T07:49:17.322Z</time></trkpt><trkpt lat="37.8374603" lon="13.6337884"><ele>482.0</ele><time>2026-04-26T07:49:18.322Z</time></trkpt><trkpt lat="37.8372562" lon="13.6338879"><ele>486.0</ele><time>2026-04-26T07:49:19.322Z</time></trkpt><trkpt lat="37.8370329" lon="13.6339888"><ele>484.0</ele><time>2026-04-26T07:49:20.322Z</time></trkpt><trkpt lat="37.8367874" lon="13.6341053"><ele>482.0</ele><time>2026-04-26T07:49:21.322Z</time></trkpt><trkpt lat="37.8365474" lon="13.6342066"><ele>482.0</ele><time>2026-04-26T07:49:22.322Z</time></trkpt><trkpt lat="37.8363208" lon="13.6343008"><ele>482.0</ele><time>2026-04-26T07:49:23.322Z</time></trkpt><trkpt lat="37.8361042" lon="13.6343747"><ele>481.66666666666663</ele><time>2026-04-26T07:49:24.322Z</time></trkpt><trkpt lat="37.8358799" lon="13.6344145"><ele>481.33333333333337</ele><time>2026-04-26T07:49:25.322Z</time></trkpt><trkpt lat="37.8356744" lon="13.6344198"><ele>481.0</ele><time>2026-04-26T07:49:26.322Z</time></trkpt><trkpt lat="37.8354766" lon="13.6344079"><ele>481.0</ele><time>2026-04-26T07:49:27.322Z</time></trkpt><trkpt lat="37.8353153" lon="13.6343861"><ele>481.0</ele><time>2026-04-26T07:49:28.322Z</time></trkpt><trkpt lat="37.8352082" lon="13.6343352"><ele>481.0</ele><time>2026-04-26T07:49:29.322Z</time></trkpt><trkpt lat="37.8351141" lon="13.6342428"><ele>481.0</ele><time>2026-04-26T07:49:30.322Z</time></trkpt><trkpt lat="37.8350174" lon="13.6341543"><ele>482.25</ele><time>2026-04-26T07:49:31.322Z</time></trkpt><trkpt lat="37.8349063" lon="13.6340899"><ele>483.5</ele><time>2026-04-26T07:49:32.322Z</time></trkpt><trkpt lat="37.8347677" lon="13.6340771"><ele>484.75</ele><time>2026-04-26T07:49:33.322Z</time></trkpt><trkpt lat="37.8345999" lon="13.6341246"><ele>486.0</ele><time>2026-04-26T07:49:34.322Z</time></trkpt><trkpt lat="37.8344176" lon="13.6341785"><ele>486.33333333333337</ele><time>2026-04-26T07:49:35.322Z</time></trkpt><trkpt lat="37.8342151" lon="13.6342092"><ele>486.6666666666667</ele><time>2026-04-26T07:49:36.322Z</time></trkpt><trkpt lat="37.8340012" lon="13.6342052"><ele>487.0</ele><time>2026-04-26T07:49:37.322Z</time></trkpt><trkpt lat="37.833799" lon="13.6341833"><ele>487.0</ele><time>2026-04-26T07:49:38.322Z</time></trkpt><trkpt lat="37.8335881" lon="13.6341394"><ele>487.0</ele><time>2026-04-26T07:49:39.322Z</time></trkpt><trkpt lat="37.8333808" lon="13.6340864"><ele>487.0</ele><time>2026-04-26T07:49:40.322Z</time></trkpt><trkpt lat="37.8331865" lon="13.6340283"><ele>489.33333333333337</ele><time>2026-04-26T07:49:41.322Z</time></trkpt><trkpt lat="37.8329983" lon="13.6339909"><ele>491.66666666666663</ele><time>2026-04-26T07:49:42.322Z</time></trkpt><trkpt lat="37.8327908" lon="13.6339877"><ele>494.0</ele><time>2026-04-26T07:49:43.321Z</time></trkpt><trkpt lat="37.8325697" lon="13.6339992"><ele>496.5</ele><time>2026-04-26T07:49:44.322Z</time></trkpt><trkpt lat="37.8323329" lon="13.6340243"><ele>499.0</ele><time>2026-04-26T07:49:45.322Z</time></trkpt><trkpt lat="37.832093" lon="13.6340501"><ele>499.0</ele><time>2026-04-26T07:49:46.322Z</time></trkpt><trkpt lat="37.8318622" lon="13.6340707"><ele>499.0</ele><time>2026-04-26T07:49:47.322Z</time></trkpt><trkpt lat="37.8316435" lon="13.6340881"><ele>499.0</ele><time>2026-04-26T07:49:48.322Z</time></trkpt><trkpt lat="37.8314458" lon="13.6340987"><ele>499.0</ele><time>2026-04-26T07:49:49.322Z</time></trkpt><trkpt lat="37.8312715" lon="13.6341182"><ele>499.0</ele><time>2026-04-26T07:49:50.322Z</time></trkpt><trkpt lat="37.8311225" lon="13.6341595"><ele>499.0</ele><time>2026-04-26T07:49:51.322Z</time></trkpt><trkpt lat="37.8309949" lon="13.6342421"><ele>499.0</ele><time>2026-04-26T07:49:52.322Z</time></trkpt><trkpt lat="37.8308891" lon="13.6343787"><ele>499.0</ele><time>2026-04-26T07:49:53.322Z</time></trkpt><trkpt lat="37.8307964" lon="13.6345263"><ele>499.0</ele><time>2026-04-26T07:49:54.322Z</time></trkpt><trkpt lat="37.8307061" lon="13.6346526"><ele>501.5</ele><time>2026-04-26T07:49:55.322Z</time></trkpt><trkpt lat="37.8306012" lon="13.6347398"><ele>504.0</ele><time>2026-04-26T07:49:56.322Z</time></trkpt><trkpt lat="37.8304705" lon="13.6347634"><ele>506.5</ele><time>2026-04-26T07:49:57.322Z</time></trkpt><trkpt lat="37.8303078" lon="13.6347608"><ele>509.0</ele><time>2026-04-26T07:49:58.322Z</time></trkpt><trkpt lat="37.8301375" lon="13.6347302"><ele>509.0</ele><time>2026-04-26T07:49:59.322Z</time></trkpt><trkpt lat="37.8299856" lon="13.6346607"><ele>509.0</ele><time>2026-04-26T07:50:00.322Z</time></trkpt><trkpt lat="37.8298602" lon="13.6345639"><ele>509.0</ele><time>2026-04-26T07:50:01.322Z</time></trkpt><trkpt lat="37.8297397" lon="13.634477"><ele>509.0</ele><time>2026-04-26T07:50:02.322Z</time></trkpt><trkpt lat="37.8296264" lon="13.6344529"><ele>509.0</ele><time>2026-04-26T07:50:03.322Z</time></trkpt><trkpt lat="37.8295001" lon="13.6345087"><ele>509.0</ele><time>2026-04-26T07:50:04.322Z</time></trkpt><trkpt lat="37.8293773" lon="13.6346362"><ele>509.0</ele><time>2026-04-26T07:50:05.322Z</time></trkpt><trkpt lat="37.8292695" lon="13.6347999"><ele>508.0</ele><time>2026-04-26T07:50:06.322Z</time></trkpt><trkpt lat="37.8291788" lon="13.6349744"><ele>507.0</ele><time>2026-04-26T07:50:07.322Z</time></trkpt><trkpt lat="37.8291019" lon="13.6351095"><ele>506.0</ele><time>2026-04-26T07:50:08.322Z</time></trkpt><trkpt lat="37.829005" lon="13.6352012"><ele>505.0</ele><time>2026-04-26T07:50:09.322Z</time></trkpt><trkpt lat="37.8288832" lon="13.6352489"><ele>505.0</ele><time>2026-04-26T07:50:10.322Z</time></trkpt><trkpt lat="37.8287479" lon="13.6352494"><ele>505.0</ele><time>2026-04-26T07:50:11.322Z</time></trkpt><trkpt lat="37.8285893" lon="13.6352413"><ele>505.0</ele><time>2026-04-26T07:50:12.322Z</time></trkpt><trkpt lat="37.8284063" lon="13.6352597"><ele>510.33333333333337</ele><time>2026-04-26T07:50:13.322Z</time></trkpt><trkpt lat="37.8282115" lon="13.6353145"><ele>515.6666666666666</ele><time>2026-04-26T07:50:14.322Z</time></trkpt><trkpt lat="37.8280195" lon="13.6353831"><ele>521.0</ele><time>2026-04-26T07:50:15.322Z</time></trkpt><trkpt lat="37.8278324" lon="13.6354419"><ele>521.0</ele><time>2026-04-26T07:50:16.322Z</time></trkpt><trkpt lat="37.8276529" lon="13.6354624"><ele>521.0</ele><time>2026-04-26T07:50:17.322Z</time></trkpt><trkpt lat="37.8274975" lon="13.6354601"><ele>521.0</ele><time>2026-04-26T07:50:18.322Z</time></trkpt><trkpt lat="37.8273651" lon="13.6354667"><ele>520.5</ele><time>2026-04-26T07:50:19.322Z</time></trkpt><trkpt lat="37.8272457" lon="13.6354911"><ele>520.0</ele><time>2026-04-26T07:50:20.322Z</time></trkpt><trkpt lat="37.8271553" lon="13.6355714"><ele>519.5</ele><time>2026-04-26T07:50:21.322Z</time></trkpt><trkpt lat="37.8270682" lon="13.6357092"><ele>519.0</ele><time>2026-04-26T07:50:22.322Z</time></trkpt><trkpt lat="37.8270017" lon="13.6358962"><ele>519.0</ele><time>2026-04-26T07:50:23.322Z</time></trkpt><trkpt lat="37.8269423" lon="13.6360968"><ele>519.0</ele><time>2026-04-26T07:50:24.322Z</time></trkpt><trkpt lat="37.8268819" lon="13.636262"><ele>519.0</ele><time>2026-04-26T07:50:25.322Z</time></trkpt><trkpt lat="37.8268269" lon="13.6363868"><ele>519.0</ele><time>2026-04-26T07:50:26.322Z</time></trkpt><trkpt lat="37.8267489" lon="13.6364625"><ele>519.25</ele><time>2026-04-26T07:50:27.322Z</time></trkpt><trkpt lat="37.8266342" lon="13.6364982"><ele>519.5</ele><time>2026-04-26T07:50:28.322Z</time></trkpt><trkpt lat="37.8265155" lon="13.6364753"><ele>519.75</ele><time>2026-04-26T07:50:29.322Z</time></trkpt><trkpt lat="37.826411" lon="13.6364221"><ele>520.0</ele><time>2026-04-26T07:50:30.322Z</time></trkpt><trkpt lat="37.8262907" lon="13.6363296"><ele>520.0</ele><time>2026-04-26T07:50:31.322Z</time></trkpt><trkpt lat="37.8261661" lon="13.6362644"><ele>520.0</ele><time>2026-04-26T07:50:32.322Z</time></trkpt><trkpt lat="37.8260201" lon="13.6362696"><ele>520.0</ele><time>2026-04-26T07:50:33.322Z</time></trkpt><trkpt lat="37.8258702" lon="13.6363313"><ele>520.0</ele><time>2026-04-26T07:50:34.322Z</time></trkpt><trkpt lat="37.8257115" lon="13.6364448"><ele>520.0</ele><time>2026-04-26T07:50:35.322Z</time></trkpt><trkpt lat="37.8255421" lon="13.6365637"><ele>520.0</ele><time>2026-04-26T07:50:36.322Z</time></trkpt><trkpt lat="37.8253689" lon="13.6366878"><ele>520.0</ele><time>2026-04-26T07:50:37.322Z</time></trkpt><trkpt lat="37.8251957" lon="13.6368136"><ele>518.6666666666667</ele><time>2026-04-26T07:50:38.322Z</time></trkpt><trkpt lat="37.8250225" lon="13.6369198"><ele>517.3333333333334</ele><time>2026-04-26T07:50:39.322Z</time></trkpt><trkpt lat="37.824882" lon="13.6370079"><ele>516.0</ele><time>2026-04-26T07:50:40.322Z</time></trkpt><trkpt lat="37.824753" lon="13.6370461"><ele>516.0</ele><time>2026-04-26T07:50:41.322Z</time></trkpt><trkpt lat="37.8246266" lon="13.6370286"><ele>516.0</ele><time>2026-04-26T07:50:42.322Z</time></trkpt><trkpt lat="37.8245" lon="13.6369613"><ele>516.0</ele><time>2026-04-26T07:50:43.322Z</time></trkpt><trkpt lat="37.8243741" lon="13.6369012"><ele>516.0</ele><time>2026-04-26T07:50:44.322Z</time></trkpt><trkpt lat="37.8242417" lon="13.6368826"><ele>514.6666666666666</ele><time>2026-04-26T07:50:45.322Z</time></trkpt><trkpt lat="37.8240875" lon="13.636925"><ele>513.3333333333333</ele><time>2026-04-26T07:50:46.322Z</time></trkpt><trkpt lat="37.8239414" lon="13.6370246"><ele>512.0</ele><time>2026-04-26T07:50:47.322Z</time></trkpt><trkpt lat="37.8237958" lon="13.6371607"><ele>516.6666666666666</ele><time>2026-04-26T07:50:48.322Z</time></trkpt><trkpt lat="37.8236603" lon="13.6372953"><ele>521.3333333333334</ele><time>2026-04-26T07:50:49.322Z</time></trkpt><trkpt lat="37.8235296" lon="13.6374185"><ele>526.0</ele><time>2026-04-26T07:50:50.322Z</time></trkpt><trkpt lat="37.8233889" lon="13.6375194"><ele>526.0</ele><time>2026-04-26T07:50:51.322Z</time></trkpt><trkpt lat="37.8232498" lon="13.6375855"><ele>526.0</ele><time>2026-04-26T07:50:52.322Z</time></trkpt><trkpt lat="37.8230985" lon="13.6376145"><ele>526.0</ele><time>2026-04-26T07:50:53.322Z</time></trkpt><trkpt lat="37.822941" lon="13.6376274"><ele>526.0</ele><time>2026-04-26T07:50:54.322Z</time></trkpt><trkpt lat="37.822789" lon="13.6376357"><ele>526.0</ele><time>2026-04-26T07:50:55.322Z</time></trkpt><trkpt lat="37.8226422" lon="13.6376274"><ele>526.0</ele><time>2026-04-26T07:50:56.322Z</time></trkpt><trkpt lat="37.8225166" lon="13.6375828"><ele>526.0</ele><time>2026-04-26T07:50:57.322Z</time></trkpt><trkpt lat="37.8223992" lon="13.6375269"><ele>525.6</ele><time>2026-04-26T07:50:58.322Z</time></trkpt><trkpt lat="37.8222975" lon="13.637461"><ele>525.2</ele><time>2026-04-26T07:50:59.322Z</time></trkpt><trkpt lat="37.8221942" lon="13.6374036"><ele>524.8</ele><time>2026-04-26T07:51:00.322Z</time></trkpt><trkpt lat="37.8220944" lon="13.6373688"><ele>524.4</ele><time>2026-04-26T07:51:01.322Z</time></trkpt><trkpt lat="37.8219886" lon="13.6373591"><ele>524.0</ele><time>2026-04-26T07:51:02.321Z</time></trkpt><trkpt lat="37.8218777" lon="13.6373634"><ele>525.5</ele><time>2026-04-26T07:51:03.322Z</time></trkpt><trkpt lat="37.821761" lon="13.6373658"><ele>527.0</ele><time>2026-04-26T07:51:04.321Z</time></trkpt><trkpt lat="37.8216353" lon="13.6373519"><ele>528.5</ele><time>2026-04-26T07:51:05.322Z</time></trkpt><trkpt lat="37.8215009" lon="13.6373167"><ele>530.0</ele><time>2026-04-26T07:51:06.322Z</time></trkpt><trkpt lat="37.821369" lon="13.6372725"><ele>530.0</ele><time>2026-04-26T07:51:07.322Z</time></trkpt><trkpt lat="37.821236" lon="13.6372205"><ele>530.0</ele><time>2026-04-26T07:51:08.322Z</time></trkpt><trkpt lat="37.8210981" lon="13.6371992"><ele>530.0</ele><time>2026-04-26T07:51:09.322Z</time></trkpt><trkpt lat="37.8209638" lon="13.6372118"><ele>530.0</ele><time>2026-04-26T07:51:10.321Z</time></trkpt><trkpt lat="37.8208366" lon="13.6372545"><ele>531.25</ele><time>2026-04-26T07:51:11.322Z</time></trkpt><trkpt lat="37.8207172" lon="13.637323"><ele>532.5</ele><time>2026-04-26T07:51:12.322Z</time></trkpt><trkpt lat="37.820599" lon="13.6373983"><ele>533.75</ele><time>2026-04-26T07:51:13.322Z</time></trkpt><trkpt lat="37.8204885" lon="13.6374862"><ele>535.0</ele><time>2026-04-26T07:51:14.322Z</time></trkpt><trkpt lat="37.8203819" lon="13.6375608"><ele>535.0</ele><time>2026-04-26T07:51:15.322Z</time></trkpt><trkpt lat="37.8202794" lon="13.6376246"><ele>535.0</ele><time>2026-04-26T07:51:16.322Z</time></trkpt><trkpt lat="37.8201789" lon="13.63769"><ele>535.0</ele><time>2026-04-26T07:51:17.322Z</time></trkpt><trkpt lat="37.8200813" lon="13.6377549"><ele>535.0</ele><time>2026-04-26T07:51:18.322Z</time></trkpt><trkpt lat="37.8199804" lon="13.6378212"><ele>537.8</ele><time>2026-04-26T07:51:19.322Z</time></trkpt><trkpt lat="37.8198805" lon="13.6378828"><ele>540.6</ele><time>2026-04-26T07:51:20.322Z</time></trkpt><trkpt lat="37.8197831" lon="13.6379425"><ele>543.4</ele><time>2026-04-26T07:51:21.322Z</time></trkpt><trkpt lat="37.8196881" lon="13.6380037"><ele>546.2</ele><time>2026-04-26T07:51:22.322Z</time></trkpt><trkpt lat="37.8195952" lon="13.6380638"><ele>549.0</ele><time>2026-04-26T07:51:23.322Z</time></trkpt><trkpt lat="37.8195061" lon="13.638118"><ele>549.0</ele><time>2026-04-26T07:51:24.322Z</time></trkpt><trkpt lat="37.8194116" lon="13.6381619"><ele>549.0</ele><time>2026-04-26T07:51:25.322Z</time></trkpt><trkpt lat="37.8193174" lon="13.638189"><ele>549.0</ele><time>2026-04-26T07:51:26.322Z</time></trkpt><trkpt lat="37.8192246" lon="13.6382014"><ele>549.0</ele><time>2026-04-26T07:51:27.322Z</time></trkpt><trkpt lat="37.8191267" lon="13.6382078"><ele>549.0</ele><time>2026-04-26T07:51:28.322Z</time></trkpt><trkpt lat="37.8190288" lon="13.6382162"><ele>548.6</ele><time>2026-04-26T07:51:29.322Z</time></trkpt><trkpt lat="37.818924" lon="13.6382205"><ele>548.2</ele><time>2026-04-26T07:51:30.322Z</time></trkpt><trkpt lat="37.8188271" lon="13.638208"><ele>547.8000000000001</ele><time>2026-04-26T07:51:31.321Z</time></trkpt><trkpt lat="37.8187377" lon="13.6381549"><ele>547.4</ele><time>2026-04-26T07:51:32.322Z</time></trkpt><trkpt lat="37.8186555" lon="13.6380795"><ele>547.0</ele><time>2026-04-26T07:51:33.322Z</time></trkpt><trkpt lat="37.8185672" lon="13.638006"><ele>549.75</ele><time>2026-04-26T07:51:34.322Z</time></trkpt><trkpt lat="37.8184667" lon="13.6379462"><ele>552.5</ele><time>2026-04-26T07:51:35.322Z</time></trkpt><trkpt lat="37.818349" lon="13.637912"><ele>555.25</ele><time>2026-04-26T07:51:36.322Z</time></trkpt><trkpt lat="37.818215" lon="13.6379044"><ele>558.0</ele><time>2026-04-26T07:51:37.322Z</time></trkpt><trkpt lat="37.8180783" lon="13.6379082"><ele>558.0</ele><time>2026-04-26T07:51:38.322Z</time></trkpt><trkpt lat="37.8179529" lon="13.6379136"><ele>558.0</ele><time>2026-04-26T07:51:39.322Z</time></trkpt><trkpt lat="37.8178429" lon="13.6379256"><ele>558.0</ele><time>2026-04-26T07:51:40.322Z</time></trkpt><trkpt lat="37.817746" lon="13.63794"><ele>558.0</ele><time>2026-04-26T07:51:41.322Z</time></trkpt><trkpt lat="37.8176565" lon="13.6379528"><ele>558.0</ele><time>2026-04-26T07:51:42.322Z</time></trkpt><trkpt lat="37.8175683" lon="13.6379598"><ele>558.6</ele><time>2026-04-26T07:51:43.322Z</time></trkpt><trkpt lat="37.8174694" lon="13.6379585"><ele>559.1999999999999</ele><time>2026-04-26T07:51:44.322Z</time></trkpt><trkpt lat="37.817372" lon="13.6379327"><ele>559.8</ele><time>2026-04-26T07:51:45.321Z</time></trkpt><trkpt lat="37.8172841" lon="13.6378653"><ele>560.4</ele><time>2026-04-26T07:51:46.322Z</time></trkpt><trkpt lat="37.8172097" lon="13.6377705"><ele>561.0</ele><time>2026-04-26T07:51:47.322Z</time></trkpt><trkpt lat="37.8171388" lon="13.6376842"><ele>561.25</ele><time>2026-04-26T07:51:48.322Z</time></trkpt><trkpt lat="37.8170419" lon="13.6376158"><ele>561.5</ele><time>2026-04-26T07:51:49.322Z</time></trkpt><trkpt lat="37.8169036" lon="13.637561"><ele>561.75</ele><time>2026-04-26T07:51:50.322Z</time></trkpt><trkpt lat="37.8167338" lon="13.6374959"><ele>562.0</ele><time>2026-04-26T07:51:51.322Z</time></trkpt><trkpt lat="37.8165579" lon="13.6374078"><ele>562.0</ele><time>2026-04-26T07:51:52.322Z</time></trkpt><trkpt lat="37.8163884" lon="13.6373233"><ele>562.0</ele><time>2026-04-26T07:51:53.322Z</time></trkpt><trkpt lat="37.8162213" lon="13.6372626"><ele>562.0</ele><time>2026-04-26T07:51:54.322Z</time></trkpt><trkpt lat="37.8160495" lon="13.6372383"><ele>564.3333333333334</ele><time>2026-04-26T07:51:55.322Z</time></trkpt><trkpt lat="37.8158842" lon="13.6372508"><ele>566.6666666666666</ele><time>2026-04-26T07:51:56.322Z</time></trkpt><trkpt lat="37.8157295" lon="13.6372762"><ele>569.0</ele><time>2026-04-26T07:51:57.321Z</time></trkpt><trkpt lat="37.8155924" lon="13.6372823"><ele>569.0</ele><time>2026-04-26T07:51:58.322Z</time></trkpt><trkpt lat="37.8154851" lon="13.637243"><ele>569.0</ele><time>2026-04-26T07:51:59.322Z</time></trkpt><trkpt lat="37.8154079" lon="13.6371644"><ele>569.0</ele><time>2026-04-26T07:52:00.322Z</time></trkpt><trkpt lat="37.8153572" lon="13.6370487"><ele>569.0</ele><time>2026-04-26T07:52:01.322Z</time></trkpt><trkpt lat="37.815329" lon="13.6368997"><ele>569.0</ele><time>2026-04-26T07:52:02.322Z</time></trkpt><trkpt lat="37.8153078" lon="13.6367417"><ele>567.75</ele><time>2026-04-26T07:52:03.321Z</time></trkpt><trkpt lat="37.815279" lon="13.6365769"><ele>566.5</ele><time>2026-04-26T07:52:04.322Z</time></trkpt><trkpt lat="37.8152382" lon="13.6364332"><ele>565.25</ele><time>2026-04-26T07:52:05.322Z</time></trkpt><trkpt lat="37.8151682" lon="13.6363146"><ele>564.0</ele><time>2026-04-26T07:52:06.322Z</time></trkpt><trkpt lat="37.8150616" lon="13.6362279"><ele>565.3333333333334</ele><time>2026-04-26T07:52:07.322Z</time></trkpt><trkpt lat="37.8149186" lon="13.6361799"><ele>566.6666666666667</ele><time>2026-04-26T07:52:08.322Z</time></trkpt><trkpt lat="37.8147594" lon="13.6361488"><ele>568.0</ele><time>2026-04-26T07:52:09.322Z</time></trkpt><trkpt lat="37.814602" lon="13.6361193"><ele>568.0</ele><time>2026-04-26T07:52:10.322Z</time></trkpt><trkpt lat="37.8144623" lon="13.6360958"><ele>568.0</ele><time>2026-04-26T07:52:11.322Z</time></trkpt><trkpt lat="37.8143321" lon="13.6361123"><ele>568.0</ele><time>2026-04-26T07:52:12.322Z</time></trkpt><trkpt lat="37.8142011" lon="13.6361835"><ele>568.0</ele><time>2026-04-26T07:52:13.322Z</time></trkpt><trkpt lat="37.8140606" lon="13.6362842"><ele>572.6666666666667</ele><time>2026-04-26T07:52:14.322Z</time></trkpt><trkpt lat="37.8139152" lon="13.6363814"><ele>577.3333333333334</ele><time>2026-04-26T07:52:15.322Z</time></trkpt><trkpt lat="37.8137578" lon="13.6364311"><ele>582.0</ele><time>2026-04-26T07:52:16.322Z</time></trkpt><trkpt lat="37.8135966" lon="13.6364334"><ele>583.5</ele><time>2026-04-26T07:52:17.322Z</time></trkpt><trkpt lat="37.8134475" lon="13.6364068"><ele>585.0</ele><time>2026-04-26T07:52:18.322Z</time></trkpt><trkpt lat="37.8133133" lon="13.63639"><ele>586.5</ele><time>2026-04-26T07:52:19.322Z</time></trkpt><trkpt lat="37.8131939" lon="13.6364252"><ele>588.0</ele><time>2026-04-26T07:52:20.322Z</time></trkpt><trkpt lat="37.8130725" lon="13.6365063"><ele>588.0</ele><time>2026-04-26T07:52:21.322Z</time></trkpt><trkpt lat="37.8129689" lon="13.6366008"><ele>588.0</ele><time>2026-04-26T07:52:22.322Z</time></trkpt><trkpt lat="37.8128935" lon="13.6366825"><ele>588.0</ele><time>2026-04-26T07:52:23.322Z</time></trkpt><trkpt lat="37.8128346" lon="13.6367439"><ele>588.0</ele><time>2026-04-26T07:52:24.322Z</time></trkpt><trkpt lat="37.8127779" lon="13.6367926"><ele>588.0</ele><time>2026-04-26T07:52:25.322Z</time></trkpt><trkpt lat="37.812717" lon="13.6368414"><ele>588.0</ele><time>2026-04-26T07:52:26.322Z</time></trkpt><trkpt lat="37.8126467" lon="13.636883"><ele>588.4</ele><time>2026-04-26T07:52:27.322Z</time></trkpt><trkpt lat="37.8125643" lon="13.6368973"><ele>588.8</ele><time>2026-04-26T07:52:28.322Z</time></trkpt><trkpt lat="37.8124724" lon="13.6368682"><ele>589.2</ele><time>2026-04-26T07:52:29.322Z</time></trkpt><trkpt lat="37.8123867" lon="13.6368287"><ele>589.6</ele><time>2026-04-26T07:52:30.322Z</time></trkpt><trkpt lat="37.8123035" lon="13.636785"><ele>590.0</ele><time>2026-04-26T07:52:31.322Z</time></trkpt><trkpt lat="37.8122118" lon="13.6367434"><ele>590.0</ele><time>2026-04-26T07:52:32.322Z</time></trkpt><trkpt lat="37.8121205" lon="13.6367062"><ele>590.0</ele><time>2026-04-26T07:52:33.322Z</time></trkpt><trkpt lat="37.8120263" lon="13.6366685"><ele>590.0</ele><time>2026-04-26T07:52:34.322Z</time></trkpt><trkpt lat="37.8119358" lon="13.6366321"><ele>590.0</ele><time>2026-04-26T07:52:35.321Z</time></trkpt><trkpt lat="37.8118527" lon="13.6365999"><ele>590.0</ele><time>2026-04-26T07:52:36.322Z</time></trkpt><trkpt lat="37.8117795" lon="13.636564"><ele>590.8</ele><time>2026-04-26T07:52:37.322Z</time></trkpt><trkpt lat="37.8117176" lon="13.6365102"><ele>591.6</ele><time>2026-04-26T07:52:38.322Z</time></trkpt><trkpt lat="37.8116628" lon="13.6364184"><ele>592.4</ele><time>2026-04-26T07:52:39.322Z</time></trkpt><trkpt lat="37.8116355" lon="13.6362775"><ele>593.2</ele><time>2026-04-26T07:52:40.322Z</time></trkpt><trkpt lat="37.8116174" lon="13.6361084"><ele>594.0</ele><time>2026-04-26T07:52:41.322Z</time></trkpt><trkpt lat="37.8116096" lon="13.6359368"><ele>594.0</ele><time>2026-04-26T07:52:42.322Z</time></trkpt><trkpt lat="37.8116076" lon="13.6357777"><ele>594.0</ele><time>2026-04-26T07:52:43.322Z</time></trkpt><trkpt lat="37.811594" lon="13.635619"><ele>594.0</ele><time>2026-04-26T07:52:44.322Z</time></trkpt><trkpt lat="37.8115594" lon="13.6354409"><ele>594.0</ele><time>2026-04-26T07:52:45.322Z</time></trkpt><trkpt lat="37.8115053" lon="13.6352294"><ele>594.0</ele><time>2026-04-26T07:52:46.322Z</time></trkpt><trkpt lat="37.8114515" lon="13.6350166"><ele>594.0</ele><time>2026-04-26T07:52:47.322Z</time></trkpt><trkpt lat="37.8113704" lon="13.6348152"><ele>594.0</ele><time>2026-04-26T07:52:48.322Z</time></trkpt><trkpt lat="37.8112734" lon="13.6346598"><ele>594.0</ele><time>2026-04-26T07:52:49.322Z</time></trkpt><trkpt lat="37.811153" lon="13.6345262"><ele>594.0</ele><time>2026-04-26T07:52:50.321Z</time></trkpt><trkpt lat="37.8110299" lon="13.6344318"><ele>594.0</ele><time>2026-04-26T07:52:51.322Z</time></trkpt><trkpt lat="37.810879" lon="13.6343764"><ele>597.0</ele><time>2026-04-26T07:52:52.322Z</time></trkpt><trkpt lat="37.8107039" lon="13.6343438"><ele>600.0</ele><time>2026-04-26T07:52:53.322Z</time></trkpt><trkpt lat="37.8105264" lon="13.6343041"><ele>603.0</ele><time>2026-04-26T07:52:54.322Z</time></trkpt><trkpt lat="37.8103568" lon="13.6342599"><ele>603.0</ele><time>2026-04-26T07:52:55.322Z</time></trkpt><trkpt lat="37.8102011" lon="13.6342041"><ele>603.0</ele><time>2026-04-26T07:52:56.322Z</time></trkpt><trkpt lat="37.8100547" lon="13.6341353"><ele>603.0</ele><time>2026-04-26T07:52:57.322Z</time></trkpt><trkpt lat="37.8099201" lon="13.6340661"><ele>605.25</ele><time>2026-04-26T07:52:58.322Z</time></trkpt><trkpt lat="37.8097982" lon="13.6339993"><ele>607.5</ele><time>2026-04-26T07:52:59.322Z</time></trkpt><trkpt lat="37.8096813" lon="13.6339476"><ele>609.75</ele><time>2026-04-26T07:53:00.322Z</time></trkpt><trkpt lat="37.8095681" lon="13.6339203"><ele>612.0</ele><time>2026-04-26T07:53:01.322Z</time></trkpt><trkpt lat="37.8094474" lon="13.6339369"><ele>612.0</ele><time>2026-04-26T07:53:02.322Z</time></trkpt><trkpt lat="37.8093386" lon="13.6339848"><ele>612.0</ele><time>2026-04-26T07:53:03.321Z</time></trkpt><trkpt lat="37.8092534" lon="13.6340771"><ele>612.0</ele><time>2026-04-26T07:53:04.321Z</time></trkpt><trkpt lat="37.8091772" lon="13.6341885"><ele>612.0</ele><time>2026-04-26T07:53:05.322Z</time></trkpt><trkpt lat="37.8091132" lon="13.6343225"><ele>612.0</ele><time>2026-04-26T07:53:06.322Z</time></trkpt><trkpt lat="37.8090586" lon="13.6344658"><ele>612.0</ele><time>2026-04-26T07:53:07.322Z</time></trkpt><trkpt lat="37.8090092" lon="13.6346186"><ele>612.0</ele><time>2026-04-26T07:53:08.322Z</time></trkpt><trkpt lat="37.8089607" lon="13.634767"><ele>612.0</ele><time>2026-04-26T07:53:09.321Z</time></trkpt><trkpt lat="37.8089165" lon="13.634915"><ele>612.0</ele><time>2026-04-26T07:53:10.322Z</time></trkpt><trkpt lat="37.8088745" lon="13.6350638"><ele>612.0</ele><time>2026-04-26T07:53:11.322Z</time></trkpt><trkpt lat="37.8088419" lon="13.6352228"><ele>612.0</ele><time>2026-04-26T07:53:12.322Z</time></trkpt><trkpt lat="37.8088149" lon="13.6353958"><ele>612.0</ele><time>2026-04-26T07:53:13.322Z</time></trkpt><trkpt lat="37.808785" lon="13.635575"><ele>612.5</ele><time>2026-04-26T07:53:14.322Z</time></trkpt><trkpt lat="37.8087596" lon="13.6357556"><ele>613.0</ele><time>2026-04-26T07:53:15.322Z</time></trkpt><trkpt lat="37.808734" lon="13.6359306"><ele>613.5</ele><time>2026-04-26T07:53:16.322Z</time></trkpt><trkpt lat="37.8087003" lon="13.6361073"><ele>614.0</ele><time>2026-04-26T07:53:17.322Z</time></trkpt><trkpt lat="37.8086585" lon="13.6362845"><ele>614.0</ele><time>2026-04-26T07:53:18.321Z</time></trkpt><trkpt lat="37.8086071" lon="13.6364601"><ele>614.0</ele><time>2026-04-26T07:53:19.32Z</time></trkpt><trkpt lat="37.8085479" lon="13.6366378"><ele>614.0</ele><time>2026-04-26T07:53:20.321Z</time></trkpt><trkpt lat="37.8084801" lon="13.6368142"><ele>607.3333333333333</ele><time>2026-04-26T07:53:21.32Z</time></trkpt><trkpt lat="37.8084114" lon="13.6369891"><ele>600.6666666666666</ele><time>2026-04-26T07:53:22.321Z</time></trkpt><trkpt lat="37.8083413" lon="13.6371568"><ele>594.0</ele><time>2026-04-26T07:53:23.321Z</time></trkpt><trkpt lat="37.8082625" lon="13.6373217"><ele>594.0</ele><time>2026-04-26T07:53:24.321Z</time></trkpt><trkpt lat="37.8081869" lon="13.6374876"><ele>594.0</ele><time>2026-04-26T07:53:25.321Z</time></trkpt><trkpt lat="37.8081107" lon="13.6376487"><ele>594.0</ele><time>2026-04-26T07:53:26.321Z</time></trkpt><trkpt lat="37.8080405" lon="13.6378032"><ele>594.0</ele><time>2026-04-26T07:53:27.321Z</time></trkpt><trkpt lat="37.8079676" lon="13.6379576"><ele>595.75</ele><time>2026-04-26T07:53:28.321Z</time></trkpt><trkpt lat="37.8079025" lon="13.6381044"><ele>597.5</ele><time>2026-04-26T07:53:29.321Z</time></trkpt><trkpt lat="37.8078529" lon="13.6382451"><ele>599.25</ele><time>2026-04-26T07:53:30.321Z</time></trkpt><trkpt lat="37.8078303" lon="13.6383883"><ele>601.0</ele><time>2026-04-26T07:53:31.321Z</time></trkpt><trkpt lat="37.8078273" lon="13.638536"><ele>602.5</ele><time>2026-04-26T07:53:32.321Z</time></trkpt><trkpt lat="37.8078509" lon="13.6386896"><ele>604.0</ele><time>2026-04-26T07:53:33.321Z</time></trkpt><trkpt lat="37.8078762" lon="13.6388525"><ele>605.5</ele><time>2026-04-26T07:53:34.32Z</time></trkpt><trkpt lat="37.8078857" lon="13.639003"><ele>607.0</ele><time>2026-04-26T07:53:35.321Z</time></trkpt><trkpt lat="37.8078644" lon="13.6391475"><ele>607.0</ele><time>2026-04-26T07:53:36.321Z</time></trkpt><trkpt lat="37.807814" lon="13.6392825"><ele>607.0</ele><time>2026-04-26T07:53:37.32Z</time></trkpt><trkpt lat="37.8077349" lon="13.6394306"><ele>607.0</ele><time>2026-04-26T07:53:38.321Z</time></trkpt><trkpt lat="37.8076413" lon="13.6395989"><ele>607.0</ele><time>2026-04-26T07:53:39.321Z</time></trkpt><trkpt lat="37.8075494" lon="13.6397775"><ele>599.3333333333334</ele><time>2026-04-26T07:53:40.321Z</time></trkpt><trkpt lat="37.8074566" lon="13.6399494"><ele>591.6666666666666</ele><time>2026-04-26T07:53:41.321Z</time></trkpt><trkpt lat="37.8073664" lon="13.640114"><ele>584.0</ele><time>2026-04-26T07:53:42.321Z</time></trkpt><trkpt lat="37.807279" lon="13.6402705"><ele>588.0</ele><time>2026-04-26T07:53:43.321Z</time></trkpt><trkpt lat="37.8071965" lon="13.6404147"><ele>592.0</ele><time>2026-04-26T07:53:44.321Z</time></trkpt><trkpt lat="37.8071228" lon="13.6405236"><ele>596.0</ele><time>2026-04-26T07:53:45.321Z</time></trkpt><trkpt lat="37.8070348" lon="13.6406097"><ele>600.0</ele><time>2026-04-26T07:53:46.321Z</time></trkpt><trkpt lat="37.8069369" lon="13.6406781"><ele>600.0</ele><time>2026-04-26T07:53:47.321Z</time></trkpt><trkpt lat="37.8068535" lon="13.6407607"><ele>600.0</ele><time>2026-04-26T07:53:48.321Z</time></trkpt><trkpt lat="37.8067998" lon="13.6408776"><ele>600.0</ele><time>2026-04-26T07:53:49.321Z</time></trkpt><trkpt lat="37.806767" lon="13.6410184"><ele>600.0</ele><time>2026-04-26T07:53:50.321Z</time></trkpt><trkpt lat="37.8067596" lon="13.6411737"><ele>592.75</ele><time>2026-04-26T07:53:51.321Z</time></trkpt><trkpt lat="37.8067437" lon="13.6413249"><ele>585.5</ele><time>2026-04-26T07:53:52.321Z</time></trkpt><trkpt lat="37.8066952" lon="13.641458"><ele>578.25</ele><time>2026-04-26T07:53:53.321Z</time></trkpt><trkpt lat="37.8066221" lon="13.641583"><ele>571.0</ele><time>2026-04-26T07:53:54.321Z</time></trkpt><trkpt lat="37.8065227" lon="13.6416985"><ele>571.0</ele><time>2026-04-26T07:53:55.32Z</time></trkpt><trkpt lat="37.8064226" lon="13.6418071"><ele>571.0</ele><time>2026-04-26T07:53:56.321Z</time></trkpt><trkpt lat="37.8063169" lon="13.6419173"><ele>571.0</ele><time>2026-04-26T07:53:57.321Z</time></trkpt><trkpt lat="37.8062167" lon="13.6420271"><ele>571.0</ele><time>2026-04-26T07:53:58.321Z</time></trkpt><trkpt lat="37.8061179" lon="13.6421269"><ele>573.5</ele><time>2026-04-26T07:53:59.321Z</time></trkpt><trkpt lat="37.8060433" lon="13.6422424"><ele>576.0</ele><time>2026-04-26T07:54:00.321Z</time></trkpt><trkpt lat="37.8059996" lon="13.6423824"><ele>578.5</ele><time>2026-04-26T07:54:01.321Z</time></trkpt><trkpt lat="37.8059781" lon="13.642528"><ele>581.0</ele><time>2026-04-26T07:54:02.321Z</time></trkpt><trkpt lat="37.8059577" lon="13.6426656"><ele>578.1666666666666</ele><time>2026-04-26T07:54:03.321Z</time></trkpt><trkpt lat="37.8059257" lon="13.6427736"><ele>575.3333333333333</ele><time>2026-04-26T07:54:04.321Z</time></trkpt><trkpt lat="37.8058681" lon="13.6428408"><ele>572.5</ele><time>2026-04-26T07:54:05.321Z</time></trkpt><trkpt lat="37.8057952" lon="13.6428412"><ele>569.6666666666666</ele><time>2026-04-26T07:54:06.321Z</time></trkpt><trkpt lat="37.8057342" lon="13.6428148"><ele>566.8333333333334</ele><time>2026-04-26T07:54:07.321Z</time></trkpt><trkpt lat="37.8056945" lon="13.6427444"><ele>564.0</ele><time>2026-04-26T07:54:08.321Z</time></trkpt><trkpt lat="37.805695" lon="13.6426395"><ele>563.0</ele><time>2026-04-26T07:54:09.321Z</time></trkpt><trkpt lat="37.8057387" lon="13.6425201"><ele>562.0</ele><time>2026-04-26T07:54:10.321Z</time></trkpt><trkpt lat="37.8057939" lon="13.642406"><ele>561.0</ele><time>2026-04-26T07:54:11.321Z</time></trkpt><trkpt lat="37.805841" lon="13.6422892"><ele>560.0</ele><time>2026-04-26T07:54:12.321Z</time></trkpt><trkpt lat="37.8058802" lon="13.6421754"><ele>559.0</ele><time>2026-04-26T07:54:13.321Z</time></trkpt><trkpt lat="37.8059019" lon="13.6420572"><ele>559.0</ele><time>2026-04-26T07:54:14.32Z</time></trkpt><trkpt lat="37.8058937" lon="13.641945"><ele>559.0</ele><time>2026-04-26T07:54:15.321Z</time></trkpt><trkpt lat="37.8058434" lon="13.6418424"><ele>559.0</ele><time>2026-04-26T07:54:16.321Z</time></trkpt><trkpt lat="37.8057851" lon="13.6417482"><ele>559.0</ele><time>2026-04-26T07:54:17.321Z</time></trkpt><trkpt lat="37.8057118" lon="13.6416451"><ele>559.0</ele><time>2026-04-26T07:54:18.321Z</time></trkpt><trkpt lat="37.8056436" lon="13.6415421"><ele>559.0</ele><time>2026-04-26T07:54:19.321Z</time></trkpt><trkpt lat="37.8055731" lon="13.6414265"><ele>559.0</ele><time>2026-04-26T07:54:20.321Z</time></trkpt><trkpt lat="37.8055091" lon="13.6413047"><ele>559.0</ele><time>2026-04-26T07:54:21.321Z</time></trkpt><trkpt lat="37.8054595" lon="13.6411852"><ele>559.0</ele><time>2026-04-26T07:54:22.321Z</time></trkpt><trkpt lat="37.805459" lon="13.6410632"><ele>559.0</ele><time>2026-04-26T07:54:23.321Z</time></trkpt><trkpt lat="37.8054883" lon="13.6409536"><ele>558.5</ele><time>2026-04-26T07:54:24.321Z</time></trkpt><trkpt lat="37.8055452" lon="13.6408722"><ele>558.0</ele><time>2026-04-26T07:54:25.321Z</time></trkpt><trkpt lat="37.8056117" lon="13.6408103"><ele>557.5</ele><time>2026-04-26T07:54:26.321Z</time></trkpt><trkpt lat="37.805689" lon="13.640743"><ele>557.0</ele><time>2026-04-26T07:54:27.321Z</time></trkpt><trkpt lat="37.805759" lon="13.6406816"><ele>556.5</ele><time>2026-04-26T07:54:28.321Z</time></trkpt><trkpt lat="37.8058224" lon="13.6406305"><ele>556.0</ele><time>2026-04-26T07:54:29.321Z</time></trkpt><trkpt lat="37.8059175" lon="13.6405628"><ele>556.0</ele><time>2026-04-26T07:54:31.321Z</time></trkpt><trkpt lat="37.8059885" lon="13.6404857"><ele>556.0</ele><time>2026-04-26T07:54:33.321Z</time></trkpt><trkpt lat="37.8060164" lon="13.6403685"><ele>556.0</ele><time>2026-04-26T07:54:35.321Z</time></trkpt><trkpt lat="37.805954" lon="13.6402362"><ele>556.0</ele><time>2026-04-26T07:54:37.321Z</time></trkpt><trkpt lat="37.8059081" lon="13.640169"><ele>556.0</ele><time>2026-04-26T07:54:38.321Z</time></trkpt><trkpt lat="37.8058636" lon="13.6400988"><ele>555.3333333333334</ele><time>2026-04-26T07:54:39.321Z</time></trkpt><trkpt lat="37.805822" lon="13.6400231"><ele>554.6666666666667</ele><time>2026-04-26T07:54:40.321Z</time></trkpt><trkpt lat="37.8057772" lon="13.6399512"><ele>554.0</ele><time>2026-04-26T07:54:41.321Z</time></trkpt><trkpt lat="37.8057294" lon="13.6398757"><ele>553.3333333333334</ele><time>2026-04-26T07:54:42.32Z</time></trkpt><trkpt lat="37.8056741" lon="13.6397964"><ele>552.6666666666666</ele><time>2026-04-26T07:54:43.321Z</time></trkpt><trkpt lat="37.8056247" lon="13.6397084"><ele>552.0</ele><time>2026-04-26T07:54:44.321Z</time></trkpt><trkpt lat="37.8055775" lon="13.6396123"><ele>552.0</ele><time>2026-04-26T07:54:45.321Z</time></trkpt><trkpt lat="37.8055294" lon="13.6395181"><ele>552.0</ele><time>2026-04-26T07:54:46.321Z</time></trkpt><trkpt lat="37.8054798" lon="13.6394265"><ele>552.0</ele><time>2026-04-26T07:54:47.32Z</time></trkpt><trkpt lat="37.8054323" lon="13.6393327"><ele>552.0</ele><time>2026-04-26T07:54:48.32Z</time></trkpt><trkpt lat="37.8053883" lon="13.6392357"><ele>552.0</ele><time>2026-04-26T07:54:49.321Z</time></trkpt><trkpt lat="37.8053454" lon="13.6391446"><ele>552.0</ele><time>2026-04-26T07:54:50.321Z</time></trkpt><trkpt lat="37.805308" lon="13.6390554"><ele>551.8000000000001</ele><time>2026-04-26T07:54:51.321Z</time></trkpt><trkpt lat="37.8052749" lon="13.6389756"><ele>551.6</ele><time>2026-04-26T07:54:52.321Z</time></trkpt><trkpt lat="37.8052455" lon="13.638904"><ele>551.4000000000001</ele><time>2026-04-26T07:54:53.321Z</time></trkpt><trkpt lat="37.8051884" lon="13.6387735"><ele>551.2</ele><time>2026-04-26T07:54:55.321Z</time></trkpt><trkpt lat="37.8051345" lon="13.6386559"><ele>551.0</ele><time>2026-04-26T07:54:57.321Z</time></trkpt><trkpt lat="37.8050679" lon="13.638537"><ele>547.5</ele><time>2026-04-26T07:54:59.321Z</time></trkpt><trkpt lat="37.8049923" lon="13.6384125"><ele>544.0</ele><time>2026-04-26T07:55:01.321Z</time></trkpt><trkpt lat="37.8049236" lon="13.6382968"><ele>540.5</ele><time>2026-04-26T07:55:03.321Z</time></trkpt><trkpt lat="37.804845" lon="13.6381833"><ele>537.0</ele><time>2026-04-26T07:55:05.321Z</time></trkpt><trkpt lat="37.804781" lon="13.6380686"><ele>537.0</ele><time>2026-04-26T07:55:07.321Z</time></trkpt><trkpt lat="37.8047329" lon="13.6379673"><ele>537.0</ele><time>2026-04-26T07:55:09.321Z</time></trkpt><trkpt lat="37.8046857" lon="13.6378885"><ele>537.0</ele><time>2026-04-26T07:55:11.321Z</time></trkpt><trkpt lat="37.804654" lon="13.6378183"><ele>537.0</ele><time>2026-04-26T07:55:13.321Z</time></trkpt><trkpt lat="37.8046017" lon="13.6377113"><ele>537.0</ele><time>2026-04-26T07:55:16.321Z</time></trkpt><trkpt lat="37.8045463" lon="13.6376109"><ele>537.0</ele><time>2026-04-26T07:55:18.321Z</time></trkpt><trkpt lat="37.8044729" lon="13.6374952"><ele>536.6666666666666</ele><time>2026-04-26T07:55:20.32Z</time></trkpt><trkpt lat="37.8044244" lon="13.6374226"><ele>536.3333333333334</ele><time>2026-04-26T07:55:21.321Z</time></trkpt><trkpt lat="37.8043636" lon="13.637355"><ele>536.0</ele><time>2026-04-26T07:55:22.321Z</time></trkpt><trkpt lat="37.8042978" lon="13.6372834"><ele>535.6666666666667</ele><time>2026-04-26T07:55:23.32Z</time></trkpt><trkpt lat="37.8042248" lon="13.6372037"><ele>535.3333333333334</ele><time>2026-04-26T07:55:24.321Z</time></trkpt><trkpt lat="37.804144" lon="13.6371237"><ele>535.0</ele><time>2026-04-26T07:55:25.321Z</time></trkpt><trkpt lat="37.8040646" lon="13.6370389"><ele>533.6</ele><time>2026-04-26T07:55:26.321Z</time></trkpt><trkpt lat="37.8039904" lon="13.6369483"><ele>532.2</ele><time>2026-04-26T07:55:27.32Z</time></trkpt><trkpt lat="37.8039182" lon="13.6368529"><ele>530.8</ele><time>2026-04-26T07:55:28.321Z</time></trkpt><trkpt lat="37.8038519" lon="13.6367603"><ele>529.4</ele><time>2026-04-26T07:55:29.321Z</time></trkpt><trkpt lat="37.8037885" lon="13.6366692"><ele>528.0</ele><time>2026-04-26T07:55:30.321Z</time></trkpt><trkpt lat="37.8037393" lon="13.6365928"><ele>528.0</ele><time>2026-04-26T07:55:31.321Z</time></trkpt><trkpt lat="37.8036912" lon="13.636536"><ele>528.0</ele><time>2026-04-26T07:55:32.321Z</time></trkpt><trkpt lat="37.8036068" lon="13.6364621"><ele>528.0</ele><time>2026-04-26T07:55:34.321Z</time></trkpt><trkpt lat="37.8034888" lon="13.6364898"><ele>528.0</ele><time>2026-04-26T07:55:36.321Z</time></trkpt><trkpt lat="37.8034048" lon="13.6365429"><ele>528.0</ele><time>2026-04-26T07:55:37.321Z</time></trkpt><trkpt lat="37.803316" lon="13.6366234"><ele>526.0</ele><time>2026-04-26T07:55:38.321Z</time></trkpt><trkpt lat="37.8032201" lon="13.6367045"><ele>524.0</ele><time>2026-04-26T07:55:39.321Z</time></trkpt><trkpt lat="37.8031125" lon="13.6367827"><ele>522.0</ele><time>2026-04-26T07:55:40.321Z</time></trkpt><trkpt lat="37.8030049" lon="13.6368642"><ele>520.0</ele><time>2026-04-26T07:55:41.321Z</time></trkpt><trkpt lat="37.8028987" lon="13.6369441"><ele>519.75</ele><time>2026-04-26T07:55:42.321Z</time></trkpt><trkpt lat="37.8027941" lon="13.6370275"><ele>519.5</ele><time>2026-04-26T07:55:43.321Z</time></trkpt><trkpt lat="37.8026957" lon="13.6371118"><ele>519.25</ele><time>2026-04-26T07:55:44.321Z</time></trkpt><trkpt lat="37.8025981" lon="13.637186"><ele>519.0</ele><time>2026-04-26T07:55:45.321Z</time></trkpt><trkpt lat="37.8025003" lon="13.6372434"><ele>518.25</ele><time>2026-04-26T07:55:46.321Z</time></trkpt><trkpt lat="37.8024007" lon="13.6372708"><ele>517.5</ele><time>2026-04-26T07:55:47.321Z</time></trkpt><trkpt lat="37.8022965" lon="13.6372721"><ele>516.75</ele><time>2026-04-26T07:55:48.321Z</time></trkpt><trkpt lat="37.8021781" lon="13.637236"><ele>516.0</ele><time>2026-04-26T07:55:49.321Z</time></trkpt><trkpt lat="37.8020572" lon="13.6371838"><ele>516.0</ele><time>2026-04-26T07:55:50.321Z</time></trkpt><trkpt lat="37.8019336" lon="13.6371143"><ele>516.0</ele><time>2026-04-26T07:55:51.321Z</time></trkpt><trkpt lat="37.8018086" lon="13.6370395"><ele>516.0</ele><time>2026-04-26T07:55:52.321Z</time></trkpt><trkpt lat="37.8016646" lon="13.6369689"><ele>516.0</ele><time>2026-04-26T07:55:53.321Z</time></trkpt><trkpt lat="37.8015115" lon="13.6368975"><ele>516.3333333333334</ele><time>2026-04-26T07:55:54.321Z</time></trkpt><trkpt lat="37.8013556" lon="13.63682"><ele>516.6666666666667</ele><time>2026-04-26T07:55:55.321Z</time></trkpt><trkpt lat="37.8011996" lon="13.6367389"><ele>517.0</ele><time>2026-04-26T07:55:56.321Z</time></trkpt><trkpt lat="37.8010567" lon="13.6366601"><ele>515.0</ele><time>2026-04-26T07:55:57.321Z</time></trkpt><trkpt lat="37.8009207" lon="13.6365904"><ele>513.0</ele><time>2026-04-26T07:55:58.321Z</time></trkpt><trkpt lat="37.8007971" lon="13.6365254"><ele>511.0</ele><time>2026-04-26T07:55:59.321Z</time></trkpt><trkpt lat="37.8006805" lon="13.6364754"><ele>509.0</ele><time>2026-04-26T07:56:00.321Z</time></trkpt><trkpt lat="37.8005623" lon="13.6364325"><ele>509.0</ele><time>2026-04-26T07:56:01.321Z</time></trkpt><trkpt lat="37.8004403" lon="13.6364135"><ele>509.0</ele><time>2026-04-26T07:56:02.321Z</time></trkpt><trkpt lat="37.8003153" lon="13.6364057"><ele>509.0</ele><time>2026-04-26T07:56:03.321Z</time></trkpt><trkpt lat="37.8001792" lon="13.6364122"><ele>509.0</ele><time>2026-04-26T07:56:04.321Z</time></trkpt><trkpt lat="37.8000415" lon="13.636442"><ele>507.5</ele><time>2026-04-26T07:56:05.321Z</time></trkpt><trkpt lat="37.7999122" lon="13.6364762"><ele>506.0</ele><time>2026-04-26T07:56:06.321Z</time></trkpt><trkpt lat="37.7998014" lon="13.6365144"><ele>504.5</ele><time>2026-04-26T07:56:07.321Z</time></trkpt><trkpt lat="37.799706" lon="13.6365801"><ele>503.0</ele><time>2026-04-26T07:56:08.321Z</time></trkpt><trkpt lat="37.7996148" lon="13.6366795"><ele>503.0</ele><time>2026-04-26T07:56:09.321Z</time></trkpt><trkpt lat="37.7995223" lon="13.6367935"><ele>503.0</ele><time>2026-04-26T07:56:10.321Z</time></trkpt><trkpt lat="37.7994273" lon="13.636904"><ele>503.0</ele><time>2026-04-26T07:56:11.321Z</time></trkpt><trkpt lat="37.7993193" lon="13.6370183"><ele>503.0</ele><time>2026-04-26T07:56:12.321Z</time></trkpt><trkpt lat="37.7992112" lon="13.6371391"><ele>499.75</ele><time>2026-04-26T07:56:13.321Z</time></trkpt><trkpt lat="37.7991027" lon="13.6372763"><ele>496.5</ele><time>2026-04-26T07:56:14.321Z</time></trkpt><trkpt lat="37.7990004" lon="13.6374161"><ele>493.25</ele><time>2026-04-26T07:56:15.321Z</time></trkpt><trkpt lat="37.7989046" lon="13.6375537"><ele>490.0</ele><time>2026-04-26T07:56:16.321Z</time></trkpt><trkpt lat="37.7988124" lon="13.6376936"><ele>488.0</ele><time>2026-04-26T07:56:17.321Z</time></trkpt><trkpt lat="37.7987154" lon="13.6378268"><ele>486.0</ele><time>2026-04-26T07:56:18.321Z</time></trkpt><trkpt lat="37.7986245" lon="13.6379544"><ele>484.0</ele><time>2026-04-26T07:56:19.321Z</time></trkpt><trkpt lat="37.798532" lon="13.6380777"><ele>482.0</ele><time>2026-04-26T07:56:20.321Z</time></trkpt><trkpt lat="37.7984495" lon="13.6381958"><ele>481.6</ele><time>2026-04-26T07:56:21.321Z</time></trkpt><trkpt lat="37.7983745" lon="13.6383091"><ele>481.20000000000005</ele><time>2026-04-26T07:56:22.321Z</time></trkpt><trkpt lat="37.7983064" lon="13.6384183"><ele>480.8</ele><time>2026-04-26T07:56:23.321Z</time></trkpt><trkpt lat="37.7982475" lon="13.6385258"><ele>480.4</ele><time>2026-04-26T07:56:24.321Z</time></trkpt><trkpt lat="37.79819" lon="13.6386266"><ele>480.0</ele><time>2026-04-26T07:56:25.321Z</time></trkpt><trkpt lat="37.7981336" lon="13.6387266"><ele>478.6</ele><time>2026-04-26T07:56:26.321Z</time></trkpt><trkpt lat="37.7980804" lon="13.6388261"><ele>477.2</ele><time>2026-04-26T07:56:27.321Z</time></trkpt><trkpt lat="37.7980299" lon="13.6389136"><ele>475.79999999999995</ele><time>2026-04-26T07:56:28.321Z</time></trkpt><trkpt lat="37.7979918" lon="13.6389877"><ele>474.4</ele><time>2026-04-26T07:56:29.321Z</time></trkpt><trkpt lat="37.7979263" lon="13.6391012"><ele>473.0</ele><time>2026-04-26T07:56:31.321Z</time></trkpt><trkpt lat="37.7978647" lon="13.6392333"><ele>473.0</ele><time>2026-04-26T07:56:33.321Z</time></trkpt><trkpt lat="37.7978259" lon="13.6393422"><ele>473.0</ele><time>2026-04-26T07:56:34.321Z</time></trkpt><trkpt lat="37.7977798" lon="13.6394669"><ele>473.0</ele><time>2026-04-26T07:56:35.321Z</time></trkpt><trkpt lat="37.7977214" lon="13.6396112"><ele>473.0</ele><time>2026-04-26T07:56:36.321Z</time></trkpt><trkpt lat="37.7976559" lon="13.6397708"><ele>470.0</ele><time>2026-04-26T07:56:37.321Z</time></trkpt><trkpt lat="37.7975746" lon="13.6399222"><ele>467.0</ele><time>2026-04-26T07:56:38.321Z</time></trkpt><trkpt lat="37.7974815" lon="13.6400702"><ele>464.0</ele><time>2026-04-26T07:56:39.321Z</time></trkpt><trkpt lat="37.7973795" lon="13.6402133"><ele>461.0</ele><time>2026-04-26T07:56:40.321Z</time></trkpt><trkpt lat="37.7972628" lon="13.6403531"><ele>457.0</ele><time>2026-04-26T07:56:41.32Z</time></trkpt><trkpt lat="37.7971432" lon="13.6404839"><ele>453.0</ele><time>2026-04-26T07:56:42.321Z</time></trkpt><trkpt lat="37.7970154" lon="13.6406084"><ele>449.0</ele><time>2026-04-26T07:56:43.321Z</time></trkpt><trkpt lat="37.7968866" lon="13.6407274"><ele>449.0</ele><time>2026-04-26T07:56:44.321Z</time></trkpt><trkpt lat="37.7967537" lon="13.6408538"><ele>449.0</ele><time>2026-04-26T07:56:45.321Z</time></trkpt><trkpt lat="37.7966299" lon="13.6409953"><ele>449.0</ele><time>2026-04-26T07:56:46.321Z</time></trkpt><trkpt lat="37.7965145" lon="13.64115"><ele>448.3333333333333</ele><time>2026-04-26T07:56:47.321Z</time></trkpt><trkpt lat="37.7964047" lon="13.6413196"><ele>447.66666666666663</ele><time>2026-04-26T07:56:48.321Z</time></trkpt><trkpt lat="37.7963038" lon="13.6414989"><ele>447.0</ele><time>2026-04-26T07:56:49.321Z</time></trkpt><trkpt lat="37.7962066" lon="13.6416701"><ele>447.0</ele><time>2026-04-26T07:56:50.321Z</time></trkpt><trkpt lat="37.796105" lon="13.6418229"><ele>447.0</ele><time>2026-04-26T07:56:51.321Z</time></trkpt><trkpt lat="37.7959836" lon="13.6419322"><ele>447.0</ele><time>2026-04-26T07:56:52.321Z</time></trkpt><trkpt lat="37.7958381" lon="13.6420216"><ele>445.66666666666663</ele><time>2026-04-26T07:56:53.32Z</time></trkpt><trkpt lat="37.7956738" lon="13.642092"><ele>444.3333333333333</ele><time>2026-04-26T07:56:54.321Z</time></trkpt><trkpt lat="37.7954872" lon="13.642146"><ele>443.0</ele><time>2026-04-26T07:56:55.321Z</time></trkpt><trkpt lat="37.7953089" lon="13.642207"><ele>442.66666666666663</ele><time>2026-04-26T07:56:56.321Z</time></trkpt><trkpt lat="37.7951473" lon="13.6422724"><ele>442.33333333333337</ele><time>2026-04-26T07:56:57.321Z</time></trkpt><trkpt lat="37.7949964" lon="13.6423428"><ele>442.0</ele><time>2026-04-26T07:56:58.321Z</time></trkpt><trkpt lat="37.7948556" lon="13.6424429"><ele>442.0</ele><time>2026-04-26T07:56:59.321Z</time></trkpt><trkpt lat="37.7947111" lon="13.6425716"><ele>442.0</ele><time>2026-04-26T07:57:00.321Z</time></trkpt><trkpt lat="37.7945644" lon="13.6427106"><ele>442.0</ele><time>2026-04-26T07:57:01.321Z</time></trkpt><trkpt lat="37.7944272" lon="13.6428429"><ele>441.0</ele><time>2026-04-26T07:57:02.32Z</time></trkpt><trkpt lat="37.7942995" lon="13.6429671"><ele>440.0</ele><time>2026-04-26T07:57:03.32Z</time></trkpt><trkpt lat="37.7941863" lon="13.6430774"><ele>439.0</ele><time>2026-04-26T07:57:04.321Z</time></trkpt><trkpt lat="37.7940886" lon="13.6432039"><ele>438.0</ele><time>2026-04-26T07:57:05.321Z</time></trkpt><trkpt lat="37.7940353" lon="13.6433762"><ele>438.0</ele><time>2026-04-26T07:57:06.321Z</time></trkpt><trkpt lat="37.7940116" lon="13.6435856"><ele>438.0</ele><time>2026-04-26T07:57:07.321Z</time></trkpt><trkpt lat="37.7939969" lon="13.6438063"><ele>438.0</ele><time>2026-04-26T07:57:08.321Z</time></trkpt><trkpt lat="37.7939851" lon="13.6440286"><ele>436.33333333333337</ele><time>2026-04-26T07:57:09.321Z</time></trkpt><trkpt lat="37.7939807" lon="13.6442331"><ele>434.6666666666667</ele><time>2026-04-26T07:57:10.321Z</time></trkpt><trkpt lat="37.793998" lon="13.6444228"><ele>433.0</ele><time>2026-04-26T07:57:11.321Z</time></trkpt><trkpt lat="37.7940377" lon="13.6445913"><ele>429.75</ele><time>2026-04-26T07:57:12.321Z</time></trkpt><trkpt lat="37.7941084" lon="13.6447417"><ele>426.5</ele><time>2026-04-26T07:57:13.321Z</time></trkpt><trkpt lat="37.7942044" lon="13.6448773"><ele>423.25</ele><time>2026-04-26T07:57:14.321Z</time></trkpt><trkpt lat="37.7943272" lon="13.6449784"><ele>420.0</ele><time>2026-04-26T07:57:15.321Z</time></trkpt><trkpt lat="37.7944602" lon="13.6450412"><ele>420.0</ele><time>2026-04-26T07:57:16.32Z</time></trkpt><trkpt lat="37.7946061" lon="13.6450673"><ele>420.0</ele><time>2026-04-26T07:57:17.321Z</time></trkpt><trkpt lat="37.7947603" lon="13.6450473"><ele>420.0</ele><time>2026-04-26T07:57:18.321Z</time></trkpt><trkpt lat="37.7949204" lon="13.6449887"><ele>420.0</ele><time>2026-04-26T07:57:19.321Z</time></trkpt><trkpt lat="37.7950821" lon="13.6449002"><ele>420.0</ele><time>2026-04-26T07:57:20.321Z</time></trkpt><trkpt lat="37.7952507" lon="13.6447915"><ele>420.0</ele><time>2026-04-26T07:57:21.321Z</time></trkpt><trkpt lat="37.7954017" lon="13.6446793"><ele>420.5</ele><time>2026-04-26T07:57:22.321Z</time></trkpt><trkpt lat="37.7955385" lon="13.6445703"><ele>421.0</ele><time>2026-04-26T07:57:23.321Z</time></trkpt><trkpt lat="37.7956422" lon="13.6444821"><ele>421.5</ele><time>2026-04-26T07:57:24.321Z</time></trkpt><trkpt lat="37.795737" lon="13.644436"><ele>422.0</ele><time>2026-04-26T07:57:25.321Z</time></trkpt><trkpt lat="37.7958246" lon="13.6444349"><ele>420.16666666666663</ele><time>2026-04-26T07:57:26.321Z</time></trkpt><trkpt lat="37.7958867" lon="13.6444821"><ele>418.3333333333333</ele><time>2026-04-26T07:57:27.321Z</time></trkpt><trkpt lat="37.7959227" lon="13.6445768"><ele>416.5</ele><time>2026-04-26T07:57:28.321Z</time></trkpt><trkpt lat="37.7959158" lon="13.6446767"><ele>414.66666666666663</ele><time>2026-04-26T07:57:29.321Z</time></trkpt><trkpt lat="37.7958624" lon="13.6447653"><ele>412.8333333333333</ele><time>2026-04-26T07:57:30.321Z</time></trkpt><trkpt lat="37.7957797" lon="13.6448379"><ele>411.0</ele><time>2026-04-26T07:57:31.321Z</time></trkpt><trkpt lat="37.7956691" lon="13.6449128"><ele>411.0</ele><time>2026-04-26T07:57:32.321Z</time></trkpt><trkpt lat="37.7955699" lon="13.6450112"><ele>411.0</ele><time>2026-04-26T07:57:33.321Z</time></trkpt><trkpt lat="37.7954808" lon="13.645157"><ele>411.0</ele><time>2026-04-26T07:57:34.321Z</time></trkpt><trkpt lat="37.7954046" lon="13.6453374"><ele>411.0</ele><time>2026-04-26T07:57:35.32Z</time></trkpt><trkpt lat="37.7953292" lon="13.645528"><ele>410.0</ele><time>2026-04-26T07:57:36.321Z</time></trkpt><trkpt lat="37.7952531" lon="13.6457299"><ele>409.0</ele><time>2026-04-26T07:57:37.321Z</time></trkpt><trkpt lat="37.7951845" lon="13.6459349"><ele>408.0</ele><time>2026-04-26T07:57:38.321Z</time></trkpt><trkpt lat="37.7951185" lon="13.646143"><ele>405.0</ele><time>2026-04-26T07:57:39.321Z</time></trkpt><trkpt lat="37.7950714" lon="13.646353"><ele>402.0</ele><time>2026-04-26T07:57:40.321Z</time></trkpt><trkpt lat="37.7950346" lon="13.6465811"><ele>399.0</ele><time>2026-04-26T07:57:41.321Z</time></trkpt><trkpt lat="37.7950098" lon="13.6468165"><ele>398.33333333333337</ele><time>2026-04-26T07:57:42.321Z</time></trkpt><trkpt lat="37.7949914" lon="13.6470634"><ele>397.6666666666667</ele><time>2026-04-26T07:57:43.321Z</time></trkpt><trkpt lat="37.7949734" lon="13.6473073"><ele>397.0</ele><time>2026-04-26T07:57:44.321Z</time></trkpt><trkpt lat="37.7949554" lon="13.6475456"><ele>397.0</ele><time>2026-04-26T07:57:45.321Z</time></trkpt><trkpt lat="37.7949267" lon="13.6477795"><ele>397.0</ele><time>2026-04-26T07:57:46.321Z</time></trkpt><trkpt lat="37.7948762" lon="13.6480027"><ele>397.0</ele><time>2026-04-26T07:57:47.321Z</time></trkpt><trkpt lat="37.7948182" lon="13.6482127"><ele>398.33333333333337</ele><time>2026-04-26T07:57:48.321Z</time></trkpt><trkpt lat="37.7947616" lon="13.6484096"><ele>399.66666666666663</ele><time>2026-04-26T07:57:49.321Z</time></trkpt><trkpt lat="37.7947034" lon="13.6486046"><ele>401.0</ele><time>2026-04-26T07:57:50.321Z</time></trkpt><trkpt lat="37.7946413" lon="13.648805"><ele>401.66666666666663</ele><time>2026-04-26T07:57:51.32Z</time></trkpt><trkpt lat="37.7945862" lon="13.6490091"><ele>402.33333333333337</ele><time>2026-04-26T07:57:52.321Z</time></trkpt><trkpt lat="37.7945293" lon="13.6492153"><ele>403.0</ele><time>2026-04-26T07:57:53.321Z</time></trkpt><trkpt lat="37.7944669" lon="13.6494261"><ele>401.6666666666667</ele><time>2026-04-26T07:57:54.321Z</time></trkpt><trkpt lat="37.7944096" lon="13.6496401"><ele>400.33333333333337</ele><time>2026-04-26T07:57:55.321Z</time></trkpt><trkpt lat="37.7943529" lon="13.6498449"><ele>399.0</ele><time>2026-04-26T07:57:56.321Z</time></trkpt><trkpt lat="37.7943203" lon="13.6500435"><ele>396.66666666666663</ele><time>2026-04-26T07:57:57.321Z</time></trkpt><trkpt lat="37.7943202" lon="13.6502615"><ele>394.3333333333333</ele><time>2026-04-26T07:57:58.321Z</time></trkpt><trkpt lat="37.7943493" lon="13.6505005"><ele>392.0</ele><time>2026-04-26T07:57:59.321Z</time></trkpt><trkpt lat="37.7943912" lon="13.6507419"><ele>392.0</ele><time>2026-04-26T07:58:00.321Z</time></trkpt><trkpt lat="37.7944355" lon="13.6509979"><ele>392.0</ele><time>2026-04-26T07:58:01.321Z</time></trkpt><trkpt lat="37.7944837" lon="13.6512616"><ele>392.0</ele><time>2026-04-26T07:58:02.321Z</time></trkpt><trkpt lat="37.7945375" lon="13.6515291"><ele>390.66666666666663</ele><time>2026-04-26T07:58:03.321Z</time></trkpt><trkpt lat="37.7945924" lon="13.651803"><ele>389.33333333333337</ele><time>2026-04-26T07:58:04.321Z</time></trkpt><trkpt lat="37.7946438" lon="13.6520798"><ele>388.0</ele><time>2026-04-26T07:58:05.321Z</time></trkpt><trkpt lat="37.7946912" lon="13.6523444"><ele>387.33333333333337</ele><time>2026-04-26T07:58:06.321Z</time></trkpt><trkpt lat="37.7947352" lon="13.652595"><ele>386.66666666666663</ele><time>2026-04-26T07:58:07.321Z</time></trkpt><trkpt lat="37.7947747" lon="13.6528368"><ele>386.0</ele><time>2026-04-26T07:58:08.321Z</time></trkpt><trkpt lat="37.7948084" lon="13.6530638"><ele>385.3333333333333</ele><time>2026-04-26T07:58:09.321Z</time></trkpt><trkpt lat="37.7948542" lon="13.6532938"><ele>384.66666666666663</ele><time>2026-04-26T07:58:10.321Z</time></trkpt><trkpt lat="37.7949091" lon="13.6535327"><ele>384.0</ele><time>2026-04-26T07:58:11.32Z</time></trkpt><trkpt lat="37.7949722" lon="13.6537887"><ele>383.6666666666667</ele><time>2026-04-26T07:58:12.321Z</time></trkpt><trkpt lat="37.7950335" lon="13.6540581"><ele>383.33333333333337</ele><time>2026-04-26T07:58:13.321Z</time></trkpt><trkpt lat="37.7950912" lon="13.6543293"><ele>383.0</ele><time>2026-04-26T07:58:14.321Z</time></trkpt><trkpt lat="37.7951536" lon="13.6546"><ele>384.0</ele><time>2026-04-26T07:58:15.321Z</time></trkpt><trkpt lat="37.7952188" lon="13.6548713"><ele>385.0</ele><time>2026-04-26T07:58:16.321Z</time></trkpt><trkpt lat="37.7952803" lon="13.6551421"><ele>386.0</ele><time>2026-04-26T07:58:17.321Z</time></trkpt><trkpt lat="37.7953382" lon="13.65541"><ele>386.0</ele><time>2026-04-26T07:58:18.321Z</time></trkpt><trkpt lat="37.7953978" lon="13.6556801"><ele>386.0</ele><time>2026-04-26T07:58:19.321Z</time></trkpt><trkpt lat="37.7954617" lon="13.6559481"><ele>386.0</ele><time>2026-04-26T07:58:20.321Z</time></trkpt><trkpt lat="37.7955204" lon="13.6562208"><ele>385.3333333333333</ele><time>2026-04-26T07:58:21.321Z</time></trkpt><trkpt lat="37.7955811" lon="13.6564917"><ele>384.66666666666663</ele><time>2026-04-26T07:58:22.321Z</time></trkpt><trkpt lat="37.7956413" lon="13.6567627"><ele>384.0</ele><time>2026-04-26T07:58:23.321Z</time></trkpt><trkpt lat="37.7957034" lon="13.6570318"><ele>383.3333333333333</ele><time>2026-04-26T07:58:24.321Z</time></trkpt><trkpt lat="37.7957642" lon="13.6572984"><ele>382.66666666666663</ele><time>2026-04-26T07:58:25.321Z</time></trkpt><trkpt lat="37.7958244" lon="13.6575661"><ele>382.0</ele><time>2026-04-26T07:58:26.321Z</time></trkpt><trkpt lat="37.7958879" lon="13.6578372"><ele>380.5</ele><time>2026-04-26T07:58:27.321Z</time></trkpt><trkpt lat="37.7959496" lon="13.658107"><ele>379.0</ele><time>2026-04-26T07:58:28.321Z</time></trkpt><trkpt lat="37.7960136" lon="13.6583843"><ele>383.3333333333333</ele><time>2026-04-26T07:58:29.321Z</time></trkpt><trkpt lat="37.7960748" lon="13.6586632"><ele>387.66666666666663</ele><time>2026-04-26T07:58:30.321Z</time></trkpt><trkpt lat="37.7961355" lon="13.658931"><ele>392.0</ele><time>2026-04-26T07:58:31.321Z</time></trkpt><trkpt lat="37.7961855" lon="13.6591807"><ele>392.0</ele><time>2026-04-26T07:58:32.321Z</time></trkpt><trkpt lat="37.7962183" lon="13.6594229"><ele>392.0</ele><time>2026-04-26T07:58:33.321Z</time></trkpt><trkpt lat="37.796234" lon="13.6596635"><ele>392.0</ele><time>2026-04-26T07:58:34.321Z</time></trkpt><trkpt lat="37.7962242" lon="13.6599101"><ele>392.0</ele><time>2026-04-26T07:58:35.321Z</time></trkpt><trkpt lat="37.7961991" lon="13.6601659"><ele>392.0</ele><time>2026-04-26T07:58:36.321Z</time></trkpt><trkpt lat="37.7961631" lon="13.6604236"><ele>392.0</ele><time>2026-04-26T07:58:37.321Z</time></trkpt><trkpt lat="37.796105" lon="13.6606612"><ele>392.0</ele><time>2026-04-26T07:58:38.321Z</time></trkpt><trkpt lat="37.7960334" lon="13.6609029"><ele>392.0</ele><time>2026-04-26T07:58:39.321Z</time></trkpt><trkpt lat="37.7959632" lon="13.6611426"><ele>392.0</ele><time>2026-04-26T07:58:40.321Z</time></trkpt><trkpt lat="37.7958813" lon="13.6613906"><ele>390.0</ele><time>2026-04-26T07:58:41.321Z</time></trkpt><trkpt lat="37.7957962" lon="13.661633"><ele>388.0</ele><time>2026-04-26T07:58:42.321Z</time></trkpt><trkpt lat="37.7956973" lon="13.6618874"><ele>386.0</ele><time>2026-04-26T07:58:43.321Z</time></trkpt><trkpt lat="37.7956017" lon="13.6621482"><ele>386.0</ele><time>2026-04-26T07:58:44.321Z</time></trkpt><trkpt lat="37.7955022" lon="13.6624087"><ele>386.0</ele><time>2026-04-26T07:58:45.32Z</time></trkpt><trkpt lat="37.7953998" lon="13.662675"><ele>386.5</ele><time>2026-04-26T07:58:46.32Z</time></trkpt><trkpt lat="37.7953013" lon="13.6629511"><ele>387.0</ele><time>2026-04-26T07:58:47.32Z</time></trkpt><trkpt lat="37.7951952" lon="13.6632225"><ele>378.5</ele><time>2026-04-26T07:58:48.321Z</time></trkpt><trkpt lat="37.7950902" lon="13.6634955"><ele>370.0</ele><time>2026-04-26T07:58:49.321Z</time></trkpt><trkpt lat="37.7949962" lon="13.6637657"><ele>370.0</ele><time>2026-04-26T07:58:50.321Z</time></trkpt><trkpt lat="37.7949082" lon="13.6640341"><ele>370.0</ele><time>2026-04-26T07:58:51.321Z</time></trkpt><trkpt lat="37.7948193" lon="13.6642978"><ele>372.5</ele><time>2026-04-26T07:58:52.321Z</time></trkpt><trkpt lat="37.7947043" lon="13.6645706"><ele>375.0</ele><time>2026-04-26T07:58:53.321Z</time></trkpt><trkpt lat="37.7945696" lon="13.664852"><ele>375.0</ele><time>2026-04-26T07:58:54.321Z</time></trkpt><trkpt lat="37.7944304" lon="13.6651043"><ele>375.0</ele><time>2026-04-26T07:58:55.321Z</time></trkpt><trkpt lat="37.7942957" lon="13.6653299"><ele>371.6666666666667</ele><time>2026-04-26T07:58:56.321Z</time></trkpt><trkpt lat="37.7941824" lon="13.6655225"><ele>368.33333333333337</ele><time>2026-04-26T07:58:57.321Z</time></trkpt><trkpt lat="37.7941033" lon="13.6656976"><ele>365.0</ele><time>2026-04-26T07:58:58.321Z</time></trkpt><trkpt lat="37.7940586" lon="13.6658722"><ele>365.0</ele><time>2026-04-26T07:58:59.321Z</time></trkpt><trkpt lat="37.7940467" lon="13.6660772"><ele>365.0</ele><time>2026-04-26T07:59:00.321Z</time></trkpt><trkpt lat="37.7940524" lon="13.6662995"><ele>365.0</ele><time>2026-04-26T07:59:01.321Z</time></trkpt><trkpt lat="37.7940491" lon="13.6665455"><ele>365.6666666666667</ele><time>2026-04-26T07:59:02.321Z</time></trkpt><trkpt lat="37.794031" lon="13.666808"><ele>366.3333333333333</ele><time>2026-04-26T07:59:03.321Z</time></trkpt><trkpt lat="37.793992" lon="13.6670863"><ele>367.0</ele><time>2026-04-26T07:59:04.321Z</time></trkpt><trkpt lat="37.7939412" lon="13.6673585"><ele>367.66666666666663</ele><time>2026-04-26T07:59:05.321Z</time></trkpt><trkpt lat="37.7938901" lon="13.6676145"><ele>368.3333333333333</ele><time>2026-04-26T07:59:06.321Z</time></trkpt><trkpt lat="37.7938414" lon="13.667836"><ele>369.0</ele><time>2026-04-26T07:59:07.321Z</time></trkpt><trkpt lat="37.7937848" lon="13.6680376"><ele>369.6666666666667</ele><time>2026-04-26T07:59:08.321Z</time></trkpt><trkpt lat="37.7936932" lon="13.6682152"><ele>370.33333333333337</ele><time>2026-04-26T07:59:09.321Z</time></trkpt><trkpt lat="37.7935601" lon="13.6683926"><ele>371.0</ele><time>2026-04-26T07:59:10.321Z</time></trkpt><trkpt lat="37.7934028" lon="13.6685756"><ele>365.5</ele><time>2026-04-26T07:59:11.321Z</time></trkpt><trkpt lat="37.7932264" lon="13.6687553"><ele>360.0</ele><time>2026-04-26T07:59:12.321Z</time></trkpt><trkpt lat="37.7930371" lon="13.6689492"><ele>360.0</ele><time>2026-04-26T07:59:13.321Z</time></trkpt><trkpt lat="37.7928427" lon="13.6691561"><ele>360.0</ele><time>2026-04-26T07:59:14.321Z</time></trkpt><trkpt lat="37.7926465" lon="13.6693647"><ele>355.0</ele><time>2026-04-26T07:59:15.32Z</time></trkpt><trkpt lat="37.7924606" lon="13.6695617"><ele>350.0</ele><time>2026-04-26T07:59:16.321Z</time></trkpt><trkpt lat="37.7922768" lon="13.6697521"><ele>350.0</ele><time>2026-04-26T07:59:17.321Z</time></trkpt><trkpt lat="37.7920952" lon="13.6699375"><ele>350.0</ele><time>2026-04-26T07:59:18.321Z</time></trkpt><trkpt lat="37.7919089" lon="13.6701217"><ele>350.5</ele><time>2026-04-26T07:59:19.321Z</time></trkpt><trkpt lat="37.7917221" lon="13.6702999"><ele>351.0</ele><time>2026-04-26T07:59:20.321Z</time></trkpt><trkpt lat="37.7915229" lon="13.6704596"><ele>351.0</ele><time>2026-04-26T07:59:21.321Z</time></trkpt><trkpt lat="37.7913205" lon="13.6706063"><ele>351.0</ele><time>2026-04-26T07:59:22.321Z</time></trkpt><trkpt lat="37.7911211" lon="13.6707475"><ele>351.6666666666667</ele><time>2026-04-26T07:59:23.321Z</time></trkpt><trkpt lat="37.7909342" lon="13.6708783"><ele>352.33333333333337</ele><time>2026-04-26T07:59:24.32Z</time></trkpt><trkpt lat="37.7907605" lon="13.6709968"><ele>353.0</ele><time>2026-04-26T07:59:25.321Z</time></trkpt><trkpt lat="37.7905968" lon="13.6710997"><ele>352.6666666666667</ele><time>2026-04-26T07:59:26.321Z</time></trkpt><trkpt lat="37.7904468" lon="13.671181"><ele>352.3333333333333</ele><time>2026-04-26T07:59:27.321Z</time></trkpt><trkpt lat="37.790297" lon="13.6712139"><ele>352.0</ele><time>2026-04-26T07:59:28.321Z</time></trkpt><trkpt lat="37.7901385" lon="13.6712119"><ele>352.0</ele><time>2026-04-26T07:59:29.321Z</time></trkpt><trkpt lat="37.7899731" lon="13.6711677"><ele>352.0</ele><time>2026-04-26T07:59:30.321Z</time></trkpt><trkpt lat="37.7898044" lon="13.6710918"><ele>352.0</ele><time>2026-04-26T07:59:31.321Z</time></trkpt><trkpt lat="37.7896254" lon="13.670993"><ele>352.3333333333333</ele><time>2026-04-26T07:59:32.32Z</time></trkpt><trkpt lat="37.7894361" lon="13.6708808"><ele>352.6666666666667</ele><time>2026-04-26T07:59:33.321Z</time></trkpt><trkpt lat="37.7892508" lon="13.6707703"><ele>353.0</ele><time>2026-04-26T07:59:34.321Z</time></trkpt><trkpt lat="37.7890673" lon="13.6706588"><ele>353.33333333333337</ele><time>2026-04-26T07:59:35.321Z</time></trkpt><trkpt lat="37.7888957" lon="13.6705386"><ele>353.6666666666667</ele><time>2026-04-26T07:59:36.32Z</time></trkpt><trkpt lat="37.7887482" lon="13.6704054"><ele>354.0</ele><time>2026-04-26T07:59:37.321Z</time></trkpt><trkpt lat="37.7886232" lon="13.6702891"><ele>354.0</ele><time>2026-04-26T07:59:38.321Z</time></trkpt><trkpt lat="37.7885263" lon="13.6702098"><ele>354.0</ele><time>2026-04-26T07:59:39.321Z</time></trkpt><trkpt lat="37.7884399" lon="13.670155"><ele>354.0</ele><time>2026-04-26T07:59:40.321Z</time></trkpt><trkpt lat="37.7883444" lon="13.6701331"><ele>354.0</ele><time>2026-04-26T07:59:41.321Z</time></trkpt><trkpt lat="37.7882642" lon="13.6701699"><ele>354.0</ele><time>2026-04-26T07:59:42.321Z</time></trkpt><trkpt lat="37.7882181" lon="13.6702452"><ele>353.79999999999995</ele><time>2026-04-26T07:59:43.32Z</time></trkpt><trkpt lat="37.7881696" lon="13.6703446"><ele>353.59999999999997</ele><time>2026-04-26T07:59:44.321Z</time></trkpt><trkpt lat="37.7881272" lon="13.670457"><ele>353.4</ele><time>2026-04-26T07:59:45.321Z</time></trkpt><trkpt lat="37.7880777" lon="13.6705539"><ele>353.2</ele><time>2026-04-26T07:59:46.321Z</time></trkpt><trkpt lat="37.7879787" lon="13.6706309"><ele>353.0</ele><time>2026-04-26T07:59:47.321Z</time></trkpt><trkpt lat="37.7878378" lon="13.670683"><ele>352.6666666666667</ele><time>2026-04-26T07:59:48.321Z</time></trkpt><trkpt lat="37.7876662" lon="13.6707134"><ele>352.3333333333333</ele><time>2026-04-26T07:59:49.321Z</time></trkpt><trkpt lat="37.7874802" lon="13.6707455"><ele>352.0</ele><time>2026-04-26T07:59:50.321Z</time></trkpt><trkpt lat="37.7872883" lon="13.6708013"><ele>352.0</ele><time>2026-04-26T07:59:51.321Z</time></trkpt><trkpt lat="37.7870821" lon="13.6709028"><ele>352.0</ele><time>2026-04-26T07:59:52.321Z</time></trkpt><trkpt lat="37.786871" lon="13.6710199"><ele>352.5</ele><time>2026-04-26T07:59:53.321Z</time></trkpt><trkpt lat="37.7866536" lon="13.6711328"><ele>353.0</ele><time>2026-04-26T07:59:54.321Z</time></trkpt><trkpt lat="37.786425" lon="13.6712274"><ele>353.0</ele><time>2026-04-26T07:59:55.32Z</time></trkpt><trkpt lat="37.7862078" lon="13.671302"><ele>353.0</ele><time>2026-04-26T07:59:56.321Z</time></trkpt><trkpt lat="37.7860164" lon="13.6713564"><ele>353.0</ele><time>2026-04-26T07:59:57.321Z</time></trkpt><trkpt lat="37.7858513" lon="13.6713994"><ele>353.75</ele><time>2026-04-26T07:59:58.321Z</time></trkpt><trkpt lat="37.7856936" lon="13.6714149"><ele>354.5</ele><time>2026-04-26T07:59:59.321Z</time></trkpt><trkpt lat="37.7855594" lon="13.6713775"><ele>355.25</ele><time>2026-04-26T08:00:00.321Z</time></trkpt><trkpt lat="37.7854311" lon="13.6712925"><ele>356.0</ele><time>2026-04-26T08:00:01.321Z</time></trkpt><trkpt lat="37.7853195" lon="13.6711571"><ele>357.0</ele><time>2026-04-26T08:00:02.321Z</time></trkpt><trkpt lat="37.7851905" lon="13.6710101"><ele>358.0</ele><time>2026-04-26T08:00:03.321Z</time></trkpt><trkpt lat="37.785035" lon="13.6708883"><ele>359.0</ele><time>2026-04-26T08:00:04.321Z</time></trkpt><trkpt lat="37.784858" lon="13.670817"><ele>359.33333333333337</ele><time>2026-04-26T08:00:05.32Z</time></trkpt><trkpt lat="37.7846622" lon="13.6707853"><ele>359.6666666666667</ele><time>2026-04-26T08:00:06.32Z</time></trkpt><trkpt lat="37.7844413" lon="13.6707647"><ele>360.0</ele><time>2026-04-26T08:00:07.321Z</time></trkpt><trkpt lat="37.7842266" lon="13.6707436"><ele>360.0</ele><time>2026-04-26T08:00:08.321Z</time></trkpt><trkpt lat="37.7840256" lon="13.6707267"><ele>360.0</ele><time>2026-04-26T08:00:09.321Z</time></trkpt><trkpt lat="37.7838409" lon="13.6707175"><ele>360.0</ele><time>2026-04-26T08:00:10.321Z</time></trkpt><trkpt lat="37.783657" lon="13.6707326"><ele>360.0</ele><time>2026-04-26T08:00:11.321Z</time></trkpt><trkpt lat="37.7834671" lon="13.6707844"><ele>360.0</ele><time>2026-04-26T08:00:12.321Z</time></trkpt><trkpt lat="37.7832625" lon="13.6708769"><ele>360.0</ele><time>2026-04-26T08:00:13.321Z</time></trkpt><trkpt lat="37.7830325" lon="13.6710121"><ele>359.0</ele><time>2026-04-26T08:00:14.321Z</time></trkpt><trkpt lat="37.7827847" lon="13.6711787"><ele>358.0</ele><time>2026-04-26T08:00:15.321Z</time></trkpt><trkpt lat="37.7825358" lon="13.6713551"><ele>357.5</ele><time>2026-04-26T08:00:16.321Z</time></trkpt><trkpt lat="37.7822922" lon="13.6715259"><ele>357.0</ele><time>2026-04-26T08:00:17.321Z</time></trkpt><trkpt lat="37.7820646" lon="13.6716824"><ele>357.5</ele><time>2026-04-26T08:00:18.321Z</time></trkpt><trkpt lat="37.7818482" lon="13.6718271"><ele>358.0</ele><time>2026-04-26T08:00:19.321Z</time></trkpt><trkpt lat="37.7816518" lon="13.6719608"><ele>357.3333333333333</ele><time>2026-04-26T08:00:20.321Z</time></trkpt><trkpt lat="37.7814749" lon="13.6720774"><ele>356.6666666666667</ele><time>2026-04-26T08:00:21.321Z</time></trkpt><trkpt lat="37.7813225" lon="13.6721709"><ele>356.0</ele><time>2026-04-26T08:00:22.321Z</time></trkpt><trkpt lat="37.7811752" lon="13.6722238"><ele>356.0</ele><time>2026-04-26T08:00:23.321Z</time></trkpt><trkpt lat="37.7810208" lon="13.6722175"><ele>356.0</ele><time>2026-04-26T08:00:24.321Z</time></trkpt><trkpt lat="37.7808439" lon="13.6721739"><ele>356.0</ele><time>2026-04-26T08:00:25.32Z</time></trkpt><trkpt lat="37.780668" lon="13.6720902"><ele>356.0</ele><time>2026-04-26T08:00:26.321Z</time></trkpt><trkpt lat="37.7805072" lon="13.6720014"><ele>356.0</ele><time>2026-04-26T08:00:27.321Z</time></trkpt><trkpt lat="37.780343" lon="13.6719207"><ele>356.0</ele><time>2026-04-26T08:00:28.321Z</time></trkpt><trkpt lat="37.7801695" lon="13.671835"><ele>356.33333333333337</ele><time>2026-04-26T08:00:29.321Z</time></trkpt><trkpt lat="37.7799802" lon="13.6717829"><ele>356.6666666666667</ele><time>2026-04-26T08:00:30.321Z</time></trkpt><trkpt lat="37.7797796" lon="13.6717592"><ele>357.0</ele><time>2026-04-26T08:00:31.32Z</time></trkpt><trkpt lat="37.7795572" lon="13.6717478"><ele>358.0</ele><time>2026-04-26T08:00:32.32Z</time></trkpt><trkpt lat="37.7793337" lon="13.6717363"><ele>359.0</ele><time>2026-04-26T08:00:33.321Z</time></trkpt><trkpt lat="37.7791169" lon="13.6717348"><ele>360.0</ele><time>2026-04-26T08:00:34.321Z</time></trkpt><trkpt lat="37.7789071" lon="13.6717291"><ele>360.0</ele><time>2026-04-26T08:00:35.321Z</time></trkpt><trkpt lat="37.7787146" lon="13.671732"><ele>360.0</ele><time>2026-04-26T08:00:36.321Z</time></trkpt><trkpt lat="37.7785463" lon="13.6717415"><ele>360.0</ele><time>2026-04-26T08:00:37.321Z</time></trkpt><trkpt lat="37.7784152" lon="13.671757"><ele>360.0</ele><time>2026-04-26T08:00:38.321Z</time></trkpt><trkpt lat="37.7783175" lon="13.6717855"><ele>360.0</ele><time>2026-04-26T08:00:39.321Z</time></trkpt><trkpt lat="37.778228" lon="13.6718191"><ele>360.0</ele><time>2026-04-26T08:00:40.321Z</time></trkpt><trkpt lat="37.7781361" lon="13.6718456"><ele>360.0</ele><time>2026-04-26T08:00:41.321Z</time></trkpt><trkpt lat="37.77803" lon="13.671865"><ele>360.0</ele><time>2026-04-26T08:00:42.321Z</time></trkpt><trkpt lat="37.7778952" lon="13.6718621"><ele>360.0</ele><time>2026-04-26T08:00:43.321Z</time></trkpt><trkpt lat="37.7777496" lon="13.6718223"><ele>360.0</ele><time>2026-04-26T08:00:44.321Z</time></trkpt><trkpt lat="37.7775894" lon="13.6717578"><ele>360.0</ele><time>2026-04-26T08:00:45.321Z</time></trkpt><trkpt lat="37.7774438" lon="13.6716709"><ele>361.0</ele><time>2026-04-26T08:00:46.321Z</time></trkpt><trkpt lat="37.7773046" lon="13.6715498"><ele>362.0</ele><time>2026-04-26T08:00:47.321Z</time></trkpt><trkpt lat="37.7771707" lon="13.6713958"><ele>363.0</ele><time>2026-04-26T08:00:48.321Z</time></trkpt><trkpt lat="37.7770365" lon="13.6712262"><ele>362.0</ele><time>2026-04-26T08:00:49.321Z</time></trkpt><trkpt lat="37.7768905" lon="13.6710344"><ele>361.0</ele><time>2026-04-26T08:00:50.321Z</time></trkpt><trkpt lat="37.7767359" lon="13.6708333"><ele>360.0</ele><time>2026-04-26T08:00:51.32Z</time></trkpt><trkpt lat="37.776568" lon="13.6706163"><ele>361.6666666666667</ele><time>2026-04-26T08:00:52.321Z</time></trkpt><trkpt lat="37.7764041" lon="13.670409"><ele>363.33333333333337</ele><time>2026-04-26T08:00:53.321Z</time></trkpt><trkpt lat="37.7762641" lon="13.6702098"><ele>365.0</ele><time>2026-04-26T08:00:54.321Z</time></trkpt><trkpt lat="37.7761446" lon="13.6700238"><ele>365.0</ele><time>2026-04-26T08:00:55.321Z</time></trkpt><trkpt lat="37.7760574" lon="13.6698409"><ele>365.0</ele><time>2026-04-26T08:00:56.321Z</time></trkpt><trkpt lat="37.7759912" lon="13.6696608"><ele>365.0</ele><time>2026-04-26T08:00:57.32Z</time></trkpt><trkpt lat="37.7759328" lon="13.6695001"><ele>366.0</ele><time>2026-04-26T08:00:58.321Z</time></trkpt><trkpt lat="37.7758757" lon="13.6693541"><ele>367.0</ele><time>2026-04-26T08:00:59.321Z</time></trkpt><trkpt lat="37.7757895" lon="13.6692301"><ele>368.0</ele><time>2026-04-26T08:01:00.321Z</time></trkpt><trkpt lat="37.775681" lon="13.6691448"><ele>369.0</ele><time>2026-04-26T08:01:01.321Z</time></trkpt><trkpt lat="37.775542" lon="13.6691255"><ele>369.0</ele><time>2026-04-26T08:01:02.32Z</time></trkpt><trkpt lat="37.7754244" lon="13.6691691"><ele>369.0</ele><time>2026-04-26T08:01:03.321Z</time></trkpt><trkpt lat="37.7753299" lon="13.669268"><ele>369.0</ele><time>2026-04-26T08:01:04.32Z</time></trkpt><trkpt lat="37.7753052" lon="13.6693987"><ele>369.0</ele><time>2026-04-26T08:01:05.32Z</time></trkpt><trkpt lat="37.7753166" lon="13.6695688"><ele>370.6666666666667</ele><time>2026-04-26T08:01:06.321Z</time></trkpt><trkpt lat="37.7753416" lon="13.6697794"><ele>372.33333333333337</ele><time>2026-04-26T08:01:07.321Z</time></trkpt><trkpt lat="37.7753945" lon="13.670031"><ele>374.0</ele><time>2026-04-26T08:01:08.321Z</time></trkpt><trkpt lat="37.7754574" lon="13.6702935"><ele>377.5</ele><time>2026-04-26T08:01:09.321Z</time></trkpt><trkpt lat="37.7755424" lon="13.6705561"><ele>381.0</ele><time>2026-04-26T08:01:10.321Z</time></trkpt><trkpt lat="37.7756269" lon="13.6708255"><ele>385.5</ele><time>2026-04-26T08:01:11.321Z</time></trkpt><trkpt lat="37.7756837" lon="13.6711237"><ele>390.0</ele><time>2026-04-26T08:01:12.321Z</time></trkpt><trkpt lat="37.7757328" lon="13.6714157"><ele>390.0</ele><time>2026-04-26T08:01:13.321Z</time></trkpt><trkpt lat="37.7758102" lon="13.6716919"><ele>390.0</ele><time>2026-04-26T08:01:14.321Z</time></trkpt><trkpt lat="37.7759166" lon="13.6719315"><ele>390.0</ele><time>2026-04-26T08:01:15.321Z</time></trkpt><trkpt lat="37.7760323" lon="13.6721587"><ele>388.66666666666663</ele><time>2026-04-26T08:01:16.321Z</time></trkpt><trkpt lat="37.7761458" lon="13.6723794"><ele>387.3333333333333</ele><time>2026-04-26T08:01:17.321Z</time></trkpt><trkpt lat="37.7762334" lon="13.6725902"><ele>386.0</ele><time>2026-04-26T08:01:18.321Z</time></trkpt><trkpt lat="37.7762805" lon="13.6727962"><ele>389.66666666666663</ele><time>2026-04-26T08:01:19.321Z</time></trkpt><trkpt lat="37.776304" lon="13.6730194"><ele>393.33333333333337</ele><time>2026-04-26T08:01:20.321Z</time></trkpt><trkpt lat="37.7763397" lon="13.6732448"><ele>397.0</ele><time>2026-04-26T08:01:21.321Z</time></trkpt><trkpt lat="37.7764035" lon="13.6734776"><ele>401.0</ele><time>2026-04-26T08:01:22.321Z</time></trkpt><trkpt lat="37.776492" lon="13.6736995"><ele>405.0</ele><time>2026-04-26T08:01:23.321Z</time></trkpt><trkpt lat="37.7766103" lon="13.6739134"><ele>409.0</ele><time>2026-04-26T08:01:24.321Z</time></trkpt><trkpt lat="37.7767502" lon="13.674112"><ele>409.0</ele><time>2026-04-26T08:01:25.321Z</time></trkpt><trkpt lat="37.7769027" lon="13.6742657"><ele>409.0</ele><time>2026-04-26T08:01:26.321Z</time></trkpt><trkpt lat="37.7770559" lon="13.6743747"><ele>409.0</ele><time>2026-04-26T08:01:27.321Z</time></trkpt><trkpt lat="37.7771997" lon="13.6744402"><ele>409.0</ele><time>2026-04-26T08:01:28.321Z</time></trkpt><trkpt lat="37.7773287" lon="13.6745025"><ele>409.0</ele><time>2026-04-26T08:01:29.321Z</time></trkpt><trkpt lat="37.7774235" lon="13.6745857"><ele>409.0</ele><time>2026-04-26T08:01:30.321Z</time></trkpt><trkpt lat="37.7774713" lon="13.6746948"><ele>409.0</ele><time>2026-04-26T08:01:31.321Z</time></trkpt><trkpt lat="37.7774876" lon="13.674871"><ele>409.0</ele><time>2026-04-26T08:01:32.321Z</time></trkpt><trkpt lat="37.777485" lon="13.675106"><ele>409.0</ele><time>2026-04-26T08:01:33.321Z</time></trkpt><trkpt lat="37.7774771" lon="13.675374"><ele>409.0</ele><time>2026-04-26T08:01:34.321Z</time></trkpt><trkpt lat="37.7774634" lon="13.6756494"><ele>411.6666666666667</ele><time>2026-04-26T08:01:35.321Z</time></trkpt><trkpt lat="37.7774365" lon="13.675912"><ele>414.33333333333337</ele><time>2026-04-26T08:01:36.321Z</time></trkpt><trkpt lat="37.7774155" lon="13.6761334"><ele>417.0</ele><time>2026-04-26T08:01:37.321Z</time></trkpt><trkpt lat="37.7774001" lon="13.6763234"><ele>418.5</ele><time>2026-04-26T08:01:38.321Z</time></trkpt><trkpt lat="37.777425" lon="13.6765001"><ele>420.0</ele><time>2026-04-26T08:01:39.321Z</time></trkpt><trkpt lat="37.7774881" lon="13.6766765"><ele>421.5</ele><time>2026-04-26T08:01:40.321Z</time></trkpt><trkpt lat="37.7775577" lon="13.676839"><ele>423.0</ele><time>2026-04-26T08:01:41.321Z</time></trkpt><trkpt lat="37.7775943" lon="13.6770388"><ele>425.33333333333337</ele><time>2026-04-26T08:01:42.32Z</time></trkpt><trkpt lat="37.7776074" lon="13.6772753"><ele>427.6666666666667</ele><time>2026-04-26T08:01:43.321Z</time></trkpt><trkpt lat="37.7776115" lon="13.6775325"><ele>430.0</ele><time>2026-04-26T08:01:44.321Z</time></trkpt><trkpt lat="37.7775971" lon="13.6777953"><ele>432.6666666666667</ele><time>2026-04-26T08:01:45.321Z</time></trkpt><trkpt lat="37.7775818" lon="13.6780369"><ele>435.33333333333337</ele><time>2026-04-26T08:01:46.321Z</time></trkpt><trkpt lat="37.7775846" lon="13.67828"><ele>438.0</ele><time>2026-04-26T08:01:47.321Z</time></trkpt><trkpt lat="37.7776138" lon="13.6785368"><ele>438.0</ele><time>2026-04-26T08:01:48.321Z</time></trkpt><trkpt lat="37.7776674" lon="13.6788336"><ele>438.0</ele><time>2026-04-26T08:01:49.321Z</time></trkpt><trkpt lat="37.7777273" lon="13.6791529"><ele>444.0</ele><time>2026-04-26T08:01:50.321Z</time></trkpt><trkpt lat="37.7777882" lon="13.6794626"><ele>450.0</ele><time>2026-04-26T08:01:51.321Z</time></trkpt><trkpt lat="37.7778459" lon="13.6797583"><ele>450.0</ele><time>2026-04-26T08:01:52.321Z</time></trkpt><trkpt lat="37.7779024" lon="13.6800385"><ele>450.0</ele><time>2026-04-26T08:01:53.321Z</time></trkpt><trkpt lat="37.7779388" lon="13.6802838"><ele>450.0</ele><time>2026-04-26T08:01:54.321Z</time></trkpt><trkpt lat="37.7779476" lon="13.6804993"><ele>451.33333333333337</ele><time>2026-04-26T08:01:55.321Z</time></trkpt><trkpt lat="37.7779069" lon="13.6806996"><ele>452.6666666666667</ele><time>2026-04-26T08:01:56.32Z</time></trkpt><trkpt lat="37.7778163" lon="13.6809052"><ele>454.0</ele><time>2026-04-26T08:01:57.321Z</time></trkpt><trkpt lat="37.7777065" lon="13.681132"><ele>455.33333333333337</ele><time>2026-04-26T08:01:58.321Z</time></trkpt><trkpt lat="37.7775929" lon="13.6813747"><ele>456.66666666666663</ele><time>2026-04-26T08:01:59.321Z</time></trkpt><trkpt lat="37.7774865" lon="13.6816268"><ele>458.0</ele><time>2026-04-26T08:02:00.321Z</time></trkpt><trkpt lat="37.7774019" lon="13.6818585"><ele>457.0</ele><time>2026-04-26T08:02:01.321Z</time></trkpt><trkpt lat="37.7773194" lon="13.6820728"><ele>456.0</ele><time>2026-04-26T08:02:02.32Z</time></trkpt><trkpt lat="37.7772273" lon="13.682263"><ele>455.0</ele><time>2026-04-26T08:02:03.321Z</time></trkpt><trkpt lat="37.7771098" lon="13.68244"><ele>455.0</ele><time>2026-04-26T08:02:04.321Z</time></trkpt><trkpt lat="37.7769571" lon="13.6825966"><ele>455.0</ele><time>2026-04-26T08:02:05.321Z</time></trkpt><trkpt lat="37.7768044" lon="13.6827447"><ele>455.0</ele><time>2026-04-26T08:02:06.321Z</time></trkpt><trkpt lat="37.7766687" lon="13.6829139"><ele>455.0</ele><time>2026-04-26T08:02:07.321Z</time></trkpt><trkpt lat="37.7765552" lon="13.6831256"><ele>455.0</ele><time>2026-04-26T08:02:08.321Z</time></trkpt><trkpt lat="37.7764554" lon="13.6833757"><ele>455.0</ele><time>2026-04-26T08:02:09.321Z</time></trkpt><trkpt lat="37.7763729" lon="13.6836278"><ele>455.0</ele><time>2026-04-26T08:02:10.321Z</time></trkpt><trkpt lat="37.776302" lon="13.6838547"><ele>455.0</ele><time>2026-04-26T08:02:11.321Z</time></trkpt><trkpt lat="37.7762222" lon="13.6840437"><ele>455.0</ele><time>2026-04-26T08:02:12.321Z</time></trkpt><trkpt lat="37.7761344" lon="13.6841963"><ele>458.3333333333333</ele><time>2026-04-26T08:02:13.321Z</time></trkpt><trkpt lat="37.7760181" lon="13.6842985"><ele>461.66666666666663</ele><time>2026-04-26T08:02:14.321Z</time></trkpt><trkpt lat="37.7758641" lon="13.6843564"><ele>465.0</ele><time>2026-04-26T08:02:15.32Z</time></trkpt><trkpt lat="37.7756902" lon="13.6843865"><ele>464.0</ele><time>2026-04-26T08:02:16.321Z</time></trkpt><trkpt lat="37.7755121" lon="13.6844349"><ele>463.0</ele><time>2026-04-26T08:02:17.321Z</time></trkpt><trkpt lat="37.775316" lon="13.6845532"><ele>462.0</ele><time>2026-04-26T08:02:18.321Z</time></trkpt><trkpt lat="37.7751168" lon="13.6847011"><ele>462.0</ele><time>2026-04-26T08:02:19.321Z</time></trkpt><trkpt lat="37.7749271" lon="13.6848509"><ele>462.0</ele><time>2026-04-26T08:02:20.321Z</time></trkpt><trkpt lat="37.7747504" lon="13.6849867"><ele>462.0</ele><time>2026-04-26T08:02:21.321Z</time></trkpt><trkpt lat="37.7745886" lon="13.6850883"><ele>462.0</ele><time>2026-04-26T08:02:22.321Z</time></trkpt><trkpt lat="37.774417" lon="13.6851407"><ele>462.0</ele><time>2026-04-26T08:02:23.32Z</time></trkpt><trkpt lat="37.7742508" lon="13.6851579"><ele>462.0</ele><time>2026-04-26T08:02:24.321Z</time></trkpt><trkpt lat="37.7740979" lon="13.6851637"><ele>461.5</ele><time>2026-04-26T08:02:25.321Z</time></trkpt><trkpt lat="37.7739544" lon="13.6851958"><ele>461.0</ele><time>2026-04-26T08:02:26.321Z</time></trkpt><trkpt lat="37.7738307" lon="13.6852957"><ele>460.5</ele><time>2026-04-26T08:02:27.321Z</time></trkpt><trkpt lat="37.7737362" lon="13.6854384"><ele>460.0</ele><time>2026-04-26T08:02:28.321Z</time></trkpt><trkpt lat="37.7736785" lon="13.68563"><ele>460.0</ele><time>2026-04-26T08:02:29.321Z</time></trkpt><trkpt lat="37.7736647" lon="13.6858654"><ele>460.0</ele><time>2026-04-26T08:02:30.321Z</time></trkpt><trkpt lat="37.773678" lon="13.6860808"><ele>460.0</ele><time>2026-04-26T08:02:31.32Z</time></trkpt><trkpt lat="37.7737465" lon="13.6862951"><ele>461.33333333333337</ele><time>2026-04-26T08:02:32.321Z</time></trkpt><trkpt lat="37.7738305" lon="13.6865017"><ele>462.66666666666663</ele><time>2026-04-26T08:02:33.321Z</time></trkpt><trkpt lat="37.7738967" lon="13.6866835"><ele>464.0</ele><time>2026-04-26T08:02:34.321Z</time></trkpt><trkpt lat="37.7739342" lon="13.6868635"><ele>464.0</ele><time>2026-04-26T08:02:35.321Z</time></trkpt><trkpt lat="37.7739288" lon="13.687043"><ele>464.0</ele><time>2026-04-26T08:02:36.32Z</time></trkpt><trkpt lat="37.7738873" lon="13.6872217"><ele>464.0</ele><time>2026-04-26T08:02:37.32Z</time></trkpt><trkpt lat="37.7737905" lon="13.6874042"><ele>464.0</ele><time>2026-04-26T08:02:38.321Z</time></trkpt><trkpt lat="37.7736511" lon="13.6875837"><ele>464.0</ele><time>2026-04-26T08:02:39.321Z</time></trkpt><trkpt lat="37.7735003" lon="13.6877859"><ele>464.0</ele><time>2026-04-26T08:02:40.321Z</time></trkpt><trkpt lat="37.7733541" lon="13.6879857"><ele>466.3333333333333</ele><time>2026-04-26T08:02:41.321Z</time></trkpt><trkpt lat="37.7732173" lon="13.6881651"><ele>468.66666666666663</ele><time>2026-04-26T08:02:42.321Z</time></trkpt><trkpt lat="37.7730642" lon="13.6883148"><ele>471.0</ele><time>2026-04-26T08:02:43.321Z</time></trkpt><trkpt lat="37.7728907" lon="13.6884401"><ele>471.0</ele><time>2026-04-26T08:02:44.321Z</time></trkpt><trkpt lat="37.7727084" lon="13.6885618"><ele>471.0</ele><time>2026-04-26T08:02:45.321Z</time></trkpt><trkpt lat="37.7725247" lon="13.6887088"><ele>471.0</ele><time>2026-04-26T08:02:46.321Z</time></trkpt><trkpt lat="37.7723516" lon="13.688879"><ele>472.33333333333337</ele><time>2026-04-26T08:02:47.321Z</time></trkpt><trkpt lat="37.7721927" lon="13.6890666"><ele>473.6666666666667</ele><time>2026-04-26T08:02:48.321Z</time></trkpt><trkpt lat="37.7720575" lon="13.6892471"><ele>475.0</ele><time>2026-04-26T08:02:49.321Z</time></trkpt><trkpt lat="37.7719621" lon="13.6894396"><ele>475.0</ele><time>2026-04-26T08:02:50.321Z</time></trkpt><trkpt lat="37.771902" lon="13.6896538"><ele>475.0</ele><time>2026-04-26T08:02:51.321Z</time></trkpt><trkpt lat="37.7718782" lon="13.6899172"><ele>475.0</ele><time>2026-04-26T08:02:52.321Z</time></trkpt><trkpt lat="37.7718566" lon="13.6902118"><ele>482.5</ele><time>2026-04-26T08:02:53.321Z</time></trkpt><trkpt lat="37.7718503" lon="13.6905403"><ele>490.0</ele><time>2026-04-26T08:02:54.321Z</time></trkpt><trkpt lat="37.7718516" lon="13.6908633"><ele>491.5</ele><time>2026-04-26T08:02:55.321Z</time></trkpt><trkpt lat="37.771851" lon="13.6911751"><ele>493.0</ele><time>2026-04-26T08:02:56.321Z</time></trkpt><trkpt lat="37.7718653" lon="13.6914749"><ele>493.0</ele><time>2026-04-26T08:02:57.321Z</time></trkpt><trkpt lat="37.7718884" lon="13.6917591"><ele>493.0</ele><time>2026-04-26T08:02:58.32Z</time></trkpt><trkpt lat="37.7719347" lon="13.6920378"><ele>493.0</ele><time>2026-04-26T08:02:59.321Z</time></trkpt><trkpt lat="37.7720101" lon="13.6923137"><ele>493.0</ele><time>2026-04-26T08:03:00.321Z</time></trkpt><trkpt lat="37.7721038" lon="13.6925904"><ele>497.5</ele><time>2026-04-26T08:03:01.321Z</time></trkpt><trkpt lat="37.7722118" lon="13.6928678"><ele>502.0</ele><time>2026-04-26T08:03:02.321Z</time></trkpt><trkpt lat="37.7723213" lon="13.6931141"><ele>502.0</ele><time>2026-04-26T08:03:03.321Z</time></trkpt><trkpt lat="37.7724191" lon="13.6933394"><ele>502.0</ele><time>2026-04-26T08:03:04.321Z</time></trkpt><trkpt lat="37.7724984" lon="13.693557"><ele>502.0</ele><time>2026-04-26T08:03:05.32Z</time></trkpt><trkpt lat="37.7725708" lon="13.6937826"><ele>503.0</ele><time>2026-04-26T08:03:06.321Z</time></trkpt><trkpt lat="37.7726431" lon="13.6940203"><ele>504.0</ele><time>2026-04-26T08:03:07.321Z</time></trkpt><trkpt lat="37.7727392" lon="13.6942602"><ele>505.0</ele><time>2026-04-26T08:03:08.321Z</time></trkpt><trkpt lat="37.7728539" lon="13.6945088"><ele>508.5</ele><time>2026-04-26T08:03:09.321Z</time></trkpt><trkpt lat="37.7729838" lon="13.6947576"><ele>512.0</ele><time>2026-04-26T08:03:10.321Z</time></trkpt><trkpt lat="37.7731202" lon="13.6950073"><ele>512.0</ele><time>2026-04-26T08:03:11.321Z</time></trkpt><trkpt lat="37.7732598" lon="13.695235"><ele>512.0</ele><time>2026-04-26T08:03:12.321Z</time></trkpt><trkpt lat="37.7733951" lon="13.695441"><ele>512.0</ele><time>2026-04-26T08:03:13.321Z</time></trkpt><trkpt lat="37.7735209" lon="13.6956479"><ele>516.3333333333333</ele><time>2026-04-26T08:03:14.321Z</time></trkpt><trkpt lat="37.7736206" lon="13.6958649"><ele>520.6666666666666</ele><time>2026-04-26T08:03:15.321Z</time></trkpt><trkpt lat="37.7736964" lon="13.6960917"><ele>525.0</ele><time>2026-04-26T08:03:16.321Z</time></trkpt><trkpt lat="37.773742" lon="13.6963257"><ele>525.6666666666666</ele><time>2026-04-26T08:03:17.321Z</time></trkpt><trkpt lat="37.7737491" lon="13.6965698"><ele>526.3333333333333</ele><time>2026-04-26T08:03:18.321Z</time></trkpt><trkpt lat="37.7737424" lon="13.6968433"><ele>527.0</ele><time>2026-04-26T08:03:19.321Z</time></trkpt><trkpt lat="37.7737179" lon="13.6971062"><ele>528.0</ele><time>2026-04-26T08:03:20.321Z</time></trkpt><trkpt lat="37.7736895" lon="13.6973584"><ele>529.0</ele><time>2026-04-26T08:03:21.321Z</time></trkpt><trkpt lat="37.7736763" lon="13.6976073"><ele>530.0</ele><time>2026-04-26T08:03:22.321Z</time></trkpt><trkpt lat="37.7736815" lon="13.6978754"><ele>530.6666666666666</ele><time>2026-04-26T08:03:23.321Z</time></trkpt><trkpt lat="37.7737009" lon="13.6981438"><ele>531.3333333333334</ele><time>2026-04-26T08:03:24.321Z</time></trkpt><trkpt lat="37.7737402" lon="13.6983939"><ele>532.0</ele><time>2026-04-26T08:03:25.321Z</time></trkpt><trkpt lat="37.7737619" lon="13.6985985"><ele>534.0</ele><time>2026-04-26T08:03:26.321Z</time></trkpt><trkpt lat="37.7737547" lon="13.6987779"><ele>536.0</ele><time>2026-04-26T08:03:27.32Z</time></trkpt><trkpt lat="37.7737109" lon="13.6989537"><ele>538.0</ele><time>2026-04-26T08:03:28.321Z</time></trkpt><trkpt lat="37.7736377" lon="13.6991191"><ele>540.0</ele><time>2026-04-26T08:03:29.32Z</time></trkpt><trkpt lat="37.7735353" lon="13.699282"><ele>539.6666666666666</ele><time>2026-04-26T08:03:30.321Z</time></trkpt><trkpt lat="37.7733958" lon="13.6994246"><ele>539.3333333333333</ele><time>2026-04-26T08:03:31.321Z</time></trkpt><trkpt lat="37.7732566" lon="13.6995664"><ele>539.0</ele><time>2026-04-26T08:03:32.321Z</time></trkpt><trkpt lat="37.7731302" lon="13.6997196"><ele>539.0</ele><time>2026-04-26T08:03:33.32Z</time></trkpt><trkpt lat="37.7730404" lon="13.6999168"><ele>539.0</ele><time>2026-04-26T08:03:34.321Z</time></trkpt><trkpt lat="37.7729644" lon="13.7001219"><ele>539.0</ele><time>2026-04-26T08:03:35.321Z</time></trkpt><trkpt lat="37.7729187" lon="13.7003086"><ele>539.5</ele><time>2026-04-26T08:03:36.321Z</time></trkpt><trkpt lat="37.7729086" lon="13.7004745"><ele>540.0</ele><time>2026-04-26T08:03:37.321Z</time></trkpt><trkpt lat="37.7729345" lon="13.7006496"><ele>540.5</ele><time>2026-04-26T08:03:38.321Z</time></trkpt><trkpt lat="37.7730132" lon="13.7008309"><ele>541.0</ele><time>2026-04-26T08:03:39.321Z</time></trkpt><trkpt lat="37.7731194" lon="13.7010478"><ele>540.0</ele><time>2026-04-26T08:03:40.321Z</time></trkpt><trkpt lat="37.7732439" lon="13.7013018"><ele>539.0</ele><time>2026-04-26T08:03:41.321Z</time></trkpt><trkpt lat="37.7733673" lon="13.7015745"><ele>539.0</ele><time>2026-04-26T08:03:42.321Z</time></trkpt><trkpt lat="37.7734878" lon="13.7018321"><ele>539.0</ele><time>2026-04-26T08:03:43.321Z</time></trkpt><trkpt lat="37.7735841" lon="13.702071"><ele>539.0</ele><time>2026-04-26T08:03:44.321Z</time></trkpt><trkpt lat="37.7736571" lon="13.7023135"><ele>545.6666666666666</ele><time>2026-04-26T08:03:45.32Z</time></trkpt><trkpt lat="37.7737039" lon="13.7025546"><ele>552.3333333333334</ele><time>2026-04-26T08:03:46.32Z</time></trkpt><trkpt lat="37.7737403" lon="13.7027966"><ele>559.0</ele><time>2026-04-26T08:03:47.321Z</time></trkpt><trkpt lat="37.7737842" lon="13.7030253"><ele>559.3333333333334</ele><time>2026-04-26T08:03:48.321Z</time></trkpt><trkpt lat="37.7738463" lon="13.7032595"><ele>559.6666666666666</ele><time>2026-04-26T08:03:49.321Z</time></trkpt><trkpt lat="37.7739338" lon="13.7034991"><ele>560.0</ele><time>2026-04-26T08:03:50.321Z</time></trkpt><trkpt lat="37.7740373" lon="13.7037224"><ele>560.0</ele><time>2026-04-26T08:03:51.321Z</time></trkpt><trkpt lat="37.7741479" lon="13.703921"><ele>560.0</ele><time>2026-04-26T08:03:52.321Z</time></trkpt><trkpt lat="37.7742465" lon="13.7041159"><ele>560.0</ele><time>2026-04-26T08:03:53.321Z</time></trkpt><trkpt lat="37.7743208" lon="13.7043258"><ele>568.3333333333333</ele><time>2026-04-26T08:03:54.321Z</time></trkpt><trkpt lat="37.7743769" lon="13.704561"><ele>576.6666666666666</ele><time>2026-04-26T08:03:55.321Z</time></trkpt><trkpt lat="37.7744228" lon="13.7048162"><ele>585.0</ele><time>2026-04-26T08:03:56.321Z</time></trkpt><trkpt lat="37.7744598" lon="13.7050768"><ele>585.6666666666666</ele><time>2026-04-26T08:03:57.321Z</time></trkpt><trkpt lat="37.7744852" lon="13.7053131"><ele>586.3333333333333</ele><time>2026-04-26T08:03:58.321Z</time></trkpt><trkpt lat="37.7744952" lon="13.7055318"><ele>587.0</ele><time>2026-04-26T08:03:59.321Z</time></trkpt><trkpt lat="37.7744675" lon="13.7057457"><ele>587.0</ele><time>2026-04-26T08:04:00.321Z</time></trkpt><trkpt lat="37.7744132" lon="13.7059477"><ele>587.0</ele><time>2026-04-26T08:04:01.321Z</time></trkpt><trkpt lat="37.774323" lon="13.706155"><ele>587.0</ele><time>2026-04-26T08:04:02.321Z</time></trkpt><trkpt lat="37.7742207" lon="13.706355"><ele>588.0</ele><time>2026-04-26T08:04:03.32Z</time></trkpt><trkpt lat="37.7741199" lon="13.7065575"><ele>589.0</ele><time>2026-04-26T08:04:04.32Z</time></trkpt><trkpt lat="37.7740344" lon="13.7067771"><ele>590.0</ele><time>2026-04-26T08:04:05.321Z</time></trkpt><trkpt lat="37.7739624" lon="13.7070164"><ele>590.0</ele><time>2026-04-26T08:04:06.321Z</time></trkpt><trkpt lat="37.7739053" lon="13.7072739"><ele>590.0</ele><time>2026-04-26T08:04:07.321Z</time></trkpt><trkpt lat="37.7738496" lon="13.7075394"><ele>590.0</ele><time>2026-04-26T08:04:08.321Z</time></trkpt><trkpt lat="37.7738012" lon="13.7078084"><ele>591.0</ele><time>2026-04-26T08:04:09.321Z</time></trkpt><trkpt lat="37.7737686" lon="13.7080742"><ele>592.0</ele><time>2026-04-26T08:04:10.321Z</time></trkpt><trkpt lat="37.7737556" lon="13.7083188"><ele>593.0</ele><time>2026-04-26T08:04:11.321Z</time></trkpt><trkpt lat="37.7737453" lon="13.7085308"><ele>590.75</ele><time>2026-04-26T08:04:12.321Z</time></trkpt><trkpt lat="37.7737291" lon="13.7087097"><ele>588.5</ele><time>2026-04-26T08:04:13.321Z</time></trkpt><trkpt lat="37.7736897" lon="13.7088732"><ele>586.25</ele><time>2026-04-26T08:04:14.321Z</time></trkpt><trkpt lat="37.7736158" lon="13.7090268"><ele>584.0</ele><time>2026-04-26T08:04:15.321Z</time></trkpt><trkpt lat="37.7735125" lon="13.7091619"><ele>584.0</ele><time>2026-04-26T08:04:16.321Z</time></trkpt><trkpt lat="37.7733917" lon="13.7092748"><ele>584.0</ele><time>2026-04-26T08:04:17.321Z</time></trkpt><trkpt lat="37.7732663" lon="13.7094034"><ele>584.0</ele><time>2026-04-26T08:04:18.321Z</time></trkpt><trkpt lat="37.7731661" lon="13.7095606"><ele>586.75</ele><time>2026-04-26T08:04:19.32Z</time></trkpt><trkpt lat="37.7730965" lon="13.7097277"><ele>589.5</ele><time>2026-04-26T08:04:20.321Z</time></trkpt><trkpt lat="37.7730337" lon="13.7098896"><ele>592.25</ele><time>2026-04-26T08:04:21.321Z</time></trkpt><trkpt lat="37.7729729" lon="13.7100552"><ele>595.0</ele><time>2026-04-26T08:04:22.321Z</time></trkpt><trkpt lat="37.7729038" lon="13.7102219"><ele>593.0</ele><time>2026-04-26T08:04:23.321Z</time></trkpt><trkpt lat="37.7728298" lon="13.71038"><ele>591.0</ele><time>2026-04-26T08:04:24.321Z</time></trkpt><trkpt lat="37.772766" lon="13.7105312"><ele>589.0</ele><time>2026-04-26T08:04:25.321Z</time></trkpt><trkpt lat="37.7727085" lon="13.7106792"><ele>587.0</ele><time>2026-04-26T08:04:26.321Z</time></trkpt><trkpt lat="37.7726722" lon="13.7108357"><ele>587.0</ele><time>2026-04-26T08:04:27.321Z</time></trkpt><trkpt lat="37.7726499" lon="13.7109797"><ele>587.0</ele><time>2026-04-26T08:04:28.32Z</time></trkpt><trkpt lat="37.7726363" lon="13.7111036"><ele>587.0</ele><time>2026-04-26T08:04:29.321Z</time></trkpt><trkpt lat="37.7726339" lon="13.7112133"><ele>587.0</ele><time>2026-04-26T08:04:30.321Z</time></trkpt><trkpt lat="37.7726282" lon="13.7112972"><ele>587.0</ele><time>2026-04-26T08:04:31.321Z</time></trkpt><trkpt lat="37.7726335" lon="13.7114272"><ele>591.4</ele><time>2026-04-26T08:04:33.32Z</time></trkpt><trkpt lat="37.7726986" lon="13.7114548"><ele>595.8000000000001</ele><time>2026-04-26T08:04:35.321Z</time></trkpt><trkpt lat="37.7728022" lon="13.7113477"><ele>600.2</ele><time>2026-04-26T08:04:37.321Z</time></trkpt><trkpt lat="37.7728331" lon="13.7112492"><ele>604.6</ele><time>2026-04-26T08:04:38.321Z</time></trkpt><trkpt lat="37.772871" lon="13.711138"><ele>609.0</ele><time>2026-04-26T08:04:39.321Z</time></trkpt><trkpt lat="37.7729251" lon="13.7110177"><ele>609.0</ele><time>2026-04-26T08:04:40.321Z</time></trkpt><trkpt lat="37.7729899" lon="13.7108927"><ele>609.0</ele><time>2026-04-26T08:04:41.321Z</time></trkpt><trkpt lat="37.7730843" lon="13.7107764"><ele>609.0</ele><time>2026-04-26T08:04:42.321Z</time></trkpt><trkpt lat="37.7731927" lon="13.7106646"><ele>609.0</ele><time>2026-04-26T08:04:43.321Z</time></trkpt><trkpt lat="37.7733067" lon="13.710538"><ele>609.0</ele><time>2026-04-26T08:04:44.321Z</time></trkpt><trkpt lat="37.7734166" lon="13.7103945"><ele>609.0</ele><time>2026-04-26T08:04:45.321Z</time></trkpt><trkpt lat="37.7735325" lon="13.710254"><ele>609.0</ele><time>2026-04-26T08:04:46.321Z</time></trkpt><trkpt lat="37.7736555" lon="13.7101011"><ele>611.0</ele><time>2026-04-26T08:04:47.321Z</time></trkpt><trkpt lat="37.7737817" lon="13.7099329"><ele>613.0</ele><time>2026-04-26T08:04:48.321Z</time></trkpt><trkpt lat="37.773905" lon="13.7097295"><ele>615.0</ele><time>2026-04-26T08:04:49.321Z</time></trkpt><trkpt lat="37.7740343" lon="13.7095154"><ele>612.3333333333334</ele><time>2026-04-26T08:04:50.321Z</time></trkpt><trkpt lat="37.7741577" lon="13.7093079"><ele>609.6666666666667</ele><time>2026-04-26T08:04:51.321Z</time></trkpt><trkpt lat="37.7742818" lon="13.7091225"><ele>607.0</ele><time>2026-04-26T08:04:52.321Z</time></trkpt><trkpt lat="37.774395" lon="13.7089612"><ele>609.0</ele><time>2026-04-26T08:04:53.321Z</time></trkpt><trkpt lat="37.7744968" lon="13.7088225"><ele>611.0</ele><time>2026-04-26T08:04:54.321Z</time></trkpt><trkpt lat="37.7745933" lon="13.7087046"><ele>613.0</ele><time>2026-04-26T08:04:55.32Z</time></trkpt><trkpt lat="37.7746895" lon="13.7086153"><ele>615.0</ele><time>2026-04-26T08:04:56.321Z</time></trkpt><trkpt lat="37.7747957" lon="13.708559"><ele>615.0</ele><time>2026-04-26T08:04:57.321Z</time></trkpt><trkpt lat="37.7749152" lon="13.708524"><ele>615.0</ele><time>2026-04-26T08:04:58.321Z</time></trkpt><trkpt lat="37.7750413" lon="13.7085026"><ele>615.0</ele><time>2026-04-26T08:04:59.321Z</time></trkpt><trkpt lat="37.7751729" lon="13.7084894"><ele>615.0</ele><time>2026-04-26T08:05:00.321Z</time></trkpt><trkpt lat="37.7752939" lon="13.7084798"><ele>615.6</ele><time>2026-04-26T08:05:01.321Z</time></trkpt><trkpt lat="37.7754103" lon="13.7084839"><ele>616.2</ele><time>2026-04-26T08:05:02.321Z</time></trkpt><trkpt lat="37.7755218" lon="13.7085017"><ele>616.8</ele><time>2026-04-26T08:05:03.321Z</time></trkpt><trkpt lat="37.7756356" lon="13.7085233"><ele>617.4</ele><time>2026-04-26T08:05:04.321Z</time></trkpt><trkpt lat="37.7757367" lon="13.7085504"><ele>618.0</ele><time>2026-04-26T08:05:05.321Z</time></trkpt><trkpt lat="37.7758248" lon="13.7085733"><ele>620.3333333333334</ele><time>2026-04-26T08:05:06.321Z</time></trkpt><trkpt lat="37.7758962" lon="13.7085953"><ele>622.6666666666666</ele><time>2026-04-26T08:05:07.321Z</time></trkpt><trkpt lat="37.7759454" lon="13.7086946"><ele>625.0</ele><time>2026-04-26T08:05:09.32Z</time></trkpt><trkpt lat="37.7758793" lon="13.7087906"><ele>627.3333333333333</ele><time>2026-04-26T08:05:11.321Z</time></trkpt><trkpt lat="37.775813" lon="13.7088238"><ele>629.6666666666666</ele><time>2026-04-26T08:05:12.321Z</time></trkpt><trkpt lat="37.7757328" lon="13.7088468"><ele>632.0</ele><time>2026-04-26T08:05:13.321Z</time></trkpt><trkpt lat="37.7756464" lon="13.7088638"><ele>632.0</ele><time>2026-04-26T08:05:14.321Z</time></trkpt><trkpt lat="37.7755573" lon="13.7088763"><ele>632.0</ele><time>2026-04-26T08:05:15.321Z</time></trkpt><trkpt lat="37.7754656" lon="13.7088947"><ele>632.0</ele><time>2026-04-26T08:05:16.321Z</time></trkpt><trkpt lat="37.7753742" lon="13.7089161"><ele>632.0</ele><time>2026-04-26T08:05:17.321Z</time></trkpt><trkpt lat="37.7752851" lon="13.7089448"><ele>632.0</ele><time>2026-04-26T08:05:18.321Z</time></trkpt><trkpt lat="37.7752002" lon="13.7089896"><ele>632.2</ele><time>2026-04-26T08:05:19.321Z</time></trkpt><trkpt lat="37.7751208" lon="13.7090619"><ele>632.4000000000001</ele><time>2026-04-26T08:05:20.32Z</time></trkpt><trkpt lat="37.7750437" lon="13.709161"><ele>632.5999999999999</ele><time>2026-04-26T08:05:21.321Z</time></trkpt><trkpt lat="37.7749832" lon="13.7092874"><ele>632.8</ele><time>2026-04-26T08:05:22.321Z</time></trkpt><trkpt lat="37.7749469" lon="13.7094197"><ele>633.0</ele><time>2026-04-26T08:05:23.321Z</time></trkpt><trkpt lat="37.7749276" lon="13.709536"><ele>633.0</ele><time>2026-04-26T08:05:24.321Z</time></trkpt><trkpt lat="37.7749156" lon="13.7096457"><ele>633.0</ele><time>2026-04-26T08:05:25.321Z</time></trkpt><trkpt lat="37.7749289" lon="13.7097252"><ele>633.0</ele><time>2026-04-26T08:05:26.32Z</time></trkpt><trkpt lat="37.7750101" lon="13.709813"><ele>633.0</ele><time>2026-04-26T08:05:28.321Z</time></trkpt><trkpt lat="37.7751107" lon="13.7097577"><ele>633.0</ele><time>2026-04-26T08:05:30.321Z</time></trkpt><trkpt lat="37.7752052" lon="13.7096288"><ele>632.8333333333334</ele><time>2026-04-26T08:05:32.32Z</time></trkpt><trkpt lat="37.7752587" lon="13.7095293"><ele>632.6666666666666</ele><time>2026-04-26T08:05:33.321Z</time></trkpt><trkpt lat="37.7753225" lon="13.7094438"><ele>632.5</ele><time>2026-04-26T08:05:34.321Z</time></trkpt><trkpt lat="37.7753901" lon="13.7093883"><ele>632.3333333333333</ele><time>2026-04-26T08:05:35.321Z</time></trkpt><trkpt lat="37.7754603" lon="13.709366"><ele>632.1666666666666</ele><time>2026-04-26T08:05:36.321Z</time></trkpt><trkpt lat="37.7755314" lon="13.7093707"><ele>632.0</ele><time>2026-04-26T08:05:37.32Z</time></trkpt><trkpt lat="37.7756126" lon="13.7093912"><ele>634.75</ele><time>2026-04-26T08:05:38.321Z</time></trkpt><trkpt lat="37.7757039" lon="13.709425"><ele>637.5</ele><time>2026-04-26T08:05:39.32Z</time></trkpt><trkpt lat="37.7758137" lon="13.7094485"><ele>640.25</ele><time>2026-04-26T08:05:40.321Z</time></trkpt><trkpt lat="37.7759416" lon="13.7094541"><ele>643.0</ele><time>2026-04-26T08:05:41.321Z</time></trkpt><trkpt lat="37.7760715" lon="13.7094392"><ele>643.0</ele><time>2026-04-26T08:05:42.321Z</time></trkpt><trkpt lat="37.776181" lon="13.7094103"><ele>643.0</ele><time>2026-04-26T08:05:43.32Z</time></trkpt><trkpt lat="37.7762738" lon="13.7093912"><ele>643.0</ele><time>2026-04-26T08:05:44.321Z</time></trkpt><trkpt lat="37.7763552" lon="13.7094018"><ele>643.0</ele><time>2026-04-26T08:05:45.321Z</time></trkpt><trkpt lat="37.7764348" lon="13.7094443"><ele>643.0</ele><time>2026-04-26T08:05:46.321Z</time></trkpt><trkpt lat="37.776508" lon="13.7095092"><ele>643.0</ele><time>2026-04-26T08:05:47.321Z</time></trkpt><trkpt lat="37.7765732" lon="13.7096039"><ele>643.0</ele><time>2026-04-26T08:05:48.321Z</time></trkpt><trkpt lat="37.7766382" lon="13.7097064"><ele>643.0</ele><time>2026-04-26T08:05:49.321Z</time></trkpt><trkpt lat="37.776698" lon="13.7098175"><ele>643.0</ele><time>2026-04-26T08:05:50.321Z</time></trkpt><trkpt lat="37.7767615" lon="13.7099292"><ele>643.0</ele><time>2026-04-26T08:05:51.321Z</time></trkpt><trkpt lat="37.7768278" lon="13.7100359"><ele>641.8</ele><time>2026-04-26T08:05:52.321Z</time></trkpt><trkpt lat="37.7768886" lon="13.7101499"><ele>640.5999999999999</ele><time>2026-04-26T08:05:53.321Z</time></trkpt><trkpt lat="37.7769545" lon="13.7102549"><ele>639.4000000000001</ele><time>2026-04-26T08:05:54.32Z</time></trkpt><trkpt lat="37.7770227" lon="13.7103575"><ele>638.2</ele><time>2026-04-26T08:05:55.32Z</time></trkpt><trkpt lat="37.77709" lon="13.7104528"><ele>637.0</ele><time>2026-04-26T08:05:56.32Z</time></trkpt><trkpt lat="37.7771499" lon="13.7105285"><ele>639.8</ele><time>2026-04-26T08:05:57.32Z</time></trkpt><trkpt lat="37.7772092" lon="13.7105924"><ele>642.6</ele><time>2026-04-26T08:05:58.32Z</time></trkpt><trkpt lat="37.7773085" lon="13.7106746"><ele>645.4</ele><time>2026-04-26T08:06:00.32Z</time></trkpt><trkpt lat="37.7774279" lon="13.7107132"><ele>648.1999999999999</ele><time>2026-04-26T08:06:02.32Z</time></trkpt><trkpt lat="37.7775083" lon="13.710714"><ele>651.0</ele><time>2026-04-26T08:06:03.32Z</time></trkpt><trkpt lat="37.7775951" lon="13.7107165"><ele>651.0</ele><time>2026-04-26T08:06:04.32Z</time></trkpt><trkpt lat="37.7776842" lon="13.7107231"><ele>651.0</ele><time>2026-04-26T08:06:05.32Z</time></trkpt><trkpt lat="37.7777719" lon="13.710742"><ele>651.0</ele><time>2026-04-26T08:06:06.32Z</time></trkpt><trkpt lat="37.7778689" lon="13.7107668"><ele>651.0</ele><time>2026-04-26T08:06:07.32Z</time></trkpt><trkpt lat="37.7779765" lon="13.7107912"><ele>651.0</ele><time>2026-04-26T08:06:08.32Z</time></trkpt><trkpt lat="37.7780887" lon="13.7108158"><ele>651.0</ele><time>2026-04-26T08:06:09.32Z</time></trkpt><trkpt lat="37.7781915" lon="13.7108443"><ele>651.0</ele><time>2026-04-26T08:06:10.32Z</time></trkpt><trkpt lat="37.7782907" lon="13.7108726"><ele>651.0</ele><time>2026-04-26T08:06:11.32Z</time></trkpt><trkpt lat="37.7783837" lon="13.7109074"><ele>651.0</ele><time>2026-04-26T08:06:12.32Z</time></trkpt><trkpt lat="37.778461" lon="13.7109428"><ele>651.0</ele><time>2026-04-26T08:06:13.32Z</time></trkpt><trkpt lat="37.7785263" lon="13.7109845"><ele>652.8</ele><time>2026-04-26T08:06:14.32Z</time></trkpt><trkpt lat="37.7785784" lon="13.7110848"><ele>654.5999999999999</ele><time>2026-04-26T08:06:16.32Z</time></trkpt><trkpt lat="37.7785204" lon="13.7111615"><ele>656.4</ele><time>2026-04-26T08:06:18.32Z</time></trkpt><trkpt lat="37.7784446" lon="13.7111539"><ele>658.2</ele><time>2026-04-26T08:06:19.32Z</time></trkpt><trkpt lat="37.7783109" lon="13.7111149"><ele>660.0</ele><time>2026-04-26T08:06:21.32Z</time></trkpt><trkpt lat="37.7782445" lon="13.7110972"><ele>662.6666666666666</ele><time>2026-04-26T08:06:22.32Z</time></trkpt><trkpt lat="37.7781733" lon="13.7110835"><ele>665.3333333333334</ele><time>2026-04-26T08:06:23.32Z</time></trkpt><trkpt lat="37.7781005" lon="13.7110847"><ele>668.0</ele><time>2026-04-26T08:06:24.32Z</time></trkpt><trkpt lat="37.7780293" lon="13.7111208"><ele>670.6666666666667</ele><time>2026-04-26T08:06:25.32Z</time></trkpt><trkpt lat="37.7779519" lon="13.7111833"><ele>673.3333333333334</ele><time>2026-04-26T08:06:26.32Z</time></trkpt><trkpt lat="37.7778674" lon="13.7112651"><ele>676.0</ele><time>2026-04-26T08:06:27.319Z</time></trkpt><trkpt lat="37.7777908" lon="13.7113407"><ele>676.0</ele><time>2026-04-26T08:06:28.32Z</time></trkpt><trkpt lat="37.7777079" lon="13.7114073"><ele>676.0</ele><time>2026-04-26T08:06:29.32Z</time></trkpt><trkpt lat="37.7776285" lon="13.7114578"><ele>676.0</ele><time>2026-04-26T08:06:30.32Z</time></trkpt><trkpt lat="37.7775432" lon="13.7115071"><ele>676.0</ele><time>2026-04-26T08:06:31.32Z</time></trkpt><trkpt lat="37.7774521" lon="13.7115365"><ele>676.0</ele><time>2026-04-26T08:06:32.319Z</time></trkpt><trkpt lat="37.7773618" lon="13.7115464"><ele>675.1666666666667</ele><time>2026-04-26T08:06:33.319Z</time></trkpt><trkpt lat="37.777268" lon="13.7115441"><ele>674.3333333333334</ele><time>2026-04-26T08:06:34.32Z</time></trkpt><trkpt lat="37.777181" lon="13.7115325"><ele>673.5</ele><time>2026-04-26T08:06:35.32Z</time></trkpt><trkpt lat="37.7770971" lon="13.7115195"><ele>672.6666666666666</ele><time>2026-04-26T08:06:36.32Z</time></trkpt><trkpt lat="37.7770185" lon="13.7115117"><ele>671.8333333333333</ele><time>2026-04-26T08:06:37.319Z</time></trkpt><trkpt lat="37.7769357" lon="13.7115071"><ele>671.0</ele><time>2026-04-26T08:06:38.32Z</time></trkpt><trkpt lat="37.7768563" lon="13.7115029"><ele>671.5</ele><time>2026-04-26T08:06:39.32Z</time></trkpt><trkpt lat="37.776774" lon="13.7115017"><ele>672.0</ele><time>2026-04-26T08:06:40.32Z</time></trkpt><trkpt lat="37.7766916" lon="13.7114904"><ele>672.5</ele><time>2026-04-26T08:06:41.32Z</time></trkpt><trkpt lat="37.7765978" lon="13.711462"><ele>673.0</ele><time>2026-04-26T08:06:42.32Z</time></trkpt><trkpt lat="37.77651" lon="13.7114128"><ele>673.5</ele><time>2026-04-26T08:06:43.32Z</time></trkpt><trkpt lat="37.7764367" lon="13.7113551"><ele>674.0</ele><time>2026-04-26T08:06:44.32Z</time></trkpt><trkpt lat="37.7763677" lon="13.7113009"><ele>674.0000000000001</ele><time>2026-04-26T08:06:45.32Z</time></trkpt><trkpt lat="37.7763136" lon="13.7112475"><ele>674.0</ele><time>2026-04-26T08:06:46.32Z</time></trkpt><trkpt lat="37.7762613" lon="13.7112008"><ele>674.0</ele><time>2026-04-26T08:06:47.32Z</time></trkpt><trkpt lat="37.7761967" lon="13.7111665"><ele>674.0</ele><time>2026-04-26T08:06:48.32Z</time></trkpt><trkpt lat="37.7761248" lon="13.7111539"><ele>674.0</ele><time>2026-04-26T08:06:49.32Z</time></trkpt><trkpt lat="37.7760531" lon="13.7111893"><ele>674.0000000000001</ele><time>2026-04-26T08:06:50.32Z</time></trkpt><trkpt lat="37.7759951" lon="13.711251"><ele>674.0</ele><time>2026-04-26T08:06:51.32Z</time></trkpt><trkpt lat="37.7759354" lon="13.7113408"><ele>674.0</ele><time>2026-04-26T08:06:52.319Z</time></trkpt><trkpt lat="37.7758809" lon="13.7114309"><ele>674.0</ele><time>2026-04-26T08:06:53.32Z</time></trkpt><trkpt lat="37.7758248" lon="13.7115197"><ele>674.0</ele><time>2026-04-26T08:06:54.32Z</time></trkpt><trkpt lat="37.7757706" lon="13.7115985"><ele>674.0</ele><time>2026-04-26T08:06:55.32Z</time></trkpt><trkpt lat="37.7757171" lon="13.7116736"><ele>674.0</ele><time>2026-04-26T08:06:56.32Z</time></trkpt><trkpt lat="37.7756657" lon="13.7117459"><ele>674.0</ele><time>2026-04-26T08:06:57.319Z</time></trkpt><trkpt lat="37.7756204" lon="13.7118129"><ele>676.0</ele><time>2026-04-26T08:06:58.32Z</time></trkpt><trkpt lat="37.7755525" lon="13.7119414"><ele>678.0</ele><time>2026-04-26T08:07:00.32Z</time></trkpt><trkpt lat="37.7754875" lon="13.7120676"><ele>680.0</ele><time>2026-04-26T08:07:02.32Z</time></trkpt><trkpt lat="37.7754556" lon="13.712145"><ele>682.0</ele><time>2026-04-26T08:07:03.32Z</time></trkpt><trkpt lat="37.775428" lon="13.7122209"><ele>684.0</ele><time>2026-04-26T08:07:04.32Z</time></trkpt><trkpt lat="37.7754042" lon="13.7122968"><ele>686.0</ele><time>2026-04-26T08:07:05.32Z</time></trkpt><trkpt lat="37.7753667" lon="13.71245"><ele>686.0</ele><time>2026-04-26T08:07:07.32Z</time></trkpt><trkpt lat="37.7753515" lon="13.7125348"><ele>686.0</ele><time>2026-04-26T08:07:08.32Z</time></trkpt><trkpt lat="37.7753279" lon="13.7126191"><ele>686.0</ele><time>2026-04-26T08:07:09.319Z</time></trkpt><trkpt lat="37.775306" lon="13.7127094"><ele>686.0</ele><time>2026-04-26T08:07:10.32Z</time></trkpt><trkpt lat="37.7752702" lon="13.7127876"><ele>686.0</ele><time>2026-04-26T08:07:11.32Z</time></trkpt><trkpt lat="37.7752308" lon="13.7128591"><ele>686.0</ele><time>2026-04-26T08:07:12.32Z</time></trkpt><trkpt lat="37.7751854" lon="13.7129898"><ele>687.8</ele><time>2026-04-26T08:07:14.32Z</time></trkpt><trkpt lat="37.7752257" lon="13.7131036"><ele>689.5999999999999</ele><time>2026-04-26T08:07:16.32Z</time></trkpt><trkpt lat="37.7753157" lon="13.7131859"><ele>691.4</ele><time>2026-04-26T08:07:18.32Z</time></trkpt><trkpt lat="37.775443" lon="13.7131237"><ele>693.2</ele><time>2026-04-26T08:07:20.32Z</time></trkpt><trkpt lat="37.7755124" lon="13.7130601"><ele>695.0</ele><time>2026-04-26T08:07:21.32Z</time></trkpt><trkpt lat="37.7755838" lon="13.7129907"><ele>695.0</ele><time>2026-04-26T08:07:22.32Z</time></trkpt><trkpt lat="37.7756625" lon="13.712916"><ele>695.0</ele><time>2026-04-26T08:07:23.32Z</time></trkpt><trkpt lat="37.7757364" lon="13.7128486"><ele>695.0</ele><time>2026-04-26T08:07:24.32Z</time></trkpt><trkpt lat="37.7758029" lon="13.712789"><ele>695.0</ele><time>2026-04-26T08:07:25.32Z</time></trkpt><trkpt lat="37.7758619" lon="13.7127396"><ele>695.0</ele><time>2026-04-26T08:07:26.32Z</time></trkpt><trkpt lat="37.7759209" lon="13.7127063"><ele>695.0</ele><time>2026-04-26T08:07:27.32Z</time></trkpt><trkpt lat="37.7760306" lon="13.7126763"><ele>696.1666666666666</ele><time>2026-04-26T08:07:29.32Z</time></trkpt><trkpt lat="37.7761103" lon="13.7127613"><ele>697.3333333333333</ele><time>2026-04-26T08:07:31.32Z</time></trkpt><trkpt lat="37.7761448" lon="13.7128332"><ele>698.5</ele><time>2026-04-26T08:07:32.32Z</time></trkpt><trkpt lat="37.7761824" lon="13.7129139"><ele>699.6666666666666</ele><time>2026-04-26T08:07:33.32Z</time></trkpt><trkpt lat="37.7762203" lon="13.7129926"><ele>700.8333333333334</ele><time>2026-04-26T08:07:34.32Z</time></trkpt><trkpt lat="37.7762691" lon="13.7130589"><ele>702.0</ele><time>2026-04-26T08:07:35.32Z</time></trkpt><trkpt lat="37.7763881" lon="13.7131154"><ele>702.0</ele><time>2026-04-26T08:07:37.32Z</time></trkpt><trkpt lat="37.7764579" lon="13.713102"><ele>702.0</ele><time>2026-04-26T08:07:38.32Z</time></trkpt><trkpt lat="37.7765347" lon="13.7130689"><ele>702.0</ele><time>2026-04-26T08:07:39.32Z</time></trkpt><trkpt lat="37.7766171" lon="13.7130213"><ele>702.0</ele><time>2026-04-26T08:07:40.32Z</time></trkpt><trkpt lat="37.7766895" lon="13.7129733"><ele>702.0</ele><time>2026-04-26T08:07:41.319Z</time></trkpt><trkpt lat="37.7767568" lon="13.7129243"><ele>702.0</ele><time>2026-04-26T08:07:42.32Z</time></trkpt><trkpt lat="37.776822" lon="13.7128713"><ele>702.1428571428572</ele><time>2026-04-26T08:07:43.32Z</time></trkpt><trkpt lat="37.7768884" lon="13.7128182"><ele>702.2857142857143</ele><time>2026-04-26T08:07:44.32Z</time></trkpt><trkpt lat="37.7769526" lon="13.7127788"><ele>702.4285714285714</ele><time>2026-04-26T08:07:45.32Z</time></trkpt><trkpt lat="37.7770257" lon="13.7127461"><ele>702.5714285714287</ele><time>2026-04-26T08:07:46.32Z</time></trkpt><trkpt lat="37.7771002" lon="13.7127243"><ele>702.7142857142858</ele><time>2026-04-26T08:07:47.32Z</time></trkpt><trkpt lat="37.7771737" lon="13.7127062"><ele>702.8571428571429</ele><time>2026-04-26T08:07:48.32Z</time></trkpt><trkpt lat="37.7772427" lon="13.7126913"><ele>703.0</ele><time>2026-04-26T08:07:49.32Z</time></trkpt><trkpt lat="37.7773113" lon="13.7126773"><ele>703.0</ele><time>2026-04-26T08:07:50.32Z</time></trkpt><trkpt lat="37.7773865" lon="13.712657"><ele>703.0</ele><time>2026-04-26T08:07:51.32Z</time></trkpt><trkpt lat="37.7774682" lon="13.7126303"><ele>703.0</ele><time>2026-04-26T08:07:52.32Z</time></trkpt><trkpt lat="37.7775455" lon="13.7126068"><ele>703.0</ele><time>2026-04-26T08:07:53.32Z</time></trkpt><trkpt lat="37.7776208" lon="13.7125814"><ele>703.0</ele><time>2026-04-26T08:07:54.32Z</time></trkpt><trkpt lat="37.7776893" lon="13.7125589"><ele>703.0</ele><time>2026-04-26T08:07:55.32Z</time></trkpt><trkpt lat="37.7777557" lon="13.7125233"><ele>703.3333333333334</ele><time>2026-04-26T08:07:56.32Z</time></trkpt><trkpt lat="37.7778706" lon="13.7124723"><ele>703.6666666666667</ele><time>2026-04-26T08:07:58.32Z</time></trkpt><trkpt lat="37.7779344" lon="13.7124628"><ele>704.0</ele><time>2026-04-26T08:07:59.32Z</time></trkpt><trkpt lat="37.7780048" lon="13.7124858"><ele>704.3333333333334</ele><time>2026-04-26T08:08:00.32Z</time></trkpt><trkpt lat="37.7780791" lon="13.7125183"><ele>704.6666666666666</ele><time>2026-04-26T08:08:01.32Z</time></trkpt><trkpt lat="37.7781459" lon="13.7125404"><ele>705.0</ele><time>2026-04-26T08:08:02.32Z</time></trkpt><trkpt lat="37.7782093" lon="13.7125683"><ele>705.0</ele><time>2026-04-26T08:08:03.32Z</time></trkpt><trkpt lat="37.7782629" lon="13.7126146"><ele>705.0</ele><time>2026-04-26T08:08:04.32Z</time></trkpt><trkpt lat="37.778313" lon="13.7126773"><ele>705.0</ele><time>2026-04-26T08:08:05.32Z</time></trkpt><trkpt lat="37.7783946" lon="13.7127823"><ele>705.0</ele><time>2026-04-26T08:08:07.32Z</time></trkpt><trkpt lat="37.7784662" lon="13.7128939"><ele>705.0</ele><time>2026-04-26T08:08:09.32Z</time></trkpt><trkpt lat="37.7785128" lon="13.7129675"><ele>705.0</ele><time>2026-04-26T08:08:11.32Z</time></trkpt><trkpt lat="37.7785726" lon="13.7130451"><ele>703.8333333333334</ele><time>2026-04-26T08:08:14.32Z</time></trkpt><trkpt lat="37.7786359" lon="13.7131253"><ele>702.6666666666666</ele><time>2026-04-26T08:08:17.32Z</time></trkpt><trkpt lat="37.778679" lon="13.7132013"><ele>701.5</ele><time>2026-04-26T08:08:19.32Z</time></trkpt><trkpt lat="37.7787348" lon="13.713285"><ele>700.3333333333333</ele><time>2026-04-26T08:08:21.32Z</time></trkpt><trkpt lat="37.7787905" lon="13.7133617"><ele>699.1666666666666</ele><time>2026-04-26T08:08:23.32Z</time></trkpt><trkpt lat="37.7788458" lon="13.713426"><ele>698.0</ele><time>2026-04-26T08:08:25.319Z</time></trkpt><trkpt lat="37.7788965" lon="13.7135073"><ele>699.0</ele><time>2026-04-26T08:08:27.32Z</time></trkpt><trkpt lat="37.7789423" lon="13.7135924"><ele>700.0</ele><time>2026-04-26T08:08:29.32Z</time></trkpt><trkpt lat="37.7790009" lon="13.7136593"><ele>701.0</ele><time>2026-04-26T08:08:31.32Z</time></trkpt><trkpt lat="37.7790628" lon="13.7137447"><ele>702.0</ele><time>2026-04-26T08:08:33.32Z</time></trkpt><trkpt lat="37.7791172" lon="13.7138439"><ele>703.0</ele><time>2026-04-26T08:08:35.32Z</time></trkpt><trkpt lat="37.7791705" lon="13.7139313"><ele>704.0</ele><time>2026-04-26T08:08:37.319Z</time></trkpt><trkpt lat="37.7792187" lon="13.7140054"><ele>704.0</ele><time>2026-04-26T08:08:39.32Z</time></trkpt><trkpt lat="37.7792676" lon="13.7140814"><ele>704.0</ele><time>2026-04-26T08:08:41.32Z</time></trkpt><trkpt lat="37.7793857" lon="13.7141266"><ele>704.0</ele><time>2026-04-26T08:08:59.32Z</time></trkpt><trkpt lat="37.7794546" lon="13.7141364"><ele>704.0</ele><time>2026-04-26T08:09:02.32Z</time></trkpt><trkpt lat="37.7795375" lon="13.7141225"><ele>704.0</ele><time>2026-04-26T08:09:05.32Z</time></trkpt><trkpt lat="37.7796164" lon="13.7141152"><ele>704.0</ele><time>2026-04-26T08:09:07.32Z</time></trkpt><trkpt lat="37.7797012" lon="13.7141032"><ele>701.7142857142858</ele><time>2026-04-26T08:09:09.32Z</time></trkpt><trkpt lat="37.7797643" lon="13.7140828"><ele>699.4285714285714</ele><time>2026-04-26T08:09:11.319Z</time></trkpt><trkpt lat="37.7798421" lon="13.714056"><ele>697.1428571428571</ele><time>2026-04-26T08:09:14.32Z</time></trkpt><trkpt lat="37.7799161" lon="13.7140212"><ele>694.8571428571429</ele><time>2026-04-26T08:09:17.32Z</time></trkpt><trkpt lat="37.7799886" lon="13.7139795"><ele>692.5714285714286</ele><time>2026-04-26T08:09:20.32Z</time></trkpt><trkpt lat="37.7800539" lon="13.7139619"><ele>690.2857142857143</ele><time>2026-04-26T08:09:23.32Z</time></trkpt><trkpt lat="37.7801296" lon="13.7139472"><ele>688.0</ele><time>2026-04-26T08:09:26.32Z</time></trkpt><trkpt lat="37.7802161" lon="13.7139143"><ele>686.3333333333334</ele><time>2026-04-26T08:09:29.32Z</time></trkpt><trkpt lat="37.7803088" lon="13.7139178"><ele>684.6666666666667</ele><time>2026-04-26T08:09:32.32Z</time></trkpt><trkpt lat="37.7803806" lon="13.7139272"><ele>683.0</ele><time>2026-04-26T08:09:34.32Z</time></trkpt><trkpt lat="37.7804564" lon="13.7139319"><ele>681.3333333333334</ele><time>2026-04-26T08:09:36.32Z</time></trkpt><trkpt lat="37.7805298" lon="13.7139394"><ele>679.6666666666666</ele><time>2026-04-26T08:09:38.32Z</time></trkpt><trkpt lat="37.7806067" lon="13.7139352"><ele>678.0</ele><time>2026-04-26T08:09:40.32Z</time></trkpt><trkpt lat="37.7806781" lon="13.7139348"><ele>678.0</ele><time>2026-04-26T08:09:42.32Z</time></trkpt><trkpt lat="37.7807466" lon="13.7139336"><ele>678.0</ele><time>2026-04-26T08:09:44.32Z</time></trkpt><trkpt lat="37.7808095" lon="13.7139231"><ele>678.0</ele><time>2026-04-26T08:09:46.32Z</time></trkpt><trkpt lat="37.7808748" lon="13.7139107"><ele>678.0</ele><time>2026-04-26T08:09:48.32Z</time></trkpt><trkpt lat="37.7809592" lon="13.7139038"><ele>678.0</ele><time>2026-04-26T08:09:51.32Z</time></trkpt><trkpt lat="37.7810291" lon="13.7138935"><ele>678.0</ele><time>2026-04-26T08:09:54.319Z</time></trkpt><trkpt lat="37.7810994" lon="13.7138906"><ele>678.0</ele><time>2026-04-26T08:09:57.319Z</time></trkpt><trkpt lat="37.7811864" lon="13.713883"><ele>676.4</ele><time>2026-04-26T08:10:00.32Z</time></trkpt><trkpt lat="37.7812766" lon="13.7138874"><ele>674.8</ele><time>2026-04-26T08:10:03.32Z</time></trkpt><trkpt lat="37.781357" lon="13.7138839"><ele>673.2</ele><time>2026-04-26T08:10:06.32Z</time></trkpt><trkpt lat="37.7812809" lon="13.7138984"><ele>671.6</ele><time>2026-04-26T08:10:11.32Z</time></trkpt><trkpt lat="37.7812797" lon="13.714078"><ele>670.0</ele><time>2026-04-26T08:18:08.637Z</time></trkpt><trkpt lat="37.7812532" lon="13.7139448"><ele>670.0</ele><time>2026-04-26T08:19:16.413Z</time></trkpt><trkpt lat="37.7811905" lon="13.713774"><ele>670.0</ele><time>2026-04-26T08:19:54.319Z</time></trkpt><trkpt lat="37.7812419" lon="13.7138978"><ele>670.0</ele><time>2026-04-26T08:19:58.319Z</time></trkpt><trkpt lat="37.7813033" lon="13.713921"><ele>670.0</ele><time>2026-04-26T08:24:52.347Z</time></trkpt><trkpt lat="37.7811973" lon="13.7139061"><ele>670.0</ele><time>2026-04-26T08:34:21.352Z</time></trkpt><trkpt lat="37.7811549" lon="13.713728"><ele>670.0</ele><time>2026-04-26T08:34:25.318Z</time></trkpt><trkpt lat="37.7811443" lon="13.713608"><ele>670.0</ele><time>2026-04-26T08:34:26.317Z</time></trkpt><trkpt lat="37.7811355" lon="13.7135152"><ele>670.0</ele><time>2026-04-26T08:34:27.318Z</time></trkpt><trkpt lat="37.781126" lon="13.7134304"><ele>670.0</ele><time>2026-04-26T08:34:28.318Z</time></trkpt><trkpt lat="37.7811092" lon="13.7132986"><ele>670.0</ele><time>2026-04-26T08:34:30.318Z</time></trkpt><trkpt lat="37.7810894" lon="13.7131747"><ele>670.0</ele><time>2026-04-26T08:34:32.318Z</time></trkpt><trkpt lat="37.7810732" lon="13.7130685"><ele>669.8</ele><time>2026-04-26T08:34:34.318Z</time></trkpt><trkpt lat="37.7810569" lon="13.712967"><ele>669.6</ele><time>2026-04-26T08:34:36.318Z</time></trkpt><trkpt lat="37.7810443" lon="13.7128564"><ele>669.4000000000001</ele><time>2026-04-26T08:34:38.318Z</time></trkpt><trkpt lat="37.7810252" lon="13.7127435"><ele>669.2</ele><time>2026-04-26T08:34:40.318Z</time></trkpt><trkpt lat="37.780995" lon="13.7125951"><ele>669.0</ele><time>2026-04-26T08:34:42.318Z</time></trkpt><trkpt lat="37.7809329" lon="13.7124564"><ele>668.6666666666666</ele><time>2026-04-26T08:34:44.318Z</time></trkpt><trkpt lat="37.780883" lon="13.7124022"><ele>668.3333333333334</ele><time>2026-04-26T08:34:45.318Z</time></trkpt><trkpt lat="37.7808215" lon="13.7123646"><ele>668.0</ele><time>2026-04-26T08:34:46.318Z</time></trkpt><trkpt lat="37.7807563" lon="13.7123405"><ele>667.6666666666667</ele><time>2026-04-26T08:34:47.318Z</time></trkpt><trkpt lat="37.7806902" lon="13.7123028"><ele>667.3333333333334</ele><time>2026-04-26T08:34:48.318Z</time></trkpt><trkpt lat="37.7805717" lon="13.7122665"><ele>667.0</ele><time>2026-04-26T08:34:50.318Z</time></trkpt><trkpt lat="37.7805004" lon="13.7122548"><ele>667.0000000000001</ele><time>2026-04-26T08:34:51.318Z</time></trkpt><trkpt lat="37.7804368" lon="13.7122486"><ele>667.0</ele><time>2026-04-26T08:34:52.317Z</time></trkpt><trkpt lat="37.7803732" lon="13.7122496"><ele>667.0</ele><time>2026-04-26T08:34:53.318Z</time></trkpt><trkpt lat="37.7802654" lon="13.7122636"><ele>667.0</ele><time>2026-04-26T08:34:55.318Z</time></trkpt><trkpt lat="37.7802017" lon="13.7122787"><ele>667.0</ele><time>2026-04-26T08:34:56.318Z</time></trkpt><trkpt lat="37.7801372" lon="13.7122762"><ele>667.0000000000001</ele><time>2026-04-26T08:34:57.318Z</time></trkpt><trkpt lat="37.7800704" lon="13.7122628"><ele>667.0</ele><time>2026-04-26T08:34:58.318Z</time></trkpt><trkpt lat="37.7800082" lon="13.712235"><ele>667.2857142857143</ele><time>2026-04-26T08:34:59.318Z</time></trkpt><trkpt lat="37.7799446" lon="13.7121991"><ele>667.5714285714286</ele><time>2026-04-26T08:35:00.318Z</time></trkpt><trkpt lat="37.7798825" lon="13.7121623"><ele>667.8571428571429</ele><time>2026-04-26T08:35:01.317Z</time></trkpt><trkpt lat="37.7798222" lon="13.7121223"><ele>668.1428571428571</ele><time>2026-04-26T08:35:02.318Z</time></trkpt><trkpt lat="37.7797638" lon="13.7120883"><ele>668.4285714285714</ele><time>2026-04-26T08:35:03.318Z</time></trkpt><trkpt lat="37.7796981" lon="13.7120472"><ele>668.7142857142858</ele><time>2026-04-26T08:35:04.318Z</time></trkpt><trkpt lat="37.7796207" lon="13.7120127"><ele>669.0</ele><time>2026-04-26T08:35:05.318Z</time></trkpt><trkpt lat="37.7795095" lon="13.7119558"><ele>666.75</ele><time>2026-04-26T08:35:06.318Z</time></trkpt><trkpt lat="37.7793839" lon="13.71189"><ele>664.5</ele><time>2026-04-26T08:35:07.318Z</time></trkpt><trkpt lat="37.7792719" lon="13.7118261"><ele>662.25</ele><time>2026-04-26T08:35:08.318Z</time></trkpt><trkpt lat="37.7791679" lon="13.7117525"><ele>660.0</ele><time>2026-04-26T08:35:09.318Z</time></trkpt><trkpt lat="37.7790752" lon="13.7116888"><ele>660.0</ele><time>2026-04-26T08:35:10.318Z</time></trkpt><trkpt lat="37.778993" lon="13.7116314"><ele>660.0</ele><time>2026-04-26T08:35:11.318Z</time></trkpt><trkpt lat="37.77892" lon="13.7115729"><ele>660.0</ele><time>2026-04-26T08:35:12.318Z</time></trkpt><trkpt lat="37.7788633" lon="13.7115129"><ele>660.0</ele><time>2026-04-26T08:35:13.318Z</time></trkpt><trkpt lat="37.7788271" lon="13.7114354"><ele>660.0</ele><time>2026-04-26T08:35:14.318Z</time></trkpt><trkpt lat="37.7788079" lon="13.7113444"><ele>660.0</ele><time>2026-04-26T08:35:15.318Z</time></trkpt><trkpt lat="37.7787986" lon="13.7112397"><ele>660.0</ele><time>2026-04-26T08:35:16.318Z</time></trkpt><trkpt lat="37.7787796" lon="13.7111336"><ele>660.0</ele><time>2026-04-26T08:35:17.318Z</time></trkpt><trkpt lat="37.7787618" lon="13.7110478"><ele>660.0</ele><time>2026-04-26T08:35:18.318Z</time></trkpt><trkpt lat="37.7787289" lon="13.7109649"><ele>660.0</ele><time>2026-04-26T08:35:19.318Z</time></trkpt><trkpt lat="37.7786849" lon="13.7108927"><ele>660.0</ele><time>2026-04-26T08:35:20.317Z</time></trkpt><trkpt lat="37.7786036" lon="13.7108233"><ele>660.0</ele><time>2026-04-26T08:35:21.318Z</time></trkpt><trkpt lat="37.7785416" lon="13.7107785"><ele>658.7142857142858</ele><time>2026-04-26T08:35:22.318Z</time></trkpt><trkpt lat="37.7784827" lon="13.7107454"><ele>657.4285714285714</ele><time>2026-04-26T08:35:23.317Z</time></trkpt><trkpt lat="37.7784189" lon="13.7107199"><ele>656.1428571428571</ele><time>2026-04-26T08:35:24.318Z</time></trkpt><trkpt lat="37.7783523" lon="13.7107041"><ele>654.8571428571429</ele><time>2026-04-26T08:35:25.318Z</time></trkpt><trkpt lat="37.7782831" lon="13.7106965"><ele>653.5714285714286</ele><time>2026-04-26T08:35:26.318Z</time></trkpt><trkpt lat="37.7782146" lon="13.7106921"><ele>652.2857142857143</ele><time>2026-04-26T08:35:27.318Z</time></trkpt><trkpt lat="37.7781391" lon="13.7106862"><ele>651.0</ele><time>2026-04-26T08:35:28.318Z</time></trkpt><trkpt lat="37.7780711" lon="13.7106783"><ele>651.0</ele><time>2026-04-26T08:35:29.318Z</time></trkpt><trkpt lat="37.778006" lon="13.7106644"><ele>651.0</ele><time>2026-04-26T08:35:30.318Z</time></trkpt><trkpt lat="37.7779365" lon="13.7106531"><ele>651.0</ele><time>2026-04-26T08:35:31.318Z</time></trkpt><trkpt lat="37.7778638" lon="13.7106416"><ele>651.0</ele><time>2026-04-26T08:35:32.318Z</time></trkpt><trkpt lat="37.7777908" lon="13.7106306"><ele>651.0</ele><time>2026-04-26T08:35:33.317Z</time></trkpt><trkpt lat="37.7777216" lon="13.710622"><ele>651.0</ele><time>2026-04-26T08:35:34.317Z</time></trkpt><trkpt lat="37.7776553" lon="13.7106108"><ele>651.0</ele><time>2026-04-26T08:35:35.318Z</time></trkpt><trkpt lat="37.7775358" lon="13.7105912"><ele>651.0</ele><time>2026-04-26T08:35:37.318Z</time></trkpt><trkpt lat="37.7774206" lon="13.7105727"><ele>651.0</ele><time>2026-04-26T08:35:39.317Z</time></trkpt><trkpt lat="37.7773056" lon="13.7105451"><ele>651.0</ele><time>2026-04-26T08:35:41.318Z</time></trkpt><trkpt lat="37.7772387" lon="13.7105373"><ele>651.0</ele><time>2026-04-26T08:35:42.318Z</time></trkpt><trkpt lat="37.77717" lon="13.7105145"><ele>651.0</ele><time>2026-04-26T08:35:43.318Z</time></trkpt><trkpt lat="37.7771012" lon="13.7104697"><ele>651.0</ele><time>2026-04-26T08:35:44.318Z</time></trkpt><trkpt lat="37.7770359" lon="13.7104097"><ele>651.0</ele><time>2026-04-26T08:35:45.318Z</time></trkpt><trkpt lat="37.776976" lon="13.7103395"><ele>651.0</ele><time>2026-04-26T08:35:46.318Z</time></trkpt><trkpt lat="37.77692" lon="13.7102584"><ele>651.0</ele><time>2026-04-26T08:35:47.318Z</time></trkpt><trkpt lat="37.7768675" lon="13.7101664"><ele>651.0</ele><time>2026-04-26T08:35:48.317Z</time></trkpt><trkpt lat="37.7768159" lon="13.7100722"><ele>651.0</ele><time>2026-04-26T08:35:49.318Z</time></trkpt><trkpt lat="37.7767656" lon="13.7099782"><ele>651.0</ele><time>2026-04-26T08:35:50.318Z</time></trkpt><trkpt lat="37.776712" lon="13.7098815"><ele>649.4</ele><time>2026-04-26T08:35:51.318Z</time></trkpt><trkpt lat="37.7766563" lon="13.7097853"><ele>647.8</ele><time>2026-04-26T08:35:52.318Z</time></trkpt><trkpt lat="37.7766016" lon="13.7096884"><ele>646.1999999999999</ele><time>2026-04-26T08:35:53.318Z</time></trkpt><trkpt lat="37.7765419" lon="13.7095826"><ele>644.5999999999999</ele><time>2026-04-26T08:35:54.317Z</time></trkpt><trkpt lat="37.7764779" lon="13.7094848"><ele>643.0</ele><time>2026-04-26T08:35:55.318Z</time></trkpt><trkpt lat="37.7764026" lon="13.7094079"><ele>641.0</ele><time>2026-04-26T08:35:56.318Z</time></trkpt><trkpt lat="37.7763083" lon="13.7093569"><ele>639.0</ele><time>2026-04-26T08:35:57.318Z</time></trkpt><trkpt lat="37.7762172" lon="13.7093282"><ele>637.0</ele><time>2026-04-26T08:35:58.318Z</time></trkpt><trkpt lat="37.7761179" lon="13.7093422"><ele>635.0</ele><time>2026-04-26T08:35:59.318Z</time></trkpt><trkpt lat="37.7760158" lon="13.7093713"><ele>633.0</ele><time>2026-04-26T08:36:00.318Z</time></trkpt><trkpt lat="37.7759122" lon="13.7093907"><ele>632.8</ele><time>2026-04-26T08:36:01.318Z</time></trkpt><trkpt lat="37.7758018" lon="13.7093933"><ele>632.5999999999999</ele><time>2026-04-26T08:36:02.318Z</time></trkpt><trkpt lat="37.7756993" lon="13.7093717"><ele>632.4000000000001</ele><time>2026-04-26T08:36:03.318Z</time></trkpt><trkpt lat="37.7755987" lon="13.7093335"><ele>632.2</ele><time>2026-04-26T08:36:04.318Z</time></trkpt><trkpt lat="37.7754966" lon="13.7093145"><ele>632.0</ele><time>2026-04-26T08:36:05.318Z</time></trkpt><trkpt lat="37.7753984" lon="13.7093252"><ele>632.0</ele><time>2026-04-26T08:36:06.318Z</time></trkpt><trkpt lat="37.7753135" lon="13.7093682"><ele>632.0</ele><time>2026-04-26T08:36:07.317Z</time></trkpt><trkpt lat="37.7752494" lon="13.7094319"><ele>632.0</ele><time>2026-04-26T08:36:08.318Z</time></trkpt><trkpt lat="37.7751949" lon="13.7095147"><ele>632.0</ele><time>2026-04-26T08:36:09.318Z</time></trkpt><trkpt lat="37.7751525" lon="13.7096044"><ele>632.0</ele><time>2026-04-26T08:36:10.318Z</time></trkpt><trkpt lat="37.7751082" lon="13.7096875"><ele>632.0</ele><time>2026-04-26T08:36:11.318Z</time></trkpt><trkpt lat="37.775053" lon="13.7097469"><ele>632.2</ele><time>2026-04-26T08:36:12.318Z</time></trkpt><trkpt lat="37.7749431" lon="13.7097637"><ele>632.4000000000001</ele><time>2026-04-26T08:36:14.318Z</time></trkpt><trkpt lat="37.7748983" lon="13.7096324"><ele>632.5999999999999</ele><time>2026-04-26T08:36:16.318Z</time></trkpt><trkpt lat="37.7749101" lon="13.7095396"><ele>632.8</ele><time>2026-04-26T08:36:17.318Z</time></trkpt><trkpt lat="37.7749396" lon="13.7094359"><ele>633.0</ele><time>2026-04-26T08:36:18.318Z</time></trkpt><trkpt lat="37.7749723" lon="13.7093274"><ele>632.8</ele><time>2026-04-26T08:36:19.318Z</time></trkpt><trkpt lat="37.7750179" lon="13.7092217"><ele>632.5999999999999</ele><time>2026-04-26T08:36:20.318Z</time></trkpt><trkpt lat="37.7750812" lon="13.7091282"><ele>632.4000000000001</ele><time>2026-04-26T08:36:21.318Z</time></trkpt><trkpt lat="37.7751529" lon="13.7090492"><ele>632.2</ele><time>2026-04-26T08:36:22.317Z</time></trkpt><trkpt lat="37.7752341" lon="13.7089845"><ele>632.0</ele><time>2026-04-26T08:36:23.318Z</time></trkpt><trkpt lat="37.7753282" lon="13.7089434"><ele>632.0</ele><time>2026-04-26T08:36:24.318Z</time></trkpt><trkpt lat="37.7754269" lon="13.708905"><ele>632.0</ele><time>2026-04-26T08:36:25.318Z</time></trkpt><trkpt lat="37.7755235" lon="13.7088756"><ele>632.0</ele><time>2026-04-26T08:36:26.318Z</time></trkpt><trkpt lat="37.7756159" lon="13.7088497"><ele>632.0</ele><time>2026-04-26T08:36:27.318Z</time></trkpt><trkpt lat="37.7757056" lon="13.7088218"><ele>632.0</ele><time>2026-04-26T08:36:28.318Z</time></trkpt><trkpt lat="37.7757862" lon="13.7088023"><ele>632.0</ele><time>2026-04-26T08:36:29.318Z</time></trkpt><trkpt lat="37.775852" lon="13.7087723"><ele>632.0</ele><time>2026-04-26T08:36:30.318Z</time></trkpt><trkpt lat="37.7759357" lon="13.7086594"><ele>632.0</ele><time>2026-04-26T08:36:32.318Z</time></trkpt><trkpt lat="37.7759219" lon="13.7085781"><ele>632.0</ele><time>2026-04-26T08:36:33.318Z</time></trkpt><trkpt lat="37.7758705" lon="13.7085163"><ele>632.0</ele><time>2026-04-26T08:36:34.318Z</time></trkpt><trkpt lat="37.7758088" lon="13.7084893"><ele>632.0</ele><time>2026-04-26T08:36:35.318Z</time></trkpt><trkpt lat="37.7757331" lon="13.7084721"><ele>629.6666666666666</ele><time>2026-04-26T08:36:36.318Z</time></trkpt><trkpt lat="37.7756546" lon="13.7084645"><ele>627.3333333333333</ele><time>2026-04-26T08:36:37.318Z</time></trkpt><trkpt lat="37.7755781" lon="13.7084581"><ele>625.0</ele><time>2026-04-26T08:36:38.318Z</time></trkpt><trkpt lat="37.7755022" lon="13.7084492"><ele>622.6666666666666</ele><time>2026-04-26T08:36:39.318Z</time></trkpt><trkpt lat="37.7754303" lon="13.7084421"><ele>620.3333333333334</ele><time>2026-04-26T08:36:40.318Z</time></trkpt><trkpt lat="37.7753497" lon="13.7084343"><ele>618.0</ele><time>2026-04-26T08:36:41.318Z</time></trkpt><trkpt lat="37.7752593" lon="13.7084327"><ele>617.25</ele><time>2026-04-26T08:36:42.318Z</time></trkpt><trkpt lat="37.775157" lon="13.7084389"><ele>616.5</ele><time>2026-04-26T08:36:43.318Z</time></trkpt><trkpt lat="37.7750393" lon="13.7084586"><ele>615.75</ele><time>2026-04-26T08:36:44.318Z</time></trkpt><trkpt lat="37.7749158" lon="13.7084852"><ele>615.0</ele><time>2026-04-26T08:36:45.318Z</time></trkpt><trkpt lat="37.7747941" lon="13.7085139"><ele>615.0</ele><time>2026-04-26T08:36:46.318Z</time></trkpt><trkpt lat="37.7746805" lon="13.7085575"><ele>615.0</ele><time>2026-04-26T08:36:47.318Z</time></trkpt><trkpt lat="37.774586" lon="13.7086371"><ele>615.0</ele><time>2026-04-26T08:36:48.318Z</time></trkpt><trkpt lat="37.774507" lon="13.7087419"><ele>615.0</ele><time>2026-04-26T08:36:49.317Z</time></trkpt><trkpt lat="37.7744296" lon="13.7088518"><ele>613.0</ele><time>2026-04-26T08:36:50.318Z</time></trkpt><trkpt lat="37.7743493" lon="13.7089662"><ele>611.0</ele><time>2026-04-26T08:36:51.318Z</time></trkpt><trkpt lat="37.7742683" lon="13.7090789"><ele>609.0</ele><time>2026-04-26T08:36:52.318Z</time></trkpt><trkpt lat="37.7741826" lon="13.7091954"><ele>607.0</ele><time>2026-04-26T08:36:53.318Z</time></trkpt><trkpt lat="37.7740945" lon="13.7093065"><ele>609.0</ele><time>2026-04-26T08:36:54.318Z</time></trkpt><trkpt lat="37.7740155" lon="13.7094262"><ele>611.0</ele><time>2026-04-26T08:36:55.318Z</time></trkpt><trkpt lat="37.7739418" lon="13.7095529"><ele>613.0</ele><time>2026-04-26T08:36:56.318Z</time></trkpt><trkpt lat="37.7738678" lon="13.70968"><ele>615.0</ele><time>2026-04-26T08:36:57.318Z</time></trkpt><trkpt lat="37.773795" lon="13.7098081"><ele>615.0</ele><time>2026-04-26T08:36:58.318Z</time></trkpt><trkpt lat="37.7737237" lon="13.7099346"><ele>615.0</ele><time>2026-04-26T08:36:59.318Z</time></trkpt><trkpt lat="37.7736477" lon="13.7100535"><ele>615.0</ele><time>2026-04-26T08:37:00.318Z</time></trkpt><trkpt lat="37.773567" lon="13.7101556"><ele>615.0</ele><time>2026-04-26T08:37:01.318Z</time></trkpt><trkpt lat="37.7734904" lon="13.7102493"><ele>613.8</ele><time>2026-04-26T08:37:02.318Z</time></trkpt><trkpt lat="37.7734156" lon="13.710344"><ele>612.6</ele><time>2026-04-26T08:37:03.318Z</time></trkpt><trkpt lat="37.7733434" lon="13.710441"><ele>611.4</ele><time>2026-04-26T08:37:04.318Z</time></trkpt><trkpt lat="37.7732727" lon="13.7105404"><ele>610.2</ele><time>2026-04-26T08:37:05.318Z</time></trkpt><trkpt lat="37.7731979" lon="13.7106335"><ele>609.0</ele><time>2026-04-26T08:37:06.318Z</time></trkpt><trkpt lat="37.7731212" lon="13.7107235"><ele>609.0</ele><time>2026-04-26T08:37:07.317Z</time></trkpt><trkpt lat="37.7730425" lon="13.7107989"><ele>609.0</ele><time>2026-04-26T08:37:08.318Z</time></trkpt><trkpt lat="37.7729652" lon="13.7108704"><ele>609.0</ele><time>2026-04-26T08:37:09.318Z</time></trkpt><trkpt lat="37.7728991" lon="13.7109626"><ele>609.0</ele><time>2026-04-26T08:37:10.318Z</time></trkpt><trkpt lat="37.7728425" lon="13.7110595"><ele>609.0</ele><time>2026-04-26T08:37:11.317Z</time></trkpt><trkpt lat="37.7728028" lon="13.7111495"><ele>607.4</ele><time>2026-04-26T08:37:12.318Z</time></trkpt><trkpt lat="37.7727717" lon="13.7112188"><ele>605.8</ele><time>2026-04-26T08:37:13.318Z</time></trkpt><trkpt lat="37.7727221" lon="13.7113307"><ele>604.2</ele><time>2026-04-26T08:37:15.318Z</time></trkpt><trkpt lat="37.7726681" lon="13.7114007"><ele>602.6</ele><time>2026-04-26T08:37:17.318Z</time></trkpt><trkpt lat="37.7725958" lon="13.7114772"><ele>601.0</ele><time>2026-04-26T08:37:21.317Z</time></trkpt><trkpt lat="37.7725196" lon="13.7115919"><ele>601.0</ele><time>2026-04-26T08:37:23.317Z</time></trkpt><trkpt lat="37.7724702" lon="13.7116611"><ele>601.0</ele><time>2026-04-26T08:37:24.317Z</time></trkpt><trkpt lat="37.7724004" lon="13.7117173"><ele>601.0</ele><time>2026-04-26T08:37:25.317Z</time></trkpt><trkpt lat="37.7723171" lon="13.7117483"><ele>601.0</ele><time>2026-04-26T08:37:26.317Z</time></trkpt><trkpt lat="37.7722281" lon="13.7117431"><ele>601.0</ele><time>2026-04-26T08:37:27.317Z</time></trkpt><trkpt lat="37.7721273" lon="13.7117049"><ele>601.0</ele><time>2026-04-26T08:37:28.317Z</time></trkpt><trkpt lat="37.7720222" lon="13.7116189"><ele>601.0</ele><time>2026-04-26T08:37:29.317Z</time></trkpt><trkpt lat="37.7719127" lon="13.7115051"><ele>601.0</ele><time>2026-04-26T08:37:30.317Z</time></trkpt><trkpt lat="37.7717917" lon="13.7113729"><ele>601.0</ele><time>2026-04-26T08:37:31.317Z</time></trkpt><trkpt lat="37.7716425" lon="13.711222"><ele>594.6666666666667</ele><time>2026-04-26T08:37:32.317Z</time></trkpt><trkpt lat="37.7714731" lon="13.7110542"><ele>588.3333333333334</ele><time>2026-04-26T08:37:33.317Z</time></trkpt><trkpt lat="37.7713004" lon="13.7108805"><ele>582.0</ele><time>2026-04-26T08:37:34.317Z</time></trkpt><trkpt lat="37.7711377" lon="13.710706"><ele>585.3333333333334</ele><time>2026-04-26T08:37:35.317Z</time></trkpt><trkpt lat="37.7709671" lon="13.7105579"><ele>588.6666666666667</ele><time>2026-04-26T08:37:36.317Z</time></trkpt><trkpt lat="37.7707984" lon="13.7104404"><ele>592.0</ele><time>2026-04-26T08:37:37.317Z</time></trkpt><trkpt lat="37.7706426" lon="13.7103722"><ele>592.0</ele><time>2026-04-26T08:37:38.317Z</time></trkpt><trkpt lat="37.7704788" lon="13.7103436"><ele>592.0</ele><time>2026-04-26T08:37:39.317Z</time></trkpt><trkpt lat="37.7703097" lon="13.7103732"><ele>592.0</ele><time>2026-04-26T08:37:40.316Z</time></trkpt><trkpt lat="37.7701526" lon="13.7104503"><ele>591.6666666666667</ele><time>2026-04-26T08:37:41.317Z</time></trkpt><trkpt lat="37.7700033" lon="13.7105323"><ele>591.3333333333334</ele><time>2026-04-26T08:37:42.317Z</time></trkpt><trkpt lat="37.7698512" lon="13.7105755"><ele>591.0</ele><time>2026-04-26T08:37:43.317Z</time></trkpt><trkpt lat="37.7696912" lon="13.7105849"><ele>591.0</ele><time>2026-04-26T08:37:44.317Z</time></trkpt><trkpt lat="37.7695365" lon="13.710556"><ele>591.0</ele><time>2026-04-26T08:37:45.317Z</time></trkpt><trkpt lat="37.7693912" lon="13.7104804"><ele>591.0</ele><time>2026-04-26T08:37:46.317Z</time></trkpt><trkpt lat="37.7692516" lon="13.7103587"><ele>587.3333333333334</ele><time>2026-04-26T08:37:47.317Z</time></trkpt><trkpt lat="37.7691225" lon="13.7101939"><ele>583.6666666666667</ele><time>2026-04-26T08:37:48.317Z</time></trkpt><trkpt lat="37.7689869" lon="13.7100382"><ele>580.0</ele><time>2026-04-26T08:37:49.316Z</time></trkpt><trkpt lat="37.7688554" lon="13.7098868"><ele>580.0</ele><time>2026-04-26T08:37:50.317Z</time></trkpt><trkpt lat="37.7687358" lon="13.7097418"><ele>580.0</ele><time>2026-04-26T08:37:51.317Z</time></trkpt><trkpt lat="37.7686029" lon="13.7096147"><ele>580.0</ele><time>2026-04-26T08:37:52.316Z</time></trkpt><trkpt lat="37.768447" lon="13.709532"><ele>580.3333333333334</ele><time>2026-04-26T08:37:53.317Z</time></trkpt><trkpt lat="37.7682789" lon="13.7094744"><ele>580.6666666666666</ele><time>2026-04-26T08:37:54.317Z</time></trkpt><trkpt lat="37.7681139" lon="13.7093806"><ele>581.0</ele><time>2026-04-26T08:37:55.317Z</time></trkpt><trkpt lat="37.7679597" lon="13.7092473"><ele>581.0</ele><time>2026-04-26T08:37:56.317Z</time></trkpt><trkpt lat="37.7678139" lon="13.7090963"><ele>581.0</ele><time>2026-04-26T08:37:57.317Z</time></trkpt><trkpt lat="37.7676582" lon="13.7089481"><ele>581.0</ele><time>2026-04-26T08:37:58.317Z</time></trkpt><trkpt lat="37.7675009" lon="13.7087894"><ele>583.0</ele><time>2026-04-26T08:37:59.317Z</time></trkpt><trkpt lat="37.767336" lon="13.7086504"><ele>585.0</ele><time>2026-04-26T08:38:00.317Z</time></trkpt><trkpt lat="37.7671738" lon="13.7085458"><ele>587.0</ele><time>2026-04-26T08:38:01.317Z</time></trkpt><trkpt lat="37.7670423" lon="13.7084902"><ele>587.0</ele><time>2026-04-26T08:38:02.317Z</time></trkpt><trkpt lat="37.7669206" lon="13.7084687"><ele>587.0</ele><time>2026-04-26T08:38:03.317Z</time></trkpt><trkpt lat="37.7667856" lon="13.7084978"><ele>587.0</ele><time>2026-04-26T08:38:04.317Z</time></trkpt><trkpt lat="37.7666458" lon="13.7085792"><ele>587.0</ele><time>2026-04-26T08:38:05.317Z</time></trkpt><trkpt lat="37.7664979" lon="13.7087057"><ele>590.6666666666666</ele><time>2026-04-26T08:38:06.317Z</time></trkpt><trkpt lat="37.7663437" lon="13.7088462"><ele>594.3333333333334</ele><time>2026-04-26T08:38:07.317Z</time></trkpt><trkpt lat="37.76619" lon="13.7089807"><ele>598.0</ele><time>2026-04-26T08:38:08.317Z</time></trkpt><trkpt lat="37.7660299" lon="13.7091187"><ele>598.3333333333334</ele><time>2026-04-26T08:38:09.316Z</time></trkpt><trkpt lat="37.7658727" lon="13.709254"><ele>598.6666666666666</ele><time>2026-04-26T08:38:10.317Z</time></trkpt><trkpt lat="37.7657101" lon="13.709395"><ele>599.0</ele><time>2026-04-26T08:38:11.317Z</time></trkpt><trkpt lat="37.7655545" lon="13.7095394"><ele>599.0</ele><time>2026-04-26T08:38:12.317Z</time></trkpt><trkpt lat="37.7654049" lon="13.7096971"><ele>599.0</ele><time>2026-04-26T08:38:13.317Z</time></trkpt><trkpt lat="37.7652676" lon="13.7098841"><ele>599.0</ele><time>2026-04-26T08:38:14.317Z</time></trkpt><trkpt lat="37.765138" lon="13.710095"><ele>596.3333333333333</ele><time>2026-04-26T08:38:15.316Z</time></trkpt><trkpt lat="37.7650087" lon="13.7103101"><ele>593.6666666666666</ele><time>2026-04-26T08:38:16.317Z</time></trkpt><trkpt lat="37.7648698" lon="13.7105306"><ele>591.0</ele><time>2026-04-26T08:38:17.316Z</time></trkpt><trkpt lat="37.7647292" lon="13.710737"><ele>591.0</ele><time>2026-04-26T08:38:18.317Z</time></trkpt><trkpt lat="37.7646078" lon="13.7109405"><ele>591.0</ele><time>2026-04-26T08:38:19.317Z</time></trkpt><trkpt lat="37.7645015" lon="13.7111226"><ele>591.0</ele><time>2026-04-26T08:38:20.317Z</time></trkpt><trkpt lat="37.764406" lon="13.7112604"><ele>591.25</ele><time>2026-04-26T08:38:21.317Z</time></trkpt><trkpt lat="37.7643026" lon="13.7113574"><ele>591.5</ele><time>2026-04-26T08:38:22.317Z</time></trkpt><trkpt lat="37.7641798" lon="13.7114048"><ele>591.75</ele><time>2026-04-26T08:38:23.317Z</time></trkpt><trkpt lat="37.7640316" lon="13.7114081"><ele>592.0</ele><time>2026-04-26T08:38:24.317Z</time></trkpt><trkpt lat="37.7638618" lon="13.7113919"><ele>592.0</ele><time>2026-04-26T08:38:25.317Z</time></trkpt><trkpt lat="37.7636725" lon="13.711386"><ele>592.0</ele><time>2026-04-26T08:38:26.317Z</time></trkpt><trkpt lat="37.7634702" lon="13.7114138"><ele>592.0</ele><time>2026-04-26T08:38:27.317Z</time></trkpt><trkpt lat="37.7632642" lon="13.7114691"><ele>589.6666666666667</ele><time>2026-04-26T08:38:28.317Z</time></trkpt><trkpt lat="37.7630657" lon="13.7115461"><ele>587.3333333333334</ele><time>2026-04-26T08:38:29.317Z</time></trkpt><trkpt lat="37.7628856" lon="13.711655"><ele>585.0</ele><time>2026-04-26T08:38:30.317Z</time></trkpt><trkpt lat="37.7627398" lon="13.7117683"><ele>583.5</ele><time>2026-04-26T08:38:31.317Z</time></trkpt><trkpt lat="37.762609" lon="13.7118569"><ele>582.0</ele><time>2026-04-26T08:38:32.317Z</time></trkpt><trkpt lat="37.7624718" lon="13.711892"><ele>580.5</ele><time>2026-04-26T08:38:33.317Z</time></trkpt><trkpt lat="37.7623158" lon="13.7118768"><ele>579.0</ele><time>2026-04-26T08:38:34.317Z</time></trkpt><trkpt lat="37.7621536" lon="13.7118296"><ele>579.0</ele><time>2026-04-26T08:38:35.317Z</time></trkpt><trkpt lat="37.7619747" lon="13.7117957"><ele>579.0</ele><time>2026-04-26T08:38:36.317Z</time></trkpt><trkpt lat="37.7617896" lon="13.7117896"><ele>579.0</ele><time>2026-04-26T08:38:37.317Z</time></trkpt><trkpt lat="37.7615833" lon="13.7118324"><ele>585.5</ele><time>2026-04-26T08:38:38.317Z</time></trkpt><trkpt lat="37.761369" lon="13.7119108"><ele>592.0</ele><time>2026-04-26T08:38:39.317Z</time></trkpt><trkpt lat="37.7611383" lon="13.7120043"><ele>588.5</ele><time>2026-04-26T08:38:40.317Z</time></trkpt><trkpt lat="37.7609103" lon="13.7120986"><ele>585.0</ele><time>2026-04-26T08:38:41.317Z</time></trkpt><trkpt lat="37.7606973" lon="13.7121865"><ele>585.0</ele><time>2026-04-26T08:38:42.317Z</time></trkpt><trkpt lat="37.7604932" lon="13.712267"><ele>585.0</ele><time>2026-04-26T08:38:43.317Z</time></trkpt><trkpt lat="37.7602894" lon="13.7123771"><ele>585.0</ele><time>2026-04-26T08:38:44.317Z</time></trkpt><trkpt lat="37.7600687" lon="13.7124621"><ele>585.5</ele><time>2026-04-26T08:38:45.317Z</time></trkpt><trkpt lat="37.7598561" lon="13.7126524"><ele>586.0</ele><time>2026-04-26T08:38:46.317Z</time></trkpt><trkpt lat="37.7596572" lon="13.712853"><ele>586.0</ele><time>2026-04-26T08:38:47.317Z</time></trkpt><trkpt lat="37.759464" lon="13.7130279"><ele>586.0</ele><time>2026-04-26T08:38:48.317Z</time></trkpt><trkpt lat="37.7592721" lon="13.7132001"><ele>580.5</ele><time>2026-04-26T08:38:49.317Z</time></trkpt><trkpt lat="37.7590865" lon="13.7133781"><ele>575.0</ele><time>2026-04-26T08:38:50.317Z</time></trkpt><trkpt lat="37.7589039" lon="13.7135447"><ele>574.6666666666666</ele><time>2026-04-26T08:38:51.317Z</time></trkpt><trkpt lat="37.7587396" lon="13.7137077"><ele>574.3333333333334</ele><time>2026-04-26T08:38:52.317Z</time></trkpt><trkpt lat="37.7586018" lon="13.7138852"><ele>574.0</ele><time>2026-04-26T08:38:53.317Z</time></trkpt><trkpt lat="37.7584955" lon="13.7140933"><ele>574.0</ele><time>2026-04-26T08:38:54.317Z</time></trkpt><trkpt lat="37.7584239" lon="13.7143261"><ele>574.0</ele><time>2026-04-26T08:38:55.317Z</time></trkpt><trkpt lat="37.7583706" lon="13.7145897"><ele>574.0</ele><time>2026-04-26T08:38:56.317Z</time></trkpt><trkpt lat="37.7583232" lon="13.7148729"><ele>576.3333333333334</ele><time>2026-04-26T08:38:57.317Z</time></trkpt><trkpt lat="37.7582774" lon="13.7151476"><ele>578.6666666666666</ele><time>2026-04-26T08:38:58.317Z</time></trkpt><trkpt lat="37.7582343" lon="13.7154055"><ele>581.0</ele><time>2026-04-26T08:38:59.317Z</time></trkpt><trkpt lat="37.7581843" lon="13.715649"><ele>583.6666666666666</ele><time>2026-04-26T08:39:00.317Z</time></trkpt><trkpt lat="37.7581204" lon="13.7158688"><ele>586.3333333333334</ele><time>2026-04-26T08:39:01.317Z</time></trkpt><trkpt lat="37.7580327" lon="13.7160891"><ele>589.0</ele><time>2026-04-26T08:39:02.317Z</time></trkpt><trkpt lat="37.7579333" lon="13.7163087"><ele>588.3333333333334</ele><time>2026-04-26T08:39:03.317Z</time></trkpt><trkpt lat="37.7578158" lon="13.716531"><ele>587.6666666666666</ele><time>2026-04-26T08:39:04.317Z</time></trkpt><trkpt lat="37.757689" lon="13.7167631"><ele>587.0</ele><time>2026-04-26T08:39:05.317Z</time></trkpt><trkpt lat="37.7576242" lon="13.7170467"><ele>589.0</ele><time>2026-04-26T08:39:06.317Z</time></trkpt><trkpt lat="37.7575295" lon="13.7172381"><ele>591.0</ele><time>2026-04-26T08:39:07.317Z</time></trkpt><trkpt lat="37.7574547" lon="13.7173998"><ele>593.0</ele><time>2026-04-26T08:39:08.317Z</time></trkpt><trkpt lat="37.7573875" lon="13.7175028"><ele>595.0</ele><time>2026-04-26T08:39:09.317Z</time></trkpt><trkpt lat="37.757294" lon="13.7175545"><ele>595.0</ele><time>2026-04-26T08:39:10.317Z</time></trkpt><trkpt lat="37.7571637" lon="13.7175696"><ele>595.0</ele><time>2026-04-26T08:39:11.317Z</time></trkpt><trkpt lat="37.7569979" lon="13.7175482"><ele>595.0</ele><time>2026-04-26T08:39:12.317Z</time></trkpt><trkpt lat="37.7568202" lon="13.7175099"><ele>593.3333333333334</ele><time>2026-04-26T08:39:13.317Z</time></trkpt><trkpt lat="37.7566319" lon="13.7174877"><ele>591.6666666666666</ele><time>2026-04-26T08:39:14.317Z</time></trkpt><trkpt lat="37.7564357" lon="13.7174953"><ele>590.0</ele><time>2026-04-26T08:39:15.317Z</time></trkpt><trkpt lat="37.7562307" lon="13.7175341"><ele>590.0</ele><time>2026-04-26T08:39:16.317Z</time></trkpt><trkpt lat="37.7560168" lon="13.7176067"><ele>590.0</ele><time>2026-04-26T08:39:17.317Z</time></trkpt><trkpt lat="37.7557953" lon="13.7177087"><ele>594.5</ele><time>2026-04-26T08:39:18.317Z</time></trkpt><trkpt lat="37.7555699" lon="13.7178231"><ele>599.0</ele><time>2026-04-26T08:39:19.317Z</time></trkpt><trkpt lat="37.7553402" lon="13.717946"><ele>595.0</ele><time>2026-04-26T08:39:20.317Z</time></trkpt><trkpt lat="37.755113" lon="13.7180637"><ele>591.0</ele><time>2026-04-26T08:39:21.317Z</time></trkpt><trkpt lat="37.7548997" lon="13.7181867"><ele>591.0</ele><time>2026-04-26T08:39:22.317Z</time></trkpt><trkpt lat="37.7547029" lon="13.7183071"><ele>591.0</ele><time>2026-04-26T08:39:23.317Z</time></trkpt><trkpt lat="37.7545107" lon="13.7184272"><ele>591.0</ele><time>2026-04-26T08:39:24.316Z</time></trkpt><trkpt lat="37.7543148" lon="13.7185499"><ele>591.0</ele><time>2026-04-26T08:39:25.317Z</time></trkpt><trkpt lat="37.7541161" lon="13.7186834"><ele>591.0</ele><time>2026-04-26T08:39:26.317Z</time></trkpt><trkpt lat="37.7539193" lon="13.7188276"><ele>591.0</ele><time>2026-04-26T08:39:27.317Z</time></trkpt><trkpt lat="37.7537348" lon="13.7189667"><ele>591.0</ele><time>2026-04-26T08:39:28.317Z</time></trkpt><trkpt lat="37.7535569" lon="13.7190976"><ele>591.0</ele><time>2026-04-26T08:39:29.317Z</time></trkpt><trkpt lat="37.7533871" lon="13.7192207"><ele>588.3333333333334</ele><time>2026-04-26T08:39:30.317Z</time></trkpt><trkpt lat="37.7532371" lon="13.7193344"><ele>585.6666666666667</ele><time>2026-04-26T08:39:31.317Z</time></trkpt><trkpt lat="37.7531009" lon="13.7194385"><ele>583.0</ele><time>2026-04-26T08:39:32.317Z</time></trkpt><trkpt lat="37.7529828" lon="13.7195585"><ele>583.0</ele><time>2026-04-26T08:39:33.317Z</time></trkpt><trkpt lat="37.7528895" lon="13.7197115"><ele>583.0</ele><time>2026-04-26T08:39:34.317Z</time></trkpt><trkpt lat="37.752838" lon="13.7198824"><ele>583.0</ele><time>2026-04-26T08:39:35.316Z</time></trkpt><trkpt lat="37.7528202" lon="13.7200722"><ele>583.0</ele><time>2026-04-26T08:39:36.317Z</time></trkpt><trkpt lat="37.7528463" lon="13.7202811"><ele>582.3333333333334</ele><time>2026-04-26T08:39:37.317Z</time></trkpt><trkpt lat="37.7529205" lon="13.72049"><ele>581.6666666666666</ele><time>2026-04-26T08:39:38.317Z</time></trkpt><trkpt lat="37.7530221" lon="13.7206879"><ele>581.0</ele><time>2026-04-26T08:39:39.316Z</time></trkpt><trkpt lat="37.7531127" lon="13.7208855"><ele>580.0</ele><time>2026-04-26T08:39:40.317Z</time></trkpt><trkpt lat="37.7531915" lon="13.7210734"><ele>579.0</ele><time>2026-04-26T08:39:41.316Z</time></trkpt><trkpt lat="37.7532361" lon="13.7212514"><ele>578.0</ele><time>2026-04-26T08:39:42.317Z</time></trkpt><trkpt lat="37.7532603" lon="13.7214285"><ele>578.0</ele><time>2026-04-26T08:39:43.316Z</time></trkpt><trkpt lat="37.7532467" lon="13.7215962"><ele>578.0</ele><time>2026-04-26T08:39:44.317Z</time></trkpt><trkpt lat="37.7532067" lon="13.7217466"><ele>578.0</ele><time>2026-04-26T08:39:45.317Z</time></trkpt><trkpt lat="37.7531301" lon="13.7218766"><ele>578.0</ele><time>2026-04-26T08:39:46.317Z</time></trkpt><trkpt lat="37.7530282" lon="13.7220062"><ele>578.6666666666666</ele><time>2026-04-26T08:39:47.317Z</time></trkpt><trkpt lat="37.752916" lon="13.7221437"><ele>579.3333333333334</ele><time>2026-04-26T08:39:48.317Z</time></trkpt><trkpt lat="37.7528236" lon="13.7223074"><ele>580.0</ele><time>2026-04-26T08:39:49.317Z</time></trkpt><trkpt lat="37.7527718" lon="13.7224936"><ele>580.0</ele><time>2026-04-26T08:39:50.317Z</time></trkpt><trkpt lat="37.7527574" lon="13.7227022"><ele>580.0</ele><time>2026-04-26T08:39:51.317Z</time></trkpt><trkpt lat="37.7527775" lon="13.7229171"><ele>580.0</ele><time>2026-04-26T08:39:52.317Z</time></trkpt><trkpt lat="37.7528091" lon="13.7231519"><ele>578.6666666666667</ele><time>2026-04-26T08:39:53.317Z</time></trkpt><trkpt lat="37.7528482" lon="13.7233973"><ele>577.3333333333334</ele><time>2026-04-26T08:39:54.317Z</time></trkpt><trkpt lat="37.7528844" lon="13.7236424"><ele>576.0</ele><time>2026-04-26T08:39:55.317Z</time></trkpt><trkpt lat="37.7529185" lon="13.7238638"><ele>575.6666666666666</ele><time>2026-04-26T08:39:56.317Z</time></trkpt><trkpt lat="37.7529408" lon="13.7240582"><ele>575.3333333333333</ele><time>2026-04-26T08:39:57.317Z</time></trkpt><trkpt lat="37.7529385" lon="13.7242491"><ele>575.0</ele><time>2026-04-26T08:39:58.317Z</time></trkpt><trkpt lat="37.7528978" lon="13.7244289"><ele>574.75</ele><time>2026-04-26T08:39:59.317Z</time></trkpt><trkpt lat="37.7528296" lon="13.7245871"><ele>574.5</ele><time>2026-04-26T08:40:00.317Z</time></trkpt><trkpt lat="37.7527277" lon="13.7247202"><ele>574.25</ele><time>2026-04-26T08:40:01.317Z</time></trkpt><trkpt lat="37.7526046" lon="13.7248347"><ele>574.0</ele><time>2026-04-26T08:40:02.317Z</time></trkpt><trkpt lat="37.7524558" lon="13.7249102"><ele>570.6666666666667</ele><time>2026-04-26T08:40:03.317Z</time></trkpt><trkpt lat="37.7522967" lon="13.7249302"><ele>567.3333333333334</ele><time>2026-04-26T08:40:04.317Z</time></trkpt><trkpt lat="37.7521415" lon="13.7249217"><ele>564.0</ele><time>2026-04-26T08:40:05.316Z</time></trkpt><trkpt lat="37.7520053" lon="13.7249184"><ele>564.0</ele><time>2026-04-26T08:40:06.316Z</time></trkpt><trkpt lat="37.7518857" lon="13.7249584"><ele>564.0</ele><time>2026-04-26T08:40:07.317Z</time></trkpt><trkpt lat="37.7517883" lon="13.7250515"><ele>564.0</ele><time>2026-04-26T08:40:08.317Z</time></trkpt><trkpt lat="37.7516965" lon="13.7252019"><ele>564.0</ele><time>2026-04-26T08:40:09.317Z</time></trkpt><trkpt lat="37.7516051" lon="13.7253824"><ele>563.3333333333334</ele><time>2026-04-26T08:40:10.317Z</time></trkpt><trkpt lat="37.7515145" lon="13.7255915"><ele>562.6666666666667</ele><time>2026-04-26T08:40:11.317Z</time></trkpt><trkpt lat="37.7514255" lon="13.725804"><ele>562.0</ele><time>2026-04-26T08:40:12.317Z</time></trkpt><trkpt lat="37.7513606" lon="13.7259976"><ele>561.0</ele><time>2026-04-26T08:40:13.317Z</time></trkpt><trkpt lat="37.7512925" lon="13.7261609"><ele>560.0</ele><time>2026-04-26T08:40:14.317Z</time></trkpt><trkpt lat="37.7512175" lon="13.7262841"><ele>559.0</ele><time>2026-04-26T08:40:15.317Z</time></trkpt><trkpt lat="37.7511169" lon="13.726369"><ele>558.0</ele><time>2026-04-26T08:40:16.317Z</time></trkpt><trkpt lat="37.7509728" lon="13.7264288"><ele>558.0</ele><time>2026-04-26T08:40:17.317Z</time></trkpt><trkpt lat="37.7508168" lon="13.7264869"><ele>558.0</ele><time>2026-04-26T08:40:18.317Z</time></trkpt><trkpt lat="37.7506654" lon="13.726535"><ele>558.0</ele><time>2026-04-26T08:40:19.317Z</time></trkpt><trkpt lat="37.7505365" lon="13.7266007"><ele>558.0</ele><time>2026-04-26T08:40:20.316Z</time></trkpt><trkpt lat="37.7504342" lon="13.7267019"><ele>558.0</ele><time>2026-04-26T08:40:21.317Z</time></trkpt><trkpt lat="37.7503642" lon="13.7268558"><ele>558.0</ele><time>2026-04-26T08:40:22.317Z</time></trkpt><trkpt lat="37.7502991" lon="13.7270598"><ele>558.0</ele><time>2026-04-26T08:40:23.317Z</time></trkpt><trkpt lat="37.7502357" lon="13.7272755"><ele>554.0</ele><time>2026-04-26T08:40:24.317Z</time></trkpt><trkpt lat="37.750201" lon="13.7274972"><ele>550.0</ele><time>2026-04-26T08:40:25.317Z</time></trkpt><trkpt lat="37.7501852" lon="13.7277323"><ele>546.0</ele><time>2026-04-26T08:40:26.317Z</time></trkpt><trkpt lat="37.7501862" lon="13.7279725"><ele>545.6666666666666</ele><time>2026-04-26T08:40:27.317Z</time></trkpt><trkpt lat="37.7501964" lon="13.7282217"><ele>545.3333333333333</ele><time>2026-04-26T08:40:28.317Z</time></trkpt><trkpt lat="37.7502046" lon="13.728474"><ele>545.0</ele><time>2026-04-26T08:40:29.317Z</time></trkpt><trkpt lat="37.7502126" lon="13.7287207"><ele>544.3333333333333</ele><time>2026-04-26T08:40:30.316Z</time></trkpt><trkpt lat="37.7502386" lon="13.7289848"><ele>543.6666666666666</ele><time>2026-04-26T08:40:31.317Z</time></trkpt><trkpt lat="37.7502811" lon="13.7292561"><ele>543.0</ele><time>2026-04-26T08:40:32.317Z</time></trkpt><trkpt lat="37.7503386" lon="13.7295377"><ele>543.0</ele><time>2026-04-26T08:40:33.317Z</time></trkpt><trkpt lat="37.750401" lon="13.7298185"><ele>543.0</ele><time>2026-04-26T08:40:34.317Z</time></trkpt><trkpt lat="37.7504577" lon="13.7300826"><ele>543.0</ele><time>2026-04-26T08:40:35.317Z</time></trkpt><trkpt lat="37.7505155" lon="13.7303414"><ele>541.0</ele><time>2026-04-26T08:40:36.317Z</time></trkpt><trkpt lat="37.7505888" lon="13.7305918"><ele>539.0</ele><time>2026-04-26T08:40:37.317Z</time></trkpt><trkpt lat="37.7506924" lon="13.7308283"><ele>537.0</ele><time>2026-04-26T08:40:38.316Z</time></trkpt><trkpt lat="37.7508171" lon="13.7310479"><ele>537.3333333333334</ele><time>2026-04-26T08:40:39.317Z</time></trkpt><trkpt lat="37.7509416" lon="13.7312401"><ele>537.6666666666667</ele><time>2026-04-26T08:40:40.317Z</time></trkpt><trkpt lat="37.7510519" lon="13.7314016"><ele>538.0</ele><time>2026-04-26T08:40:41.317Z</time></trkpt><trkpt lat="37.751135" lon="13.7315665"><ele>538.0</ele><time>2026-04-26T08:40:42.317Z</time></trkpt><trkpt lat="37.7511914" lon="13.7317457"><ele>538.0</ele><time>2026-04-26T08:40:43.316Z</time></trkpt><trkpt lat="37.7512216" lon="13.7319685"><ele>538.0</ele><time>2026-04-26T08:40:44.317Z</time></trkpt><trkpt lat="37.7512224" lon="13.7322117"><ele>538.0</ele><time>2026-04-26T08:40:45.317Z</time></trkpt><trkpt lat="37.7512063" lon="13.7324701"><ele>538.0</ele><time>2026-04-26T08:40:46.317Z</time></trkpt><trkpt lat="37.7511927" lon="13.7327478"><ele>538.0</ele><time>2026-04-26T08:40:47.317Z</time></trkpt><trkpt lat="37.7511863" lon="13.7330282"><ele>538.0</ele><time>2026-04-26T08:40:48.317Z</time></trkpt><trkpt lat="37.7511713" lon="13.7332836"><ele>538.0</ele><time>2026-04-26T08:40:49.317Z</time></trkpt><trkpt lat="37.7511399" lon="13.7335147"><ele>538.0</ele><time>2026-04-26T08:40:50.317Z</time></trkpt><trkpt lat="37.7510908" lon="13.7337307"><ele>537.0</ele><time>2026-04-26T08:40:51.317Z</time></trkpt><trkpt lat="37.7510071" lon="13.7339402"><ele>536.0</ele><time>2026-04-26T08:40:52.317Z</time></trkpt><trkpt lat="37.7508982" lon="13.7341415"><ele>535.0</ele><time>2026-04-26T08:40:53.317Z</time></trkpt><trkpt lat="37.7507582" lon="13.7343337"><ele>537.6666666666667</ele><time>2026-04-26T08:40:54.317Z</time></trkpt><trkpt lat="37.7506005" lon="13.7345117"><ele>540.3333333333334</ele><time>2026-04-26T08:40:55.317Z</time></trkpt><trkpt lat="37.7504268" lon="13.7346971"><ele>543.0</ele><time>2026-04-26T08:40:56.317Z</time></trkpt><trkpt lat="37.7502618" lon="13.7348947"><ele>544.0</ele><time>2026-04-26T08:40:57.317Z</time></trkpt><trkpt lat="37.7501047" lon="13.735115"><ele>545.0</ele><time>2026-04-26T08:40:58.316Z</time></trkpt><trkpt lat="37.7499496" lon="13.7353599"><ele>545.0</ele><time>2026-04-26T08:40:59.317Z</time></trkpt><trkpt lat="37.7498022" lon="13.735625"><ele>545.0</ele><time>2026-04-26T08:41:00.316Z</time></trkpt><trkpt lat="37.7496602" lon="13.7358967"><ele>547.5</ele><time>2026-04-26T08:41:01.317Z</time></trkpt><trkpt lat="37.7495183" lon="13.7361524"><ele>550.0</ele><time>2026-04-26T08:41:02.317Z</time></trkpt><trkpt lat="37.7493842" lon="13.7363955"><ele>550.3333333333334</ele><time>2026-04-26T08:41:03.317Z</time></trkpt><trkpt lat="37.7492578" lon="13.736614"><ele>550.6666666666666</ele><time>2026-04-26T08:41:04.317Z</time></trkpt><trkpt lat="37.7491386" lon="13.7368105"><ele>551.0</ele><time>2026-04-26T08:41:05.317Z</time></trkpt><trkpt lat="37.7490104" lon="13.7369942"><ele>551.3333333333333</ele><time>2026-04-26T08:41:06.317Z</time></trkpt><trkpt lat="37.748869" lon="13.737161"><ele>551.6666666666666</ele><time>2026-04-26T08:41:07.317Z</time></trkpt><trkpt lat="37.7487048" lon="13.7373357"><ele>552.0</ele><time>2026-04-26T08:41:08.317Z</time></trkpt><trkpt lat="37.7485312" lon="13.7375174"><ele>552.0</ele><time>2026-04-26T08:41:09.317Z</time></trkpt><trkpt lat="37.7483586" lon="13.7377296"><ele>552.0</ele><time>2026-04-26T08:41:10.317Z</time></trkpt><trkpt lat="37.7481912" lon="13.7379629"><ele>552.0</ele><time>2026-04-26T08:41:11.317Z</time></trkpt><trkpt lat="37.7480412" lon="13.7381897"><ele>552.0</ele><time>2026-04-26T08:41:12.317Z</time></trkpt><trkpt lat="37.7478977" lon="13.7384075"><ele>550.5</ele><time>2026-04-26T08:41:13.317Z</time></trkpt><trkpt lat="37.747758" lon="13.7386305"><ele>549.0</ele><time>2026-04-26T08:41:14.317Z</time></trkpt><trkpt lat="37.7476189" lon="13.7388596"><ele>549.0</ele><time>2026-04-26T08:41:15.317Z</time></trkpt><trkpt lat="37.7474808" lon="13.7391009"><ele>549.0</ele><time>2026-04-26T08:41:16.317Z</time></trkpt><trkpt lat="37.7473424" lon="13.739354"><ele>550.0</ele><time>2026-04-26T08:41:17.316Z</time></trkpt><trkpt lat="37.7471937" lon="13.7396215"><ele>551.0</ele><time>2026-04-26T08:41:18.317Z</time></trkpt><trkpt lat="37.7470412" lon="13.7399008"><ele>551.0</ele><time>2026-04-26T08:41:19.317Z</time></trkpt><trkpt lat="37.7468893" lon="13.740185"><ele>551.0</ele><time>2026-04-26T08:41:20.317Z</time></trkpt><trkpt lat="37.7467421" lon="13.740452"><ele>545.5</ele><time>2026-04-26T08:41:21.317Z</time></trkpt><trkpt lat="37.7466048" lon="13.7407018"><ele>540.0</ele><time>2026-04-26T08:41:22.317Z</time></trkpt><trkpt lat="37.7464745" lon="13.7409269"><ele>540.0</ele><time>2026-04-26T08:41:23.317Z</time></trkpt><trkpt lat="37.7463363" lon="13.7411257"><ele>540.0</ele><time>2026-04-26T08:41:24.316Z</time></trkpt><trkpt lat="37.7461774" lon="13.7412983"><ele>540.0</ele><time>2026-04-26T08:41:25.317Z</time></trkpt><trkpt lat="37.7460116" lon="13.7414491"><ele>540.0</ele><time>2026-04-26T08:41:26.317Z</time></trkpt><trkpt lat="37.7458539" lon="13.7415423"><ele>540.0</ele><time>2026-04-26T08:41:27.316Z</time></trkpt><trkpt lat="37.7457001" lon="13.7415843"><ele>540.0</ele><time>2026-04-26T08:41:28.317Z</time></trkpt><trkpt lat="37.7455244" lon="13.7416025"><ele>540.0</ele><time>2026-04-26T08:41:29.317Z</time></trkpt><trkpt lat="37.7453411" lon="13.741635"><ele>540.0</ele><time>2026-04-26T08:41:30.317Z</time></trkpt><trkpt lat="37.7451321" lon="13.7417076"><ele>540.0</ele><time>2026-04-26T08:41:31.317Z</time></trkpt><trkpt lat="37.7449733" lon="13.7417687"><ele>539.6666666666666</ele><time>2026-04-26T08:41:32.317Z</time></trkpt><trkpt lat="37.7448335" lon="13.7418666"><ele>539.3333333333333</ele><time>2026-04-26T08:41:33.317Z</time></trkpt><trkpt lat="37.7447096" lon="13.742022"><ele>539.0</ele><time>2026-04-26T08:41:34.317Z</time></trkpt><trkpt lat="37.7446137" lon="13.7422159"><ele>542.0</ele><time>2026-04-26T08:41:35.317Z</time></trkpt><trkpt lat="37.7445081" lon="13.7424261"><ele>545.0</ele><time>2026-04-26T08:41:36.317Z</time></trkpt><trkpt lat="37.7443943" lon="13.7426173"><ele>548.0</ele><time>2026-04-26T08:41:37.317Z</time></trkpt><trkpt lat="37.7442602" lon="13.7427657"><ele>548.0</ele><time>2026-04-26T08:41:38.317Z</time></trkpt><trkpt lat="37.7441103" lon="13.7428692"><ele>548.0</ele><time>2026-04-26T08:41:39.317Z</time></trkpt><trkpt lat="37.7439308" lon="13.7429498"><ele>548.0</ele><time>2026-04-26T08:41:40.317Z</time></trkpt><trkpt lat="37.7437192" lon="13.7430031"><ele>550.0</ele><time>2026-04-26T08:41:41.317Z</time></trkpt><trkpt lat="37.743496" lon="13.7429745"><ele>552.0</ele><time>2026-04-26T08:41:42.317Z</time></trkpt><trkpt lat="37.7432507" lon="13.7429892"><ele>552.0</ele><time>2026-04-26T08:41:43.317Z</time></trkpt><trkpt lat="37.7429763" lon="13.7429965"><ele>552.0</ele><time>2026-04-26T08:41:44.317Z</time></trkpt><trkpt lat="37.7427313" lon="13.7430242"><ele>552.0</ele><time>2026-04-26T08:41:45.317Z</time></trkpt><trkpt lat="37.7425181" lon="13.7430661"><ele>552.0</ele><time>2026-04-26T08:41:46.317Z</time></trkpt><trkpt lat="37.7423213" lon="13.7431248"><ele>552.0</ele><time>2026-04-26T08:41:47.317Z</time></trkpt><trkpt lat="37.7421574" lon="13.7432227"><ele>552.0</ele><time>2026-04-26T08:41:48.317Z</time></trkpt><trkpt lat="37.7420092" lon="13.743359"><ele>552.0</ele><time>2026-04-26T08:41:49.317Z</time></trkpt><trkpt lat="37.7418618" lon="13.7435568"><ele>552.0</ele><time>2026-04-26T08:41:50.317Z</time></trkpt><trkpt lat="37.7417329" lon="13.743761"><ele>553.3333333333334</ele><time>2026-04-26T08:41:51.317Z</time></trkpt><trkpt lat="37.7416109" lon="13.7439486"><ele>554.6666666666667</ele><time>2026-04-26T08:41:52.317Z</time></trkpt><trkpt lat="37.7414841" lon="13.7441046"><ele>556.0</ele><time>2026-04-26T08:41:53.317Z</time></trkpt><trkpt lat="37.7413302" lon="13.7442217"><ele>556.0</ele><time>2026-04-26T08:41:54.317Z</time></trkpt><trkpt lat="37.7411479" lon="13.7442788"><ele>556.0</ele><time>2026-04-26T08:41:55.316Z</time></trkpt><trkpt lat="37.7409433" lon="13.7442952"><ele>556.0</ele><time>2026-04-26T08:41:56.317Z</time></trkpt><trkpt lat="37.7407152" lon="13.7442609"><ele>555.0</ele><time>2026-04-26T08:41:57.316Z</time></trkpt><trkpt lat="37.7404495" lon="13.7442244"><ele>554.0</ele><time>2026-04-26T08:41:58.317Z</time></trkpt><trkpt lat="37.7401675" lon="13.7441803"><ele>554.0</ele><time>2026-04-26T08:41:59.317Z</time></trkpt><trkpt lat="37.7398886" lon="13.7441479"><ele>554.0</ele><time>2026-04-26T08:42:00.317Z</time></trkpt><trkpt lat="37.7396296" lon="13.744111"><ele>554.0</ele><time>2026-04-26T08:42:01.317Z</time></trkpt><trkpt lat="37.7394026" lon="13.7440834"><ele>554.0</ele><time>2026-04-26T08:42:02.317Z</time></trkpt><trkpt lat="37.7391791" lon="13.7440982"><ele>555.5</ele><time>2026-04-26T08:42:03.317Z</time></trkpt><trkpt lat="37.7389466" lon="13.7441609"><ele>557.0</ele><time>2026-04-26T08:42:04.316Z</time></trkpt><trkpt lat="37.7386958" lon="13.744266"><ele>559.5</ele><time>2026-04-26T08:42:05.317Z</time></trkpt><trkpt lat="37.7384372" lon="13.7443836"><ele>562.0</ele><time>2026-04-26T08:42:06.317Z</time></trkpt><trkpt lat="37.7381753" lon="13.7444925"><ele>562.0</ele><time>2026-04-26T08:42:07.317Z</time></trkpt><trkpt lat="37.7379289" lon="13.744587"><ele>562.0</ele><time>2026-04-26T08:42:08.317Z</time></trkpt><trkpt lat="37.7377106" lon="13.7446555"><ele>563.3333333333334</ele><time>2026-04-26T08:42:09.317Z</time></trkpt><trkpt lat="37.7375127" lon="13.7447106"><ele>564.6666666666666</ele><time>2026-04-26T08:42:10.317Z</time></trkpt><trkpt lat="37.7373218" lon="13.7447577"><ele>566.0</ele><time>2026-04-26T08:42:11.317Z</time></trkpt><trkpt lat="37.7371357" lon="13.744804"><ele>566.0</ele><time>2026-04-26T08:42:12.317Z</time></trkpt><trkpt lat="37.7369537" lon="13.7448775"><ele>566.0</ele><time>2026-04-26T08:42:13.316Z</time></trkpt><trkpt lat="37.7367836" lon="13.7449834"><ele>566.0</ele><time>2026-04-26T08:42:14.317Z</time></trkpt><trkpt lat="37.7366262" lon="13.7451228"><ele>566.0</ele><time>2026-04-26T08:42:15.317Z</time></trkpt><trkpt lat="37.7364903" lon="13.7452787"><ele>566.0</ele><time>2026-04-26T08:42:16.317Z</time></trkpt><trkpt lat="37.7363809" lon="13.7454413"><ele>566.0</ele><time>2026-04-26T08:42:17.317Z</time></trkpt><trkpt lat="37.7363119" lon="13.7456265"><ele>566.0</ele><time>2026-04-26T08:42:18.317Z</time></trkpt><trkpt lat="37.7362689" lon="13.7458444"><ele>566.0</ele><time>2026-04-26T08:42:19.317Z</time></trkpt><trkpt lat="37.7362288" lon="13.7460963"><ele>566.0</ele><time>2026-04-26T08:42:20.317Z</time></trkpt><trkpt lat="37.7361676" lon="13.7463383"><ele>566.3333333333333</ele><time>2026-04-26T08:42:21.317Z</time></trkpt><trkpt lat="37.73609" lon="13.7465667"><ele>566.6666666666666</ele><time>2026-04-26T08:42:22.317Z</time></trkpt><trkpt lat="37.7359887" lon="13.7467804"><ele>567.0</ele><time>2026-04-26T08:42:23.317Z</time></trkpt><trkpt lat="37.7358578" lon="13.7469808"><ele>565.6666666666666</ele><time>2026-04-26T08:42:24.317Z</time></trkpt><trkpt lat="37.7357095" lon="13.7471797"><ele>564.3333333333333</ele><time>2026-04-26T08:42:25.317Z</time></trkpt><trkpt lat="37.7355521" lon="13.7473704"><ele>563.0</ele><time>2026-04-26T08:42:26.317Z</time></trkpt><trkpt lat="37.7354042" lon="13.7475306"><ele>563.0</ele><time>2026-04-26T08:42:27.317Z</time></trkpt><trkpt lat="37.7352601" lon="13.7476652"><ele>563.0</ele><time>2026-04-26T08:42:28.316Z</time></trkpt><trkpt lat="37.7350906" lon="13.7477566"><ele>563.0</ele><time>2026-04-26T08:42:29.317Z</time></trkpt><trkpt lat="37.7348959" lon="13.7478301"><ele>561.3333333333333</ele><time>2026-04-26T08:42:30.317Z</time></trkpt><trkpt lat="37.7346943" lon="13.7478823"><ele>559.6666666666666</ele><time>2026-04-26T08:42:31.317Z</time></trkpt><trkpt lat="37.7345122" lon="13.7479366"><ele>558.0</ele><time>2026-04-26T08:42:32.317Z</time></trkpt><trkpt lat="37.734351" lon="13.747997"><ele>556.0</ele><time>2026-04-26T08:42:33.317Z</time></trkpt><trkpt lat="37.7342037" lon="13.7480654"><ele>554.0</ele><time>2026-04-26T08:42:34.317Z</time></trkpt><trkpt lat="37.7340716" lon="13.7481821"><ele>552.0</ele><time>2026-04-26T08:42:35.317Z</time></trkpt><trkpt lat="37.7339361" lon="13.7483546"><ele>553.3333333333334</ele><time>2026-04-26T08:42:36.317Z</time></trkpt><trkpt lat="37.7337935" lon="13.7485531"><ele>554.6666666666667</ele><time>2026-04-26T08:42:37.317Z</time></trkpt><trkpt lat="37.7336395" lon="13.7487695"><ele>556.0</ele><time>2026-04-26T08:42:38.317Z</time></trkpt><trkpt lat="37.7334613" lon="13.7489903"><ele>549.5</ele><time>2026-04-26T08:42:39.316Z</time></trkpt><trkpt lat="37.7332613" lon="13.7492109"><ele>543.0</ele><time>2026-04-26T08:42:40.317Z</time></trkpt><trkpt lat="37.7330552" lon="13.7494179"><ele>543.0</ele><time>2026-04-26T08:42:41.317Z</time></trkpt><trkpt lat="37.7328492" lon="13.7496067"><ele>543.0</ele><time>2026-04-26T08:42:42.317Z</time></trkpt><trkpt lat="37.7326354" lon="13.7497843"><ele>540.0</ele><time>2026-04-26T08:42:43.317Z</time></trkpt><trkpt lat="37.7324154" lon="13.7499403"><ele>537.0</ele><time>2026-04-26T08:42:44.317Z</time></trkpt><trkpt lat="37.7321892" lon="13.7500763"><ele>537.0</ele><time>2026-04-26T08:42:45.317Z</time></trkpt><trkpt lat="37.7319461" lon="13.7502032"><ele>537.0</ele><time>2026-04-26T08:42:46.317Z</time></trkpt><trkpt lat="37.7316895" lon="13.7503335"><ele>535.0</ele><time>2026-04-26T08:42:47.317Z</time></trkpt><trkpt lat="37.7314317" lon="13.7504638"><ele>533.0</ele><time>2026-04-26T08:42:48.317Z</time></trkpt><trkpt lat="37.7311718" lon="13.7505993"><ele>531.0</ele><time>2026-04-26T08:42:49.316Z</time></trkpt><trkpt lat="37.730917" lon="13.7507291"><ele>529.0</ele><time>2026-04-26T08:42:50.317Z</time></trkpt><trkpt lat="37.7306657" lon="13.7508564"><ele>529.0</ele><time>2026-04-26T08:42:51.317Z</time></trkpt><trkpt lat="37.7304163" lon="13.7509832"><ele>529.0</ele><time>2026-04-26T08:42:52.317Z</time></trkpt><trkpt lat="37.730167" lon="13.7511093"><ele>528.5</ele><time>2026-04-26T08:42:53.316Z</time></trkpt><trkpt lat="37.729921" lon="13.7512338"><ele>528.0</ele><time>2026-04-26T08:42:54.317Z</time></trkpt><trkpt lat="37.7296858" lon="13.7513554"><ele>528.0</ele><time>2026-04-26T08:42:55.317Z</time></trkpt><trkpt lat="37.7294621" lon="13.7514612"><ele>528.0</ele><time>2026-04-26T08:42:56.316Z</time></trkpt><trkpt lat="37.7292576" lon="13.7514922"><ele>528.0</ele><time>2026-04-26T08:42:57.317Z</time></trkpt><trkpt lat="37.7290425" lon="13.7515647"><ele>527.0</ele><time>2026-04-26T08:42:58.316Z</time></trkpt><trkpt lat="37.7288238" lon="13.751631"><ele>526.0</ele><time>2026-04-26T08:42:59.317Z</time></trkpt><trkpt lat="37.7286027" lon="13.7516616"><ele>525.0</ele><time>2026-04-26T08:43:00.317Z</time></trkpt><trkpt lat="37.7283762" lon="13.7516594"><ele>524.5</ele><time>2026-04-26T08:43:01.317Z</time></trkpt><trkpt lat="37.7281355" lon="13.7516362"><ele>524.0</ele><time>2026-04-26T08:43:02.317Z</time></trkpt><trkpt lat="37.7278979" lon="13.7516048"><ele>522.5</ele><time>2026-04-26T08:43:03.317Z</time></trkpt><trkpt lat="37.727662" lon="13.7515828"><ele>521.0</ele><time>2026-04-26T08:43:04.317Z</time></trkpt><trkpt lat="37.727422" lon="13.7516017"><ele>521.0</ele><time>2026-04-26T08:43:05.317Z</time></trkpt><trkpt lat="37.7271995" lon="13.7516298"><ele>521.0</ele><time>2026-04-26T08:43:06.317Z</time></trkpt><trkpt lat="37.7270031" lon="13.7516748"><ele>521.0</ele><time>2026-04-26T08:43:07.317Z</time></trkpt><trkpt lat="37.7268151" lon="13.7517629"><ele>521.5</ele><time>2026-04-26T08:43:08.317Z</time></trkpt><trkpt lat="37.7266243" lon="13.7518962"><ele>522.0</ele><time>2026-04-26T08:43:09.317Z</time></trkpt><trkpt lat="37.7264155" lon="13.7520646"><ele>522.0</ele><time>2026-04-26T08:43:10.316Z</time></trkpt><trkpt lat="37.726182" lon="13.7522422"><ele>522.0</ele><time>2026-04-26T08:43:11.317Z</time></trkpt><trkpt lat="37.7259519" lon="13.7524599"><ele>519.0</ele><time>2026-04-26T08:43:12.317Z</time></trkpt><trkpt lat="37.7257342" lon="13.7525967"><ele>516.0</ele><time>2026-04-26T08:43:13.317Z</time></trkpt><trkpt lat="37.725543" lon="13.7527029"><ele>515.3333333333334</ele><time>2026-04-26T08:43:14.317Z</time></trkpt><trkpt lat="37.7253764" lon="13.7528262"><ele>514.6666666666667</ele><time>2026-04-26T08:43:15.316Z</time></trkpt><trkpt lat="37.7252183" lon="13.7529983"><ele>514.0</ele><time>2026-04-26T08:43:16.317Z</time></trkpt><trkpt lat="37.7250511" lon="13.7532309"><ele>514.0</ele><time>2026-04-26T08:43:17.317Z</time></trkpt><trkpt lat="37.7248787" lon="13.753497"><ele>514.0</ele><time>2026-04-26T08:43:18.317Z</time></trkpt><trkpt lat="37.7246845" lon="13.7537742"><ele>513.0</ele><time>2026-04-26T08:43:19.317Z</time></trkpt><trkpt lat="37.7244906" lon="13.7540435"><ele>512.0</ele><time>2026-04-26T08:43:20.317Z</time></trkpt><trkpt lat="37.7243077" lon="13.7542961"><ele>512.0</ele><time>2026-04-26T08:43:21.316Z</time></trkpt><trkpt lat="37.7241437" lon="13.7545446"><ele>512.0</ele><time>2026-04-26T08:43:22.316Z</time></trkpt><trkpt lat="37.7239977" lon="13.7548067"><ele>512.0</ele><time>2026-04-26T08:43:23.317Z</time></trkpt><trkpt lat="37.7238551" lon="13.7550874"><ele>512.0</ele><time>2026-04-26T08:43:24.317Z</time></trkpt><trkpt lat="37.7236945" lon="13.7553653"><ele>515.0</ele><time>2026-04-26T08:43:25.317Z</time></trkpt><trkpt lat="37.7235164" lon="13.755619"><ele>518.0</ele><time>2026-04-26T08:43:26.317Z</time></trkpt><trkpt lat="37.7233315" lon="13.7558484"><ele>518.5</ele><time>2026-04-26T08:43:27.317Z</time></trkpt><trkpt lat="37.723153" lon="13.756047"><ele>519.0</ele><time>2026-04-26T08:43:28.317Z</time></trkpt><trkpt lat="37.7229821" lon="13.7562143"><ele>519.0</ele><time>2026-04-26T08:43:29.316Z</time></trkpt><trkpt lat="37.7228003" lon="13.7563484"><ele>519.0</ele><time>2026-04-26T08:43:30.316Z</time></trkpt><trkpt lat="37.7225949" lon="13.756469"><ele>519.0</ele><time>2026-04-26T08:43:31.317Z</time></trkpt><trkpt lat="37.722365" lon="13.756575"><ele>520.5</ele><time>2026-04-26T08:43:32.317Z</time></trkpt><trkpt lat="37.7221161" lon="13.7566856"><ele>522.0</ele><time>2026-04-26T08:43:33.317Z</time></trkpt><trkpt lat="37.7218502" lon="13.7567991"><ele>523.5</ele><time>2026-04-26T08:43:34.317Z</time></trkpt><trkpt lat="37.7215695" lon="13.7569288"><ele>525.0</ele><time>2026-04-26T08:43:35.317Z</time></trkpt><trkpt lat="37.7212853" lon="13.7570768"><ele>528.5</ele><time>2026-04-26T08:43:36.317Z</time></trkpt><trkpt lat="37.7210019" lon="13.7572478"><ele>532.0</ele><time>2026-04-26T08:43:37.317Z</time></trkpt><trkpt lat="37.720719" lon="13.7574313"><ele>532.0</ele><time>2026-04-26T08:43:38.316Z</time></trkpt><trkpt lat="37.7204464" lon="13.7576124"><ele>532.0</ele><time>2026-04-26T08:43:39.317Z</time></trkpt><trkpt lat="37.720198" lon="13.7577839"><ele>537.5</ele><time>2026-04-26T08:43:40.317Z</time></trkpt><trkpt lat="37.719973" lon="13.7579497"><ele>543.0</ele><time>2026-04-26T08:43:41.317Z</time></trkpt><trkpt lat="37.7197681" lon="13.7581181"><ele>543.0</ele><time>2026-04-26T08:43:42.317Z</time></trkpt><trkpt lat="37.7195857" lon="13.7582952"><ele>543.0</ele><time>2026-04-26T08:43:43.317Z</time></trkpt><trkpt lat="37.7194192" lon="13.7584755"><ele>543.0</ele><time>2026-04-26T08:43:44.317Z</time></trkpt><trkpt lat="37.7192507" lon="13.7586423"><ele>543.6666666666666</ele><time>2026-04-26T08:43:45.317Z</time></trkpt><trkpt lat="37.7190702" lon="13.7587899"><ele>544.3333333333333</ele><time>2026-04-26T08:43:46.317Z</time></trkpt><trkpt lat="37.7188933" lon="13.7589058"><ele>545.0</ele><time>2026-04-26T08:43:47.317Z</time></trkpt><trkpt lat="37.7187258" lon="13.7589703"><ele>544.0</ele><time>2026-04-26T08:43:48.317Z</time></trkpt><trkpt lat="37.7185507" lon="13.7589909"><ele>543.0</ele><time>2026-04-26T08:43:49.317Z</time></trkpt><trkpt lat="37.7183403" lon="13.7589845"><ele>542.0</ele><time>2026-04-26T08:43:50.317Z</time></trkpt><trkpt lat="37.7180928" lon="13.7589735"><ele>542.0</ele><time>2026-04-26T08:43:51.317Z</time></trkpt><trkpt lat="37.7178174" lon="13.7589614"><ele>542.0</ele><time>2026-04-26T08:43:52.316Z</time></trkpt><trkpt lat="37.7175308" lon="13.758957"><ele>538.5</ele><time>2026-04-26T08:43:53.317Z</time></trkpt><trkpt lat="37.7172408" lon="13.7589578"><ele>535.0</ele><time>2026-04-26T08:43:54.317Z</time></trkpt><trkpt lat="37.7169488" lon="13.7589597"><ele>532.5</ele><time>2026-04-26T08:43:55.316Z</time></trkpt><trkpt lat="37.7166679" lon="13.7589606"><ele>530.0</ele><time>2026-04-26T08:43:56.317Z</time></trkpt><trkpt lat="37.7163992" lon="13.7589616"><ele>530.0</ele><time>2026-04-26T08:43:57.317Z</time></trkpt><trkpt lat="37.7161441" lon="13.7589626"><ele>530.0</ele><time>2026-04-26T08:43:58.317Z</time></trkpt><trkpt lat="37.7159033" lon="13.7589607"><ele>527.6666666666666</ele><time>2026-04-26T08:43:59.317Z</time></trkpt><trkpt lat="37.7156818" lon="13.7589575"><ele>525.3333333333334</ele><time>2026-04-26T08:44:00.317Z</time></trkpt><trkpt lat="37.7154836" lon="13.7589509"><ele>523.0</ele><time>2026-04-26T08:44:01.317Z</time></trkpt><trkpt lat="37.7152956" lon="13.7589461"><ele>521.6666666666667</ele><time>2026-04-26T08:44:02.317Z</time></trkpt><trkpt lat="37.7151157" lon="13.7589448"><ele>520.3333333333334</ele><time>2026-04-26T08:44:03.317Z</time></trkpt><trkpt lat="37.7149395" lon="13.7589508"><ele>519.0</ele><time>2026-04-26T08:44:04.317Z</time></trkpt><trkpt lat="37.7147715" lon="13.7589794"><ele>519.0</ele><time>2026-04-26T08:44:05.317Z</time></trkpt><trkpt lat="37.7146043" lon="13.7590297"><ele>519.0</ele><time>2026-04-26T08:44:06.317Z</time></trkpt><trkpt lat="37.7144448" lon="13.7590886"><ele>519.0</ele><time>2026-04-26T08:44:07.317Z</time></trkpt><trkpt lat="37.7143112" lon="13.759161"><ele>517.6666666666666</ele><time>2026-04-26T08:44:08.317Z</time></trkpt><trkpt lat="37.7141967" lon="13.7592653"><ele>516.3333333333333</ele><time>2026-04-26T08:44:09.317Z</time></trkpt><trkpt lat="37.7140937" lon="13.7594125"><ele>515.0</ele><time>2026-04-26T08:44:10.317Z</time></trkpt><trkpt lat="37.7140088" lon="13.7596014"><ele>514.0</ele><time>2026-04-26T08:44:11.317Z</time></trkpt><trkpt lat="37.7139341" lon="13.7598367"><ele>513.0</ele><time>2026-04-26T08:44:12.317Z</time></trkpt><trkpt lat="37.7138567" lon="13.7601018"><ele>512.0</ele><time>2026-04-26T08:44:13.317Z</time></trkpt><trkpt lat="37.7137731" lon="13.7603755"><ele>511.3333333333333</ele><time>2026-04-26T08:44:14.317Z</time></trkpt><trkpt lat="37.7136886" lon="13.7606414"><ele>510.66666666666663</ele><time>2026-04-26T08:44:15.317Z</time></trkpt><trkpt lat="37.7136109" lon="13.7608916"><ele>510.0</ele><time>2026-04-26T08:44:16.317Z</time></trkpt><trkpt lat="37.713543" lon="13.7611302"><ele>510.0</ele><time>2026-04-26T08:44:17.316Z</time></trkpt><trkpt lat="37.7134899" lon="13.7613423"><ele>510.0</ele><time>2026-04-26T08:44:18.317Z</time></trkpt><trkpt lat="37.7134478" lon="13.7615409"><ele>510.0</ele><time>2026-04-26T08:44:19.317Z</time></trkpt><trkpt lat="37.7134218" lon="13.7617085"><ele>510.0</ele><time>2026-04-26T08:44:20.317Z</time></trkpt><trkpt lat="37.7134018" lon="13.7618602"><ele>510.0</ele><time>2026-04-26T08:44:21.317Z</time></trkpt><trkpt lat="37.7133765" lon="13.7620066"><ele>510.0</ele><time>2026-04-26T08:44:22.317Z</time></trkpt><trkpt lat="37.7133024" lon="13.7621686"><ele>510.0</ele><time>2026-04-26T08:44:23.317Z</time></trkpt><trkpt lat="37.7132515" lon="13.7623128"><ele>510.6</ele><time>2026-04-26T08:44:24.317Z</time></trkpt><trkpt lat="37.7132055" lon="13.7624434"><ele>511.2</ele><time>2026-04-26T08:44:25.317Z</time></trkpt><trkpt lat="37.7131576" lon="13.762571"><ele>511.79999999999995</ele><time>2026-04-26T08:44:26.317Z</time></trkpt><trkpt lat="37.7131076" lon="13.7626978"><ele>512.4</ele><time>2026-04-26T08:44:27.317Z</time></trkpt><trkpt lat="37.7130699" lon="13.7628209"><ele>513.0</ele><time>2026-04-26T08:44:28.317Z</time></trkpt><trkpt lat="37.7130515" lon="13.7629557"><ele>514.0</ele><time>2026-04-26T08:44:29.317Z</time></trkpt><trkpt lat="37.7130591" lon="13.7631096"><ele>515.0</ele><time>2026-04-26T08:44:30.317Z</time></trkpt><trkpt lat="37.713094" lon="13.7632867"><ele>516.0</ele><time>2026-04-26T08:44:31.317Z</time></trkpt><trkpt lat="37.7131405" lon="13.7634924"><ele>517.0</ele><time>2026-04-26T08:44:32.317Z</time></trkpt><trkpt lat="37.7131799" lon="13.7636905"><ele>518.0</ele><time>2026-04-26T08:44:33.317Z</time></trkpt><trkpt lat="37.7132054" lon="13.7638577"><ele>519.0</ele><time>2026-04-26T08:44:34.317Z</time></trkpt><trkpt lat="37.713215" lon="13.7640053"><ele>520.0</ele><time>2026-04-26T08:44:35.317Z</time></trkpt><trkpt lat="37.7132203" lon="13.7641525"><ele>521.0</ele><time>2026-04-26T08:44:36.317Z</time></trkpt><trkpt lat="37.7132275" lon="13.7643425"><ele>521.3333333333333</ele><time>2026-04-26T08:44:37.317Z</time></trkpt><trkpt lat="37.7132348" lon="13.7645593"><ele>521.6666666666666</ele><time>2026-04-26T08:44:38.317Z</time></trkpt><trkpt lat="37.7132164" lon="13.7647714"><ele>522.0</ele><time>2026-04-26T08:44:39.317Z</time></trkpt><trkpt lat="37.7131872" lon="13.7649676"><ele>522.0</ele><time>2026-04-26T08:44:40.317Z</time></trkpt><trkpt lat="37.7131706" lon="13.7651731"><ele>522.0</ele><time>2026-04-26T08:44:41.317Z</time></trkpt><trkpt lat="37.7131705" lon="13.765397"><ele>522.0</ele><time>2026-04-26T08:44:42.317Z</time></trkpt><trkpt lat="37.7131978" lon="13.7656215"><ele>522.6666666666666</ele><time>2026-04-26T08:44:43.317Z</time></trkpt><trkpt lat="37.7132565" lon="13.7658316"><ele>523.3333333333333</ele><time>2026-04-26T08:44:44.317Z</time></trkpt><trkpt lat="37.7133468" lon="13.7660235"><ele>524.0</ele><time>2026-04-26T08:44:45.317Z</time></trkpt><trkpt lat="37.7134682" lon="13.7661892"><ele>528.0</ele><time>2026-04-26T08:44:46.317Z</time></trkpt><trkpt lat="37.713611" lon="13.7663461"><ele>532.0</ele><time>2026-04-26T08:44:47.317Z</time></trkpt><trkpt lat="37.7137528" lon="13.7665163"><ele>536.0</ele><time>2026-04-26T08:44:48.317Z</time></trkpt><trkpt lat="37.7138716" lon="13.7666942"><ele>535.3333333333333</ele><time>2026-04-26T08:44:49.316Z</time></trkpt><trkpt lat="37.7139603" lon="13.7668811"><ele>534.6666666666666</ele><time>2026-04-26T08:44:50.317Z</time></trkpt><trkpt lat="37.7140239" lon="13.7670819"><ele>534.0</ele><time>2026-04-26T08:44:51.317Z</time></trkpt><trkpt lat="37.7140708" lon="13.7672854"><ele>534.0</ele><time>2026-04-26T08:44:52.317Z</time></trkpt><trkpt lat="37.7141015" lon="13.7674819"><ele>534.0</ele><time>2026-04-26T08:44:53.317Z</time></trkpt><trkpt lat="37.7141225" lon="13.7676677"><ele>534.0</ele><time>2026-04-26T08:44:54.317Z</time></trkpt><trkpt lat="37.7141263" lon="13.7678474"><ele>534.0</ele><time>2026-04-26T08:44:55.317Z</time></trkpt><trkpt lat="37.7141019" lon="13.7680217"><ele>535.0</ele><time>2026-04-26T08:44:56.317Z</time></trkpt><trkpt lat="37.7140544" lon="13.7681902"><ele>536.0</ele><time>2026-04-26T08:44:57.317Z</time></trkpt><trkpt lat="37.7139901" lon="13.7683574"><ele>537.0</ele><time>2026-04-26T08:44:58.317Z</time></trkpt><trkpt lat="37.7139202" lon="13.7685334"><ele>538.0</ele><time>2026-04-26T08:44:59.316Z</time></trkpt><trkpt lat="37.713843" lon="13.7687332"><ele>539.6666666666667</ele><time>2026-04-26T08:45:00.317Z</time></trkpt><trkpt lat="37.7137457" lon="13.7689634"><ele>541.3333333333334</ele><time>2026-04-26T08:45:01.317Z</time></trkpt><trkpt lat="37.7136226" lon="13.7692213"><ele>543.0</ele><time>2026-04-26T08:45:02.317Z</time></trkpt><trkpt lat="37.7134779" lon="13.7695006"><ele>544.0</ele><time>2026-04-26T08:45:03.317Z</time></trkpt><trkpt lat="37.7133247" lon="13.7697903"><ele>545.0</ele><time>2026-04-26T08:45:04.317Z</time></trkpt><trkpt lat="37.7131909" lon="13.770075"><ele>548.0</ele><time>2026-04-26T08:45:05.316Z</time></trkpt><trkpt lat="37.7130702" lon="13.7703496"><ele>551.0</ele><time>2026-04-26T08:45:06.317Z</time></trkpt><trkpt lat="37.7129696" lon="13.7706144"><ele>551.0</ele><time>2026-04-26T08:45:07.317Z</time></trkpt><trkpt lat="37.7129114" lon="13.7708883"><ele>551.0</ele><time>2026-04-26T08:45:08.317Z</time></trkpt><trkpt lat="37.71287" lon="13.7711823"><ele>553.5</ele><time>2026-04-26T08:45:09.317Z</time></trkpt><trkpt lat="37.7128351" lon="13.7715085"><ele>556.0</ele><time>2026-04-26T08:45:10.317Z</time></trkpt><trkpt lat="37.7127939" lon="13.7718375"><ele>559.0</ele><time>2026-04-26T08:45:11.317Z</time></trkpt><trkpt lat="37.7127535" lon="13.7721327"><ele>562.0</ele><time>2026-04-26T08:45:12.316Z</time></trkpt><trkpt lat="37.7127073" lon="13.7723985"><ele>556.0</ele><time>2026-04-26T08:45:13.317Z</time></trkpt><trkpt lat="37.7126759" lon="13.7726444"><ele>550.0</ele><time>2026-04-26T08:45:14.317Z</time></trkpt><trkpt lat="37.7126714" lon="13.7728781"><ele>544.0</ele><time>2026-04-26T08:45:15.316Z</time></trkpt><trkpt lat="37.7126894" lon="13.7730991"><ele>543.6666666666667</ele><time>2026-04-26T08:45:16.317Z</time></trkpt><trkpt lat="37.712737" lon="13.7733389"><ele>543.3333333333334</ele><time>2026-04-26T08:45:17.317Z</time></trkpt><trkpt lat="37.7128068" lon="13.773601"><ele>543.0</ele><time>2026-04-26T08:45:18.317Z</time></trkpt><trkpt lat="37.7128888" lon="13.7738645"><ele>545.0</ele><time>2026-04-26T08:45:19.317Z</time></trkpt><trkpt lat="37.7129682" lon="13.7741093"><ele>547.0</ele><time>2026-04-26T08:45:20.317Z</time></trkpt><trkpt lat="37.7130538" lon="13.7743418"><ele>549.0</ele><time>2026-04-26T08:45:21.317Z</time></trkpt><trkpt lat="37.7131636" lon="13.7745779"><ele>549.0</ele><time>2026-04-26T08:45:22.316Z</time></trkpt><trkpt lat="37.7132931" lon="13.7748212"><ele>549.0</ele><time>2026-04-26T08:45:23.317Z</time></trkpt><trkpt lat="37.7134411" lon="13.775055"><ele>554.0</ele><time>2026-04-26T08:45:24.316Z</time></trkpt><trkpt lat="37.7136035" lon="13.7752915"><ele>559.0</ele><time>2026-04-26T08:45:25.317Z</time></trkpt><trkpt lat="37.7137501" lon="13.7755176"><ele>559.0</ele><time>2026-04-26T08:45:26.317Z</time></trkpt><trkpt lat="37.7138853" lon="13.7757097"><ele>559.0</ele><time>2026-04-26T08:45:27.317Z</time></trkpt><trkpt lat="37.7140174" lon="13.7758809"><ele>559.0</ele><time>2026-04-26T08:45:28.316Z</time></trkpt><trkpt lat="37.7141161" lon="13.7760386"><ele>556.6666666666667</ele><time>2026-04-26T08:45:29.317Z</time></trkpt><trkpt lat="37.7141856" lon="13.7762107"><ele>554.3333333333334</ele><time>2026-04-26T08:45:30.317Z</time></trkpt><trkpt lat="37.7142291" lon="13.7764067"><ele>552.0</ele><time>2026-04-26T08:45:31.317Z</time></trkpt><trkpt lat="37.714257" lon="13.7766326"><ele>551.0</ele><time>2026-04-26T08:45:32.317Z</time></trkpt><trkpt lat="37.714296" lon="13.7768835"><ele>550.0</ele><time>2026-04-26T08:45:33.317Z</time></trkpt><trkpt lat="37.7143433" lon="13.7771285"><ele>549.0</ele><time>2026-04-26T08:45:34.317Z</time></trkpt><trkpt lat="37.7143676" lon="13.7773505"><ele>549.0</ele><time>2026-04-26T08:45:35.317Z</time></trkpt><trkpt lat="37.7143604" lon="13.7775491"><ele>549.0</ele><time>2026-04-26T08:45:36.317Z</time></trkpt><trkpt lat="37.714243" lon="13.7777389"><ele>549.0</ele><time>2026-04-26T08:45:37.317Z</time></trkpt><trkpt lat="37.7141364" lon="13.7779258"><ele>549.3333333333334</ele><time>2026-04-26T08:45:38.317Z</time></trkpt><trkpt lat="37.7140094" lon="13.7780987"><ele>549.6666666666667</ele><time>2026-04-26T08:45:39.317Z</time></trkpt><trkpt lat="37.7138757" lon="13.7782786"><ele>550.0</ele><time>2026-04-26T08:45:40.317Z</time></trkpt><trkpt lat="37.7137659" lon="13.7784945"><ele>550.0</ele><time>2026-04-26T08:45:41.317Z</time></trkpt><trkpt lat="37.713685" lon="13.7787436"><ele>550.0</ele><time>2026-04-26T08:45:42.317Z</time></trkpt><trkpt lat="37.7136228" lon="13.7790167"><ele>550.0</ele><time>2026-04-26T08:45:43.317Z</time></trkpt><trkpt lat="37.71357" lon="13.7793077"><ele>552.0</ele><time>2026-04-26T08:45:44.317Z</time></trkpt><trkpt lat="37.7135288" lon="13.7796092"><ele>554.0</ele><time>2026-04-26T08:45:45.316Z</time></trkpt><trkpt lat="37.7134883" lon="13.7799024"><ele>554.0</ele><time>2026-04-26T08:45:46.317Z</time></trkpt><trkpt lat="37.7134411" lon="13.780163"><ele>554.0</ele><time>2026-04-26T08:45:47.317Z</time></trkpt><trkpt lat="37.7133765" lon="13.7803967"><ele>554.0</ele><time>2026-04-26T08:45:48.317Z</time></trkpt><trkpt lat="37.7132873" lon="13.7806387"><ele>555.5</ele><time>2026-04-26T08:45:49.317Z</time></trkpt><trkpt lat="37.7131803" lon="13.7809001"><ele>557.0</ele><time>2026-04-26T08:45:50.317Z</time></trkpt><trkpt lat="37.7130526" lon="13.7811686"><ele>560.5</ele><time>2026-04-26T08:45:51.317Z</time></trkpt><trkpt lat="37.7129015" lon="13.7814277"><ele>564.0</ele><time>2026-04-26T08:45:52.316Z</time></trkpt><trkpt lat="37.7127436" lon="13.7816724"><ele>562.6666666666666</ele><time>2026-04-26T08:45:53.316Z</time></trkpt><trkpt lat="37.7125994" lon="13.781897"><ele>561.3333333333333</ele><time>2026-04-26T08:45:54.317Z</time></trkpt><trkpt lat="37.7124697" lon="13.7821047"><ele>560.0</ele><time>2026-04-26T08:45:55.317Z</time></trkpt><trkpt lat="37.7123438" lon="13.782312"><ele>560.0</ele><time>2026-04-26T08:45:56.317Z</time></trkpt><trkpt lat="37.7122127" lon="13.7825139"><ele>560.0</ele><time>2026-04-26T08:45:57.317Z</time></trkpt><trkpt lat="37.7120805" lon="13.7827075"><ele>560.0</ele><time>2026-04-26T08:45:58.317Z</time></trkpt><trkpt lat="37.7119431" lon="13.7828953"><ele>560.0</ele><time>2026-04-26T08:45:59.317Z</time></trkpt><trkpt lat="37.7118001" lon="13.7830724"><ele>560.0</ele><time>2026-04-26T08:46:00.317Z</time></trkpt><trkpt lat="37.7116597" lon="13.7832322"><ele>560.0</ele><time>2026-04-26T08:46:01.317Z</time></trkpt><trkpt lat="37.7115254" lon="13.7833852"><ele>563.0</ele><time>2026-04-26T08:46:02.317Z</time></trkpt><trkpt lat="37.7113985" lon="13.7835361"><ele>566.0</ele><time>2026-04-26T08:46:03.317Z</time></trkpt><trkpt lat="37.7112705" lon="13.783684"><ele>569.0</ele><time>2026-04-26T08:46:04.317Z</time></trkpt><trkpt lat="37.7111308" lon="13.783813"><ele>567.6666666666666</ele><time>2026-04-26T08:46:05.317Z</time></trkpt><trkpt lat="37.7109876" lon="13.7839212"><ele>566.3333333333334</ele><time>2026-04-26T08:46:06.317Z</time></trkpt><trkpt lat="37.710865" lon="13.784029"><ele>565.0</ele><time>2026-04-26T08:46:07.317Z</time></trkpt><trkpt lat="37.7107576" lon="13.7841527"><ele>565.0</ele><time>2026-04-26T08:46:08.317Z</time></trkpt><trkpt lat="37.7106801" lon="13.7843064"><ele>565.0</ele><time>2026-04-26T08:46:09.317Z</time></trkpt><trkpt lat="37.7106351" lon="13.7844723"><ele>565.0</ele><time>2026-04-26T08:46:10.317Z</time></trkpt><trkpt lat="37.7105998" lon="13.7846227"><ele>565.0</ele><time>2026-04-26T08:46:11.317Z</time></trkpt><trkpt lat="37.710537" lon="13.7847252"><ele>566.2</ele><time>2026-04-26T08:46:12.317Z</time></trkpt><trkpt lat="37.7104517" lon="13.7847783"><ele>567.4</ele><time>2026-04-26T08:46:13.317Z</time></trkpt><trkpt lat="37.7103523" lon="13.7847839"><ele>568.6</ele><time>2026-04-26T08:46:14.317Z</time></trkpt><trkpt lat="37.7102537" lon="13.7847452"><ele>569.8</ele><time>2026-04-26T08:46:15.317Z</time></trkpt><trkpt lat="37.7101859" lon="13.7846702"><ele>571.0</ele><time>2026-04-26T08:46:16.317Z</time></trkpt><trkpt lat="37.7101462" lon="13.7845771"><ele>571.3333333333334</ele><time>2026-04-26T08:46:17.317Z</time></trkpt><trkpt lat="37.710134" lon="13.7844764"><ele>571.6666666666667</ele><time>2026-04-26T08:46:18.317Z</time></trkpt><trkpt lat="37.7101406" lon="13.7843789"><ele>572.0</ele><time>2026-04-26T08:46:19.317Z</time></trkpt><trkpt lat="37.7101478" lon="13.784285"><ele>572.3333333333334</ele><time>2026-04-26T08:46:20.317Z</time></trkpt><trkpt lat="37.7101554" lon="13.7841933"><ele>572.6666666666666</ele><time>2026-04-26T08:46:21.317Z</time></trkpt><trkpt lat="37.7101571" lon="13.7841003"><ele>573.0</ele><time>2026-04-26T08:46:22.316Z</time></trkpt><trkpt lat="37.7101509" lon="13.7840072"><ele>572.1666666666666</ele><time>2026-04-26T08:46:23.317Z</time></trkpt><trkpt lat="37.7101302" lon="13.7839173"><ele>571.3333333333334</ele><time>2026-04-26T08:46:24.317Z</time></trkpt><trkpt lat="37.7100885" lon="13.7838376"><ele>570.5</ele><time>2026-04-26T08:46:25.317Z</time></trkpt><trkpt lat="37.7100223" lon="13.783769"><ele>569.6666666666667</ele><time>2026-04-26T08:46:26.317Z</time></trkpt><trkpt lat="37.7099361" lon="13.7837158"><ele>568.8333333333334</ele><time>2026-04-26T08:46:27.317Z</time></trkpt><trkpt lat="37.7098444" lon="13.7836873"><ele>568.0</ele><time>2026-04-26T08:46:28.317Z</time></trkpt><trkpt lat="37.7097502" lon="13.7836782"><ele>568.0</ele><time>2026-04-26T08:46:29.317Z</time></trkpt><trkpt lat="37.7096419" lon="13.7836962"><ele>568.0</ele><time>2026-04-26T08:46:30.317Z</time></trkpt><trkpt lat="37.7095186" lon="13.7837428"><ele>568.0</ele><time>2026-04-26T08:46:31.317Z</time></trkpt><trkpt lat="37.7093778" lon="13.783805"><ele>568.0</ele><time>2026-04-26T08:46:32.317Z</time></trkpt><trkpt lat="37.7092208" lon="13.7838714"><ele>569.3333333333334</ele><time>2026-04-26T08:46:33.317Z</time></trkpt><trkpt lat="37.7090496" lon="13.7839355"><ele>570.6666666666666</ele><time>2026-04-26T08:46:34.317Z</time></trkpt><trkpt lat="37.7088612" lon="13.7840129"><ele>572.0</ele><time>2026-04-26T08:46:35.317Z</time></trkpt><trkpt lat="37.708654" lon="13.7840995"><ele>572.0</ele><time>2026-04-26T08:46:36.317Z</time></trkpt><trkpt lat="37.7084461" lon="13.7841865"><ele>572.0</ele><time>2026-04-26T08:46:37.317Z</time></trkpt><trkpt lat="37.7082522" lon="13.7842672"><ele>572.0</ele><time>2026-04-26T08:46:38.317Z</time></trkpt><trkpt lat="37.7080776" lon="13.7843518"><ele>573.0</ele><time>2026-04-26T08:46:39.317Z</time></trkpt><trkpt lat="37.7079105" lon="13.7844536"><ele>574.0</ele><time>2026-04-26T08:46:40.317Z</time></trkpt><trkpt lat="37.7077509" lon="13.7845849"><ele>575.0</ele><time>2026-04-26T08:46:41.317Z</time></trkpt><trkpt lat="37.70761" lon="13.7847453"><ele>575.0</ele><time>2026-04-26T08:46:42.317Z</time></trkpt><trkpt lat="37.7074942" lon="13.7849398"><ele>575.0</ele><time>2026-04-26T08:46:43.317Z</time></trkpt><trkpt lat="37.707415" lon="13.7851736"><ele>575.0</ele><time>2026-04-26T08:46:44.317Z</time></trkpt><trkpt lat="37.7073714" lon="13.7854224"><ele>577.0</ele><time>2026-04-26T08:46:45.316Z</time></trkpt><trkpt lat="37.7073674" lon="13.7856754"><ele>579.0</ele><time>2026-04-26T08:46:46.317Z</time></trkpt><trkpt lat="37.7073853" lon="13.7859115"><ele>581.0</ele><time>2026-04-26T08:46:47.317Z</time></trkpt><trkpt lat="37.7074192" lon="13.7861474"><ele>582.3333333333333</ele><time>2026-04-26T08:46:48.317Z</time></trkpt><trkpt lat="37.7074387" lon="13.7863846"><ele>583.6666666666666</ele><time>2026-04-26T08:46:49.317Z</time></trkpt><trkpt lat="37.7074338" lon="13.7866231"><ele>585.0</ele><time>2026-04-26T08:46:50.317Z</time></trkpt><trkpt lat="37.7074007" lon="13.7868647"><ele>585.0</ele><time>2026-04-26T08:46:51.317Z</time></trkpt><trkpt lat="37.7073458" lon="13.787094"><ele>585.0</ele><time>2026-04-26T08:46:52.317Z</time></trkpt><trkpt lat="37.7072532" lon="13.7872652"><ele>585.0</ele><time>2026-04-26T08:46:53.317Z</time></trkpt><trkpt lat="37.7071759" lon="13.7874528"><ele>585.0</ele><time>2026-04-26T08:46:54.317Z</time></trkpt><trkpt lat="37.707082" lon="13.7876056"><ele>585.0</ele><time>2026-04-26T08:46:55.317Z</time></trkpt><trkpt lat="37.7069643" lon="13.7877393"><ele>585.0</ele><time>2026-04-26T08:46:56.317Z</time></trkpt><trkpt lat="37.7068311" lon="13.7878818"><ele>585.6666666666666</ele><time>2026-04-26T08:46:57.317Z</time></trkpt><trkpt lat="37.7066938" lon="13.7880782"><ele>586.3333333333333</ele><time>2026-04-26T08:46:58.317Z</time></trkpt><trkpt lat="37.7065673" lon="13.788264"><ele>587.0</ele><time>2026-04-26T08:46:59.317Z</time></trkpt><trkpt lat="37.7064286" lon="13.7884621"><ele>588.3333333333333</ele><time>2026-04-26T08:47:00.317Z</time></trkpt><trkpt lat="37.7062751" lon="13.7886626"><ele>589.6666666666666</ele><time>2026-04-26T08:47:01.317Z</time></trkpt><trkpt lat="37.7061068" lon="13.7888542"><ele>591.0</ele><time>2026-04-26T08:47:02.317Z</time></trkpt><trkpt lat="37.705944" lon="13.7890443"><ele>593.5</ele><time>2026-04-26T08:47:03.317Z</time></trkpt><trkpt lat="37.7057413" lon="13.7892385"><ele>596.0</ele><time>2026-04-26T08:47:04.317Z</time></trkpt><trkpt lat="37.7055595" lon="13.7894665"><ele>597.5</ele><time>2026-04-26T08:47:05.317Z</time></trkpt><trkpt lat="37.7053746" lon="13.7896963"><ele>599.0</ele><time>2026-04-26T08:47:06.317Z</time></trkpt><trkpt lat="37.705194" lon="13.7899052"><ele>601.0</ele><time>2026-04-26T08:47:07.317Z</time></trkpt><trkpt lat="37.7050196" lon="13.7900991"><ele>603.0</ele><time>2026-04-26T08:47:08.316Z</time></trkpt><trkpt lat="37.704843" lon="13.7902803"><ele>603.5</ele><time>2026-04-26T08:47:09.317Z</time></trkpt><trkpt lat="37.7046504" lon="13.7904545"><ele>604.0</ele><time>2026-04-26T08:47:10.317Z</time></trkpt><trkpt lat="37.704467" lon="13.7906046"><ele>605.6666666666667</ele><time>2026-04-26T08:47:11.317Z</time></trkpt><trkpt lat="37.7042757" lon="13.7907408"><ele>607.3333333333334</ele><time>2026-04-26T08:47:12.317Z</time></trkpt><trkpt lat="37.7041086" lon="13.7909149"><ele>609.0</ele><time>2026-04-26T08:47:13.317Z</time></trkpt><trkpt lat="37.703941" lon="13.7911171"><ele>611.0</ele><time>2026-04-26T08:47:14.317Z</time></trkpt><trkpt lat="37.7037721" lon="13.7913499"><ele>613.0</ele><time>2026-04-26T08:47:15.317Z</time></trkpt><trkpt lat="37.7035968" lon="13.7916216"><ele>615.0</ele><time>2026-04-26T08:47:16.317Z</time></trkpt><trkpt lat="37.7034201" lon="13.7918938"><ele>617.0</ele><time>2026-04-26T08:47:17.317Z</time></trkpt><trkpt lat="37.7032475" lon="13.7921501"><ele>617.0</ele><time>2026-04-26T08:47:18.317Z</time></trkpt><trkpt lat="37.7030963" lon="13.7923867"><ele>617.0</ele><time>2026-04-26T08:47:19.317Z</time></trkpt><trkpt lat="37.7029484" lon="13.7926082"><ele>618.6666666666666</ele><time>2026-04-26T08:47:20.317Z</time></trkpt><trkpt lat="37.7027985" lon="13.7927878"><ele>620.3333333333334</ele><time>2026-04-26T08:47:21.317Z</time></trkpt><trkpt lat="37.7026493" lon="13.7929391"><ele>622.0</ele><time>2026-04-26T08:47:22.317Z</time></trkpt><trkpt lat="37.7024916" lon="13.793075"><ele>622.0</ele><time>2026-04-26T08:47:23.317Z</time></trkpt><trkpt lat="37.702327" lon="13.7932164"><ele>622.0</ele><time>2026-04-26T08:47:24.317Z</time></trkpt><trkpt lat="37.7021564" lon="13.7933615"><ele>622.0</ele><time>2026-04-26T08:47:25.317Z</time></trkpt><trkpt lat="37.7019801" lon="13.7935135"><ele>624.5</ele><time>2026-04-26T08:47:26.317Z</time></trkpt><trkpt lat="37.7018009" lon="13.7936951"><ele>627.0</ele><time>2026-04-26T08:47:27.317Z</time></trkpt><trkpt lat="37.701624" lon="13.7938699"><ele>627.0</ele><time>2026-04-26T08:47:28.317Z</time></trkpt><trkpt lat="37.7014511" lon="13.7940679"><ele>627.0</ele><time>2026-04-26T08:47:29.317Z</time></trkpt><trkpt lat="37.7012831" lon="13.7942726"><ele>626.5</ele><time>2026-04-26T08:47:30.317Z</time></trkpt><trkpt lat="37.7011084" lon="13.7944702"><ele>626.0</ele><time>2026-04-26T08:47:31.317Z</time></trkpt><trkpt lat="37.7009296" lon="13.7946407"><ele>626.0</ele><time>2026-04-26T08:47:32.317Z</time></trkpt><trkpt lat="37.7007484" lon="13.7947775"><ele>626.0</ele><time>2026-04-26T08:47:33.317Z</time></trkpt><trkpt lat="37.7005778" lon="13.7948989"><ele>626.0</ele><time>2026-04-26T08:47:34.317Z</time></trkpt><trkpt lat="37.7004186" lon="13.7950501"><ele>626.0</ele><time>2026-04-26T08:47:35.317Z</time></trkpt><trkpt lat="37.700265" lon="13.7952249"><ele>626.0</ele><time>2026-04-26T08:47:36.317Z</time></trkpt><trkpt lat="37.7001177" lon="13.7954169"><ele>626.0</ele><time>2026-04-26T08:47:37.317Z</time></trkpt><trkpt lat="37.7000043" lon="13.7955837"><ele>626.0</ele><time>2026-04-26T08:47:38.317Z</time></trkpt><trkpt lat="37.6999132" lon="13.7957691"><ele>626.0</ele><time>2026-04-26T08:47:39.317Z</time></trkpt><trkpt lat="37.6998464" lon="13.7959887"><ele>626.0</ele><time>2026-04-26T08:47:40.317Z</time></trkpt><trkpt lat="37.6997883" lon="13.7962322"><ele>622.5</ele><time>2026-04-26T08:47:41.317Z</time></trkpt><trkpt lat="37.6997237" lon="13.7964995"><ele>619.0</ele><time>2026-04-26T08:47:42.317Z</time></trkpt><trkpt lat="37.6996412" lon="13.7967889"><ele>616.0</ele><time>2026-04-26T08:47:43.317Z</time></trkpt><trkpt lat="37.6995598" lon="13.7970736"><ele>613.0</ele><time>2026-04-26T08:47:44.317Z</time></trkpt><trkpt lat="37.6994773" lon="13.7973673"><ele>614.5</ele><time>2026-04-26T08:47:45.317Z</time></trkpt><trkpt lat="37.6993863" lon="13.797665"><ele>616.0</ele><time>2026-04-26T08:47:46.317Z</time></trkpt><trkpt lat="37.699304" lon="13.7979702"><ele>616.0</ele><time>2026-04-26T08:47:47.317Z</time></trkpt><trkpt lat="37.6992364" lon="13.7982608"><ele>616.0</ele><time>2026-04-26T08:47:48.317Z</time></trkpt><trkpt lat="37.6991536" lon="13.7985566"><ele>614.0</ele><time>2026-04-26T08:47:49.317Z</time></trkpt><trkpt lat="37.699071" lon="13.7988394"><ele>612.0</ele><time>2026-04-26T08:47:50.317Z</time></trkpt><trkpt lat="37.6989905" lon="13.7991056"><ele>610.6666666666666</ele><time>2026-04-26T08:47:51.317Z</time></trkpt><trkpt lat="37.6989199" lon="13.7993558"><ele>609.3333333333333</ele><time>2026-04-26T08:47:52.316Z</time></trkpt><trkpt lat="37.6988564" lon="13.7996092"><ele>608.0</ele><time>2026-04-26T08:47:53.316Z</time></trkpt><trkpt lat="37.6987909" lon="13.7998189"><ele>608.0</ele><time>2026-04-26T08:47:54.317Z</time></trkpt><trkpt lat="37.6987215" lon="13.799994"><ele>608.0</ele><time>2026-04-26T08:47:55.317Z</time></trkpt><trkpt lat="37.6986228" lon="13.8001403"><ele>608.0</ele><time>2026-04-26T08:47:56.316Z</time></trkpt><trkpt lat="37.6984995" lon="13.8002611"><ele>608.0</ele><time>2026-04-26T08:47:57.317Z</time></trkpt><trkpt lat="37.6983479" lon="13.8003629"><ele>608.0</ele><time>2026-04-26T08:47:58.316Z</time></trkpt><trkpt lat="37.698191" lon="13.8004512"><ele>608.0</ele><time>2026-04-26T08:47:59.316Z</time></trkpt><trkpt lat="37.698054" lon="13.8005481"><ele>608.0</ele><time>2026-04-26T08:48:00.317Z</time></trkpt><trkpt lat="37.6979488" lon="13.8006614"><ele>608.0</ele><time>2026-04-26T08:48:01.317Z</time></trkpt><trkpt lat="37.6978638" lon="13.8008123"><ele>608.0</ele><time>2026-04-26T08:48:02.317Z</time></trkpt><trkpt lat="37.6978047" lon="13.8009985"><ele>608.0</ele><time>2026-04-26T08:48:03.317Z</time></trkpt><trkpt lat="37.6977761" lon="13.8012106"><ele>605.3333333333333</ele><time>2026-04-26T08:48:04.316Z</time></trkpt><trkpt lat="37.6977823" lon="13.8014292"><ele>602.6666666666666</ele><time>2026-04-26T08:48:05.316Z</time></trkpt><trkpt lat="37.697791" lon="13.8016444"><ele>600.0</ele><time>2026-04-26T08:48:06.317Z</time></trkpt><trkpt lat="37.6977813" lon="13.801849"><ele>602.3333333333334</ele><time>2026-04-26T08:48:07.317Z</time></trkpt><trkpt lat="37.6977422" lon="13.8020401"><ele>604.6666666666667</ele><time>2026-04-26T08:48:08.317Z</time></trkpt><trkpt lat="37.6976647" lon="13.802208"><ele>607.0</ele><time>2026-04-26T08:48:09.317Z</time></trkpt><trkpt lat="37.6975413" lon="13.8023578"><ele>607.0</ele><time>2026-04-26T08:48:10.317Z</time></trkpt><trkpt lat="37.697388" lon="13.8024991"><ele>607.0</ele><time>2026-04-26T08:48:11.317Z</time></trkpt><trkpt lat="37.6972443" lon="13.8026365"><ele>607.0</ele><time>2026-04-26T08:48:12.317Z</time></trkpt><trkpt lat="37.6971111" lon="13.8027484"><ele>605.25</ele><time>2026-04-26T08:48:13.316Z</time></trkpt><trkpt lat="37.6970093" lon="13.8028568"><ele>603.5</ele><time>2026-04-26T08:48:14.317Z</time></trkpt><trkpt lat="37.696939" lon="13.802983"><ele>601.75</ele><time>2026-04-26T08:48:15.317Z</time></trkpt><trkpt lat="37.6969013" lon="13.8031373"><ele>600.0</ele><time>2026-04-26T08:48:16.317Z</time></trkpt><trkpt lat="37.6969175" lon="13.8033059"><ele>598.0</ele><time>2026-04-26T08:48:17.316Z</time></trkpt><trkpt lat="37.6969567" lon="13.8034975"><ele>596.0</ele><time>2026-04-26T08:48:18.316Z</time></trkpt><trkpt lat="37.6970172" lon="13.803722"><ele>594.0</ele><time>2026-04-26T08:48:19.316Z</time></trkpt><trkpt lat="37.6970655" lon="13.803961"><ele>594.0</ele><time>2026-04-26T08:48:20.315Z</time></trkpt><trkpt lat="37.6970997" lon="13.8042267"><ele>594.0</ele><time>2026-04-26T08:48:21.316Z</time></trkpt><trkpt lat="37.6971257" lon="13.8045116"><ele>594.0</ele><time>2026-04-26T08:48:22.316Z</time></trkpt><trkpt lat="37.6971492" lon="13.8048129"><ele>594.0</ele><time>2026-04-26T08:48:23.316Z</time></trkpt><trkpt lat="37.6971726" lon="13.8051314"><ele>594.0</ele><time>2026-04-26T08:48:24.316Z</time></trkpt><trkpt lat="37.6972031" lon="13.8054616"><ele>593.5</ele><time>2026-04-26T08:48:25.316Z</time></trkpt><trkpt lat="37.6972444" lon="13.8057949"><ele>593.0</ele><time>2026-04-26T08:48:26.316Z</time></trkpt><trkpt lat="37.6972932" lon="13.806086"><ele>593.0</ele><time>2026-04-26T08:48:27.316Z</time></trkpt><trkpt lat="37.6973278" lon="13.8063781"><ele>593.0</ele><time>2026-04-26T08:48:28.316Z</time></trkpt><trkpt lat="37.6973408" lon="13.8066631"><ele>592.3333333333333</ele><time>2026-04-26T08:48:29.316Z</time></trkpt><trkpt lat="37.6973386" lon="13.8069269"><ele>591.6666666666666</ele><time>2026-04-26T08:48:30.316Z</time></trkpt><trkpt lat="37.6973231" lon="13.8071704"><ele>591.0</ele><time>2026-04-26T08:48:31.316Z</time></trkpt><trkpt lat="37.6973086" lon="13.8074041"><ele>591.0</ele><time>2026-04-26T08:48:32.316Z</time></trkpt><trkpt lat="37.6972765" lon="13.8076228"><ele>591.0</ele><time>2026-04-26T08:48:33.316Z</time></trkpt><trkpt lat="37.6972112" lon="13.8078318"><ele>591.0</ele><time>2026-04-26T08:48:34.316Z</time></trkpt><trkpt lat="37.6970988" lon="13.8080167"><ele>593.0</ele><time>2026-04-26T08:48:35.316Z</time></trkpt><trkpt lat="37.696938" lon="13.8081729"><ele>595.0</ele><time>2026-04-26T08:48:36.316Z</time></trkpt><trkpt lat="37.6967467" lon="13.8083028"><ele>597.0</ele><time>2026-04-26T08:48:37.316Z</time></trkpt><trkpt lat="37.6965601" lon="13.8084042"><ele>595.6666666666666</ele><time>2026-04-26T08:48:38.316Z</time></trkpt><trkpt lat="37.6963899" lon="13.8084905"><ele>594.3333333333333</ele><time>2026-04-26T08:48:39.316Z</time></trkpt><trkpt lat="37.6962468" lon="13.8086274"><ele>593.0</ele><time>2026-04-26T08:48:40.316Z</time></trkpt><trkpt lat="37.6961218" lon="13.8087739"><ele>587.6666666666666</ele><time>2026-04-26T08:48:41.316Z</time></trkpt><trkpt lat="37.6960258" lon="13.8089396"><ele>582.3333333333334</ele><time>2026-04-26T08:48:42.316Z</time></trkpt><trkpt lat="37.6959561" lon="13.8091396"><ele>577.0</ele><time>2026-04-26T08:48:43.316Z</time></trkpt><trkpt lat="37.6959323" lon="13.8093742"><ele>576.6666666666667</ele><time>2026-04-26T08:48:44.316Z</time></trkpt><trkpt lat="37.6959434" lon="13.8096311"><ele>576.3333333333334</ele><time>2026-04-26T08:48:45.316Z</time></trkpt><trkpt lat="37.6959565" lon="13.8099048"><ele>576.0</ele><time>2026-04-26T08:48:46.316Z</time></trkpt><trkpt lat="37.6959554" lon="13.8101838"><ele>578.0</ele><time>2026-04-26T08:48:47.316Z</time></trkpt><trkpt lat="37.6959255" lon="13.8104679"><ele>580.0</ele><time>2026-04-26T08:48:48.316Z</time></trkpt><trkpt lat="37.6958907" lon="13.8107463"><ele>579.3333333333334</ele><time>2026-04-26T08:48:49.315Z</time></trkpt><trkpt lat="37.6958508" lon="13.8110188"><ele>578.6666666666666</ele><time>2026-04-26T08:48:50.315Z</time></trkpt><trkpt lat="37.6958069" lon="13.811295"><ele>578.0</ele><time>2026-04-26T08:48:51.316Z</time></trkpt><trkpt lat="37.6957639" lon="13.8116033"><ele>575.5</ele><time>2026-04-26T08:48:52.316Z</time></trkpt><trkpt lat="37.6957114" lon="13.8119295"><ele>573.0</ele><time>2026-04-26T08:48:53.316Z</time></trkpt><trkpt lat="37.6956625" lon="13.8122595"><ele>573.0</ele><time>2026-04-26T08:48:54.316Z</time></trkpt><trkpt lat="37.6956161" lon="13.8125736"><ele>573.0</ele><time>2026-04-26T08:48:55.316Z</time></trkpt><trkpt lat="37.6955652" lon="13.8128863"><ele>573.5</ele><time>2026-04-26T08:48:56.316Z</time></trkpt><trkpt lat="37.6955148" lon="13.8131857"><ele>574.0</ele><time>2026-04-26T08:48:57.316Z</time></trkpt><trkpt lat="37.695473" lon="13.8134878"><ele>574.0</ele><time>2026-04-26T08:48:58.316Z</time></trkpt><trkpt lat="37.6954272" lon="13.8137947"><ele>574.0</ele><time>2026-04-26T08:48:59.316Z</time></trkpt><trkpt lat="37.6953765" lon="13.8140963"><ele>574.5</ele><time>2026-04-26T08:49:00.316Z</time></trkpt><trkpt lat="37.6953119" lon="13.8143856"><ele>575.0</ele><time>2026-04-26T08:49:01.316Z</time></trkpt><trkpt lat="37.6952519" lon="13.8146605"><ele>571.6666666666666</ele><time>2026-04-26T08:49:02.316Z</time></trkpt><trkpt lat="37.6951977" lon="13.8149137"><ele>568.3333333333334</ele><time>2026-04-26T08:49:03.316Z</time></trkpt><trkpt lat="37.6951446" lon="13.8151576"><ele>565.0</ele><time>2026-04-26T08:49:04.316Z</time></trkpt><trkpt lat="37.6950659" lon="13.8153764"><ele>565.0</ele><time>2026-04-26T08:49:05.316Z</time></trkpt><trkpt lat="37.6949729" lon="13.8155233"><ele>565.0</ele><time>2026-04-26T08:49:06.316Z</time></trkpt><trkpt lat="37.694853" lon="13.8156271"><ele>565.0</ele><time>2026-04-26T08:49:07.316Z</time></trkpt><trkpt lat="37.6947068" lon="13.8157026"><ele>565.0</ele><time>2026-04-26T08:49:08.316Z</time></trkpt><trkpt lat="37.6945398" lon="13.8157301"><ele>565.0</ele><time>2026-04-26T08:49:09.316Z</time></trkpt><trkpt lat="37.6943795" lon="13.8157472"><ele>565.0</ele><time>2026-04-26T08:49:10.316Z</time></trkpt><trkpt lat="37.6942055" lon="13.81577"><ele>563.0</ele><time>2026-04-26T08:49:11.315Z</time></trkpt><trkpt lat="37.6940561" lon="13.8158436"><ele>561.0</ele><time>2026-04-26T08:49:12.316Z</time></trkpt><trkpt lat="37.693911" lon="13.8159557"><ele>559.0</ele><time>2026-04-26T08:49:13.316Z</time></trkpt><trkpt lat="37.6937804" lon="13.8160928"><ele>559.0</ele><time>2026-04-26T08:49:14.316Z</time></trkpt><trkpt lat="37.6936691" lon="13.8162499"><ele>559.0</ele><time>2026-04-26T08:49:15.315Z</time></trkpt><trkpt lat="37.6935834" lon="13.8164145"><ele>559.0</ele><time>2026-04-26T08:49:16.316Z</time></trkpt><trkpt lat="37.6935242" lon="13.8166143"><ele>554.0</ele><time>2026-04-26T08:49:17.316Z</time></trkpt><trkpt lat="37.6934832" lon="13.8168521"><ele>549.0</ele><time>2026-04-26T08:49:18.316Z</time></trkpt><trkpt lat="37.6934395" lon="13.8170979"><ele>544.0</ele><time>2026-04-26T08:49:19.316Z</time></trkpt><trkpt lat="37.6933807" lon="13.8173335"><ele>544.0</ele><time>2026-04-26T08:49:20.316Z</time></trkpt><trkpt lat="37.6933092" lon="13.8175651"><ele>544.0</ele><time>2026-04-26T08:49:21.316Z</time></trkpt><trkpt lat="37.693223" lon="13.8177802"><ele>544.0</ele><time>2026-04-26T08:49:22.316Z</time></trkpt><trkpt lat="37.6931094" lon="13.8179919"><ele>545.6666666666667</ele><time>2026-04-26T08:49:23.316Z</time></trkpt><trkpt lat="37.6930049" lon="13.8181954"><ele>547.3333333333334</ele><time>2026-04-26T08:49:24.316Z</time></trkpt><trkpt lat="37.6929137" lon="13.8184058"><ele>549.0</ele><time>2026-04-26T08:49:25.316Z</time></trkpt><trkpt lat="37.6928368" lon="13.818646"><ele>550.0</ele><time>2026-04-26T08:49:26.316Z</time></trkpt><trkpt lat="37.6927692" lon="13.8189097"><ele>551.0</ele><time>2026-04-26T08:49:27.316Z</time></trkpt><trkpt lat="37.6927007" lon="13.8191867"><ele>552.0</ele><time>2026-04-26T08:49:28.316Z</time></trkpt><trkpt lat="37.6926558" lon="13.8194587"><ele>545.3333333333334</ele><time>2026-04-26T08:49:29.316Z</time></trkpt><trkpt lat="37.6926077" lon="13.8197278"><ele>538.6666666666667</ele><time>2026-04-26T08:49:30.316Z</time></trkpt><trkpt lat="37.6925848" lon="13.8200027"><ele>532.0</ele><time>2026-04-26T08:49:31.316Z</time></trkpt><trkpt lat="37.692561" lon="13.8202909"><ele>532.6666666666667</ele><time>2026-04-26T08:49:32.316Z</time></trkpt><trkpt lat="37.6925572" lon="13.8205503"><ele>533.3333333333334</ele><time>2026-04-26T08:49:33.315Z</time></trkpt><trkpt lat="37.6925484" lon="13.820785"><ele>534.0</ele><time>2026-04-26T08:49:34.316Z</time></trkpt><trkpt lat="37.6925168" lon="13.8210113"><ele>534.0</ele><time>2026-04-26T08:49:35.316Z</time></trkpt><trkpt lat="37.6924579" lon="13.821238"><ele>534.0</ele><time>2026-04-26T08:49:36.316Z</time></trkpt><trkpt lat="37.6923844" lon="13.8214574"><ele>534.0</ele><time>2026-04-26T08:49:37.316Z</time></trkpt><trkpt lat="37.6922943" lon="13.8216687"><ele>535.0</ele><time>2026-04-26T08:49:38.316Z</time></trkpt><trkpt lat="37.6921955" lon="13.8218651"><ele>536.0</ele><time>2026-04-26T08:49:39.316Z</time></trkpt><trkpt lat="37.6920945" lon="13.8220498"><ele>537.0</ele><time>2026-04-26T08:49:40.315Z</time></trkpt><trkpt lat="37.6919923" lon="13.822226"><ele>533.0</ele><time>2026-04-26T08:49:41.316Z</time></trkpt><trkpt lat="37.691884" lon="13.8224108"><ele>529.0</ele><time>2026-04-26T08:49:42.316Z</time></trkpt><trkpt lat="37.6917973" lon="13.8225905"><ele>525.0</ele><time>2026-04-26T08:49:43.316Z</time></trkpt><trkpt lat="37.6917334" lon="13.8227818"><ele>525.0</ele><time>2026-04-26T08:49:44.316Z</time></trkpt><trkpt lat="37.6916844" lon="13.8229962"><ele>525.0</ele><time>2026-04-26T08:49:45.315Z</time></trkpt><trkpt lat="37.6916014" lon="13.8232319"><ele>525.0</ele><time>2026-04-26T08:49:46.316Z</time></trkpt><trkpt lat="37.6915541" lon="13.8234877"><ele>526.0</ele><time>2026-04-26T08:49:47.316Z</time></trkpt><trkpt lat="37.6915108" lon="13.8237543"><ele>527.0</ele><time>2026-04-26T08:49:48.316Z</time></trkpt><trkpt lat="37.6914432" lon="13.8240268"><ele>528.0</ele><time>2026-04-26T08:49:49.316Z</time></trkpt><trkpt lat="37.6913807" lon="13.8243006"><ele>529.0</ele><time>2026-04-26T08:49:50.316Z</time></trkpt><trkpt lat="37.6913277" lon="13.8245436"><ele>530.0</ele><time>2026-04-26T08:49:51.316Z</time></trkpt><trkpt lat="37.6912849" lon="13.8247561"><ele>531.0</ele><time>2026-04-26T08:49:52.316Z</time></trkpt><trkpt lat="37.6912531" lon="13.824954"><ele>531.0</ele><time>2026-04-26T08:49:53.316Z</time></trkpt><trkpt lat="37.6912067" lon="13.8251096"><ele>531.0</ele><time>2026-04-26T08:49:54.315Z</time></trkpt><trkpt lat="37.6911408" lon="13.8252396"><ele>531.0</ele><time>2026-04-26T08:49:55.316Z</time></trkpt><trkpt lat="37.6910635" lon="13.8253602"><ele>531.0</ele><time>2026-04-26T08:49:56.316Z</time></trkpt><trkpt lat="37.6909703" lon="13.825484"><ele>526.25</ele><time>2026-04-26T08:49:57.316Z</time></trkpt><trkpt lat="37.6908758" lon="13.8255863"><ele>521.5</ele><time>2026-04-26T08:49:58.316Z</time></trkpt><trkpt lat="37.6907699" lon="13.825709"><ele>516.75</ele><time>2026-04-26T08:49:59.316Z</time></trkpt><trkpt lat="37.6906426" lon="13.8258088"><ele>512.0</ele><time>2026-04-26T08:50:00.316Z</time></trkpt><trkpt lat="37.6905227" lon="13.8258855"><ele>512.0</ele><time>2026-04-26T08:50:01.316Z</time></trkpt><trkpt lat="37.6903935" lon="13.8259358"><ele>512.0</ele><time>2026-04-26T08:50:02.316Z</time></trkpt><trkpt lat="37.6902662" lon="13.8259904"><ele>512.0</ele><time>2026-04-26T08:50:03.316Z</time></trkpt><trkpt lat="37.6901236" lon="13.8260689"><ele>512.0</ele><time>2026-04-26T08:50:04.316Z</time></trkpt><trkpt lat="37.6899445" lon="13.8262353"><ele>509.5</ele><time>2026-04-26T08:50:05.316Z</time></trkpt><trkpt lat="37.6897787" lon="13.8264139"><ele>507.0</ele><time>2026-04-26T08:50:06.316Z</time></trkpt><trkpt lat="37.6896181" lon="13.8266353"><ele>505.5</ele><time>2026-04-26T08:50:07.315Z</time></trkpt><trkpt lat="37.6894548" lon="13.8268465"><ele>504.0</ele><time>2026-04-26T08:50:08.316Z</time></trkpt><trkpt lat="37.6892863" lon="13.8270959"><ele>504.0</ele><time>2026-04-26T08:50:09.315Z</time></trkpt><trkpt lat="37.689116" lon="13.8273546"><ele>504.0</ele><time>2026-04-26T08:50:10.316Z</time></trkpt><trkpt lat="37.6889737" lon="13.8275916"><ele>501.66666666666663</ele><time>2026-04-26T08:50:11.316Z</time></trkpt><trkpt lat="37.6888498" lon="13.8278149"><ele>499.3333333333333</ele><time>2026-04-26T08:50:12.316Z</time></trkpt><trkpt lat="37.6887265" lon="13.8280054"><ele>497.0</ele><time>2026-04-26T08:50:13.316Z</time></trkpt><trkpt lat="37.6885928" lon="13.8281539"><ele>497.0</ele><time>2026-04-26T08:50:14.316Z</time></trkpt><trkpt lat="37.6884522" lon="13.828262"><ele>497.0</ele><time>2026-04-26T08:50:15.316Z</time></trkpt><trkpt lat="37.6883128" lon="13.8283031"><ele>497.0</ele><time>2026-04-26T08:50:16.316Z</time></trkpt><trkpt lat="37.6881721" lon="13.8282927"><ele>497.0</ele><time>2026-04-26T08:50:17.316Z</time></trkpt><trkpt lat="37.6880279" lon="13.8282769"><ele>497.0</ele><time>2026-04-26T08:50:18.316Z</time></trkpt><trkpt lat="37.6878921" lon="13.8282769"><ele>497.0</ele><time>2026-04-26T08:50:19.316Z</time></trkpt><trkpt lat="37.687758" lon="13.8283421"><ele>497.0</ele><time>2026-04-26T08:50:20.316Z</time></trkpt><trkpt lat="37.6876387" lon="13.8284359"><ele>497.0</ele><time>2026-04-26T08:50:21.316Z</time></trkpt><trkpt lat="37.6875193" lon="13.828586"><ele>498.66666666666663</ele><time>2026-04-26T08:50:22.316Z</time></trkpt><trkpt lat="37.687392" lon="13.8287318"><ele>500.33333333333337</ele><time>2026-04-26T08:50:23.316Z</time></trkpt><trkpt lat="37.6872454" lon="13.8288846"><ele>502.0</ele><time>2026-04-26T08:50:24.316Z</time></trkpt><trkpt lat="37.6870774" lon="13.8290306"><ele>500.6666666666667</ele><time>2026-04-26T08:50:25.316Z</time></trkpt><trkpt lat="37.6869197" lon="13.8292187"><ele>499.33333333333337</ele><time>2026-04-26T08:50:26.316Z</time></trkpt><trkpt lat="37.6867727" lon="13.8293844"><ele>498.0</ele><time>2026-04-26T08:50:27.316Z</time></trkpt><trkpt lat="37.6866291" lon="13.8295283"><ele>498.0</ele><time>2026-04-26T08:50:28.316Z</time></trkpt><trkpt lat="37.6864728" lon="13.8296619"><ele>498.0</ele><time>2026-04-26T08:50:29.316Z</time></trkpt><trkpt lat="37.6863124" lon="13.8297859"><ele>498.0</ele><time>2026-04-26T08:50:30.316Z</time></trkpt><trkpt lat="37.6861541" lon="13.829892"><ele>492.0</ele><time>2026-04-26T08:50:31.316Z</time></trkpt><trkpt lat="37.6860089" lon="13.8300457"><ele>486.0</ele><time>2026-04-26T08:50:32.316Z</time></trkpt><trkpt lat="37.6858876" lon="13.8302051"><ele>480.0</ele><time>2026-04-26T08:50:33.316Z</time></trkpt><trkpt lat="37.6857886" lon="13.8303752"><ele>480.0</ele><time>2026-04-26T08:50:34.315Z</time></trkpt><trkpt lat="37.6857254" lon="13.8305509"><ele>480.0</ele><time>2026-04-26T08:50:35.316Z</time></trkpt><trkpt lat="37.6856978" lon="13.8307275"><ele>480.0</ele><time>2026-04-26T08:50:36.315Z</time></trkpt><trkpt lat="37.6856852" lon="13.8309062"><ele>480.0</ele><time>2026-04-26T08:50:37.316Z</time></trkpt><trkpt lat="37.6856835" lon="13.8310695"><ele>480.6</ele><time>2026-04-26T08:50:38.316Z</time></trkpt><trkpt lat="37.6856803" lon="13.8312112"><ele>481.2</ele><time>2026-04-26T08:50:39.316Z</time></trkpt><trkpt lat="37.6856714" lon="13.8313307"><ele>481.79999999999995</ele><time>2026-04-26T08:50:40.315Z</time></trkpt><trkpt lat="37.685661" lon="13.8314144"><ele>482.4</ele><time>2026-04-26T08:50:41.316Z</time></trkpt><trkpt lat="37.6855877" lon="13.8314741"><ele>483.0</ele><time>2026-04-26T08:50:43.316Z</time></trkpt><trkpt lat="37.6855121" lon="13.831367"><ele>483.0</ele><time>2026-04-26T08:50:45.316Z</time></trkpt><trkpt lat="37.6854924" lon="13.8312554"><ele>482.99999999999994</ele><time>2026-04-26T08:50:46.316Z</time></trkpt><trkpt lat="37.6854845" lon="13.8311224"><ele>482.99999999999994</ele><time>2026-04-26T08:50:47.316Z</time></trkpt><trkpt lat="37.6854813" lon="13.8309819"><ele>483.0</ele><time>2026-04-26T08:50:48.316Z</time></trkpt><trkpt lat="37.6854881" lon="13.8308382"><ele>483.0</ele><time>2026-04-26T08:50:49.316Z</time></trkpt><trkpt lat="37.6855024" lon="13.8306974"><ele>482.5</ele><time>2026-04-26T08:50:50.316Z</time></trkpt><trkpt lat="37.6855208" lon="13.8305601"><ele>482.0</ele><time>2026-04-26T08:50:51.316Z</time></trkpt><trkpt lat="37.6855247" lon="13.8304355"><ele>481.5</ele><time>2026-04-26T08:50:52.316Z</time></trkpt><trkpt lat="37.6855134" lon="13.8303419"><ele>481.0</ele><time>2026-04-26T08:50:53.316Z</time></trkpt><trkpt lat="37.6854517" lon="13.8302692"><ele>480.5</ele><time>2026-04-26T08:50:54.316Z</time></trkpt><trkpt lat="37.6853869" lon="13.8302441"><ele>480.0</ele><time>2026-04-26T08:50:55.316Z</time></trkpt><trkpt lat="37.6853245" lon="13.8302619"><ele>480.0</ele><time>2026-04-26T08:50:56.316Z</time></trkpt><trkpt lat="37.6852749" lon="13.8303177"><ele>480.0</ele><time>2026-04-26T08:50:57.316Z</time></trkpt><trkpt lat="37.6852361" lon="13.8303999"><ele>480.0</ele><time>2026-04-26T08:50:58.316Z</time></trkpt><trkpt lat="37.6852094" lon="13.8305057"><ele>480.0</ele><time>2026-04-26T08:50:59.316Z</time></trkpt><trkpt lat="37.6851942" lon="13.8306267"><ele>480.0</ele><time>2026-04-26T08:51:00.316Z</time></trkpt><trkpt lat="37.6851737" lon="13.8307634"><ele>480.0</ele><time>2026-04-26T08:51:01.316Z</time></trkpt><trkpt lat="37.6851541" lon="13.8309137"><ele>476.25</ele><time>2026-04-26T08:51:02.316Z</time></trkpt><trkpt lat="37.6851313" lon="13.8310596"><ele>472.5</ele><time>2026-04-26T08:51:03.316Z</time></trkpt><trkpt lat="37.6851079" lon="13.8312065"><ele>468.75</ele><time>2026-04-26T08:51:04.316Z</time></trkpt><trkpt lat="37.6850836" lon="13.8313497"><ele>465.0</ele><time>2026-04-26T08:51:05.316Z</time></trkpt><trkpt lat="37.6850655" lon="13.8314859"><ele>465.0</ele><time>2026-04-26T08:51:06.316Z</time></trkpt><trkpt lat="37.6850436" lon="13.8316238"><ele>465.0</ele><time>2026-04-26T08:51:07.316Z</time></trkpt><trkpt lat="37.6850174" lon="13.831755"><ele>465.0</ele><time>2026-04-26T08:51:08.315Z</time></trkpt><trkpt lat="37.6849919" lon="13.8318804"><ele>465.0</ele><time>2026-04-26T08:51:09.316Z</time></trkpt><trkpt lat="37.6849755" lon="13.8319736"><ele>465.0</ele><time>2026-04-26T08:51:10.316Z</time></trkpt><trkpt lat="37.6849566" lon="13.8320777"><ele>465.0</ele><time>2026-04-26T08:51:11.316Z</time></trkpt><trkpt lat="37.6849309" lon="13.8321883"><ele>465.0</ele><time>2026-04-26T08:51:12.315Z</time></trkpt><trkpt lat="37.6849134" lon="13.8323072"><ele>465.0</ele><time>2026-04-26T08:51:13.316Z</time></trkpt><trkpt lat="37.6848979" lon="13.8324375"><ele>465.0</ele><time>2026-04-26T08:51:14.316Z</time></trkpt><trkpt lat="37.6848711" lon="13.8325745"><ele>465.0</ele><time>2026-04-26T08:51:15.316Z</time></trkpt><trkpt lat="37.6848362" lon="13.8327014"><ele>465.3333333333333</ele><time>2026-04-26T08:51:16.316Z</time></trkpt><trkpt lat="37.6847971" lon="13.8328131"><ele>465.66666666666663</ele><time>2026-04-26T08:51:17.316Z</time></trkpt><trkpt lat="37.6847542" lon="13.8329141"><ele>466.0</ele><time>2026-04-26T08:51:18.316Z</time></trkpt><trkpt lat="37.684715" lon="13.8330092"><ele>466.3333333333333</ele><time>2026-04-26T08:51:19.316Z</time></trkpt><trkpt lat="37.6846751" lon="13.8330972"><ele>466.66666666666663</ele><time>2026-04-26T08:51:20.316Z</time></trkpt><trkpt lat="37.6846369" lon="13.8331954"><ele>467.0</ele><time>2026-04-26T08:51:21.316Z</time></trkpt><trkpt lat="37.6846008" lon="13.833293"><ele>466.99999999999994</ele><time>2026-04-26T08:51:22.316Z</time></trkpt><trkpt lat="37.6845639" lon="13.8333784"><ele>467.0</ele><time>2026-04-26T08:51:23.316Z</time></trkpt><trkpt lat="37.6845295" lon="13.8334643"><ele>467.0</ele><time>2026-04-26T08:51:24.316Z</time></trkpt><trkpt lat="37.6844946" lon="13.8335461"><ele>467.0</ele><time>2026-04-26T08:51:25.316Z</time></trkpt><trkpt lat="37.6844576" lon="13.8336357"><ele>466.99999999999994</ele><time>2026-04-26T08:51:26.316Z</time></trkpt><trkpt lat="37.6844195" lon="13.8337253"><ele>467.0</ele><time>2026-04-26T08:51:27.316Z</time></trkpt><trkpt lat="37.6843702" lon="13.8338239"><ele>466.40000000000003</ele><time>2026-04-26T08:51:28.316Z</time></trkpt><trkpt lat="37.6843234" lon="13.8339209"><ele>465.80000000000007</ele><time>2026-04-26T08:51:29.316Z</time></trkpt><trkpt lat="37.6842732" lon="13.8340153"><ele>465.2</ele><time>2026-04-26T08:51:30.316Z</time></trkpt><trkpt lat="37.6842193" lon="13.8341166"><ele>464.6</ele><time>2026-04-26T08:51:31.316Z</time></trkpt><trkpt lat="37.684169" lon="13.8342257"><ele>464.0</ele><time>2026-04-26T08:51:32.315Z</time></trkpt><trkpt lat="37.6841175" lon="13.8343342"><ele>464.0</ele><time>2026-04-26T08:51:33.316Z</time></trkpt><trkpt lat="37.6840632" lon="13.8344408"><ele>464.0</ele><time>2026-04-26T08:51:34.316Z</time></trkpt><trkpt lat="37.6840144" lon="13.8345476"><ele>464.0</ele><time>2026-04-26T08:51:35.316Z</time></trkpt><trkpt lat="37.6839701" lon="13.8346374"><ele>464.0</ele><time>2026-04-26T08:51:36.316Z</time></trkpt><trkpt lat="37.6839196" lon="13.8347284"><ele>464.0</ele><time>2026-04-26T08:51:37.316Z</time></trkpt><trkpt lat="37.6838691" lon="13.8348198"><ele>464.0</ele><time>2026-04-26T08:51:38.316Z</time></trkpt><trkpt lat="37.6838153" lon="13.8349124"><ele>464.0</ele><time>2026-04-26T08:51:39.316Z</time></trkpt><trkpt lat="37.6837689" lon="13.8350144"><ele>464.0</ele><time>2026-04-26T08:51:40.316Z</time></trkpt><trkpt lat="37.6837202" lon="13.8351168"><ele>464.0</ele><time>2026-04-26T08:51:41.316Z</time></trkpt><trkpt lat="37.6836733" lon="13.8352203"><ele>464.0</ele><time>2026-04-26T08:51:42.316Z</time></trkpt><trkpt lat="37.6836281" lon="13.8353309"><ele>463.2</ele><time>2026-04-26T08:51:43.316Z</time></trkpt><trkpt lat="37.6835842" lon="13.8354483"><ele>462.4</ele><time>2026-04-26T08:51:44.316Z</time></trkpt><trkpt lat="37.6835417" lon="13.835572"><ele>461.6</ele><time>2026-04-26T08:51:45.316Z</time></trkpt><trkpt lat="37.683498" lon="13.8356949"><ele>460.8</ele><time>2026-04-26T08:51:46.315Z</time></trkpt><trkpt lat="37.6834544" lon="13.8358135"><ele>460.0</ele><time>2026-04-26T08:51:47.316Z</time></trkpt><trkpt lat="37.6834138" lon="13.8359249"><ele>459.8</ele><time>2026-04-26T08:51:48.316Z</time></trkpt><trkpt lat="37.6833688" lon="13.8360338"><ele>459.6</ele><time>2026-04-26T08:51:49.316Z</time></trkpt><trkpt lat="37.683328" lon="13.8361441"><ele>459.4</ele><time>2026-04-26T08:51:50.316Z</time></trkpt><trkpt lat="37.6832816" lon="13.8362481"><ele>459.2</ele><time>2026-04-26T08:51:51.316Z</time></trkpt><trkpt lat="37.683234" lon="13.8363627"><ele>459.0</ele><time>2026-04-26T08:51:52.316Z</time></trkpt><trkpt lat="37.6831852" lon="13.8364831"><ele>459.0</ele><time>2026-04-26T08:51:53.316Z</time></trkpt><trkpt lat="37.6831336" lon="13.8365971"><ele>459.0</ele><time>2026-04-26T08:51:54.316Z</time></trkpt><trkpt lat="37.6830879" lon="13.8367078"><ele>459.0</ele><time>2026-04-26T08:51:55.316Z</time></trkpt><trkpt lat="37.6830418" lon="13.8368102"><ele>459.0</ele><time>2026-04-26T08:51:56.316Z</time></trkpt><trkpt lat="37.6829989" lon="13.8369097"><ele>459.0</ele><time>2026-04-26T08:51:57.316Z</time></trkpt><trkpt lat="37.682959" lon="13.8370101"><ele>459.25</ele><time>2026-04-26T08:51:58.316Z</time></trkpt><trkpt lat="37.6829264" lon="13.8371284"><ele>459.5</ele><time>2026-04-26T08:51:59.316Z</time></trkpt><trkpt lat="37.682895" lon="13.8372637"><ele>459.75</ele><time>2026-04-26T08:52:00.316Z</time></trkpt><trkpt lat="37.6828593" lon="13.8374073"><ele>460.0</ele><time>2026-04-26T08:52:01.316Z</time></trkpt><trkpt lat="37.6828315" lon="13.8375642"><ele>460.5</ele><time>2026-04-26T08:52:02.316Z</time></trkpt><trkpt lat="37.6828055" lon="13.8377223"><ele>461.0</ele><time>2026-04-26T08:52:03.316Z</time></trkpt><trkpt lat="37.6827834" lon="13.8378761"><ele>461.5</ele><time>2026-04-26T08:52:04.316Z</time></trkpt><trkpt lat="37.6827587" lon="13.838023"><ele>462.0</ele><time>2026-04-26T08:52:05.316Z</time></trkpt><trkpt lat="37.682732" lon="13.8381609"><ele>459.0</ele><time>2026-04-26T08:52:06.316Z</time></trkpt><trkpt lat="37.6827158" lon="13.8382927"><ele>456.0</ele><time>2026-04-26T08:52:07.316Z</time></trkpt><trkpt lat="37.6826961" lon="13.8384439"><ele>453.0</ele><time>2026-04-26T08:52:08.316Z</time></trkpt><trkpt lat="37.6826888" lon="13.8386132"><ele>450.0</ele><time>2026-04-26T08:52:09.316Z</time></trkpt><trkpt lat="37.6826868" lon="13.8387976"><ele>449.75</ele><time>2026-04-26T08:52:10.315Z</time></trkpt><trkpt lat="37.6826834" lon="13.8389826"><ele>449.5</ele><time>2026-04-26T08:52:11.316Z</time></trkpt><trkpt lat="37.6826707" lon="13.8391654"><ele>449.25</ele><time>2026-04-26T08:52:12.316Z</time></trkpt><trkpt lat="37.68264" lon="13.8393312"><ele>449.0</ele><time>2026-04-26T08:52:13.316Z</time></trkpt><trkpt lat="37.682607" lon="13.8394787"><ele>448.0</ele><time>2026-04-26T08:52:14.316Z</time></trkpt><trkpt lat="37.682576" lon="13.839623"><ele>447.0</ele><time>2026-04-26T08:52:15.316Z</time></trkpt><trkpt lat="37.6825495" lon="13.8397587"><ele>446.0</ele><time>2026-04-26T08:52:16.316Z</time></trkpt><trkpt lat="37.6825561" lon="13.8399113"><ele>445.0</ele><time>2026-04-26T08:52:17.315Z</time></trkpt><trkpt lat="37.682593" lon="13.8400729"><ele>445.0</ele><time>2026-04-26T08:52:18.316Z</time></trkpt><trkpt lat="37.6826611" lon="13.840247"><ele>445.0</ele><time>2026-04-26T08:52:19.316Z</time></trkpt><trkpt lat="37.6827257" lon="13.8404252"><ele>445.0</ele><time>2026-04-26T08:52:20.315Z</time></trkpt><trkpt lat="37.6827801" lon="13.8406029"><ele>445.4</ele><time>2026-04-26T08:52:21.316Z</time></trkpt><trkpt lat="37.6828091" lon="13.8407728"><ele>445.8</ele><time>2026-04-26T08:52:22.316Z</time></trkpt><trkpt lat="37.6828051" lon="13.8409308"><ele>446.20000000000005</ele><time>2026-04-26T08:52:23.316Z</time></trkpt><trkpt lat="37.6827786" lon="13.8410576"><ele>446.6</ele><time>2026-04-26T08:52:24.316Z</time></trkpt><trkpt lat="37.6827459" lon="13.8411514"><ele>447.0</ele><time>2026-04-26T08:52:25.316Z</time></trkpt><trkpt lat="37.6826935" lon="13.8412911"><ele>447.0</ele><time>2026-04-26T08:52:27.316Z</time></trkpt><trkpt lat="37.6826385" lon="13.8414562"><ele>447.0</ele><time>2026-04-26T08:52:29.316Z</time></trkpt><trkpt lat="37.6826236" lon="13.8415685"><ele>447.0</ele><time>2026-04-26T08:52:30.315Z</time></trkpt><trkpt lat="37.6826105" lon="13.841711"><ele>447.0</ele><time>2026-04-26T08:52:31.316Z</time></trkpt><trkpt lat="37.6825908" lon="13.8418737"><ele>447.25</ele><time>2026-04-26T08:52:32.316Z</time></trkpt><trkpt lat="37.6825665" lon="13.8420465"><ele>447.5</ele><time>2026-04-26T08:52:33.316Z</time></trkpt><trkpt lat="37.6825428" lon="13.8422305"><ele>447.75</ele><time>2026-04-26T08:52:34.316Z</time></trkpt><trkpt lat="37.6825183" lon="13.8424139"><ele>448.0</ele><time>2026-04-26T08:52:35.316Z</time></trkpt><trkpt lat="37.6824992" lon="13.8425936"><ele>447.5</ele><time>2026-04-26T08:52:36.316Z</time></trkpt><trkpt lat="37.6824742" lon="13.8427779"><ele>447.0</ele><time>2026-04-26T08:52:37.316Z</time></trkpt><trkpt lat="37.6824358" lon="13.8429653"><ele>446.5</ele><time>2026-04-26T08:52:38.315Z</time></trkpt><trkpt lat="37.6823883" lon="13.843141"><ele>446.0</ele><time>2026-04-26T08:52:39.316Z</time></trkpt><trkpt lat="37.6823503" lon="13.843313"><ele>445.25</ele><time>2026-04-26T08:52:40.316Z</time></trkpt><trkpt lat="37.6823415" lon="13.843483"><ele>444.5</ele><time>2026-04-26T08:52:41.316Z</time></trkpt><trkpt lat="37.6823621" lon="13.843647"><ele>443.75</ele><time>2026-04-26T08:52:42.316Z</time></trkpt><trkpt lat="37.6823942" lon="13.8438112"><ele>443.0</ele><time>2026-04-26T08:52:43.316Z</time></trkpt><trkpt lat="37.6824127" lon="13.8439759"><ele>443.0</ele><time>2026-04-26T08:52:44.316Z</time></trkpt><trkpt lat="37.682401" lon="13.8441355"><ele>442.99999999999994</ele><time>2026-04-26T08:52:45.316Z</time></trkpt><trkpt lat="37.6823592" lon="13.8442689"><ele>442.99999999999994</ele><time>2026-04-26T08:52:46.316Z</time></trkpt><trkpt lat="37.6823069" lon="13.8443593"><ele>443.0</ele><time>2026-04-26T08:52:47.316Z</time></trkpt><trkpt lat="37.6822164" lon="13.8444232"><ele>443.0</ele><time>2026-04-26T08:52:48.316Z</time></trkpt><trkpt lat="37.6821113" lon="13.8444533"><ele>444.0</ele><time>2026-04-26T08:52:49.316Z</time></trkpt><trkpt lat="37.6819899" lon="13.8444864"><ele>445.0</ele><time>2026-04-26T08:52:50.316Z</time></trkpt><trkpt lat="37.6818584" lon="13.8445352"><ele>446.0</ele><time>2026-04-26T08:52:51.316Z</time></trkpt><trkpt lat="37.6817079" lon="13.844604"><ele>447.0</ele><time>2026-04-26T08:52:52.316Z</time></trkpt><trkpt lat="37.6815636" lon="13.8447033"><ele>447.0</ele><time>2026-04-26T08:52:53.316Z</time></trkpt><trkpt lat="37.6814172" lon="13.8448053"><ele>447.0</ele><time>2026-04-26T08:52:54.316Z</time></trkpt><trkpt lat="37.6812654" lon="13.8449109"><ele>447.0</ele><time>2026-04-26T08:52:55.316Z</time></trkpt><trkpt lat="37.681123" lon="13.845006"><ele>447.33333333333337</ele><time>2026-04-26T08:52:56.316Z</time></trkpt><trkpt lat="37.6809885" lon="13.8450954"><ele>447.6666666666667</ele><time>2026-04-26T08:52:57.316Z</time></trkpt><trkpt lat="37.6808517" lon="13.8451655"><ele>448.0</ele><time>2026-04-26T08:52:58.316Z</time></trkpt><trkpt lat="37.6807059" lon="13.8452127"><ele>448.0</ele><time>2026-04-26T08:52:59.316Z</time></trkpt><trkpt lat="37.6805601" lon="13.8452443"><ele>448.0</ele><time>2026-04-26T08:53:00.316Z</time></trkpt><trkpt lat="37.6804131" lon="13.8452591"><ele>448.0</ele><time>2026-04-26T08:53:01.315Z</time></trkpt><trkpt lat="37.680271" lon="13.8452489"><ele>448.0</ele><time>2026-04-26T08:53:02.316Z</time></trkpt><trkpt lat="37.680138" lon="13.8452121"><ele>448.25</ele><time>2026-04-26T08:53:03.316Z</time></trkpt><trkpt lat="37.6800096" lon="13.8451719"><ele>448.5</ele><time>2026-04-26T08:53:04.316Z</time></trkpt><trkpt lat="37.6798841" lon="13.8451453"><ele>448.75</ele><time>2026-04-26T08:53:05.316Z</time></trkpt><trkpt lat="37.6797454" lon="13.8451488"><ele>449.0</ele><time>2026-04-26T08:53:06.316Z</time></trkpt><trkpt lat="37.6796011" lon="13.8451829"><ele>449.0</ele><time>2026-04-26T08:53:07.316Z</time></trkpt><trkpt lat="37.6794502" lon="13.8452352"><ele>449.0</ele><time>2026-04-26T08:53:08.316Z</time></trkpt><trkpt lat="37.6792922" lon="13.8453033"><ele>449.0</ele><time>2026-04-26T08:53:09.316Z</time></trkpt><trkpt lat="37.6791232" lon="13.8453686"><ele>448.66666666666663</ele><time>2026-04-26T08:53:10.316Z</time></trkpt><trkpt lat="37.6789535" lon="13.845437"><ele>448.33333333333337</ele><time>2026-04-26T08:53:11.315Z</time></trkpt><trkpt lat="37.6787932" lon="13.8455064"><ele>448.0</ele><time>2026-04-26T08:53:12.316Z</time></trkpt><trkpt lat="37.6786284" lon="13.8455728"><ele>444.6666666666667</ele><time>2026-04-26T08:53:13.316Z</time></trkpt><trkpt lat="37.6784665" lon="13.845639"><ele>441.33333333333337</ele><time>2026-04-26T08:53:14.316Z</time></trkpt><trkpt lat="37.6783116" lon="13.8456973"><ele>438.0</ele><time>2026-04-26T08:53:15.316Z</time></trkpt><trkpt lat="37.6781591" lon="13.8457551"><ele>438.0</ele><time>2026-04-26T08:53:16.315Z</time></trkpt><trkpt lat="37.6780152" lon="13.8458173"><ele>438.0</ele><time>2026-04-26T08:53:17.316Z</time></trkpt><trkpt lat="37.6778817" lon="13.8458806"><ele>438.0</ele><time>2026-04-26T08:53:18.316Z</time></trkpt><trkpt lat="37.6777731" lon="13.8459505"><ele>438.0</ele><time>2026-04-26T08:53:19.316Z</time></trkpt><trkpt lat="37.6776924" lon="13.8460363"><ele>436.5</ele><time>2026-04-26T08:53:20.316Z</time></trkpt><trkpt lat="37.6776375" lon="13.8461473"><ele>435.0</ele><time>2026-04-26T08:53:21.316Z</time></trkpt><trkpt lat="37.6776064" lon="13.846284"><ele>433.5</ele><time>2026-04-26T08:53:22.316Z</time></trkpt><trkpt lat="37.6776076" lon="13.8464363"><ele>432.0</ele><time>2026-04-26T08:53:23.316Z</time></trkpt><trkpt lat="37.6776022" lon="13.8465921"><ele>432.0</ele><time>2026-04-26T08:53:24.316Z</time></trkpt><trkpt lat="37.6775805" lon="13.8467418"><ele>432.00000000000006</ele><time>2026-04-26T08:53:25.316Z</time></trkpt><trkpt lat="37.677535" lon="13.8468723"><ele>432.00000000000006</ele><time>2026-04-26T08:53:26.316Z</time></trkpt><trkpt lat="37.6774675" lon="13.8469687"><ele>432.0</ele><time>2026-04-26T08:53:27.316Z</time></trkpt><trkpt lat="37.677386" lon="13.8470183"><ele>432.0</ele><time>2026-04-26T08:53:28.316Z</time></trkpt><trkpt lat="37.6772806" lon="13.847035"><ele>433.75</ele><time>2026-04-26T08:53:29.316Z</time></trkpt><trkpt lat="37.6771691" lon="13.8470423"><ele>435.5</ele><time>2026-04-26T08:53:30.316Z</time></trkpt><trkpt lat="37.6770524" lon="13.8470567"><ele>437.25</ele><time>2026-04-26T08:53:31.316Z</time></trkpt><trkpt lat="37.6769373" lon="13.8470944"><ele>439.0</ele><time>2026-04-26T08:53:32.316Z</time></trkpt><trkpt lat="37.6768137" lon="13.8471242"><ele>439.0</ele><time>2026-04-26T08:53:33.316Z</time></trkpt><trkpt lat="37.6766904" lon="13.8471906"><ele>439.0</ele><time>2026-04-26T08:53:34.315Z</time></trkpt><trkpt lat="37.6765701" lon="13.8472852"><ele>439.0</ele><time>2026-04-26T08:53:35.316Z</time></trkpt><trkpt lat="37.6764471" lon="13.8474021"><ele>439.0</ele><time>2026-04-26T08:53:36.316Z</time></trkpt><trkpt lat="37.6763224" lon="13.8475223"><ele>437.25</ele><time>2026-04-26T08:53:37.316Z</time></trkpt><trkpt lat="37.6762049" lon="13.8476357"><ele>435.5</ele><time>2026-04-26T08:53:38.316Z</time></trkpt><trkpt lat="37.6760939" lon="13.8477455"><ele>433.75</ele><time>2026-04-26T08:53:39.316Z</time></trkpt><trkpt lat="37.6760003" lon="13.8478656"><ele>432.0</ele><time>2026-04-26T08:53:40.316Z</time></trkpt><trkpt lat="37.6759296" lon="13.8480151"><ele>432.0</ele><time>2026-04-26T08:53:41.316Z</time></trkpt><trkpt lat="37.6758684" lon="13.8481843"><ele>432.0</ele><time>2026-04-26T08:53:42.316Z</time></trkpt><trkpt lat="37.6758039" lon="13.8483674"><ele>432.0</ele><time>2026-04-26T08:53:43.316Z</time></trkpt><trkpt lat="37.6757414" lon="13.8485431"><ele>432.66666666666663</ele><time>2026-04-26T08:53:44.316Z</time></trkpt><trkpt lat="37.6757019" lon="13.8487127"><ele>433.3333333333333</ele><time>2026-04-26T08:53:45.316Z</time></trkpt><trkpt lat="37.6756786" lon="13.8489012"><ele>434.0</ele><time>2026-04-26T08:53:46.316Z</time></trkpt><trkpt lat="37.6756717" lon="13.8491112"><ele>433.0</ele><time>2026-04-26T08:53:47.316Z</time></trkpt><trkpt lat="37.6756699" lon="13.8493335"><ele>432.0</ele><time>2026-04-26T08:53:48.316Z</time></trkpt><trkpt lat="37.6756683" lon="13.8495523"><ele>431.0</ele><time>2026-04-26T08:53:49.316Z</time></trkpt><trkpt lat="37.6756713" lon="13.8497734"><ele>431.0</ele><time>2026-04-26T08:53:50.316Z</time></trkpt><trkpt lat="37.6756729" lon="13.8499882"><ele>431.0</ele><time>2026-04-26T08:53:51.316Z</time></trkpt><trkpt lat="37.6756845" lon="13.8501885"><ele>431.0</ele><time>2026-04-26T08:53:52.316Z</time></trkpt><trkpt lat="37.6757005" lon="13.850385"><ele>429.66666666666663</ele><time>2026-04-26T08:53:53.316Z</time></trkpt><trkpt lat="37.6757355" lon="13.8505794"><ele>428.33333333333337</ele><time>2026-04-26T08:53:54.316Z</time></trkpt><trkpt lat="37.6757944" lon="13.8507584"><ele>427.0</ele><time>2026-04-26T08:53:55.316Z</time></trkpt><trkpt lat="37.6758335" lon="13.8509377"><ele>427.5</ele><time>2026-04-26T08:53:56.316Z</time></trkpt><trkpt lat="37.675848" lon="13.8511086"><ele>428.0</ele><time>2026-04-26T08:53:57.315Z</time></trkpt><trkpt lat="37.6758219" lon="13.8512864"><ele>428.5</ele><time>2026-04-26T08:53:58.316Z</time></trkpt><trkpt lat="37.6757818" lon="13.8514328"><ele>429.0</ele><time>2026-04-26T08:53:59.316Z</time></trkpt><trkpt lat="37.6757299" lon="13.8515889"><ele>429.0</ele><time>2026-04-26T08:54:00.316Z</time></trkpt><trkpt lat="37.6756968" lon="13.8517359"><ele>429.0</ele><time>2026-04-26T08:54:01.316Z</time></trkpt><trkpt lat="37.6756793" lon="13.8518988"><ele>429.0</ele><time>2026-04-26T08:54:02.316Z</time></trkpt><trkpt lat="37.6756806" lon="13.8520763"><ele>429.0</ele><time>2026-04-26T08:54:03.316Z</time></trkpt><trkpt lat="37.6757018" lon="13.852261"><ele>428.0</ele><time>2026-04-26T08:54:04.316Z</time></trkpt><trkpt lat="37.6757343" lon="13.8524529"><ele>427.0</ele><time>2026-04-26T08:54:05.316Z</time></trkpt><trkpt lat="37.6757682" lon="13.8526364"><ele>426.0</ele><time>2026-04-26T08:54:06.316Z</time></trkpt><trkpt lat="37.6757765" lon="13.8528205"><ele>426.0</ele><time>2026-04-26T08:54:07.316Z</time></trkpt><trkpt lat="37.6757625" lon="13.8530126"><ele>426.0</ele><time>2026-04-26T08:54:08.315Z</time></trkpt><trkpt lat="37.6757312" lon="13.8532246"><ele>426.0</ele><time>2026-04-26T08:54:09.316Z</time></trkpt><trkpt lat="37.6756908" lon="13.853434"><ele>426.0</ele><time>2026-04-26T08:54:10.315Z</time></trkpt><trkpt lat="37.675655" lon="13.8536511"><ele>426.0</ele><time>2026-04-26T08:54:11.316Z</time></trkpt><trkpt lat="37.6756212" lon="13.853877"><ele>426.0</ele><time>2026-04-26T08:54:12.316Z</time></trkpt><trkpt lat="37.6755851" lon="13.8541047"><ele>424.33333333333337</ele><time>2026-04-26T08:54:13.316Z</time></trkpt><trkpt lat="37.6755538" lon="13.8543224"><ele>422.6666666666667</ele><time>2026-04-26T08:54:14.316Z</time></trkpt><trkpt lat="37.6755304" lon="13.8545285"><ele>421.0</ele><time>2026-04-26T08:54:15.316Z</time></trkpt><trkpt lat="37.6755219" lon="13.854721"><ele>421.0</ele><time>2026-04-26T08:54:16.316Z</time></trkpt><trkpt lat="37.6755442" lon="13.8549147"><ele>421.0</ele><time>2026-04-26T08:54:17.316Z</time></trkpt><trkpt lat="37.675608" lon="13.8551068"><ele>421.0</ele><time>2026-04-26T08:54:18.316Z</time></trkpt><trkpt lat="37.6756967" lon="13.8552978"><ele>420.0</ele><time>2026-04-26T08:54:19.316Z</time></trkpt><trkpt lat="37.675773" lon="13.8554755"><ele>419.0</ele><time>2026-04-26T08:54:20.316Z</time></trkpt><trkpt lat="37.6758251" lon="13.8556444"><ele>418.0</ele><time>2026-04-26T08:54:21.315Z</time></trkpt><trkpt lat="37.6758449" lon="13.8558124"><ele>417.0</ele><time>2026-04-26T08:54:22.316Z</time></trkpt><trkpt lat="37.6758338" lon="13.8560017"><ele>417.0</ele><time>2026-04-26T08:54:23.316Z</time></trkpt><trkpt lat="37.6757844" lon="13.8562059"><ele>417.0</ele><time>2026-04-26T08:54:24.316Z</time></trkpt><trkpt lat="37.6757102" lon="13.8564115"><ele>417.0</ele><time>2026-04-26T08:54:25.316Z</time></trkpt><trkpt lat="37.6756218" lon="13.8566296"><ele>419.33333333333337</ele><time>2026-04-26T08:54:26.316Z</time></trkpt><trkpt lat="37.6755317" lon="13.8568636"><ele>421.6666666666667</ele><time>2026-04-26T08:54:27.316Z</time></trkpt><trkpt lat="37.675432" lon="13.8571126"><ele>424.0</ele><time>2026-04-26T08:54:28.316Z</time></trkpt><trkpt lat="37.6753316" lon="13.8573692"><ele>421.0</ele><time>2026-04-26T08:54:29.316Z</time></trkpt><trkpt lat="37.6752396" lon="13.8576243"><ele>418.0</ele><time>2026-04-26T08:54:30.316Z</time></trkpt><trkpt lat="37.6751495" lon="13.8578687"><ele>415.0</ele><time>2026-04-26T08:54:31.316Z</time></trkpt><trkpt lat="37.6750614" lon="13.8581098"><ele>415.0</ele><time>2026-04-26T08:54:32.316Z</time></trkpt><trkpt lat="37.6749702" lon="13.8583421"><ele>415.0</ele><time>2026-04-26T08:54:33.316Z</time></trkpt><trkpt lat="37.6748832" lon="13.8585774"><ele>415.0</ele><time>2026-04-26T08:54:34.316Z</time></trkpt><trkpt lat="37.6748" lon="13.8588214"><ele>416.33333333333337</ele><time>2026-04-26T08:54:35.316Z</time></trkpt><trkpt lat="37.6747294" lon="13.8590547"><ele>417.66666666666663</ele><time>2026-04-26T08:54:36.316Z</time></trkpt><trkpt lat="37.6746447" lon="13.8592867"><ele>419.0</ele><time>2026-04-26T08:54:37.316Z</time></trkpt><trkpt lat="37.6745751" lon="13.8595302"><ele>419.3333333333333</ele><time>2026-04-26T08:54:38.316Z</time></trkpt><trkpt lat="37.674518" lon="13.8597843"><ele>419.66666666666663</ele><time>2026-04-26T08:54:39.315Z</time></trkpt><trkpt lat="37.6744724" lon="13.8600438"><ele>420.0</ele><time>2026-04-26T08:54:40.316Z</time></trkpt><trkpt lat="37.6744333" lon="13.8602976"><ele>416.33333333333337</ele><time>2026-04-26T08:54:41.316Z</time></trkpt><trkpt lat="37.6743898" lon="13.8605386"><ele>412.6666666666667</ele><time>2026-04-26T08:54:42.316Z</time></trkpt><trkpt lat="37.6743464" lon="13.8607665"><ele>409.0</ele><time>2026-04-26T08:54:43.316Z</time></trkpt><trkpt lat="37.6743296" lon="13.8610016"><ele>408.33333333333337</ele><time>2026-04-26T08:54:44.316Z</time></trkpt><trkpt lat="37.6743314" lon="13.8612456"><ele>407.66666666666663</ele><time>2026-04-26T08:54:45.316Z</time></trkpt><trkpt lat="37.67434" lon="13.8615031"><ele>407.0</ele><time>2026-04-26T08:54:46.315Z</time></trkpt><trkpt lat="37.6743582" lon="13.8617625"><ele>406.0</ele><time>2026-04-26T08:54:47.316Z</time></trkpt><trkpt lat="37.6743821" lon="13.8620358"><ele>405.0</ele><time>2026-04-26T08:54:48.316Z</time></trkpt><trkpt lat="37.6744108" lon="13.8623226"><ele>404.0</ele><time>2026-04-26T08:54:49.316Z</time></trkpt><trkpt lat="37.6744519" lon="13.86261"><ele>408.5</ele><time>2026-04-26T08:54:50.316Z</time></trkpt><trkpt lat="37.6744977" lon="13.8629025"><ele>413.0</ele><time>2026-04-26T08:54:51.316Z</time></trkpt><trkpt lat="37.6745381" lon="13.8631964"><ele>411.0</ele><time>2026-04-26T08:54:52.316Z</time></trkpt><trkpt lat="37.6745703" lon="13.8634821"><ele>409.0</ele><time>2026-04-26T08:54:53.316Z</time></trkpt><trkpt lat="37.6745753" lon="13.8637679"><ele>409.0</ele><time>2026-04-26T08:54:54.315Z</time></trkpt><trkpt lat="37.6745767" lon="13.8640344"><ele>409.0</ele><time>2026-04-26T08:54:55.316Z</time></trkpt><trkpt lat="37.6745813" lon="13.8643034"><ele>409.0</ele><time>2026-04-26T08:54:56.316Z</time></trkpt><trkpt lat="37.6745967" lon="13.8645809"><ele>408.6666666666667</ele><time>2026-04-26T08:54:57.316Z</time></trkpt><trkpt lat="37.6746293" lon="13.8648577"><ele>408.33333333333337</ele><time>2026-04-26T08:54:58.316Z</time></trkpt><trkpt lat="37.6746624" lon="13.8651224"><ele>408.0</ele><time>2026-04-26T08:54:59.316Z</time></trkpt><trkpt lat="37.674672" lon="13.8653783"><ele>408.0</ele><time>2026-04-26T08:55:00.316Z</time></trkpt><trkpt lat="37.6746561" lon="13.8656312"><ele>408.0</ele><time>2026-04-26T08:55:01.316Z</time></trkpt><trkpt lat="37.6746351" lon="13.8658858"><ele>408.0</ele><time>2026-04-26T08:55:02.316Z</time></trkpt><trkpt lat="37.6746286" lon="13.8661495"><ele>408.0</ele><time>2026-04-26T08:55:03.315Z</time></trkpt><trkpt lat="37.6746322" lon="13.8664179"><ele>408.0</ele><time>2026-04-26T08:55:04.316Z</time></trkpt><trkpt lat="37.6746407" lon="13.8666931"><ele>408.0</ele><time>2026-04-26T08:55:05.316Z</time></trkpt><trkpt lat="37.6746421" lon="13.866985"><ele>408.0</ele><time>2026-04-26T08:55:06.316Z</time></trkpt><trkpt lat="37.6746337" lon="13.8672607"><ele>408.0</ele><time>2026-04-26T08:55:07.316Z</time></trkpt><trkpt lat="37.6746381" lon="13.8675225"><ele>408.0</ele><time>2026-04-26T08:55:08.315Z</time></trkpt><trkpt lat="37.6746523" lon="13.8677974"><ele>408.0</ele><time>2026-04-26T08:55:09.316Z</time></trkpt><trkpt lat="37.6746597" lon="13.8680616"><ele>408.0</ele><time>2026-04-26T08:55:10.316Z</time></trkpt><trkpt lat="37.6746525" lon="13.8683198"><ele>408.0</ele><time>2026-04-26T08:55:11.316Z</time></trkpt><trkpt lat="37.6746281" lon="13.8685686"><ele>409.0</ele><time>2026-04-26T08:55:12.316Z</time></trkpt><trkpt lat="37.6745838" lon="13.868802"><ele>410.0</ele><time>2026-04-26T08:55:13.315Z</time></trkpt><trkpt lat="37.6745116" lon="13.869036"><ele>411.0</ele><time>2026-04-26T08:55:14.316Z</time></trkpt><trkpt lat="37.6744166" lon="13.8692606"><ele>408.0</ele><time>2026-04-26T08:55:15.316Z</time></trkpt><trkpt lat="37.6743159" lon="13.8694773"><ele>405.0</ele><time>2026-04-26T08:55:16.316Z</time></trkpt><trkpt lat="37.6742133" lon="13.8696795"><ele>402.0</ele><time>2026-04-26T08:55:17.316Z</time></trkpt><trkpt lat="37.6741215" lon="13.8698731"><ele>402.0</ele><time>2026-04-26T08:55:18.316Z</time></trkpt><trkpt lat="37.6740432" lon="13.8700755"><ele>402.0</ele><time>2026-04-26T08:55:19.315Z</time></trkpt><trkpt lat="37.6739783" lon="13.8702911"><ele>402.0</ele><time>2026-04-26T08:55:20.316Z</time></trkpt><trkpt lat="37.6739348" lon="13.8705096"><ele>401.66666666666663</ele><time>2026-04-26T08:55:21.316Z</time></trkpt><trkpt lat="37.6739111" lon="13.8707471"><ele>401.3333333333333</ele><time>2026-04-26T08:55:22.316Z</time></trkpt><trkpt lat="37.6739047" lon="13.8709962"><ele>401.0</ele><time>2026-04-26T08:55:23.316Z</time></trkpt><trkpt lat="37.6739122" lon="13.8712369"><ele>400.0</ele><time>2026-04-26T08:55:24.316Z</time></trkpt><trkpt lat="37.6739226" lon="13.8714616"><ele>399.0</ele><time>2026-04-26T08:55:25.316Z</time></trkpt><trkpt lat="37.6739303" lon="13.8716655"><ele>398.0</ele><time>2026-04-26T08:55:26.316Z</time></trkpt><trkpt lat="37.6739174" lon="13.8718362"><ele>397.25</ele><time>2026-04-26T08:55:27.316Z</time></trkpt><trkpt lat="37.6738738" lon="13.8719809"><ele>396.5</ele><time>2026-04-26T08:55:28.316Z</time></trkpt><trkpt lat="37.673806" lon="13.8721243"><ele>395.75</ele><time>2026-04-26T08:55:29.316Z</time></trkpt><trkpt lat="37.6737204" lon="13.8722571"><ele>395.0</ele><time>2026-04-26T08:55:30.316Z</time></trkpt><trkpt lat="37.6736326" lon="13.8723775"><ele>394.75</ele><time>2026-04-26T08:55:31.316Z</time></trkpt><trkpt lat="37.6735433" lon="13.8724911"><ele>394.5</ele><time>2026-04-26T08:55:32.316Z</time></trkpt><trkpt lat="37.6734632" lon="13.8726114"><ele>394.25</ele><time>2026-04-26T08:55:33.316Z</time></trkpt><trkpt lat="37.6733968" lon="13.8727522"><ele>394.0</ele><time>2026-04-26T08:55:34.316Z</time></trkpt><trkpt lat="37.6733383" lon="13.8729235"><ele>394.33333333333337</ele><time>2026-04-26T08:55:35.316Z</time></trkpt><trkpt lat="37.6732807" lon="13.8731206"><ele>394.66666666666663</ele><time>2026-04-26T08:55:36.316Z</time></trkpt><trkpt lat="37.6732227" lon="13.8733429"><ele>395.0</ele><time>2026-04-26T08:55:37.316Z</time></trkpt><trkpt lat="37.6731663" lon="13.8735596"><ele>395.0</ele><time>2026-04-26T08:55:38.315Z</time></trkpt><trkpt lat="37.6731127" lon="13.8737682"><ele>395.0</ele><time>2026-04-26T08:55:39.316Z</time></trkpt><trkpt lat="37.6730608" lon="13.8739736"><ele>395.0</ele><time>2026-04-26T08:55:40.316Z</time></trkpt><trkpt lat="37.6729858" lon="13.8741875"><ele>394.3333333333333</ele><time>2026-04-26T08:55:41.316Z</time></trkpt><trkpt lat="37.6729078" lon="13.8744079"><ele>393.66666666666663</ele><time>2026-04-26T08:55:42.316Z</time></trkpt><trkpt lat="37.6728303" lon="13.8746412"><ele>393.0</ele><time>2026-04-26T08:55:43.316Z</time></trkpt><trkpt lat="37.6727528" lon="13.8748844"><ele>394.0</ele><time>2026-04-26T08:55:44.316Z</time></trkpt><trkpt lat="37.6726682" lon="13.8751437"><ele>395.0</ele><time>2026-04-26T08:55:45.315Z</time></trkpt><trkpt lat="37.6725832" lon="13.8754121"><ele>395.0</ele><time>2026-04-26T08:55:46.316Z</time></trkpt><trkpt lat="37.6724949" lon="13.8756741"><ele>395.0</ele><time>2026-04-26T08:55:47.316Z</time></trkpt><trkpt lat="37.6724078" lon="13.8759496"><ele>393.5</ele><time>2026-04-26T08:55:48.316Z</time></trkpt><trkpt lat="37.6723107" lon="13.8762345"><ele>392.0</ele><time>2026-04-26T08:55:49.316Z</time></trkpt><trkpt lat="37.6722177" lon="13.8765247"><ele>391.0</ele><time>2026-04-26T08:55:50.316Z</time></trkpt><trkpt lat="37.6721256" lon="13.8768255"><ele>390.0</ele><time>2026-04-26T08:55:51.316Z</time></trkpt><trkpt lat="37.6720358" lon="13.8771216"><ele>390.0</ele><time>2026-04-26T08:55:52.316Z</time></trkpt><trkpt lat="37.6719615" lon="13.8774101"><ele>390.0</ele><time>2026-04-26T08:55:53.316Z</time></trkpt><trkpt lat="37.6718896" lon="13.8776973"><ele>391.5</ele><time>2026-04-26T08:55:54.316Z</time></trkpt><trkpt lat="37.6718176" lon="13.877983"><ele>393.0</ele><time>2026-04-26T08:55:55.316Z</time></trkpt><trkpt lat="37.6717544" lon="13.8782679"><ele>392.5</ele><time>2026-04-26T08:55:56.316Z</time></trkpt><trkpt lat="37.6716901" lon="13.8785533"><ele>392.0</ele><time>2026-04-26T08:55:57.316Z</time></trkpt><trkpt lat="37.6716264" lon="13.8788438"><ele>392.0</ele><time>2026-04-26T08:55:58.316Z</time></trkpt><trkpt lat="37.6715608" lon="13.8791283"><ele>392.0</ele><time>2026-04-26T08:55:59.316Z</time></trkpt><trkpt lat="37.6714985" lon="13.8794115"><ele>390.5</ele><time>2026-04-26T08:56:00.316Z</time></trkpt><trkpt lat="37.6714355" lon="13.8796907"><ele>389.0</ele><time>2026-04-26T08:56:01.316Z</time></trkpt><trkpt lat="37.6713799" lon="13.8799619"><ele>388.3333333333333</ele><time>2026-04-26T08:56:02.316Z</time></trkpt><trkpt lat="37.6713324" lon="13.8802355"><ele>387.66666666666663</ele><time>2026-04-26T08:56:03.316Z</time></trkpt><trkpt lat="37.6712924" lon="13.880506"><ele>387.0</ele><time>2026-04-26T08:56:04.316Z</time></trkpt><trkpt lat="37.6712574" lon="13.880771"><ele>386.33333333333337</ele><time>2026-04-26T08:56:05.315Z</time></trkpt><trkpt lat="37.671223" lon="13.8810217"><ele>385.6666666666667</ele><time>2026-04-26T08:56:06.316Z</time></trkpt><trkpt lat="37.6711838" lon="13.8812605"><ele>385.0</ele><time>2026-04-26T08:56:07.316Z</time></trkpt><trkpt lat="37.6711419" lon="13.881477"><ele>386.0</ele><time>2026-04-26T08:56:08.316Z</time></trkpt><trkpt lat="37.6710886" lon="13.8816765"><ele>387.0</ele><time>2026-04-26T08:56:09.316Z</time></trkpt><trkpt lat="37.6710188" lon="13.881866"><ele>388.0</ele><time>2026-04-26T08:56:10.316Z</time></trkpt><trkpt lat="37.6709234" lon="13.8820365"><ele>388.0</ele><time>2026-04-26T08:56:11.316Z</time></trkpt><trkpt lat="37.6708026" lon="13.8821986"><ele>388.0</ele><time>2026-04-26T08:56:12.316Z</time></trkpt><trkpt lat="37.6706703" lon="13.8823539"><ele>388.0</ele><time>2026-04-26T08:56:13.316Z</time></trkpt><trkpt lat="37.6705351" lon="13.882512"><ele>388.33333333333337</ele><time>2026-04-26T08:56:14.315Z</time></trkpt><trkpt lat="37.6703967" lon="13.8826809"><ele>388.66666666666663</ele><time>2026-04-26T08:56:15.316Z</time></trkpt><trkpt lat="37.6702695" lon="13.882867"><ele>389.0</ele><time>2026-04-26T08:56:16.316Z</time></trkpt><trkpt lat="37.6701466" lon="13.8830614"><ele>389.0</ele><time>2026-04-26T08:56:17.316Z</time></trkpt><trkpt lat="37.6700289" lon="13.8832493"><ele>389.0</ele><time>2026-04-26T08:56:18.316Z</time></trkpt><trkpt lat="37.6699165" lon="13.8834186"><ele>389.0</ele><time>2026-04-26T08:56:19.316Z</time></trkpt><trkpt lat="37.6697874" lon="13.8835686"><ele>388.3333333333333</ele><time>2026-04-26T08:56:20.316Z</time></trkpt><trkpt lat="37.6696393" lon="13.8837054"><ele>387.66666666666663</ele><time>2026-04-26T08:56:21.316Z</time></trkpt><trkpt lat="37.6694924" lon="13.8838334"><ele>387.0</ele><time>2026-04-26T08:56:22.316Z</time></trkpt><trkpt lat="37.669347" lon="13.8839542"><ele>387.0</ele><time>2026-04-26T08:56:23.316Z</time></trkpt><trkpt lat="37.6691899" lon="13.8840904"><ele>387.0</ele><time>2026-04-26T08:56:24.315Z</time></trkpt><trkpt lat="37.6690274" lon="13.8842373"><ele>387.0</ele><time>2026-04-26T08:56:25.316Z</time></trkpt><trkpt lat="37.6688652" lon="13.8843978"><ele>386.33333333333337</ele><time>2026-04-26T08:56:26.316Z</time></trkpt><trkpt lat="37.6686955" lon="13.8845525"><ele>385.6666666666667</ele><time>2026-04-26T08:56:27.316Z</time></trkpt><trkpt lat="37.6685245" lon="13.884708"><ele>385.0</ele><time>2026-04-26T08:56:28.316Z</time></trkpt><trkpt lat="37.6683518" lon="13.8848694"><ele>385.0</ele><time>2026-04-26T08:56:29.315Z</time></trkpt><trkpt lat="37.668178" lon="13.8850331"><ele>385.0</ele><time>2026-04-26T08:56:30.316Z</time></trkpt><trkpt lat="37.6680026" lon="13.8851958"><ele>385.0</ele><time>2026-04-26T08:56:31.316Z</time></trkpt><trkpt lat="37.6678276" lon="13.8853524"><ele>384.6666666666667</ele><time>2026-04-26T08:56:32.316Z</time></trkpt><trkpt lat="37.6676543" lon="13.8855008"><ele>384.33333333333337</ele><time>2026-04-26T08:56:33.316Z</time></trkpt><trkpt lat="37.6674833" lon="13.8856607"><ele>384.0</ele><time>2026-04-26T08:56:34.316Z</time></trkpt><trkpt lat="37.6673176" lon="13.8857988"><ele>384.0</ele><time>2026-04-26T08:56:35.316Z</time></trkpt><trkpt lat="37.6671588" lon="13.8859379"><ele>384.0</ele><time>2026-04-26T08:56:36.316Z</time></trkpt><trkpt lat="37.6670151" lon="13.8860628"><ele>384.0</ele><time>2026-04-26T08:56:37.316Z</time></trkpt><trkpt lat="37.6669023" lon="13.8861727"><ele>384.0</ele><time>2026-04-26T08:56:38.316Z</time></trkpt><trkpt lat="37.6668183" lon="13.8862808"><ele>384.0</ele><time>2026-04-26T08:56:39.316Z</time></trkpt><trkpt lat="37.6667679" lon="13.8863908"><ele>384.0</ele><time>2026-04-26T08:56:40.316Z</time></trkpt><trkpt lat="37.6667582" lon="13.8865018"><ele>384.0</ele><time>2026-04-26T08:56:41.316Z</time></trkpt><trkpt lat="37.6667784" lon="13.8866027"><ele>384.0</ele><time>2026-04-26T08:56:42.316Z</time></trkpt><trkpt lat="37.6668136" lon="13.8866891"><ele>383.3333333333333</ele><time>2026-04-26T08:56:43.316Z</time></trkpt><trkpt lat="37.6668567" lon="13.8867666"><ele>382.6666666666667</ele><time>2026-04-26T08:56:44.316Z</time></trkpt><trkpt lat="37.6669071" lon="13.8868345"><ele>382.0</ele><time>2026-04-26T08:56:45.316Z</time></trkpt><trkpt lat="37.6669595" lon="13.8869196"><ele>381.33333333333337</ele><time>2026-04-26T08:56:46.316Z</time></trkpt><trkpt lat="37.6670091" lon="13.8870193"><ele>380.6666666666667</ele><time>2026-04-26T08:56:47.316Z</time></trkpt><trkpt lat="37.6670534" lon="13.8871269"><ele>380.0</ele><time>2026-04-26T08:56:48.316Z</time></trkpt><trkpt lat="37.6670795" lon="13.8872553"><ele>379.75</ele><time>2026-04-26T08:56:49.316Z</time></trkpt><trkpt lat="37.6670776" lon="13.8873959"><ele>379.5</ele><time>2026-04-26T08:56:50.316Z</time></trkpt><trkpt lat="37.6670534" lon="13.8875501"><ele>379.25</ele><time>2026-04-26T08:56:51.316Z</time></trkpt><trkpt lat="37.6670025" lon="13.8877097"><ele>379.0</ele><time>2026-04-26T08:56:52.316Z</time></trkpt><trkpt lat="37.6669142" lon="13.8878816"><ele>378.0</ele><time>2026-04-26T08:56:53.316Z</time></trkpt><trkpt lat="37.666822" lon="13.8880447"><ele>377.0</ele><time>2026-04-26T08:56:54.316Z</time></trkpt><trkpt lat="37.6667275" lon="13.8881999"><ele>376.0</ele><time>2026-04-26T08:56:55.316Z</time></trkpt><trkpt lat="37.6666518" lon="13.8883559"><ele>376.25</ele><time>2026-04-26T08:56:56.316Z</time></trkpt><trkpt lat="37.6666045" lon="13.8885088"><ele>376.5</ele><time>2026-04-26T08:56:57.316Z</time></trkpt><trkpt lat="37.6665894" lon="13.8886552"><ele>376.75</ele><time>2026-04-26T08:56:58.316Z</time></trkpt><trkpt lat="37.6666132" lon="13.888794"><ele>377.0</ele><time>2026-04-26T08:56:59.315Z</time></trkpt><trkpt lat="37.6666645" lon="13.8889301"><ele>377.0</ele><time>2026-04-26T08:57:00.316Z</time></trkpt><trkpt lat="37.6667342" lon="13.8890892"><ele>377.0</ele><time>2026-04-26T08:57:01.316Z</time></trkpt><trkpt lat="37.6668294" lon="13.889218"><ele>377.0</ele><time>2026-04-26T08:57:02.316Z</time></trkpt><trkpt lat="37.666869" lon="13.8893443"><ele>377.0</ele><time>2026-04-26T08:57:03.316Z</time></trkpt><trkpt lat="37.6668704" lon="13.8894739"><ele>377.25</ele><time>2026-04-26T08:57:04.316Z</time></trkpt><trkpt lat="37.666847" lon="13.889619"><ele>377.5</ele><time>2026-04-26T08:57:05.316Z</time></trkpt><trkpt lat="37.6667894" lon="13.8897877"><ele>377.75</ele><time>2026-04-26T08:57:06.316Z</time></trkpt><trkpt lat="37.666719" lon="13.8899625"><ele>378.0</ele><time>2026-04-26T08:57:07.316Z</time></trkpt><trkpt lat="37.6666334" lon="13.8901447"><ele>378.0</ele><time>2026-04-26T08:57:08.316Z</time></trkpt><trkpt lat="37.666533" lon="13.8903293"><ele>378.0</ele><time>2026-04-26T08:57:09.316Z</time></trkpt><trkpt lat="37.6664255" lon="13.8904951"><ele>378.0</ele><time>2026-04-26T08:57:10.316Z</time></trkpt><trkpt lat="37.6663068" lon="13.8906334"><ele>378.0</ele><time>2026-04-26T08:57:11.316Z</time></trkpt><trkpt lat="37.6661911" lon="13.8907524"><ele>378.0</ele><time>2026-04-26T08:57:12.316Z</time></trkpt><trkpt lat="37.6660634" lon="13.8908633"><ele>378.0</ele><time>2026-04-26T08:57:13.316Z</time></trkpt><trkpt lat="37.6659206" lon="13.8909789"><ele>378.0</ele><time>2026-04-26T08:57:14.316Z</time></trkpt><trkpt lat="37.665764" lon="13.8910902"><ele>378.0</ele><time>2026-04-26T08:57:15.316Z</time></trkpt><trkpt lat="37.665599" lon="13.8912089"><ele>378.0</ele><time>2026-04-26T08:57:16.315Z</time></trkpt><trkpt lat="37.6654239" lon="13.8913293"><ele>376.6666666666667</ele><time>2026-04-26T08:57:17.316Z</time></trkpt><trkpt lat="37.6652435" lon="13.8914606"><ele>375.33333333333337</ele><time>2026-04-26T08:57:18.316Z</time></trkpt><trkpt lat="37.6650663" lon="13.8915914"><ele>374.0</ele><time>2026-04-26T08:57:19.316Z</time></trkpt><trkpt lat="37.6648852" lon="13.8917261"><ele>374.33333333333337</ele><time>2026-04-26T08:57:20.316Z</time></trkpt><trkpt lat="37.6647019" lon="13.8918682"><ele>374.6666666666667</ele><time>2026-04-26T08:57:21.316Z</time></trkpt><trkpt lat="37.6645225" lon="13.8920136"><ele>375.0</ele><time>2026-04-26T08:57:22.316Z</time></trkpt><trkpt lat="37.6643461" lon="13.8921619"><ele>375.0</ele><time>2026-04-26T08:57:23.316Z</time></trkpt><trkpt lat="37.664173" lon="13.8923106"><ele>375.0</ele><time>2026-04-26T08:57:24.315Z</time></trkpt><trkpt lat="37.6640015" lon="13.8924574"><ele>375.0</ele><time>2026-04-26T08:57:25.316Z</time></trkpt><trkpt lat="37.6638299" lon="13.8926055"><ele>375.0</ele><time>2026-04-26T08:57:26.316Z</time></trkpt><trkpt lat="37.6636592" lon="13.8927468"><ele>375.0</ele><time>2026-04-26T08:57:27.316Z</time></trkpt><trkpt lat="37.6635034" lon="13.8928784"><ele>375.0</ele><time>2026-04-26T08:57:28.316Z</time></trkpt><trkpt lat="37.6633474" lon="13.8930001"><ele>375.0</ele><time>2026-04-26T08:57:29.316Z</time></trkpt><trkpt lat="37.6631919" lon="13.8931125"><ele>375.0</ele><time>2026-04-26T08:57:30.316Z</time></trkpt><trkpt lat="37.6630239" lon="13.8931975"><ele>375.0</ele><time>2026-04-26T08:57:31.316Z</time></trkpt><trkpt lat="37.6628604" lon="13.8932858"><ele>375.5</ele><time>2026-04-26T08:57:32.316Z</time></trkpt><trkpt lat="37.6627035" lon="13.8933506"><ele>376.0</ele><time>2026-04-26T08:57:33.316Z</time></trkpt><trkpt lat="37.662564" lon="13.8934124"><ele>376.5</ele><time>2026-04-26T08:57:34.316Z</time></trkpt><trkpt lat="37.662438" lon="13.8934674"><ele>377.0</ele><time>2026-04-26T08:57:35.316Z</time></trkpt><trkpt lat="37.6623326" lon="13.8935302"><ele>377.8</ele><time>2026-04-26T08:57:36.316Z</time></trkpt><trkpt lat="37.6622506" lon="13.8936072"><ele>378.6</ele><time>2026-04-26T08:57:37.316Z</time></trkpt><trkpt lat="37.6621831" lon="13.8936855"><ele>379.40000000000003</ele><time>2026-04-26T08:57:38.316Z</time></trkpt><trkpt lat="37.6621298" lon="13.8937726"><ele>380.20000000000005</ele><time>2026-04-26T08:57:39.316Z</time></trkpt><trkpt lat="37.6620953" lon="13.8938689"><ele>381.0</ele><time>2026-04-26T08:57:40.316Z</time></trkpt><trkpt lat="37.6620795" lon="13.8939772"><ele>381.0</ele><time>2026-04-26T08:57:41.316Z</time></trkpt><trkpt lat="37.6620839" lon="13.894117"><ele>381.0</ele><time>2026-04-26T08:57:42.316Z</time></trkpt><trkpt lat="37.6620823" lon="13.8942712"><ele>381.0</ele><time>2026-04-26T08:57:43.316Z</time></trkpt><trkpt lat="37.6620835" lon="13.8944432"><ele>381.0</ele><time>2026-04-26T08:57:44.316Z</time></trkpt><trkpt lat="37.6620767" lon="13.8946275"><ele>381.3333333333333</ele><time>2026-04-26T08:57:45.316Z</time></trkpt><trkpt lat="37.6620637" lon="13.8948219"><ele>381.66666666666663</ele><time>2026-04-26T08:57:46.316Z</time></trkpt><trkpt lat="37.6620567" lon="13.8950232"><ele>382.0</ele><time>2026-04-26T08:57:47.316Z</time></trkpt><trkpt lat="37.6620447" lon="13.8952226"><ele>382.3333333333333</ele><time>2026-04-26T08:57:48.316Z</time></trkpt><trkpt lat="37.6620244" lon="13.8954264"><ele>382.6666666666667</ele><time>2026-04-26T08:57:49.316Z</time></trkpt><trkpt lat="37.6620061" lon="13.8956309"><ele>383.0</ele><time>2026-04-26T08:57:50.316Z</time></trkpt><trkpt lat="37.6619821" lon="13.8958273"><ele>380.33333333333337</ele><time>2026-04-26T08:57:51.316Z</time></trkpt><trkpt lat="37.6619547" lon="13.8960221"><ele>377.6666666666667</ele><time>2026-04-26T08:57:52.316Z</time></trkpt><trkpt lat="37.661919" lon="13.8962089"><ele>375.0</ele><time>2026-04-26T08:57:53.316Z</time></trkpt><trkpt lat="37.6618704" lon="13.8963973"><ele>375.0</ele><time>2026-04-26T08:57:54.316Z</time></trkpt><trkpt lat="37.6618134" lon="13.896592"><ele>375.0</ele><time>2026-04-26T08:57:55.316Z</time></trkpt><trkpt lat="37.6617547" lon="13.8968025"><ele>375.0</ele><time>2026-04-26T08:57:56.316Z</time></trkpt><trkpt lat="37.6616922" lon="13.8970114"><ele>375.6666666666667</ele><time>2026-04-26T08:57:57.316Z</time></trkpt><trkpt lat="37.6616284" lon="13.8972195"><ele>376.33333333333337</ele><time>2026-04-26T08:57:58.316Z</time></trkpt><trkpt lat="37.6615615" lon="13.8974243"><ele>377.0</ele><time>2026-04-26T08:57:59.316Z</time></trkpt><trkpt lat="37.6614915" lon="13.8976332"><ele>377.0</ele><time>2026-04-26T08:58:00.316Z</time></trkpt><trkpt lat="37.6614212" lon="13.8978412"><ele>377.0</ele><time>2026-04-26T08:58:01.315Z</time></trkpt><trkpt lat="37.6613497" lon="13.8980435"><ele>377.0</ele><time>2026-04-26T08:58:02.316Z</time></trkpt><trkpt lat="37.6612801" lon="13.8982303"><ele>377.0</ele><time>2026-04-26T08:58:03.316Z</time></trkpt><trkpt lat="37.6612103" lon="13.8984086"><ele>377.0</ele><time>2026-04-26T08:58:04.316Z</time></trkpt><trkpt lat="37.6611473" lon="13.8985852"><ele>377.0</ele><time>2026-04-26T08:58:05.316Z</time></trkpt><trkpt lat="37.6611002" lon="13.8987631"><ele>377.75</ele><time>2026-04-26T08:58:06.316Z</time></trkpt><trkpt lat="37.6610784" lon="13.898949"><ele>378.5</ele><time>2026-04-26T08:58:07.316Z</time></trkpt><trkpt lat="37.6610795" lon="13.8991391"><ele>379.25</ele><time>2026-04-26T08:58:08.316Z</time></trkpt><trkpt lat="37.6610932" lon="13.8993184"><ele>380.0</ele><time>2026-04-26T08:58:09.316Z</time></trkpt><trkpt lat="37.6611301" lon="13.8994742"><ele>380.0</ele><time>2026-04-26T08:58:10.316Z</time></trkpt><trkpt lat="37.6612016" lon="13.8996184"><ele>380.0</ele><time>2026-04-26T08:58:11.316Z</time></trkpt><trkpt lat="37.6612987" lon="13.8997568"><ele>380.0</ele><time>2026-04-26T08:58:12.316Z</time></trkpt><trkpt lat="37.6614017" lon="13.899895"><ele>380.0</ele><time>2026-04-26T08:58:13.316Z</time></trkpt><trkpt lat="37.6615011" lon="13.9000395"><ele>383.33333333333337</ele><time>2026-04-26T08:58:14.316Z</time></trkpt><trkpt lat="37.6616037" lon="13.9001827"><ele>386.6666666666667</ele><time>2026-04-26T08:58:15.316Z</time></trkpt><trkpt lat="37.6617074" lon="13.90033"><ele>390.0</ele><time>2026-04-26T08:58:16.316Z</time></trkpt><trkpt lat="37.6618087" lon="13.9004844"><ele>390.0</ele><time>2026-04-26T08:58:17.316Z</time></trkpt><trkpt lat="37.6618979" lon="13.9006372"><ele>390.0</ele><time>2026-04-26T08:58:18.316Z</time></trkpt><trkpt lat="37.6619911" lon="13.9008007"><ele>390.0</ele><time>2026-04-26T08:58:19.316Z</time></trkpt><trkpt lat="37.6620819" lon="13.9009524"><ele>388.75</ele><time>2026-04-26T08:58:20.316Z</time></trkpt><trkpt lat="37.6621706" lon="13.9010943"><ele>387.5</ele><time>2026-04-26T08:58:21.316Z</time></trkpt><trkpt lat="37.66225" lon="13.9012304"><ele>386.25</ele><time>2026-04-26T08:58:22.316Z</time></trkpt><trkpt lat="37.6623139" lon="13.9013662"><ele>385.0</ele><time>2026-04-26T08:58:23.316Z</time></trkpt><trkpt lat="37.6623679" lon="13.9015198"><ele>385.0</ele><time>2026-04-26T08:58:24.315Z</time></trkpt><trkpt lat="37.6623977" lon="13.9016843"><ele>385.0</ele><time>2026-04-26T08:58:25.316Z</time></trkpt><trkpt lat="37.6624099" lon="13.9018571"><ele>385.0</ele><time>2026-04-26T08:58:26.316Z</time></trkpt><trkpt lat="37.6624154" lon="13.9020379"><ele>385.0</ele><time>2026-04-26T08:58:27.316Z</time></trkpt><trkpt lat="37.6624242" lon="13.9022221"><ele>386.0</ele><time>2026-04-26T08:58:28.316Z</time></trkpt><trkpt lat="37.6624298" lon="13.9023914"><ele>387.0</ele><time>2026-04-26T08:58:29.316Z</time></trkpt><trkpt lat="37.662431" lon="13.9025671"><ele>388.0</ele><time>2026-04-26T08:58:30.316Z</time></trkpt><trkpt lat="37.6624113" lon="13.9027346"><ele>389.0</ele><time>2026-04-26T08:58:31.316Z</time></trkpt><trkpt lat="37.6623701" lon="13.9028818"><ele>389.0</ele><time>2026-04-26T08:58:32.316Z</time></trkpt><trkpt lat="37.662309" lon="13.9030107"><ele>389.0</ele><time>2026-04-26T08:58:33.316Z</time></trkpt><trkpt lat="37.6622291" lon="13.903123"><ele>389.0</ele><time>2026-04-26T08:58:34.316Z</time></trkpt><trkpt lat="37.6621451" lon="13.9032329"><ele>389.0</ele><time>2026-04-26T08:58:35.315Z</time></trkpt><trkpt lat="37.6620806" lon="13.9033626"><ele>389.25</ele><time>2026-04-26T08:58:36.316Z</time></trkpt><trkpt lat="37.6620481" lon="13.9035042"><ele>389.5</ele><time>2026-04-26T08:58:37.316Z</time></trkpt><trkpt lat="37.6620358" lon="13.9036564"><ele>389.75</ele><time>2026-04-26T08:58:38.316Z</time></trkpt><trkpt lat="37.6620441" lon="13.9038295"><ele>390.0</ele><time>2026-04-26T08:58:39.316Z</time></trkpt><trkpt lat="37.6620591" lon="13.9040027"><ele>390.0</ele><time>2026-04-26T08:58:40.316Z</time></trkpt><trkpt lat="37.6620694" lon="13.9041773"><ele>390.0</ele><time>2026-04-26T08:58:41.316Z</time></trkpt><trkpt lat="37.662087" lon="13.9043651"><ele>390.0</ele><time>2026-04-26T08:58:42.316Z</time></trkpt><trkpt lat="37.6621011" lon="13.9045511"><ele>390.0</ele><time>2026-04-26T08:58:43.315Z</time></trkpt><trkpt lat="37.6621174" lon="13.9047399"><ele>391.25</ele><time>2026-04-26T08:58:44.316Z</time></trkpt><trkpt lat="37.6621373" lon="13.9049118"><ele>392.5</ele><time>2026-04-26T08:58:45.315Z</time></trkpt><trkpt lat="37.6621622" lon="13.9050625"><ele>393.75</ele><time>2026-04-26T08:58:46.316Z</time></trkpt><trkpt lat="37.662208" lon="13.9051935"><ele>395.0</ele><time>2026-04-26T08:58:47.316Z</time></trkpt><trkpt lat="37.6622748" lon="13.905308"><ele>397.25</ele><time>2026-04-26T08:58:48.316Z</time></trkpt><trkpt lat="37.662373" lon="13.9054144"><ele>399.5</ele><time>2026-04-26T08:58:49.316Z</time></trkpt><trkpt lat="37.6624874" lon="13.9054914"><ele>401.75</ele><time>2026-04-26T08:58:50.316Z</time></trkpt><trkpt lat="37.6626121" lon="13.9055688"><ele>404.0</ele><time>2026-04-26T08:58:51.316Z</time></trkpt><trkpt lat="37.6627402" lon="13.9056435"><ele>403.25</ele><time>2026-04-26T08:58:52.316Z</time></trkpt><trkpt lat="37.6628761" lon="13.9057143"><ele>402.5</ele><time>2026-04-26T08:58:53.316Z</time></trkpt><trkpt lat="37.6630167" lon="13.9057882"><ele>401.75</ele><time>2026-04-26T08:58:54.316Z</time></trkpt><trkpt lat="37.6631552" lon="13.9058601"><ele>401.0</ele><time>2026-04-26T08:58:55.316Z</time></trkpt><trkpt lat="37.663291" lon="13.9059258"><ele>402.5</ele><time>2026-04-26T08:58:56.316Z</time></trkpt><trkpt lat="37.6634207" lon="13.9059956"><ele>404.0</ele><time>2026-04-26T08:58:57.316Z</time></trkpt><trkpt lat="37.6635426" lon="13.9060625"><ele>405.5</ele><time>2026-04-26T08:58:58.316Z</time></trkpt><trkpt lat="37.6636555" lon="13.9061343"><ele>407.0</ele><time>2026-04-26T08:58:59.316Z</time></trkpt><trkpt lat="37.6637732" lon="13.9062157"><ele>407.0</ele><time>2026-04-26T08:59:00.316Z</time></trkpt><trkpt lat="37.6638959" lon="13.9063122"><ele>407.0</ele><time>2026-04-26T08:59:01.315Z</time></trkpt><trkpt lat="37.6640298" lon="13.9064083"><ele>407.0</ele><time>2026-04-26T08:59:02.316Z</time></trkpt><trkpt lat="37.6641649" lon="13.9065058"><ele>407.0</ele><time>2026-04-26T08:59:03.316Z</time></trkpt><trkpt lat="37.6642888" lon="13.906603"><ele>407.0</ele><time>2026-04-26T08:59:04.316Z</time></trkpt><trkpt lat="37.6643975" lon="13.9066891"><ele>407.0</ele><time>2026-04-26T08:59:05.316Z</time></trkpt><trkpt lat="37.6644971" lon="13.9067823"><ele>407.0</ele><time>2026-04-26T08:59:06.316Z</time></trkpt><trkpt lat="37.6645896" lon="13.9068942"><ele>406.5</ele><time>2026-04-26T08:59:07.315Z</time></trkpt><trkpt lat="37.6646804" lon="13.9070314"><ele>406.0</ele><time>2026-04-26T08:59:08.316Z</time></trkpt><trkpt lat="37.6647722" lon="13.9071808"><ele>405.5</ele><time>2026-04-26T08:59:09.316Z</time></trkpt><trkpt lat="37.6648602" lon="13.9073289"><ele>405.0</ele><time>2026-04-26T08:59:10.315Z</time></trkpt><trkpt lat="37.6649427" lon="13.9074931"><ele>406.66666666666663</ele><time>2026-04-26T08:59:11.316Z</time></trkpt><trkpt lat="37.6650168" lon="13.9076736"><ele>408.3333333333333</ele><time>2026-04-26T08:59:12.316Z</time></trkpt><trkpt lat="37.6650933" lon="13.9078556"><ele>410.0</ele><time>2026-04-26T08:59:13.316Z</time></trkpt><trkpt lat="37.6651623" lon="13.9080516"><ele>410.0</ele><time>2026-04-26T08:59:14.315Z</time></trkpt><trkpt lat="37.6652359" lon="13.9082563"><ele>410.0</ele><time>2026-04-26T08:59:15.316Z</time></trkpt><trkpt lat="37.6653008" lon="13.9084664"><ele>410.0</ele><time>2026-04-26T08:59:16.316Z</time></trkpt><trkpt lat="37.6653658" lon="13.9086777"><ele>409.66666666666663</ele><time>2026-04-26T08:59:17.316Z</time></trkpt><trkpt lat="37.6654382" lon="13.9088929"><ele>409.33333333333337</ele><time>2026-04-26T08:59:18.316Z</time></trkpt><trkpt lat="37.6655052" lon="13.9091005"><ele>409.0</ele><time>2026-04-26T08:59:19.315Z</time></trkpt><trkpt lat="37.6655734" lon="13.9092933"><ele>410.0</ele><time>2026-04-26T08:59:20.316Z</time></trkpt><trkpt lat="37.6656442" lon="13.9094822"><ele>411.0</ele><time>2026-04-26T08:59:21.316Z</time></trkpt><trkpt lat="37.6657174" lon="13.9096656"><ele>412.0</ele><time>2026-04-26T08:59:22.316Z</time></trkpt><trkpt lat="37.6657714" lon="13.9098435"><ele>412.0</ele><time>2026-04-26T08:59:23.315Z</time></trkpt><trkpt lat="37.6658154" lon="13.9100179"><ele>412.0</ele><time>2026-04-26T08:59:24.316Z</time></trkpt><trkpt lat="37.6658475" lon="13.9101991"><ele>412.0</ele><time>2026-04-26T08:59:25.316Z</time></trkpt><trkpt lat="37.6658685" lon="13.9103909"><ele>412.0</ele><time>2026-04-26T08:59:26.316Z</time></trkpt><trkpt lat="37.6658838" lon="13.9106006"><ele>413.0</ele><time>2026-04-26T08:59:27.316Z</time></trkpt><trkpt lat="37.6659098" lon="13.9107958"><ele>414.0</ele><time>2026-04-26T08:59:28.316Z</time></trkpt><trkpt lat="37.6659388" lon="13.9109829"><ele>415.0</ele><time>2026-04-26T08:59:29.316Z</time></trkpt><trkpt lat="37.6659703" lon="13.9111379"><ele>416.0</ele><time>2026-04-26T08:59:30.316Z</time></trkpt><trkpt lat="37.6660193" lon="13.9112628"><ele>416.0</ele><time>2026-04-26T08:59:31.316Z</time></trkpt><trkpt lat="37.666079" lon="13.9113803"><ele>416.0</ele><time>2026-04-26T08:59:32.316Z</time></trkpt><trkpt lat="37.6661604" lon="13.911507"><ele>416.0</ele><time>2026-04-26T08:59:33.316Z</time></trkpt><trkpt lat="37.6662549" lon="13.911618"><ele>416.0</ele><time>2026-04-26T08:59:34.316Z</time></trkpt><trkpt lat="37.6663488" lon="13.9117341"><ele>417.0</ele><time>2026-04-26T08:59:35.316Z</time></trkpt><trkpt lat="37.6664345" lon="13.9118436"><ele>418.0</ele><time>2026-04-26T08:59:36.316Z</time></trkpt><trkpt lat="37.6664919" lon="13.9119832"><ele>419.0</ele><time>2026-04-26T08:59:37.316Z</time></trkpt><trkpt lat="37.6665313" lon="13.9121334"><ele>420.0</ele><time>2026-04-26T08:59:38.316Z</time></trkpt><trkpt lat="37.6665459" lon="13.9122897"><ele>420.0</ele><time>2026-04-26T08:59:39.316Z</time></trkpt><trkpt lat="37.6665514" lon="13.912446"><ele>420.0</ele><time>2026-04-26T08:59:40.315Z</time></trkpt><trkpt lat="37.6665593" lon="13.9125954"><ele>420.0</ele><time>2026-04-26T08:59:41.316Z</time></trkpt><trkpt lat="37.6665719" lon="13.9127493"><ele>420.0</ele><time>2026-04-26T08:59:42.316Z</time></trkpt><trkpt lat="37.6665836" lon="13.9129203"><ele>420.75</ele><time>2026-04-26T08:59:43.316Z</time></trkpt><trkpt lat="37.6666001" lon="13.9130841"><ele>421.5</ele><time>2026-04-26T08:59:44.316Z</time></trkpt><trkpt lat="37.6666235" lon="13.9132532"><ele>422.25</ele><time>2026-04-26T08:59:45.316Z</time></trkpt><trkpt lat="37.6666495" lon="13.9134266"><ele>423.0</ele><time>2026-04-26T08:59:46.316Z</time></trkpt><trkpt lat="37.6666773" lon="13.9136076"><ele>424.25</ele><time>2026-04-26T08:59:47.316Z</time></trkpt><trkpt lat="37.6667" lon="13.9137872"><ele>425.5</ele><time>2026-04-26T08:59:48.316Z</time></trkpt><trkpt lat="37.6667185" lon="13.9139573"><ele>426.75</ele><time>2026-04-26T08:59:49.316Z</time></trkpt><trkpt lat="37.6667325" lon="13.9141202"><ele>428.0</ele><time>2026-04-26T08:59:50.316Z</time></trkpt><trkpt lat="37.6667326" lon="13.9142958"><ele>428.66666666666663</ele><time>2026-04-26T08:59:51.316Z</time></trkpt><trkpt lat="37.6667216" lon="13.9144678"><ele>429.33333333333337</ele><time>2026-04-26T08:59:52.316Z</time></trkpt><trkpt lat="37.6667007" lon="13.9146645"><ele>430.0</ele><time>2026-04-26T08:59:53.316Z</time></trkpt><trkpt lat="37.6666748" lon="13.9148609"><ele>430.0</ele><time>2026-04-26T08:59:54.316Z</time></trkpt><trkpt lat="37.6666477" lon="13.9150539"><ele>430.0</ele><time>2026-04-26T08:59:55.316Z</time></trkpt><trkpt lat="37.6666106" lon="13.9152346"><ele>430.0</ele><time>2026-04-26T08:59:56.316Z</time></trkpt><trkpt lat="37.6665601" lon="13.9154106"><ele>430.0</ele><time>2026-04-26T08:59:57.316Z</time></trkpt><trkpt lat="37.6664952" lon="13.9155881"><ele>430.0</ele><time>2026-04-26T08:59:58.316Z</time></trkpt><trkpt lat="37.6664203" lon="13.9157601"><ele>430.0</ele><time>2026-04-26T08:59:59.316Z</time></trkpt><trkpt lat="37.666326" lon="13.9159205"><ele>430.6666666666667</ele><time>2026-04-26T09:00:00.316Z</time></trkpt><trkpt lat="37.6662265" lon="13.9160794"><ele>431.33333333333337</ele><time>2026-04-26T09:00:01.316Z</time></trkpt><trkpt lat="37.6661314" lon="13.9162519"><ele>432.0</ele><time>2026-04-26T09:00:02.315Z</time></trkpt><trkpt lat="37.6660332" lon="13.9164163"><ele>433.25</ele><time>2026-04-26T09:00:03.316Z</time></trkpt><trkpt lat="37.6659392" lon="13.9165791"><ele>434.5</ele><time>2026-04-26T09:00:04.315Z</time></trkpt><trkpt lat="37.6658569" lon="13.916727"><ele>435.75</ele><time>2026-04-26T09:00:05.316Z</time></trkpt><trkpt lat="37.6658" lon="13.9168518"><ele>437.0</ele><time>2026-04-26T09:00:06.316Z</time></trkpt><trkpt lat="37.6657776" lon="13.9169768"><ele>437.25</ele><time>2026-04-26T09:00:07.316Z</time></trkpt><trkpt lat="37.6657965" lon="13.917113"><ele>437.5</ele><time>2026-04-26T09:00:08.316Z</time></trkpt><trkpt lat="37.6658494" lon="13.9172635"><ele>437.75</ele><time>2026-04-26T09:00:09.316Z</time></trkpt><trkpt lat="37.6659159" lon="13.9174294"><ele>438.0</ele><time>2026-04-26T09:00:10.316Z</time></trkpt><trkpt lat="37.6659803" lon="13.9176061"><ele>438.66666666666663</ele><time>2026-04-26T09:00:11.316Z</time></trkpt><trkpt lat="37.6660615" lon="13.9177808"><ele>439.3333333333333</ele><time>2026-04-26T09:00:12.316Z</time></trkpt><trkpt lat="37.6661374" lon="13.9179641"><ele>440.0</ele><time>2026-04-26T09:00:13.316Z</time></trkpt><trkpt lat="37.6662138" lon="13.9181548"><ele>440.0</ele><time>2026-04-26T09:00:14.316Z</time></trkpt><trkpt lat="37.6662938" lon="13.9183535"><ele>440.0</ele><time>2026-04-26T09:00:15.316Z</time></trkpt><trkpt lat="37.6663757" lon="13.9185563"><ele>440.0</ele><time>2026-04-26T09:00:16.316Z</time></trkpt><trkpt lat="37.6664634" lon="13.9187689"><ele>442.0</ele><time>2026-04-26T09:00:17.316Z</time></trkpt><trkpt lat="37.6665536" lon="13.9189743"><ele>444.0</ele><time>2026-04-26T09:00:18.316Z</time></trkpt><trkpt lat="37.666636" lon="13.9191819"><ele>446.0</ele><time>2026-04-26T09:00:19.315Z</time></trkpt><trkpt lat="37.6667173" lon="13.9193839"><ele>447.3333333333333</ele><time>2026-04-26T09:00:20.316Z</time></trkpt><trkpt lat="37.6667978" lon="13.9195901"><ele>448.66666666666663</ele><time>2026-04-26T09:00:21.316Z</time></trkpt><trkpt lat="37.6668786" lon="13.9197927"><ele>450.0</ele><time>2026-04-26T09:00:22.316Z</time></trkpt><trkpt lat="37.6669571" lon="13.920005"><ele>450.66666666666663</ele><time>2026-04-26T09:00:23.316Z</time></trkpt><trkpt lat="37.6670333" lon="13.9202151"><ele>451.3333333333333</ele><time>2026-04-26T09:00:24.316Z</time></trkpt><trkpt lat="37.66712" lon="13.9204273"><ele>452.0</ele><time>2026-04-26T09:00:25.316Z</time></trkpt><trkpt lat="37.6672048" lon="13.9206404"><ele>452.0</ele><time>2026-04-26T09:00:26.316Z</time></trkpt><trkpt lat="37.6672915" lon="13.9208552"><ele>452.0</ele><time>2026-04-26T09:00:27.316Z</time></trkpt><trkpt lat="37.667381" lon="13.9210778"><ele>452.0</ele><time>2026-04-26T09:00:28.316Z</time></trkpt><trkpt lat="37.6674741" lon="13.921304"><ele>452.3333333333333</ele><time>2026-04-26T09:00:29.315Z</time></trkpt><trkpt lat="37.6675622" lon="13.9215328"><ele>452.66666666666663</ele><time>2026-04-26T09:00:30.316Z</time></trkpt><trkpt lat="37.667659" lon="13.9217566"><ele>453.0</ele><time>2026-04-26T09:00:31.316Z</time></trkpt><trkpt lat="37.6677552" lon="13.9219851"><ele>453.33333333333337</ele><time>2026-04-26T09:00:32.316Z</time></trkpt><trkpt lat="37.667846" lon="13.9222177"><ele>453.6666666666667</ele><time>2026-04-26T09:00:33.316Z</time></trkpt><trkpt lat="37.6679311" lon="13.9224571"><ele>454.0</ele><time>2026-04-26T09:00:34.315Z</time></trkpt><trkpt lat="37.6680076" lon="13.9226888"><ele>454.33333333333337</ele><time>2026-04-26T09:00:35.315Z</time></trkpt><trkpt lat="37.668082" lon="13.9229119"><ele>454.66666666666663</ele><time>2026-04-26T09:00:36.314Z</time></trkpt><trkpt lat="37.6681474" lon="13.923134"><ele>455.0</ele><time>2026-04-26T09:00:37.315Z</time></trkpt><trkpt lat="37.6682073" lon="13.9233463"><ele>455.66666666666663</ele><time>2026-04-26T09:00:38.315Z</time></trkpt><trkpt lat="37.6682572" lon="13.92355"><ele>456.33333333333337</ele><time>2026-04-26T09:00:39.315Z</time></trkpt><trkpt lat="37.6682941" lon="13.923752"><ele>457.0</ele><time>2026-04-26T09:00:40.315Z</time></trkpt><trkpt lat="37.6683141" lon="13.9239582"><ele>457.0</ele><time>2026-04-26T09:00:41.315Z</time></trkpt><trkpt lat="37.6683246" lon="13.9241518"><ele>457.0</ele><time>2026-04-26T09:00:42.315Z</time></trkpt><trkpt lat="37.6683334" lon="13.9243362"><ele>457.0</ele><time>2026-04-26T09:00:43.315Z</time></trkpt><trkpt lat="37.6683466" lon="13.9245077"><ele>457.0</ele><time>2026-04-26T09:00:44.315Z</time></trkpt><trkpt lat="37.668366" lon="13.9246755"><ele>456.5</ele><time>2026-04-26T09:00:45.314Z</time></trkpt><trkpt lat="37.6683915" lon="13.9248539"><ele>456.0</ele><time>2026-04-26T09:00:46.314Z</time></trkpt><trkpt lat="37.6684104" lon="13.9250385"><ele>455.5</ele><time>2026-04-26T09:00:47.314Z</time></trkpt><trkpt lat="37.6684267" lon="13.9252364"><ele>455.0</ele><time>2026-04-26T09:00:48.315Z</time></trkpt><trkpt lat="37.6684163" lon="13.925454"><ele>453.3333333333333</ele><time>2026-04-26T09:00:49.314Z</time></trkpt><trkpt lat="37.6684217" lon="13.9256737"><ele>451.66666666666663</ele><time>2026-04-26T09:00:50.315Z</time></trkpt><trkpt lat="37.6684417" lon="13.9259046"><ele>450.0</ele><time>2026-04-26T09:00:51.315Z</time></trkpt><trkpt lat="37.6684616" lon="13.9261164"><ele>448.5</ele><time>2026-04-26T09:00:52.315Z</time></trkpt><trkpt lat="37.6684752" lon="13.926311"><ele>447.0</ele><time>2026-04-26T09:00:53.315Z</time></trkpt><trkpt lat="37.6684808" lon="13.9264839"><ele>445.5</ele><time>2026-04-26T09:00:54.315Z</time></trkpt><trkpt lat="37.6684695" lon="13.9266488"><ele>444.0</ele><time>2026-04-26T09:00:55.315Z</time></trkpt><trkpt lat="37.6684471" lon="13.9268244"><ele>443.33333333333337</ele><time>2026-04-26T09:00:56.315Z</time></trkpt><trkpt lat="37.6684005" lon="13.9270161"><ele>442.6666666666667</ele><time>2026-04-26T09:00:57.315Z</time></trkpt><trkpt lat="37.6683396" lon="13.9272255"><ele>442.0</ele><time>2026-04-26T09:00:58.315Z</time></trkpt><trkpt lat="37.6682712" lon="13.9274469"><ele>441.6666666666667</ele><time>2026-04-26T09:00:59.314Z</time></trkpt><trkpt lat="37.6681991" lon="13.9276859"><ele>441.33333333333337</ele><time>2026-04-26T09:01:00.315Z</time></trkpt><trkpt lat="37.668119" lon="13.9279344"><ele>441.0</ele><time>2026-04-26T09:01:01.315Z</time></trkpt><trkpt lat="37.668045" lon="13.9281921"><ele>440.66666666666663</ele><time>2026-04-26T09:01:02.315Z</time></trkpt><trkpt lat="37.6679698" lon="13.928447"><ele>440.3333333333333</ele><time>2026-04-26T09:01:03.315Z</time></trkpt><trkpt lat="37.6678914" lon="13.9286997"><ele>440.0</ele><time>2026-04-26T09:01:04.314Z</time></trkpt><trkpt lat="37.6678169" lon="13.9289445"><ele>439.66666666666663</ele><time>2026-04-26T09:01:05.315Z</time></trkpt><trkpt lat="37.6677477" lon="13.9291826"><ele>439.33333333333337</ele><time>2026-04-26T09:01:06.315Z</time></trkpt><trkpt lat="37.6676817" lon="13.9294001"><ele>439.0</ele><time>2026-04-26T09:01:07.315Z</time></trkpt><trkpt lat="37.6676151" lon="13.9296095"><ele>439.0</ele><time>2026-04-26T09:01:08.315Z</time></trkpt><trkpt lat="37.6675458" lon="13.9298269"><ele>439.0</ele><time>2026-04-26T09:01:09.315Z</time></trkpt><trkpt lat="37.6674774" lon="13.9300402"><ele>439.0</ele><time>2026-04-26T09:01:10.315Z</time></trkpt><trkpt lat="37.6674081" lon="13.9302562"><ele>440.33333333333337</ele><time>2026-04-26T09:01:11.314Z</time></trkpt><trkpt lat="37.6673399" lon="13.9304677"><ele>441.66666666666663</ele><time>2026-04-26T09:01:12.315Z</time></trkpt><trkpt lat="37.6672715" lon="13.9306848"><ele>443.0</ele><time>2026-04-26T09:01:13.315Z</time></trkpt><trkpt lat="37.6672054" lon="13.930888"><ele>444.0</ele><time>2026-04-26T09:01:14.315Z</time></trkpt><trkpt lat="37.6671414" lon="13.9310826"><ele>445.0</ele><time>2026-04-26T09:01:15.315Z</time></trkpt><trkpt lat="37.6670861" lon="13.9312571"><ele>446.0</ele><time>2026-04-26T09:01:16.315Z</time></trkpt><trkpt lat="37.6670331" lon="13.9314283"><ele>446.0</ele><time>2026-04-26T09:01:17.315Z</time></trkpt><trkpt lat="37.6669872" lon="13.9315985"><ele>446.0</ele><time>2026-04-26T09:01:18.315Z</time></trkpt><trkpt lat="37.6669494" lon="13.9317733"><ele>446.0</ele><time>2026-04-26T09:01:19.315Z</time></trkpt><trkpt lat="37.6669358" lon="13.9319555"><ele>446.0</ele><time>2026-04-26T09:01:20.315Z</time></trkpt><trkpt lat="37.6669323" lon="13.932152"><ele>446.66666666666663</ele><time>2026-04-26T09:01:21.315Z</time></trkpt><trkpt lat="37.6669411" lon="13.9323549"><ele>447.33333333333337</ele><time>2026-04-26T09:01:22.315Z</time></trkpt><trkpt lat="37.6669442" lon="13.9325401"><ele>448.0</ele><time>2026-04-26T09:01:23.315Z</time></trkpt><trkpt lat="37.6669499" lon="13.932721"><ele>448.0</ele><time>2026-04-26T09:01:24.315Z</time></trkpt><trkpt lat="37.6669563" lon="13.9328939"><ele>448.0</ele><time>2026-04-26T09:01:25.315Z</time></trkpt><trkpt lat="37.6669704" lon="13.9330662"><ele>448.0</ele><time>2026-04-26T09:01:26.315Z</time></trkpt><trkpt lat="37.6670121" lon="13.9332229"><ele>448.0</ele><time>2026-04-26T09:01:27.315Z</time></trkpt><trkpt lat="37.6670811" lon="13.9333635"><ele>448.0</ele><time>2026-04-26T09:01:28.315Z</time></trkpt><trkpt lat="37.6671483" lon="13.9335002"><ele>448.0</ele><time>2026-04-26T09:01:29.315Z</time></trkpt><trkpt lat="37.6672011" lon="13.933638"><ele>448.0</ele><time>2026-04-26T09:01:30.315Z</time></trkpt><trkpt lat="37.6672457" lon="13.9337633"><ele>448.0</ele><time>2026-04-26T09:01:31.315Z</time></trkpt><trkpt lat="37.6672518" lon="13.933911"><ele>448.0</ele><time>2026-04-26T09:01:32.315Z</time></trkpt><trkpt lat="37.667235" lon="13.9340498"><ele>447.99999999999994</ele><time>2026-04-26T09:01:33.315Z</time></trkpt><trkpt lat="37.6671968" lon="13.9341804"><ele>447.99999999999994</ele><time>2026-04-26T09:01:34.315Z</time></trkpt><trkpt lat="37.6671313" lon="13.9342907"><ele>448.0</ele><time>2026-04-26T09:01:35.315Z</time></trkpt><trkpt lat="37.6670345" lon="13.9343736"><ele>448.0</ele><time>2026-04-26T09:01:36.315Z</time></trkpt><trkpt lat="37.6669076" lon="13.9344181"><ele>447.25</ele><time>2026-04-26T09:01:37.315Z</time></trkpt><trkpt lat="37.6667756" lon="13.9344511"><ele>446.5</ele><time>2026-04-26T09:01:38.315Z</time></trkpt><trkpt lat="37.6666429" lon="13.9344896"><ele>445.75</ele><time>2026-04-26T09:01:39.315Z</time></trkpt><trkpt lat="37.6665209" lon="13.9345352"><ele>445.0</ele><time>2026-04-26T09:01:40.315Z</time></trkpt><trkpt lat="37.6664219" lon="13.9345975"><ele>445.0</ele><time>2026-04-26T09:01:41.315Z</time></trkpt><trkpt lat="37.6663432" lon="13.9346583"><ele>445.0</ele><time>2026-04-26T09:01:42.315Z</time></trkpt><trkpt lat="37.666276" lon="13.9347453"><ele>445.0</ele><time>2026-04-26T09:01:43.315Z</time></trkpt><trkpt lat="37.6662069" lon="13.9348407"><ele>445.0</ele><time>2026-04-26T09:01:44.315Z</time></trkpt><trkpt lat="37.666137" lon="13.9349496"><ele>445.0</ele><time>2026-04-26T09:01:45.315Z</time></trkpt><trkpt lat="37.6660702" lon="13.9350769"><ele>443.0</ele><time>2026-04-26T09:01:46.315Z</time></trkpt><trkpt lat="37.6659884" lon="13.9352077"><ele>441.0</ele><time>2026-04-26T09:01:47.315Z</time></trkpt><trkpt lat="37.6658912" lon="13.9353583"><ele>439.0</ele><time>2026-04-26T09:01:48.315Z</time></trkpt><trkpt lat="37.6657934" lon="13.9355126"><ele>437.0</ele><time>2026-04-26T09:01:49.315Z</time></trkpt><trkpt lat="37.6656917" lon="13.9356697"><ele>437.0</ele><time>2026-04-26T09:01:50.315Z</time></trkpt><trkpt lat="37.6655893" lon="13.9358381"><ele>437.0</ele><time>2026-04-26T09:01:51.315Z</time></trkpt><trkpt lat="37.6654845" lon="13.9360012"><ele>437.0</ele><time>2026-04-26T09:01:52.315Z</time></trkpt><trkpt lat="37.6653767" lon="13.9361723"><ele>435.0</ele><time>2026-04-26T09:01:53.315Z</time></trkpt><trkpt lat="37.6652705" lon="13.9363365"><ele>433.0</ele><time>2026-04-26T09:01:54.314Z</time></trkpt><trkpt lat="37.6651666" lon="13.9365048"><ele>431.0</ele><time>2026-04-26T09:01:55.315Z</time></trkpt><trkpt lat="37.6650608" lon="13.9366622"><ele>431.3333333333333</ele><time>2026-04-26T09:01:56.315Z</time></trkpt><trkpt lat="37.6649452" lon="13.9368117"><ele>431.66666666666663</ele><time>2026-04-26T09:01:57.315Z</time></trkpt><trkpt lat="37.6648273" lon="13.9369462"><ele>432.0</ele><time>2026-04-26T09:01:58.315Z</time></trkpt><trkpt lat="37.6646975" lon="13.9370718"><ele>432.0</ele><time>2026-04-26T09:01:59.315Z</time></trkpt><trkpt lat="37.6645578" lon="13.9371945"><ele>432.0</ele><time>2026-04-26T09:02:00.315Z</time></trkpt><trkpt lat="37.6644199" lon="13.9373208"><ele>432.0</ele><time>2026-04-26T09:02:01.315Z</time></trkpt><trkpt lat="37.66428" lon="13.9374451"><ele>431.33333333333337</ele><time>2026-04-26T09:02:02.314Z</time></trkpt><trkpt lat="37.664141" lon="13.9375661"><ele>430.6666666666667</ele><time>2026-04-26T09:02:03.315Z</time></trkpt><trkpt lat="37.6639995" lon="13.937684"><ele>430.0</ele><time>2026-04-26T09:02:04.315Z</time></trkpt><trkpt lat="37.663875" lon="13.9378054"><ele>430.0</ele><time>2026-04-26T09:02:05.315Z</time></trkpt><trkpt lat="37.6637547" lon="13.9379189"><ele>430.0</ele><time>2026-04-26T09:02:06.315Z</time></trkpt><trkpt lat="37.6636348" lon="13.9380287"><ele>430.0</ele><time>2026-04-26T09:02:07.315Z</time></trkpt><trkpt lat="37.6635009" lon="13.9381406"><ele>430.0</ele><time>2026-04-26T09:02:08.315Z</time></trkpt><trkpt lat="37.6633628" lon="13.9382323"><ele>430.0</ele><time>2026-04-26T09:02:09.315Z</time></trkpt><trkpt lat="37.6632249" lon="13.9383239"><ele>430.0</ele><time>2026-04-26T09:02:10.314Z</time></trkpt><trkpt lat="37.6630776" lon="13.9384136"><ele>430.0</ele><time>2026-04-26T09:02:11.315Z</time></trkpt><trkpt lat="37.6629454" lon="13.9384964"><ele>430.0</ele><time>2026-04-26T09:02:12.315Z</time></trkpt><trkpt lat="37.6628212" lon="13.9385924"><ele>430.0</ele><time>2026-04-26T09:02:13.315Z</time></trkpt><trkpt lat="37.6627111" lon="13.9386795"><ele>430.0</ele><time>2026-04-26T09:02:14.315Z</time></trkpt><trkpt lat="37.6626129" lon="13.9387829"><ele>430.0</ele><time>2026-04-26T09:02:15.315Z</time></trkpt><trkpt lat="37.662523" lon="13.9388786"><ele>430.0</ele><time>2026-04-26T09:02:16.315Z</time></trkpt><trkpt lat="37.6624461" lon="13.9389786"><ele>430.0</ele><time>2026-04-26T09:02:17.315Z</time></trkpt><trkpt lat="37.6623926" lon="13.9390898"><ele>430.0</ele><time>2026-04-26T09:02:18.315Z</time></trkpt><trkpt lat="37.662357" lon="13.939203"><ele>430.0</ele><time>2026-04-26T09:02:19.315Z</time></trkpt><trkpt lat="37.6623454" lon="13.9393235"><ele>429.75</ele><time>2026-04-26T09:02:20.315Z</time></trkpt><trkpt lat="37.662357" lon="13.9394531"><ele>429.5</ele><time>2026-04-26T09:02:21.315Z</time></trkpt><trkpt lat="37.6623947" lon="13.9395969"><ele>429.25</ele><time>2026-04-26T09:02:22.315Z</time></trkpt><trkpt lat="37.6624554" lon="13.9397448"><ele>429.0</ele><time>2026-04-26T09:02:23.315Z</time></trkpt><trkpt lat="37.6625237" lon="13.9399072"><ele>429.5</ele><time>2026-04-26T09:02:24.315Z</time></trkpt><trkpt lat="37.6625875" lon="13.9400767"><ele>430.0</ele><time>2026-04-26T09:02:25.315Z</time></trkpt><trkpt lat="37.6626433" lon="13.9402509"><ele>430.5</ele><time>2026-04-26T09:02:26.315Z</time></trkpt><trkpt lat="37.662682" lon="13.940422"><ele>431.0</ele><time>2026-04-26T09:02:27.315Z</time></trkpt><trkpt lat="37.6627056" lon="13.9405853"><ele>431.0</ele><time>2026-04-26T09:02:28.315Z</time></trkpt><trkpt lat="37.6627018" lon="13.9407498"><ele>431.0</ele><time>2026-04-26T09:02:29.315Z</time></trkpt><trkpt lat="37.6626851" lon="13.9409181"><ele>431.0</ele><time>2026-04-26T09:02:30.315Z</time></trkpt><trkpt lat="37.6626474" lon="13.9410924"><ele>431.0</ele><time>2026-04-26T09:02:31.315Z</time></trkpt><trkpt lat="37.6625931" lon="13.9412642"><ele>432.0</ele><time>2026-04-26T09:02:32.315Z</time></trkpt><trkpt lat="37.662533" lon="13.9414268"><ele>433.0</ele><time>2026-04-26T09:02:33.315Z</time></trkpt><trkpt lat="37.6624726" lon="13.941585"><ele>434.0</ele><time>2026-04-26T09:02:34.315Z</time></trkpt><trkpt lat="37.6624068" lon="13.9417415"><ele>435.0</ele><time>2026-04-26T09:02:35.315Z</time></trkpt><trkpt lat="37.6623339" lon="13.9418877"><ele>436.25</ele><time>2026-04-26T09:02:36.315Z</time></trkpt><trkpt lat="37.6622462" lon="13.9420231"><ele>437.5</ele><time>2026-04-26T09:02:37.314Z</time></trkpt><trkpt lat="37.6621426" lon="13.9421421"><ele>438.75</ele><time>2026-04-26T09:02:38.315Z</time></trkpt><trkpt lat="37.6620205" lon="13.9422545"><ele>440.0</ele><time>2026-04-26T09:02:39.315Z</time></trkpt><trkpt lat="37.6618889" lon="13.9423582"><ele>440.0</ele><time>2026-04-26T09:02:40.315Z</time></trkpt><trkpt lat="37.661755" lon="13.9424478"><ele>440.0</ele><time>2026-04-26T09:02:41.315Z</time></trkpt><trkpt lat="37.6616184" lon="13.942546"><ele>440.0</ele><time>2026-04-26T09:02:42.314Z</time></trkpt><trkpt lat="37.6614731" lon="13.9426403"><ele>442.66666666666663</ele><time>2026-04-26T09:02:43.315Z</time></trkpt><trkpt lat="37.6613279" lon="13.9427516"><ele>445.33333333333337</ele><time>2026-04-26T09:02:44.315Z</time></trkpt><trkpt lat="37.6611861" lon="13.9428605"><ele>448.0</ele><time>2026-04-26T09:02:45.315Z</time></trkpt><trkpt lat="37.6610596" lon="13.9429637"><ele>448.0</ele><time>2026-04-26T09:02:46.315Z</time></trkpt><trkpt lat="37.6609433" lon="13.9430706"><ele>448.0</ele><time>2026-04-26T09:02:47.315Z</time></trkpt><trkpt lat="37.6608375" lon="13.943192"><ele>448.0</ele><time>2026-04-26T09:02:48.315Z</time></trkpt><trkpt lat="37.6607358" lon="13.9433363"><ele>448.0</ele><time>2026-04-26T09:02:49.315Z</time></trkpt><trkpt lat="37.6606531" lon="13.9434936"><ele>449.5</ele><time>2026-04-26T09:02:50.315Z</time></trkpt><trkpt lat="37.6605899" lon="13.9436709"><ele>451.0</ele><time>2026-04-26T09:02:51.315Z</time></trkpt><trkpt lat="37.6605442" lon="13.9438388"><ele>452.5</ele><time>2026-04-26T09:02:52.315Z</time></trkpt><trkpt lat="37.660501" lon="13.9439957"><ele>454.0</ele><time>2026-04-26T09:02:53.315Z</time></trkpt><trkpt lat="37.6604665" lon="13.9441467"><ele>453.0</ele><time>2026-04-26T09:02:54.315Z</time></trkpt><trkpt lat="37.6604422" lon="13.9442945"><ele>452.0</ele><time>2026-04-26T09:02:55.315Z</time></trkpt><trkpt lat="37.6604298" lon="13.944454"><ele>451.0</ele><time>2026-04-26T09:02:56.315Z</time></trkpt><trkpt lat="37.6604343" lon="13.9446185"><ele>450.0</ele><time>2026-04-26T09:02:57.314Z</time></trkpt><trkpt lat="37.660453" lon="13.9447749"><ele>450.0</ele><time>2026-04-26T09:02:58.315Z</time></trkpt><trkpt lat="37.660487" lon="13.9449208"><ele>450.0</ele><time>2026-04-26T09:02:59.315Z</time></trkpt><trkpt lat="37.6605315" lon="13.9450571"><ele>450.0</ele><time>2026-04-26T09:03:00.315Z</time></trkpt><trkpt lat="37.6606003" lon="13.9451858"><ele>450.0</ele><time>2026-04-26T09:03:01.314Z</time></trkpt><trkpt lat="37.6606897" lon="13.9453058"><ele>448.5</ele><time>2026-04-26T09:03:02.315Z</time></trkpt><trkpt lat="37.6607842" lon="13.9454103"><ele>447.0</ele><time>2026-04-26T09:03:03.315Z</time></trkpt><trkpt lat="37.6608767" lon="13.9455133"><ele>445.5</ele><time>2026-04-26T09:03:04.315Z</time></trkpt><trkpt lat="37.6609479" lon="13.9456305"><ele>444.0</ele><time>2026-04-26T09:03:05.315Z</time></trkpt><trkpt lat="37.6610106" lon="13.9457554"><ele>444.0</ele><time>2026-04-26T09:03:06.315Z</time></trkpt><trkpt lat="37.6610582" lon="13.9458924"><ele>444.0</ele><time>2026-04-26T09:03:07.315Z</time></trkpt><trkpt lat="37.6610885" lon="13.946034"><ele>444.0</ele><time>2026-04-26T09:03:08.315Z</time></trkpt><trkpt lat="37.6610898" lon="13.9461811"><ele>444.0</ele><time>2026-04-26T09:03:09.315Z</time></trkpt><trkpt lat="37.6610691" lon="13.9463401"><ele>444.0</ele><time>2026-04-26T09:03:10.315Z</time></trkpt><trkpt lat="37.66103" lon="13.9464944"><ele>444.0</ele><time>2026-04-26T09:03:11.315Z</time></trkpt><trkpt lat="37.6609803" lon="13.9466188"><ele>444.0</ele><time>2026-04-26T09:03:12.315Z</time></trkpt><trkpt lat="37.6608987" lon="13.9467274"><ele>444.0</ele><time>2026-04-26T09:03:13.315Z</time></trkpt><trkpt lat="37.6607988" lon="13.94682"><ele>446.25</ele><time>2026-04-26T09:03:14.315Z</time></trkpt><trkpt lat="37.6606861" lon="13.9469089"><ele>448.5</ele><time>2026-04-26T09:03:15.315Z</time></trkpt><trkpt lat="37.6605745" lon="13.9469923"><ele>450.75</ele><time>2026-04-26T09:03:16.315Z</time></trkpt><trkpt lat="37.6604716" lon="13.9470768"><ele>453.0</ele><time>2026-04-26T09:03:17.315Z</time></trkpt><trkpt lat="37.6603869" lon="13.9471716"><ele>453.0</ele><time>2026-04-26T09:03:18.315Z</time></trkpt><trkpt lat="37.6603259" lon="13.9472951"><ele>453.0</ele><time>2026-04-26T09:03:19.315Z</time></trkpt><trkpt lat="37.6602771" lon="13.9474403"><ele>453.0</ele><time>2026-04-26T09:03:20.315Z</time></trkpt><trkpt lat="37.6602415" lon="13.9476036"><ele>453.0</ele><time>2026-04-26T09:03:21.315Z</time></trkpt><trkpt lat="37.660226" lon="13.9477883"><ele>453.33333333333337</ele><time>2026-04-26T09:03:22.315Z</time></trkpt><trkpt lat="37.6602209" lon="13.9479833"><ele>453.6666666666667</ele><time>2026-04-26T09:03:23.315Z</time></trkpt><trkpt lat="37.6602276" lon="13.9481791"><ele>454.0</ele><time>2026-04-26T09:03:24.315Z</time></trkpt><trkpt lat="37.660242" lon="13.9483676"><ele>454.6666666666667</ele><time>2026-04-26T09:03:25.315Z</time></trkpt><trkpt lat="37.6602477" lon="13.9485565"><ele>455.33333333333337</ele><time>2026-04-26T09:03:26.315Z</time></trkpt><trkpt lat="37.6602429" lon="13.9487481"><ele>456.0</ele><time>2026-04-26T09:03:27.315Z</time></trkpt><trkpt lat="37.6602093" lon="13.9489548"><ele>456.0</ele><time>2026-04-26T09:03:28.315Z</time></trkpt><trkpt lat="37.6601738" lon="13.9491697"><ele>456.0</ele><time>2026-04-26T09:03:29.315Z</time></trkpt><trkpt lat="37.6601276" lon="13.9493777"><ele>456.0</ele><time>2026-04-26T09:03:30.315Z</time></trkpt><trkpt lat="37.6600821" lon="13.9495893"><ele>457.0</ele><time>2026-04-26T09:03:31.315Z</time></trkpt><trkpt lat="37.6600274" lon="13.9497884"><ele>458.0</ele><time>2026-04-26T09:03:32.315Z</time></trkpt><trkpt lat="37.6599602" lon="13.9499761"><ele>459.0</ele><time>2026-04-26T09:03:33.315Z</time></trkpt><trkpt lat="37.6598855" lon="13.9501603"><ele>460.66666666666663</ele><time>2026-04-26T09:03:34.315Z</time></trkpt><trkpt lat="37.6598018" lon="13.9503589"><ele>462.3333333333333</ele><time>2026-04-26T09:03:35.315Z</time></trkpt><trkpt lat="37.6597235" lon="13.9505599"><ele>464.0</ele><time>2026-04-26T09:03:36.315Z</time></trkpt><trkpt lat="37.6596484" lon="13.9507432"><ele>464.3333333333333</ele><time>2026-04-26T09:03:37.315Z</time></trkpt><trkpt lat="37.6595702" lon="13.95092"><ele>464.66666666666663</ele><time>2026-04-26T09:03:38.315Z</time></trkpt><trkpt lat="37.6594923" lon="13.9510962"><ele>465.0</ele><time>2026-04-26T09:03:39.315Z</time></trkpt><trkpt lat="37.6594224" lon="13.9512829"><ele>465.0</ele><time>2026-04-26T09:03:40.315Z</time></trkpt><trkpt lat="37.6593576" lon="13.951456"><ele>465.0</ele><time>2026-04-26T09:03:41.315Z</time></trkpt><trkpt lat="37.6592869" lon="13.9516115"><ele>465.0</ele><time>2026-04-26T09:03:42.315Z</time></trkpt><trkpt lat="37.6592193" lon="13.9517564"><ele>465.0</ele><time>2026-04-26T09:03:43.315Z</time></trkpt><trkpt lat="37.6591559" lon="13.9518936"><ele>466.4</ele><time>2026-04-26T09:03:44.315Z</time></trkpt><trkpt lat="37.6590954" lon="13.9520148"><ele>467.8</ele><time>2026-04-26T09:03:45.315Z</time></trkpt><trkpt lat="37.6590408" lon="13.9521172"><ele>469.20000000000005</ele><time>2026-04-26T09:03:46.315Z</time></trkpt><trkpt lat="37.6590001" lon="13.9522068"><ele>470.6</ele><time>2026-04-26T09:03:47.315Z</time></trkpt><trkpt lat="37.6589765" lon="13.9522836"><ele>472.0</ele><time>2026-04-26T09:03:48.315Z</time></trkpt><trkpt lat="37.6589979" lon="13.9524048"><ele>472.0</ele><time>2026-04-26T09:03:50.315Z</time></trkpt><trkpt lat="37.6590863" lon="13.9525009"><ele>472.00000000000006</ele><time>2026-04-26T09:03:52.315Z</time></trkpt><trkpt lat="37.6591641" lon="13.9525451"><ele>472.00000000000006</ele><time>2026-04-26T09:03:53.315Z</time></trkpt><trkpt lat="37.659256" lon="13.9525748"><ele>472.0</ele><time>2026-04-26T09:03:54.315Z</time></trkpt><trkpt lat="37.6593512" lon="13.9525814"><ele>472.0</ele><time>2026-04-26T09:03:55.315Z</time></trkpt><trkpt lat="37.6594525" lon="13.9525648"><ele>473.6</ele><time>2026-04-26T09:03:56.315Z</time></trkpt><trkpt lat="37.6595507" lon="13.9525284"><ele>475.20000000000005</ele><time>2026-04-26T09:03:57.315Z</time></trkpt><trkpt lat="37.6596347" lon="13.9524698"><ele>476.8</ele><time>2026-04-26T09:03:58.315Z</time></trkpt><trkpt lat="37.6597136" lon="13.9523864"><ele>478.4</ele><time>2026-04-26T09:03:59.315Z</time></trkpt><trkpt lat="37.6597785" lon="13.952276"><ele>480.0</ele><time>2026-04-26T09:04:00.315Z</time></trkpt><trkpt lat="37.6598329" lon="13.9521491"><ele>480.0</ele><time>2026-04-26T09:04:01.315Z</time></trkpt><trkpt lat="37.659906" lon="13.9520287"><ele>480.0</ele><time>2026-04-26T09:04:02.314Z</time></trkpt><trkpt lat="37.660001" lon="13.9519196"><ele>480.0</ele><time>2026-04-26T09:04:03.315Z</time></trkpt><trkpt lat="37.6601194" lon="13.9518183"><ele>480.0</ele><time>2026-04-26T09:04:04.315Z</time></trkpt><trkpt lat="37.6602513" lon="13.9517124"><ele>481.66666666666663</ele><time>2026-04-26T09:04:05.315Z</time></trkpt><trkpt lat="37.6603939" lon="13.9516123"><ele>483.3333333333333</ele><time>2026-04-26T09:04:06.315Z</time></trkpt><trkpt lat="37.6605426" lon="13.9515073"><ele>485.0</ele><time>2026-04-26T09:04:07.315Z</time></trkpt><trkpt lat="37.6606967" lon="13.9513893"><ele>485.0</ele><time>2026-04-26T09:04:08.315Z</time></trkpt><trkpt lat="37.6608546" lon="13.9512713"><ele>485.0</ele><time>2026-04-26T09:04:09.315Z</time></trkpt><trkpt lat="37.6610196" lon="13.9511543"><ele>485.0</ele><time>2026-04-26T09:04:10.315Z</time></trkpt><trkpt lat="37.661189" lon="13.9510337"><ele>486.0</ele><time>2026-04-26T09:04:11.315Z</time></trkpt><trkpt lat="37.6613633" lon="13.9509115"><ele>487.0</ele><time>2026-04-26T09:04:12.314Z</time></trkpt><trkpt lat="37.6615388" lon="13.9507897"><ele>488.0</ele><time>2026-04-26T09:04:13.315Z</time></trkpt><trkpt lat="37.6617113" lon="13.9506569"><ele>488.0</ele><time>2026-04-26T09:04:14.315Z</time></trkpt><trkpt lat="37.661876" lon="13.9505154"><ele>488.0</ele><time>2026-04-26T09:04:15.315Z</time></trkpt><trkpt lat="37.6620337" lon="13.9503663"><ele>488.0</ele><time>2026-04-26T09:04:16.315Z</time></trkpt><trkpt lat="37.662189" lon="13.9502086"><ele>488.66666666666663</ele><time>2026-04-26T09:04:17.315Z</time></trkpt><trkpt lat="37.662344" lon="13.9500552"><ele>489.33333333333337</ele><time>2026-04-26T09:04:18.315Z</time></trkpt><trkpt lat="37.6624784" lon="13.9499165"><ele>490.0</ele><time>2026-04-26T09:04:19.315Z</time></trkpt><trkpt lat="37.6625978" lon="13.9497951"><ele>490.0</ele><time>2026-04-26T09:04:20.314Z</time></trkpt><trkpt lat="37.662712" lon="13.9496983"><ele>490.0</ele><time>2026-04-26T09:04:21.315Z</time></trkpt><trkpt lat="37.662826" lon="13.9496352"><ele>490.0</ele><time>2026-04-26T09:04:22.315Z</time></trkpt><trkpt lat="37.6629483" lon="13.9496064"><ele>490.0</ele><time>2026-04-26T09:04:23.315Z</time></trkpt><trkpt lat="37.6630798" lon="13.9495958"><ele>492.25</ele><time>2026-04-26T09:04:24.315Z</time></trkpt><trkpt lat="37.6632239" lon="13.9495907"><ele>494.5</ele><time>2026-04-26T09:04:25.315Z</time></trkpt><trkpt lat="37.6633728" lon="13.9495909"><ele>496.75</ele><time>2026-04-26T09:04:26.315Z</time></trkpt><trkpt lat="37.6635117" lon="13.949598"><ele>499.0</ele><time>2026-04-26T09:04:27.315Z</time></trkpt><trkpt lat="37.6636486" lon="13.949626"><ele>499.25</ele><time>2026-04-26T09:04:28.315Z</time></trkpt><trkpt lat="37.6637801" lon="13.949686"><ele>499.5</ele><time>2026-04-26T09:04:29.315Z</time></trkpt><trkpt lat="37.6639109" lon="13.9497782"><ele>499.75</ele><time>2026-04-26T09:04:30.315Z</time></trkpt><trkpt lat="37.6640283" lon="13.9498761"><ele>500.0</ele><time>2026-04-26T09:04:31.315Z</time></trkpt><trkpt lat="37.6641326" lon="13.9499714"><ele>501.25</ele><time>2026-04-26T09:04:32.315Z</time></trkpt><trkpt lat="37.664218" lon="13.950076"><ele>502.5</ele><time>2026-04-26T09:04:33.315Z</time></trkpt><trkpt lat="37.664281" lon="13.9501998"><ele>503.75</ele><time>2026-04-26T09:04:34.315Z</time></trkpt><trkpt lat="37.6643277" lon="13.9503438"><ele>505.0</ele><time>2026-04-26T09:04:35.315Z</time></trkpt><trkpt lat="37.6643528" lon="13.9505177"><ele>505.0</ele><time>2026-04-26T09:04:36.315Z</time></trkpt><trkpt lat="37.6643671" lon="13.9506961"><ele>505.0</ele><time>2026-04-26T09:04:37.315Z</time></trkpt><trkpt lat="37.6643862" lon="13.9508835"><ele>505.0</ele><time>2026-04-26T09:04:38.315Z</time></trkpt><trkpt lat="37.6644072" lon="13.9510846"><ele>505.75</ele><time>2026-04-26T09:04:39.315Z</time></trkpt><trkpt lat="37.6644243" lon="13.9512763"><ele>506.5</ele><time>2026-04-26T09:04:40.315Z</time></trkpt><trkpt lat="37.6644372" lon="13.9514566"><ele>507.25</ele><time>2026-04-26T09:04:41.315Z</time></trkpt><trkpt lat="37.6644715" lon="13.9516187"><ele>508.0</ele><time>2026-04-26T09:04:42.315Z</time></trkpt><trkpt lat="37.6645252" lon="13.9517505"><ele>510.0</ele><time>2026-04-26T09:04:43.314Z</time></trkpt><trkpt lat="37.6646061" lon="13.9518559"><ele>512.0</ele><time>2026-04-26T09:04:44.315Z</time></trkpt><trkpt lat="37.6647117" lon="13.9519261"><ele>514.0</ele><time>2026-04-26T09:04:45.315Z</time></trkpt><trkpt lat="37.6648345" lon="13.9519901"><ele>516.0</ele><time>2026-04-26T09:04:46.315Z</time></trkpt><trkpt lat="37.6649512" lon="13.9520699"><ele>516.0</ele><time>2026-04-26T09:04:47.315Z</time></trkpt><trkpt lat="37.6650747" lon="13.9521443"><ele>516.0</ele><time>2026-04-26T09:04:48.315Z</time></trkpt><trkpt lat="37.6651892" lon="13.9522446"><ele>516.0</ele><time>2026-04-26T09:04:49.315Z</time></trkpt><trkpt lat="37.6652868" lon="13.9523708"><ele>516.0</ele><time>2026-04-26T09:04:50.315Z</time></trkpt><trkpt lat="37.6653723" lon="13.9525194"><ele>518.3333333333334</ele><time>2026-04-26T09:04:51.315Z</time></trkpt><trkpt lat="37.6654604" lon="13.9526726"><ele>520.6666666666667</ele><time>2026-04-26T09:04:52.315Z</time></trkpt><trkpt lat="37.6655508" lon="13.9528379"><ele>523.0</ele><time>2026-04-26T09:04:53.315Z</time></trkpt><trkpt lat="37.6656477" lon="13.9530131"><ele>523.0</ele><time>2026-04-26T09:04:54.315Z</time></trkpt><trkpt lat="37.6657466" lon="13.9531858"><ele>523.0</ele><time>2026-04-26T09:04:55.315Z</time></trkpt><trkpt lat="37.665852" lon="13.9533765"><ele>523.0</ele><time>2026-04-26T09:04:56.315Z</time></trkpt><trkpt lat="37.665961" lon="13.953571"><ele>524.6666666666667</ele><time>2026-04-26T09:04:57.315Z</time></trkpt><trkpt lat="37.6660679" lon="13.9537704"><ele>526.3333333333334</ele><time>2026-04-26T09:04:58.315Z</time></trkpt><trkpt lat="37.6661903" lon="13.9539772"><ele>528.0</ele><time>2026-04-26T09:04:59.314Z</time></trkpt><trkpt lat="37.6663111" lon="13.9541915"><ele>530.3333333333334</ele><time>2026-04-26T09:05:00.315Z</time></trkpt><trkpt lat="37.666428" lon="13.9544047"><ele>532.6666666666667</ele><time>2026-04-26T09:05:01.315Z</time></trkpt><trkpt lat="37.6665358" lon="13.9545993"><ele>535.0</ele><time>2026-04-26T09:05:02.315Z</time></trkpt><trkpt lat="37.6666349" lon="13.9547815"><ele>535.0</ele><time>2026-04-26T09:05:03.315Z</time></trkpt><trkpt lat="37.6667329" lon="13.954946"><ele>535.0</ele><time>2026-04-26T09:05:04.314Z</time></trkpt><trkpt lat="37.6668375" lon="13.955086"><ele>535.0</ele><time>2026-04-26T09:05:05.315Z</time></trkpt><trkpt lat="37.6669564" lon="13.9552142"><ele>537.0</ele><time>2026-04-26T09:05:06.315Z</time></trkpt><trkpt lat="37.6670973" lon="13.9553302"><ele>539.0</ele><time>2026-04-26T09:05:07.314Z</time></trkpt><trkpt lat="37.6672617" lon="13.9554229"><ele>541.0</ele><time>2026-04-26T09:05:08.315Z</time></trkpt><trkpt lat="37.6674446" lon="13.955519"><ele>541.0</ele><time>2026-04-26T09:05:09.315Z</time></trkpt><trkpt lat="37.6676387" lon="13.9556196"><ele>541.0</ele><time>2026-04-26T09:05:10.314Z</time></trkpt><trkpt lat="37.6678559" lon="13.9557337"><ele>541.0</ele><time>2026-04-26T09:05:11.315Z</time></trkpt><trkpt lat="37.6680701" lon="13.9558291"><ele>544.6666666666667</ele><time>2026-04-26T09:05:12.315Z</time></trkpt><trkpt lat="37.668274" lon="13.9559251"><ele>548.3333333333334</ele><time>2026-04-26T09:05:13.315Z</time></trkpt><trkpt lat="37.6684641" lon="13.9560137"><ele>552.0</ele><time>2026-04-26T09:05:14.314Z</time></trkpt><trkpt lat="37.6686405" lon="13.9561013"><ele>553.0</ele><time>2026-04-26T09:05:15.315Z</time></trkpt><trkpt lat="37.6687995" lon="13.9561793"><ele>554.0</ele><time>2026-04-26T09:05:16.315Z</time></trkpt><trkpt lat="37.6689567" lon="13.9562602"><ele>555.0</ele><time>2026-04-26T09:05:17.315Z</time></trkpt><trkpt lat="37.669113" lon="13.9563497"><ele>555.0</ele><time>2026-04-26T09:05:18.315Z</time></trkpt><trkpt lat="37.6692513" lon="13.9564119"><ele>555.0</ele><time>2026-04-26T09:05:19.315Z</time></trkpt><trkpt lat="37.6693866" lon="13.9564688"><ele>555.0</ele><time>2026-04-26T09:05:20.315Z</time></trkpt><trkpt lat="37.6695372" lon="13.9564981"><ele>555.0</ele><time>2026-04-26T09:05:21.315Z</time></trkpt><trkpt lat="37.6697013" lon="13.9565102"><ele>556.3333333333334</ele><time>2026-04-26T09:05:22.314Z</time></trkpt><trkpt lat="37.6698829" lon="13.9565009"><ele>557.6666666666667</ele><time>2026-04-26T09:05:23.315Z</time></trkpt><trkpt lat="37.670074" lon="13.9565049"><ele>559.0</ele><time>2026-04-26T09:05:24.315Z</time></trkpt><trkpt lat="37.670248" lon="13.9565062"><ele>561.25</ele><time>2026-04-26T09:05:25.315Z</time></trkpt><trkpt lat="37.6703998" lon="13.9565268"><ele>563.5</ele><time>2026-04-26T09:05:26.315Z</time></trkpt><trkpt lat="37.6705407" lon="13.9565244"><ele>565.75</ele><time>2026-04-26T09:05:27.315Z</time></trkpt><trkpt lat="37.6706722" lon="13.9565019"><ele>568.0</ele><time>2026-04-26T09:05:28.314Z</time></trkpt><trkpt lat="37.6707857" lon="13.9564404"><ele>568.0</ele><time>2026-04-26T09:05:29.314Z</time></trkpt><trkpt lat="37.6709072" lon="13.9563591"><ele>568.0</ele><time>2026-04-26T09:05:30.315Z</time></trkpt><trkpt lat="37.6710015" lon="13.9562361"><ele>568.0</ele><time>2026-04-26T09:05:31.315Z</time></trkpt><trkpt lat="37.6710984" lon="13.9560545"><ele>568.0</ele><time>2026-04-26T09:05:32.315Z</time></trkpt><trkpt lat="37.6711826" lon="13.9558435"><ele>572.0</ele><time>2026-04-26T09:05:33.315Z</time></trkpt><trkpt lat="37.671252" lon="13.955611"><ele>576.0</ele><time>2026-04-26T09:05:34.315Z</time></trkpt><trkpt lat="37.6713119" lon="13.9553925"><ele>580.0</ele><time>2026-04-26T09:05:35.315Z</time></trkpt><trkpt lat="37.6713735" lon="13.9551853"><ele>579.3333333333334</ele><time>2026-04-26T09:05:36.315Z</time></trkpt><trkpt lat="37.671425" lon="13.9550007"><ele>578.6666666666666</ele><time>2026-04-26T09:05:37.315Z</time></trkpt><trkpt lat="37.6714896" lon="13.9548151"><ele>578.0</ele><time>2026-04-26T09:05:38.315Z</time></trkpt><trkpt lat="37.6715609" lon="13.9546514"><ele>578.0</ele><time>2026-04-26T09:05:39.315Z</time></trkpt><trkpt lat="37.6716476" lon="13.9545085"><ele>578.0</ele><time>2026-04-26T09:05:40.315Z</time></trkpt><trkpt lat="37.6717444" lon="13.9543904"><ele>578.0</ele><time>2026-04-26T09:05:41.315Z</time></trkpt><trkpt lat="37.6718445" lon="13.9543194"><ele>578.0</ele><time>2026-04-26T09:05:42.314Z</time></trkpt><trkpt lat="37.6719593" lon="13.9542895"><ele>578.5</ele><time>2026-04-26T09:05:43.315Z</time></trkpt><trkpt lat="37.6720818" lon="13.9543061"><ele>579.0</ele><time>2026-04-26T09:05:44.315Z</time></trkpt><trkpt lat="37.6721919" lon="13.9543606"><ele>579.5</ele><time>2026-04-26T09:05:45.314Z</time></trkpt><trkpt lat="37.6722862" lon="13.9544519"><ele>580.0</ele><time>2026-04-26T09:05:46.315Z</time></trkpt><trkpt lat="37.6723645" lon="13.9545717"><ele>580.0</ele><time>2026-04-26T09:05:47.315Z</time></trkpt><trkpt lat="37.6724297" lon="13.9547099"><ele>580.0</ele><time>2026-04-26T09:05:48.315Z</time></trkpt><trkpt lat="37.672495" lon="13.9548715"><ele>580.0</ele><time>2026-04-26T09:05:49.315Z</time></trkpt><trkpt lat="37.6725697" lon="13.9550554"><ele>580.0</ele><time>2026-04-26T09:05:50.315Z</time></trkpt><trkpt lat="37.6726518" lon="13.9552377"><ele>577.3333333333334</ele><time>2026-04-26T09:05:51.315Z</time></trkpt><trkpt lat="37.6727231" lon="13.9554171"><ele>574.6666666666666</ele><time>2026-04-26T09:05:52.315Z</time></trkpt><trkpt lat="37.6727916" lon="13.9555894"><ele>572.0</ele><time>2026-04-26T09:05:53.315Z</time></trkpt><trkpt lat="37.6728625" lon="13.9557535"><ele>573.75</ele><time>2026-04-26T09:05:54.315Z</time></trkpt><trkpt lat="37.672926" lon="13.9559142"><ele>575.5</ele><time>2026-04-26T09:05:55.315Z</time></trkpt><trkpt lat="37.6729707" lon="13.9560627"><ele>577.25</ele><time>2026-04-26T09:05:56.315Z</time></trkpt><trkpt lat="37.6729927" lon="13.9562135"><ele>579.0</ele><time>2026-04-26T09:05:57.315Z</time></trkpt><trkpt lat="37.6729899" lon="13.9563657"><ele>579.0</ele><time>2026-04-26T09:05:58.315Z</time></trkpt><trkpt lat="37.6729606" lon="13.9565286"><ele>579.0</ele><time>2026-04-26T09:05:59.315Z</time></trkpt><trkpt lat="37.672916" lon="13.9567045"><ele>579.0</ele><time>2026-04-26T09:06:00.315Z</time></trkpt><trkpt lat="37.6728809" lon="13.9568775"><ele>579.0</ele><time>2026-04-26T09:06:01.315Z</time></trkpt><trkpt lat="37.6728485" lon="13.9570309"><ele>579.6</ele><time>2026-04-26T09:06:02.315Z</time></trkpt><trkpt lat="37.6728218" lon="13.9571717"><ele>580.2</ele><time>2026-04-26T09:06:03.315Z</time></trkpt><trkpt lat="37.6728086" lon="13.9573071"><ele>580.8000000000001</ele><time>2026-04-26T09:06:04.315Z</time></trkpt><trkpt lat="37.6728363" lon="13.9574239"><ele>581.4</ele><time>2026-04-26T09:06:05.315Z</time></trkpt><trkpt lat="37.6728855" lon="13.9575472"><ele>582.0</ele><time>2026-04-26T09:06:06.315Z</time></trkpt><trkpt lat="37.6729388" lon="13.9576815"><ele>583.5</ele><time>2026-04-26T09:06:07.315Z</time></trkpt><trkpt lat="37.6729829" lon="13.9578223"><ele>585.0</ele><time>2026-04-26T09:06:08.315Z</time></trkpt><trkpt lat="37.673012" lon="13.9579748"><ele>586.5</ele><time>2026-04-26T09:06:09.315Z</time></trkpt><trkpt lat="37.6730142" lon="13.9581399"><ele>588.0</ele><time>2026-04-26T09:06:10.315Z</time></trkpt><trkpt lat="37.6730108" lon="13.9583181"><ele>590.3333333333334</ele><time>2026-04-26T09:06:11.315Z</time></trkpt><trkpt lat="37.672997" lon="13.9585097"><ele>592.6666666666667</ele><time>2026-04-26T09:06:12.315Z</time></trkpt><trkpt lat="37.672982" lon="13.9587076"><ele>595.0</ele><time>2026-04-26T09:06:13.315Z</time></trkpt><trkpt lat="37.6729651" lon="13.9589109"><ele>595.0</ele><time>2026-04-26T09:06:14.315Z</time></trkpt><trkpt lat="37.6729564" lon="13.9590927"><ele>595.0</ele><time>2026-04-26T09:06:15.315Z</time></trkpt><trkpt lat="37.6729464" lon="13.9592579"><ele>595.0</ele><time>2026-04-26T09:06:16.315Z</time></trkpt><trkpt lat="37.6729443" lon="13.959408"><ele>595.0</ele><time>2026-04-26T09:06:17.315Z</time></trkpt><trkpt lat="37.6729524" lon="13.9595413"><ele>597.5</ele><time>2026-04-26T09:06:18.315Z</time></trkpt><trkpt lat="37.6729853" lon="13.959677"><ele>600.0</ele><time>2026-04-26T09:06:19.315Z</time></trkpt><trkpt lat="37.6730515" lon="13.9598017"><ele>602.5</ele><time>2026-04-26T09:06:20.315Z</time></trkpt><trkpt lat="37.6731446" lon="13.9599291"><ele>605.0</ele><time>2026-04-26T09:06:21.315Z</time></trkpt><trkpt lat="37.6732644" lon="13.9600608"><ele>606.3333333333333</ele><time>2026-04-26T09:06:22.315Z</time></trkpt><trkpt lat="37.6733822" lon="13.9601969"><ele>607.6666666666666</ele><time>2026-04-26T09:06:23.315Z</time></trkpt><trkpt lat="37.6734969" lon="13.9603294"><ele>609.0</ele><time>2026-04-26T09:06:24.315Z</time></trkpt><trkpt lat="37.6736102" lon="13.9604605"><ele>609.0</ele><time>2026-04-26T09:06:25.315Z</time></trkpt><trkpt lat="37.6737308" lon="13.9605896"><ele>609.0</ele><time>2026-04-26T09:06:26.315Z</time></trkpt><trkpt lat="37.6738511" lon="13.9607356"><ele>609.0</ele><time>2026-04-26T09:06:27.315Z</time></trkpt><trkpt lat="37.6739756" lon="13.9608822"><ele>608.6666666666666</ele><time>2026-04-26T09:06:28.315Z</time></trkpt><trkpt lat="37.6741088" lon="13.961033"><ele>608.3333333333333</ele><time>2026-04-26T09:06:29.315Z</time></trkpt><trkpt lat="37.6742369" lon="13.9611785"><ele>608.0</ele><time>2026-04-26T09:06:30.315Z</time></trkpt><trkpt lat="37.6743616" lon="13.961318"><ele>607.0</ele><time>2026-04-26T09:06:31.314Z</time></trkpt><trkpt lat="37.6744726" lon="13.9614472"><ele>606.0</ele><time>2026-04-26T09:06:32.315Z</time></trkpt><trkpt lat="37.6745749" lon="13.9615798"><ele>605.0</ele><time>2026-04-26T09:06:33.315Z</time></trkpt><trkpt lat="37.6746657" lon="13.9617225"><ele>604.0</ele><time>2026-04-26T09:06:34.315Z</time></trkpt><trkpt lat="37.6747594" lon="13.9618806"><ele>603.0</ele><time>2026-04-26T09:06:35.315Z</time></trkpt><trkpt lat="37.6748475" lon="13.9620606"><ele>602.0</ele><time>2026-04-26T09:06:36.315Z</time></trkpt><trkpt lat="37.6749389" lon="13.9622464"><ele>601.0</ele><time>2026-04-26T09:06:37.315Z</time></trkpt><trkpt lat="37.6750252" lon="13.9624275"><ele>600.3333333333334</ele><time>2026-04-26T09:06:38.315Z</time></trkpt><trkpt lat="37.6751085" lon="13.962603"><ele>599.6666666666666</ele><time>2026-04-26T09:06:39.315Z</time></trkpt><trkpt lat="37.6751946" lon="13.9627715"><ele>599.0</ele><time>2026-04-26T09:06:40.315Z</time></trkpt><trkpt lat="37.6752746" lon="13.9629314"><ele>599.0</ele><time>2026-04-26T09:06:41.315Z</time></trkpt><trkpt lat="37.6753535" lon="13.9630851"><ele>599.0</ele><time>2026-04-26T09:06:42.315Z</time></trkpt><trkpt lat="37.6754184" lon="13.9632259"><ele>599.0</ele><time>2026-04-26T09:06:43.314Z</time></trkpt><trkpt lat="37.6754781" lon="13.9633608"><ele>599.0</ele><time>2026-04-26T09:06:44.314Z</time></trkpt><trkpt lat="37.6755437" lon="13.9634728"><ele>595.0</ele><time>2026-04-26T09:06:45.315Z</time></trkpt><trkpt lat="37.6756218" lon="13.9635697"><ele>591.0</ele><time>2026-04-26T09:06:46.315Z</time></trkpt><trkpt lat="37.6757188" lon="13.9636542"><ele>587.0</ele><time>2026-04-26T09:06:47.315Z</time></trkpt><trkpt lat="37.6758304" lon="13.9637356"><ele>583.0</ele><time>2026-04-26T09:06:48.315Z</time></trkpt><trkpt lat="37.6759547" lon="13.9638198"><ele>583.0</ele><time>2026-04-26T09:06:49.315Z</time></trkpt><trkpt lat="37.6760917" lon="13.9638965"><ele>583.0</ele><time>2026-04-26T09:06:50.315Z</time></trkpt><trkpt lat="37.676228" lon="13.9639815"><ele>583.0</ele><time>2026-04-26T09:06:51.315Z</time></trkpt><trkpt lat="37.6763636" lon="13.9640702"><ele>584.3333333333334</ele><time>2026-04-26T09:06:52.315Z</time></trkpt><trkpt lat="37.6765112" lon="13.9641542"><ele>585.6666666666666</ele><time>2026-04-26T09:06:53.315Z</time></trkpt><trkpt lat="37.6766627" lon="13.9642449"><ele>587.0</ele><time>2026-04-26T09:06:54.315Z</time></trkpt><trkpt lat="37.6768074" lon="13.9643401"><ele>583.3333333333333</ele><time>2026-04-26T09:06:55.315Z</time></trkpt><trkpt lat="37.676944" lon="13.964437"><ele>579.6666666666666</ele><time>2026-04-26T09:06:56.315Z</time></trkpt><trkpt lat="37.6770797" lon="13.9645259"><ele>576.0</ele><time>2026-04-26T09:06:57.315Z</time></trkpt><trkpt lat="37.6772125" lon="13.9646071"><ele>576.0</ele><time>2026-04-26T09:06:58.315Z</time></trkpt><trkpt lat="37.6773438" lon="13.9646785"><ele>576.0</ele><time>2026-04-26T09:06:59.315Z</time></trkpt><trkpt lat="37.6774757" lon="13.9647417"><ele>576.0</ele><time>2026-04-26T09:07:00.315Z</time></trkpt><trkpt lat="37.6775951" lon="13.9647953"><ele>576.0</ele><time>2026-04-26T09:07:01.315Z</time></trkpt><trkpt lat="37.6777041" lon="13.9648426"><ele>577.0</ele><time>2026-04-26T09:07:02.315Z</time></trkpt><trkpt lat="37.6778061" lon="13.9648969"><ele>578.0</ele><time>2026-04-26T09:07:03.315Z</time></trkpt><trkpt lat="37.6779034" lon="13.9649667"><ele>579.0</ele><time>2026-04-26T09:07:04.315Z</time></trkpt><trkpt lat="37.6779892" lon="13.9650508"><ele>580.0</ele><time>2026-04-26T09:07:05.315Z</time></trkpt><trkpt lat="37.6780615" lon="13.9651344"><ele>581.0</ele><time>2026-04-26T09:07:06.315Z</time></trkpt><trkpt lat="37.6781191" lon="13.9652245"><ele>579.0</ele><time>2026-04-26T09:07:07.314Z</time></trkpt><trkpt lat="37.6781609" lon="13.9653261"><ele>577.0</ele><time>2026-04-26T09:07:08.315Z</time></trkpt><trkpt lat="37.6781846" lon="13.965437"><ele>575.0</ele><time>2026-04-26T09:07:09.315Z</time></trkpt><trkpt lat="37.6781973" lon="13.9655542"><ele>573.0</ele><time>2026-04-26T09:07:10.314Z</time></trkpt><trkpt lat="37.6782071" lon="13.9656811"><ele>571.0</ele><time>2026-04-26T09:07:11.315Z</time></trkpt><trkpt lat="37.6782136" lon="13.9658134"><ele>569.8333333333334</ele><time>2026-04-26T09:07:12.315Z</time></trkpt><trkpt lat="37.6782228" lon="13.9659434"><ele>568.6666666666667</ele><time>2026-04-26T09:07:13.315Z</time></trkpt><trkpt lat="37.6782354" lon="13.9660593"><ele>567.5</ele><time>2026-04-26T09:07:14.315Z</time></trkpt><trkpt lat="37.6782632" lon="13.9661548"><ele>566.3333333333334</ele><time>2026-04-26T09:07:15.315Z</time></trkpt><trkpt lat="37.6783045" lon="13.966237"><ele>565.1666666666666</ele><time>2026-04-26T09:07:16.315Z</time></trkpt><trkpt lat="37.6783615" lon="13.9662934"><ele>564.0</ele><time>2026-04-26T09:07:17.315Z</time></trkpt><trkpt lat="37.6784344" lon="13.966319"><ele>564.0</ele><time>2026-04-26T09:07:18.315Z</time></trkpt><trkpt lat="37.6785269" lon="13.9663395"><ele>564.0</ele><time>2026-04-26T09:07:19.315Z</time></trkpt><trkpt lat="37.6786262" lon="13.966358"><ele>564.0</ele><time>2026-04-26T09:07:20.315Z</time></trkpt><trkpt lat="37.6787127" lon="13.9663735"><ele>564.0</ele><time>2026-04-26T09:07:21.315Z</time></trkpt><trkpt lat="37.6787931" lon="13.9663996"><ele>564.0</ele><time>2026-04-26T09:07:22.315Z</time></trkpt><trkpt lat="37.678868" lon="13.9664469"><ele>564.0</ele><time>2026-04-26T09:07:23.315Z</time></trkpt><trkpt lat="37.6789348" lon="13.9665166"><ele>564.0</ele><time>2026-04-26T09:07:24.315Z</time></trkpt><trkpt lat="37.6790039" lon="13.9666058"><ele>564.0</ele><time>2026-04-26T09:07:25.315Z</time></trkpt><trkpt lat="37.6790758" lon="13.9667129"><ele>564.0</ele><time>2026-04-26T09:07:26.315Z</time></trkpt><trkpt lat="37.679147" lon="13.9668311"><ele>564.0</ele><time>2026-04-26T09:07:27.315Z</time></trkpt><trkpt lat="37.6792202" lon="13.9669516"><ele>564.0</ele><time>2026-04-26T09:07:28.315Z</time></trkpt><trkpt lat="37.6792952" lon="13.9670745"><ele>562.5</ele><time>2026-04-26T09:07:29.315Z</time></trkpt><trkpt lat="37.679372" lon="13.9671989"><ele>561.0</ele><time>2026-04-26T09:07:30.315Z</time></trkpt><trkpt lat="37.6794511" lon="13.9673224"><ele>559.5</ele><time>2026-04-26T09:07:31.315Z</time></trkpt><trkpt lat="37.6795365" lon="13.9674449"><ele>558.0</ele><time>2026-04-26T09:07:32.315Z</time></trkpt><trkpt lat="37.679631" lon="13.9675575"><ele>556.25</ele><time>2026-04-26T09:07:33.314Z</time></trkpt><trkpt lat="37.6797373" lon="13.9676588"><ele>554.5</ele><time>2026-04-26T09:07:34.315Z</time></trkpt><trkpt lat="37.6798499" lon="13.9677587"><ele>552.75</ele><time>2026-04-26T09:07:35.315Z</time></trkpt><trkpt lat="37.6799613" lon="13.9678549"><ele>551.0</ele><time>2026-04-26T09:07:36.315Z</time></trkpt><trkpt lat="37.6800662" lon="13.967946"><ele>551.0</ele><time>2026-04-26T09:07:37.315Z</time></trkpt><trkpt lat="37.6801528" lon="13.9680339"><ele>551.0</ele><time>2026-04-26T09:07:38.315Z</time></trkpt><trkpt lat="37.6802187" lon="13.9681307"><ele>551.0</ele><time>2026-04-26T09:07:39.315Z</time></trkpt><trkpt lat="37.6802656" lon="13.9682376"><ele>551.0</ele><time>2026-04-26T09:07:40.315Z</time></trkpt><trkpt lat="37.6802956" lon="13.9683591"><ele>551.0</ele><time>2026-04-26T09:07:41.315Z</time></trkpt><trkpt lat="37.680311" lon="13.9685015"><ele>555.25</ele><time>2026-04-26T09:07:42.315Z</time></trkpt><trkpt lat="37.6803143" lon="13.9686588"><ele>559.5</ele><time>2026-04-26T09:07:43.315Z</time></trkpt><trkpt lat="37.6803096" lon="13.968821"><ele>563.75</ele><time>2026-04-26T09:07:44.315Z</time></trkpt><trkpt lat="37.6802988" lon="13.968981"><ele>568.0</ele><time>2026-04-26T09:07:45.315Z</time></trkpt><trkpt lat="37.6802815" lon="13.9691331"><ele>564.0</ele><time>2026-04-26T09:07:46.315Z</time></trkpt><trkpt lat="37.6802632" lon="13.969291"><ele>560.0</ele><time>2026-04-26T09:07:47.315Z</time></trkpt><trkpt lat="37.6802485" lon="13.9694413"><ele>556.0</ele><time>2026-04-26T09:07:48.315Z</time></trkpt><trkpt lat="37.6802206" lon="13.9696104"><ele>552.0</ele><time>2026-04-26T09:07:49.315Z</time></trkpt><trkpt lat="37.6801807" lon="13.9697686"><ele>552.0</ele><time>2026-04-26T09:07:50.315Z</time></trkpt><trkpt lat="37.6801336" lon="13.9699174"><ele>552.0</ele><time>2026-04-26T09:07:51.315Z</time></trkpt><trkpt lat="37.6800761" lon="13.9700531"><ele>552.0</ele><time>2026-04-26T09:07:52.315Z</time></trkpt><trkpt lat="37.6800019" lon="13.970186"><ele>552.0</ele><time>2026-04-26T09:07:53.315Z</time></trkpt><trkpt lat="37.6799159" lon="13.9703225"><ele>553.25</ele><time>2026-04-26T09:07:54.315Z</time></trkpt><trkpt lat="37.6798256" lon="13.9704659"><ele>554.5</ele><time>2026-04-26T09:07:55.315Z</time></trkpt><trkpt lat="37.6797359" lon="13.9706057"><ele>555.75</ele><time>2026-04-26T09:07:56.315Z</time></trkpt><trkpt lat="37.6796497" lon="13.9707435"><ele>557.0</ele><time>2026-04-26T09:07:57.315Z</time></trkpt><trkpt lat="37.6795652" lon="13.9708739"><ele>557.0</ele><time>2026-04-26T09:07:58.314Z</time></trkpt><trkpt lat="37.6794917" lon="13.9709987"><ele>557.0</ele><time>2026-04-26T09:07:59.315Z</time></trkpt><trkpt lat="37.679431" lon="13.9711208"><ele>557.0</ele><time>2026-04-26T09:08:00.315Z</time></trkpt><trkpt lat="37.6793964" lon="13.9712528"><ele>557.0</ele><time>2026-04-26T09:08:01.314Z</time></trkpt><trkpt lat="37.6793676" lon="13.9714155"><ele>550.6666666666666</ele><time>2026-04-26T09:08:02.315Z</time></trkpt><trkpt lat="37.6793429" lon="13.9716119"><ele>544.3333333333334</ele><time>2026-04-26T09:08:03.315Z</time></trkpt><trkpt lat="37.6793154" lon="13.9718107"><ele>538.0</ele><time>2026-04-26T09:08:04.315Z</time></trkpt><trkpt lat="37.6792852" lon="13.9720409"><ele>537.0</ele><time>2026-04-26T09:08:05.315Z</time></trkpt><trkpt lat="37.6792566" lon="13.9722909"><ele>536.0</ele><time>2026-04-26T09:08:06.315Z</time></trkpt><trkpt lat="37.6792213" lon="13.9725532"><ele>535.0</ele><time>2026-04-26T09:08:07.315Z</time></trkpt><trkpt lat="37.6791873" lon="13.9728332"><ele>534.0</ele><time>2026-04-26T09:08:08.315Z</time></trkpt><trkpt lat="37.679153" lon="13.9731014"><ele>533.0</ele><time>2026-04-26T09:08:09.315Z</time></trkpt><trkpt lat="37.6791195" lon="13.9733635"><ele>532.0</ele><time>2026-04-26T09:08:10.314Z</time></trkpt><trkpt lat="37.6790889" lon="13.9736087"><ele>532.0</ele><time>2026-04-26T09:08:11.315Z</time></trkpt><trkpt lat="37.6790571" lon="13.9738447"><ele>532.0</ele><time>2026-04-26T09:08:12.315Z</time></trkpt><trkpt lat="37.6790283" lon="13.9740723"><ele>532.0</ele><time>2026-04-26T09:08:13.315Z</time></trkpt><trkpt lat="37.6790007" lon="13.9742963"><ele>532.3333333333334</ele><time>2026-04-26T09:08:14.315Z</time></trkpt><trkpt lat="37.6789716" lon="13.9745345"><ele>532.6666666666666</ele><time>2026-04-26T09:08:15.315Z</time></trkpt><trkpt lat="37.6789427" lon="13.9747851"><ele>533.0</ele><time>2026-04-26T09:08:16.315Z</time></trkpt><trkpt lat="37.6789092" lon="13.9750378"><ele>533.0</ele><time>2026-04-26T09:08:17.315Z</time></trkpt><trkpt lat="37.6788794" lon="13.9752976"><ele>533.0</ele><time>2026-04-26T09:08:18.315Z</time></trkpt><trkpt lat="37.6788506" lon="13.9755442"><ele>533.0</ele><time>2026-04-26T09:08:19.315Z</time></trkpt><trkpt lat="37.6788216" lon="13.9757878"><ele>531.0</ele><time>2026-04-26T09:08:20.315Z</time></trkpt><trkpt lat="37.6787978" lon="13.9760126"><ele>529.0</ele><time>2026-04-26T09:08:21.315Z</time></trkpt><trkpt lat="37.6787733" lon="13.9762355"><ele>527.0</ele><time>2026-04-26T09:08:22.315Z</time></trkpt><trkpt lat="37.6787532" lon="13.9764552"><ele>527.0</ele><time>2026-04-26T09:08:23.315Z</time></trkpt><trkpt lat="37.6787284" lon="13.9766805"><ele>527.0</ele><time>2026-04-26T09:08:24.315Z</time></trkpt><trkpt lat="37.6786957" lon="13.9769094"><ele>527.0</ele><time>2026-04-26T09:08:25.315Z</time></trkpt><trkpt lat="37.6786599" lon="13.9771311"><ele>524.0</ele><time>2026-04-26T09:08:26.314Z</time></trkpt><trkpt lat="37.678615" lon="13.9773472"><ele>521.0</ele><time>2026-04-26T09:08:27.315Z</time></trkpt><trkpt lat="37.6785759" lon="13.9775563"><ele>518.0</ele><time>2026-04-26T09:08:28.315Z</time></trkpt><trkpt lat="37.6785368" lon="13.9777647"><ele>517.6666666666666</ele><time>2026-04-26T09:08:29.315Z</time></trkpt><trkpt lat="37.6784957" lon="13.9779672"><ele>517.3333333333334</ele><time>2026-04-26T09:08:30.315Z</time></trkpt><trkpt lat="37.6784553" lon="13.978171"><ele>517.0</ele><time>2026-04-26T09:08:31.315Z</time></trkpt><trkpt lat="37.6784168" lon="13.9783752"><ele>517.0</ele><time>2026-04-26T09:08:32.315Z</time></trkpt><trkpt lat="37.6783742" lon="13.978581"><ele>517.0</ele><time>2026-04-26T09:08:33.315Z</time></trkpt><trkpt lat="37.6783341" lon="13.9787883"><ele>517.0</ele><time>2026-04-26T09:08:34.315Z</time></trkpt><trkpt lat="37.6782946" lon="13.978998"><ele>519.3333333333334</ele><time>2026-04-26T09:08:35.314Z</time></trkpt><trkpt lat="37.678256" lon="13.9792043"><ele>521.6666666666666</ele><time>2026-04-26T09:08:36.315Z</time></trkpt><trkpt lat="37.6782275" lon="13.9794067"><ele>524.0</ele><time>2026-04-26T09:08:37.315Z</time></trkpt><trkpt lat="37.6782072" lon="13.9796073"><ele>524.0</ele><time>2026-04-26T09:08:38.315Z</time></trkpt><trkpt lat="37.6781984" lon="13.9798072"><ele>524.0</ele><time>2026-04-26T09:08:39.315Z</time></trkpt><trkpt lat="37.6782041" lon="13.9800155"><ele>524.0</ele><time>2026-04-26T09:08:40.314Z</time></trkpt><trkpt lat="37.6782174" lon="13.980227"><ele>524.0</ele><time>2026-04-26T09:08:41.315Z</time></trkpt><trkpt lat="37.6782351" lon="13.9804512"><ele>524.0</ele><time>2026-04-26T09:08:42.315Z</time></trkpt><trkpt lat="37.6782539" lon="13.9806848"><ele>524.0</ele><time>2026-04-26T09:08:43.315Z</time></trkpt><trkpt lat="37.6782677" lon="13.9809225"><ele>524.0</ele><time>2026-04-26T09:08:44.314Z</time></trkpt><trkpt lat="37.6782841" lon="13.9811539"><ele>524.0</ele><time>2026-04-26T09:08:45.315Z</time></trkpt><trkpt lat="37.6783009" lon="13.9813889"><ele>524.0</ele><time>2026-04-26T09:08:46.315Z</time></trkpt><trkpt lat="37.6783173" lon="13.9816231"><ele>524.0</ele><time>2026-04-26T09:08:47.315Z</time></trkpt><trkpt lat="37.6783374" lon="13.981857"><ele>524.0</ele><time>2026-04-26T09:08:48.315Z</time></trkpt><trkpt lat="37.6783536" lon="13.9820921"><ele>524.0</ele><time>2026-04-26T09:08:49.315Z</time></trkpt><trkpt lat="37.678371" lon="13.9823248"><ele>524.3333333333333</ele><time>2026-04-26T09:08:50.315Z</time></trkpt><trkpt lat="37.678387" lon="13.9825537"><ele>524.6666666666666</ele><time>2026-04-26T09:08:51.314Z</time></trkpt><trkpt lat="37.6784024" lon="13.9827737"><ele>525.0</ele><time>2026-04-26T09:08:52.314Z</time></trkpt><trkpt lat="37.6784155" lon="13.9829848"><ele>525.0</ele><time>2026-04-26T09:08:53.315Z</time></trkpt><trkpt lat="37.6784287" lon="13.9831994"><ele>525.0</ele><time>2026-04-26T09:08:54.315Z</time></trkpt><trkpt lat="37.6784418" lon="13.9834165"><ele>525.0</ele><time>2026-04-26T09:08:55.315Z</time></trkpt><trkpt lat="37.6784559" lon="13.9836187"><ele>525.25</ele><time>2026-04-26T09:08:56.315Z</time></trkpt><trkpt lat="37.6784712" lon="13.9838089"><ele>525.5</ele><time>2026-04-26T09:08:57.315Z</time></trkpt><trkpt lat="37.6784953" lon="13.9839902"><ele>525.75</ele><time>2026-04-26T09:08:58.315Z</time></trkpt><trkpt lat="37.6785516" lon="13.9841688"><ele>526.0</ele><time>2026-04-26T09:08:59.315Z</time></trkpt><trkpt lat="37.6786262" lon="13.9843598"><ele>530.0</ele><time>2026-04-26T09:09:00.315Z</time></trkpt><trkpt lat="37.6787163" lon="13.984555"><ele>534.0</ele><time>2026-04-26T09:09:01.314Z</time></trkpt><trkpt lat="37.6788125" lon="13.984745"><ele>538.0</ele><time>2026-04-26T09:09:02.315Z</time></trkpt><trkpt lat="37.6789076" lon="13.9849374"><ele>534.6666666666667</ele><time>2026-04-26T09:09:03.315Z</time></trkpt><trkpt lat="37.6790024" lon="13.985131"><ele>531.3333333333334</ele><time>2026-04-26T09:09:04.315Z</time></trkpt><trkpt lat="37.6790904" lon="13.9853199"><ele>528.0</ele><time>2026-04-26T09:09:05.315Z</time></trkpt><trkpt lat="37.6791755" lon="13.9854986"><ele>528.0</ele><time>2026-04-26T09:09:06.315Z</time></trkpt><trkpt lat="37.6792518" lon="13.9856706"><ele>528.0</ele><time>2026-04-26T09:09:07.315Z</time></trkpt><trkpt lat="37.67932" lon="13.9858437"><ele>528.0</ele><time>2026-04-26T09:09:08.315Z</time></trkpt><trkpt lat="37.6793746" lon="13.9860047"><ele>528.0</ele><time>2026-04-26T09:09:09.315Z</time></trkpt><trkpt lat="37.6794106" lon="13.9861571"><ele>528.5</ele><time>2026-04-26T09:09:10.315Z</time></trkpt><trkpt lat="37.6794156" lon="13.9863136"><ele>529.0</ele><time>2026-04-26T09:09:11.315Z</time></trkpt><trkpt lat="37.6793915" lon="13.9864621"><ele>529.5</ele><time>2026-04-26T09:09:12.315Z</time></trkpt><trkpt lat="37.6793452" lon="13.9866097"><ele>530.0</ele><time>2026-04-26T09:09:13.315Z</time></trkpt><trkpt lat="37.679296" lon="13.9867715"><ele>531.0</ele><time>2026-04-26T09:09:14.315Z</time></trkpt><trkpt lat="37.679225" lon="13.9869445"><ele>532.0</ele><time>2026-04-26T09:09:15.315Z</time></trkpt><trkpt lat="37.6791674" lon="13.9871172"><ele>533.0</ele><time>2026-04-26T09:09:16.315Z</time></trkpt><trkpt lat="37.6791083" lon="13.987282"><ele>534.0</ele><time>2026-04-26T09:09:17.315Z</time></trkpt><trkpt lat="37.6790604" lon="13.9874483"><ele>536.25</ele><time>2026-04-26T09:09:18.315Z</time></trkpt><trkpt lat="37.6790363" lon="13.9876193"><ele>538.5</ele><time>2026-04-26T09:09:19.315Z</time></trkpt><trkpt lat="37.6790392" lon="13.9877946"><ele>540.75</ele><time>2026-04-26T09:09:20.315Z</time></trkpt><trkpt lat="37.6790574" lon="13.9879742"><ele>543.0</ele><time>2026-04-26T09:09:21.315Z</time></trkpt><trkpt lat="37.6790896" lon="13.9881559"><ele>543.0</ele><time>2026-04-26T09:09:22.315Z</time></trkpt><trkpt lat="37.6791304" lon="13.9883408"><ele>543.0</ele><time>2026-04-26T09:09:23.314Z</time></trkpt><trkpt lat="37.6791674" lon="13.9885331"><ele>543.0</ele><time>2026-04-26T09:09:24.315Z</time></trkpt><trkpt lat="37.6792071" lon="13.9887258"><ele>548.0</ele><time>2026-04-26T09:09:25.314Z</time></trkpt><trkpt lat="37.679247" lon="13.9889237"><ele>553.0</ele><time>2026-04-26T09:09:26.314Z</time></trkpt><trkpt lat="37.6792918" lon="13.9891262"><ele>558.0</ele><time>2026-04-26T09:09:27.315Z</time></trkpt><trkpt lat="37.6793305" lon="13.9893249"><ele>560.6666666666666</ele><time>2026-04-26T09:09:28.315Z</time></trkpt><trkpt lat="37.6793659" lon="13.9895285"><ele>563.3333333333333</ele><time>2026-04-26T09:09:29.315Z</time></trkpt><trkpt lat="37.6793921" lon="13.9897428"><ele>566.0</ele><time>2026-04-26T09:09:30.315Z</time></trkpt><trkpt lat="37.6794237" lon="13.9899612"><ele>564.0</ele><time>2026-04-26T09:09:31.314Z</time></trkpt><trkpt lat="37.6794453" lon="13.9901842"><ele>562.0</ele><time>2026-04-26T09:09:32.315Z</time></trkpt><trkpt lat="37.6794556" lon="13.9903921"><ele>560.0</ele><time>2026-04-26T09:09:33.315Z</time></trkpt><trkpt lat="37.6794731" lon="13.9906148"><ele>560.0</ele><time>2026-04-26T09:09:34.315Z</time></trkpt><trkpt lat="37.6794899" lon="13.9908241"><ele>560.0</ele><time>2026-04-26T09:09:35.314Z</time></trkpt><trkpt lat="37.6795058" lon="13.9910282"><ele>560.0</ele><time>2026-04-26T09:09:36.315Z</time></trkpt><trkpt lat="37.6795218" lon="13.9912404"><ele>561.0</ele><time>2026-04-26T09:09:37.315Z</time></trkpt><trkpt lat="37.6795386" lon="13.9914466"><ele>562.0</ele><time>2026-04-26T09:09:38.315Z</time></trkpt><trkpt lat="37.6795498" lon="13.9916421"><ele>563.0</ele><time>2026-04-26T09:09:39.314Z</time></trkpt><trkpt lat="37.6795437" lon="13.9918244"><ele>563.0</ele><time>2026-04-26T09:09:40.315Z</time></trkpt><trkpt lat="37.679516" lon="13.9920032"><ele>563.0</ele><time>2026-04-26T09:09:41.315Z</time></trkpt><trkpt lat="37.6794652" lon="13.9921879"><ele>563.0</ele><time>2026-04-26T09:09:42.315Z</time></trkpt><trkpt lat="37.6794024" lon="13.9923756"><ele>569.0</ele><time>2026-04-26T09:09:43.314Z</time></trkpt><trkpt lat="37.6793336" lon="13.9925621"><ele>575.0</ele><time>2026-04-26T09:09:44.315Z</time></trkpt><trkpt lat="37.67927" lon="13.9927367"><ele>581.0</ele><time>2026-04-26T09:09:45.315Z</time></trkpt><trkpt lat="37.6792179" lon="13.9928942"><ele>581.0</ele><time>2026-04-26T09:09:46.315Z</time></trkpt><trkpt lat="37.6791672" lon="13.9930429"><ele>581.0</ele><time>2026-04-26T09:09:47.315Z</time></trkpt><trkpt lat="37.6791259" lon="13.9931862"><ele>581.0</ele><time>2026-04-26T09:09:48.315Z</time></trkpt><trkpt lat="37.679098" lon="13.9933286"><ele>581.0</ele><time>2026-04-26T09:09:49.315Z</time></trkpt><trkpt lat="37.6790831" lon="13.9934835"><ele>582.5</ele><time>2026-04-26T09:09:50.315Z</time></trkpt><trkpt lat="37.679098" lon="13.9936418"><ele>584.0</ele><time>2026-04-26T09:09:51.315Z</time></trkpt><trkpt lat="37.6791068" lon="13.9938146"><ele>585.5</ele><time>2026-04-26T09:09:52.314Z</time></trkpt><trkpt lat="37.6791153" lon="13.9939976"><ele>587.0</ele><time>2026-04-26T09:09:53.315Z</time></trkpt><trkpt lat="37.6791187" lon="13.994169"><ele>588.0</ele><time>2026-04-26T09:09:54.315Z</time></trkpt><trkpt lat="37.679118" lon="13.994328"><ele>589.0</ele><time>2026-04-26T09:09:55.314Z</time></trkpt><trkpt lat="37.6791195" lon="13.994494"><ele>590.0</ele><time>2026-04-26T09:09:56.315Z</time></trkpt><trkpt lat="37.6790984" lon="13.9946637"><ele>591.0</ele><time>2026-04-26T09:09:57.315Z</time></trkpt><trkpt lat="37.6790661" lon="13.994841"><ele>590.0</ele><time>2026-04-26T09:09:58.314Z</time></trkpt><trkpt lat="37.6790223" lon="13.9950345"><ele>589.0</ele><time>2026-04-26T09:09:59.315Z</time></trkpt><trkpt lat="37.6789724" lon="13.9952291"><ele>588.0</ele><time>2026-04-26T09:10:00.315Z</time></trkpt><trkpt lat="37.6789144" lon="13.9954088"><ele>588.0</ele><time>2026-04-26T09:10:01.315Z</time></trkpt><trkpt lat="37.6788387" lon="13.9955829"><ele>588.0</ele><time>2026-04-26T09:10:02.315Z</time></trkpt><trkpt lat="37.6787517" lon="13.9957539"><ele>588.0</ele><time>2026-04-26T09:10:03.315Z</time></trkpt><trkpt lat="37.6786611" lon="13.9959173"><ele>591.0</ele><time>2026-04-26T09:10:04.314Z</time></trkpt><trkpt lat="37.6785724" lon="13.99606"><ele>594.0</ele><time>2026-04-26T09:10:05.315Z</time></trkpt><trkpt lat="37.6784734" lon="13.9961854"><ele>597.0</ele><time>2026-04-26T09:10:06.315Z</time></trkpt><trkpt lat="37.6783651" lon="13.9963058"><ele>600.0</ele><time>2026-04-26T09:10:07.315Z</time></trkpt><trkpt lat="37.6782392" lon="13.9964137"><ele>600.0</ele><time>2026-04-26T09:10:08.315Z</time></trkpt><trkpt lat="37.6781063" lon="13.9965233"><ele>600.0</ele><time>2026-04-26T09:10:09.315Z</time></trkpt><trkpt lat="37.6779704" lon="13.9966363"><ele>600.0</ele><time>2026-04-26T09:10:10.315Z</time></trkpt><trkpt lat="37.6778361" lon="13.9967501"><ele>603.3333333333334</ele><time>2026-04-26T09:10:11.315Z</time></trkpt><trkpt lat="37.6777036" lon="13.9968609"><ele>606.6666666666667</ele><time>2026-04-26T09:10:12.315Z</time></trkpt><trkpt lat="37.6775765" lon="13.9969633"><ele>610.0</ele><time>2026-04-26T09:10:13.315Z</time></trkpt><trkpt lat="37.6774505" lon="13.9970606"><ele>610.0</ele><time>2026-04-26T09:10:14.315Z</time></trkpt><trkpt lat="37.6773299" lon="13.9971624"><ele>610.0</ele><time>2026-04-26T09:10:15.315Z</time></trkpt><trkpt lat="37.6772268" lon="13.9972753"><ele>610.0</ele><time>2026-04-26T09:10:16.315Z</time></trkpt><trkpt lat="37.6771412" lon="13.9974148"><ele>610.0</ele><time>2026-04-26T09:10:17.315Z</time></trkpt><trkpt lat="37.6770724" lon="13.9975873"><ele>611.3333333333334</ele><time>2026-04-26T09:10:18.315Z</time></trkpt><trkpt lat="37.6770152" lon="13.9977858"><ele>612.6666666666666</ele><time>2026-04-26T09:10:19.315Z</time></trkpt><trkpt lat="37.6769519" lon="13.9980089"><ele>614.0</ele><time>2026-04-26T09:10:20.315Z</time></trkpt><trkpt lat="37.6768934" lon="13.9982407"><ele>621.0</ele><time>2026-04-26T09:10:21.315Z</time></trkpt><trkpt lat="37.6768615" lon="13.9984579"><ele>628.0</ele><time>2026-04-26T09:10:22.314Z</time></trkpt><trkpt lat="37.6768297" lon="13.9986436"><ele>635.0</ele><time>2026-04-26T09:10:23.315Z</time></trkpt><trkpt lat="37.6767964" lon="13.9988259"><ele>635.0</ele><time>2026-04-26T09:10:24.315Z</time></trkpt><trkpt lat="37.6767623" lon="13.9989933"><ele>635.0</ele><time>2026-04-26T09:10:25.315Z</time></trkpt><trkpt lat="37.6767376" lon="13.9991484"><ele>635.0</ele><time>2026-04-26T09:10:26.315Z</time></trkpt><trkpt lat="37.6767347" lon="13.9992855"><ele>635.0</ele><time>2026-04-26T09:10:27.315Z</time></trkpt><trkpt lat="37.6767567" lon="13.9994269"><ele>634.75</ele><time>2026-04-26T09:10:28.315Z</time></trkpt><trkpt lat="37.6768159" lon="13.9995635"><ele>634.5</ele><time>2026-04-26T09:10:29.315Z</time></trkpt><trkpt lat="37.6769051" lon="13.999681"><ele>634.25</ele><time>2026-04-26T09:10:30.314Z</time></trkpt><trkpt lat="37.6770235" lon="13.9997829"><ele>634.0</ele><time>2026-04-26T09:10:31.315Z</time></trkpt><trkpt lat="37.6771595" lon="13.9998818"><ele>634.0</ele><time>2026-04-26T09:10:32.315Z</time></trkpt><trkpt lat="37.6773055" lon="13.9999864"><ele>634.0</ele><time>2026-04-26T09:10:33.315Z</time></trkpt><trkpt lat="37.6774657" lon="14.0001001"><ele>634.0</ele><time>2026-04-26T09:10:34.315Z</time></trkpt><trkpt lat="37.6776064" lon="14.0002155"><ele>634.0</ele><time>2026-04-26T09:10:35.313Z</time></trkpt><trkpt lat="37.6777337" lon="14.0003345"><ele>634.0</ele><time>2026-04-26T09:10:36.314Z</time></trkpt><trkpt lat="37.6778445" lon="14.0004489"><ele>634.0</ele><time>2026-04-26T09:10:37.314Z</time></trkpt><trkpt lat="37.6779428" lon="14.0005709"><ele>634.0</ele><time>2026-04-26T09:10:38.314Z</time></trkpt><trkpt lat="37.6780374" lon="14.0007123"><ele>636.3333333333334</ele><time>2026-04-26T09:10:39.314Z</time></trkpt><trkpt lat="37.678125" lon="14.0008611"><ele>638.6666666666666</ele><time>2026-04-26T09:10:40.314Z</time></trkpt><trkpt lat="37.6782153" lon="14.0010265"><ele>641.0</ele><time>2026-04-26T09:10:41.314Z</time></trkpt><trkpt lat="37.6783122" lon="14.0011964"><ele>641.0</ele><time>2026-04-26T09:10:42.314Z</time></trkpt><trkpt lat="37.6783947" lon="14.0013654"><ele>641.0</ele><time>2026-04-26T09:10:43.314Z</time></trkpt><trkpt lat="37.6784846" lon="14.0015358"><ele>641.0</ele><time>2026-04-26T09:10:44.314Z</time></trkpt><trkpt lat="37.6785655" lon="14.0017063"><ele>640.3333333333333</ele><time>2026-04-26T09:10:45.314Z</time></trkpt><trkpt lat="37.6786345" lon="14.001878"><ele>639.6666666666666</ele><time>2026-04-26T09:10:46.314Z</time></trkpt><trkpt lat="37.6786992" lon="14.0020635"><ele>639.0</ele><time>2026-04-26T09:10:47.314Z</time></trkpt><trkpt lat="37.6787528" lon="14.0022625"><ele>639.0</ele><time>2026-04-26T09:10:48.313Z</time></trkpt><trkpt lat="37.6787981" lon="14.0024673"><ele>639.0</ele><time>2026-04-26T09:10:49.314Z</time></trkpt><trkpt lat="37.6788484" lon="14.0026745"><ele>639.0</ele><time>2026-04-26T09:10:50.314Z</time></trkpt><trkpt lat="37.6788961" lon="14.0028834"><ele>642.3333333333334</ele><time>2026-04-26T09:10:51.314Z</time></trkpt><trkpt lat="37.6789486" lon="14.003084"><ele>645.6666666666667</ele><time>2026-04-26T09:10:52.314Z</time></trkpt><trkpt lat="37.6790011" lon="14.0032734"><ele>649.0</ele><time>2026-04-26T09:10:53.314Z</time></trkpt><trkpt lat="37.6790506" lon="14.003454"><ele>651.0</ele><time>2026-04-26T09:10:54.314Z</time></trkpt><trkpt lat="37.679101" lon="14.0036141"><ele>653.0</ele><time>2026-04-26T09:10:55.314Z</time></trkpt><trkpt lat="37.6791714" lon="14.0037458"><ele>655.0</ele><time>2026-04-26T09:10:56.314Z</time></trkpt><trkpt lat="37.6792743" lon="14.0038539"><ele>657.0</ele><time>2026-04-26T09:10:57.314Z</time></trkpt><trkpt lat="37.6793976" lon="14.0039316"><ele>653.6666666666666</ele><time>2026-04-26T09:10:58.314Z</time></trkpt><trkpt lat="37.6795442" lon="14.0039816"><ele>650.3333333333333</ele><time>2026-04-26T09:10:59.313Z</time></trkpt><trkpt lat="37.6797047" lon="14.0040245"><ele>647.0</ele><time>2026-04-26T09:11:00.314Z</time></trkpt><trkpt lat="37.6798864" lon="14.0040651"><ele>647.0</ele><time>2026-04-26T09:11:01.314Z</time></trkpt><trkpt lat="37.6800632" lon="14.0040959"><ele>647.0</ele><time>2026-04-26T09:11:02.313Z</time></trkpt><trkpt lat="37.6802208" lon="14.0041231"><ele>647.0</ele><time>2026-04-26T09:11:03.314Z</time></trkpt><trkpt lat="37.6803775" lon="14.0041607"><ele>649.0</ele><time>2026-04-26T09:11:04.314Z</time></trkpt><trkpt lat="37.6805286" lon="14.0042219"><ele>651.0</ele><time>2026-04-26T09:11:05.314Z</time></trkpt><trkpt lat="37.6806639" lon="14.0043079"><ele>653.0</ele><time>2026-04-26T09:11:06.314Z</time></trkpt><trkpt lat="37.6807858" lon="14.0044132"><ele>653.0</ele><time>2026-04-26T09:11:07.314Z</time></trkpt><trkpt lat="37.6808885" lon="14.0045494"><ele>653.0</ele><time>2026-04-26T09:11:08.314Z</time></trkpt><trkpt lat="37.680975" lon="14.0047038"><ele>653.0</ele><time>2026-04-26T09:11:09.314Z</time></trkpt><trkpt lat="37.6810408" lon="14.004871"><ele>653.0</ele><time>2026-04-26T09:11:10.314Z</time></trkpt><trkpt lat="37.6810862" lon="14.0050494"><ele>654.0</ele><time>2026-04-26T09:11:11.314Z</time></trkpt><trkpt lat="37.6811136" lon="14.0052392"><ele>655.0</ele><time>2026-04-26T09:11:12.314Z</time></trkpt><trkpt lat="37.6811278" lon="14.00544"><ele>656.0</ele><time>2026-04-26T09:11:13.313Z</time></trkpt><trkpt lat="37.6811468" lon="14.0056529"><ele>657.3333333333333</ele><time>2026-04-26T09:11:14.314Z</time></trkpt><trkpt lat="37.6811631" lon="14.0058718"><ele>658.6666666666666</ele><time>2026-04-26T09:11:15.314Z</time></trkpt><trkpt lat="37.6811865" lon="14.0060985"><ele>660.0</ele><time>2026-04-26T09:11:16.314Z</time></trkpt><trkpt lat="37.6812073" lon="14.0063225"><ele>660.0</ele><time>2026-04-26T09:11:17.314Z</time></trkpt><trkpt lat="37.6812296" lon="14.0065284"><ele>660.0</ele><time>2026-04-26T09:11:18.314Z</time></trkpt><trkpt lat="37.68125" lon="14.006738"><ele>660.0</ele><time>2026-04-26T09:11:19.314Z</time></trkpt><trkpt lat="37.681254" lon="14.0069381"><ele>663.0</ele><time>2026-04-26T09:11:20.314Z</time></trkpt><trkpt lat="37.6812446" lon="14.0071325"><ele>666.0</ele><time>2026-04-26T09:11:21.314Z</time></trkpt><trkpt lat="37.6812143" lon="14.0073322"><ele>669.0</ele><time>2026-04-26T09:11:22.314Z</time></trkpt><trkpt lat="37.6811731" lon="14.0075301"><ele>671.6666666666666</ele><time>2026-04-26T09:11:23.314Z</time></trkpt><trkpt lat="37.6811321" lon="14.0077432"><ele>674.3333333333333</ele><time>2026-04-26T09:11:24.314Z</time></trkpt><trkpt lat="37.6810867" lon="14.007954"><ele>677.0</ele><time>2026-04-26T09:11:25.314Z</time></trkpt><trkpt lat="37.6810431" lon="14.0081645"><ele>677.3333333333333</ele><time>2026-04-26T09:11:26.314Z</time></trkpt><trkpt lat="37.6810031" lon="14.0083653"><ele>677.6666666666666</ele><time>2026-04-26T09:11:27.314Z</time></trkpt><trkpt lat="37.6809488" lon="14.008562"><ele>678.0</ele><time>2026-04-26T09:11:28.314Z</time></trkpt><trkpt lat="37.6808722" lon="14.0087526"><ele>678.0</ele><time>2026-04-26T09:11:29.313Z</time></trkpt><trkpt lat="37.6807747" lon="14.0089319"><ele>678.0</ele><time>2026-04-26T09:11:30.314Z</time></trkpt><trkpt lat="37.6806757" lon="14.0090992"><ele>678.0</ele><time>2026-04-26T09:11:31.314Z</time></trkpt><trkpt lat="37.680579" lon="14.0092764"><ele>680.0</ele><time>2026-04-26T09:11:32.314Z</time></trkpt><trkpt lat="37.6804709" lon="14.0094604"><ele>682.0</ele><time>2026-04-26T09:11:33.314Z</time></trkpt><trkpt lat="37.6803622" lon="14.0096508"><ele>684.0</ele><time>2026-04-26T09:11:34.313Z</time></trkpt><trkpt lat="37.6802614" lon="14.0098356"><ele>681.3333333333334</ele><time>2026-04-26T09:11:35.314Z</time></trkpt><trkpt lat="37.6801581" lon="14.0100154"><ele>678.6666666666667</ele><time>2026-04-26T09:11:36.314Z</time></trkpt><trkpt lat="37.6800579" lon="14.010175"><ele>676.0</ele><time>2026-04-26T09:11:37.314Z</time></trkpt><trkpt lat="37.6799664" lon="14.0103017"><ele>676.0</ele><time>2026-04-26T09:11:38.314Z</time></trkpt><trkpt lat="37.6798787" lon="14.010412"><ele>676.0</ele><time>2026-04-26T09:11:39.314Z</time></trkpt><trkpt lat="37.6797874" lon="14.0104976"><ele>676.0</ele><time>2026-04-26T09:11:40.314Z</time></trkpt><trkpt lat="37.6796832" lon="14.0105734"><ele>676.0</ele><time>2026-04-26T09:11:41.314Z</time></trkpt><trkpt lat="37.6795813" lon="14.0106338"><ele>676.0</ele><time>2026-04-26T09:11:42.313Z</time></trkpt><trkpt lat="37.6794733" lon="14.0106918"><ele>676.0</ele><time>2026-04-26T09:11:43.314Z</time></trkpt><trkpt lat="37.6793613" lon="14.0107552"><ele>676.0</ele><time>2026-04-26T09:11:44.314Z</time></trkpt><trkpt lat="37.6792395" lon="14.0108208"><ele>676.0</ele><time>2026-04-26T09:11:45.313Z</time></trkpt><trkpt lat="37.6791098" lon="14.0108917"><ele>677.6666666666667</ele><time>2026-04-26T09:11:46.314Z</time></trkpt><trkpt lat="37.6789788" lon="14.0109714"><ele>679.3333333333334</ele><time>2026-04-26T09:11:47.314Z</time></trkpt><trkpt lat="37.6788407" lon="14.0110517"><ele>681.0</ele><time>2026-04-26T09:11:48.314Z</time></trkpt><trkpt lat="37.6786963" lon="14.0111379"><ele>685.0</ele><time>2026-04-26T09:11:49.314Z</time></trkpt><trkpt lat="37.6785536" lon="14.011225"><ele>689.0</ele><time>2026-04-26T09:11:50.314Z</time></trkpt><trkpt lat="37.678416" lon="14.0113099"><ele>693.0</ele><time>2026-04-26T09:11:51.314Z</time></trkpt><trkpt lat="37.6782797" lon="14.0113948"><ele>693.0</ele><time>2026-04-26T09:11:52.314Z</time></trkpt><trkpt lat="37.6781372" lon="14.0114771"><ele>693.0</ele><time>2026-04-26T09:11:53.314Z</time></trkpt><trkpt lat="37.6779901" lon="14.0115594"><ele>693.0</ele><time>2026-04-26T09:11:54.314Z</time></trkpt><trkpt lat="37.6778345" lon="14.0116477"><ele>692.6666666666666</ele><time>2026-04-26T09:11:55.314Z</time></trkpt><trkpt lat="37.6776776" lon="14.0117364"><ele>692.3333333333333</ele><time>2026-04-26T09:11:56.313Z</time></trkpt><trkpt lat="37.6775277" lon="14.0118265"><ele>692.0</ele><time>2026-04-26T09:11:57.314Z</time></trkpt><trkpt lat="37.6773863" lon="14.0119063"><ele>692.0</ele><time>2026-04-26T09:11:58.314Z</time></trkpt><trkpt lat="37.6772567" lon="14.0119926"><ele>692.0</ele><time>2026-04-26T09:11:59.314Z</time></trkpt><trkpt lat="37.6771352" lon="14.0120832"><ele>692.0</ele><time>2026-04-26T09:12:00.314Z</time></trkpt><trkpt lat="37.6770316" lon="14.0121805"><ele>692.0</ele><time>2026-04-26T09:12:01.314Z</time></trkpt><trkpt lat="37.67695" lon="14.0122927"><ele>692.5</ele><time>2026-04-26T09:12:02.314Z</time></trkpt><trkpt lat="37.6768855" lon="14.0124263"><ele>693.0</ele><time>2026-04-26T09:12:03.314Z</time></trkpt><trkpt lat="37.6768236" lon="14.0125704"><ele>693.5</ele><time>2026-04-26T09:12:04.314Z</time></trkpt><trkpt lat="37.6767528" lon="14.0127189"><ele>694.0</ele><time>2026-04-26T09:12:05.314Z</time></trkpt><trkpt lat="37.6766851" lon="14.0128759"><ele>694.0</ele><time>2026-04-26T09:12:06.314Z</time></trkpt><trkpt lat="37.6766084" lon="14.0130339"><ele>694.0</ele><time>2026-04-26T09:12:07.313Z</time></trkpt><trkpt lat="37.6765358" lon="14.013194"><ele>694.0</ele><time>2026-04-26T09:12:08.314Z</time></trkpt><trkpt lat="37.6764691" lon="14.0133472"><ele>694.0</ele><time>2026-04-26T09:12:09.314Z</time></trkpt><trkpt lat="37.6764096" lon="14.0134934"><ele>692.0</ele><time>2026-04-26T09:12:10.314Z</time></trkpt><trkpt lat="37.6763662" lon="14.0136286"><ele>690.0</ele><time>2026-04-26T09:12:11.313Z</time></trkpt><trkpt lat="37.6763448" lon="14.0137628"><ele>688.0</ele><time>2026-04-26T09:12:12.314Z</time></trkpt><trkpt lat="37.6763429" lon="14.0139021"><ele>686.0</ele><time>2026-04-26T09:12:13.314Z</time></trkpt><trkpt lat="37.6763449" lon="14.0140497"><ele>686.5</ele><time>2026-04-26T09:12:14.314Z</time></trkpt><trkpt lat="37.6763507" lon="14.0142062"><ele>687.0</ele><time>2026-04-26T09:12:15.314Z</time></trkpt><trkpt lat="37.6763594" lon="14.0143616"><ele>687.5</ele><time>2026-04-26T09:12:16.314Z</time></trkpt><trkpt lat="37.6763691" lon="14.0145172"><ele>688.0</ele><time>2026-04-26T09:12:17.314Z</time></trkpt><trkpt lat="37.6763782" lon="14.0146695"><ele>688.0</ele><time>2026-04-26T09:12:18.314Z</time></trkpt><trkpt lat="37.6763872" lon="14.0148002"><ele>688.0</ele><time>2026-04-26T09:12:19.314Z</time></trkpt><trkpt lat="37.6763994" lon="14.0149056"><ele>688.0</ele><time>2026-04-26T09:12:20.314Z</time></trkpt><trkpt lat="37.6764117" lon="14.0149905"><ele>688.0</ele><time>2026-04-26T09:12:21.314Z</time></trkpt><trkpt lat="37.6764678" lon="14.0150838"><ele>688.0</ele><time>2026-04-26T09:12:23.314Z</time></trkpt><trkpt lat="37.676576" lon="14.0150932"><ele>687.2</ele><time>2026-04-26T09:12:25.314Z</time></trkpt><trkpt lat="37.6766678" lon="14.0150815"><ele>686.4</ele><time>2026-04-26T09:12:26.314Z</time></trkpt><trkpt lat="37.6767724" lon="14.0150796"><ele>685.6</ele><time>2026-04-26T09:12:27.314Z</time></trkpt><trkpt lat="37.6768861" lon="14.0150814"><ele>684.8000000000001</ele><time>2026-04-26T09:12:28.314Z</time></trkpt><trkpt lat="37.6769929" lon="14.0150822"><ele>684.0</ele><time>2026-04-26T09:12:29.314Z</time></trkpt><trkpt lat="37.677093" lon="14.0150888"><ele>684.0</ele><time>2026-04-26T09:12:30.314Z</time></trkpt><trkpt lat="37.6771821" lon="14.0151204"><ele>684.0</ele><time>2026-04-26T09:12:31.314Z</time></trkpt><trkpt lat="37.6772573" lon="14.0151809"><ele>684.0</ele><time>2026-04-26T09:12:32.314Z</time></trkpt><trkpt lat="37.6773202" lon="14.0152714"><ele>684.0</ele><time>2026-04-26T09:12:33.314Z</time></trkpt><trkpt lat="37.6773759" lon="14.0153905"><ele>684.0</ele><time>2026-04-26T09:12:34.314Z</time></trkpt><trkpt lat="37.6774327" lon="14.0155454"><ele>684.0</ele><time>2026-04-26T09:12:35.314Z</time></trkpt><trkpt lat="37.6774916" lon="14.0157244"><ele>684.0</ele><time>2026-04-26T09:12:36.314Z</time></trkpt><trkpt lat="37.6775555" lon="14.0159121"><ele>684.0</ele><time>2026-04-26T09:12:37.314Z</time></trkpt><trkpt lat="37.6776561" lon="14.0160996"><ele>686.3333333333334</ele><time>2026-04-26T09:12:38.314Z</time></trkpt><trkpt lat="37.6777502" lon="14.0162994"><ele>688.6666666666667</ele><time>2026-04-26T09:12:39.314Z</time></trkpt><trkpt lat="37.6778425" lon="14.0164803"><ele>691.0</ele><time>2026-04-26T09:12:40.314Z</time></trkpt><trkpt lat="37.6779341" lon="14.0166336"><ele>687.3333333333334</ele><time>2026-04-26T09:12:41.314Z</time></trkpt><trkpt lat="37.6780411" lon="14.0167703"><ele>683.6666666666666</ele><time>2026-04-26T09:12:42.314Z</time></trkpt><trkpt lat="37.6781583" lon="14.0168919"><ele>680.0</ele><time>2026-04-26T09:12:43.314Z</time></trkpt><trkpt lat="37.6782865" lon="14.0170128"><ele>680.0</ele><time>2026-04-26T09:12:44.314Z</time></trkpt><trkpt lat="37.6784123" lon="14.0171278"><ele>680.0</ele><time>2026-04-26T09:12:45.314Z</time></trkpt><trkpt lat="37.6785331" lon="14.017239"><ele>680.0</ele><time>2026-04-26T09:12:46.314Z</time></trkpt><trkpt lat="37.6786488" lon="14.0173426"><ele>680.0</ele><time>2026-04-26T09:12:47.314Z</time></trkpt><trkpt lat="37.6787574" lon="14.0174306"><ele>681.25</ele><time>2026-04-26T09:12:48.314Z</time></trkpt><trkpt lat="37.6788701" lon="14.0174913"><ele>682.5</ele><time>2026-04-26T09:12:49.314Z</time></trkpt><trkpt lat="37.6789931" lon="14.017523"><ele>683.75</ele><time>2026-04-26T09:12:50.314Z</time></trkpt><trkpt lat="37.6791158" lon="14.0175295"><ele>685.0</ele><time>2026-04-26T09:12:51.313Z</time></trkpt><trkpt lat="37.6792347" lon="14.0175326"><ele>685.0</ele><time>2026-04-26T09:12:52.314Z</time></trkpt><trkpt lat="37.6793482" lon="14.0175551"><ele>685.0</ele><time>2026-04-26T09:12:53.314Z</time></trkpt><trkpt lat="37.6794517" lon="14.0175931"><ele>685.0</ele><time>2026-04-26T09:12:54.314Z</time></trkpt><trkpt lat="37.6795329" lon="14.0176637"><ele>685.0</ele><time>2026-04-26T09:12:55.314Z</time></trkpt><trkpt lat="37.6795901" lon="14.0177601"><ele>685.0</ele><time>2026-04-26T09:12:56.313Z</time></trkpt><trkpt lat="37.6796245" lon="14.0178816"><ele>683.75</ele><time>2026-04-26T09:12:57.314Z</time></trkpt><trkpt lat="37.6796658" lon="14.0180031"><ele>682.5</ele><time>2026-04-26T09:12:58.314Z</time></trkpt><trkpt lat="37.6797147" lon="14.0181365"><ele>681.25</ele><time>2026-04-26T09:12:59.314Z</time></trkpt><trkpt lat="37.6797621" lon="14.0182758"><ele>680.0</ele><time>2026-04-26T09:13:00.314Z</time></trkpt><trkpt lat="37.679812" lon="14.0184117"><ele>679.4</ele><time>2026-04-26T09:13:01.314Z</time></trkpt><trkpt lat="37.6798561" lon="14.0185416"><ele>678.8</ele><time>2026-04-26T09:13:02.314Z</time></trkpt><trkpt lat="37.6798859" lon="14.0186722"><ele>678.2</ele><time>2026-04-26T09:13:03.314Z</time></trkpt><trkpt lat="37.6798934" lon="14.0188072"><ele>677.6</ele><time>2026-04-26T09:13:04.314Z</time></trkpt><trkpt lat="37.6798763" lon="14.0189391"><ele>677.0</ele><time>2026-04-26T09:13:05.314Z</time></trkpt><trkpt lat="37.679836" lon="14.0190606"><ele>676.0</ele><time>2026-04-26T09:13:06.314Z</time></trkpt><trkpt lat="37.679775" lon="14.0191639"><ele>675.0</ele><time>2026-04-26T09:13:07.314Z</time></trkpt><trkpt lat="37.6796989" lon="14.0192648"><ele>674.0</ele><time>2026-04-26T09:13:08.314Z</time></trkpt><trkpt lat="37.6796055" lon="14.0193524"><ele>673.0</ele><time>2026-04-26T09:13:09.314Z</time></trkpt><trkpt lat="37.6794944" lon="14.0194379"><ele>675.25</ele><time>2026-04-26T09:13:10.313Z</time></trkpt><trkpt lat="37.6793795" lon="14.0195062"><ele>677.5</ele><time>2026-04-26T09:13:11.314Z</time></trkpt><trkpt lat="37.6792671" lon="14.0195659"><ele>679.75</ele><time>2026-04-26T09:13:12.314Z</time></trkpt><trkpt lat="37.6791584" lon="14.0196305"><ele>682.0</ele><time>2026-04-26T09:13:13.314Z</time></trkpt><trkpt lat="37.6790638" lon="14.0196969"><ele>682.0</ele><time>2026-04-26T09:13:14.314Z</time></trkpt><trkpt lat="37.6789919" lon="14.0197708"><ele>682.0</ele><time>2026-04-26T09:13:15.314Z</time></trkpt><trkpt lat="37.6789438" lon="14.0198548"><ele>682.0</ele><time>2026-04-26T09:13:16.314Z</time></trkpt><trkpt lat="37.6789304" lon="14.0199405"><ele>682.0</ele><time>2026-04-26T09:13:17.314Z</time></trkpt><trkpt lat="37.6789987" lon="14.0200647"><ele>682.0</ele><time>2026-04-26T09:13:19.314Z</time></trkpt><trkpt lat="37.679063" lon="14.0200833"><ele>682.0</ele><time>2026-04-26T09:13:20.314Z</time></trkpt><trkpt lat="37.6791453" lon="14.0200902"><ele>679.6</ele><time>2026-04-26T09:13:21.314Z</time></trkpt><trkpt lat="37.679243" lon="14.0200854"><ele>677.2</ele><time>2026-04-26T09:13:22.314Z</time></trkpt><trkpt lat="37.6793492" lon="14.0200785"><ele>674.8</ele><time>2026-04-26T09:13:23.314Z</time></trkpt><trkpt lat="37.679461" lon="14.0200719"><ele>672.4</ele><time>2026-04-26T09:13:24.314Z</time></trkpt><trkpt lat="37.679574" lon="14.0200677"><ele>670.0</ele><time>2026-04-26T09:13:25.314Z</time></trkpt><trkpt lat="37.679687" lon="14.0200646"><ele>668.6</ele><time>2026-04-26T09:13:26.313Z</time></trkpt><trkpt lat="37.679794" lon="14.0200695"><ele>667.2</ele><time>2026-04-26T09:13:27.314Z</time></trkpt><trkpt lat="37.6798937" lon="14.0200855"><ele>665.8</ele><time>2026-04-26T09:13:28.314Z</time></trkpt><trkpt lat="37.679992" lon="14.0201162"><ele>664.4</ele><time>2026-04-26T09:13:29.314Z</time></trkpt><trkpt lat="37.680082" lon="14.0201536"><ele>663.0</ele><time>2026-04-26T09:13:30.313Z</time></trkpt><trkpt lat="37.680177" lon="14.0201959"><ele>661.8</ele><time>2026-04-26T09:13:31.314Z</time></trkpt><trkpt lat="37.6802722" lon="14.0202318"><ele>660.5999999999999</ele><time>2026-04-26T09:13:32.314Z</time></trkpt><trkpt lat="37.6803652" lon="14.0202537"><ele>659.4000000000001</ele><time>2026-04-26T09:13:33.314Z</time></trkpt><trkpt lat="37.6804653" lon="14.0202597"><ele>658.2</ele><time>2026-04-26T09:13:34.314Z</time></trkpt><trkpt lat="37.6805829" lon="14.0202445"><ele>657.0</ele><time>2026-04-26T09:13:35.314Z</time></trkpt><trkpt lat="37.6807097" lon="14.0202354"><ele>657.0</ele><time>2026-04-26T09:13:36.314Z</time></trkpt><trkpt lat="37.6808414" lon="14.0202222"><ele>657.0</ele><time>2026-04-26T09:13:37.314Z</time></trkpt><trkpt lat="37.6809771" lon="14.0201927"><ele>657.0</ele><time>2026-04-26T09:13:38.314Z</time></trkpt><trkpt lat="37.6811153" lon="14.0201456"><ele>657.0</ele><time>2026-04-26T09:13:39.314Z</time></trkpt><trkpt lat="37.6812467" lon="14.0200774"><ele>655.25</ele><time>2026-04-26T09:13:40.313Z</time></trkpt><trkpt lat="37.6813679" lon="14.0200014"><ele>653.5</ele><time>2026-04-26T09:13:41.314Z</time></trkpt><trkpt lat="37.6814795" lon="14.0199021"><ele>651.75</ele><time>2026-04-26T09:13:42.314Z</time></trkpt><trkpt lat="37.6815775" lon="14.0197986"><ele>650.0</ele><time>2026-04-26T09:13:43.314Z</time></trkpt><trkpt lat="37.6816486" lon="14.0196943"><ele>649.8</ele><time>2026-04-26T09:13:44.314Z</time></trkpt><trkpt lat="37.6817154" lon="14.0195974"><ele>649.6</ele><time>2026-04-26T09:13:45.314Z</time></trkpt><trkpt lat="37.6817858" lon="14.0195303"><ele>649.4000000000001</ele><time>2026-04-26T09:13:46.314Z</time></trkpt><trkpt lat="37.681859" lon="14.0195008"><ele>649.2</ele><time>2026-04-26T09:13:47.314Z</time></trkpt><trkpt lat="37.6819601" lon="14.0196013"><ele>649.0</ele><time>2026-04-26T09:13:49.314Z</time></trkpt><trkpt lat="37.6819687" lon="14.0197042"><ele>649.0</ele><time>2026-04-26T09:13:50.313Z</time></trkpt><trkpt lat="37.6819465" lon="14.0198257"><ele>649.0</ele><time>2026-04-26T09:13:51.314Z</time></trkpt><trkpt lat="37.6819046" lon="14.0199789"><ele>649.0</ele><time>2026-04-26T09:13:52.314Z</time></trkpt><trkpt lat="37.6818663" lon="14.0201105"><ele>649.0</ele><time>2026-04-26T09:13:53.314Z</time></trkpt><trkpt lat="37.6818254" lon="14.0202448"><ele>649.25</ele><time>2026-04-26T09:13:54.314Z</time></trkpt><trkpt lat="37.6817738" lon="14.020385"><ele>649.5</ele><time>2026-04-26T09:13:55.314Z</time></trkpt><trkpt lat="37.6817378" lon="14.0205455"><ele>649.75</ele><time>2026-04-26T09:13:56.313Z</time></trkpt><trkpt lat="37.6817051" lon="14.0207115"><ele>650.0</ele><time>2026-04-26T09:13:57.314Z</time></trkpt><trkpt lat="37.6816836" lon="14.0208828"><ele>647.25</ele><time>2026-04-26T09:13:58.314Z</time></trkpt><trkpt lat="37.6816605" lon="14.0210522"><ele>644.5</ele><time>2026-04-26T09:13:59.314Z</time></trkpt><trkpt lat="37.6816456" lon="14.0212185"><ele>641.75</ele><time>2026-04-26T09:14:00.314Z</time></trkpt><trkpt lat="37.681632" lon="14.0213895"><ele>639.0</ele><time>2026-04-26T09:14:01.314Z</time></trkpt><trkpt lat="37.6816209" lon="14.0215676"><ele>636.75</ele><time>2026-04-26T09:14:02.314Z</time></trkpt><trkpt lat="37.681613" lon="14.0217458"><ele>634.5</ele><time>2026-04-26T09:14:03.314Z</time></trkpt><trkpt lat="37.6816045" lon="14.0219101"><ele>632.25</ele><time>2026-04-26T09:14:04.314Z</time></trkpt><trkpt lat="37.6815921" lon="14.0220569"><ele>630.0</ele><time>2026-04-26T09:14:05.314Z</time></trkpt><trkpt lat="37.6815723" lon="14.0221994"><ele>630.0</ele><time>2026-04-26T09:14:06.314Z</time></trkpt><trkpt lat="37.6815293" lon="14.0223253"><ele>630.0</ele><time>2026-04-26T09:14:07.314Z</time></trkpt><trkpt lat="37.6814687" lon="14.0224265"><ele>630.0</ele><time>2026-04-26T09:14:08.313Z</time></trkpt><trkpt lat="37.6813982" lon="14.0225152"><ele>630.0</ele><time>2026-04-26T09:14:09.314Z</time></trkpt><trkpt lat="37.6813205" lon="14.0225976"><ele>630.0</ele><time>2026-04-26T09:14:10.314Z</time></trkpt><trkpt lat="37.6812353" lon="14.0226799"><ele>629.75</ele><time>2026-04-26T09:14:11.314Z</time></trkpt><trkpt lat="37.6811447" lon="14.0227736"><ele>629.5</ele><time>2026-04-26T09:14:12.314Z</time></trkpt><trkpt lat="37.6810651" lon="14.0228876"><ele>629.25</ele><time>2026-04-26T09:14:13.314Z</time></trkpt><trkpt lat="37.6809939" lon="14.0230058"><ele>629.0</ele><time>2026-04-26T09:14:14.314Z</time></trkpt><trkpt lat="37.6809316" lon="14.0231239"><ele>629.0</ele><time>2026-04-26T09:14:15.314Z</time></trkpt><trkpt lat="37.6808818" lon="14.0232419"><ele>629.0</ele><time>2026-04-26T09:14:16.314Z</time></trkpt><trkpt lat="37.6808464" lon="14.0233617"><ele>629.0</ele><time>2026-04-26T09:14:17.313Z</time></trkpt><trkpt lat="37.6808319" lon="14.0234889"><ele>629.0</ele><time>2026-04-26T09:14:18.314Z</time></trkpt><trkpt lat="37.6808247" lon="14.0236204"><ele>629.0</ele><time>2026-04-26T09:14:19.314Z</time></trkpt><trkpt lat="37.6808085" lon="14.023753"><ele>627.8</ele><time>2026-04-26T09:14:20.314Z</time></trkpt><trkpt lat="37.680774" lon="14.0238804"><ele>626.5999999999999</ele><time>2026-04-26T09:14:21.313Z</time></trkpt><trkpt lat="37.6807278" lon="14.0239942"><ele>625.4</ele><time>2026-04-26T09:14:22.314Z</time></trkpt><trkpt lat="37.680671" lon="14.0240954"><ele>624.1999999999999</ele><time>2026-04-26T09:14:23.314Z</time></trkpt><trkpt lat="37.6806034" lon="14.0241812"><ele>623.0</ele><time>2026-04-26T09:14:24.314Z</time></trkpt><trkpt lat="37.6805194" lon="14.0242358"><ele>622.6</ele><time>2026-04-26T09:14:25.314Z</time></trkpt><trkpt lat="37.6804278" lon="14.0242567"><ele>622.1999999999999</ele><time>2026-04-26T09:14:26.313Z</time></trkpt><trkpt lat="37.6803327" lon="14.0242554"><ele>621.8</ele><time>2026-04-26T09:14:27.314Z</time></trkpt><trkpt lat="37.6802426" lon="14.0242428"><ele>621.4</ele><time>2026-04-26T09:14:28.314Z</time></trkpt><trkpt lat="37.6801444" lon="14.0242208"><ele>621.0</ele><time>2026-04-26T09:14:29.314Z</time></trkpt><trkpt lat="37.6800421" lon="14.0241919"><ele>621.8</ele><time>2026-04-26T09:14:30.314Z</time></trkpt><trkpt lat="37.6799333" lon="14.0241603"><ele>622.6</ele><time>2026-04-26T09:14:31.314Z</time></trkpt><trkpt lat="37.6798276" lon="14.0241287"><ele>623.4</ele><time>2026-04-26T09:14:32.314Z</time></trkpt><trkpt lat="37.6797282" lon="14.0240983"><ele>624.2</ele><time>2026-04-26T09:14:33.314Z</time></trkpt><trkpt lat="37.6796306" lon="14.0240578"><ele>625.0</ele><time>2026-04-26T09:14:34.314Z</time></trkpt><trkpt lat="37.6795337" lon="14.0240099"><ele>625.0</ele><time>2026-04-26T09:14:35.313Z</time></trkpt><trkpt lat="37.6794356" lon="14.0239606"><ele>625.0</ele><time>2026-04-26T09:14:36.314Z</time></trkpt><trkpt lat="37.6793412" lon="14.0239109"><ele>625.0</ele><time>2026-04-26T09:14:37.314Z</time></trkpt><trkpt lat="37.6792557" lon="14.0238629"><ele>625.0</ele><time>2026-04-26T09:14:38.314Z</time></trkpt><trkpt lat="37.6791633" lon="14.0238096"><ele>625.0</ele><time>2026-04-26T09:14:39.314Z</time></trkpt><trkpt lat="37.6790739" lon="14.0237588"><ele>622.5</ele><time>2026-04-26T09:14:40.314Z</time></trkpt><trkpt lat="37.6789726" lon="14.0236967"><ele>620.0</ele><time>2026-04-26T09:14:41.314Z</time></trkpt><trkpt lat="37.6788536" lon="14.0236347"><ele>617.5</ele><time>2026-04-26T09:14:42.314Z</time></trkpt><trkpt lat="37.6787336" lon="14.0235715"><ele>615.0</ele><time>2026-04-26T09:14:43.314Z</time></trkpt><trkpt lat="37.6786208" lon="14.0235147"><ele>614.4</ele><time>2026-04-26T09:14:44.314Z</time></trkpt><trkpt lat="37.678511" lon="14.0234798"><ele>613.8</ele><time>2026-04-26T09:14:45.314Z</time></trkpt><trkpt lat="37.6784018" lon="14.0234819"><ele>613.2</ele><time>2026-04-26T09:14:46.314Z</time></trkpt><trkpt lat="37.678306" lon="14.0235203"><ele>612.6</ele><time>2026-04-26T09:14:47.314Z</time></trkpt><trkpt lat="37.6782298" lon="14.0235899"><ele>612.0</ele><time>2026-04-26T09:14:48.314Z</time></trkpt><trkpt lat="37.6781683" lon="14.0236761"><ele>612.0</ele><time>2026-04-26T09:14:49.313Z</time></trkpt><trkpt lat="37.6781181" lon="14.0237915"><ele>612.0</ele><time>2026-04-26T09:14:50.314Z</time></trkpt><trkpt lat="37.6780764" lon="14.0239272"><ele>612.0</ele><time>2026-04-26T09:14:51.314Z</time></trkpt><trkpt lat="37.6780325" lon="14.0240864"><ele>612.0</ele><time>2026-04-26T09:14:52.314Z</time></trkpt><trkpt lat="37.6779832" lon="14.0242596"><ele>609.6666666666666</ele><time>2026-04-26T09:14:53.314Z</time></trkpt><trkpt lat="37.6779305" lon="14.024447"><ele>607.3333333333333</ele><time>2026-04-26T09:14:54.314Z</time></trkpt><trkpt lat="37.6778757" lon="14.0246489"><ele>605.0</ele><time>2026-04-26T09:14:55.314Z</time></trkpt><trkpt lat="37.6778177" lon="14.0248648"><ele>606.0</ele><time>2026-04-26T09:14:56.314Z</time></trkpt><trkpt lat="37.6777593" lon="14.0250845"><ele>607.0</ele><time>2026-04-26T09:14:57.314Z</time></trkpt><trkpt lat="37.677698" lon="14.0252942"><ele>608.0</ele><time>2026-04-26T09:14:58.314Z</time></trkpt><trkpt lat="37.6776382" lon="14.0254968"><ele>608.0</ele><time>2026-04-26T09:14:59.314Z</time></trkpt><trkpt lat="37.6775787" lon="14.0256911"><ele>608.0</ele><time>2026-04-26T09:15:00.314Z</time></trkpt><trkpt lat="37.677523" lon="14.0258794"><ele>608.0</ele><time>2026-04-26T09:15:01.314Z</time></trkpt><trkpt lat="37.6774636" lon="14.026063"><ele>606.0</ele><time>2026-04-26T09:15:02.314Z</time></trkpt><trkpt lat="37.6774066" lon="14.0262041"><ele>604.0</ele><time>2026-04-26T09:15:03.314Z</time></trkpt><trkpt lat="37.6773459" lon="14.0263255"><ele>602.0</ele><time>2026-04-26T09:15:04.314Z</time></trkpt><trkpt lat="37.6772713" lon="14.0264286"><ele>600.0</ele><time>2026-04-26T09:15:05.314Z</time></trkpt><trkpt lat="37.6771862" lon="14.0265262"><ele>600.0</ele><time>2026-04-26T09:15:06.314Z</time></trkpt><trkpt lat="37.6770969" lon="14.0266202"><ele>600.0</ele><time>2026-04-26T09:15:07.314Z</time></trkpt><trkpt lat="37.6770091" lon="14.0267078"><ele>600.0</ele><time>2026-04-26T09:15:08.314Z</time></trkpt><trkpt lat="37.6769278" lon="14.0267985"><ele>600.0</ele><time>2026-04-26T09:15:09.314Z</time></trkpt><trkpt lat="37.6768496" lon="14.0268949"><ele>600.0</ele><time>2026-04-26T09:15:10.314Z</time></trkpt><trkpt lat="37.6767867" lon="14.0270021"><ele>599.6</ele><time>2026-04-26T09:15:11.314Z</time></trkpt><trkpt lat="37.6767412" lon="14.0271164"><ele>599.2</ele><time>2026-04-26T09:15:12.314Z</time></trkpt><trkpt lat="37.6767258" lon="14.0272471"><ele>598.8</ele><time>2026-04-26T09:15:13.314Z</time></trkpt><trkpt lat="37.6767354" lon="14.0273921"><ele>598.4</ele><time>2026-04-26T09:15:14.314Z</time></trkpt><trkpt lat="37.6767664" lon="14.0275333"><ele>598.0</ele><time>2026-04-26T09:15:15.314Z</time></trkpt><trkpt lat="37.6768109" lon="14.0276653"><ele>596.8</ele><time>2026-04-26T09:15:16.314Z</time></trkpt><trkpt lat="37.6768574" lon="14.0278024"><ele>595.5999999999999</ele><time>2026-04-26T09:15:17.314Z</time></trkpt><trkpt lat="37.6769086" lon="14.0279315"><ele>594.4000000000001</ele><time>2026-04-26T09:15:18.313Z</time></trkpt><trkpt lat="37.6769561" lon="14.0280583"><ele>593.2</ele><time>2026-04-26T09:15:19.314Z</time></trkpt><trkpt lat="37.6770022" lon="14.0281771"><ele>592.0</ele><time>2026-04-26T09:15:20.314Z</time></trkpt><trkpt lat="37.6770381" lon="14.0282862"><ele>590.8333333333334</ele><time>2026-04-26T09:15:21.314Z</time></trkpt><trkpt lat="37.6770632" lon="14.0283879"><ele>589.6666666666667</ele><time>2026-04-26T09:15:22.314Z</time></trkpt><trkpt lat="37.6770752" lon="14.0284924"><ele>588.5</ele><time>2026-04-26T09:15:23.314Z</time></trkpt><trkpt lat="37.6770689" lon="14.0285951"><ele>587.3333333333334</ele><time>2026-04-26T09:15:24.314Z</time></trkpt><trkpt lat="37.6770489" lon="14.0286954"><ele>586.1666666666666</ele><time>2026-04-26T09:15:25.314Z</time></trkpt><trkpt lat="37.6770199" lon="14.0287902"><ele>585.0</ele><time>2026-04-26T09:15:26.314Z</time></trkpt><trkpt lat="37.6769829" lon="14.0288863"><ele>585.8</ele><time>2026-04-26T09:15:27.314Z</time></trkpt><trkpt lat="37.6769327" lon="14.0289819"><ele>586.6</ele><time>2026-04-26T09:15:28.314Z</time></trkpt><trkpt lat="37.6768672" lon="14.0290737"><ele>587.4</ele><time>2026-04-26T09:15:29.314Z</time></trkpt><trkpt lat="37.6767823" lon="14.0291741"><ele>588.2</ele><time>2026-04-26T09:15:30.314Z</time></trkpt><trkpt lat="37.6766969" lon="14.0292865"><ele>589.0</ele><time>2026-04-26T09:15:31.314Z</time></trkpt><trkpt lat="37.6766156" lon="14.0294077"><ele>589.0</ele><time>2026-04-26T09:15:32.314Z</time></trkpt><trkpt lat="37.6765524" lon="14.0295445"><ele>589.0</ele><time>2026-04-26T09:15:33.314Z</time></trkpt><trkpt lat="37.6765058" lon="14.0296876"><ele>589.0</ele><time>2026-04-26T09:15:34.314Z</time></trkpt><trkpt lat="37.6764855" lon="14.0298356"><ele>589.0</ele><time>2026-04-26T09:15:35.314Z</time></trkpt><trkpt lat="37.676489" lon="14.0299905"><ele>587.0</ele><time>2026-04-26T09:15:36.314Z</time></trkpt><trkpt lat="37.6765107" lon="14.0301435"><ele>585.0</ele><time>2026-04-26T09:15:37.314Z</time></trkpt><trkpt lat="37.6765412" lon="14.0302988"><ele>583.0</ele><time>2026-04-26T09:15:38.314Z</time></trkpt><trkpt lat="37.6765708" lon="14.0304581"><ele>581.0</ele><time>2026-04-26T09:15:39.314Z</time></trkpt><trkpt lat="37.6765795" lon="14.0305861"><ele>581.0</ele><time>2026-04-26T09:15:40.314Z</time></trkpt><trkpt lat="37.6765831" lon="14.03069"><ele>581.0</ele><time>2026-04-26T09:15:41.314Z</time></trkpt><trkpt lat="37.6765715" lon="14.0308203"><ele>581.0</ele><time>2026-04-26T09:15:43.314Z</time></trkpt><trkpt lat="37.6765605" lon="14.030907"><ele>581.0</ele><time>2026-04-26T09:15:45.314Z</time></trkpt><trkpt lat="37.676557" lon="14.0310529"><ele>581.0</ele><time>2026-04-26T09:15:47.314Z</time></trkpt><trkpt lat="37.6765296" lon="14.031146"><ele>580.8</ele><time>2026-04-26T09:15:48.313Z</time></trkpt><trkpt lat="37.6765013" lon="14.0312574"><ele>580.6</ele><time>2026-04-26T09:15:49.314Z</time></trkpt><trkpt lat="37.6764655" lon="14.0313852"><ele>580.4</ele><time>2026-04-26T09:15:50.314Z</time></trkpt><trkpt lat="37.676429" lon="14.0315283"><ele>580.2</ele><time>2026-04-26T09:15:51.314Z</time></trkpt><trkpt lat="37.6763913" lon="14.0316795"><ele>580.0</ele><time>2026-04-26T09:15:52.313Z</time></trkpt><trkpt lat="37.6763522" lon="14.0318352"><ele>580.0</ele><time>2026-04-26T09:15:53.314Z</time></trkpt><trkpt lat="37.6763166" lon="14.0319968"><ele>580.0</ele><time>2026-04-26T09:15:54.314Z</time></trkpt><trkpt lat="37.6762847" lon="14.0321552"><ele>580.0</ele><time>2026-04-26T09:15:55.314Z</time></trkpt><trkpt lat="37.6762665" lon="14.0323117"><ele>580.0</ele><time>2026-04-26T09:15:56.314Z</time></trkpt><trkpt lat="37.6762662" lon="14.0324686"><ele>580.0</ele><time>2026-04-26T09:15:57.314Z</time></trkpt><trkpt lat="37.6762869" lon="14.0326333"><ele>580.0</ele><time>2026-04-26T09:15:58.314Z</time></trkpt><trkpt lat="37.6763179" lon="14.03279"><ele>580.0</ele><time>2026-04-26T09:15:59.314Z</time></trkpt><trkpt lat="37.676359" lon="14.0329473"><ele>580.0</ele><time>2026-04-26T09:16:00.313Z</time></trkpt><trkpt lat="37.6764113" lon="14.0331016"><ele>580.0</ele><time>2026-04-26T09:16:01.314Z</time></trkpt><trkpt lat="37.6764734" lon="14.0332519"><ele>580.0</ele><time>2026-04-26T09:16:02.314Z</time></trkpt><trkpt lat="37.6765541" lon="14.0334022"><ele>580.0</ele><time>2026-04-26T09:16:03.313Z</time></trkpt><trkpt lat="37.6766507" lon="14.033543"><ele>580.0</ele><time>2026-04-26T09:16:04.314Z</time></trkpt><trkpt lat="37.6767563" lon="14.0336791"><ele>578.6666666666667</ele><time>2026-04-26T09:16:05.314Z</time></trkpt><trkpt lat="37.6768724" lon="14.033807"><ele>577.3333333333334</ele><time>2026-04-26T09:16:06.314Z</time></trkpt><trkpt lat="37.6769937" lon="14.0339394"><ele>576.0</ele><time>2026-04-26T09:16:07.314Z</time></trkpt><trkpt lat="37.6771146" lon="14.034066"><ele>574.75</ele><time>2026-04-26T09:16:08.314Z</time></trkpt><trkpt lat="37.6772298" lon="14.0341877"><ele>573.5</ele><time>2026-04-26T09:16:09.314Z</time></trkpt><trkpt lat="37.6773448" lon="14.0343006"><ele>572.25</ele><time>2026-04-26T09:16:10.314Z</time></trkpt><trkpt lat="37.6774512" lon="14.0344088"><ele>571.0</ele><time>2026-04-26T09:16:11.314Z</time></trkpt><trkpt lat="37.6775528" lon="14.0345223"><ele>571.0</ele><time>2026-04-26T09:16:12.314Z</time></trkpt><trkpt lat="37.6776553" lon="14.034634"><ele>571.0</ele><time>2026-04-26T09:16:13.314Z</time></trkpt><trkpt lat="37.6777604" lon="14.0347453"><ele>571.0</ele><time>2026-04-26T09:16:14.314Z</time></trkpt><trkpt lat="37.6778641" lon="14.0348601"><ele>571.0</ele><time>2026-04-26T09:16:15.314Z</time></trkpt><trkpt lat="37.6779665" lon="14.0349713"><ele>570.25</ele><time>2026-04-26T09:16:16.314Z</time></trkpt><trkpt lat="37.6780685" lon="14.0350934"><ele>569.5</ele><time>2026-04-26T09:16:17.314Z</time></trkpt><trkpt lat="37.6781661" lon="14.0352137"><ele>568.75</ele><time>2026-04-26T09:16:18.314Z</time></trkpt><trkpt lat="37.6782648" lon="14.0353393"><ele>568.0</ele><time>2026-04-26T09:16:19.314Z</time></trkpt><trkpt lat="37.6783533" lon="14.0354819"><ele>568.0</ele><time>2026-04-26T09:16:20.314Z</time></trkpt><trkpt lat="37.6784354" lon="14.0356264"><ele>568.0</ele><time>2026-04-26T09:16:21.314Z</time></trkpt><trkpt lat="37.6785048" lon="14.0357748"><ele>568.0</ele><time>2026-04-26T09:16:22.314Z</time></trkpt><trkpt lat="37.6785631" lon="14.0359277"><ele>568.0</ele><time>2026-04-26T09:16:23.314Z</time></trkpt><trkpt lat="37.67861" lon="14.0360774"><ele>564.75</ele><time>2026-04-26T09:16:24.314Z</time></trkpt><trkpt lat="37.6786465" lon="14.0362275"><ele>561.5</ele><time>2026-04-26T09:16:25.314Z</time></trkpt><trkpt lat="37.678675" lon="14.0363782"><ele>558.25</ele><time>2026-04-26T09:16:26.314Z</time></trkpt><trkpt lat="37.6786999" lon="14.0365113"><ele>555.0</ele><time>2026-04-26T09:16:27.314Z</time></trkpt><trkpt lat="37.6787205" lon="14.0366354"><ele>556.0</ele><time>2026-04-26T09:16:28.314Z</time></trkpt><trkpt lat="37.6787341" lon="14.036756"><ele>557.0</ele><time>2026-04-26T09:16:29.314Z</time></trkpt><trkpt lat="37.6787497" lon="14.0368571"><ele>558.0</ele><time>2026-04-26T09:16:30.314Z</time></trkpt><trkpt lat="37.6787459" lon="14.0369407"><ele>559.0</ele><time>2026-04-26T09:16:31.314Z</time></trkpt><trkpt lat="37.6787168" lon="14.0370738"><ele>560.0</ele><time>2026-04-26T09:16:33.314Z</time></trkpt><trkpt lat="37.6786845" lon="14.0371462"><ele>561.0</ele><time>2026-04-26T09:16:34.314Z</time></trkpt><trkpt lat="37.6786361" lon="14.037226"><ele>563.0</ele><time>2026-04-26T09:16:35.314Z</time></trkpt><trkpt lat="37.6785715" lon="14.0373167"><ele>565.0</ele><time>2026-04-26T09:16:36.314Z</time></trkpt><trkpt lat="37.6784908" lon="14.0374173"><ele>567.0</ele><time>2026-04-26T09:16:37.314Z</time></trkpt><trkpt lat="37.6783947" lon="14.0375362"><ele>569.0</ele><time>2026-04-26T09:16:38.314Z</time></trkpt><trkpt lat="37.6782854" lon="14.0376669"><ele>569.0</ele><time>2026-04-26T09:16:39.314Z</time></trkpt><trkpt lat="37.6781758" lon="14.0378046"><ele>569.0</ele><time>2026-04-26T09:16:40.314Z</time></trkpt><trkpt lat="37.6780671" lon="14.03795"><ele>569.0</ele><time>2026-04-26T09:16:41.314Z</time></trkpt><trkpt lat="37.6779737" lon="14.0381001"><ele>569.0</ele><time>2026-04-26T09:16:42.313Z</time></trkpt><trkpt lat="37.677891" lon="14.0382481"><ele>569.0</ele><time>2026-04-26T09:16:43.314Z</time></trkpt><trkpt lat="37.6778182" lon="14.0383907"><ele>569.0</ele><time>2026-04-26T09:16:44.313Z</time></trkpt><trkpt lat="37.6777525" lon="14.0385336"><ele>569.0</ele><time>2026-04-26T09:16:45.313Z</time></trkpt><trkpt lat="37.6776809" lon="14.0386584"><ele>566.75</ele><time>2026-04-26T09:16:46.314Z</time></trkpt><trkpt lat="37.6776091" lon="14.0387767"><ele>564.5</ele><time>2026-04-26T09:16:47.314Z</time></trkpt><trkpt lat="37.6775323" lon="14.0388859"><ele>562.25</ele><time>2026-04-26T09:16:48.314Z</time></trkpt><trkpt lat="37.6774471" lon="14.038973"><ele>560.0</ele><time>2026-04-26T09:16:49.314Z</time></trkpt><trkpt lat="37.677342" lon="14.039028"><ele>560.0</ele><time>2026-04-26T09:16:50.314Z</time></trkpt><trkpt lat="37.6772288" lon="14.0390422"><ele>560.0</ele><time>2026-04-26T09:16:51.314Z</time></trkpt><trkpt lat="37.6771163" lon="14.0390269"><ele>560.0</ele><time>2026-04-26T09:16:52.314Z</time></trkpt><trkpt lat="37.6770076" lon="14.0390018"><ele>560.0</ele><time>2026-04-26T09:16:53.314Z</time></trkpt><trkpt lat="37.6769125" lon="14.0390141"><ele>560.0</ele><time>2026-04-26T09:16:54.314Z</time></trkpt><trkpt lat="37.6768282" lon="14.0390716"><ele>557.0</ele><time>2026-04-26T09:16:55.314Z</time></trkpt><trkpt lat="37.6767428" lon="14.0391442"><ele>554.0</ele><time>2026-04-26T09:16:56.314Z</time></trkpt><trkpt lat="37.6766563" lon="14.0392106"><ele>551.0</ele><time>2026-04-26T09:16:57.314Z</time></trkpt><trkpt lat="37.6765702" lon="14.039236"><ele>548.0</ele><time>2026-04-26T09:16:58.314Z</time></trkpt><trkpt lat="37.6764809" lon="14.0392129"><ele>545.0</ele><time>2026-04-26T09:16:59.314Z</time></trkpt><trkpt lat="37.6763893" lon="14.0391482"><ele>547.2</ele><time>2026-04-26T09:17:00.314Z</time></trkpt><trkpt lat="37.6762986" lon="14.0390735"><ele>549.4</ele><time>2026-04-26T09:17:01.314Z</time></trkpt><trkpt lat="37.6762083" lon="14.0389996"><ele>551.6</ele><time>2026-04-26T09:17:02.314Z</time></trkpt><trkpt lat="37.6761153" lon="14.0389361"><ele>553.8</ele><time>2026-04-26T09:17:03.314Z</time></trkpt><trkpt lat="37.6760229" lon="14.0388997"><ele>556.0</ele><time>2026-04-26T09:17:04.313Z</time></trkpt><trkpt lat="37.6759335" lon="14.038891"><ele>556.0</ele><time>2026-04-26T09:17:05.314Z</time></trkpt><trkpt lat="37.6758497" lon="14.0389178"><ele>556.0</ele><time>2026-04-26T09:17:06.314Z</time></trkpt><trkpt lat="37.6757812" lon="14.0389669"><ele>556.0</ele><time>2026-04-26T09:17:07.314Z</time></trkpt><trkpt lat="37.6757394" lon="14.0390421"><ele>556.0</ele><time>2026-04-26T09:17:08.314Z</time></trkpt><trkpt lat="37.6757309" lon="14.0391287"><ele>556.0</ele><time>2026-04-26T09:17:09.314Z</time></trkpt><trkpt lat="37.6757594" lon="14.0392126"><ele>556.0</ele><time>2026-04-26T09:17:10.314Z</time></trkpt><trkpt lat="37.675812" lon="14.0392669"><ele>556.0</ele><time>2026-04-26T09:17:11.314Z</time></trkpt><trkpt lat="37.6758853" lon="14.0393162"><ele>553.25</ele><time>2026-04-26T09:17:12.314Z</time></trkpt><trkpt lat="37.6759744" lon="14.0393662"><ele>550.5</ele><time>2026-04-26T09:17:13.314Z</time></trkpt><trkpt lat="37.6760785" lon="14.0394198"><ele>547.75</ele><time>2026-04-26T09:17:14.314Z</time></trkpt><trkpt lat="37.6761863" lon="14.0394813"><ele>545.0</ele><time>2026-04-26T09:17:15.314Z</time></trkpt><trkpt lat="37.6762967" lon="14.0395514"><ele>545.0</ele><time>2026-04-26T09:17:16.314Z</time></trkpt><trkpt lat="37.6764024" lon="14.0396276"><ele>545.0</ele><time>2026-04-26T09:17:17.314Z</time></trkpt><trkpt lat="37.6764999" lon="14.0397254"><ele>545.0</ele><time>2026-04-26T09:17:18.314Z</time></trkpt><trkpt lat="37.6765804" lon="14.0398521"><ele>545.0</ele><time>2026-04-26T09:17:19.314Z</time></trkpt><trkpt lat="37.6766375" lon="14.0399817"><ele>543.0</ele><time>2026-04-26T09:17:20.314Z</time></trkpt><trkpt lat="37.6766665" lon="14.0401335"><ele>541.0</ele><time>2026-04-26T09:17:21.314Z</time></trkpt><trkpt lat="37.6766646" lon="14.0402847"><ele>539.0</ele><time>2026-04-26T09:17:22.314Z</time></trkpt><trkpt lat="37.6766444" lon="14.0404316"><ele>537.0</ele><time>2026-04-26T09:17:23.314Z</time></trkpt><trkpt lat="37.6766089" lon="14.0405663"><ele>537.0</ele><time>2026-04-26T09:17:24.313Z</time></trkpt><trkpt lat="37.6765457" lon="14.0406936"><ele>537.0</ele><time>2026-04-26T09:17:25.314Z</time></trkpt><trkpt lat="37.6764755" lon="14.0408179"><ele>537.0</ele><time>2026-04-26T09:17:26.314Z</time></trkpt><trkpt lat="37.6763974" lon="14.0409562"><ele>537.0</ele><time>2026-04-26T09:17:27.314Z</time></trkpt><trkpt lat="37.6763068" lon="14.0411058"><ele>535.3333333333334</ele><time>2026-04-26T09:17:28.314Z</time></trkpt><trkpt lat="37.6762135" lon="14.041256"><ele>533.6666666666667</ele><time>2026-04-26T09:17:29.314Z</time></trkpt><trkpt lat="37.6761187" lon="14.0414103"><ele>532.0</ele><time>2026-04-26T09:17:30.314Z</time></trkpt><trkpt lat="37.6760333" lon="14.0415797"><ele>529.0</ele><time>2026-04-26T09:17:31.314Z</time></trkpt><trkpt lat="37.6759571" lon="14.0417701"><ele>526.0</ele><time>2026-04-26T09:17:32.314Z</time></trkpt><trkpt lat="37.6758966" lon="14.0419683"><ele>523.0</ele><time>2026-04-26T09:17:33.313Z</time></trkpt><trkpt lat="37.6758486" lon="14.0421729"><ele>523.0</ele><time>2026-04-26T09:17:34.314Z</time></trkpt><trkpt lat="37.675806" lon="14.0423834"><ele>523.0</ele><time>2026-04-26T09:17:35.313Z</time></trkpt><trkpt lat="37.6757637" lon="14.0425897"><ele>523.0</ele><time>2026-04-26T09:17:36.314Z</time></trkpt><trkpt lat="37.6757163" lon="14.0427895"><ele>522.0</ele><time>2026-04-26T09:17:37.314Z</time></trkpt><trkpt lat="37.6756587" lon="14.0429855"><ele>521.0</ele><time>2026-04-26T09:17:38.314Z</time></trkpt><trkpt lat="37.6755883" lon="14.043162"><ele>520.0</ele><time>2026-04-26T09:17:39.314Z</time></trkpt><trkpt lat="37.6755024" lon="14.0433295"><ele>520.0</ele><time>2026-04-26T09:17:40.314Z</time></trkpt><trkpt lat="37.6754166" lon="14.0434907"><ele>520.0</ele><time>2026-04-26T09:17:41.314Z</time></trkpt><trkpt lat="37.6753309" lon="14.0436466"><ele>520.0</ele><time>2026-04-26T09:17:42.313Z</time></trkpt><trkpt lat="37.6752448" lon="14.0437939"><ele>520.0</ele><time>2026-04-26T09:17:43.314Z</time></trkpt><trkpt lat="37.6751582" lon="14.0439345"><ele>517.75</ele><time>2026-04-26T09:17:44.314Z</time></trkpt><trkpt lat="37.6750681" lon="14.0440676"><ele>515.5</ele><time>2026-04-26T09:17:45.314Z</time></trkpt><trkpt lat="37.6749845" lon="14.0441891"><ele>513.25</ele><time>2026-04-26T09:17:46.314Z</time></trkpt><trkpt lat="37.6749144" lon="14.0443136"><ele>511.0</ele><time>2026-04-26T09:17:47.314Z</time></trkpt><trkpt lat="37.6748578" lon="14.0444554"><ele>511.0</ele><time>2026-04-26T09:17:48.314Z</time></trkpt><trkpt lat="37.6748126" lon="14.0446156"><ele>511.0</ele><time>2026-04-26T09:17:49.314Z</time></trkpt><trkpt lat="37.674774" lon="14.0447791"><ele>511.0</ele><time>2026-04-26T09:17:50.314Z</time></trkpt><trkpt lat="37.6747441" lon="14.0449474"><ele>511.0</ele><time>2026-04-26T09:17:51.314Z</time></trkpt><trkpt lat="37.6747359" lon="14.0451257"><ele>513.0</ele><time>2026-04-26T09:17:52.314Z</time></trkpt><trkpt lat="37.6747316" lon="14.0453242"><ele>515.0</ele><time>2026-04-26T09:17:53.314Z</time></trkpt><trkpt lat="37.6747168" lon="14.0455318"><ele>517.0</ele><time>2026-04-26T09:17:54.314Z</time></trkpt><trkpt lat="37.6746941" lon="14.0457342"><ele>516.25</ele><time>2026-04-26T09:17:55.314Z</time></trkpt><trkpt lat="37.6746607" lon="14.0459162"><ele>515.5</ele><time>2026-04-26T09:17:56.314Z</time></trkpt><trkpt lat="37.674625" lon="14.0460724"><ele>514.75</ele><time>2026-04-26T09:17:57.314Z</time></trkpt><trkpt lat="37.6745509" lon="14.0461914"><ele>514.0</ele><time>2026-04-26T09:17:58.314Z</time></trkpt><trkpt lat="37.6744603" lon="14.0462801"><ele>511.2</ele><time>2026-04-26T09:17:59.314Z</time></trkpt><trkpt lat="37.6743551" lon="14.0463463"><ele>508.4</ele><time>2026-04-26T09:18:00.314Z</time></trkpt><trkpt lat="37.6742462" lon="14.0463971"><ele>505.6</ele><time>2026-04-26T09:18:01.314Z</time></trkpt><trkpt lat="37.6741447" lon="14.0464482"><ele>502.8</ele><time>2026-04-26T09:18:02.314Z</time></trkpt><trkpt lat="37.6740554" lon="14.0465062"><ele>500.0</ele><time>2026-04-26T09:18:03.313Z</time></trkpt><trkpt lat="37.6739928" lon="14.0465946"><ele>500.25</ele><time>2026-04-26T09:18:04.314Z</time></trkpt><trkpt lat="37.6739637" lon="14.0467253"><ele>500.5</ele><time>2026-04-26T09:18:05.313Z</time></trkpt><trkpt lat="37.6739653" lon="14.0468863"><ele>500.75</ele><time>2026-04-26T09:18:06.314Z</time></trkpt><trkpt lat="37.6739639" lon="14.0470593"><ele>501.0</ele><time>2026-04-26T09:18:07.314Z</time></trkpt><trkpt lat="37.6739462" lon="14.0472391"><ele>501.0</ele><time>2026-04-26T09:18:08.314Z</time></trkpt><trkpt lat="37.6739156" lon="14.0474164"><ele>501.0</ele><time>2026-04-26T09:18:09.314Z</time></trkpt><trkpt lat="37.6738762" lon="14.0475945"><ele>501.0</ele><time>2026-04-26T09:18:10.314Z</time></trkpt><trkpt lat="37.6738441" lon="14.0477752"><ele>501.0</ele><time>2026-04-26T09:18:11.314Z</time></trkpt><trkpt lat="37.6738286" lon="14.0479478"><ele>499.75</ele><time>2026-04-26T09:18:12.314Z</time></trkpt><trkpt lat="37.6738145" lon="14.0481168"><ele>498.5</ele><time>2026-04-26T09:18:13.314Z</time></trkpt><trkpt lat="37.6738029" lon="14.0482616"><ele>497.25</ele><time>2026-04-26T09:18:14.314Z</time></trkpt><trkpt lat="37.6737595" lon="14.048381"><ele>496.0</ele><time>2026-04-26T09:18:15.314Z</time></trkpt><trkpt lat="37.6736984" lon="14.0484772"><ele>494.20000000000005</ele><time>2026-04-26T09:18:16.314Z</time></trkpt><trkpt lat="37.6736178" lon="14.0485639"><ele>492.40000000000003</ele><time>2026-04-26T09:18:17.313Z</time></trkpt><trkpt lat="37.6735414" lon="14.0486443"><ele>490.6</ele><time>2026-04-26T09:18:18.314Z</time></trkpt><trkpt lat="37.6734869" lon="14.0487269"><ele>488.8</ele><time>2026-04-26T09:18:19.313Z</time></trkpt><trkpt lat="37.6734708" lon="14.0488215"><ele>487.0</ele><time>2026-04-26T09:18:20.314Z</time></trkpt><trkpt lat="37.6734983" lon="14.0489233"><ele>487.0</ele><time>2026-04-26T09:18:21.314Z</time></trkpt><trkpt lat="37.6735503" lon="14.0489954"><ele>487.00000000000006</ele><time>2026-04-26T09:18:22.314Z</time></trkpt><trkpt lat="37.6736277" lon="14.0490177"><ele>487.00000000000006</ele><time>2026-04-26T09:18:23.314Z</time></trkpt><trkpt lat="37.6737161" lon="14.04899"><ele>487.0</ele><time>2026-04-26T09:18:24.314Z</time></trkpt><trkpt lat="37.6738183" lon="14.0489328"><ele>487.0</ele><time>2026-04-26T09:18:25.314Z</time></trkpt><trkpt lat="37.6739265" lon="14.0488685"><ele>487.0</ele><time>2026-04-26T09:18:26.314Z</time></trkpt><trkpt lat="37.67404" lon="14.0488061"><ele>487.0</ele><time>2026-04-26T09:18:27.314Z</time></trkpt><trkpt lat="37.6741575" lon="14.0487429"><ele>487.0</ele><time>2026-04-26T09:18:28.314Z</time></trkpt><trkpt lat="37.6742795" lon="14.0486741"><ele>487.0</ele><time>2026-04-26T09:18:29.314Z</time></trkpt><trkpt lat="37.6743971" lon="14.0486004"><ele>488.0</ele><time>2026-04-26T09:18:30.314Z</time></trkpt><trkpt lat="37.6745209" lon="14.0485093"><ele>489.0</ele><time>2026-04-26T09:18:31.314Z</time></trkpt><trkpt lat="37.6746384" lon="14.048413"><ele>490.0</ele><time>2026-04-26T09:18:32.314Z</time></trkpt><trkpt lat="37.6747509" lon="14.0483224"><ele>491.0</ele><time>2026-04-26T09:18:33.314Z</time></trkpt><trkpt lat="37.674869" lon="14.0482503"><ele>491.0</ele><time>2026-04-26T09:18:34.314Z</time></trkpt><trkpt lat="37.6749965" lon="14.0482133"><ele>491.0</ele><time>2026-04-26T09:18:35.314Z</time></trkpt><trkpt lat="37.6751162" lon="14.0481926"><ele>491.0</ele><time>2026-04-26T09:18:36.314Z</time></trkpt><trkpt lat="37.6752289" lon="14.0482051"><ele>491.0</ele><time>2026-04-26T09:18:37.314Z</time></trkpt><trkpt lat="37.6753334" lon="14.0482477"><ele>488.6</ele><time>2026-04-26T09:18:38.313Z</time></trkpt><trkpt lat="37.6754195" lon="14.0483201"><ele>486.20000000000005</ele><time>2026-04-26T09:18:39.314Z</time></trkpt><trkpt lat="37.675477" lon="14.048426"><ele>483.79999999999995</ele><time>2026-04-26T09:18:40.314Z</time></trkpt><trkpt lat="37.6755122" lon="14.0485415"><ele>481.4</ele><time>2026-04-26T09:18:41.313Z</time></trkpt><trkpt lat="37.6755096" lon="14.048669"><ele>479.0</ele><time>2026-04-26T09:18:42.314Z</time></trkpt><trkpt lat="37.6754868" lon="14.0487994"><ele>479.0</ele><time>2026-04-26T09:18:43.314Z</time></trkpt><trkpt lat="37.6754519" lon="14.0489356"><ele>479.0</ele><time>2026-04-26T09:18:44.314Z</time></trkpt><trkpt lat="37.675408" lon="14.0490738"><ele>479.0</ele><time>2026-04-26T09:18:45.314Z</time></trkpt><trkpt lat="37.6753774" lon="14.0492138"><ele>479.0</ele><time>2026-04-26T09:18:46.314Z</time></trkpt><trkpt lat="37.6753717" lon="14.0493603"><ele>477.25</ele><time>2026-04-26T09:18:47.314Z</time></trkpt><trkpt lat="37.6753916" lon="14.0495137"><ele>475.5</ele><time>2026-04-26T09:18:48.314Z</time></trkpt><trkpt lat="37.6754276" lon="14.0496637"><ele>473.75</ele><time>2026-04-26T09:18:49.314Z</time></trkpt><trkpt lat="37.6754725" lon="14.0498063"><ele>472.0</ele><time>2026-04-26T09:18:50.314Z</time></trkpt><trkpt lat="37.6755294" lon="14.0499514"><ele>469.75</ele><time>2026-04-26T09:18:51.314Z</time></trkpt><trkpt lat="37.6755909" lon="14.0500958"><ele>467.5</ele><time>2026-04-26T09:18:52.314Z</time></trkpt><trkpt lat="37.6756775" lon="14.0502343"><ele>465.25</ele><time>2026-04-26T09:18:53.313Z</time></trkpt><trkpt lat="37.6757794" lon="14.050352"><ele>463.0</ele><time>2026-04-26T09:18:54.314Z</time></trkpt><trkpt lat="37.6759047" lon="14.0504701"><ele>463.0</ele><time>2026-04-26T09:18:55.314Z</time></trkpt><trkpt lat="37.6760343" lon="14.0505889"><ele>463.0</ele><time>2026-04-26T09:18:56.314Z</time></trkpt><trkpt lat="37.6761708" lon="14.0507212"><ele>463.0</ele><time>2026-04-26T09:18:57.314Z</time></trkpt><trkpt lat="37.6763057" lon="14.0508484"><ele>460.33333333333337</ele><time>2026-04-26T09:18:58.314Z</time></trkpt><trkpt lat="37.6764353" lon="14.0509729"><ele>457.66666666666663</ele><time>2026-04-26T09:18:59.314Z</time></trkpt><trkpt lat="37.6765604" lon="14.0510989"><ele>455.0</ele><time>2026-04-26T09:19:00.314Z</time></trkpt><trkpt lat="37.6766799" lon="14.0512154"><ele>455.0</ele><time>2026-04-26T09:19:01.314Z</time></trkpt><trkpt lat="37.6767947" lon="14.0513289"><ele>455.0</ele><time>2026-04-26T09:19:02.313Z</time></trkpt><trkpt lat="37.6769039" lon="14.0514391"><ele>455.0</ele><time>2026-04-26T09:19:03.314Z</time></trkpt><trkpt lat="37.6770136" lon="14.0515529"><ele>455.0</ele><time>2026-04-26T09:19:04.314Z</time></trkpt><trkpt lat="37.6771174" lon="14.0516666"><ele>452.75</ele><time>2026-04-26T09:19:05.313Z</time></trkpt><trkpt lat="37.6772221" lon="14.051786"><ele>450.5</ele><time>2026-04-26T09:19:06.314Z</time></trkpt><trkpt lat="37.6773252" lon="14.0519091"><ele>448.25</ele><time>2026-04-26T09:19:07.314Z</time></trkpt><trkpt lat="37.6774276" lon="14.0520398"><ele>446.0</ele><time>2026-04-26T09:19:08.314Z</time></trkpt><trkpt lat="37.677522" lon="14.0521725"><ele>446.0</ele><time>2026-04-26T09:19:09.314Z</time></trkpt><trkpt lat="37.6776083" lon="14.0523113"><ele>446.0</ele><time>2026-04-26T09:19:10.314Z</time></trkpt><trkpt lat="37.6776837" lon="14.052456"><ele>446.0</ele><time>2026-04-26T09:19:11.314Z</time></trkpt><trkpt lat="37.6777508" lon="14.0526047"><ele>446.0</ele><time>2026-04-26T09:19:12.314Z</time></trkpt><trkpt lat="37.6778158" lon="14.0527589"><ele>445.75</ele><time>2026-04-26T09:19:13.314Z</time></trkpt><trkpt lat="37.6778737" lon="14.0529107"><ele>445.5</ele><time>2026-04-26T09:19:14.314Z</time></trkpt><trkpt lat="37.6779258" lon="14.0530647"><ele>445.25</ele><time>2026-04-26T09:19:15.314Z</time></trkpt><trkpt lat="37.6779742" lon="14.0532127"><ele>445.0</ele><time>2026-04-26T09:19:16.314Z</time></trkpt><trkpt lat="37.678017" lon="14.0533567"><ele>445.0</ele><time>2026-04-26T09:19:17.314Z</time></trkpt><trkpt lat="37.67806" lon="14.0535025"><ele>445.0</ele><time>2026-04-26T09:19:18.314Z</time></trkpt><trkpt lat="37.6781056" lon="14.0536627"><ele>445.0</ele><time>2026-04-26T09:19:19.314Z</time></trkpt><trkpt lat="37.6781477" lon="14.0538358"><ele>445.0</ele><time>2026-04-26T09:19:20.314Z</time></trkpt><trkpt lat="37.6781906" lon="14.0540187"><ele>444.5</ele><time>2026-04-26T09:19:21.314Z</time></trkpt><trkpt lat="37.6782342" lon="14.0541978"><ele>444.0</ele><time>2026-04-26T09:19:22.314Z</time></trkpt><trkpt lat="37.6782795" lon="14.0543734"><ele>443.5</ele><time>2026-04-26T09:19:23.314Z</time></trkpt><trkpt lat="37.6783183" lon="14.0545364"><ele>443.0</ele><time>2026-04-26T09:19:24.314Z</time></trkpt><trkpt lat="37.6783406" lon="14.0547013"><ele>443.0</ele><time>2026-04-26T09:19:25.314Z</time></trkpt><trkpt lat="37.6783567" lon="14.0548545"><ele>443.0</ele><time>2026-04-26T09:19:26.314Z</time></trkpt><trkpt lat="37.6783609" lon="14.0550103"><ele>443.0</ele><time>2026-04-26T09:19:27.313Z</time></trkpt><trkpt lat="37.6783479" lon="14.0551653"><ele>443.0</ele><time>2026-04-26T09:19:28.314Z</time></trkpt><trkpt lat="37.6783149" lon="14.055317"><ele>442.5</ele><time>2026-04-26T09:19:29.314Z</time></trkpt><trkpt lat="37.6782662" lon="14.0554564"><ele>442.0</ele><time>2026-04-26T09:19:30.314Z</time></trkpt><trkpt lat="37.6782036" lon="14.0555832"><ele>441.5</ele><time>2026-04-26T09:19:31.314Z</time></trkpt><trkpt lat="37.6781171" lon="14.0557055"><ele>441.0</ele><time>2026-04-26T09:19:32.314Z</time></trkpt><trkpt lat="37.678018" lon="14.0558088"><ele>441.0</ele><time>2026-04-26T09:19:33.313Z</time></trkpt><trkpt lat="37.6779049" lon="14.0559097"><ele>441.0</ele><time>2026-04-26T09:19:34.314Z</time></trkpt><trkpt lat="37.6777868" lon="14.0560111"><ele>441.0</ele><time>2026-04-26T09:19:35.313Z</time></trkpt><trkpt lat="37.6776579" lon="14.0561162"><ele>441.0</ele><time>2026-04-26T09:19:36.314Z</time></trkpt><trkpt lat="37.6775315" lon="14.0562173"><ele>440.25</ele><time>2026-04-26T09:19:37.314Z</time></trkpt><trkpt lat="37.6774152" lon="14.0563173"><ele>439.5</ele><time>2026-04-26T09:19:38.314Z</time></trkpt><trkpt lat="37.6773033" lon="14.0564003"><ele>438.75</ele><time>2026-04-26T09:19:39.314Z</time></trkpt><trkpt lat="37.6771894" lon="14.0564434"><ele>438.0</ele><time>2026-04-26T09:19:40.314Z</time></trkpt><trkpt lat="37.6770756" lon="14.0564484"><ele>438.0</ele><time>2026-04-26T09:19:41.314Z</time></trkpt><trkpt lat="37.6769534" lon="14.0564323"><ele>438.0</ele><time>2026-04-26T09:19:42.313Z</time></trkpt><trkpt lat="37.6768206" lon="14.0564005"><ele>438.0</ele><time>2026-04-26T09:19:43.314Z</time></trkpt><trkpt lat="37.6766841" lon="14.0563558"><ele>438.0</ele><time>2026-04-26T09:19:44.314Z</time></trkpt><trkpt lat="37.6765416" lon="14.056326"><ele>439.33333333333337</ele><time>2026-04-26T09:19:45.314Z</time></trkpt><trkpt lat="37.6763832" lon="14.0563058"><ele>440.6666666666667</ele><time>2026-04-26T09:19:46.313Z</time></trkpt><trkpt lat="37.6762166" lon="14.0563049"><ele>442.0</ele><time>2026-04-26T09:19:47.314Z</time></trkpt><trkpt lat="37.6760459" lon="14.0563232"><ele>443.0</ele><time>2026-04-26T09:19:48.314Z</time></trkpt><trkpt lat="37.6758571" lon="14.0563419"><ele>444.0</ele><time>2026-04-26T09:19:49.314Z</time></trkpt><trkpt lat="37.6756589" lon="14.0563612"><ele>445.0</ele><time>2026-04-26T09:19:50.314Z</time></trkpt><trkpt lat="37.6754577" lon="14.0563703"><ele>445.0</ele><time>2026-04-26T09:19:51.314Z</time></trkpt><trkpt lat="37.6752719" lon="14.0563684"><ele>445.0</ele><time>2026-04-26T09:19:52.314Z</time></trkpt><trkpt lat="37.6751021" lon="14.0563656"><ele>445.0</ele><time>2026-04-26T09:19:53.314Z</time></trkpt><trkpt lat="37.6749645" lon="14.0563637"><ele>444.8</ele><time>2026-04-26T09:19:54.314Z</time></trkpt><trkpt lat="37.6748381" lon="14.0563807"><ele>444.6</ele><time>2026-04-26T09:19:55.314Z</time></trkpt><trkpt lat="37.6747332" lon="14.056423"><ele>444.4</ele><time>2026-04-26T09:19:56.314Z</time></trkpt><trkpt lat="37.6746605" lon="14.0564965"><ele>444.2</ele><time>2026-04-26T09:19:57.313Z</time></trkpt><trkpt lat="37.6746139" lon="14.0565907"><ele>444.0</ele><time>2026-04-26T09:19:58.313Z</time></trkpt><trkpt lat="37.6746027" lon="14.0566991"><ele>447.5</ele><time>2026-04-26T09:19:59.313Z</time></trkpt><trkpt lat="37.6746409" lon="14.0568067"><ele>451.0</ele><time>2026-04-26T09:20:00.312Z</time></trkpt><trkpt lat="37.6747236" lon="14.0568962"><ele>454.5</ele><time>2026-04-26T09:20:01.313Z</time></trkpt><trkpt lat="37.674836" lon="14.0569751"><ele>458.0</ele><time>2026-04-26T09:20:02.313Z</time></trkpt><trkpt lat="37.6749713" lon="14.0570521"><ele>458.0</ele><time>2026-04-26T09:20:03.313Z</time></trkpt><trkpt lat="37.6751226" lon="14.0571379"><ele>458.0</ele><time>2026-04-26T09:20:04.313Z</time></trkpt><trkpt lat="37.6752845" lon="14.0572232"><ele>458.0</ele><time>2026-04-26T09:20:05.313Z</time></trkpt><trkpt lat="37.6754393" lon="14.0573081"><ele>457.0</ele><time>2026-04-26T09:20:06.313Z</time></trkpt><trkpt lat="37.6755842" lon="14.0574091"><ele>456.0</ele><time>2026-04-26T09:20:07.313Z</time></trkpt><trkpt lat="37.6757138" lon="14.057535"><ele>455.0</ele><time>2026-04-26T09:20:08.313Z</time></trkpt><trkpt lat="37.6758394" lon="14.0576989"><ele>458.66666666666663</ele><time>2026-04-26T09:20:09.313Z</time></trkpt><trkpt lat="37.6759601" lon="14.0578835"><ele>462.33333333333337</ele><time>2026-04-26T09:20:10.313Z</time></trkpt><trkpt lat="37.6760779" lon="14.0580888"><ele>466.0</ele><time>2026-04-26T09:20:11.313Z</time></trkpt><trkpt lat="37.6761974" lon="14.0582992"><ele>467.33333333333337</ele><time>2026-04-26T09:20:12.313Z</time></trkpt><trkpt lat="37.6763119" lon="14.0585271"><ele>468.66666666666663</ele><time>2026-04-26T09:20:13.313Z</time></trkpt><trkpt lat="37.6764175" lon="14.0587821"><ele>470.0</ele><time>2026-04-26T09:20:14.313Z</time></trkpt><trkpt lat="37.6765137" lon="14.0590389"><ele>472.66666666666663</ele><time>2026-04-26T09:20:15.313Z</time></trkpt><trkpt lat="37.6765983" lon="14.0592827"><ele>475.33333333333337</ele><time>2026-04-26T09:20:16.313Z</time></trkpt><trkpt lat="37.6766766" lon="14.0595056"><ele>478.0</ele><time>2026-04-26T09:20:17.312Z</time></trkpt><trkpt lat="37.6767573" lon="14.0597134"><ele>478.0</ele><time>2026-04-26T09:20:18.313Z</time></trkpt><trkpt lat="37.676827" lon="14.0599037"><ele>478.0</ele><time>2026-04-26T09:20:19.313Z</time></trkpt><trkpt lat="37.6769024" lon="14.0600579"><ele>478.0</ele><time>2026-04-26T09:20:20.313Z</time></trkpt><trkpt lat="37.6769934" lon="14.0601894"><ele>478.0</ele><time>2026-04-26T09:20:21.313Z</time></trkpt><trkpt lat="37.677108" lon="14.0602927"><ele>478.6666666666667</ele><time>2026-04-26T09:20:22.313Z</time></trkpt><trkpt lat="37.6772452" lon="14.0603661"><ele>479.33333333333337</ele><time>2026-04-26T09:20:23.313Z</time></trkpt><trkpt lat="37.6773952" lon="14.0604287"><ele>480.0</ele><time>2026-04-26T09:20:24.313Z</time></trkpt><trkpt lat="37.6775328" lon="14.0604991"><ele>480.0</ele><time>2026-04-26T09:20:25.313Z</time></trkpt><trkpt lat="37.6776465" lon="14.0605902"><ele>480.0</ele><time>2026-04-26T09:20:26.313Z</time></trkpt><trkpt lat="37.6777264" lon="14.0607036"><ele>480.0</ele><time>2026-04-26T09:20:27.313Z</time></trkpt><trkpt lat="37.677778" lon="14.0608436"><ele>480.0</ele><time>2026-04-26T09:20:28.313Z</time></trkpt><trkpt lat="37.6778342" lon="14.0610011"><ele>482.5</ele><time>2026-04-26T09:20:29.312Z</time></trkpt><trkpt lat="37.6779161" lon="14.0611359"><ele>485.0</ele><time>2026-04-26T09:20:30.313Z</time></trkpt><trkpt lat="37.6780223" lon="14.0612329"><ele>487.5</ele><time>2026-04-26T09:20:31.313Z</time></trkpt><trkpt lat="37.6781595" lon="14.0612987"><ele>490.0</ele><time>2026-04-26T09:20:32.313Z</time></trkpt><trkpt lat="37.6782979" lon="14.0613346"><ele>490.0</ele><time>2026-04-26T09:20:33.313Z</time></trkpt><trkpt lat="37.6784529" lon="14.0613233"><ele>490.0</ele><time>2026-04-26T09:20:34.313Z</time></trkpt><trkpt lat="37.6786066" lon="14.0612809"><ele>490.0</ele><time>2026-04-26T09:20:35.313Z</time></trkpt><trkpt lat="37.6787312" lon="14.0612214"><ele>490.0</ele><time>2026-04-26T09:20:36.313Z</time></trkpt><trkpt lat="37.678833" lon="14.0611854"><ele>491.0</ele><time>2026-04-26T09:20:37.313Z</time></trkpt><trkpt lat="37.678931" lon="14.0611968"><ele>492.0</ele><time>2026-04-26T09:20:38.313Z</time></trkpt><trkpt lat="37.6790372" lon="14.0612556"><ele>493.0</ele><time>2026-04-26T09:20:39.313Z</time></trkpt><trkpt lat="37.6791588" lon="14.0613389"><ele>494.0</ele><time>2026-04-26T09:20:40.312Z</time></trkpt><trkpt lat="37.6793165" lon="14.0614244"><ele>493.0</ele><time>2026-04-26T09:20:41.313Z</time></trkpt><trkpt lat="37.6794874" lon="14.061517"><ele>492.0</ele><time>2026-04-26T09:20:42.313Z</time></trkpt><trkpt lat="37.6796485" lon="14.0616194"><ele>491.0</ele><time>2026-04-26T09:20:43.313Z</time></trkpt><trkpt lat="37.6797906" lon="14.0617342"><ele>496.3333333333333</ele><time>2026-04-26T09:20:44.313Z</time></trkpt><trkpt lat="37.6799028" lon="14.0618523"><ele>501.66666666666663</ele><time>2026-04-26T09:20:45.313Z</time></trkpt><trkpt lat="37.6799884" lon="14.0620147"><ele>507.0</ele><time>2026-04-26T09:20:46.313Z</time></trkpt><trkpt lat="37.6800638" lon="14.062191"><ele>507.0</ele><time>2026-04-26T09:20:47.313Z</time></trkpt><trkpt lat="37.6801243" lon="14.0623601"><ele>507.0</ele><time>2026-04-26T09:20:48.313Z</time></trkpt><trkpt lat="37.6801985" lon="14.0625064"><ele>507.0</ele><time>2026-04-26T09:20:49.313Z</time></trkpt><trkpt lat="37.6802973" lon="14.0626239"><ele>507.0</ele><time>2026-04-26T09:20:50.313Z</time></trkpt><trkpt lat="37.6804096" lon="14.0627178"><ele>508.0</ele><time>2026-04-26T09:20:51.313Z</time></trkpt><trkpt lat="37.6805251" lon="14.0627905"><ele>509.0</ele><time>2026-04-26T09:20:52.313Z</time></trkpt><trkpt lat="37.6806159" lon="14.0628945"><ele>510.0</ele><time>2026-04-26T09:20:53.313Z</time></trkpt><trkpt lat="37.6806907" lon="14.0630363"><ele>511.0</ele><time>2026-04-26T09:20:54.313Z</time></trkpt><trkpt lat="37.6807566" lon="14.0631993"><ele>515.3333333333334</ele><time>2026-04-26T09:20:55.313Z</time></trkpt><trkpt lat="37.6808405" lon="14.0633631"><ele>519.6666666666666</ele><time>2026-04-26T09:20:56.313Z</time></trkpt><trkpt lat="37.680953" lon="14.0635048"><ele>524.0</ele><time>2026-04-26T09:20:57.313Z</time></trkpt><trkpt lat="37.6810867" lon="14.0636192"><ele>520.6666666666666</ele><time>2026-04-26T09:20:58.313Z</time></trkpt><trkpt lat="37.6812287" lon="14.063727"><ele>517.3333333333334</ele><time>2026-04-26T09:20:59.313Z</time></trkpt><trkpt lat="37.6813601" lon="14.0638429"><ele>514.0</ele><time>2026-04-26T09:21:00.313Z</time></trkpt><trkpt lat="37.6814681" lon="14.0639929"><ele>514.0</ele><time>2026-04-26T09:21:01.313Z</time></trkpt><trkpt lat="37.6815101" lon="14.0640836"><ele>514.0</ele><time>2026-04-26T09:21:02.313Z</time></trkpt><trkpt lat="37.6815908" lon="14.0642865"><ele>514.0</ele><time>2026-04-26T09:21:03.313Z</time></trkpt><trkpt lat="37.6816841" lon="14.064481"><ele>514.0</ele><time>2026-04-26T09:21:04.313Z</time></trkpt><trkpt lat="37.6818135" lon="14.0646619"><ele>516.3333333333334</ele><time>2026-04-26T09:21:05.313Z</time></trkpt><trkpt lat="37.6819563" lon="14.0648247"><ele>518.6666666666666</ele><time>2026-04-26T09:21:06.313Z</time></trkpt><trkpt lat="37.6820808" lon="14.0649639"><ele>521.0</ele><time>2026-04-26T09:21:07.313Z</time></trkpt><trkpt lat="37.6821736" lon="14.0651011"><ele>523.25</ele><time>2026-04-26T09:21:08.313Z</time></trkpt><trkpt lat="37.6822242" lon="14.0652545"><ele>525.5</ele><time>2026-04-26T09:21:09.312Z</time></trkpt><trkpt lat="37.6822274" lon="14.0654317"><ele>527.75</ele><time>2026-04-26T09:21:10.313Z</time></trkpt><trkpt lat="37.6822094" lon="14.0656338"><ele>530.0</ele><time>2026-04-26T09:21:11.313Z</time></trkpt><trkpt lat="37.6821765" lon="14.0658577"><ele>531.6666666666666</ele><time>2026-04-26T09:21:12.313Z</time></trkpt><trkpt lat="37.6821455" lon="14.0660775"><ele>533.3333333333334</ele><time>2026-04-26T09:21:13.313Z</time></trkpt><trkpt lat="37.6821463" lon="14.0662848"><ele>535.0</ele><time>2026-04-26T09:21:14.313Z</time></trkpt><trkpt lat="37.6821757" lon="14.0664836"><ele>537.6666666666667</ele><time>2026-04-26T09:21:15.312Z</time></trkpt><trkpt lat="37.6822356" lon="14.066695"><ele>540.3333333333334</ele><time>2026-04-26T09:21:16.312Z</time></trkpt><trkpt lat="37.6823286" lon="14.0669048"><ele>543.0</ele><time>2026-04-26T09:21:17.313Z</time></trkpt><trkpt lat="37.6824501" lon="14.06709"><ele>543.0</ele><time>2026-04-26T09:21:18.313Z</time></trkpt><trkpt lat="37.6825967" lon="14.0672509"><ele>543.0</ele><time>2026-04-26T09:21:19.313Z</time></trkpt><trkpt lat="37.6827124" lon="14.0673976"><ele>543.0</ele><time>2026-04-26T09:21:20.313Z</time></trkpt><trkpt lat="37.6828048" lon="14.0676052"><ele>539.6666666666666</ele><time>2026-04-26T09:21:21.313Z</time></trkpt><trkpt lat="37.6828425" lon="14.0677951"><ele>536.3333333333333</ele><time>2026-04-26T09:21:22.313Z</time></trkpt><trkpt lat="37.682848" lon="14.0679943"><ele>533.0</ele><time>2026-04-26T09:21:23.312Z</time></trkpt><trkpt lat="37.6828354" lon="14.0681926"><ele>533.6666666666666</ele><time>2026-04-26T09:21:24.313Z</time></trkpt><trkpt lat="37.682789" lon="14.0683908"><ele>534.3333333333334</ele><time>2026-04-26T09:21:25.313Z</time></trkpt><trkpt lat="37.6827078" lon="14.0685821"><ele>535.0</ele><time>2026-04-26T09:21:26.313Z</time></trkpt><trkpt lat="37.6826102" lon="14.0687791"><ele>543.6666666666667</ele><time>2026-04-26T09:21:27.313Z</time></trkpt><trkpt lat="37.6825101" lon="14.0689607"><ele>552.3333333333334</ele><time>2026-04-26T09:21:28.313Z</time></trkpt><trkpt lat="37.6824288" lon="14.0691448"><ele>561.0</ele><time>2026-04-26T09:21:29.313Z</time></trkpt><trkpt lat="37.6823857" lon="14.0693452"><ele>561.0</ele><time>2026-04-26T09:21:30.313Z</time></trkpt><trkpt lat="37.6823833" lon="14.0695391"><ele>561.0</ele><time>2026-04-26T09:21:31.313Z</time></trkpt><trkpt lat="37.6824205" lon="14.0697384"><ele>561.0</ele><time>2026-04-26T09:21:32.313Z</time></trkpt><trkpt lat="37.6824961" lon="14.0699177"><ele>562.25</ele><time>2026-04-26T09:21:33.313Z</time></trkpt><trkpt lat="37.6825791" lon="14.0700611"><ele>563.5</ele><time>2026-04-26T09:21:34.313Z</time></trkpt><trkpt lat="37.6826369" lon="14.0701888"><ele>564.75</ele><time>2026-04-26T09:21:35.313Z</time></trkpt><trkpt lat="37.6826452" lon="14.0703148"><ele>566.0</ele><time>2026-04-26T09:21:36.313Z</time></trkpt><trkpt lat="37.6826052" lon="14.0704481"><ele>566.0</ele><time>2026-04-26T09:21:37.313Z</time></trkpt><trkpt lat="37.6825315" lon="14.0705698"><ele>566.0</ele><time>2026-04-26T09:21:38.313Z</time></trkpt><trkpt lat="37.6824222" lon="14.0706623"><ele>566.0</ele><time>2026-04-26T09:21:39.313Z</time></trkpt><trkpt lat="37.6822817" lon="14.0707292"><ele>566.0</ele><time>2026-04-26T09:21:40.313Z</time></trkpt><trkpt lat="37.6821297" lon="14.0707863"><ele>565.6666666666666</ele><time>2026-04-26T09:21:41.313Z</time></trkpt><trkpt lat="37.6819766" lon="14.0708659"><ele>565.3333333333334</ele><time>2026-04-26T09:21:42.313Z</time></trkpt><trkpt lat="37.6818365" lon="14.0709801"><ele>565.0</ele><time>2026-04-26T09:21:43.313Z</time></trkpt><trkpt lat="37.6817036" lon="14.0710991"><ele>569.3333333333334</ele><time>2026-04-26T09:21:44.313Z</time></trkpt><trkpt lat="37.6816077" lon="14.0712566"><ele>573.6666666666666</ele><time>2026-04-26T09:21:45.313Z</time></trkpt><trkpt lat="37.6815381" lon="14.0714325"><ele>578.0</ele><time>2026-04-26T09:21:46.313Z</time></trkpt><trkpt lat="37.6815" lon="14.07161"><ele>578.0</ele><time>2026-04-26T09:21:47.313Z</time></trkpt><trkpt lat="37.6814968" lon="14.0717908"><ele>578.0</ele><time>2026-04-26T09:21:48.313Z</time></trkpt><trkpt lat="37.6815082" lon="14.0719771"><ele>578.0</ele><time>2026-04-26T09:21:49.313Z</time></trkpt><trkpt lat="37.681533" lon="14.0721821"><ele>578.0</ele><time>2026-04-26T09:21:50.313Z</time></trkpt><trkpt lat="37.6815572" lon="14.0723824"><ele>578.0</ele><time>2026-04-26T09:21:51.313Z</time></trkpt><trkpt lat="37.6815911" lon="14.0725851"><ele>578.0</ele><time>2026-04-26T09:21:52.313Z</time></trkpt><trkpt lat="37.6816598" lon="14.0727766"><ele>579.3333333333333</ele><time>2026-04-26T09:21:53.313Z</time></trkpt><trkpt lat="37.6817554" lon="14.0729564"><ele>580.6666666666666</ele><time>2026-04-26T09:21:54.313Z</time></trkpt><trkpt lat="37.6818783" lon="14.0731193"><ele>582.0</ele><time>2026-04-26T09:21:55.313Z</time></trkpt><trkpt lat="37.6820155" lon="14.0732526"><ele>581.75</ele><time>2026-04-26T09:21:56.313Z</time></trkpt><trkpt lat="37.6821457" lon="14.0733596"><ele>581.5</ele><time>2026-04-26T09:21:57.313Z</time></trkpt><trkpt lat="37.6822481" lon="14.0734688"><ele>581.25</ele><time>2026-04-26T09:21:58.313Z</time></trkpt><trkpt lat="37.6823008" lon="14.0735889"><ele>581.0</ele><time>2026-04-26T09:21:59.313Z</time></trkpt><trkpt lat="37.6823162" lon="14.0737163"><ele>581.0</ele><time>2026-04-26T09:22:00.313Z</time></trkpt><trkpt lat="37.6822624" lon="14.0738193"><ele>581.0</ele><time>2026-04-26T09:22:01.313Z</time></trkpt><trkpt lat="37.6821713" lon="14.0739015"><ele>581.0</ele><time>2026-04-26T09:22:02.313Z</time></trkpt><trkpt lat="37.6820619" lon="14.0739633"><ele>581.0</ele><time>2026-04-26T09:22:03.313Z</time></trkpt><trkpt lat="37.6819438" lon="14.0740451"><ele>585.75</ele><time>2026-04-26T09:22:04.313Z</time></trkpt><trkpt lat="37.6818461" lon="14.074173"><ele>590.5</ele><time>2026-04-26T09:22:05.313Z</time></trkpt><trkpt lat="37.6817657" lon="14.0743309"><ele>595.25</ele><time>2026-04-26T09:22:06.313Z</time></trkpt><trkpt lat="37.6817142" lon="14.0745187"><ele>600.0</ele><time>2026-04-26T09:22:07.313Z</time></trkpt><trkpt lat="37.6816828" lon="14.0747246"><ele>598.6666666666666</ele><time>2026-04-26T09:22:08.313Z</time></trkpt><trkpt lat="37.6816598" lon="14.0749414"><ele>597.3333333333333</ele><time>2026-04-26T09:22:09.313Z</time></trkpt><trkpt lat="37.6816407" lon="14.0751425"><ele>596.0</ele><time>2026-04-26T09:22:10.313Z</time></trkpt><trkpt lat="37.6816132" lon="14.075317"><ele>596.0</ele><time>2026-04-26T09:22:11.312Z</time></trkpt><trkpt lat="37.6815479" lon="14.075456"><ele>596.0</ele><time>2026-04-26T09:22:12.313Z</time></trkpt><trkpt lat="37.6814352" lon="14.0755516"><ele>596.0</ele><time>2026-04-26T09:22:13.313Z</time></trkpt><trkpt lat="37.6813131" lon="14.0756235"><ele>596.0</ele><time>2026-04-26T09:22:14.313Z</time></trkpt><trkpt lat="37.6811997" lon="14.0757036"><ele>594.75</ele><time>2026-04-26T09:22:15.313Z</time></trkpt><trkpt lat="37.6811275" lon="14.0758217"><ele>593.5</ele><time>2026-04-26T09:22:16.313Z</time></trkpt><trkpt lat="37.6810951" lon="14.075973"><ele>592.25</ele><time>2026-04-26T09:22:17.313Z</time></trkpt><trkpt lat="37.6811041" lon="14.0761529"><ele>591.0</ele><time>2026-04-26T09:22:18.313Z</time></trkpt><trkpt lat="37.6811538" lon="14.0763221"><ele>591.0</ele><time>2026-04-26T09:22:19.313Z</time></trkpt><trkpt lat="37.6812107" lon="14.0764939"><ele>591.0</ele><time>2026-04-26T09:22:20.313Z</time></trkpt><trkpt lat="37.6812761" lon="14.0766595"><ele>591.0</ele><time>2026-04-26T09:22:21.313Z</time></trkpt><trkpt lat="37.6813329" lon="14.0768265"><ele>591.0</ele><time>2026-04-26T09:22:22.313Z</time></trkpt><trkpt lat="37.6813658" lon="14.0769958"><ele>592.0</ele><time>2026-04-26T09:22:23.313Z</time></trkpt><trkpt lat="37.6813575" lon="14.0771685"><ele>593.0</ele><time>2026-04-26T09:22:24.313Z</time></trkpt><trkpt lat="37.6813154" lon="14.0773381"><ele>594.0</ele><time>2026-04-26T09:22:25.312Z</time></trkpt><trkpt lat="37.6812292" lon="14.0774821"><ele>595.0</ele><time>2026-04-26T09:22:26.313Z</time></trkpt><trkpt lat="37.6811228" lon="14.0776166"><ele>604.3333333333334</ele><time>2026-04-26T09:22:27.313Z</time></trkpt><trkpt lat="37.6810149" lon="14.0777739"><ele>613.6666666666666</ele><time>2026-04-26T09:22:28.312Z</time></trkpt><trkpt lat="37.6809203" lon="14.0779625"><ele>623.0</ele><time>2026-04-26T09:22:29.313Z</time></trkpt><trkpt lat="37.6808386" lon="14.0781727"><ele>621.0</ele><time>2026-04-26T09:22:30.313Z</time></trkpt><trkpt lat="37.6807769" lon="14.0783831"><ele>619.0</ele><time>2026-04-26T09:22:31.313Z</time></trkpt><trkpt lat="37.6807451" lon="14.0785863"><ele>617.0</ele><time>2026-04-26T09:22:32.313Z</time></trkpt><trkpt lat="37.6807405" lon="14.0787818"><ele>617.0</ele><time>2026-04-26T09:22:33.313Z</time></trkpt><trkpt lat="37.6807847" lon="14.0789656"><ele>617.0</ele><time>2026-04-26T09:22:34.313Z</time></trkpt><trkpt lat="37.6808354" lon="14.0791507"><ele>617.0</ele><time>2026-04-26T09:22:35.313Z</time></trkpt><trkpt lat="37.680878" lon="14.0793335"><ele>618.6666666666666</ele><time>2026-04-26T09:22:36.313Z</time></trkpt><trkpt lat="37.6808906" lon="14.0795262"><ele>620.3333333333334</ele><time>2026-04-26T09:22:37.313Z</time></trkpt><trkpt lat="37.6808773" lon="14.0797332"><ele>622.0</ele><time>2026-04-26T09:22:38.313Z</time></trkpt><trkpt lat="37.6808427" lon="14.0799345"><ele>624.6666666666667</ele><time>2026-04-26T09:22:39.313Z</time></trkpt><trkpt lat="37.68082" lon="14.0801329"><ele>627.3333333333334</ele><time>2026-04-26T09:22:40.313Z</time></trkpt><trkpt lat="37.6808276" lon="14.0803287"><ele>630.0</ele><time>2026-04-26T09:22:41.313Z</time></trkpt><trkpt lat="37.6808517" lon="14.0805007"><ele>630.0</ele><time>2026-04-26T09:22:42.313Z</time></trkpt><trkpt lat="37.6808606" lon="14.0806545"><ele>630.0</ele><time>2026-04-26T09:22:43.312Z</time></trkpt><trkpt lat="37.6808319" lon="14.0808072"><ele>630.0</ele><time>2026-04-26T09:22:44.313Z</time></trkpt><trkpt lat="37.6807602" lon="14.0809578"><ele>630.0</ele><time>2026-04-26T09:22:45.313Z</time></trkpt><trkpt lat="37.6806905" lon="14.0811298"><ele>630.0</ele><time>2026-04-26T09:22:46.313Z</time></trkpt><trkpt lat="37.6806511" lon="14.0813281"><ele>630.0</ele><time>2026-04-26T09:22:47.313Z</time></trkpt><trkpt lat="37.6806507" lon="14.0815521"><ele>630.0</ele><time>2026-04-26T09:22:48.313Z</time></trkpt><trkpt lat="37.6806707" lon="14.0817906"><ele>630.0</ele><time>2026-04-26T09:22:49.313Z</time></trkpt><trkpt lat="37.6806859" lon="14.0820351"><ele>630.0</ele><time>2026-04-26T09:22:50.313Z</time></trkpt><trkpt lat="37.6806795" lon="14.0822779"><ele>630.0</ele><time>2026-04-26T09:22:51.313Z</time></trkpt><trkpt lat="37.6806557" lon="14.0825373"><ele>631.6666666666666</ele><time>2026-04-26T09:22:52.313Z</time></trkpt><trkpt lat="37.6806242" lon="14.0828048"><ele>633.3333333333333</ele><time>2026-04-26T09:22:53.313Z</time></trkpt><trkpt lat="37.6805896" lon="14.0830694"><ele>635.0</ele><time>2026-04-26T09:22:54.313Z</time></trkpt><trkpt lat="37.6805594" lon="14.0833096"><ele>636.0</ele><time>2026-04-26T09:22:55.313Z</time></trkpt><trkpt lat="37.680529" lon="14.0835137"><ele>637.0</ele><time>2026-04-26T09:22:56.313Z</time></trkpt><trkpt lat="37.6805236" lon="14.08369"><ele>638.0</ele><time>2026-04-26T09:22:57.313Z</time></trkpt><trkpt lat="37.6805616" lon="14.0838523"><ele>639.0</ele><time>2026-04-26T09:22:58.313Z</time></trkpt><trkpt lat="37.6806284" lon="14.0840063"><ele>641.0</ele><time>2026-04-26T09:22:59.313Z</time></trkpt><trkpt lat="37.6807287" lon="14.0841256"><ele>643.0</ele><time>2026-04-26T09:23:00.313Z</time></trkpt><trkpt lat="37.6808619" lon="14.0842323"><ele>645.0</ele><time>2026-04-26T09:23:01.313Z</time></trkpt><trkpt lat="37.6810059" lon="14.084351"><ele>643.3333333333334</ele><time>2026-04-26T09:23:02.313Z</time></trkpt><trkpt lat="37.6811525" lon="14.0845077"><ele>641.6666666666667</ele><time>2026-04-26T09:23:03.313Z</time></trkpt><trkpt lat="37.6812897" lon="14.0846962"><ele>640.0</ele><time>2026-04-26T09:23:04.312Z</time></trkpt><trkpt lat="37.681417" lon="14.0848849"><ele>643.0</ele><time>2026-04-26T09:23:05.313Z</time></trkpt><trkpt lat="37.6815404" lon="14.0850565"><ele>646.0</ele><time>2026-04-26T09:23:06.313Z</time></trkpt><trkpt lat="37.6816874" lon="14.0852039"><ele>649.0</ele><time>2026-04-26T09:23:07.313Z</time></trkpt><trkpt lat="37.6818575" lon="14.0853425"><ele>647.6666666666667</ele><time>2026-04-26T09:23:08.313Z</time></trkpt><trkpt lat="37.6820452" lon="14.0854766"><ele>646.3333333333334</ele><time>2026-04-26T09:23:09.313Z</time></trkpt><trkpt lat="37.6822392" lon="14.0856021"><ele>645.0</ele><time>2026-04-26T09:23:10.313Z</time></trkpt><trkpt lat="37.6824249" lon="14.0857031"><ele>650.0</ele><time>2026-04-26T09:23:11.313Z</time></trkpt><trkpt lat="37.6826024" lon="14.0857946"><ele>655.0</ele><time>2026-04-26T09:23:12.313Z</time></trkpt><trkpt lat="37.6827459" lon="14.0858932"><ele>660.0</ele><time>2026-04-26T09:23:13.313Z</time></trkpt><trkpt lat="37.682874" lon="14.0860019"><ele>660.3333333333334</ele><time>2026-04-26T09:23:14.313Z</time></trkpt><trkpt lat="37.6829891" lon="14.0861362"><ele>660.6666666666667</ele><time>2026-04-26T09:23:15.313Z</time></trkpt><trkpt lat="37.6831046" lon="14.0862789"><ele>661.0</ele><time>2026-04-26T09:23:16.313Z</time></trkpt><trkpt lat="37.6832049" lon="14.0864271"><ele>661.0</ele><time>2026-04-26T09:23:17.313Z</time></trkpt><trkpt lat="37.6832895" lon="14.0865801"><ele>661.0</ele><time>2026-04-26T09:23:18.313Z</time></trkpt><trkpt lat="37.6833548" lon="14.0867377"><ele>661.0</ele><time>2026-04-26T09:23:19.313Z</time></trkpt><trkpt lat="37.6833936" lon="14.0869097"><ele>661.0</ele><time>2026-04-26T09:23:20.313Z</time></trkpt><trkpt lat="37.6834118" lon="14.0871051"><ele>659.6666666666667</ele><time>2026-04-26T09:23:21.313Z</time></trkpt><trkpt lat="37.6833993" lon="14.0873224"><ele>658.3333333333334</ele><time>2026-04-26T09:23:22.313Z</time></trkpt><trkpt lat="37.6833683" lon="14.0875553"><ele>657.0</ele><time>2026-04-26T09:23:23.313Z</time></trkpt><trkpt lat="37.6833299" lon="14.087796"><ele>656.6666666666666</ele><time>2026-04-26T09:23:24.313Z</time></trkpt><trkpt lat="37.6832886" lon="14.0880516"><ele>656.3333333333333</ele><time>2026-04-26T09:23:25.313Z</time></trkpt><trkpt lat="37.6832549" lon="14.088332"><ele>656.0</ele><time>2026-04-26T09:23:26.313Z</time></trkpt><trkpt lat="37.6832465" lon="14.0886357"><ele>656.0</ele><time>2026-04-26T09:23:27.313Z</time></trkpt><trkpt lat="37.6832496" lon="14.0889535"><ele>656.0</ele><time>2026-04-26T09:23:28.313Z</time></trkpt><trkpt lat="37.6832613" lon="14.089281"><ele>656.0</ele><time>2026-04-26T09:23:29.313Z</time></trkpt><trkpt lat="37.683269" lon="14.0895984"><ele>656.0</ele><time>2026-04-26T09:23:30.313Z</time></trkpt><trkpt lat="37.6832654" lon="14.0899018"><ele>657.0</ele><time>2026-04-26T09:23:31.313Z</time></trkpt><trkpt lat="37.6832436" lon="14.0901889"><ele>658.0</ele><time>2026-04-26T09:23:32.313Z</time></trkpt><trkpt lat="37.6831992" lon="14.0904723"><ele>658.0</ele><time>2026-04-26T09:23:33.313Z</time></trkpt><trkpt lat="37.6831476" lon="14.0907615"><ele>658.0</ele><time>2026-04-26T09:23:34.312Z</time></trkpt><trkpt lat="37.6831116" lon="14.0910387"><ele>658.0</ele><time>2026-04-26T09:23:35.313Z</time></trkpt><trkpt lat="37.683086" lon="14.0912954"><ele>658.0</ele><time>2026-04-26T09:23:36.313Z</time></trkpt><trkpt lat="37.6830662" lon="14.0915424"><ele>658.0</ele><time>2026-04-26T09:23:37.313Z</time></trkpt><trkpt lat="37.6830852" lon="14.0917832"><ele>659.0</ele><time>2026-04-26T09:23:38.313Z</time></trkpt><trkpt lat="37.6831406" lon="14.0920372"><ele>660.0</ele><time>2026-04-26T09:23:39.313Z</time></trkpt><trkpt lat="37.6832254" lon="14.0923044"><ele>661.0</ele><time>2026-04-26T09:23:40.313Z</time></trkpt><trkpt lat="37.6833089" lon="14.0925867"><ele>663.3333333333334</ele><time>2026-04-26T09:23:41.313Z</time></trkpt><trkpt lat="37.683385" lon="14.0928527"><ele>665.6666666666666</ele><time>2026-04-26T09:23:42.312Z</time></trkpt><trkpt lat="37.6834734" lon="14.0930805"><ele>668.0</ele><time>2026-04-26T09:23:43.313Z</time></trkpt><trkpt lat="37.6835777" lon="14.0932794"><ele>665.6666666666666</ele><time>2026-04-26T09:23:44.313Z</time></trkpt><trkpt lat="37.6837238" lon="14.0934477"><ele>663.3333333333334</ele><time>2026-04-26T09:23:45.313Z</time></trkpt><trkpt lat="37.6838993" lon="14.0935972"><ele>661.0</ele><time>2026-04-26T09:23:46.313Z</time></trkpt><trkpt lat="37.684094" lon="14.0937266"><ele>661.0</ele><time>2026-04-26T09:23:47.313Z</time></trkpt><trkpt lat="37.6842744" lon="14.0938354"><ele>661.0</ele><time>2026-04-26T09:23:48.313Z</time></trkpt><trkpt lat="37.6844503" lon="14.0939203"><ele>661.0</ele><time>2026-04-26T09:23:49.313Z</time></trkpt><trkpt lat="37.684638" lon="14.093988"><ele>658.3333333333334</ele><time>2026-04-26T09:23:50.313Z</time></trkpt><trkpt lat="37.6848475" lon="14.0939984"><ele>655.6666666666666</ele><time>2026-04-26T09:23:51.313Z</time></trkpt><trkpt lat="37.6850745" lon="14.0939886"><ele>653.0</ele><time>2026-04-26T09:23:52.313Z</time></trkpt><trkpt lat="37.6853006" lon="14.0939737"><ele>653.0</ele><time>2026-04-26T09:23:53.313Z</time></trkpt><trkpt lat="37.6855225" lon="14.0939615"><ele>653.0</ele><time>2026-04-26T09:23:54.313Z</time></trkpt><trkpt lat="37.6857433" lon="14.0939727"><ele>653.0</ele><time>2026-04-26T09:23:55.313Z</time></trkpt><trkpt lat="37.6859551" lon="14.0939994"><ele>653.0</ele><time>2026-04-26T09:23:56.313Z</time></trkpt><trkpt lat="37.6861474" lon="14.094042"><ele>653.0</ele><time>2026-04-26T09:23:57.312Z</time></trkpt><trkpt lat="37.6863227" lon="14.0941003"><ele>653.0</ele><time>2026-04-26T09:23:58.313Z</time></trkpt><trkpt lat="37.6864767" lon="14.0941882"><ele>659.0</ele><time>2026-04-26T09:23:59.313Z</time></trkpt><trkpt lat="37.6866051" lon="14.0943076"><ele>665.0</ele><time>2026-04-26T09:24:00.313Z</time></trkpt><trkpt lat="37.6867098" lon="14.0944636"><ele>671.0</ele><time>2026-04-26T09:24:01.313Z</time></trkpt><trkpt lat="37.6867863" lon="14.0946315"><ele>671.0</ele><time>2026-04-26T09:24:02.313Z</time></trkpt><trkpt lat="37.686829" lon="14.0948028"><ele>671.0</ele><time>2026-04-26T09:24:03.313Z</time></trkpt><trkpt lat="37.6868292" lon="14.0949914"><ele>671.0</ele><time>2026-04-26T09:24:04.313Z</time></trkpt><trkpt lat="37.686793" lon="14.0951953"><ele>673.6666666666666</ele><time>2026-04-26T09:24:05.313Z</time></trkpt><trkpt lat="37.686753" lon="14.0954134"><ele>676.3333333333334</ele><time>2026-04-26T09:24:06.313Z</time></trkpt><trkpt lat="37.6866917" lon="14.0956548"><ele>679.0</ele><time>2026-04-26T09:24:07.313Z</time></trkpt><trkpt lat="37.6866276" lon="14.0959029"><ele>679.0</ele><time>2026-04-26T09:24:08.313Z</time></trkpt><trkpt lat="37.6865809" lon="14.0961453"><ele>679.0</ele><time>2026-04-26T09:24:09.312Z</time></trkpt><trkpt lat="37.6865707" lon="14.0964017"><ele>679.0</ele><time>2026-04-26T09:24:10.313Z</time></trkpt><trkpt lat="37.6866058" lon="14.0966626"><ele>681.0</ele><time>2026-04-26T09:24:11.313Z</time></trkpt><trkpt lat="37.6866784" lon="14.0969391"><ele>683.0</ele><time>2026-04-26T09:24:12.313Z</time></trkpt><trkpt lat="37.6867596" lon="14.0972205"><ele>685.0</ele><time>2026-04-26T09:24:13.313Z</time></trkpt><trkpt lat="37.6868377" lon="14.0975126"><ele>687.0</ele><time>2026-04-26T09:24:14.313Z</time></trkpt><trkpt lat="37.6868996" lon="14.0978182"><ele>682.0</ele><time>2026-04-26T09:24:15.313Z</time></trkpt><trkpt lat="37.6869479" lon="14.0981315"><ele>677.0</ele><time>2026-04-26T09:24:16.313Z</time></trkpt><trkpt lat="37.6869947" lon="14.098442"><ele>677.0</ele><time>2026-04-26T09:24:17.313Z</time></trkpt><trkpt lat="37.6870381" lon="14.098749"><ele>677.0</ele><time>2026-04-26T09:24:18.313Z</time></trkpt><trkpt lat="37.6870685" lon="14.0990459"><ele>678.3333333333333</ele><time>2026-04-26T09:24:19.312Z</time></trkpt><trkpt lat="37.6870813" lon="14.0993061"><ele>679.6666666666666</ele><time>2026-04-26T09:24:20.313Z</time></trkpt><trkpt lat="37.687086" lon="14.0995494"><ele>681.0</ele><time>2026-04-26T09:24:21.313Z</time></trkpt><trkpt lat="37.6871132" lon="14.0997645"><ele>683.3333333333334</ele><time>2026-04-26T09:24:22.313Z</time></trkpt><trkpt lat="37.6871857" lon="14.0999585"><ele>685.6666666666667</ele><time>2026-04-26T09:24:23.313Z</time></trkpt><trkpt lat="37.6872785" lon="14.1001394"><ele>688.0</ele><time>2026-04-26T09:24:24.313Z</time></trkpt><trkpt lat="37.6873905" lon="14.1002913"><ele>688.0</ele><time>2026-04-26T09:24:25.313Z</time></trkpt><trkpt lat="37.6875438" lon="14.1004159"><ele>688.0</ele><time>2026-04-26T09:24:26.313Z</time></trkpt><trkpt lat="37.6877256" lon="14.1005273"><ele>688.0</ele><time>2026-04-26T09:24:27.313Z</time></trkpt><trkpt lat="37.6879077" lon="14.1006469"><ele>688.3333333333334</ele><time>2026-04-26T09:24:28.313Z</time></trkpt><trkpt lat="37.6880814" lon="14.1007836"><ele>688.6666666666666</ele><time>2026-04-26T09:24:29.313Z</time></trkpt><trkpt lat="37.6882396" lon="14.1009434"><ele>689.0</ele><time>2026-04-26T09:24:30.313Z</time></trkpt><trkpt lat="37.6883821" lon="14.1010924"><ele>689.0</ele><time>2026-04-26T09:24:31.313Z</time></trkpt><trkpt lat="37.6885216" lon="14.1012013"><ele>689.0</ele><time>2026-04-26T09:24:32.313Z</time></trkpt><trkpt lat="37.6886713" lon="14.1012534"><ele>689.0</ele><time>2026-04-26T09:24:33.313Z</time></trkpt><trkpt lat="37.6888382" lon="14.1012432"><ele>689.6666666666666</ele><time>2026-04-26T09:24:34.313Z</time></trkpt><trkpt lat="37.688994" lon="14.1011911"><ele>690.3333333333334</ele><time>2026-04-26T09:24:35.313Z</time></trkpt><trkpt lat="37.6891515" lon="14.1011309"><ele>691.0</ele><time>2026-04-26T09:24:36.313Z</time></trkpt><trkpt lat="37.6892898" lon="14.1011115"><ele>691.5</ele><time>2026-04-26T09:24:37.312Z</time></trkpt><trkpt lat="37.6894268" lon="14.1011551"><ele>692.0</ele><time>2026-04-26T09:24:38.312Z</time></trkpt><trkpt lat="37.689559" lon="14.1012583"><ele>692.5</ele><time>2026-04-26T09:24:39.313Z</time></trkpt><trkpt lat="37.689664" lon="14.1013873"><ele>693.0</ele><time>2026-04-26T09:24:40.313Z</time></trkpt><trkpt lat="37.6897288" lon="14.1015439"><ele>694.3333333333334</ele><time>2026-04-26T09:24:41.313Z</time></trkpt><trkpt lat="37.6897621" lon="14.101731"><ele>695.6666666666667</ele><time>2026-04-26T09:24:42.313Z</time></trkpt><trkpt lat="37.6897731" lon="14.1019412"><ele>697.0</ele><time>2026-04-26T09:24:43.313Z</time></trkpt><trkpt lat="37.689774" lon="14.102168"><ele>698.3333333333334</ele><time>2026-04-26T09:24:44.313Z</time></trkpt><trkpt lat="37.6897711" lon="14.1024224"><ele>699.6666666666666</ele><time>2026-04-26T09:24:45.313Z</time></trkpt><trkpt lat="37.689769" lon="14.1026884"><ele>701.0</ele><time>2026-04-26T09:24:46.313Z</time></trkpt><trkpt lat="37.6897678" lon="14.1029695"><ele>701.5</ele><time>2026-04-26T09:24:47.313Z</time></trkpt><trkpt lat="37.6897682" lon="14.1032562"><ele>702.0</ele><time>2026-04-26T09:24:48.313Z</time></trkpt><trkpt lat="37.6897726" lon="14.103552"><ele>702.0</ele><time>2026-04-26T09:24:49.313Z</time></trkpt><trkpt lat="37.689778" lon="14.1038643"><ele>702.0</ele><time>2026-04-26T09:24:50.313Z</time></trkpt><trkpt lat="37.6897842" lon="14.1041779"><ele>703.5</ele><time>2026-04-26T09:24:51.313Z</time></trkpt><trkpt lat="37.6897872" lon="14.1044922"><ele>705.0</ele><time>2026-04-26T09:24:52.313Z</time></trkpt><trkpt lat="37.6897902" lon="14.1048128"><ele>707.5</ele><time>2026-04-26T09:24:53.313Z</time></trkpt><trkpt lat="37.6897858" lon="14.1051283"><ele>710.0</ele><time>2026-04-26T09:24:54.313Z</time></trkpt><trkpt lat="37.6897806" lon="14.105421"><ele>710.0</ele><time>2026-04-26T09:24:55.313Z</time></trkpt><trkpt lat="37.689768" lon="14.1056943"><ele>710.0</ele><time>2026-04-26T09:24:56.313Z</time></trkpt><trkpt lat="37.6897556" lon="14.1059568"><ele>710.0</ele><time>2026-04-26T09:24:57.313Z</time></trkpt><trkpt lat="37.6897436" lon="14.1062294"><ele>711.0</ele><time>2026-04-26T09:24:58.312Z</time></trkpt><trkpt lat="37.6897338" lon="14.106494"><ele>712.0</ele><time>2026-04-26T09:24:59.313Z</time></trkpt><trkpt lat="37.6897264" lon="14.1067482"><ele>713.0</ele><time>2026-04-26T09:25:00.313Z</time></trkpt><trkpt lat="37.6897247" lon="14.1070018"><ele>713.6666666666666</ele><time>2026-04-26T09:25:01.313Z</time></trkpt><trkpt lat="37.6897382" lon="14.1072637"><ele>714.3333333333334</ele><time>2026-04-26T09:25:02.313Z</time></trkpt><trkpt lat="37.6897726" lon="14.10754"><ele>715.0</ele><time>2026-04-26T09:25:03.313Z</time></trkpt><trkpt lat="37.689804" lon="14.1078009"><ele>715.0</ele><time>2026-04-26T09:25:04.313Z</time></trkpt><trkpt lat="37.6898322" lon="14.1080544"><ele>715.0</ele><time>2026-04-26T09:25:05.313Z</time></trkpt><trkpt lat="37.6898522" lon="14.1082892"><ele>715.0</ele><time>2026-04-26T09:25:06.312Z</time></trkpt><trkpt lat="37.6898646" lon="14.1085015"><ele>715.3333333333334</ele><time>2026-04-26T09:25:07.313Z</time></trkpt><trkpt lat="37.6898603" lon="14.1087073"><ele>715.6666666666666</ele><time>2026-04-26T09:25:08.313Z</time></trkpt><trkpt lat="37.6898379" lon="14.1089028"><ele>716.0</ele><time>2026-04-26T09:25:09.313Z</time></trkpt><trkpt lat="37.6897873" lon="14.1090921"><ele>715.3333333333333</ele><time>2026-04-26T09:25:10.313Z</time></trkpt><trkpt lat="37.6897045" lon="14.1092725"><ele>714.6666666666666</ele><time>2026-04-26T09:25:11.313Z</time></trkpt><trkpt lat="37.6895979" lon="14.1094443"><ele>714.0</ele><time>2026-04-26T09:25:12.313Z</time></trkpt><trkpt lat="37.6894706" lon="14.109612"><ele>716.3333333333334</ele><time>2026-04-26T09:25:13.313Z</time></trkpt><trkpt lat="37.6893499" lon="14.1097766"><ele>718.6666666666667</ele><time>2026-04-26T09:25:14.313Z</time></trkpt><trkpt lat="37.689231" lon="14.1099523"><ele>721.0</ele><time>2026-04-26T09:25:15.313Z</time></trkpt><trkpt lat="37.6891169" lon="14.1101403"><ele>721.0</ele><time>2026-04-26T09:25:16.313Z</time></trkpt><trkpt lat="37.6890142" lon="14.1103296"><ele>721.0</ele><time>2026-04-26T09:25:17.313Z</time></trkpt><trkpt lat="37.6889249" lon="14.1105166"><ele>721.0</ele><time>2026-04-26T09:25:18.313Z</time></trkpt><trkpt lat="37.6888492" lon="14.110699"><ele>721.0</ele><time>2026-04-26T09:25:19.313Z</time></trkpt><trkpt lat="37.6887822" lon="14.1108738"><ele>721.0</ele><time>2026-04-26T09:25:20.313Z</time></trkpt><trkpt lat="37.6887291" lon="14.1110323"><ele>721.0</ele><time>2026-04-26T09:25:21.312Z</time></trkpt><trkpt lat="37.688687" lon="14.1111727"><ele>721.0</ele><time>2026-04-26T09:25:22.313Z</time></trkpt><trkpt lat="37.6886699" lon="14.1113078"><ele>721.0</ele><time>2026-04-26T09:25:23.313Z</time></trkpt><trkpt lat="37.688676" lon="14.1114408"><ele>721.0</ele><time>2026-04-26T09:25:24.313Z</time></trkpt><trkpt lat="37.6887056" lon="14.1115719"><ele>721.0</ele><time>2026-04-26T09:25:25.313Z</time></trkpt><trkpt lat="37.6887543" lon="14.1117004"><ele>721.0</ele><time>2026-04-26T09:25:26.313Z</time></trkpt><trkpt lat="37.6888215" lon="14.1118234"><ele>721.0</ele><time>2026-04-26T09:25:27.312Z</time></trkpt><trkpt lat="37.6889074" lon="14.1119414"><ele>723.25</ele><time>2026-04-26T09:25:28.313Z</time></trkpt><trkpt lat="37.6890129" lon="14.112041"><ele>725.5</ele><time>2026-04-26T09:25:29.313Z</time></trkpt><trkpt lat="37.6891327" lon="14.112121"><ele>727.75</ele><time>2026-04-26T09:25:30.313Z</time></trkpt><trkpt lat="37.6892598" lon="14.1121801"><ele>730.0</ele><time>2026-04-26T09:25:31.313Z</time></trkpt><trkpt lat="37.6893925" lon="14.1122345"><ele>729.75</ele><time>2026-04-26T09:25:32.313Z</time></trkpt><trkpt lat="37.6895242" lon="14.1122871"><ele>729.5</ele><time>2026-04-26T09:25:33.313Z</time></trkpt><trkpt lat="37.6896562" lon="14.1123379"><ele>729.25</ele><time>2026-04-26T09:25:34.313Z</time></trkpt><trkpt lat="37.6897919" lon="14.1123777"><ele>729.0</ele><time>2026-04-26T09:25:35.313Z</time></trkpt><trkpt lat="37.6899245" lon="14.1124216"><ele>730.75</ele><time>2026-04-26T09:25:36.313Z</time></trkpt><trkpt lat="37.6900556" lon="14.1124619"><ele>732.5</ele><time>2026-04-26T09:25:37.313Z</time></trkpt><trkpt lat="37.6901767" lon="14.1125003"><ele>734.25</ele><time>2026-04-26T09:25:38.312Z</time></trkpt><trkpt lat="37.6902863" lon="14.1125533"><ele>736.0</ele><time>2026-04-26T09:25:39.313Z</time></trkpt><trkpt lat="37.6903822" lon="14.112636"><ele>736.0</ele><time>2026-04-26T09:25:40.313Z</time></trkpt><trkpt lat="37.6904664" lon="14.1127455"><ele>736.0</ele><time>2026-04-26T09:25:41.313Z</time></trkpt><trkpt lat="37.6905444" lon="14.1128703"><ele>736.0</ele><time>2026-04-26T09:25:42.313Z</time></trkpt><trkpt lat="37.6906216" lon="14.1129964"><ele>736.0</ele><time>2026-04-26T09:25:43.313Z</time></trkpt><trkpt lat="37.6906986" lon="14.1131238"><ele>736.0</ele><time>2026-04-26T09:25:44.313Z</time></trkpt><trkpt lat="37.690779" lon="14.1132322"><ele>736.0</ele><time>2026-04-26T09:25:45.313Z</time></trkpt><trkpt lat="37.6908656" lon="14.1133279"><ele>736.0</ele><time>2026-04-26T09:25:46.313Z</time></trkpt><trkpt lat="37.6909674" lon="14.113412"><ele>736.0</ele><time>2026-04-26T09:25:47.313Z</time></trkpt><trkpt lat="37.6910786" lon="14.1134688"><ele>739.25</ele><time>2026-04-26T09:25:48.313Z</time></trkpt><trkpt lat="37.6911987" lon="14.1134985"><ele>742.5</ele><time>2026-04-26T09:25:49.313Z</time></trkpt><trkpt lat="37.6913265" lon="14.113508"><ele>745.75</ele><time>2026-04-26T09:25:50.313Z</time></trkpt><trkpt lat="37.6914559" lon="14.1135147"><ele>749.0</ele><time>2026-04-26T09:25:51.312Z</time></trkpt><trkpt lat="37.6915706" lon="14.113517"><ele>749.0</ele><time>2026-04-26T09:25:52.313Z</time></trkpt><trkpt lat="37.6916696" lon="14.1135222"><ele>749.0</ele><time>2026-04-26T09:25:53.313Z</time></trkpt><trkpt lat="37.6917605" lon="14.1135268"><ele>749.0</ele><time>2026-04-26T09:25:54.313Z</time></trkpt><trkpt lat="37.6918521" lon="14.1135359"><ele>749.0</ele><time>2026-04-26T09:25:55.313Z</time></trkpt><trkpt lat="37.6919397" lon="14.1135567"><ele>749.0</ele><time>2026-04-26T09:25:56.313Z</time></trkpt><trkpt lat="37.6920274" lon="14.1136032"><ele>748.6</ele><time>2026-04-26T09:25:57.313Z</time></trkpt><trkpt lat="37.6920974" lon="14.1136866"><ele>748.2</ele><time>2026-04-26T09:25:58.312Z</time></trkpt><trkpt lat="37.6921618" lon="14.1137976"><ele>747.8000000000001</ele><time>2026-04-26T09:25:59.313Z</time></trkpt><trkpt lat="37.6922193" lon="14.1139275"><ele>747.4000000000001</ele><time>2026-04-26T09:26:00.313Z</time></trkpt><trkpt lat="37.6922699" lon="14.1140681"><ele>747.0</ele><time>2026-04-26T09:26:01.313Z</time></trkpt><trkpt lat="37.6923158" lon="14.1142118"><ele>749.0</ele><time>2026-04-26T09:26:02.313Z</time></trkpt><trkpt lat="37.692372" lon="14.1143364"><ele>751.0</ele><time>2026-04-26T09:26:03.312Z</time></trkpt><trkpt lat="37.6924411" lon="14.114423"><ele>753.0</ele><time>2026-04-26T09:26:04.313Z</time></trkpt><trkpt lat="37.6925094" lon="14.114465"><ele>755.0</ele><time>2026-04-26T09:26:05.313Z</time></trkpt><trkpt lat="37.6926003" lon="14.1144678"><ele>757.0</ele><time>2026-04-26T09:26:06.313Z</time></trkpt><trkpt lat="37.692675" lon="14.1144328"><ele>757.0</ele><time>2026-04-26T09:26:07.313Z</time></trkpt><trkpt lat="37.6927505" lon="14.1143556"><ele>757.0</ele><time>2026-04-26T09:26:08.312Z</time></trkpt><trkpt lat="37.6928322" lon="14.1142945"><ele>757.0</ele><time>2026-04-26T09:26:09.313Z</time></trkpt><trkpt lat="37.6929196" lon="14.1142558"><ele>757.0</ele><time>2026-04-26T09:26:10.313Z</time></trkpt><trkpt lat="37.6930098" lon="14.1142329"><ele>757.0</ele><time>2026-04-26T09:26:11.313Z</time></trkpt><trkpt lat="37.6931002" lon="14.1142397"><ele>757.5</ele><time>2026-04-26T09:26:12.313Z</time></trkpt><trkpt lat="37.6931921" lon="14.1142826"><ele>758.0</ele><time>2026-04-26T09:26:13.313Z</time></trkpt><trkpt lat="37.6932857" lon="14.1143546"><ele>758.5</ele><time>2026-04-26T09:26:14.313Z</time></trkpt><trkpt lat="37.6933928" lon="14.1144235"><ele>759.0</ele><time>2026-04-26T09:26:15.313Z</time></trkpt><trkpt lat="37.6935233" lon="14.1144686"><ele>760.75</ele><time>2026-04-26T09:26:16.313Z</time></trkpt><trkpt lat="37.6936427" lon="14.1145365"><ele>762.5</ele><time>2026-04-26T09:26:17.312Z</time></trkpt><trkpt lat="37.6937533" lon="14.1146217"><ele>764.25</ele><time>2026-04-26T09:26:18.313Z</time></trkpt><trkpt lat="37.6938562" lon="14.1147022"><ele>766.0</ele><time>2026-04-26T09:26:19.313Z</time></trkpt><trkpt lat="37.6939567" lon="14.1147694"><ele>766.0</ele><time>2026-04-26T09:26:20.313Z</time></trkpt><trkpt lat="37.694061" lon="14.1148077"><ele>766.0</ele><time>2026-04-26T09:26:21.313Z</time></trkpt><trkpt lat="37.6941684" lon="14.1148216"><ele>766.0</ele><time>2026-04-26T09:26:22.313Z</time></trkpt><trkpt lat="37.6942793" lon="14.1148131"><ele>766.0</ele><time>2026-04-26T09:26:23.313Z</time></trkpt><trkpt lat="37.6944" lon="14.1147972"><ele>766.0</ele><time>2026-04-26T09:26:24.313Z</time></trkpt><trkpt lat="37.6945199" lon="14.1147978"><ele>766.8</ele><time>2026-04-26T09:26:25.313Z</time></trkpt><trkpt lat="37.6946225" lon="14.1148187"><ele>767.5999999999999</ele><time>2026-04-26T09:26:26.313Z</time></trkpt><trkpt lat="37.6947279" lon="14.1148427"><ele>768.4</ele><time>2026-04-26T09:26:27.312Z</time></trkpt><trkpt lat="37.6948349" lon="14.1148657"><ele>769.2</ele><time>2026-04-26T09:26:28.313Z</time></trkpt><trkpt lat="37.6949386" lon="14.1148897"><ele>770.0</ele><time>2026-04-26T09:26:29.313Z</time></trkpt><trkpt lat="37.6950568" lon="14.1149074"><ele>772.0</ele><time>2026-04-26T09:26:30.312Z</time></trkpt><trkpt lat="37.6951779" lon="14.1149236"><ele>774.0</ele><time>2026-04-26T09:26:31.313Z</time></trkpt><trkpt lat="37.6953052" lon="14.1149469"><ele>776.0</ele><time>2026-04-26T09:26:32.313Z</time></trkpt><trkpt lat="37.6954302" lon="14.1149762"><ele>778.0</ele><time>2026-04-26T09:26:33.313Z</time></trkpt><trkpt lat="37.695557" lon="14.1149994"><ele>778.75</ele><time>2026-04-26T09:26:34.313Z</time></trkpt><trkpt lat="37.6956866" lon="14.115019"><ele>779.5</ele><time>2026-04-26T09:26:35.313Z</time></trkpt><trkpt lat="37.6958214" lon="14.1150327"><ele>780.25</ele><time>2026-04-26T09:26:36.313Z</time></trkpt><trkpt lat="37.6959559" lon="14.1150436"><ele>781.0</ele><time>2026-04-26T09:26:37.313Z</time></trkpt><trkpt lat="37.6960853" lon="14.1150642"><ele>783.0</ele><time>2026-04-26T09:26:38.313Z</time></trkpt><trkpt lat="37.6962079" lon="14.1150791"><ele>785.0</ele><time>2026-04-26T09:26:39.313Z</time></trkpt><trkpt lat="37.6963252" lon="14.1150908"><ele>787.0</ele><time>2026-04-26T09:26:40.313Z</time></trkpt><trkpt lat="37.6964334" lon="14.1151012"><ele>789.0</ele><time>2026-04-26T09:26:41.313Z</time></trkpt><trkpt lat="37.6965337" lon="14.1151087"><ele>789.0</ele><time>2026-04-26T09:26:42.313Z</time></trkpt><trkpt lat="37.6966256" lon="14.1151111"><ele>789.0</ele><time>2026-04-26T09:26:43.312Z</time></trkpt><trkpt lat="37.6967142" lon="14.1151152"><ele>789.0</ele><time>2026-04-26T09:26:44.313Z</time></trkpt><trkpt lat="37.696803" lon="14.1151166"><ele>789.0</ele><time>2026-04-26T09:26:45.313Z</time></trkpt><trkpt lat="37.6968922" lon="14.1151235"><ele>789.0</ele><time>2026-04-26T09:26:46.313Z</time></trkpt><trkpt lat="37.6969925" lon="14.115122"><ele>790.4000000000001</ele><time>2026-04-26T09:26:47.313Z</time></trkpt><trkpt lat="37.6970981" lon="14.1151174"><ele>791.8</ele><time>2026-04-26T09:26:48.313Z</time></trkpt><trkpt lat="37.6972027" lon="14.1151174"><ele>793.2</ele><time>2026-04-26T09:26:49.313Z</time></trkpt><trkpt lat="37.6973056" lon="14.1151221"><ele>794.5999999999999</ele><time>2026-04-26T09:26:50.313Z</time></trkpt><trkpt lat="37.6974054" lon="14.1151226"><ele>796.0</ele><time>2026-04-26T09:26:51.313Z</time></trkpt><trkpt lat="37.697505" lon="14.1151204"><ele>796.0</ele><time>2026-04-26T09:26:52.313Z</time></trkpt><trkpt lat="37.6975991" lon="14.115116"><ele>796.0</ele><time>2026-04-26T09:26:53.313Z</time></trkpt><trkpt lat="37.6976927" lon="14.1151176"><ele>796.0</ele><time>2026-04-26T09:26:54.313Z</time></trkpt><trkpt lat="37.6977883" lon="14.1151225"><ele>796.0</ele><time>2026-04-26T09:26:55.313Z</time></trkpt><trkpt lat="37.697881" lon="14.1151567"><ele>796.0</ele><time>2026-04-26T09:26:56.313Z</time></trkpt><trkpt lat="37.6979595" lon="14.1152306"><ele>795.3333333333333</ele><time>2026-04-26T09:26:57.313Z</time></trkpt><trkpt lat="37.6980157" lon="14.1153259"><ele>794.6666666666666</ele><time>2026-04-26T09:26:58.313Z</time></trkpt><trkpt lat="37.6980551" lon="14.1154263"><ele>794.0</ele><time>2026-04-26T09:26:59.313Z</time></trkpt><trkpt lat="37.6980867" lon="14.115531"><ele>793.3333333333333</ele><time>2026-04-26T09:27:00.313Z</time></trkpt><trkpt lat="37.6981139" lon="14.1156396"><ele>792.6666666666666</ele><time>2026-04-26T09:27:01.313Z</time></trkpt><trkpt lat="37.6981463" lon="14.1157418"><ele>792.0</ele><time>2026-04-26T09:27:02.313Z</time></trkpt><trkpt lat="37.698191" lon="14.115832"><ele>792.0</ele><time>2026-04-26T09:27:03.313Z</time></trkpt><trkpt lat="37.6982452" lon="14.1159154"><ele>792.0</ele><time>2026-04-26T09:27:04.313Z</time></trkpt><trkpt lat="37.6983186" lon="14.1159878"><ele>792.0</ele><time>2026-04-26T09:27:05.313Z</time></trkpt><trkpt lat="37.6984135" lon="14.1160576"><ele>792.0</ele><time>2026-04-26T09:27:06.313Z</time></trkpt><trkpt lat="37.6985323" lon="14.1161181"><ele>792.0</ele><time>2026-04-26T09:27:07.313Z</time></trkpt><trkpt lat="37.6986813" lon="14.1161678"><ele>789.3333333333333</ele><time>2026-04-26T09:27:08.313Z</time></trkpt><trkpt lat="37.6988387" lon="14.1162122"><ele>786.6666666666666</ele><time>2026-04-26T09:27:09.313Z</time></trkpt><trkpt lat="37.6989833" lon="14.116265"><ele>784.0</ele><time>2026-04-26T09:27:10.312Z</time></trkpt><trkpt lat="37.6991178" lon="14.1163108"><ele>784.0</ele><time>2026-04-26T09:27:11.313Z</time></trkpt><trkpt lat="37.6992377" lon="14.1163511"><ele>784.0</ele><time>2026-04-26T09:27:12.313Z</time></trkpt><trkpt lat="37.6993573" lon="14.1164024"><ele>784.0</ele><time>2026-04-26T09:27:13.313Z</time></trkpt><trkpt lat="37.69949" lon="14.1164769"><ele>784.0</ele><time>2026-04-26T09:27:14.313Z</time></trkpt><trkpt lat="37.6996345" lon="14.1165937"><ele>783.6666666666666</ele><time>2026-04-26T09:27:15.313Z</time></trkpt><trkpt lat="37.6997888" lon="14.116723"><ele>783.3333333333333</ele><time>2026-04-26T09:27:16.313Z</time></trkpt><trkpt lat="37.699943" lon="14.1168524"><ele>783.0</ele><time>2026-04-26T09:27:17.312Z</time></trkpt><trkpt lat="37.7000919" lon="14.1169576"><ele>779.6666666666667</ele><time>2026-04-26T09:27:18.313Z</time></trkpt><trkpt lat="37.7002515" lon="14.1170317"><ele>776.3333333333334</ele><time>2026-04-26T09:27:19.313Z</time></trkpt><trkpt lat="37.7004352" lon="14.117086"><ele>773.0</ele><time>2026-04-26T09:27:20.313Z</time></trkpt><trkpt lat="37.7006428" lon="14.1171219"><ele>773.0</ele><time>2026-04-26T09:27:21.313Z</time></trkpt><trkpt lat="37.7008492" lon="14.117158"><ele>773.0</ele><time>2026-04-26T09:27:22.313Z</time></trkpt><trkpt lat="37.7010486" lon="14.1172"><ele>773.0</ele><time>2026-04-26T09:27:23.313Z</time></trkpt><trkpt lat="37.7012214" lon="14.1172413"><ele>772.0</ele><time>2026-04-26T09:27:24.313Z</time></trkpt><trkpt lat="37.7013847" lon="14.1172694"><ele>771.0</ele><time>2026-04-26T09:27:25.313Z</time></trkpt><trkpt lat="37.7015345" lon="14.1172622"><ele>770.0</ele><time>2026-04-26T09:27:26.313Z</time></trkpt><trkpt lat="37.7016905" lon="14.1172052"><ele>770.0</ele><time>2026-04-26T09:27:27.312Z</time></trkpt><trkpt lat="37.701857" lon="14.1171173"><ele>770.0</ele><time>2026-04-26T09:27:28.313Z</time></trkpt><trkpt lat="37.7020176" lon="14.1170012"><ele>770.0</ele><time>2026-04-26T09:27:29.313Z</time></trkpt><trkpt lat="37.7021681" lon="14.1169001"><ele>769.75</ele><time>2026-04-26T09:27:30.313Z</time></trkpt><trkpt lat="37.7023084" lon="14.1168163"><ele>769.5</ele><time>2026-04-26T09:27:31.313Z</time></trkpt><trkpt lat="37.7024399" lon="14.116788"><ele>769.25</ele><time>2026-04-26T09:27:32.312Z</time></trkpt><trkpt lat="37.7025682" lon="14.1167984"><ele>769.0</ele><time>2026-04-26T09:27:33.313Z</time></trkpt><trkpt lat="37.7027064" lon="14.116842"><ele>767.75</ele><time>2026-04-26T09:27:34.313Z</time></trkpt><trkpt lat="37.7028402" lon="14.1168941"><ele>766.5</ele><time>2026-04-26T09:27:35.313Z</time></trkpt><trkpt lat="37.7029726" lon="14.1169245"><ele>765.25</ele><time>2026-04-26T09:27:36.313Z</time></trkpt><trkpt lat="37.7031117" lon="14.1169079"><ele>764.0</ele><time>2026-04-26T09:27:37.313Z</time></trkpt><trkpt lat="37.7032475" lon="14.1168737"><ele>764.0</ele><time>2026-04-26T09:27:38.313Z</time></trkpt><trkpt lat="37.7033862" lon="14.1168519"><ele>764.0</ele><time>2026-04-26T09:27:39.313Z</time></trkpt><trkpt lat="37.7035144" lon="14.1168737"><ele>764.0</ele><time>2026-04-26T09:27:40.313Z</time></trkpt><trkpt lat="37.7036364" lon="14.1169312"><ele>764.0</ele><time>2026-04-26T09:27:41.313Z</time></trkpt><trkpt lat="37.703759" lon="14.1170301"><ele>761.6666666666666</ele><time>2026-04-26T09:27:42.313Z</time></trkpt><trkpt lat="37.7038767" lon="14.11716"><ele>759.3333333333334</ele><time>2026-04-26T09:27:43.313Z</time></trkpt><trkpt lat="37.7039798" lon="14.1172949"><ele>757.0</ele><time>2026-04-26T09:27:44.313Z</time></trkpt><trkpt lat="37.7040707" lon="14.1174575"><ele>757.0</ele><time>2026-04-26T09:27:45.313Z</time></trkpt><trkpt lat="37.7041343" lon="14.117639"><ele>757.0</ele><time>2026-04-26T09:27:46.313Z</time></trkpt><trkpt lat="37.7041761" lon="14.1178045"><ele>757.0</ele><time>2026-04-26T09:27:47.313Z</time></trkpt><trkpt lat="37.7042115" lon="14.1179488"><ele>757.0</ele><time>2026-04-26T09:27:48.313Z</time></trkpt><trkpt lat="37.7042726" lon="14.1180576"><ele>757.0</ele><time>2026-04-26T09:27:49.313Z</time></trkpt><trkpt lat="37.7043745" lon="14.1181361"><ele>757.0</ele><time>2026-04-26T09:27:50.313Z</time></trkpt><trkpt lat="37.7045035" lon="14.1181651"><ele>757.0</ele><time>2026-04-26T09:27:51.313Z</time></trkpt><trkpt lat="37.7046464" lon="14.1181649"><ele>757.0</ele><time>2026-04-26T09:27:52.313Z</time></trkpt><trkpt lat="37.704782" lon="14.118194"><ele>756.5</ele><time>2026-04-26T09:27:53.313Z</time></trkpt><trkpt lat="37.7049141" lon="14.1182683"><ele>756.0</ele><time>2026-04-26T09:27:54.313Z</time></trkpt><trkpt lat="37.7050392" lon="14.1183637"><ele>755.5</ele><time>2026-04-26T09:27:55.312Z</time></trkpt><trkpt lat="37.705165" lon="14.1184274"><ele>755.0</ele><time>2026-04-26T09:27:56.313Z</time></trkpt><trkpt lat="37.7052902" lon="14.1184446"><ele>756.5</ele><time>2026-04-26T09:27:57.313Z</time></trkpt><trkpt lat="37.7054057" lon="14.1183836"><ele>758.0</ele><time>2026-04-26T09:27:58.313Z</time></trkpt><trkpt lat="37.7054945" lon="14.1182811"><ele>759.5</ele><time>2026-04-26T09:27:59.313Z</time></trkpt><trkpt lat="37.7055588" lon="14.1181266"><ele>761.0</ele><time>2026-04-26T09:28:00.313Z</time></trkpt><trkpt lat="37.705621" lon="14.1179688"><ele>757.0</ele><time>2026-04-26T09:28:01.313Z</time></trkpt><trkpt lat="37.7056996" lon="14.1178098"><ele>753.0</ele><time>2026-04-26T09:28:02.313Z</time></trkpt><trkpt lat="37.7057965" lon="14.1176524"><ele>749.0</ele><time>2026-04-26T09:28:03.313Z</time></trkpt><trkpt lat="37.7059114" lon="14.1174927"><ele>749.6666666666666</ele><time>2026-04-26T09:28:04.313Z</time></trkpt><trkpt lat="37.7060207" lon="14.1172994"><ele>750.3333333333334</ele><time>2026-04-26T09:28:05.313Z</time></trkpt><trkpt lat="37.706122" lon="14.1170776"><ele>751.0</ele><time>2026-04-26T09:28:06.313Z</time></trkpt><trkpt lat="37.7062131" lon="14.1168648"><ele>751.0</ele><time>2026-04-26T09:28:07.312Z</time></trkpt><trkpt lat="37.7062963" lon="14.1166608"><ele>751.0</ele><time>2026-04-26T09:28:08.313Z</time></trkpt><trkpt lat="37.7063776" lon="14.1164756"><ele>751.0</ele><time>2026-04-26T09:28:09.313Z</time></trkpt><trkpt lat="37.7064686" lon="14.1163081"><ele>747.0</ele><time>2026-04-26T09:28:10.313Z</time></trkpt><trkpt lat="37.7065656" lon="14.1161619"><ele>743.0</ele><time>2026-04-26T09:28:11.313Z</time></trkpt><trkpt lat="37.7066678" lon="14.1160419"><ele>739.0</ele><time>2026-04-26T09:28:12.313Z</time></trkpt><trkpt lat="37.7067837" lon="14.1159623"><ele>735.0</ele><time>2026-04-26T09:28:13.313Z</time></trkpt><trkpt lat="37.7069057" lon="14.115938"><ele>732.5</ele><time>2026-04-26T09:28:14.313Z</time></trkpt><trkpt lat="37.707022" lon="14.1159591"><ele>730.0</ele><time>2026-04-26T09:28:15.313Z</time></trkpt><trkpt lat="37.7071421" lon="14.1160377"><ele>727.5</ele><time>2026-04-26T09:28:16.313Z</time></trkpt><trkpt lat="37.7072454" lon="14.1161453"><ele>725.0</ele><time>2026-04-26T09:28:17.313Z</time></trkpt><trkpt lat="37.7073159" lon="14.1162863"><ele>725.0</ele><time>2026-04-26T09:28:18.313Z</time></trkpt><trkpt lat="37.7073453" lon="14.116434"><ele>725.0</ele><time>2026-04-26T09:28:19.313Z</time></trkpt><trkpt lat="37.707344" lon="14.1165795"><ele>725.0</ele><time>2026-04-26T09:28:20.313Z</time></trkpt><trkpt lat="37.7073205" lon="14.1167423"><ele>725.0</ele><time>2026-04-26T09:28:21.313Z</time></trkpt><trkpt lat="37.7072897" lon="14.1168948"><ele>727.25</ele><time>2026-04-26T09:28:22.313Z</time></trkpt><trkpt lat="37.7072806" lon="14.1170514"><ele>729.5</ele><time>2026-04-26T09:28:23.313Z</time></trkpt><trkpt lat="37.7073039" lon="14.1172002"><ele>731.75</ele><time>2026-04-26T09:28:24.313Z</time></trkpt><trkpt lat="37.7073658" lon="14.1173325"><ele>734.0</ele><time>2026-04-26T09:28:25.313Z</time></trkpt><trkpt lat="37.7074551" lon="14.1174549"><ele>734.25</ele><time>2026-04-26T09:28:26.313Z</time></trkpt><trkpt lat="37.7075288" lon="14.1176006"><ele>734.5</ele><time>2026-04-26T09:28:27.313Z</time></trkpt><trkpt lat="37.707564" lon="14.1177722"><ele>734.75</ele><time>2026-04-26T09:28:28.313Z</time></trkpt><trkpt lat="37.7075669" lon="14.1179535"><ele>735.0</ele><time>2026-04-26T09:28:29.313Z</time></trkpt><trkpt lat="37.707545" lon="14.1181319"><ele>735.5</ele><time>2026-04-26T09:28:30.313Z</time></trkpt><trkpt lat="37.707523" lon="14.1183035"><ele>736.0</ele><time>2026-04-26T09:28:31.313Z</time></trkpt><trkpt lat="37.7075225" lon="14.1184602"><ele>736.5</ele><time>2026-04-26T09:28:32.313Z</time></trkpt><trkpt lat="37.7075617" lon="14.1186014"><ele>737.0</ele><time>2026-04-26T09:28:33.313Z</time></trkpt><trkpt lat="37.7076457" lon="14.1187038"><ele>736.0</ele><time>2026-04-26T09:28:34.313Z</time></trkpt><trkpt lat="37.7077569" lon="14.1187553"><ele>735.0</ele><time>2026-04-26T09:28:35.313Z</time></trkpt><trkpt lat="37.7078729" lon="14.1187479"><ele>734.0</ele><time>2026-04-26T09:28:36.313Z</time></trkpt><trkpt lat="37.707984" lon="14.1186904"><ele>733.0</ele><time>2026-04-26T09:28:37.313Z</time></trkpt><trkpt lat="37.7080679" lon="14.1185838"><ele>733.0</ele><time>2026-04-26T09:28:38.313Z</time></trkpt><trkpt lat="37.7081255" lon="14.1184265"><ele>733.0</ele><time>2026-04-26T09:28:39.313Z</time></trkpt><trkpt lat="37.7081779" lon="14.1182506"><ele>733.0</ele><time>2026-04-26T09:28:40.313Z</time></trkpt><trkpt lat="37.7082382" lon="14.1180382"><ele>731.3333333333334</ele><time>2026-04-26T09:28:41.313Z</time></trkpt><trkpt lat="37.7082961" lon="14.1178174"><ele>729.6666666666666</ele><time>2026-04-26T09:28:42.313Z</time></trkpt><trkpt lat="37.7083599" lon="14.1175951"><ele>728.0</ele><time>2026-04-26T09:28:43.312Z</time></trkpt><trkpt lat="37.7084398" lon="14.1173663"><ele>730.3333333333333</ele><time>2026-04-26T09:28:44.313Z</time></trkpt><trkpt lat="37.7085277" lon="14.1171348"><ele>732.6666666666666</ele><time>2026-04-26T09:28:45.313Z</time></trkpt><trkpt lat="37.7086223" lon="14.1169124"><ele>735.0</ele><time>2026-04-26T09:28:46.313Z</time></trkpt><trkpt lat="37.7087033" lon="14.1166873"><ele>734.0</ele><time>2026-04-26T09:28:47.313Z</time></trkpt><trkpt lat="37.708757" lon="14.1164218"><ele>733.0</ele><time>2026-04-26T09:28:48.313Z</time></trkpt><trkpt lat="37.7087794" lon="14.1161521"><ele>732.0</ele><time>2026-04-26T09:28:49.313Z</time></trkpt><trkpt lat="37.708786" lon="14.1159003"><ele>731.0</ele><time>2026-04-26T09:28:50.313Z</time></trkpt><trkpt lat="37.7087655" lon="14.1156936"><ele>730.0</ele><time>2026-04-26T09:28:51.313Z</time></trkpt><trkpt lat="37.7087136" lon="14.1155128"><ele>729.0</ele><time>2026-04-26T09:28:52.313Z</time></trkpt><trkpt lat="37.7086216" lon="14.1153575"><ele>725.0</ele><time>2026-04-26T09:28:53.312Z</time></trkpt><trkpt lat="37.7085101" lon="14.1152097"><ele>721.0</ele><time>2026-04-26T09:28:54.313Z</time></trkpt><trkpt lat="37.7084117" lon="14.115071"><ele>717.0</ele><time>2026-04-26T09:28:55.313Z</time></trkpt><trkpt lat="37.7083492" lon="14.1149059"><ele>714.6666666666666</ele><time>2026-04-26T09:28:56.313Z</time></trkpt><trkpt lat="37.708318" lon="14.1147133"><ele>712.3333333333333</ele><time>2026-04-26T09:28:57.313Z</time></trkpt><trkpt lat="37.7083257" lon="14.1145166"><ele>710.0</ele><time>2026-04-26T09:28:58.313Z</time></trkpt><trkpt lat="37.7083658" lon="14.1143285"><ele>710.0</ele><time>2026-04-26T09:28:59.313Z</time></trkpt><trkpt lat="37.7084404" lon="14.1141631"><ele>710.0</ele><time>2026-04-26T09:29:00.313Z</time></trkpt><trkpt lat="37.708532" lon="14.1140108"><ele>710.0</ele><time>2026-04-26T09:29:01.313Z</time></trkpt><trkpt lat="37.7086314" lon="14.1138828"><ele>710.0</ele><time>2026-04-26T09:29:02.313Z</time></trkpt><trkpt lat="37.7087035" lon="14.1137434"><ele>711.0</ele><time>2026-04-26T09:29:03.313Z</time></trkpt><trkpt lat="37.7087364" lon="14.1135776"><ele>712.0</ele><time>2026-04-26T09:29:04.313Z</time></trkpt><trkpt lat="37.7087473" lon="14.1133774"><ele>713.0</ele><time>2026-04-26T09:29:05.313Z</time></trkpt><trkpt lat="37.7087587" lon="14.113167"><ele>713.0</ele><time>2026-04-26T09:29:06.313Z</time></trkpt><trkpt lat="37.7087973" lon="14.1129484"><ele>713.0</ele><time>2026-04-26T09:29:07.313Z</time></trkpt><trkpt lat="37.7088493" lon="14.11275"><ele>713.0</ele><time>2026-04-26T09:29:08.313Z</time></trkpt><trkpt lat="37.7089175" lon="14.1125701"><ele>713.0</ele><time>2026-04-26T09:29:09.313Z</time></trkpt><trkpt lat="37.7090127" lon="14.1124237"><ele>713.0</ele><time>2026-04-26T09:29:10.313Z</time></trkpt><trkpt lat="37.7091309" lon="14.1123126"><ele>713.0</ele><time>2026-04-26T09:29:11.313Z</time></trkpt><trkpt lat="37.709242" lon="14.1122083"><ele>713.0</ele><time>2026-04-26T09:29:12.313Z</time></trkpt><trkpt lat="37.7093236" lon="14.1120693"><ele>710.6666666666666</ele><time>2026-04-26T09:29:13.313Z</time></trkpt><trkpt lat="37.7093816" lon="14.111899"><ele>708.3333333333334</ele><time>2026-04-26T09:29:14.313Z</time></trkpt><trkpt lat="37.7094098" lon="14.111707"><ele>706.0</ele><time>2026-04-26T09:29:15.313Z</time></trkpt><trkpt lat="37.7094153" lon="14.1115042"><ele>704.75</ele><time>2026-04-26T09:29:16.313Z</time></trkpt><trkpt lat="37.7093988" lon="14.1113135"><ele>703.5</ele><time>2026-04-26T09:29:17.313Z</time></trkpt><trkpt lat="37.7093814" lon="14.1111341"><ele>702.25</ele><time>2026-04-26T09:29:18.313Z</time></trkpt><trkpt lat="37.7093685" lon="14.1109627"><ele>701.0</ele><time>2026-04-26T09:29:19.313Z</time></trkpt><trkpt lat="37.709366" lon="14.1108045"><ele>698.25</ele><time>2026-04-26T09:29:20.312Z</time></trkpt><trkpt lat="37.7093786" lon="14.1106384"><ele>695.5</ele><time>2026-04-26T09:29:21.312Z</time></trkpt><trkpt lat="37.7094127" lon="14.1104792"><ele>692.75</ele><time>2026-04-26T09:29:22.312Z</time></trkpt><trkpt lat="37.7094711" lon="14.1102988"><ele>690.0</ele><time>2026-04-26T09:29:23.311Z</time></trkpt><trkpt lat="37.709564" lon="14.1101279"><ele>694.6666666666666</ele><time>2026-04-26T09:29:24.312Z</time></trkpt><trkpt lat="37.7096748" lon="14.1099393"><ele>699.3333333333333</ele><time>2026-04-26T09:29:25.312Z</time></trkpt><trkpt lat="37.709787" lon="14.109738"><ele>704.0</ele><time>2026-04-26T09:29:26.312Z</time></trkpt><trkpt lat="37.7098955" lon="14.1095341"><ele>704.0</ele><time>2026-04-26T09:29:27.312Z</time></trkpt><trkpt lat="37.7099986" lon="14.1093304"><ele>704.0</ele><time>2026-04-26T09:29:28.312Z</time></trkpt><trkpt lat="37.7100979" lon="14.1091347"><ele>704.0</ele><time>2026-04-26T09:29:29.312Z</time></trkpt><trkpt lat="37.7101887" lon="14.1089659"><ele>702.25</ele><time>2026-04-26T09:29:30.311Z</time></trkpt><trkpt lat="37.7102542" lon="14.1088135"><ele>700.5</ele><time>2026-04-26T09:29:31.312Z</time></trkpt><trkpt lat="37.710276" lon="14.1086509"><ele>698.75</ele><time>2026-04-26T09:29:32.312Z</time></trkpt><trkpt lat="37.710259" lon="14.1084793"><ele>697.0</ele><time>2026-04-26T09:29:33.312Z</time></trkpt><trkpt lat="37.7102191" lon="14.1082869"><ele>696.3333333333334</ele><time>2026-04-26T09:29:34.312Z</time></trkpt><trkpt lat="37.7101761" lon="14.1080784"><ele>695.6666666666666</ele><time>2026-04-26T09:29:35.312Z</time></trkpt><trkpt lat="37.7101482" lon="14.1078648"><ele>695.0</ele><time>2026-04-26T09:29:36.312Z</time></trkpt><trkpt lat="37.7101653" lon="14.1076589"><ele>695.0</ele><time>2026-04-26T09:29:37.312Z</time></trkpt><trkpt lat="37.7102088" lon="14.1074507"><ele>695.0</ele><time>2026-04-26T09:29:38.312Z</time></trkpt><trkpt lat="37.7102745" lon="14.1072335"><ele>695.0</ele><time>2026-04-26T09:29:39.312Z</time></trkpt><trkpt lat="37.7103389" lon="14.107"><ele>699.3333333333333</ele><time>2026-04-26T09:29:40.311Z</time></trkpt><trkpt lat="37.7103969" lon="14.1067487"><ele>703.6666666666666</ele><time>2026-04-26T09:29:41.312Z</time></trkpt><trkpt lat="37.7104691" lon="14.1064826"><ele>708.0</ele><time>2026-04-26T09:29:42.312Z</time></trkpt><trkpt lat="37.7105783" lon="14.1062251"><ele>708.0</ele><time>2026-04-26T09:29:43.312Z</time></trkpt><trkpt lat="37.7107067" lon="14.1059845"><ele>708.0</ele><time>2026-04-26T09:29:44.312Z</time></trkpt><trkpt lat="37.7108308" lon="14.1057495"><ele>705.0</ele><time>2026-04-26T09:29:45.312Z</time></trkpt><trkpt lat="37.7109249" lon="14.1055065"><ele>702.0</ele><time>2026-04-26T09:29:46.312Z</time></trkpt><trkpt lat="37.7109956" lon="14.1052659"><ele>699.0</ele><time>2026-04-26T09:29:47.311Z</time></trkpt><trkpt lat="37.7110646" lon="14.1050553"><ele>702.0</ele><time>2026-04-26T09:29:48.312Z</time></trkpt><trkpt lat="37.7111617" lon="14.1048731"><ele>705.0</ele><time>2026-04-26T09:29:49.312Z</time></trkpt><trkpt lat="37.7112898" lon="14.1047119"><ele>708.0</ele><time>2026-04-26T09:29:50.312Z</time></trkpt><trkpt lat="37.7114369" lon="14.1045554"><ele>708.0</ele><time>2026-04-26T09:29:51.312Z</time></trkpt><trkpt lat="37.7115948" lon="14.1043911"><ele>708.0</ele><time>2026-04-26T09:29:52.312Z</time></trkpt><trkpt lat="37.7117529" lon="14.1042072"><ele>708.0</ele><time>2026-04-26T09:29:53.312Z</time></trkpt><trkpt lat="37.7119077" lon="14.1039934"><ele>710.5</ele><time>2026-04-26T09:29:54.312Z</time></trkpt><trkpt lat="37.7120524" lon="14.1037568"><ele>713.0</ele><time>2026-04-26T09:29:55.312Z</time></trkpt><trkpt lat="37.7121864" lon="14.1035256"><ele>713.0</ele><time>2026-04-26T09:29:56.312Z</time></trkpt><trkpt lat="37.7122975" lon="14.103319"><ele>713.0</ele><time>2026-04-26T09:29:57.312Z</time></trkpt><trkpt lat="37.7124105" lon="14.1031593"><ele>713.0</ele><time>2026-04-26T09:29:58.312Z</time></trkpt><trkpt lat="37.7125301" lon="14.1030312"><ele>710.25</ele><time>2026-04-26T09:29:59.312Z</time></trkpt><trkpt lat="37.712656" lon="14.1029509"><ele>707.5</ele><time>2026-04-26T09:30:00.312Z</time></trkpt><trkpt lat="37.7127733" lon="14.1029185"><ele>704.75</ele><time>2026-04-26T09:30:01.312Z</time></trkpt><trkpt lat="37.7128955" lon="14.1029418"><ele>702.0</ele><time>2026-04-26T09:30:02.312Z</time></trkpt><trkpt lat="37.7130042" lon="14.103022"><ele>701.0</ele><time>2026-04-26T09:30:03.312Z</time></trkpt><trkpt lat="37.7130788" lon="14.1031551"><ele>700.0</ele><time>2026-04-26T09:30:04.312Z</time></trkpt><trkpt lat="37.7131299" lon="14.1033426"><ele>699.0</ele><time>2026-04-26T09:30:05.312Z</time></trkpt><trkpt lat="37.7131699" lon="14.1035729"><ele>702.0</ele><time>2026-04-26T09:30:06.312Z</time></trkpt><trkpt lat="37.7132216" lon="14.1038515"><ele>705.0</ele><time>2026-04-26T09:30:07.312Z</time></trkpt><trkpt lat="37.713275" lon="14.104162"><ele>705.5</ele><time>2026-04-26T09:30:08.312Z</time></trkpt><trkpt lat="37.7133313" lon="14.1044946"><ele>706.0</ele><time>2026-04-26T09:30:09.312Z</time></trkpt><trkpt lat="37.7133971" lon="14.1048538"><ele>704.5</ele><time>2026-04-26T09:30:10.312Z</time></trkpt><trkpt lat="37.7134676" lon="14.105229"><ele>703.0</ele><time>2026-04-26T09:30:11.312Z</time></trkpt><trkpt lat="37.7135433" lon="14.1056209"><ele>696.0</ele><time>2026-04-26T09:30:12.312Z</time></trkpt><trkpt lat="37.7136283" lon="14.1060121"><ele>689.0</ele><time>2026-04-26T09:30:13.312Z</time></trkpt><trkpt lat="37.7137245" lon="14.1063828"><ele>688.0</ele><time>2026-04-26T09:30:14.311Z</time></trkpt><trkpt lat="37.7138216" lon="14.1067223"><ele>687.0</ele><time>2026-04-26T09:30:15.312Z</time></trkpt><trkpt lat="37.713902" lon="14.1070013"><ele>687.0</ele><time>2026-04-26T09:30:16.312Z</time></trkpt><trkpt lat="37.7139747" lon="14.1072633"><ele>687.0</ele><time>2026-04-26T09:30:17.311Z</time></trkpt><trkpt lat="37.7140257" lon="14.1075263"><ele>687.0</ele><time>2026-04-26T09:30:18.312Z</time></trkpt><trkpt lat="37.7140455" lon="14.1077984"><ele>686.6666666666666</ele><time>2026-04-26T09:30:19.312Z</time></trkpt><trkpt lat="37.7140439" lon="14.1080814"><ele>686.3333333333333</ele><time>2026-04-26T09:30:20.312Z</time></trkpt><trkpt lat="37.7140315" lon="14.1083592"><ele>686.0</ele><time>2026-04-26T09:30:21.312Z</time></trkpt><trkpt lat="37.7140252" lon="14.1086132"><ele>686.0</ele><time>2026-04-26T09:30:22.311Z</time></trkpt><trkpt lat="37.7140339" lon="14.1088559"><ele>686.0</ele><time>2026-04-26T09:30:23.312Z</time></trkpt><trkpt lat="37.7140749" lon="14.1090793"><ele>686.0</ele><time>2026-04-26T09:30:24.312Z</time></trkpt><trkpt lat="37.7141367" lon="14.1092993"><ele>685.6666666666666</ele><time>2026-04-26T09:30:25.312Z</time></trkpt><trkpt lat="37.7142177" lon="14.1094862"><ele>685.3333333333334</ele><time>2026-04-26T09:30:26.312Z</time></trkpt><trkpt lat="37.7143247" lon="14.1096426"><ele>685.0</ele><time>2026-04-26T09:30:27.312Z</time></trkpt><trkpt lat="37.7144488" lon="14.1097633"><ele>682.75</ele><time>2026-04-26T09:30:28.312Z</time></trkpt><trkpt lat="37.7145639" lon="14.1098382"><ele>680.5</ele><time>2026-04-26T09:30:29.311Z</time></trkpt><trkpt lat="37.7146869" lon="14.1098536"><ele>678.25</ele><time>2026-04-26T09:30:30.311Z</time></trkpt><trkpt lat="37.7148054" lon="14.1097951"><ele>676.0</ele><time>2026-04-26T09:30:31.311Z</time></trkpt><trkpt lat="37.7149245" lon="14.1096715"><ele>676.0</ele><time>2026-04-26T09:30:32.312Z</time></trkpt><trkpt lat="37.7150611" lon="14.1095339"><ele>676.0</ele><time>2026-04-26T09:30:33.312Z</time></trkpt><trkpt lat="37.7151994" lon="14.109404"><ele>676.0</ele><time>2026-04-26T09:30:34.312Z</time></trkpt><trkpt lat="37.7153668" lon="14.1093048"><ele>674.3333333333334</ele><time>2026-04-26T09:30:35.312Z</time></trkpt><trkpt lat="37.7155545" lon="14.1092251"><ele>672.6666666666666</ele><time>2026-04-26T09:30:36.311Z</time></trkpt><trkpt lat="37.7157681" lon="14.1091487"><ele>671.0</ele><time>2026-04-26T09:30:37.312Z</time></trkpt><trkpt lat="37.7160057" lon="14.1090937"><ele>666.0</ele><time>2026-04-26T09:30:38.312Z</time></trkpt><trkpt lat="37.7162575" lon="14.1090562"><ele>661.0</ele><time>2026-04-26T09:30:39.312Z</time></trkpt><trkpt lat="37.7165303" lon="14.1090284"><ele>661.0</ele><time>2026-04-26T09:30:40.312Z</time></trkpt><trkpt lat="37.7168096" lon="14.1090046"><ele>661.0</ele><time>2026-04-26T09:30:41.312Z</time></trkpt><trkpt lat="37.7171085" lon="14.1089792"><ele>660.5</ele><time>2026-04-26T09:30:42.312Z</time></trkpt><trkpt lat="37.7174176" lon="14.1089555"><ele>660.0</ele><time>2026-04-26T09:30:43.312Z</time></trkpt><trkpt lat="37.7177318" lon="14.1089299"><ele>662.0</ele><time>2026-04-26T09:30:44.311Z</time></trkpt><trkpt lat="37.7180455" lon="14.108901"><ele>664.0</ele><time>2026-04-26T09:30:45.312Z</time></trkpt><trkpt lat="37.7183439" lon="14.1088742"><ele>662.5</ele><time>2026-04-26T09:30:46.312Z</time></trkpt><trkpt lat="37.7186284" lon="14.1088445"><ele>661.0</ele><time>2026-04-26T09:30:47.312Z</time></trkpt><trkpt lat="37.7189059" lon="14.108819"><ele>661.0</ele><time>2026-04-26T09:30:48.312Z</time></trkpt><trkpt lat="37.7191707" lon="14.1087979"><ele>661.0</ele><time>2026-04-26T09:30:49.312Z</time></trkpt><trkpt lat="37.7194237" lon="14.1087798"><ele>662.0</ele><time>2026-04-26T09:30:50.312Z</time></trkpt><trkpt lat="37.7196627" lon="14.1087634"><ele>663.0</ele><time>2026-04-26T09:30:51.312Z</time></trkpt><trkpt lat="37.719876" lon="14.1087428"><ele>663.0</ele><time>2026-04-26T09:30:52.312Z</time></trkpt><trkpt lat="37.7200602" lon="14.1087197"><ele>663.0</ele><time>2026-04-26T09:30:53.312Z</time></trkpt><trkpt lat="37.7202253" lon="14.1086638"><ele>663.0</ele><time>2026-04-26T09:30:54.312Z</time></trkpt><trkpt lat="37.7203706" lon="14.108555"><ele>664.6666666666666</ele><time>2026-04-26T09:30:55.312Z</time></trkpt><trkpt lat="37.7204919" lon="14.108398"><ele>666.3333333333333</ele><time>2026-04-26T09:30:56.312Z</time></trkpt><trkpt lat="37.7206047" lon="14.1082113"><ele>668.0</ele><time>2026-04-26T09:30:57.312Z</time></trkpt><trkpt lat="37.7207343" lon="14.1080269"><ele>668.0</ele><time>2026-04-26T09:30:58.312Z</time></trkpt><trkpt lat="37.7208933" lon="14.1078689"><ele>668.0</ele><time>2026-04-26T09:30:59.312Z</time></trkpt><trkpt lat="37.7210505" lon="14.1077249"><ele>668.0</ele><time>2026-04-26T09:31:00.312Z</time></trkpt><trkpt lat="37.7211866" lon="14.1075969"><ele>672.3333333333333</ele><time>2026-04-26T09:31:01.312Z</time></trkpt><trkpt lat="37.7212858" lon="14.1074435"><ele>676.6666666666666</ele><time>2026-04-26T09:31:02.312Z</time></trkpt><trkpt lat="37.7213469" lon="14.1072522"><ele>681.0</ele><time>2026-04-26T09:31:03.312Z</time></trkpt><trkpt lat="37.7213797" lon="14.1070251"><ele>681.0</ele><time>2026-04-26T09:31:04.312Z</time></trkpt><trkpt lat="37.7214092" lon="14.1067754"><ele>681.0</ele><time>2026-04-26T09:31:05.312Z</time></trkpt><trkpt lat="37.7214465" lon="14.1065333"><ele>681.0</ele><time>2026-04-26T09:31:06.312Z</time></trkpt><trkpt lat="37.7215137" lon="14.1063064"><ele>679.6666666666666</ele><time>2026-04-26T09:31:07.312Z</time></trkpt><trkpt lat="37.7216156" lon="14.1060975"><ele>678.3333333333333</ele><time>2026-04-26T09:31:08.312Z</time></trkpt><trkpt lat="37.7217424" lon="14.1059275"><ele>677.0</ele><time>2026-04-26T09:31:09.312Z</time></trkpt><trkpt lat="37.7218918" lon="14.1057896"><ele>673.3333333333333</ele><time>2026-04-26T09:31:10.312Z</time></trkpt><trkpt lat="37.7220738" lon="14.1056908"><ele>669.6666666666666</ele><time>2026-04-26T09:31:11.312Z</time></trkpt><trkpt lat="37.7222736" lon="14.1056282"><ele>666.0</ele><time>2026-04-26T09:31:12.312Z</time></trkpt><trkpt lat="37.7224716" lon="14.1056028"><ele>666.0</ele><time>2026-04-26T09:31:13.312Z</time></trkpt><trkpt lat="37.7226506" lon="14.1056188"><ele>666.0</ele><time>2026-04-26T09:31:14.312Z</time></trkpt><trkpt lat="37.7227976" lon="14.10566"><ele>666.0</ele><time>2026-04-26T09:31:15.312Z</time></trkpt><trkpt lat="37.7229117" lon="14.1057403"><ele>669.5</ele><time>2026-04-26T09:31:16.312Z</time></trkpt><trkpt lat="37.7230241" lon="14.1058461"><ele>673.0</ele><time>2026-04-26T09:31:17.312Z</time></trkpt><trkpt lat="37.7231424" lon="14.1059397"><ele>676.5</ele><time>2026-04-26T09:31:18.312Z</time></trkpt><trkpt lat="37.7232779" lon="14.105993"><ele>680.0</ele><time>2026-04-26T09:31:19.311Z</time></trkpt><trkpt lat="37.7234208" lon="14.1059893"><ele>680.6666666666666</ele><time>2026-04-26T09:31:20.312Z</time></trkpt><trkpt lat="37.7235733" lon="14.1059287"><ele>681.3333333333334</ele><time>2026-04-26T09:31:21.312Z</time></trkpt><trkpt lat="37.723698" lon="14.105822"><ele>682.0</ele><time>2026-04-26T09:31:22.311Z</time></trkpt><trkpt lat="37.7237797" lon="14.1056719"><ele>682.0</ele><time>2026-04-26T09:31:23.312Z</time></trkpt><trkpt lat="37.723808" lon="14.1054812"><ele>682.0</ele><time>2026-04-26T09:31:24.312Z</time></trkpt><trkpt lat="37.7238016" lon="14.1052891"><ele>682.0</ele><time>2026-04-26T09:31:25.312Z</time></trkpt><trkpt lat="37.7237768" lon="14.1050971"><ele>681.0</ele><time>2026-04-26T09:31:26.311Z</time></trkpt><trkpt lat="37.7237497" lon="14.1049021"><ele>680.0</ele><time>2026-04-26T09:31:27.312Z</time></trkpt><trkpt lat="37.72376" lon="14.1047146"><ele>679.0</ele><time>2026-04-26T09:31:28.311Z</time></trkpt><trkpt lat="37.7238123" lon="14.1045267"><ele>679.0</ele><time>2026-04-26T09:31:29.312Z</time></trkpt><trkpt lat="37.7238887" lon="14.1043327"><ele>679.0</ele><time>2026-04-26T09:31:30.312Z</time></trkpt><trkpt lat="37.7239942" lon="14.104142"><ele>679.0</ele><time>2026-04-26T09:31:31.312Z</time></trkpt><trkpt lat="37.7241329" lon="14.1039581"><ele>680.6666666666667</ele><time>2026-04-26T09:31:32.312Z</time></trkpt><trkpt lat="37.7242922" lon="14.1037737"><ele>682.3333333333334</ele><time>2026-04-26T09:31:33.312Z</time></trkpt><trkpt lat="37.7244677" lon="14.1035796"><ele>684.0</ele><time>2026-04-26T09:31:34.312Z</time></trkpt><trkpt lat="37.7246433" lon="14.1033761"><ele>680.3333333333334</ele><time>2026-04-26T09:31:35.311Z</time></trkpt><trkpt lat="37.7248155" lon="14.1031854"><ele>676.6666666666667</ele><time>2026-04-26T09:31:36.311Z</time></trkpt><trkpt lat="37.7249839" lon="14.1030281"><ele>673.0</ele><time>2026-04-26T09:31:37.312Z</time></trkpt><trkpt lat="37.7251612" lon="14.1028975"><ele>675.0</ele><time>2026-04-26T09:31:38.312Z</time></trkpt><trkpt lat="37.7253652" lon="14.1028022"><ele>677.0</ele><time>2026-04-26T09:31:39.311Z</time></trkpt><trkpt lat="37.7255883" lon="14.1027432"><ele>679.0</ele><time>2026-04-26T09:31:40.312Z</time></trkpt><trkpt lat="37.7258151" lon="14.1026946"><ele>679.0</ele><time>2026-04-26T09:31:41.311Z</time></trkpt><trkpt lat="37.7260236" lon="14.1026534"><ele>679.0</ele><time>2026-04-26T09:31:42.311Z</time></trkpt><trkpt lat="37.7262081" lon="14.102643"><ele>679.0</ele><time>2026-04-26T09:31:43.312Z</time></trkpt><trkpt lat="37.7263814" lon="14.1026702"><ele>679.6666666666667</ele><time>2026-04-26T09:31:44.312Z</time></trkpt><trkpt lat="37.7265527" lon="14.1027577"><ele>680.3333333333334</ele><time>2026-04-26T09:31:45.312Z</time></trkpt><trkpt lat="37.7267327" lon="14.1028826"><ele>681.0</ele><time>2026-04-26T09:31:46.312Z</time></trkpt><trkpt lat="37.72691" lon="14.1030143"><ele>681.6666666666666</ele><time>2026-04-26T09:31:47.312Z</time></trkpt><trkpt lat="37.7270765" lon="14.1031363"><ele>682.3333333333333</ele><time>2026-04-26T09:31:48.312Z</time></trkpt><trkpt lat="37.7272461" lon="14.1032103"><ele>683.0</ele><time>2026-04-26T09:31:49.312Z</time></trkpt><trkpt lat="37.7274109" lon="14.1032294"><ele>683.0</ele><time>2026-04-26T09:31:50.312Z</time></trkpt><trkpt lat="37.7275836" lon="14.1032091"><ele>683.0</ele><time>2026-04-26T09:31:51.312Z</time></trkpt><trkpt lat="37.7277601" lon="14.1031786"><ele>683.0</ele><time>2026-04-26T09:31:52.312Z</time></trkpt><trkpt lat="37.727922" lon="14.103179"><ele>684.6666666666666</ele><time>2026-04-26T09:31:53.312Z</time></trkpt><trkpt lat="37.7280789" lon="14.1032191"><ele>686.3333333333334</ele><time>2026-04-26T09:31:54.312Z</time></trkpt><trkpt lat="37.728245" lon="14.1032901"><ele>688.0</ele><time>2026-04-26T09:31:55.312Z</time></trkpt><trkpt lat="37.7284128" lon="14.1033665"><ele>688.0</ele><time>2026-04-26T09:31:56.312Z</time></trkpt><trkpt lat="37.728592" lon="14.1034143"><ele>688.0</ele><time>2026-04-26T09:31:57.312Z</time></trkpt><trkpt lat="37.7287948" lon="14.1034079"><ele>688.0</ele><time>2026-04-26T09:31:58.312Z</time></trkpt><trkpt lat="37.7290191" lon="14.103343"><ele>688.0</ele><time>2026-04-26T09:31:59.312Z</time></trkpt><trkpt lat="37.7292638" lon="14.1032652"><ele>688.0</ele><time>2026-04-26T09:32:00.312Z</time></trkpt><trkpt lat="37.7295211" lon="14.1031817"><ele>691.5</ele><time>2026-04-26T09:32:01.311Z</time></trkpt><trkpt lat="37.7297808" lon="14.1031047"><ele>695.0</ele><time>2026-04-26T09:32:02.312Z</time></trkpt><trkpt lat="37.7300233" lon="14.1030368"><ele>695.5</ele><time>2026-04-26T09:32:03.312Z</time></trkpt><trkpt lat="37.7302592" lon="14.102965"><ele>696.0</ele><time>2026-04-26T09:32:04.312Z</time></trkpt><trkpt lat="37.7304979" lon="14.1028804"><ele>696.0</ele><time>2026-04-26T09:32:05.312Z</time></trkpt><trkpt lat="37.7307439" lon="14.1027719"><ele>696.0</ele><time>2026-04-26T09:32:06.312Z</time></trkpt><trkpt lat="37.7309869" lon="14.1026506"><ele>697.0</ele><time>2026-04-26T09:32:07.312Z</time></trkpt><trkpt lat="37.7312182" lon="14.1025251"><ele>698.0</ele><time>2026-04-26T09:32:08.311Z</time></trkpt><trkpt lat="37.7314404" lon="14.1023834"><ele>701.0</ele><time>2026-04-26T09:32:09.312Z</time></trkpt><trkpt lat="37.7316664" lon="14.1022194"><ele>704.0</ele><time>2026-04-26T09:32:10.312Z</time></trkpt><trkpt lat="37.7318795" lon="14.1020568"><ele>703.0</ele><time>2026-04-26T09:32:11.312Z</time></trkpt><trkpt lat="37.7320758" lon="14.1019115"><ele>702.0</ele><time>2026-04-26T09:32:12.312Z</time></trkpt><trkpt lat="37.7322419" lon="14.10179"><ele>701.0</ele><time>2026-04-26T09:32:13.312Z</time></trkpt><trkpt lat="37.7323924" lon="14.1016594"><ele>700.6666666666666</ele><time>2026-04-26T09:32:14.312Z</time></trkpt><trkpt lat="37.7325337" lon="14.1015012"><ele>700.3333333333334</ele><time>2026-04-26T09:32:15.312Z</time></trkpt><trkpt lat="37.7326662" lon="14.1012986"><ele>700.0</ele><time>2026-04-26T09:32:16.312Z</time></trkpt><trkpt lat="37.7327771" lon="14.1010489"><ele>700.0</ele><time>2026-04-26T09:32:17.311Z</time></trkpt><trkpt lat="37.7328798" lon="14.1007692"><ele>700.0</ele><time>2026-04-26T09:32:18.312Z</time></trkpt><trkpt lat="37.7329853" lon="14.100469"><ele>700.5</ele><time>2026-04-26T09:32:19.312Z</time></trkpt><trkpt lat="37.7330934" lon="14.1001599"><ele>701.0</ele><time>2026-04-26T09:32:20.311Z</time></trkpt><trkpt lat="37.7332026" lon="14.099849"><ele>703.5</ele><time>2026-04-26T09:32:21.312Z</time></trkpt><trkpt lat="37.7333086" lon="14.0995468"><ele>706.0</ele><time>2026-04-26T09:32:22.312Z</time></trkpt><trkpt lat="37.7334143" lon="14.0992425"><ele>707.0</ele><time>2026-04-26T09:32:23.312Z</time></trkpt><trkpt lat="37.7335191" lon="14.0989416"><ele>708.0</ele><time>2026-04-26T09:32:24.312Z</time></trkpt><trkpt lat="37.733625" lon="14.0986408"><ele>708.0</ele><time>2026-04-26T09:32:25.312Z</time></trkpt><trkpt lat="37.7337288" lon="14.0983472"><ele>708.0</ele><time>2026-04-26T09:32:26.312Z</time></trkpt><trkpt lat="37.7338308" lon="14.0980533"><ele>710.0</ele><time>2026-04-26T09:32:27.312Z</time></trkpt><trkpt lat="37.7339282" lon="14.0977686"><ele>712.0</ele><time>2026-04-26T09:32:28.312Z</time></trkpt><trkpt lat="37.7340255" lon="14.0974877"><ele>713.0</ele><time>2026-04-26T09:32:29.312Z</time></trkpt><trkpt lat="37.7341192" lon="14.0972154"><ele>714.0</ele><time>2026-04-26T09:32:30.312Z</time></trkpt><trkpt lat="37.7342141" lon="14.0969432"><ele>714.0</ele><time>2026-04-26T09:32:31.312Z</time></trkpt><trkpt lat="37.7343056" lon="14.0966793"><ele>714.0</ele><time>2026-04-26T09:32:32.312Z</time></trkpt><trkpt lat="37.7343955" lon="14.0964288"><ele>714.0</ele><time>2026-04-26T09:32:33.312Z</time></trkpt><trkpt lat="37.7344838" lon="14.0961892"><ele>715.6666666666666</ele><time>2026-04-26T09:32:34.312Z</time></trkpt><trkpt lat="37.734577" lon="14.0959493"><ele>717.3333333333333</ele><time>2026-04-26T09:32:35.312Z</time></trkpt><trkpt lat="37.7346986" lon="14.0957205"><ele>719.0</ele><time>2026-04-26T09:32:36.312Z</time></trkpt><trkpt lat="37.7348493" lon="14.0954959"><ele>725.0</ele><time>2026-04-26T09:32:37.312Z</time></trkpt><trkpt lat="37.7350099" lon="14.0952699"><ele>731.0</ele><time>2026-04-26T09:32:38.312Z</time></trkpt><trkpt lat="37.7351782" lon="14.0950427"><ele>730.5</ele><time>2026-04-26T09:32:39.312Z</time></trkpt><trkpt lat="37.7353503" lon="14.0948149"><ele>730.0</ele><time>2026-04-26T09:32:40.312Z</time></trkpt><trkpt lat="37.7355122" lon="14.0945911"><ele>730.0</ele><time>2026-04-26T09:32:41.312Z</time></trkpt><trkpt lat="37.7356564" lon="14.0943816"><ele>730.0</ele><time>2026-04-26T09:32:42.312Z</time></trkpt><trkpt lat="37.735767" lon="14.0941952"><ele>730.0</ele><time>2026-04-26T09:32:43.312Z</time></trkpt><trkpt lat="37.7358542" lon="14.0940245"><ele>732.0</ele><time>2026-04-26T09:32:44.312Z</time></trkpt><trkpt lat="37.7359335" lon="14.0938751"><ele>734.0</ele><time>2026-04-26T09:32:45.312Z</time></trkpt><trkpt lat="37.7360322" lon="14.0937761"><ele>736.0</ele><time>2026-04-26T09:32:46.312Z</time></trkpt><trkpt lat="37.7361584" lon="14.0937119"><ele>738.0</ele><time>2026-04-26T09:32:47.312Z</time></trkpt><trkpt lat="37.7362959" lon="14.0936829"><ele>738.0</ele><time>2026-04-26T09:32:48.312Z</time></trkpt><trkpt lat="37.7364235" lon="14.0936457"><ele>738.0</ele><time>2026-04-26T09:32:49.312Z</time></trkpt><trkpt lat="37.7365364" lon="14.0935584"><ele>738.0</ele><time>2026-04-26T09:32:50.312Z</time></trkpt><trkpt lat="37.736605" lon="14.0934137"><ele>738.0</ele><time>2026-04-26T09:32:51.312Z</time></trkpt><trkpt lat="37.7366744" lon="14.0932452"><ele>740.75</ele><time>2026-04-26T09:32:52.312Z</time></trkpt><trkpt lat="37.7367575" lon="14.0930955"><ele>743.5</ele><time>2026-04-26T09:32:53.312Z</time></trkpt><trkpt lat="37.7368641" lon="14.0929716"><ele>746.25</ele><time>2026-04-26T09:32:54.312Z</time></trkpt><trkpt lat="37.7370067" lon="14.0928906"><ele>749.0</ele><time>2026-04-26T09:32:55.312Z</time></trkpt><trkpt lat="37.7371586" lon="14.0928515"><ele>749.0</ele><time>2026-04-26T09:32:56.311Z</time></trkpt><trkpt lat="37.7373377" lon="14.0928652"><ele>749.0</ele><time>2026-04-26T09:32:57.312Z</time></trkpt><trkpt lat="37.737524" lon="14.0928913"><ele>749.0</ele><time>2026-04-26T09:32:58.312Z</time></trkpt><trkpt lat="37.7377266" lon="14.0929072"><ele>751.6666666666666</ele><time>2026-04-26T09:32:59.312Z</time></trkpt><trkpt lat="37.7379424" lon="14.0928953"><ele>754.3333333333334</ele><time>2026-04-26T09:33:00.312Z</time></trkpt><trkpt lat="37.7381717" lon="14.0928634"><ele>757.0</ele><time>2026-04-26T09:33:01.312Z</time></trkpt><trkpt lat="37.7384115" lon="14.0928202"><ele>757.5</ele><time>2026-04-26T09:33:02.312Z</time></trkpt><trkpt lat="37.7386649" lon="14.0927548"><ele>758.0</ele><time>2026-04-26T09:33:03.312Z</time></trkpt><trkpt lat="37.7389263" lon="14.0926806"><ele>758.0</ele><time>2026-04-26T09:33:04.312Z</time></trkpt><trkpt lat="37.7391743" lon="14.0926151"><ele>758.0</ele><time>2026-04-26T09:33:05.312Z</time></trkpt><trkpt lat="37.7393736" lon="14.0925624"><ele>759.6666666666666</ele><time>2026-04-26T09:33:06.312Z</time></trkpt><trkpt lat="37.739551" lon="14.0925013"><ele>761.3333333333334</ele><time>2026-04-26T09:33:07.312Z</time></trkpt><trkpt lat="37.7396865" lon="14.0924036"><ele>763.0</ele><time>2026-04-26T09:33:08.312Z</time></trkpt><trkpt lat="37.7397878" lon="14.0922736"><ele>764.0</ele><time>2026-04-26T09:33:09.312Z</time></trkpt><trkpt lat="37.7398681" lon="14.0921043"><ele>765.0</ele><time>2026-04-26T09:33:10.312Z</time></trkpt><trkpt lat="37.7399391" lon="14.0919284"><ele>766.0</ele><time>2026-04-26T09:33:11.312Z</time></trkpt><trkpt lat="37.740012" lon="14.0917628"><ele>766.0</ele><time>2026-04-26T09:33:12.312Z</time></trkpt><trkpt lat="37.7400993" lon="14.0916109"><ele>766.0</ele><time>2026-04-26T09:33:13.311Z</time></trkpt><trkpt lat="37.7401906" lon="14.0914663"><ele>766.0</ele><time>2026-04-26T09:33:14.312Z</time></trkpt><trkpt lat="37.7402926" lon="14.091346"><ele>766.0</ele><time>2026-04-26T09:33:15.312Z</time></trkpt><trkpt lat="37.7404133" lon="14.0912495"><ele>765.3333333333334</ele><time>2026-04-26T09:33:16.312Z</time></trkpt><trkpt lat="37.7405527" lon="14.0911769"><ele>764.6666666666666</ele><time>2026-04-26T09:33:17.312Z</time></trkpt><trkpt lat="37.7407136" lon="14.0911035"><ele>764.0</ele><time>2026-04-26T09:33:18.312Z</time></trkpt><trkpt lat="37.740897" lon="14.0910355"><ele>765.0</ele><time>2026-04-26T09:33:19.312Z</time></trkpt><trkpt lat="37.7410987" lon="14.0909728"><ele>766.0</ele><time>2026-04-26T09:33:20.312Z</time></trkpt><trkpt lat="37.741303" lon="14.0909104"><ele>767.0</ele><time>2026-04-26T09:33:21.312Z</time></trkpt><trkpt lat="37.7415109" lon="14.0908451"><ele>767.0</ele><time>2026-04-26T09:33:22.312Z</time></trkpt><trkpt lat="37.7417246" lon="14.0907853"><ele>767.0</ele><time>2026-04-26T09:33:23.312Z</time></trkpt><trkpt lat="37.7419388" lon="14.0907366"><ele>767.0</ele><time>2026-04-26T09:33:24.312Z</time></trkpt><trkpt lat="37.7421466" lon="14.0907025"><ele>765.0</ele><time>2026-04-26T09:33:25.312Z</time></trkpt><trkpt lat="37.7423444" lon="14.0906694"><ele>763.0</ele><time>2026-04-26T09:33:26.312Z</time></trkpt><trkpt lat="37.7425263" lon="14.0906427"><ele>761.0</ele><time>2026-04-26T09:33:27.312Z</time></trkpt><trkpt lat="37.7426987" lon="14.090611"><ele>761.5</ele><time>2026-04-26T09:33:28.312Z</time></trkpt><trkpt lat="37.7428605" lon="14.0905872"><ele>762.0</ele><time>2026-04-26T09:33:29.312Z</time></trkpt><trkpt lat="37.7430095" lon="14.0905581"><ele>762.5</ele><time>2026-04-26T09:33:30.312Z</time></trkpt><trkpt lat="37.743133" lon="14.0905549"><ele>763.0</ele><time>2026-04-26T09:33:31.312Z</time></trkpt><trkpt lat="37.7432537" lon="14.0905726"><ele>763.0</ele><time>2026-04-26T09:33:32.312Z</time></trkpt><trkpt lat="37.7433679" lon="14.090624"><ele>763.0</ele><time>2026-04-26T09:33:33.312Z</time></trkpt><trkpt lat="37.7434838" lon="14.090706"><ele>763.0</ele><time>2026-04-26T09:33:34.312Z</time></trkpt><trkpt lat="37.7436023" lon="14.090817"><ele>763.0</ele><time>2026-04-26T09:33:35.312Z</time></trkpt><trkpt lat="37.7437262" lon="14.0909344"><ele>763.0</ele><time>2026-04-26T09:33:36.312Z</time></trkpt><trkpt lat="37.7438559" lon="14.0910425"><ele>763.0</ele><time>2026-04-26T09:33:37.312Z</time></trkpt><trkpt lat="37.7439825" lon="14.0911395"><ele>763.0</ele><time>2026-04-26T09:33:38.312Z</time></trkpt><trkpt lat="37.7441037" lon="14.0912267"><ele>763.0</ele><time>2026-04-26T09:33:39.312Z</time></trkpt><trkpt lat="37.7442156" lon="14.0913084"><ele>763.0</ele><time>2026-04-26T09:33:40.312Z</time></trkpt><trkpt lat="37.7443245" lon="14.0913928"><ele>763.0</ele><time>2026-04-26T09:33:41.312Z</time></trkpt><trkpt lat="37.7444321" lon="14.0914721"><ele>763.0</ele><time>2026-04-26T09:33:42.312Z</time></trkpt><trkpt lat="37.7445309" lon="14.0915574"><ele>763.0</ele><time>2026-04-26T09:33:43.312Z</time></trkpt><trkpt lat="37.7446264" lon="14.0916473"><ele>762.25</ele><time>2026-04-26T09:33:44.312Z</time></trkpt><trkpt lat="37.7447167" lon="14.0917423"><ele>761.5</ele><time>2026-04-26T09:33:45.312Z</time></trkpt><trkpt lat="37.7448024" lon="14.0918443"><ele>760.75</ele><time>2026-04-26T09:33:46.312Z</time></trkpt><trkpt lat="37.7448985" lon="14.0919486"><ele>760.0</ele><time>2026-04-26T09:33:47.312Z</time></trkpt><trkpt lat="37.7449956" lon="14.0920525"><ele>760.0</ele><time>2026-04-26T09:33:48.312Z</time></trkpt><trkpt lat="37.7450976" lon="14.0921491"><ele>760.0</ele><time>2026-04-26T09:33:49.312Z</time></trkpt><trkpt lat="37.7451958" lon="14.0922299"><ele>760.0</ele><time>2026-04-26T09:33:50.312Z</time></trkpt><trkpt lat="37.7452944" lon="14.0922934"><ele>760.0</ele><time>2026-04-26T09:33:51.312Z</time></trkpt><trkpt lat="37.7454008" lon="14.092337"><ele>760.0</ele><time>2026-04-26T09:33:52.312Z</time></trkpt><trkpt lat="37.7455131" lon="14.0923571"><ele>760.0</ele><time>2026-04-26T09:33:53.312Z</time></trkpt><trkpt lat="37.7456375" lon="14.092331"><ele>760.0</ele><time>2026-04-26T09:33:54.312Z</time></trkpt><trkpt lat="37.7457491" lon="14.092245"><ele>760.0</ele><time>2026-04-26T09:33:55.312Z</time></trkpt><trkpt lat="37.7458517" lon="14.0921392"><ele>760.0</ele><time>2026-04-26T09:33:56.312Z</time></trkpt><trkpt lat="37.745967" lon="14.0920225"><ele>760.0</ele><time>2026-04-26T09:33:57.312Z</time></trkpt><trkpt lat="37.7460882" lon="14.0919075"><ele>760.0</ele><time>2026-04-26T09:33:58.312Z</time></trkpt><trkpt lat="37.7462206" lon="14.0917834"><ele>760.6666666666667</ele><time>2026-04-26T09:33:59.312Z</time></trkpt><trkpt lat="37.7463637" lon="14.0916525"><ele>761.3333333333334</ele><time>2026-04-26T09:34:00.312Z</time></trkpt><trkpt lat="37.7465095" lon="14.0915246"><ele>762.0</ele><time>2026-04-26T09:34:01.312Z</time></trkpt><trkpt lat="37.7466528" lon="14.0913852"><ele>762.0</ele><time>2026-04-26T09:34:02.312Z</time></trkpt><trkpt lat="37.7468009" lon="14.0912458"><ele>762.0</ele><time>2026-04-26T09:34:03.312Z</time></trkpt><trkpt lat="37.7469476" lon="14.0911032"><ele>762.0</ele><time>2026-04-26T09:34:04.312Z</time></trkpt><trkpt lat="37.7470963" lon="14.090968"><ele>764.6666666666667</ele><time>2026-04-26T09:34:05.312Z</time></trkpt><trkpt lat="37.7472436" lon="14.0908318"><ele>767.3333333333334</ele><time>2026-04-26T09:34:06.312Z</time></trkpt><trkpt lat="37.7473879" lon="14.0906981"><ele>770.0</ele><time>2026-04-26T09:34:07.311Z</time></trkpt><trkpt lat="37.7475371" lon="14.0905629"><ele>770.0</ele><time>2026-04-26T09:34:08.312Z</time></trkpt><trkpt lat="37.7476964" lon="14.0904426"><ele>770.0</ele><time>2026-04-26T09:34:09.312Z</time></trkpt><trkpt lat="37.7478606" lon="14.0903461"><ele>770.0</ele><time>2026-04-26T09:34:10.311Z</time></trkpt><trkpt lat="37.748028" lon="14.0902635"><ele>771.0</ele><time>2026-04-26T09:34:11.312Z</time></trkpt><trkpt lat="37.748185" lon="14.0901723"><ele>772.0</ele><time>2026-04-26T09:34:12.311Z</time></trkpt><trkpt lat="37.7483331" lon="14.0900612"><ele>773.0</ele><time>2026-04-26T09:34:13.312Z</time></trkpt><trkpt lat="37.748463" lon="14.0899113"><ele>778.6666666666667</ele><time>2026-04-26T09:34:14.312Z</time></trkpt><trkpt lat="37.7485653" lon="14.0897345"><ele>784.3333333333333</ele><time>2026-04-26T09:34:15.311Z</time></trkpt><trkpt lat="37.748647" lon="14.0895342"><ele>790.0</ele><time>2026-04-26T09:34:16.312Z</time></trkpt><trkpt lat="37.7487112" lon="14.0893423"><ele>790.0</ele><time>2026-04-26T09:34:17.311Z</time></trkpt><trkpt lat="37.7487872" lon="14.089187"><ele>790.0</ele><time>2026-04-26T09:34:18.312Z</time></trkpt><trkpt lat="37.7488995" lon="14.0890489"><ele>790.0</ele><time>2026-04-26T09:34:19.312Z</time></trkpt><trkpt lat="37.7490402" lon="14.088934"><ele>787.0</ele><time>2026-04-26T09:34:20.312Z</time></trkpt><trkpt lat="37.749182" lon="14.0888601"><ele>784.0</ele><time>2026-04-26T09:34:21.312Z</time></trkpt><trkpt lat="37.7493189" lon="14.0888336"><ele>781.0</ele><time>2026-04-26T09:34:22.312Z</time></trkpt><trkpt lat="37.749462" lon="14.0888675"><ele>778.0</ele><time>2026-04-26T09:34:23.312Z</time></trkpt><trkpt lat="37.7496063" lon="14.0889485"><ele>777.6666666666666</ele><time>2026-04-26T09:34:24.312Z</time></trkpt><trkpt lat="37.74976" lon="14.0890737"><ele>777.3333333333333</ele><time>2026-04-26T09:34:25.312Z</time></trkpt><trkpt lat="37.7499296" lon="14.0891996"><ele>777.0</ele><time>2026-04-26T09:34:26.311Z</time></trkpt><trkpt lat="37.7500885" lon="14.0893217"><ele>781.3333333333333</ele><time>2026-04-26T09:34:27.312Z</time></trkpt><trkpt lat="37.7502389" lon="14.0894276"><ele>785.6666666666666</ele><time>2026-04-26T09:34:28.312Z</time></trkpt><trkpt lat="37.7503846" lon="14.0894977"><ele>790.0</ele><time>2026-04-26T09:34:29.312Z</time></trkpt><trkpt lat="37.7505551" lon="14.0895246"><ele>790.0</ele><time>2026-04-26T09:34:30.312Z</time></trkpt><trkpt lat="37.7507498" lon="14.0895102"><ele>790.0</ele><time>2026-04-26T09:34:31.311Z</time></trkpt><trkpt lat="37.7509549" lon="14.0894808"><ele>790.0</ele><time>2026-04-26T09:34:32.312Z</time></trkpt><trkpt lat="37.7511789" lon="14.0894485"><ele>793.5</ele><time>2026-04-26T09:34:33.312Z</time></trkpt><trkpt lat="37.7514185" lon="14.0894186"><ele>797.0</ele><time>2026-04-26T09:34:34.312Z</time></trkpt><trkpt lat="37.7516661" lon="14.0893822"><ele>800.0</ele><time>2026-04-26T09:34:35.312Z</time></trkpt><trkpt lat="37.7519124" lon="14.0893469"><ele>803.0</ele><time>2026-04-26T09:34:36.312Z</time></trkpt><trkpt lat="37.7521446" lon="14.0893238"><ele>803.0</ele><time>2026-04-26T09:34:37.312Z</time></trkpt><trkpt lat="37.7523547" lon="14.0893145"><ele>803.0</ele><time>2026-04-26T09:34:38.312Z</time></trkpt><trkpt lat="37.7525479" lon="14.0893403"><ele>803.0</ele><time>2026-04-26T09:34:39.312Z</time></trkpt><trkpt lat="37.7527279" lon="14.0893979"><ele>802.6666666666667</ele><time>2026-04-26T09:34:40.312Z</time></trkpt><trkpt lat="37.7529087" lon="14.0894982"><ele>802.3333333333333</ele><time>2026-04-26T09:34:41.311Z</time></trkpt><trkpt lat="37.7530927" lon="14.0896291"><ele>802.0</ele><time>2026-04-26T09:34:42.312Z</time></trkpt><trkpt lat="37.7532879" lon="14.0897733"><ele>802.0</ele><time>2026-04-26T09:34:43.311Z</time></trkpt><trkpt lat="37.7534927" lon="14.0898981"><ele>802.0</ele><time>2026-04-26T09:34:44.312Z</time></trkpt><trkpt lat="37.7537093" lon="14.0900234"><ele>806.6666666666666</ele><time>2026-04-26T09:34:45.312Z</time></trkpt><trkpt lat="37.7539132" lon="14.0901427"><ele>811.3333333333333</ele><time>2026-04-26T09:34:46.312Z</time></trkpt><trkpt lat="37.7540954" lon="14.0902514"><ele>816.0</ele><time>2026-04-26T09:34:47.312Z</time></trkpt><trkpt lat="37.7542541" lon="14.0903264"><ele>817.75</ele><time>2026-04-26T09:34:48.311Z</time></trkpt><trkpt lat="37.7543845" lon="14.0903557"><ele>819.5</ele><time>2026-04-26T09:34:49.312Z</time></trkpt><trkpt lat="37.7545145" lon="14.0903208"><ele>821.25</ele><time>2026-04-26T09:34:50.311Z</time></trkpt><trkpt lat="37.7546531" lon="14.0902017"><ele>823.0</ele><time>2026-04-26T09:34:51.312Z</time></trkpt><trkpt lat="37.7547952" lon="14.0900492"><ele>824.3333333333333</ele><time>2026-04-26T09:34:52.312Z</time></trkpt><trkpt lat="37.7549406" lon="14.0899009"><ele>825.6666666666667</ele><time>2026-04-26T09:34:53.312Z</time></trkpt><trkpt lat="37.7551039" lon="14.0897696"><ele>827.0</ele><time>2026-04-26T09:34:54.312Z</time></trkpt><trkpt lat="37.7552884" lon="14.0896619"><ele>827.0</ele><time>2026-04-26T09:34:55.312Z</time></trkpt><trkpt lat="37.7554854" lon="14.0895839"><ele>827.0</ele><time>2026-04-26T09:34:56.312Z</time></trkpt><trkpt lat="37.7556732" lon="14.0895085"><ele>827.0</ele><time>2026-04-26T09:34:57.311Z</time></trkpt><trkpt lat="37.7558396" lon="14.0894046"><ele>827.0</ele><time>2026-04-26T09:34:58.312Z</time></trkpt><trkpt lat="37.7559878" lon="14.0892364"><ele>827.0</ele><time>2026-04-26T09:34:59.312Z</time></trkpt><trkpt lat="37.7561133" lon="14.089015"><ele>827.0</ele><time>2026-04-26T09:35:00.311Z</time></trkpt><trkpt lat="37.7562334" lon="14.0887715"><ele>831.5</ele><time>2026-04-26T09:35:01.312Z</time></trkpt><trkpt lat="37.7563613" lon="14.0885242"><ele>836.0</ele><time>2026-04-26T09:35:02.312Z</time></trkpt><trkpt lat="37.7564852" lon="14.0882831"><ele>834.6666666666667</ele><time>2026-04-26T09:35:03.312Z</time></trkpt><trkpt lat="37.7566021" lon="14.0880529"><ele>833.3333333333333</ele><time>2026-04-26T09:35:04.312Z</time></trkpt><trkpt lat="37.756713" lon="14.0878397"><ele>832.0</ele><time>2026-04-26T09:35:05.311Z</time></trkpt><trkpt lat="37.7568207" lon="14.087663"><ele>830.6666666666666</ele><time>2026-04-26T09:35:06.312Z</time></trkpt><trkpt lat="37.7569344" lon="14.0875407"><ele>829.3333333333333</ele><time>2026-04-26T09:35:07.312Z</time></trkpt><trkpt lat="37.7570729" lon="14.0874534"><ele>828.0</ele><time>2026-04-26T09:35:08.312Z</time></trkpt><trkpt lat="37.7572325" lon="14.0874057"><ele>828.0</ele><time>2026-04-26T09:35:09.311Z</time></trkpt><trkpt lat="37.7574361" lon="14.0873775"><ele>828.0</ele><time>2026-04-26T09:35:10.312Z</time></trkpt><trkpt lat="37.7576587" lon="14.0873482"><ele>828.0</ele><time>2026-04-26T09:35:11.312Z</time></trkpt><trkpt lat="37.7579007" lon="14.0872934"><ele>833.5</ele><time>2026-04-26T09:35:12.311Z</time></trkpt><trkpt lat="37.7581383" lon="14.0872257"><ele>839.0</ele><time>2026-04-26T09:35:13.312Z</time></trkpt><trkpt lat="37.7583512" lon="14.0871637"><ele>839.3333333333334</ele><time>2026-04-26T09:35:14.312Z</time></trkpt><trkpt lat="37.7585406" lon="14.0871379"><ele>839.6666666666667</ele><time>2026-04-26T09:35:15.312Z</time></trkpt><trkpt lat="37.7587233" lon="14.0871436"><ele>840.0</ele><time>2026-04-26T09:35:16.312Z</time></trkpt><trkpt lat="37.7588953" lon="14.0871828"><ele>840.0</ele><time>2026-04-26T09:35:17.312Z</time></trkpt><trkpt lat="37.7590546" lon="14.0872396"><ele>840.0</ele><time>2026-04-26T09:35:18.311Z</time></trkpt><trkpt lat="37.7592004" lon="14.0872684"><ele>840.0</ele><time>2026-04-26T09:35:19.312Z</time></trkpt><trkpt lat="37.7593344" lon="14.0872356"><ele>844.25</ele><time>2026-04-26T09:35:20.312Z</time></trkpt><trkpt lat="37.7594533" lon="14.0871287"><ele>848.5</ele><time>2026-04-26T09:35:21.312Z</time></trkpt><trkpt lat="37.7595649" lon="14.0870053"><ele>852.75</ele><time>2026-04-26T09:35:22.312Z</time></trkpt><trkpt lat="37.7596775" lon="14.0868716"><ele>857.0</ele><time>2026-04-26T09:35:23.312Z</time></trkpt><trkpt lat="37.7598097" lon="14.0867627"><ele>857.0</ele><time>2026-04-26T09:35:24.312Z</time></trkpt><trkpt lat="37.7599624" lon="14.0866954"><ele>857.0</ele><time>2026-04-26T09:35:25.312Z</time></trkpt><trkpt lat="37.760123" lon="14.0866613"><ele>857.0</ele><time>2026-04-26T09:35:26.312Z</time></trkpt><trkpt lat="37.7602899" lon="14.0866505"><ele>856.0</ele><time>2026-04-26T09:35:27.312Z</time></trkpt><trkpt lat="37.7604517" lon="14.0866323"><ele>855.0</ele><time>2026-04-26T09:35:28.312Z</time></trkpt><trkpt lat="37.7606068" lon="14.0865512"><ele>854.0</ele><time>2026-04-26T09:35:29.312Z</time></trkpt><trkpt lat="37.7607438" lon="14.0864429"><ele>854.0</ele><time>2026-04-26T09:35:30.312Z</time></trkpt><trkpt lat="37.760871" lon="14.0863352"><ele>854.0</ele><time>2026-04-26T09:35:31.312Z</time></trkpt><trkpt lat="37.7610031" lon="14.0862776"><ele>854.0</ele><time>2026-04-26T09:35:32.312Z</time></trkpt><trkpt lat="37.7611399" lon="14.0862686"><ele>854.0</ele><time>2026-04-26T09:35:33.312Z</time></trkpt><trkpt lat="37.7612813" lon="14.08626"><ele>856.6666666666667</ele><time>2026-04-26T09:35:34.312Z</time></trkpt><trkpt lat="37.7614319" lon="14.0862105"><ele>859.3333333333333</ele><time>2026-04-26T09:35:35.312Z</time></trkpt><trkpt lat="37.7615966" lon="14.0861112"><ele>862.0</ele><time>2026-04-26T09:35:36.312Z</time></trkpt><trkpt lat="37.7617641" lon="14.0859857"><ele>864.0</ele><time>2026-04-26T09:35:37.312Z</time></trkpt><trkpt lat="37.7619354" lon="14.0858414"><ele>866.0</ele><time>2026-04-26T09:35:38.312Z</time></trkpt><trkpt lat="37.7621046" lon="14.0857069"><ele>868.0</ele><time>2026-04-26T09:35:39.312Z</time></trkpt><trkpt lat="37.7622604" lon="14.0855666"><ele>868.0</ele><time>2026-04-26T09:35:40.312Z</time></trkpt><trkpt lat="37.7624013" lon="14.0853911"><ele>868.0</ele><time>2026-04-26T09:35:41.311Z</time></trkpt><trkpt lat="37.7625242" lon="14.0851931"><ele>868.0</ele><time>2026-04-26T09:35:42.312Z</time></trkpt><trkpt lat="37.762629" lon="14.084985"><ele>867.6666666666666</ele><time>2026-04-26T09:35:43.312Z</time></trkpt><trkpt lat="37.7627314" lon="14.0847925"><ele>867.3333333333333</ele><time>2026-04-26T09:35:44.312Z</time></trkpt><trkpt lat="37.7628442" lon="14.0846325"><ele>867.0</ele><time>2026-04-26T09:35:45.312Z</time></trkpt><trkpt lat="37.7629871" lon="14.084511"><ele>867.0</ele><time>2026-04-26T09:35:46.312Z</time></trkpt><trkpt lat="37.7631399" lon="14.084429"><ele>867.0</ele><time>2026-04-26T09:35:47.312Z</time></trkpt><trkpt lat="37.7633186" lon="14.0843663"><ele>867.0</ele><time>2026-04-26T09:35:48.312Z</time></trkpt><trkpt lat="37.7635137" lon="14.084307"><ele>868.3333333333333</ele><time>2026-04-26T09:35:49.312Z</time></trkpt><trkpt lat="37.7637051" lon="14.0842546"><ele>869.6666666666666</ele><time>2026-04-26T09:35:50.312Z</time></trkpt><trkpt lat="37.7638904" lon="14.0841987"><ele>871.0</ele><time>2026-04-26T09:35:51.312Z</time></trkpt><trkpt lat="37.7640664" lon="14.0841483"><ele>871.0</ele><time>2026-04-26T09:35:52.312Z</time></trkpt><trkpt lat="37.7642391" lon="14.0841082"><ele>871.0</ele><time>2026-04-26T09:35:53.312Z</time></trkpt><trkpt lat="37.7644063" lon="14.0840982"><ele>871.0</ele><time>2026-04-26T09:35:54.312Z</time></trkpt><trkpt lat="37.7645745" lon="14.0841118"><ele>870.6666666666666</ele><time>2026-04-26T09:35:55.312Z</time></trkpt><trkpt lat="37.7647388" lon="14.0841327"><ele>870.3333333333333</ele><time>2026-04-26T09:35:56.312Z</time></trkpt><trkpt lat="37.7649106" lon="14.0841718"><ele>870.0</ele><time>2026-04-26T09:35:57.312Z</time></trkpt><trkpt lat="37.7650786" lon="14.0842278"><ele>866.6666666666667</ele><time>2026-04-26T09:35:58.312Z</time></trkpt><trkpt lat="37.7652495" lon="14.0843384"><ele>863.3333333333334</ele><time>2026-04-26T09:35:59.312Z</time></trkpt><trkpt lat="37.7654189" lon="14.0844877"><ele>860.0</ele><time>2026-04-26T09:36:00.312Z</time></trkpt><trkpt lat="37.7656027" lon="14.084651"><ele>860.0</ele><time>2026-04-26T09:36:01.312Z</time></trkpt><trkpt lat="37.7658002" lon="14.0847881"><ele>860.0</ele><time>2026-04-26T09:36:02.312Z</time></trkpt><trkpt lat="37.7660011" lon="14.0848951"><ele>860.0</ele><time>2026-04-26T09:36:03.312Z</time></trkpt><trkpt lat="37.7661848" lon="14.0849588"><ele>862.3333333333334</ele><time>2026-04-26T09:36:04.312Z</time></trkpt><trkpt lat="37.766342" lon="14.0850036"><ele>864.6666666666667</ele><time>2026-04-26T09:36:05.312Z</time></trkpt><trkpt lat="37.7664826" lon="14.085093"><ele>867.0</ele><time>2026-04-26T09:36:06.312Z</time></trkpt><trkpt lat="37.7665924" lon="14.0852338"><ele>867.0</ele><time>2026-04-26T09:36:07.312Z</time></trkpt><trkpt lat="37.7666917" lon="14.0854323"><ele>867.0</ele><time>2026-04-26T09:36:08.312Z</time></trkpt><trkpt lat="37.7667984" lon="14.0856532"><ele>867.0</ele><time>2026-04-26T09:36:09.312Z</time></trkpt><trkpt lat="37.7669123" lon="14.0858817"><ele>864.6666666666667</ele><time>2026-04-26T09:36:10.312Z</time></trkpt><trkpt lat="37.7670383" lon="14.0860992"><ele>862.3333333333334</ele><time>2026-04-26T09:36:11.312Z</time></trkpt><trkpt lat="37.7671545" lon="14.0863096"><ele>860.0</ele><time>2026-04-26T09:36:12.312Z</time></trkpt><trkpt lat="37.7672368" lon="14.08653"><ele>862.6666666666667</ele><time>2026-04-26T09:36:13.312Z</time></trkpt><trkpt lat="37.767302" lon="14.0867385"><ele>865.3333333333333</ele><time>2026-04-26T09:36:14.312Z</time></trkpt><trkpt lat="37.76738" lon="14.0869203"><ele>868.0</ele><time>2026-04-26T09:36:15.312Z</time></trkpt><trkpt lat="37.7674953" lon="14.0870555"><ele>868.0</ele><time>2026-04-26T09:36:16.312Z</time></trkpt><trkpt lat="37.7676634" lon="14.0871612"><ele>868.0</ele><time>2026-04-26T09:36:17.312Z</time></trkpt><trkpt lat="37.7678367" lon="14.0872235"><ele>868.0</ele><time>2026-04-26T09:36:18.312Z</time></trkpt><trkpt lat="37.7679999" lon="14.0872809"><ele>866.0</ele><time>2026-04-26T09:36:19.311Z</time></trkpt><trkpt lat="37.7681637" lon="14.0873843"><ele>864.0</ele><time>2026-04-26T09:36:20.312Z</time></trkpt><trkpt lat="37.768326" lon="14.087518"><ele>862.0</ele><time>2026-04-26T09:36:21.312Z</time></trkpt><trkpt lat="37.7684987" lon="14.0876741"><ele>864.6666666666666</ele><time>2026-04-26T09:36:22.312Z</time></trkpt><trkpt lat="37.7686803" lon="14.0878359"><ele>867.3333333333333</ele><time>2026-04-26T09:36:23.312Z</time></trkpt><trkpt lat="37.7688655" lon="14.0879864"><ele>870.0</ele><time>2026-04-26T09:36:24.312Z</time></trkpt><trkpt lat="37.7690543" lon="14.0881004"><ele>870.0</ele><time>2026-04-26T09:36:25.312Z</time></trkpt><trkpt lat="37.7692335" lon="14.0881843"><ele>870.0</ele><time>2026-04-26T09:36:26.312Z</time></trkpt><trkpt lat="37.7693858" lon="14.0882459"><ele>870.0</ele><time>2026-04-26T09:36:27.312Z</time></trkpt><trkpt lat="37.7695005" lon="14.0883137"><ele>871.25</ele><time>2026-04-26T09:36:28.312Z</time></trkpt><trkpt lat="37.769581" lon="14.0884118"><ele>872.5</ele><time>2026-04-26T09:36:29.312Z</time></trkpt><trkpt lat="37.7696442" lon="14.0885506"><ele>873.75</ele><time>2026-04-26T09:36:30.312Z</time></trkpt><trkpt lat="37.7696693" lon="14.0887188"><ele>875.0</ele><time>2026-04-26T09:36:31.312Z</time></trkpt><trkpt lat="37.7696503" lon="14.0889195"><ele>876.6666666666667</ele><time>2026-04-26T09:36:32.312Z</time></trkpt><trkpt lat="37.7696133" lon="14.0891243"><ele>878.3333333333333</ele><time>2026-04-26T09:36:33.312Z</time></trkpt><trkpt lat="37.7695982" lon="14.0893314"><ele>880.0</ele><time>2026-04-26T09:36:34.312Z</time></trkpt><trkpt lat="37.7696254" lon="14.0895694"><ele>880.0</ele><time>2026-04-26T09:36:35.312Z</time></trkpt><trkpt lat="37.7696878" lon="14.0898292"><ele>880.0</ele><time>2026-04-26T09:36:36.312Z</time></trkpt><trkpt lat="37.7697711" lon="14.0901076"><ele>883.0</ele><time>2026-04-26T09:36:37.312Z</time></trkpt><trkpt lat="37.7698527" lon="14.0903892"><ele>886.0</ele><time>2026-04-26T09:36:38.312Z</time></trkpt><trkpt lat="37.7699292" lon="14.090653"><ele>888.6666666666666</ele><time>2026-04-26T09:36:39.312Z</time></trkpt><trkpt lat="37.7699966" lon="14.0908942"><ele>891.3333333333333</ele><time>2026-04-26T09:36:40.312Z</time></trkpt><trkpt lat="37.7700633" lon="14.0911274"><ele>894.0</ele><time>2026-04-26T09:36:41.312Z</time></trkpt><trkpt lat="37.770125" lon="14.0913501"><ele>894.0</ele><time>2026-04-26T09:36:42.312Z</time></trkpt><trkpt lat="37.7701766" lon="14.0915426"><ele>894.0</ele><time>2026-04-26T09:36:43.312Z</time></trkpt><trkpt lat="37.7702132" lon="14.0916969"><ele>894.0</ele><time>2026-04-26T09:36:44.312Z</time></trkpt><trkpt lat="37.770264" lon="14.0918119"><ele>894.0</ele><time>2026-04-26T09:36:45.312Z</time></trkpt><trkpt lat="37.7703298" lon="14.091887"><ele>893.5</ele><time>2026-04-26T09:36:46.312Z</time></trkpt><trkpt lat="37.7704333" lon="14.0919376"><ele>893.0</ele><time>2026-04-26T09:36:47.312Z</time></trkpt><trkpt lat="37.7705732" lon="14.0919555"><ele>892.5</ele><time>2026-04-26T09:36:48.312Z</time></trkpt><trkpt lat="37.7707327" lon="14.0919113"><ele>892.0</ele><time>2026-04-26T09:36:49.312Z</time></trkpt><trkpt lat="37.7708782" lon="14.0918793"><ele>892.0</ele><time>2026-04-26T09:36:50.312Z</time></trkpt><trkpt lat="37.7710029" lon="14.0918798"><ele>892.0</ele><time>2026-04-26T09:36:51.312Z</time></trkpt><trkpt lat="37.771114" lon="14.0919348"><ele>892.0</ele><time>2026-04-26T09:36:52.312Z</time></trkpt><trkpt lat="37.7712039" lon="14.0920601"><ele>892.0</ele><time>2026-04-26T09:36:53.312Z</time></trkpt><trkpt lat="37.7712773" lon="14.0922537"><ele>891.0</ele><time>2026-04-26T09:36:54.312Z</time></trkpt><trkpt lat="37.7713374" lon="14.0924709"><ele>890.0</ele><time>2026-04-26T09:36:55.312Z</time></trkpt><trkpt lat="37.7714057" lon="14.0926906"><ele>889.0</ele><time>2026-04-26T09:36:56.312Z</time></trkpt><trkpt lat="37.771499" lon="14.0928922"><ele>889.0</ele><time>2026-04-26T09:36:57.312Z</time></trkpt><trkpt lat="37.771625" lon="14.0930677"><ele>889.0</ele><time>2026-04-26T09:36:58.311Z</time></trkpt><trkpt lat="37.7717852" lon="14.0932267"><ele>889.0</ele><time>2026-04-26T09:36:59.312Z</time></trkpt><trkpt lat="37.7719764" lon="14.0933829"><ele>888.0</ele><time>2026-04-26T09:37:00.312Z</time></trkpt><trkpt lat="37.7721806" lon="14.0935324"><ele>887.0</ele><time>2026-04-26T09:37:01.312Z</time></trkpt><trkpt lat="37.7723911" lon="14.0936591"><ele>887.0</ele><time>2026-04-26T09:37:02.312Z</time></trkpt><trkpt lat="37.7725967" lon="14.093765"><ele>887.0</ele><time>2026-04-26T09:37:03.312Z</time></trkpt><trkpt lat="37.7727873" lon="14.0938667"><ele>887.0</ele><time>2026-04-26T09:37:04.312Z</time></trkpt><trkpt lat="37.7729606" lon="14.0939818"><ele>886.0</ele><time>2026-04-26T09:37:05.312Z</time></trkpt><trkpt lat="37.773119" lon="14.0941337"><ele>885.0</ele><time>2026-04-26T09:37:06.312Z</time></trkpt><trkpt lat="37.7732667" lon="14.0943063"><ele>884.0</ele><time>2026-04-26T09:37:07.312Z</time></trkpt><trkpt lat="37.773396" lon="14.0944756"><ele>883.6666666666667</ele><time>2026-04-26T09:37:08.312Z</time></trkpt><trkpt lat="37.773526" lon="14.0946341"><ele>883.3333333333333</ele><time>2026-04-26T09:37:09.312Z</time></trkpt><trkpt lat="37.7736446" lon="14.0947853"><ele>883.0</ele><time>2026-04-26T09:37:10.312Z</time></trkpt><trkpt lat="37.7737475" lon="14.0949329"><ele>883.0</ele><time>2026-04-26T09:37:11.312Z</time></trkpt><trkpt lat="37.7738285" lon="14.0950867"><ele>883.0</ele><time>2026-04-26T09:37:12.312Z</time></trkpt><trkpt lat="37.7738904" lon="14.0952433"><ele>883.0</ele><time>2026-04-26T09:37:13.312Z</time></trkpt><trkpt lat="37.7739449" lon="14.0953949"><ele>883.0</ele><time>2026-04-26T09:37:14.312Z</time></trkpt><trkpt lat="37.7739969" lon="14.095537"><ele>883.0</ele><time>2026-04-26T09:37:15.312Z</time></trkpt><trkpt lat="37.7740588" lon="14.0956581"><ele>883.0</ele><time>2026-04-26T09:37:16.312Z</time></trkpt><trkpt lat="37.7741334" lon="14.0957732"><ele>883.0</ele><time>2026-04-26T09:37:17.312Z</time></trkpt><trkpt lat="37.7742184" lon="14.0958725"><ele>883.0</ele><time>2026-04-26T09:37:18.312Z</time></trkpt><trkpt lat="37.7743085" lon="14.0959601"><ele>884.25</ele><time>2026-04-26T09:37:19.312Z</time></trkpt><trkpt lat="37.7744056" lon="14.0960348"><ele>885.5</ele><time>2026-04-26T09:37:20.312Z</time></trkpt><trkpt lat="37.7745125" lon="14.0960961"><ele>886.75</ele><time>2026-04-26T09:37:21.312Z</time></trkpt><trkpt lat="37.7746164" lon="14.0961495"><ele>888.0</ele><time>2026-04-26T09:37:22.312Z</time></trkpt><trkpt lat="37.7747274" lon="14.0961818"><ele>888.0</ele><time>2026-04-26T09:37:23.312Z</time></trkpt><trkpt lat="37.7748397" lon="14.0961959"><ele>888.0</ele><time>2026-04-26T09:37:24.312Z</time></trkpt><trkpt lat="37.7749584" lon="14.0961924"><ele>888.0</ele><time>2026-04-26T09:37:25.312Z</time></trkpt><trkpt lat="37.7750739" lon="14.0961762"><ele>888.0</ele><time>2026-04-26T09:37:26.312Z</time></trkpt><trkpt lat="37.7751956" lon="14.0961395"><ele>889.0</ele><time>2026-04-26T09:37:27.312Z</time></trkpt><trkpt lat="37.7753088" lon="14.0960829"><ele>890.0</ele><time>2026-04-26T09:37:28.312Z</time></trkpt><trkpt lat="37.7754306" lon="14.0960268"><ele>891.0</ele><time>2026-04-26T09:37:29.312Z</time></trkpt><trkpt lat="37.7755478" lon="14.0959769"><ele>892.0</ele><time>2026-04-26T09:37:30.312Z</time></trkpt><trkpt lat="37.7756683" lon="14.0959296"><ele>892.0</ele><time>2026-04-26T09:37:31.312Z</time></trkpt><trkpt lat="37.7757893" lon="14.0958836"><ele>892.0</ele><time>2026-04-26T09:37:32.312Z</time></trkpt><trkpt lat="37.7759107" lon="14.0958445"><ele>892.0</ele><time>2026-04-26T09:37:33.312Z</time></trkpt><trkpt lat="37.7760379" lon="14.0958181"><ele>892.0</ele><time>2026-04-26T09:37:34.312Z</time></trkpt><trkpt lat="37.7761655" lon="14.0958115"><ele>893.25</ele><time>2026-04-26T09:37:35.312Z</time></trkpt><trkpt lat="37.7762976" lon="14.0958249"><ele>894.5</ele><time>2026-04-26T09:37:36.312Z</time></trkpt><trkpt lat="37.7764275" lon="14.0958389"><ele>895.75</ele><time>2026-04-26T09:37:37.312Z</time></trkpt><trkpt lat="37.7765611" lon="14.0958521"><ele>897.0</ele><time>2026-04-26T09:37:38.312Z</time></trkpt><trkpt lat="37.7766931" lon="14.0958671"><ele>897.0</ele><time>2026-04-26T09:37:39.312Z</time></trkpt><trkpt lat="37.776824" lon="14.095899"><ele>897.0</ele><time>2026-04-26T09:37:40.312Z</time></trkpt><trkpt lat="37.7769495" lon="14.0959565"><ele>897.0</ele><time>2026-04-26T09:37:41.311Z</time></trkpt><trkpt lat="37.7770743" lon="14.0960388"><ele>897.0</ele><time>2026-04-26T09:37:42.311Z</time></trkpt><trkpt lat="37.7771927" lon="14.0961276"><ele>896.25</ele><time>2026-04-26T09:37:43.311Z</time></trkpt><trkpt lat="37.7773121" lon="14.0962084"><ele>895.5</ele><time>2026-04-26T09:37:44.311Z</time></trkpt><trkpt lat="37.7774364" lon="14.0962792"><ele>894.75</ele><time>2026-04-26T09:37:45.311Z</time></trkpt><trkpt lat="37.7775625" lon="14.0963369"><ele>894.0</ele><time>2026-04-26T09:37:46.311Z</time></trkpt><trkpt lat="37.7776946" lon="14.0963866"><ele>892.75</ele><time>2026-04-26T09:37:47.311Z</time></trkpt><trkpt lat="37.7778276" lon="14.096432"><ele>891.5</ele><time>2026-04-26T09:37:48.311Z</time></trkpt><trkpt lat="37.7779568" lon="14.0964914"><ele>890.25</ele><time>2026-04-26T09:37:49.311Z</time></trkpt><trkpt lat="37.7780827" lon="14.0965661"><ele>889.0</ele><time>2026-04-26T09:37:50.311Z</time></trkpt><trkpt lat="37.7782122" lon="14.0966666"><ele>893.75</ele><time>2026-04-26T09:37:51.311Z</time></trkpt><trkpt lat="37.7783365" lon="14.0967677"><ele>898.5</ele><time>2026-04-26T09:37:52.311Z</time></trkpt><trkpt lat="37.7784564" lon="14.0968312"><ele>903.25</ele><time>2026-04-26T09:37:53.311Z</time></trkpt><trkpt lat="37.7786045" lon="14.0968466"><ele>908.0</ele><time>2026-04-26T09:37:54.311Z</time></trkpt><trkpt lat="37.7787605" lon="14.096821"><ele>909.0</ele><time>2026-04-26T09:37:55.311Z</time></trkpt><trkpt lat="37.7789138" lon="14.096777"><ele>910.0</ele><time>2026-04-26T09:37:56.311Z</time></trkpt><trkpt lat="37.7790593" lon="14.096728"><ele>911.0</ele><time>2026-04-26T09:37:57.311Z</time></trkpt><trkpt lat="37.7791951" lon="14.0966997"><ele>912.0</ele><time>2026-04-26T09:37:58.311Z</time></trkpt><trkpt lat="37.7793318" lon="14.0967167"><ele>911.6666666666667</ele><time>2026-04-26T09:37:59.311Z</time></trkpt><trkpt lat="37.7794803" lon="14.0967788"><ele>911.3333333333334</ele><time>2026-04-26T09:38:00.311Z</time></trkpt><trkpt lat="37.7796211" lon="14.0968749"><ele>911.0</ele><time>2026-04-26T09:38:01.311Z</time></trkpt><trkpt lat="37.7797602" lon="14.0969877"><ele>911.0</ele><time>2026-04-26T09:38:02.311Z</time></trkpt><trkpt lat="37.7798937" lon="14.0970948"><ele>911.0</ele><time>2026-04-26T09:38:03.311Z</time></trkpt><trkpt lat="37.7800214" lon="14.0972014"><ele>911.0</ele><time>2026-04-26T09:38:04.311Z</time></trkpt><trkpt lat="37.780137" lon="14.0973095"><ele>913.25</ele><time>2026-04-26T09:38:05.311Z</time></trkpt><trkpt lat="37.7802408" lon="14.0974243"><ele>915.5</ele><time>2026-04-26T09:38:06.311Z</time></trkpt><trkpt lat="37.7803469" lon="14.0975388"><ele>917.75</ele><time>2026-04-26T09:38:07.31Z</time></trkpt><trkpt lat="37.7804398" lon="14.0976462"><ele>920.0</ele><time>2026-04-26T09:38:08.31Z</time></trkpt><trkpt lat="37.7805347" lon="14.0977459"><ele>920.0</ele><time>2026-04-26T09:38:09.311Z</time></trkpt><trkpt lat="37.7806216" lon="14.0978482"><ele>920.0</ele><time>2026-04-26T09:38:10.311Z</time></trkpt><trkpt lat="37.780712" lon="14.097945"><ele>920.0</ele><time>2026-04-26T09:38:11.311Z</time></trkpt><trkpt lat="37.7808027" lon="14.0980404"><ele>920.0</ele><time>2026-04-26T09:38:12.311Z</time></trkpt><trkpt lat="37.7808863" lon="14.0981351"><ele>920.0</ele><time>2026-04-26T09:38:13.311Z</time></trkpt><trkpt lat="37.7809659" lon="14.0982186"><ele>920.0</ele><time>2026-04-26T09:38:14.311Z</time></trkpt><trkpt lat="37.7810449" lon="14.0982927"><ele>920.0</ele><time>2026-04-26T09:38:15.311Z</time></trkpt><trkpt lat="37.7811274" lon="14.098368"><ele>920.0</ele><time>2026-04-26T09:38:16.311Z</time></trkpt><trkpt lat="37.7812208" lon="14.098439"><ele>920.0</ele><time>2026-04-26T09:38:17.311Z</time></trkpt><trkpt lat="37.7813291" lon="14.0985039"><ele>921.0</ele><time>2026-04-26T09:38:18.311Z</time></trkpt><trkpt lat="37.7814378" lon="14.0985692"><ele>922.0</ele><time>2026-04-26T09:38:19.311Z</time></trkpt><trkpt lat="37.7815399" lon="14.0986448"><ele>923.0</ele><time>2026-04-26T09:38:20.311Z</time></trkpt><trkpt lat="37.7816443" lon="14.0987114"><ele>924.0</ele><time>2026-04-26T09:38:21.311Z</time></trkpt><trkpt lat="37.7817477" lon="14.0987873"><ele>922.75</ele><time>2026-04-26T09:38:22.31Z</time></trkpt><trkpt lat="37.7818496" lon="14.0988609"><ele>921.5</ele><time>2026-04-26T09:38:23.31Z</time></trkpt><trkpt lat="37.7819491" lon="14.0989329"><ele>920.25</ele><time>2026-04-26T09:38:24.311Z</time></trkpt><trkpt lat="37.7820508" lon="14.0990034"><ele>919.0</ele><time>2026-04-26T09:38:25.311Z</time></trkpt><trkpt lat="37.7821533" lon="14.0990759"><ele>921.25</ele><time>2026-04-26T09:38:26.311Z</time></trkpt><trkpt lat="37.7822534" lon="14.0991511"><ele>923.5</ele><time>2026-04-26T09:38:27.311Z</time></trkpt><trkpt lat="37.7823576" lon="14.0992299"><ele>925.75</ele><time>2026-04-26T09:38:28.311Z</time></trkpt><trkpt lat="37.782434" lon="14.0993498"><ele>928.0</ele><time>2026-04-26T09:38:29.311Z</time></trkpt><trkpt lat="37.7824862" lon="14.0994958"><ele>928.0</ele><time>2026-04-26T09:38:30.311Z</time></trkpt><trkpt lat="37.7825076" lon="14.0996509"><ele>928.0</ele><time>2026-04-26T09:38:31.311Z</time></trkpt><trkpt lat="37.7825029" lon="14.0998125"><ele>928.0</ele><time>2026-04-26T09:38:32.311Z</time></trkpt><trkpt lat="37.78248" lon="14.0999747"><ele>928.0</ele><time>2026-04-26T09:38:33.311Z</time></trkpt><trkpt lat="37.7824459" lon="14.1001386"><ele>928.5</ele><time>2026-04-26T09:38:34.311Z</time></trkpt><trkpt lat="37.7823972" lon="14.1002995"><ele>929.0</ele><time>2026-04-26T09:38:35.311Z</time></trkpt><trkpt lat="37.7823319" lon="14.1004609"><ele>929.5</ele><time>2026-04-26T09:38:36.311Z</time></trkpt><trkpt lat="37.7822639" lon="14.1006293"><ele>930.0</ele><time>2026-04-26T09:38:37.311Z</time></trkpt><trkpt lat="37.7821936" lon="14.100821"><ele>930.0</ele><time>2026-04-26T09:38:38.311Z</time></trkpt><trkpt lat="37.7821242" lon="14.1010378"><ele>930.0</ele><time>2026-04-26T09:38:39.311Z</time></trkpt><trkpt lat="37.7820707" lon="14.1012868"><ele>930.0</ele><time>2026-04-26T09:38:40.311Z</time></trkpt><trkpt lat="37.7820482" lon="14.101548"><ele>930.5</ele><time>2026-04-26T09:38:41.311Z</time></trkpt><trkpt lat="37.7820508" lon="14.1018323"><ele>931.0</ele><time>2026-04-26T09:38:42.31Z</time></trkpt><trkpt lat="37.7820746" lon="14.1021336"><ele>934.0</ele><time>2026-04-26T09:38:43.311Z</time></trkpt><trkpt lat="37.7821021" lon="14.1024506"><ele>937.0</ele><time>2026-04-26T09:38:44.311Z</time></trkpt><trkpt lat="37.782125" lon="14.1027507"><ele>937.0</ele><time>2026-04-26T09:38:45.311Z</time></trkpt><trkpt lat="37.7821383" lon="14.1030169"><ele>937.0</ele><time>2026-04-26T09:38:46.311Z</time></trkpt><trkpt lat="37.7821661" lon="14.103242"><ele>937.0</ele><time>2026-04-26T09:38:47.311Z</time></trkpt><trkpt lat="37.7822029" lon="14.1034444"><ele>939.6666666666666</ele><time>2026-04-26T09:38:48.311Z</time></trkpt><trkpt lat="37.7822696" lon="14.1036414"><ele>942.3333333333333</ele><time>2026-04-26T09:38:49.311Z</time></trkpt><trkpt lat="37.7823788" lon="14.1038207"><ele>945.0</ele><time>2026-04-26T09:38:50.311Z</time></trkpt><trkpt lat="37.7825156" lon="14.1039701"><ele>945.0</ele><time>2026-04-26T09:38:51.311Z</time></trkpt><trkpt lat="37.7826716" lon="14.1040746"><ele>945.0</ele><time>2026-04-26T09:38:52.311Z</time></trkpt><trkpt lat="37.7828585" lon="14.1041395"><ele>945.0</ele><time>2026-04-26T09:38:53.311Z</time></trkpt><trkpt lat="37.7830601" lon="14.1041871"><ele>948.6666666666667</ele><time>2026-04-26T09:38:54.311Z</time></trkpt><trkpt lat="37.7832671" lon="14.1042272"><ele>952.3333333333334</ele><time>2026-04-26T09:38:55.311Z</time></trkpt><trkpt lat="37.7834569" lon="14.1042651"><ele>956.0</ele><time>2026-04-26T09:38:56.311Z</time></trkpt><trkpt lat="37.7836345" lon="14.1042933"><ele>957.6666666666667</ele><time>2026-04-26T09:38:57.311Z</time></trkpt><trkpt lat="37.7838119" lon="14.1042705"><ele>959.3333333333333</ele><time>2026-04-26T09:38:58.311Z</time></trkpt><trkpt lat="37.7839754" lon="14.1041835"><ele>961.0</ele><time>2026-04-26T09:38:59.311Z</time></trkpt><trkpt lat="37.7841149" lon="14.1040628"><ele>956.5</ele><time>2026-04-26T09:39:00.311Z</time></trkpt><trkpt lat="37.7842336" lon="14.1039738"><ele>952.0</ele><time>2026-04-26T09:39:01.31Z</time></trkpt><trkpt lat="37.7843432" lon="14.1039317"><ele>947.5</ele><time>2026-04-26T09:39:02.311Z</time></trkpt><trkpt lat="37.7844519" lon="14.1039457"><ele>943.0</ele><time>2026-04-26T09:39:03.311Z</time></trkpt><trkpt lat="37.7845568" lon="14.104054"><ele>946.6666666666666</ele><time>2026-04-26T09:39:04.311Z</time></trkpt><trkpt lat="37.7846719" lon="14.1041778"><ele>950.3333333333333</ele><time>2026-04-26T09:39:05.31Z</time></trkpt><trkpt lat="37.7847785" lon="14.1043361"><ele>954.0</ele><time>2026-04-26T09:39:06.311Z</time></trkpt><trkpt lat="37.7848899" lon="14.1045121"><ele>954.0</ele><time>2026-04-26T09:39:07.311Z</time></trkpt><trkpt lat="37.7849839" lon="14.1046967"><ele>954.0</ele><time>2026-04-26T09:39:08.311Z</time></trkpt><trkpt lat="37.7850486" lon="14.1048968"><ele>954.0</ele><time>2026-04-26T09:39:09.311Z</time></trkpt><trkpt lat="37.7850942" lon="14.1051202"><ele>958.6666666666667</ele><time>2026-04-26T09:39:10.311Z</time></trkpt><trkpt lat="37.7851165" lon="14.1053492"><ele>963.3333333333334</ele><time>2026-04-26T09:39:11.311Z</time></trkpt><trkpt lat="37.7851297" lon="14.1055711"><ele>968.0</ele><time>2026-04-26T09:39:12.311Z</time></trkpt><trkpt lat="37.7851706" lon="14.1057739"><ele>968.0</ele><time>2026-04-26T09:39:13.311Z</time></trkpt><trkpt lat="37.7852513" lon="14.1059547"><ele>968.0</ele><time>2026-04-26T09:39:14.311Z</time></trkpt><trkpt lat="37.7853706" lon="14.1061106"><ele>968.0</ele><time>2026-04-26T09:39:15.311Z</time></trkpt><trkpt lat="37.785511" lon="14.1062189"><ele>968.0</ele><time>2026-04-26T09:39:16.311Z</time></trkpt><trkpt lat="37.7856621" lon="14.1062586"><ele>968.0</ele><time>2026-04-26T09:39:17.311Z</time></trkpt><trkpt lat="37.7858315" lon="14.1062663"><ele>968.0</ele><time>2026-04-26T09:39:18.311Z</time></trkpt><trkpt lat="37.7859979" lon="14.1062455"><ele>969.0</ele><time>2026-04-26T09:39:19.311Z</time></trkpt><trkpt lat="37.7861362" lon="14.1062238"><ele>970.0</ele><time>2026-04-26T09:39:20.31Z</time></trkpt><trkpt lat="37.7862688" lon="14.1062024"><ele>971.0</ele><time>2026-04-26T09:39:21.311Z</time></trkpt><trkpt lat="37.7864069" lon="14.1061662"><ele>972.0</ele><time>2026-04-26T09:39:22.311Z</time></trkpt><trkpt lat="37.7865453" lon="14.1061225"><ele>972.0</ele><time>2026-04-26T09:39:23.311Z</time></trkpt><trkpt lat="37.7866849" lon="14.1060518"><ele>972.0</ele><time>2026-04-26T09:39:24.311Z</time></trkpt><trkpt lat="37.7868275" lon="14.1059835"><ele>972.0</ele><time>2026-04-26T09:39:25.311Z</time></trkpt><trkpt lat="37.7869609" lon="14.1059133"><ele>972.0</ele><time>2026-04-26T09:39:26.311Z</time></trkpt><trkpt lat="37.7870935" lon="14.1058521"><ele>972.5</ele><time>2026-04-26T09:39:27.311Z</time></trkpt><trkpt lat="37.7872225" lon="14.1057878"><ele>973.0</ele><time>2026-04-26T09:39:28.311Z</time></trkpt><trkpt lat="37.7873499" lon="14.1057227"><ele>973.5</ele><time>2026-04-26T09:39:29.311Z</time></trkpt><trkpt lat="37.7874762" lon="14.1056619"><ele>974.0</ele><time>2026-04-26T09:39:30.311Z</time></trkpt><trkpt lat="37.7876021" lon="14.1056091"><ele>975.5</ele><time>2026-04-26T09:39:31.311Z</time></trkpt><trkpt lat="37.7877245" lon="14.1055692"><ele>977.0</ele><time>2026-04-26T09:39:32.31Z</time></trkpt><trkpt lat="37.7878452" lon="14.1055466"><ele>978.5</ele><time>2026-04-26T09:39:33.311Z</time></trkpt><trkpt lat="37.7879588" lon="14.1055469"><ele>980.0</ele><time>2026-04-26T09:39:34.311Z</time></trkpt><trkpt lat="37.7880687" lon="14.1055663"><ele>980.0000000000001</ele><time>2026-04-26T09:39:35.311Z</time></trkpt><trkpt lat="37.7881777" lon="14.1055852"><ele>980.0</ele><time>2026-04-26T09:39:36.311Z</time></trkpt><trkpt lat="37.7882749" lon="14.10561"><ele>980.0</ele><time>2026-04-26T09:39:37.311Z</time></trkpt><trkpt lat="37.7883546" lon="14.1056347"><ele>980.0</ele><time>2026-04-26T09:39:38.311Z</time></trkpt><trkpt lat="37.7884162" lon="14.1056572"><ele>980.0000000000001</ele><time>2026-04-26T09:39:39.31Z</time></trkpt><trkpt lat="37.7884757" lon="14.105694"><ele>980.0</ele><time>2026-04-26T09:39:42.311Z</time></trkpt><trkpt lat="37.7885453" lon="14.1057277"><ele>980.1666666666667</ele><time>2026-04-26T09:40:01.311Z</time></trkpt><trkpt lat="37.7886048" lon="14.1057738"><ele>980.3333333333334</ele><time>2026-04-26T09:40:02.311Z</time></trkpt><trkpt lat="37.7886613" lon="14.105835"><ele>980.5</ele><time>2026-04-26T09:40:03.311Z</time></trkpt><trkpt lat="37.7887096" lon="14.1059003"><ele>980.6666666666667</ele><time>2026-04-26T09:40:04.311Z</time></trkpt><trkpt lat="37.7887756" lon="14.1059991"><ele>980.8333333333334</ele><time>2026-04-26T09:40:06.311Z</time></trkpt><trkpt lat="37.7888436" lon="14.1060441"><ele>981.0</ele><time>2026-04-26T09:40:08.311Z</time></trkpt><trkpt lat="37.7889487" lon="14.1060198"><ele>981.0</ele><time>2026-04-26T09:40:10.311Z</time></trkpt><trkpt lat="37.7890185" lon="14.1060069"><ele>981.0</ele><time>2026-04-26T09:40:11.311Z</time></trkpt><trkpt lat="37.7890867" lon="14.1060136"><ele>981.0</ele><time>2026-04-26T09:40:12.311Z</time></trkpt><trkpt lat="37.7891575" lon="14.1060384"><ele>981.0</ele><time>2026-04-26T09:40:13.311Z</time></trkpt><trkpt lat="37.7892211" lon="14.1060931"><ele>981.0</ele><time>2026-04-26T09:40:14.311Z</time></trkpt><trkpt lat="37.7892782" lon="14.1061791"><ele>981.0</ele><time>2026-04-26T09:40:15.311Z</time></trkpt><trkpt lat="37.7893302" lon="14.1062869"><ele>979.25</ele><time>2026-04-26T09:40:16.311Z</time></trkpt><trkpt lat="37.7893827" lon="14.1064099"><ele>977.5</ele><time>2026-04-26T09:40:17.311Z</time></trkpt><trkpt lat="37.7894485" lon="14.1065401"><ele>975.75</ele><time>2026-04-26T09:40:18.311Z</time></trkpt><trkpt lat="37.7895159" lon="14.1066709"><ele>974.0</ele><time>2026-04-26T09:40:19.31Z</time></trkpt><trkpt lat="37.7895846" lon="14.1068139"><ele>976.8000000000001</ele><time>2026-04-26T09:40:20.311Z</time></trkpt><trkpt lat="37.7896531" lon="14.1069517"><ele>979.6000000000001</ele><time>2026-04-26T09:40:21.311Z</time></trkpt><trkpt lat="37.7897175" lon="14.1070805"><ele>982.4</ele><time>2026-04-26T09:40:22.311Z</time></trkpt><trkpt lat="37.789775" lon="14.1071909"><ele>985.2</ele><time>2026-04-26T09:40:23.311Z</time></trkpt><trkpt lat="37.7898273" lon="14.1072857"><ele>988.0</ele><time>2026-04-26T09:40:24.311Z</time></trkpt><trkpt lat="37.7898688" lon="14.1073588"><ele>988.0</ele><time>2026-04-26T09:40:25.311Z</time></trkpt><trkpt lat="37.7899268" lon="14.1074157"><ele>988.0</ele><time>2026-04-26T09:40:27.311Z</time></trkpt><trkpt lat="37.7900252" lon="14.1073344"><ele>988.0</ele><time>2026-04-26T09:40:30.311Z</time></trkpt><trkpt lat="37.7900771" lon="14.1072475"><ele>988.0</ele><time>2026-04-26T09:40:31.311Z</time></trkpt><trkpt lat="37.7901328" lon="14.1071473"><ele>988.0</ele><time>2026-04-26T09:40:32.311Z</time></trkpt><trkpt lat="37.7901896" lon="14.1070379"><ele>987.25</ele><time>2026-04-26T09:40:33.311Z</time></trkpt><trkpt lat="37.790251" lon="14.1069297"><ele>986.5</ele><time>2026-04-26T09:40:34.311Z</time></trkpt><trkpt lat="37.7903179" lon="14.1068113"><ele>985.75</ele><time>2026-04-26T09:40:35.31Z</time></trkpt><trkpt lat="37.7903986" lon="14.1066831"><ele>985.0</ele><time>2026-04-26T09:40:36.311Z</time></trkpt><trkpt lat="37.7904846" lon="14.1065488"><ele>985.0</ele><time>2026-04-26T09:40:37.311Z</time></trkpt><trkpt lat="37.7905714" lon="14.1064093"><ele>985.0</ele><time>2026-04-26T09:40:38.311Z</time></trkpt><trkpt lat="37.790666" lon="14.1062585"><ele>985.0</ele><time>2026-04-26T09:40:39.311Z</time></trkpt><trkpt lat="37.7907607" lon="14.1061029"><ele>985.0</ele><time>2026-04-26T09:40:40.311Z</time></trkpt><trkpt lat="37.7908528" lon="14.1059462"><ele>985.0</ele><time>2026-04-26T09:40:41.311Z</time></trkpt><trkpt lat="37.7909346" lon="14.1057878"><ele>985.0</ele><time>2026-04-26T09:40:42.31Z</time></trkpt><trkpt lat="37.7910144" lon="14.105627"><ele>985.0</ele><time>2026-04-26T09:40:43.311Z</time></trkpt><trkpt lat="37.791094" lon="14.1054683"><ele>985.0</ele><time>2026-04-26T09:40:44.311Z</time></trkpt><trkpt lat="37.7911776" lon="14.1053179"><ele>983.25</ele><time>2026-04-26T09:40:45.311Z</time></trkpt><trkpt lat="37.7912536" lon="14.105174"><ele>981.5</ele><time>2026-04-26T09:40:46.311Z</time></trkpt><trkpt lat="37.7913305" lon="14.1050286"><ele>979.75</ele><time>2026-04-26T09:40:47.31Z</time></trkpt><trkpt lat="37.7914055" lon="14.1048926"><ele>978.0</ele><time>2026-04-26T09:40:48.311Z</time></trkpt><trkpt lat="37.7914788" lon="14.1047662"><ele>977.8</ele><time>2026-04-26T09:40:49.311Z</time></trkpt><trkpt lat="37.7915548" lon="14.1046509"><ele>977.5999999999999</ele><time>2026-04-26T09:40:50.311Z</time></trkpt><trkpt lat="37.7916292" lon="14.1045484"><ele>977.4000000000001</ele><time>2026-04-26T09:40:51.311Z</time></trkpt><trkpt lat="37.7916981" lon="14.1044504"><ele>977.2</ele><time>2026-04-26T09:40:52.311Z</time></trkpt><trkpt lat="37.7917698" lon="14.1043541"><ele>977.0</ele><time>2026-04-26T09:40:53.311Z</time></trkpt><trkpt lat="37.7918433" lon="14.104264"><ele>977.0</ele><time>2026-04-26T09:40:54.311Z</time></trkpt><trkpt lat="37.7919202" lon="14.1041716"><ele>977.0</ele><time>2026-04-26T09:40:55.311Z</time></trkpt><trkpt lat="37.7920043" lon="14.10407"><ele>977.0</ele><time>2026-04-26T09:40:56.311Z</time></trkpt><trkpt lat="37.7920925" lon="14.1039661"><ele>977.0</ele><time>2026-04-26T09:40:57.311Z</time></trkpt><trkpt lat="37.7921824" lon="14.1038571"><ele>974.4000000000001</ele><time>2026-04-26T09:40:58.311Z</time></trkpt><trkpt lat="37.7922676" lon="14.1037494"><ele>971.8000000000001</ele><time>2026-04-26T09:40:59.311Z</time></trkpt><trkpt lat="37.7923409" lon="14.1036543"><ele>969.2</ele><time>2026-04-26T09:41:00.311Z</time></trkpt><trkpt lat="37.7924064" lon="14.1035643"><ele>966.6</ele><time>2026-04-26T09:41:01.311Z</time></trkpt><trkpt lat="37.792462" lon="14.103479"><ele>964.0</ele><time>2026-04-26T09:41:02.311Z</time></trkpt><trkpt lat="37.7925105" lon="14.103395"><ele>964.0</ele><time>2026-04-26T09:41:03.311Z</time></trkpt><trkpt lat="37.7925576" lon="14.1032999"><ele>964.0000000000001</ele><time>2026-04-26T09:41:04.31Z</time></trkpt><trkpt lat="37.7926082" lon="14.1032029"><ele>964.0000000000001</ele><time>2026-04-26T09:41:05.311Z</time></trkpt><trkpt lat="37.7926592" lon="14.103114"><ele>964.0</ele><time>2026-04-26T09:41:06.311Z</time></trkpt><trkpt lat="37.7927181" lon="14.103034"><ele>964.0</ele><time>2026-04-26T09:41:07.311Z</time></trkpt><trkpt lat="37.7927873" lon="14.102933"><ele>963.0</ele><time>2026-04-26T09:41:08.311Z</time></trkpt><trkpt lat="37.7928675" lon="14.1028234"><ele>962.0</ele><time>2026-04-26T09:41:09.311Z</time></trkpt><trkpt lat="37.7929487" lon="14.1027107"><ele>961.0</ele><time>2026-04-26T09:41:10.311Z</time></trkpt><trkpt lat="37.7930302" lon="14.1025928"><ele>960.0</ele><time>2026-04-26T09:41:11.311Z</time></trkpt><trkpt lat="37.793113" lon="14.1024661"><ele>955.75</ele><time>2026-04-26T09:41:12.311Z</time></trkpt><trkpt lat="37.7932013" lon="14.1023389"><ele>951.5</ele><time>2026-04-26T09:41:13.311Z</time></trkpt><trkpt lat="37.7932869" lon="14.1022073"><ele>947.25</ele><time>2026-04-26T09:41:14.311Z</time></trkpt><trkpt lat="37.7933658" lon="14.1020674"><ele>943.0</ele><time>2026-04-26T09:41:15.311Z</time></trkpt><trkpt lat="37.7934274" lon="14.1019182"><ele>943.0</ele><time>2026-04-26T09:41:16.311Z</time></trkpt><trkpt lat="37.7934702" lon="14.1017569"><ele>943.0</ele><time>2026-04-26T09:41:17.311Z</time></trkpt><trkpt lat="37.7935029" lon="14.1015933"><ele>943.0</ele><time>2026-04-26T09:41:18.311Z</time></trkpt><trkpt lat="37.7935153" lon="14.1014313"><ele>943.0</ele><time>2026-04-26T09:41:19.311Z</time></trkpt><trkpt lat="37.7935175" lon="14.1012723"><ele>943.0</ele><time>2026-04-26T09:41:20.311Z</time></trkpt><trkpt lat="37.7935063" lon="14.1011074"><ele>943.0</ele><time>2026-04-26T09:41:21.311Z</time></trkpt><trkpt lat="37.7934871" lon="14.1009422"><ele>943.0</ele><time>2026-04-26T09:41:22.31Z</time></trkpt><trkpt lat="37.7934473" lon="14.1007801"><ele>943.0</ele><time>2026-04-26T09:41:23.311Z</time></trkpt><trkpt lat="37.7933877" lon="14.1006154"><ele>943.0</ele><time>2026-04-26T09:41:24.311Z</time></trkpt><trkpt lat="37.7933194" lon="14.1004497"><ele>943.0</ele><time>2026-04-26T09:41:25.311Z</time></trkpt><trkpt lat="37.7932494" lon="14.1002813"><ele>943.0</ele><time>2026-04-26T09:41:26.311Z</time></trkpt><trkpt lat="37.793179" lon="14.1001099"><ele>943.0</ele><time>2026-04-26T09:41:27.311Z</time></trkpt><trkpt lat="37.793119" lon="14.099938"><ele>943.0</ele><time>2026-04-26T09:41:28.311Z</time></trkpt><trkpt lat="37.7930659" lon="14.099766"><ele>943.0</ele><time>2026-04-26T09:41:29.311Z</time></trkpt><trkpt lat="37.7930177" lon="14.0995973"><ele>943.0</ele><time>2026-04-26T09:41:30.311Z</time></trkpt><trkpt lat="37.7929767" lon="14.0994205"><ele>942.6666666666666</ele><time>2026-04-26T09:41:31.311Z</time></trkpt><trkpt lat="37.7929351" lon="14.099223"><ele>942.3333333333333</ele><time>2026-04-26T09:41:32.31Z</time></trkpt><trkpt lat="37.7928967" lon="14.0990173"><ele>942.0</ele><time>2026-04-26T09:41:33.311Z</time></trkpt><trkpt lat="37.7928596" lon="14.0988087"><ele>942.0</ele><time>2026-04-26T09:41:34.311Z</time></trkpt><trkpt lat="37.7928178" lon="14.0986009"><ele>942.0</ele><time>2026-04-26T09:41:35.311Z</time></trkpt><trkpt lat="37.79278" lon="14.0983901"><ele>942.0</ele><time>2026-04-26T09:41:36.311Z</time></trkpt><trkpt lat="37.7927393" lon="14.0981809"><ele>939.3333333333333</ele><time>2026-04-26T09:41:37.311Z</time></trkpt><trkpt lat="37.7926972" lon="14.0979728"><ele>936.6666666666666</ele><time>2026-04-26T09:41:38.311Z</time></trkpt><trkpt lat="37.7926563" lon="14.0977592"><ele>934.0</ele><time>2026-04-26T09:41:39.311Z</time></trkpt><trkpt lat="37.7926139" lon="14.0975441"><ele>928.3333333333333</ele><time>2026-04-26T09:41:40.31Z</time></trkpt><trkpt lat="37.792573" lon="14.0973306"><ele>922.6666666666667</ele><time>2026-04-26T09:41:41.311Z</time></trkpt><trkpt lat="37.7925316" lon="14.0971145"><ele>917.0</ele><time>2026-04-26T09:41:42.311Z</time></trkpt><trkpt lat="37.7924885" lon="14.0968942"><ele>917.0</ele><time>2026-04-26T09:41:43.311Z</time></trkpt><trkpt lat="37.7924488" lon="14.0966811"><ele>917.0</ele><time>2026-04-26T09:41:44.311Z</time></trkpt><trkpt lat="37.7924107" lon="14.0964692"><ele>917.0</ele><time>2026-04-26T09:41:45.311Z</time></trkpt><trkpt lat="37.7923772" lon="14.0962541"><ele>916.6666666666667</ele><time>2026-04-26T09:41:46.311Z</time></trkpt><trkpt lat="37.7923371" lon="14.0960504"><ele>916.3333333333333</ele><time>2026-04-26T09:41:47.31Z</time></trkpt><trkpt lat="37.7923008" lon="14.0958545"><ele>916.0</ele><time>2026-04-26T09:41:48.311Z</time></trkpt><trkpt lat="37.792263" lon="14.0956727"><ele>915.1999999999999</ele><time>2026-04-26T09:41:49.311Z</time></trkpt><trkpt lat="37.7922308" lon="14.0955147"><ele>914.3999999999999</ele><time>2026-04-26T09:41:50.31Z</time></trkpt><trkpt lat="37.7922202" lon="14.0953744"><ele>913.6</ele><time>2026-04-26T09:41:51.311Z</time></trkpt><trkpt lat="37.7922381" lon="14.0952509"><ele>912.8</ele><time>2026-04-26T09:41:52.311Z</time></trkpt><trkpt lat="37.7922817" lon="14.0951402"><ele>912.0</ele><time>2026-04-26T09:41:53.311Z</time></trkpt><trkpt lat="37.7923437" lon="14.095074"><ele>912.0</ele><time>2026-04-26T09:41:54.311Z</time></trkpt><trkpt lat="37.7924242" lon="14.0950468"><ele>912.0</ele><time>2026-04-26T09:41:55.311Z</time></trkpt><trkpt lat="37.7925081" lon="14.0950486"><ele>912.0</ele><time>2026-04-26T09:41:56.311Z</time></trkpt><trkpt lat="37.7925849" lon="14.0950952"><ele>912.0</ele><time>2026-04-26T09:41:57.31Z</time></trkpt><trkpt lat="37.7926603" lon="14.0951691"><ele>912.0</ele><time>2026-04-26T09:41:58.311Z</time></trkpt><trkpt lat="37.7927183" lon="14.0952727"><ele>912.0</ele><time>2026-04-26T09:41:59.311Z</time></trkpt><trkpt lat="37.7927713" lon="14.0953923"><ele>911.25</ele><time>2026-04-26T09:42:00.311Z</time></trkpt><trkpt lat="37.7928255" lon="14.0955199"><ele>910.5</ele><time>2026-04-26T09:42:01.311Z</time></trkpt><trkpt lat="37.7928866" lon="14.0956491"><ele>909.75</ele><time>2026-04-26T09:42:02.311Z</time></trkpt><trkpt lat="37.7929402" lon="14.0957762"><ele>909.0</ele><time>2026-04-26T09:42:03.311Z</time></trkpt><trkpt lat="37.7929944" lon="14.0959037"><ele>909.0</ele><time>2026-04-26T09:42:04.311Z</time></trkpt><trkpt lat="37.7930479" lon="14.0960193"><ele>909.0000000000001</ele><time>2026-04-26T09:42:05.311Z</time></trkpt><trkpt lat="37.7931076" lon="14.0961234"><ele>909.0000000000001</ele><time>2026-04-26T09:42:06.311Z</time></trkpt><trkpt lat="37.7931757" lon="14.0962196"><ele>909.0</ele><time>2026-04-26T09:42:07.311Z</time></trkpt><trkpt lat="37.7932532" lon="14.0962936"><ele>909.0</ele><time>2026-04-26T09:42:08.311Z</time></trkpt><trkpt lat="37.7933476" lon="14.096343"><ele>909.0</ele><time>2026-04-26T09:42:09.311Z</time></trkpt><trkpt lat="37.7934516" lon="14.0963753"><ele>909.0000000000001</ele><time>2026-04-26T09:42:10.311Z</time></trkpt><trkpt lat="37.7935613" lon="14.0963833"><ele>909.0000000000001</ele><time>2026-04-26T09:42:11.311Z</time></trkpt><trkpt lat="37.793669" lon="14.0963829"><ele>909.0</ele><time>2026-04-26T09:42:12.311Z</time></trkpt><trkpt lat="37.7937686" lon="14.0963807"><ele>909.0</ele><time>2026-04-26T09:42:13.311Z</time></trkpt><trkpt lat="37.7938641" lon="14.0963794"><ele>909.0</ele><time>2026-04-26T09:42:14.311Z</time></trkpt><trkpt lat="37.7939441" lon="14.0963748"><ele>909.0</ele><time>2026-04-26T09:42:15.311Z</time></trkpt><trkpt lat="37.7940092" lon="14.0963662"><ele>909.0</ele><time>2026-04-26T09:42:16.31Z</time></trkpt><trkpt lat="37.7941053" lon="14.0963429"><ele>909.0</ele><time>2026-04-26T09:42:18.311Z</time></trkpt><trkpt lat="37.7941832" lon="14.0963134"><ele>909.0</ele><time>2026-04-26T09:42:20.311Z</time></trkpt><trkpt lat="37.7942723" lon="14.0962756"><ele>909.0</ele><time>2026-04-26T09:43:05.311Z</time></trkpt><trkpt lat="37.794399" lon="14.0962408"><ele>909.0</ele><time>2026-04-26T09:43:07.311Z</time></trkpt><trkpt lat="37.7944804" lon="14.096202"><ele>909.0000000000001</ele><time>2026-04-26T09:43:08.311Z</time></trkpt><trkpt lat="37.7945702" lon="14.0961526"><ele>909.0000000000001</ele><time>2026-04-26T09:43:09.311Z</time></trkpt><trkpt lat="37.7946589" lon="14.0960933"><ele>909.0</ele><time>2026-04-26T09:43:10.311Z</time></trkpt><trkpt lat="37.7947433" lon="14.0960172"><ele>909.0</ele><time>2026-04-26T09:43:11.311Z</time></trkpt><trkpt lat="37.794822" lon="14.0959321"><ele>909.0</ele><time>2026-04-26T09:43:12.311Z</time></trkpt><trkpt lat="37.7948965" lon="14.0958488"><ele>909.0000000000001</ele><time>2026-04-26T09:43:13.311Z</time></trkpt><trkpt lat="37.7949644" lon="14.0957628"><ele>909.0000000000001</ele><time>2026-04-26T09:43:14.311Z</time></trkpt><trkpt lat="37.7950252" lon="14.0956679"><ele>909.0</ele><time>2026-04-26T09:43:15.311Z</time></trkpt><trkpt lat="37.7950776" lon="14.095569"><ele>909.0</ele><time>2026-04-26T09:43:16.311Z</time></trkpt><trkpt lat="37.795122" lon="14.0954592"><ele>908.6</ele><time>2026-04-26T09:43:17.311Z</time></trkpt><trkpt lat="37.7951566" lon="14.0953424"><ele>908.2</ele><time>2026-04-26T09:43:18.311Z</time></trkpt><trkpt lat="37.795186" lon="14.0952204"><ele>907.8000000000001</ele><time>2026-04-26T09:43:19.311Z</time></trkpt><trkpt lat="37.7952167" lon="14.095098"><ele>907.4000000000001</ele><time>2026-04-26T09:43:20.311Z</time></trkpt><trkpt lat="37.7952446" lon="14.0949709"><ele>907.0</ele><time>2026-04-26T09:43:21.31Z</time></trkpt><trkpt lat="37.7952723" lon="14.0948498"><ele>903.8</ele><time>2026-04-26T09:43:22.31Z</time></trkpt><trkpt lat="37.7952992" lon="14.0947324"><ele>900.6</ele><time>2026-04-26T09:43:23.31Z</time></trkpt><trkpt lat="37.7953254" lon="14.0946169"><ele>897.3999999999999</ele><time>2026-04-26T09:43:24.311Z</time></trkpt><trkpt lat="37.7953559" lon="14.0945123"><ele>894.1999999999999</ele><time>2026-04-26T09:43:25.31Z</time></trkpt><trkpt lat="37.7953905" lon="14.0944082"><ele>891.0</ele><time>2026-04-26T09:43:26.311Z</time></trkpt><trkpt lat="37.7954406" lon="14.0943118"><ele>891.0</ele><time>2026-04-26T09:43:27.311Z</time></trkpt><trkpt lat="37.795497" lon="14.0942167"><ele>890.9999999999999</ele><time>2026-04-26T09:43:28.311Z</time></trkpt><trkpt lat="37.7955657" lon="14.0941248"><ele>890.9999999999999</ele><time>2026-04-26T09:43:29.311Z</time></trkpt><trkpt lat="37.7956399" lon="14.0940324"><ele>891.0</ele><time>2026-04-26T09:43:30.311Z</time></trkpt><trkpt lat="37.7957211" lon="14.0939444"><ele>891.0</ele><time>2026-04-26T09:43:31.311Z</time></trkpt><trkpt lat="37.7958112" lon="14.0938559"><ele>888.0</ele><time>2026-04-26T09:43:32.31Z</time></trkpt><trkpt lat="37.7959041" lon="14.0937637"><ele>885.0</ele><time>2026-04-26T09:43:33.311Z</time></trkpt><trkpt lat="37.795996" lon="14.0936663"><ele>882.0</ele><time>2026-04-26T09:43:34.311Z</time></trkpt><trkpt lat="37.7960913" lon="14.0935669"><ele>879.0</ele><time>2026-04-26T09:43:35.311Z</time></trkpt><trkpt lat="37.7961895" lon="14.0934661"><ele>879.0</ele><time>2026-04-26T09:43:36.311Z</time></trkpt><trkpt lat="37.7962891" lon="14.0933581"><ele>879.0</ele><time>2026-04-26T09:43:37.311Z</time></trkpt><trkpt lat="37.7963895" lon="14.0932502"><ele>879.0</ele><time>2026-04-26T09:43:38.311Z</time></trkpt><trkpt lat="37.7964928" lon="14.093141"><ele>879.0</ele><time>2026-04-26T09:43:39.311Z</time></trkpt><trkpt lat="37.7966013" lon="14.0930266"><ele>878.5</ele><time>2026-04-26T09:43:40.311Z</time></trkpt><trkpt lat="37.7967062" lon="14.0929142"><ele>878.0</ele><time>2026-04-26T09:43:41.311Z</time></trkpt><trkpt lat="37.7968102" lon="14.0927991"><ele>877.5</ele><time>2026-04-26T09:43:42.311Z</time></trkpt><trkpt lat="37.7968852" lon="14.0926791"><ele>877.0</ele><time>2026-04-26T09:43:43.311Z</time></trkpt><trkpt lat="37.7969864" lon="14.0925671"><ele>877.0</ele><time>2026-04-26T09:43:44.311Z</time></trkpt><trkpt lat="37.7970838" lon="14.0924582"><ele>877.0</ele><time>2026-04-26T09:43:45.311Z</time></trkpt><trkpt lat="37.7971878" lon="14.0923534"><ele>877.0</ele><time>2026-04-26T09:43:46.311Z</time></trkpt><trkpt lat="37.7972854" lon="14.0922523"><ele>877.0</ele><time>2026-04-26T09:43:47.311Z</time></trkpt><trkpt lat="37.7973825" lon="14.0921473"><ele>872.75</ele><time>2026-04-26T09:43:48.311Z</time></trkpt><trkpt lat="37.7974669" lon="14.092043"><ele>868.5</ele><time>2026-04-26T09:43:49.311Z</time></trkpt><trkpt lat="37.7975566" lon="14.0919521"><ele>864.25</ele><time>2026-04-26T09:43:50.311Z</time></trkpt><trkpt lat="37.7976496" lon="14.0918644"><ele>860.0</ele><time>2026-04-26T09:43:51.311Z</time></trkpt><trkpt lat="37.7977447" lon="14.0917816"><ele>860.0</ele><time>2026-04-26T09:43:52.311Z</time></trkpt><trkpt lat="37.7978363" lon="14.091713"><ele>860.0</ele><time>2026-04-26T09:43:53.311Z</time></trkpt><trkpt lat="37.7979351" lon="14.0916476"><ele>860.0</ele><time>2026-04-26T09:43:54.311Z</time></trkpt><trkpt lat="37.7980363" lon="14.0915922"><ele>860.0</ele><time>2026-04-26T09:43:55.311Z</time></trkpt><trkpt lat="37.7981411" lon="14.0915503"><ele>860.0</ele><time>2026-04-26T09:43:56.311Z</time></trkpt><trkpt lat="37.7982492" lon="14.0915161"><ele>856.8</ele><time>2026-04-26T09:43:57.311Z</time></trkpt><trkpt lat="37.7983605" lon="14.0914885"><ele>853.6</ele><time>2026-04-26T09:43:58.311Z</time></trkpt><trkpt lat="37.7984668" lon="14.0914652"><ele>850.4000000000001</ele><time>2026-04-26T09:43:59.311Z</time></trkpt><trkpt lat="37.7985737" lon="14.0914465"><ele>847.2</ele><time>2026-04-26T09:44:00.311Z</time></trkpt><trkpt lat="37.7986812" lon="14.0914361"><ele>844.0</ele><time>2026-04-26T09:44:01.311Z</time></trkpt><trkpt lat="37.7987909" lon="14.0914369"><ele>843.6</ele><time>2026-04-26T09:44:02.311Z</time></trkpt><trkpt lat="37.7988971" lon="14.0914518"><ele>843.2</ele><time>2026-04-26T09:44:03.311Z</time></trkpt><trkpt lat="37.7990014" lon="14.0914818"><ele>842.8000000000001</ele><time>2026-04-26T09:44:04.311Z</time></trkpt><trkpt lat="37.7991098" lon="14.0915261"><ele>842.4000000000001</ele><time>2026-04-26T09:44:05.311Z</time></trkpt><trkpt lat="37.7992209" lon="14.0915798"><ele>842.0</ele><time>2026-04-26T09:44:06.31Z</time></trkpt><trkpt lat="37.7993307" lon="14.0916368"><ele>843.0</ele><time>2026-04-26T09:44:07.311Z</time></trkpt><trkpt lat="37.7994462" lon="14.0916906"><ele>844.0</ele><time>2026-04-26T09:44:08.311Z</time></trkpt><trkpt lat="37.7995641" lon="14.0917188"><ele>845.0</ele><time>2026-04-26T09:44:09.311Z</time></trkpt><trkpt lat="37.7996924" lon="14.0917274"><ele>846.0</ele><time>2026-04-26T09:44:10.311Z</time></trkpt><trkpt lat="37.7998264" lon="14.0917202"><ele>846.0</ele><time>2026-04-26T09:44:11.311Z</time></trkpt><trkpt lat="37.799963" lon="14.091705"><ele>846.0</ele><time>2026-04-26T09:44:12.311Z</time></trkpt><trkpt lat="37.8000971" lon="14.0916818"><ele>846.0</ele><time>2026-04-26T09:44:13.311Z</time></trkpt><trkpt lat="37.800226" lon="14.0916603"><ele>846.0</ele><time>2026-04-26T09:44:14.311Z</time></trkpt><trkpt lat="37.8003509" lon="14.091637"><ele>845.25</ele><time>2026-04-26T09:44:15.311Z</time></trkpt><trkpt lat="37.8004706" lon="14.0916159"><ele>844.5</ele><time>2026-04-26T09:44:16.311Z</time></trkpt><trkpt lat="37.8005887" lon="14.0915881"><ele>843.75</ele><time>2026-04-26T09:44:17.311Z</time></trkpt><trkpt lat="37.8007036" lon="14.0915419"><ele>843.0</ele><time>2026-04-26T09:44:18.311Z</time></trkpt><trkpt lat="37.8008154" lon="14.0914727"><ele>843.0</ele><time>2026-04-26T09:44:19.311Z</time></trkpt><trkpt lat="37.8009296" lon="14.0913848"><ele>843.0</ele><time>2026-04-26T09:44:20.311Z</time></trkpt><trkpt lat="37.801043" lon="14.0912792"><ele>843.0</ele><time>2026-04-26T09:44:21.311Z</time></trkpt><trkpt lat="37.8011462" lon="14.0911652"><ele>843.0</ele><time>2026-04-26T09:44:22.311Z</time></trkpt><trkpt lat="37.8012442" lon="14.0910513"><ele>843.25</ele><time>2026-04-26T09:44:23.311Z</time></trkpt><trkpt lat="37.8013372" lon="14.0909451"><ele>843.5</ele><time>2026-04-26T09:44:24.311Z</time></trkpt><trkpt lat="37.8014335" lon="14.0908446"><ele>843.75</ele><time>2026-04-26T09:44:25.31Z</time></trkpt><trkpt lat="37.8015333" lon="14.0907494"><ele>844.0</ele><time>2026-04-26T09:44:26.311Z</time></trkpt><trkpt lat="37.8016446" lon="14.0906657"><ele>844.0</ele><time>2026-04-26T09:44:27.311Z</time></trkpt><trkpt lat="37.8017577" lon="14.0905965"><ele>844.0</ele><time>2026-04-26T09:44:28.311Z</time></trkpt><trkpt lat="37.8018696" lon="14.0905461"><ele>844.0</ele><time>2026-04-26T09:44:29.311Z</time></trkpt><trkpt lat="37.8019772" lon="14.0905155"><ele>844.0</ele><time>2026-04-26T09:44:30.311Z</time></trkpt><trkpt lat="37.802088" lon="14.0904984"><ele>847.5</ele><time>2026-04-26T09:44:31.311Z</time></trkpt><trkpt lat="37.8021992" lon="14.0904799"><ele>851.0</ele><time>2026-04-26T09:44:32.311Z</time></trkpt><trkpt lat="37.8023157" lon="14.0904559"><ele>854.5</ele><time>2026-04-26T09:44:33.311Z</time></trkpt><trkpt lat="37.8024406" lon="14.0904218"><ele>858.0</ele><time>2026-04-26T09:44:34.311Z</time></trkpt><trkpt lat="37.8025764" lon="14.0904063"><ele>861.5</ele><time>2026-04-26T09:44:35.311Z</time></trkpt><trkpt lat="37.8027222" lon="14.0903801"><ele>865.0</ele><time>2026-04-26T09:44:36.311Z</time></trkpt><trkpt lat="37.8028658" lon="14.0903401"><ele>868.5</ele><time>2026-04-26T09:44:37.311Z</time></trkpt><trkpt lat="37.8030048" lon="14.0902736"><ele>872.0</ele><time>2026-04-26T09:44:38.311Z</time></trkpt><trkpt lat="37.8031321" lon="14.0901938"><ele>872.0</ele><time>2026-04-26T09:44:39.311Z</time></trkpt><trkpt lat="37.8032471" lon="14.090103"><ele>872.0</ele><time>2026-04-26T09:44:40.311Z</time></trkpt><trkpt lat="37.8033627" lon="14.0900029"><ele>872.0</ele><time>2026-04-26T09:44:41.311Z</time></trkpt><trkpt lat="37.8034754" lon="14.0898943"><ele>872.0</ele><time>2026-04-26T09:44:42.311Z</time></trkpt><trkpt lat="37.8035749" lon="14.0897798"><ele>872.25</ele><time>2026-04-26T09:44:43.311Z</time></trkpt><trkpt lat="37.8036681" lon="14.0896733"><ele>872.5</ele><time>2026-04-26T09:44:44.311Z</time></trkpt><trkpt lat="37.8037542" lon="14.0895694"><ele>872.75</ele><time>2026-04-26T09:44:45.311Z</time></trkpt><trkpt lat="37.8038394" lon="14.0894508"><ele>873.0</ele><time>2026-04-26T09:44:46.311Z</time></trkpt><trkpt lat="37.8039217" lon="14.0893175"><ele>873.0</ele><time>2026-04-26T09:44:47.311Z</time></trkpt><trkpt lat="37.80399" lon="14.0891774"><ele>873.0</ele><time>2026-04-26T09:44:48.311Z</time></trkpt><trkpt lat="37.8040461" lon="14.0890353"><ele>873.0</ele><time>2026-04-26T09:44:49.311Z</time></trkpt><trkpt lat="37.8040962" lon="14.0888929"><ele>873.0</ele><time>2026-04-26T09:44:50.311Z</time></trkpt><trkpt lat="37.8041477" lon="14.088748"><ele>870.0</ele><time>2026-04-26T09:44:51.311Z</time></trkpt><trkpt lat="37.8042051" lon="14.0886038"><ele>867.0</ele><time>2026-04-26T09:44:52.311Z</time></trkpt><trkpt lat="37.804268" lon="14.0884604"><ele>864.0</ele><time>2026-04-26T09:44:53.311Z</time></trkpt><trkpt lat="37.8043383" lon="14.0883277"><ele>861.0</ele><time>2026-04-26T09:44:54.311Z</time></trkpt><trkpt lat="37.8044175" lon="14.0882097"><ele>856.25</ele><time>2026-04-26T09:44:55.311Z</time></trkpt><trkpt lat="37.8045116" lon="14.0881167"><ele>851.5</ele><time>2026-04-26T09:44:56.311Z</time></trkpt><trkpt lat="37.8046153" lon="14.0880437"><ele>846.75</ele><time>2026-04-26T09:44:57.311Z</time></trkpt><trkpt lat="37.8047246" lon="14.0879803"><ele>842.0</ele><time>2026-04-26T09:44:58.311Z</time></trkpt><trkpt lat="37.8048264" lon="14.0879143"><ele>842.0</ele><time>2026-04-26T09:44:59.311Z</time></trkpt><trkpt lat="37.8049251" lon="14.0878475"><ele>842.0</ele><time>2026-04-26T09:45:00.311Z</time></trkpt><trkpt lat="37.8050248" lon="14.0877838"><ele>842.0</ele><time>2026-04-26T09:45:01.311Z</time></trkpt><trkpt lat="37.8051184" lon="14.0877178"><ele>842.0</ele><time>2026-04-26T09:45:02.311Z</time></trkpt><trkpt lat="37.8052085" lon="14.0876508"><ele>842.0</ele><time>2026-04-26T09:45:03.311Z</time></trkpt><trkpt lat="37.8052953" lon="14.0875843"><ele>840.6</ele><time>2026-04-26T09:45:04.311Z</time></trkpt><trkpt lat="37.8053805" lon="14.0875099"><ele>839.2</ele><time>2026-04-26T09:45:05.311Z</time></trkpt><trkpt lat="37.8054611" lon="14.0874271"><ele>837.8</ele><time>2026-04-26T09:45:06.311Z</time></trkpt><trkpt lat="37.8055373" lon="14.0873457"><ele>836.4</ele><time>2026-04-26T09:45:07.311Z</time></trkpt><trkpt lat="37.8056074" lon="14.0872593"><ele>835.0</ele><time>2026-04-26T09:45:08.311Z</time></trkpt><trkpt lat="37.8056736" lon="14.0871731"><ele>835.0</ele><time>2026-04-26T09:45:09.311Z</time></trkpt><trkpt lat="37.8057393" lon="14.0870852"><ele>835.0</ele><time>2026-04-26T09:45:10.311Z</time></trkpt><trkpt lat="37.8058053" lon="14.086994"><ele>835.0</ele><time>2026-04-26T09:45:11.311Z</time></trkpt><trkpt lat="37.8058728" lon="14.0869051"><ele>835.0</ele><time>2026-04-26T09:45:12.31Z</time></trkpt><trkpt lat="37.8059384" lon="14.0868201"><ele>835.0</ele><time>2026-04-26T09:45:13.31Z</time></trkpt><trkpt lat="37.806012" lon="14.0867469"><ele>835.6666666666666</ele><time>2026-04-26T09:45:14.31Z</time></trkpt><trkpt lat="37.8060864" lon="14.0866904"><ele>836.3333333333333</ele><time>2026-04-26T09:45:15.31Z</time></trkpt><trkpt lat="37.8061499" lon="14.0866442"><ele>837.0</ele><time>2026-04-26T09:45:16.31Z</time></trkpt><trkpt lat="37.8062246" lon="14.0865452"><ele>837.6666666666667</ele><time>2026-04-26T09:45:18.31Z</time></trkpt><trkpt lat="37.806274" lon="14.0864568"><ele>838.3333333333334</ele><time>2026-04-26T09:45:21.31Z</time></trkpt><trkpt lat="37.8062742" lon="14.0863722"><ele>839.0</ele><time>2026-04-26T09:45:25.31Z</time></trkpt><trkpt lat="37.8062265" lon="14.0863044"><ele>835.5</ele><time>2026-04-26T09:45:27.31Z</time></trkpt><trkpt lat="37.8060852" lon="14.0862839"><ele>832.0</ele><time>2026-04-26T09:45:29.31Z</time></trkpt><trkpt lat="37.805984" lon="14.0862969"><ele>828.5</ele><time>2026-04-26T09:45:30.31Z</time></trkpt><trkpt lat="37.8058767" lon="14.086334"><ele>825.0</ele><time>2026-04-26T09:45:31.31Z</time></trkpt><trkpt lat="37.8057647" lon="14.0863752"><ele>824.6</ele><time>2026-04-26T09:45:32.31Z</time></trkpt><trkpt lat="37.8056556" lon="14.0864172"><ele>824.2</ele><time>2026-04-26T09:45:33.31Z</time></trkpt><trkpt lat="37.8055427" lon="14.0864407"><ele>823.8</ele><time>2026-04-26T09:45:34.31Z</time></trkpt><trkpt lat="37.8054313" lon="14.0864359"><ele>823.4</ele><time>2026-04-26T09:45:35.31Z</time></trkpt><trkpt lat="37.8053303" lon="14.0863936"><ele>823.0</ele><time>2026-04-26T09:45:36.31Z</time></trkpt><trkpt lat="37.8052709" lon="14.0863112"><ele>823.0</ele><time>2026-04-26T09:45:37.31Z</time></trkpt><trkpt lat="37.8052479" lon="14.0862116"><ele>823.0</ele><time>2026-04-26T09:45:38.31Z</time></trkpt><trkpt lat="37.8052677" lon="14.0860905"><ele>823.0</ele><time>2026-04-26T09:45:39.309Z</time></trkpt><trkpt lat="37.8053127" lon="14.0859629"><ele>823.0</ele><time>2026-04-26T09:45:40.31Z</time></trkpt><trkpt lat="37.8053959" lon="14.0858425"><ele>823.0</ele><time>2026-04-26T09:45:41.31Z</time></trkpt><trkpt lat="37.8054897" lon="14.0857366"><ele>819.0</ele><time>2026-04-26T09:45:42.31Z</time></trkpt><trkpt lat="37.8055914" lon="14.0856417"><ele>815.0</ele><time>2026-04-26T09:45:43.31Z</time></trkpt><trkpt lat="37.805702" lon="14.0855596"><ele>811.0</ele><time>2026-04-26T09:45:44.31Z</time></trkpt><trkpt lat="37.8058149" lon="14.0854879"><ele>807.0</ele><time>2026-04-26T09:45:45.309Z</time></trkpt><trkpt lat="37.8059335" lon="14.0854201"><ele>808.5</ele><time>2026-04-26T09:45:46.309Z</time></trkpt><trkpt lat="37.8060625" lon="14.0853621"><ele>810.0</ele><time>2026-04-26T09:45:47.31Z</time></trkpt><trkpt lat="37.8061954" lon="14.0852875"><ele>811.5</ele><time>2026-04-26T09:45:48.31Z</time></trkpt><trkpt lat="37.8063352" lon="14.0851999"><ele>813.0</ele><time>2026-04-26T09:45:49.31Z</time></trkpt><trkpt lat="37.8064772" lon="14.0851148"><ele>813.0</ele><time>2026-04-26T09:45:50.309Z</time></trkpt><trkpt lat="37.806622" lon="14.0850372"><ele>813.0</ele><time>2026-04-26T09:45:51.31Z</time></trkpt><trkpt lat="37.8067551" lon="14.0849512"><ele>813.0</ele><time>2026-04-26T09:45:52.31Z</time></trkpt><trkpt lat="37.8068962" lon="14.0848809"><ele>810.75</ele><time>2026-04-26T09:45:53.31Z</time></trkpt><trkpt lat="37.8070277" lon="14.0848125"><ele>808.5</ele><time>2026-04-26T09:45:54.309Z</time></trkpt><trkpt lat="37.8071567" lon="14.0847356"><ele>806.25</ele><time>2026-04-26T09:45:55.31Z</time></trkpt><trkpt lat="37.8072766" lon="14.0846389"><ele>804.0</ele><time>2026-04-26T09:45:56.31Z</time></trkpt><trkpt lat="37.8073914" lon="14.0845123"><ele>804.0</ele><time>2026-04-26T09:45:57.309Z</time></trkpt><trkpt lat="37.8074796" lon="14.0843643"><ele>804.0</ele><time>2026-04-26T09:45:58.31Z</time></trkpt><trkpt lat="37.8075347" lon="14.0841914"><ele>804.0</ele><time>2026-04-26T09:45:59.309Z</time></trkpt><trkpt lat="37.8075605" lon="14.084002"><ele>804.0</ele><time>2026-04-26T09:46:00.31Z</time></trkpt><trkpt lat="37.8075647" lon="14.08379"><ele>805.75</ele><time>2026-04-26T09:46:01.309Z</time></trkpt><trkpt lat="37.8075724" lon="14.083607"><ele>807.5</ele><time>2026-04-26T09:46:02.31Z</time></trkpt><trkpt lat="37.8075473" lon="14.0834398"><ele>809.25</ele><time>2026-04-26T09:46:03.31Z</time></trkpt><trkpt lat="37.8074964" lon="14.0832893"><ele>811.0</ele><time>2026-04-26T09:46:04.309Z</time></trkpt><trkpt lat="37.8074198" lon="14.0831611"><ele>817.75</ele><time>2026-04-26T09:46:05.31Z</time></trkpt><trkpt lat="37.8073245" lon="14.0830557"><ele>824.5</ele><time>2026-04-26T09:46:06.31Z</time></trkpt><trkpt lat="37.8071947" lon="14.0829913"><ele>831.25</ele><time>2026-04-26T09:46:07.31Z</time></trkpt><trkpt lat="37.8070586" lon="14.0829398"><ele>838.0</ele><time>2026-04-26T09:46:08.31Z</time></trkpt><trkpt lat="37.8069172" lon="14.0829024"><ele>835.3333333333333</ele><time>2026-04-26T09:46:09.31Z</time></trkpt><trkpt lat="37.8067716" lon="14.0828786"><ele>832.6666666666667</ele><time>2026-04-26T09:46:10.31Z</time></trkpt><trkpt lat="37.8066202" lon="14.0828648"><ele>830.0</ele><time>2026-04-26T09:46:11.31Z</time></trkpt><trkpt lat="37.8064594" lon="14.0828899"><ele>830.0</ele><time>2026-04-26T09:46:12.31Z</time></trkpt><trkpt lat="37.8062854" lon="14.0829206"><ele>830.0</ele><time>2026-04-26T09:46:13.31Z</time></trkpt><trkpt lat="37.8061233" lon="14.0829579"><ele>830.0</ele><time>2026-04-26T09:46:14.309Z</time></trkpt><trkpt lat="37.8059586" lon="14.082974"><ele>830.0</ele><time>2026-04-26T09:46:15.31Z</time></trkpt><trkpt lat="37.8057872" lon="14.082954"><ele>830.0</ele><time>2026-04-26T09:46:16.31Z</time></trkpt><trkpt lat="37.8056076" lon="14.0829291"><ele>830.0</ele><time>2026-04-26T09:46:17.31Z</time></trkpt><trkpt lat="37.8054212" lon="14.0829029"><ele>830.0</ele><time>2026-04-26T09:46:18.31Z</time></trkpt><trkpt lat="37.8052279" lon="14.0828845"><ele>830.0</ele><time>2026-04-26T09:46:19.31Z</time></trkpt><trkpt lat="37.8050296" lon="14.0828622"><ele>830.0</ele><time>2026-04-26T09:46:20.31Z</time></trkpt><trkpt lat="37.8048329" lon="14.0828345"><ele>828.6666666666667</ele><time>2026-04-26T09:46:21.31Z</time></trkpt><trkpt lat="37.8046323" lon="14.0827959"><ele>827.3333333333333</ele><time>2026-04-26T09:46:22.31Z</time></trkpt><trkpt lat="37.8044419" lon="14.0827367"><ele>826.0</ele><time>2026-04-26T09:46:23.31Z</time></trkpt><trkpt lat="37.8042637" lon="14.0826494"><ele>824.6666666666666</ele><time>2026-04-26T09:46:24.31Z</time></trkpt><trkpt lat="37.8040995" lon="14.0825431"><ele>823.3333333333333</ele><time>2026-04-26T09:46:25.31Z</time></trkpt><trkpt lat="37.8039515" lon="14.0824012"><ele>822.0</ele><time>2026-04-26T09:46:26.309Z</time></trkpt><trkpt lat="37.8038102" lon="14.0822524"><ele>826.0</ele><time>2026-04-26T09:46:27.309Z</time></trkpt><trkpt lat="37.8036518" lon="14.0821223"><ele>830.0</ele><time>2026-04-26T09:46:28.31Z</time></trkpt><trkpt lat="37.8034816" lon="14.0820258"><ele>834.0</ele><time>2026-04-26T09:46:29.31Z</time></trkpt><trkpt lat="37.8032913" lon="14.0819384"><ele>836.0</ele><time>2026-04-26T09:46:30.31Z</time></trkpt><trkpt lat="37.8030829" lon="14.0818755"><ele>838.0</ele><time>2026-04-26T09:46:31.31Z</time></trkpt><trkpt lat="37.8028858" lon="14.0818516"><ele>840.0</ele><time>2026-04-26T09:46:32.31Z</time></trkpt><trkpt lat="37.8027103" lon="14.0818758"><ele>839.6666666666667</ele><time>2026-04-26T09:46:33.31Z</time></trkpt><trkpt lat="37.8025332" lon="14.0818987"><ele>839.3333333333334</ele><time>2026-04-26T09:46:34.31Z</time></trkpt><trkpt lat="37.8023571" lon="14.0818857"><ele>839.0</ele><time>2026-04-26T09:46:35.31Z</time></trkpt><trkpt lat="37.8021733" lon="14.0818626"><ele>839.0</ele><time>2026-04-26T09:46:36.31Z</time></trkpt><trkpt lat="37.8019875" lon="14.0818179"><ele>839.0</ele><time>2026-04-26T09:46:37.31Z</time></trkpt><trkpt lat="37.801799" lon="14.0817571"><ele>839.0</ele><time>2026-04-26T09:46:38.31Z</time></trkpt><trkpt lat="37.8016103" lon="14.0816977"><ele>838.3333333333334</ele><time>2026-04-26T09:46:39.31Z</time></trkpt><trkpt lat="37.8014211" lon="14.0816598"><ele>837.6666666666667</ele><time>2026-04-26T09:46:40.31Z</time></trkpt><trkpt lat="37.8012298" lon="14.0816404"><ele>837.0</ele><time>2026-04-26T09:46:41.31Z</time></trkpt><trkpt lat="37.8010412" lon="14.0816559"><ele>837.6666666666667</ele><time>2026-04-26T09:46:42.31Z</time></trkpt><trkpt lat="37.8008434" lon="14.0816956"><ele>838.3333333333334</ele><time>2026-04-26T09:46:43.31Z</time></trkpt><trkpt lat="37.8006616" lon="14.0817549"><ele>839.0</ele><time>2026-04-26T09:46:44.31Z</time></trkpt><trkpt lat="37.8004838" lon="14.0818109"><ele>839.0</ele><time>2026-04-26T09:46:45.31Z</time></trkpt><trkpt lat="37.8003083" lon="14.0818454"><ele>839.0</ele><time>2026-04-26T09:46:46.31Z</time></trkpt><trkpt lat="37.800132" lon="14.0818631"><ele>839.0</ele><time>2026-04-26T09:46:47.31Z</time></trkpt><trkpt lat="37.7999474" lon="14.0818653"><ele>841.0</ele><time>2026-04-26T09:46:48.31Z</time></trkpt><trkpt lat="37.7997606" lon="14.0818459"><ele>843.0</ele><time>2026-04-26T09:46:49.31Z</time></trkpt><trkpt lat="37.7995722" lon="14.081792"><ele>845.0</ele><time>2026-04-26T09:46:50.31Z</time></trkpt><trkpt lat="37.7993927" lon="14.0817163"><ele>843.3333333333334</ele><time>2026-04-26T09:46:51.31Z</time></trkpt><trkpt lat="37.799221" lon="14.0816361"><ele>841.6666666666667</ele><time>2026-04-26T09:46:52.31Z</time></trkpt><trkpt lat="37.799046" lon="14.0815297"><ele>840.0</ele><time>2026-04-26T09:46:53.31Z</time></trkpt><trkpt lat="37.7988606" lon="14.081382"><ele>841.5</ele><time>2026-04-26T09:46:54.31Z</time></trkpt><trkpt lat="37.798669" lon="14.0811978"><ele>843.0</ele><time>2026-04-26T09:46:55.31Z</time></trkpt><trkpt lat="37.7984678" lon="14.0809623"><ele>843.0</ele><time>2026-04-26T09:46:56.31Z</time></trkpt><trkpt lat="37.7982765" lon="14.0808043"><ele>843.0</ele><time>2026-04-26T09:46:57.31Z</time></trkpt><trkpt lat="37.7980761" lon="14.0806466"><ele>842.3333333333333</ele><time>2026-04-26T09:46:58.309Z</time></trkpt><trkpt lat="37.797888" lon="14.0804857"><ele>841.6666666666666</ele><time>2026-04-26T09:46:59.31Z</time></trkpt><trkpt lat="37.7977166" lon="14.0803074"><ele>841.0</ele><time>2026-04-26T09:47:00.31Z</time></trkpt><trkpt lat="37.7975761" lon="14.0801155"><ele>846.3333333333333</ele><time>2026-04-26T09:47:01.31Z</time></trkpt><trkpt lat="37.7974507" lon="14.0799156"><ele>851.6666666666667</ele><time>2026-04-26T09:47:02.31Z</time></trkpt><trkpt lat="37.7973197" lon="14.0797251"><ele>857.0</ele><time>2026-04-26T09:47:03.31Z</time></trkpt><trkpt lat="37.7971636" lon="14.0795697"><ele>857.0</ele><time>2026-04-26T09:47:04.31Z</time></trkpt><trkpt lat="37.7969981" lon="14.0794365"><ele>857.0</ele><time>2026-04-26T09:47:05.31Z</time></trkpt><trkpt lat="37.7968259" lon="14.0793315"><ele>857.0</ele><time>2026-04-26T09:47:06.31Z</time></trkpt><trkpt lat="37.7966582" lon="14.0792401"><ele>852.0</ele><time>2026-04-26T09:47:07.309Z</time></trkpt><trkpt lat="37.7964935" lon="14.0791754"><ele>847.0</ele><time>2026-04-26T09:47:08.31Z</time></trkpt><trkpt lat="37.7963013" lon="14.0791532"><ele>842.0</ele><time>2026-04-26T09:47:09.31Z</time></trkpt><trkpt lat="37.7961062" lon="14.0791451"><ele>841.0</ele><time>2026-04-26T09:47:10.31Z</time></trkpt><trkpt lat="37.7958981" lon="14.0791631"><ele>840.0</ele><time>2026-04-26T09:47:11.31Z</time></trkpt><trkpt lat="37.7956903" lon="14.079192"><ele>839.0</ele><time>2026-04-26T09:47:12.31Z</time></trkpt><trkpt lat="37.7954972" lon="14.0792203"><ele>839.0</ele><time>2026-04-26T09:47:13.31Z</time></trkpt><trkpt lat="37.7953118" lon="14.0792348"><ele>839.0</ele><time>2026-04-26T09:47:14.31Z</time></trkpt><trkpt lat="37.7951125" lon="14.0792249"><ele>839.0</ele><time>2026-04-26T09:47:15.31Z</time></trkpt><trkpt lat="37.7949071" lon="14.0791791"><ele>840.3333333333334</ele><time>2026-04-26T09:47:16.31Z</time></trkpt><trkpt lat="37.7946977" lon="14.0791144"><ele>841.6666666666667</ele><time>2026-04-26T09:47:17.31Z</time></trkpt><trkpt lat="37.7944811" lon="14.0790396"><ele>843.0</ele><time>2026-04-26T09:47:18.309Z</time></trkpt><trkpt lat="37.7942524" lon="14.0789767"><ele>850.0</ele><time>2026-04-26T09:47:19.31Z</time></trkpt><trkpt lat="37.7940071" lon="14.0789226"><ele>857.0</ele><time>2026-04-26T09:47:20.31Z</time></trkpt><trkpt lat="37.7937662" lon="14.0788787"><ele>857.0</ele><time>2026-04-26T09:47:21.31Z</time></trkpt><trkpt lat="37.7935391" lon="14.0788362"><ele>857.0</ele><time>2026-04-26T09:47:22.31Z</time></trkpt><trkpt lat="37.7933298" lon="14.0787966"><ele>857.0</ele><time>2026-04-26T09:47:23.31Z</time></trkpt><trkpt lat="37.7931447" lon="14.0787379"><ele>855.3333333333334</ele><time>2026-04-26T09:47:24.31Z</time></trkpt><trkpt lat="37.7929792" lon="14.0786631"><ele>853.6666666666667</ele><time>2026-04-26T09:47:25.31Z</time></trkpt><trkpt lat="37.7928346" lon="14.0785545"><ele>852.0</ele><time>2026-04-26T09:47:26.31Z</time></trkpt><trkpt lat="37.7927072" lon="14.0784047"><ele>851.6666666666667</ele><time>2026-04-26T09:47:27.31Z</time></trkpt><trkpt lat="37.7925997" lon="14.0782262"><ele>851.3333333333334</ele><time>2026-04-26T09:47:28.31Z</time></trkpt><trkpt lat="37.7924896" lon="14.0780326"><ele>851.0</ele><time>2026-04-26T09:47:29.31Z</time></trkpt><trkpt lat="37.7923606" lon="14.0778453"><ele>851.0</ele><time>2026-04-26T09:47:30.309Z</time></trkpt><trkpt lat="37.7922177" lon="14.0776836"><ele>851.0</ele><time>2026-04-26T09:47:31.31Z</time></trkpt><trkpt lat="37.7920559" lon="14.0775534"><ele>851.0</ele><time>2026-04-26T09:47:32.31Z</time></trkpt><trkpt lat="37.7918789" lon="14.077461"><ele>851.3333333333334</ele><time>2026-04-26T09:47:33.31Z</time></trkpt><trkpt lat="37.7916828" lon="14.0774092"><ele>851.6666666666667</ele><time>2026-04-26T09:47:34.31Z</time></trkpt><trkpt lat="37.7914861" lon="14.0773743"><ele>852.0</ele><time>2026-04-26T09:47:35.31Z</time></trkpt><trkpt lat="37.7913149" lon="14.0773444"><ele>852.0</ele><time>2026-04-26T09:47:36.31Z</time></trkpt><trkpt lat="37.7911619" lon="14.0772925"><ele>852.0</ele><time>2026-04-26T09:47:37.31Z</time></trkpt><trkpt lat="37.7910193" lon="14.0771853"><ele>852.0</ele><time>2026-04-26T09:47:38.31Z</time></trkpt><trkpt lat="37.7908992" lon="14.0770457"><ele>851.3333333333333</ele><time>2026-04-26T09:47:39.31Z</time></trkpt><trkpt lat="37.7908023" lon="14.0768708"><ele>850.6666666666666</ele><time>2026-04-26T09:47:40.309Z</time></trkpt><trkpt lat="37.7907338" lon="14.0766618"><ele>850.0</ele><time>2026-04-26T09:47:41.31Z</time></trkpt><trkpt lat="37.7906718" lon="14.0764594"><ele>850.0</ele><time>2026-04-26T09:47:42.31Z</time></trkpt><trkpt lat="37.7905918" lon="14.0762894"><ele>850.0</ele><time>2026-04-26T09:47:43.31Z</time></trkpt><trkpt lat="37.7904823" lon="14.0761518"><ele>850.0</ele><time>2026-04-26T09:47:44.31Z</time></trkpt><trkpt lat="37.7903665" lon="14.0760488"><ele>850.0</ele><time>2026-04-26T09:47:45.31Z</time></trkpt><trkpt lat="37.790219" lon="14.0759427"><ele>850.0</ele><time>2026-04-26T09:47:46.31Z</time></trkpt><trkpt lat="37.7900865" lon="14.0757957"><ele>850.0</ele><time>2026-04-26T09:47:47.31Z</time></trkpt><trkpt lat="37.789984" lon="14.075606"><ele>847.0</ele><time>2026-04-26T09:47:48.31Z</time></trkpt><trkpt lat="37.789901" lon="14.0753957"><ele>844.0</ele><time>2026-04-26T09:47:49.31Z</time></trkpt><trkpt lat="37.789824" lon="14.0751775"><ele>841.0</ele><time>2026-04-26T09:47:50.31Z</time></trkpt><trkpt lat="37.7897446" lon="14.0749818"><ele>841.3333333333333</ele><time>2026-04-26T09:47:51.31Z</time></trkpt><trkpt lat="37.7896312" lon="14.0748094"><ele>841.6666666666667</ele><time>2026-04-26T09:47:52.31Z</time></trkpt><trkpt lat="37.789491" lon="14.074675"><ele>842.0</ele><time>2026-04-26T09:47:53.31Z</time></trkpt><trkpt lat="37.7893317" lon="14.0745814"><ele>839.0</ele><time>2026-04-26T09:47:54.31Z</time></trkpt><trkpt lat="37.7891679" lon="14.0745019"><ele>836.0</ele><time>2026-04-26T09:47:55.31Z</time></trkpt><trkpt lat="37.7890161" lon="14.0744268"><ele>833.0</ele><time>2026-04-26T09:47:56.31Z</time></trkpt><trkpt lat="37.7889031" lon="14.074324"><ele>833.0</ele><time>2026-04-26T09:47:57.31Z</time></trkpt><trkpt lat="37.7888435" lon="14.0742133"><ele>833.0</ele><time>2026-04-26T09:47:58.31Z</time></trkpt><trkpt lat="37.7888278" lon="14.0740757"><ele>833.0</ele><time>2026-04-26T09:47:59.31Z</time></trkpt><trkpt lat="37.7888494" lon="14.0739335"><ele>833.0</ele><time>2026-04-26T09:48:00.31Z</time></trkpt><trkpt lat="37.7889079" lon="14.0738012"><ele>832.5</ele><time>2026-04-26T09:48:01.31Z</time></trkpt><trkpt lat="37.7890131" lon="14.0737186"><ele>832.0</ele><time>2026-04-26T09:48:02.31Z</time></trkpt><trkpt lat="37.7891418" lon="14.0736698"><ele>831.5</ele><time>2026-04-26T09:48:03.31Z</time></trkpt><trkpt lat="37.7892956" lon="14.0736193"><ele>831.0</ele><time>2026-04-26T09:48:04.31Z</time></trkpt><trkpt lat="37.7894608" lon="14.0735583"><ele>831.0</ele><time>2026-04-26T09:48:05.31Z</time></trkpt><trkpt lat="37.7896374" lon="14.0734758"><ele>831.0</ele><time>2026-04-26T09:48:06.31Z</time></trkpt><trkpt lat="37.7898148" lon="14.0733681"><ele>831.0</ele><time>2026-04-26T09:48:07.31Z</time></trkpt><trkpt lat="37.7899924" lon="14.0732284"><ele>829.6666666666667</ele><time>2026-04-26T09:48:08.31Z</time></trkpt><trkpt lat="37.7901626" lon="14.0730645"><ele>828.3333333333334</ele><time>2026-04-26T09:48:09.309Z</time></trkpt><trkpt lat="37.7903191" lon="14.0728646"><ele>827.0</ele><time>2026-04-26T09:48:10.31Z</time></trkpt><trkpt lat="37.7904618" lon="14.0726413"><ele>823.6666666666667</ele><time>2026-04-26T09:48:11.31Z</time></trkpt><trkpt lat="37.7905967" lon="14.0724195"><ele>820.3333333333333</ele><time>2026-04-26T09:48:12.31Z</time></trkpt><trkpt lat="37.7907304" lon="14.0722055"><ele>817.0</ele><time>2026-04-26T09:48:13.31Z</time></trkpt><trkpt lat="37.7908545" lon="14.0720016"><ele>817.0</ele><time>2026-04-26T09:48:14.31Z</time></trkpt><trkpt lat="37.7909508" lon="14.0717866"><ele>817.0</ele><time>2026-04-26T09:48:15.31Z</time></trkpt><trkpt lat="37.7910236" lon="14.0715472"><ele>817.0</ele><time>2026-04-26T09:48:16.31Z</time></trkpt><trkpt lat="37.791066" lon="14.0712976"><ele>816.3333333333333</ele><time>2026-04-26T09:48:17.31Z</time></trkpt><trkpt lat="37.7910765" lon="14.0710343"><ele>815.6666666666667</ele><time>2026-04-26T09:48:18.31Z</time></trkpt><trkpt lat="37.791048" lon="14.0707712"><ele>815.0</ele><time>2026-04-26T09:48:19.31Z</time></trkpt><trkpt lat="37.7909847" lon="14.070506"><ele>815.0</ele><time>2026-04-26T09:48:20.31Z</time></trkpt><trkpt lat="37.7909078" lon="14.0702544"><ele>815.0</ele><time>2026-04-26T09:48:21.31Z</time></trkpt><trkpt lat="37.7908286" lon="14.0700018"><ele>815.0</ele><time>2026-04-26T09:48:22.31Z</time></trkpt><trkpt lat="37.7907473" lon="14.0697762"><ele>815.0</ele><time>2026-04-26T09:48:23.31Z</time></trkpt><trkpt lat="37.7906731" lon="14.0695877"><ele>815.0</ele><time>2026-04-26T09:48:24.31Z</time></trkpt><trkpt lat="37.7906292" lon="14.0694034"><ele>815.0</ele><time>2026-04-26T09:48:25.31Z</time></trkpt><trkpt lat="37.7906237" lon="14.0692181"><ele>811.6666666666667</ele><time>2026-04-26T09:48:26.31Z</time></trkpt><trkpt lat="37.7906567" lon="14.0690194"><ele>808.3333333333333</ele><time>2026-04-26T09:48:27.31Z</time></trkpt><trkpt lat="37.7907299" lon="14.0688317"><ele>805.0</ele><time>2026-04-26T09:48:28.31Z</time></trkpt><trkpt lat="37.7908295" lon="14.0686485"><ele>805.0</ele><time>2026-04-26T09:48:29.31Z</time></trkpt><trkpt lat="37.7909447" lon="14.0684734"><ele>805.0</ele><time>2026-04-26T09:48:30.31Z</time></trkpt><trkpt lat="37.791055" lon="14.0683158"><ele>805.0</ele><time>2026-04-26T09:48:31.309Z</time></trkpt><trkpt lat="37.7911374" lon="14.0681493"><ele>809.0</ele><time>2026-04-26T09:48:32.31Z</time></trkpt><trkpt lat="37.7911876" lon="14.0679584"><ele>813.0</ele><time>2026-04-26T09:48:33.31Z</time></trkpt><trkpt lat="37.7911989" lon="14.0677394"><ele>817.0</ele><time>2026-04-26T09:48:34.31Z</time></trkpt><trkpt lat="37.7911639" lon="14.0675036"><ele>817.0</ele><time>2026-04-26T09:48:35.31Z</time></trkpt><trkpt lat="37.7911032" lon="14.0672688"><ele>817.0</ele><time>2026-04-26T09:48:36.31Z</time></trkpt><trkpt lat="37.7910272" lon="14.0670261"><ele>817.0</ele><time>2026-04-26T09:48:37.31Z</time></trkpt><trkpt lat="37.7909518" lon="14.0667894"><ele>810.0</ele><time>2026-04-26T09:48:38.31Z</time></trkpt><trkpt lat="37.7908859" lon="14.0665623"><ele>803.0</ele><time>2026-04-26T09:48:39.31Z</time></trkpt><trkpt lat="37.7908296" lon="14.0663524"><ele>796.0</ele><time>2026-04-26T09:48:40.31Z</time></trkpt><trkpt lat="37.7907931" lon="14.0661544"><ele>796.0</ele><time>2026-04-26T09:48:41.309Z</time></trkpt><trkpt lat="37.7907922" lon="14.0659647"><ele>796.0</ele><time>2026-04-26T09:48:42.31Z</time></trkpt><trkpt lat="37.790817" lon="14.0657851"><ele>796.0</ele><time>2026-04-26T09:48:43.309Z</time></trkpt><trkpt lat="37.7908785" lon="14.0656256"><ele>796.0</ele><time>2026-04-26T09:48:44.31Z</time></trkpt><trkpt lat="37.7909788" lon="14.0654814"><ele>796.0</ele><time>2026-04-26T09:48:45.31Z</time></trkpt><trkpt lat="37.7911005" lon="14.0653495"><ele>796.0</ele><time>2026-04-26T09:48:46.31Z</time></trkpt><trkpt lat="37.7912375" lon="14.0652216"><ele>796.0</ele><time>2026-04-26T09:48:47.309Z</time></trkpt><trkpt lat="37.791378" lon="14.0651213"><ele>796.0</ele><time>2026-04-26T09:48:48.31Z</time></trkpt><trkpt lat="37.7915215" lon="14.0650504"><ele>796.0</ele><time>2026-04-26T09:48:49.31Z</time></trkpt><trkpt lat="37.791659" lon="14.0649836"><ele>796.0</ele><time>2026-04-26T09:48:50.31Z</time></trkpt><trkpt lat="37.791777" lon="14.0649043"><ele>796.0</ele><time>2026-04-26T09:48:51.31Z</time></trkpt><trkpt lat="37.7918811" lon="14.064773"><ele>799.0</ele><time>2026-04-26T09:48:52.31Z</time></trkpt><trkpt lat="37.7919661" lon="14.064587"><ele>802.0</ele><time>2026-04-26T09:48:53.31Z</time></trkpt><trkpt lat="37.7920563" lon="14.0643887"><ele>805.0</ele><time>2026-04-26T09:48:54.31Z</time></trkpt><trkpt lat="37.7921281" lon="14.0641873"><ele>803.6666666666666</ele><time>2026-04-26T09:48:55.31Z</time></trkpt><trkpt lat="37.7921794" lon="14.0639841"><ele>802.3333333333333</ele><time>2026-04-26T09:48:56.31Z</time></trkpt><trkpt lat="37.7922057" lon="14.063769"><ele>801.0</ele><time>2026-04-26T09:48:57.31Z</time></trkpt><trkpt lat="37.7921946" lon="14.0635521"><ele>801.0</ele><time>2026-04-26T09:48:58.31Z</time></trkpt><trkpt lat="37.7921495" lon="14.0633465"><ele>801.0</ele><time>2026-04-26T09:48:59.31Z</time></trkpt><trkpt lat="37.7920877" lon="14.0631579"><ele>801.0</ele><time>2026-04-26T09:49:00.31Z</time></trkpt><trkpt lat="37.7920022" lon="14.0630106"><ele>801.0</ele><time>2026-04-26T09:49:01.31Z</time></trkpt><trkpt lat="37.7918875" lon="14.0629081"><ele>801.0</ele><time>2026-04-26T09:49:02.31Z</time></trkpt><trkpt lat="37.7917559" lon="14.0628434"><ele>801.0</ele><time>2026-04-26T09:49:03.31Z</time></trkpt><trkpt lat="37.7915977" lon="14.0628371"><ele>801.0</ele><time>2026-04-26T09:49:04.31Z</time></trkpt><trkpt lat="37.7914315" lon="14.062858"><ele>801.0</ele><time>2026-04-26T09:49:05.31Z</time></trkpt><trkpt lat="37.7912487" lon="14.0628956"><ele>801.0</ele><time>2026-04-26T09:49:06.31Z</time></trkpt><trkpt lat="37.7910555" lon="14.0629358"><ele>801.0</ele><time>2026-04-26T09:49:07.31Z</time></trkpt><trkpt lat="37.7908555" lon="14.0629903"><ele>802.3333333333333</ele><time>2026-04-26T09:49:08.31Z</time></trkpt><trkpt lat="37.7906579" lon="14.0630556"><ele>803.6666666666666</ele><time>2026-04-26T09:49:09.31Z</time></trkpt><trkpt lat="37.7904598" lon="14.0631198"><ele>805.0</ele><time>2026-04-26T09:49:10.31Z</time></trkpt><trkpt lat="37.7902604" lon="14.0631881"><ele>804.6666666666666</ele><time>2026-04-26T09:49:11.31Z</time></trkpt><trkpt lat="37.7900613" lon="14.0632493"><ele>804.3333333333333</ele><time>2026-04-26T09:49:12.31Z</time></trkpt><trkpt lat="37.7898705" lon="14.0633122"><ele>804.0</ele><time>2026-04-26T09:49:13.31Z</time></trkpt><trkpt lat="37.7896869" lon="14.0633683"><ele>796.3333333333333</ele><time>2026-04-26T09:49:14.31Z</time></trkpt><trkpt lat="37.7895101" lon="14.0634192"><ele>788.6666666666666</ele><time>2026-04-26T09:49:15.31Z</time></trkpt><trkpt lat="37.7893322" lon="14.0634458"><ele>781.0</ele><time>2026-04-26T09:49:16.31Z</time></trkpt><trkpt lat="37.7891485" lon="14.0634335"><ele>781.0</ele><time>2026-04-26T09:49:17.31Z</time></trkpt><trkpt lat="37.7889756" lon="14.0633722"><ele>781.0</ele><time>2026-04-26T09:49:18.31Z</time></trkpt><trkpt lat="37.7888192" lon="14.0632736"><ele>781.0</ele><time>2026-04-26T09:49:19.31Z</time></trkpt><trkpt lat="37.7886527" lon="14.0631607"><ele>780.6666666666666</ele><time>2026-04-26T09:49:20.31Z</time></trkpt><trkpt lat="37.7884905" lon="14.0630311"><ele>780.3333333333333</ele><time>2026-04-26T09:49:21.31Z</time></trkpt><trkpt lat="37.7883485" lon="14.0628921"><ele>780.0</ele><time>2026-04-26T09:49:22.31Z</time></trkpt><trkpt lat="37.7882254" lon="14.0627292"><ele>780.0</ele><time>2026-04-26T09:49:23.31Z</time></trkpt><trkpt lat="37.7881266" lon="14.0625417"><ele>780.0</ele><time>2026-04-26T09:49:24.31Z</time></trkpt><trkpt lat="37.7880492" lon="14.0623141"><ele>780.0</ele><time>2026-04-26T09:49:25.31Z</time></trkpt><trkpt lat="37.7879953" lon="14.0620781"><ele>781.3333333333333</ele><time>2026-04-26T09:49:26.31Z</time></trkpt><trkpt lat="37.7879506" lon="14.0618454"><ele>782.6666666666666</ele><time>2026-04-26T09:49:27.31Z</time></trkpt><trkpt lat="37.7878998" lon="14.0616306"><ele>784.0</ele><time>2026-04-26T09:49:28.31Z</time></trkpt><trkpt lat="37.7878334" lon="14.0614256"><ele>783.0</ele><time>2026-04-26T09:49:29.31Z</time></trkpt><trkpt lat="37.7877405" lon="14.0612617"><ele>782.0</ele><time>2026-04-26T09:49:30.31Z</time></trkpt><trkpt lat="37.7876137" lon="14.0611492"><ele>781.0</ele><time>2026-04-26T09:49:31.31Z</time></trkpt><trkpt lat="37.7874622" lon="14.0610706"><ele>781.0</ele><time>2026-04-26T09:49:32.31Z</time></trkpt><trkpt lat="37.7872912" lon="14.0610524"><ele>781.0</ele><time>2026-04-26T09:49:33.31Z</time></trkpt><trkpt lat="37.7871114" lon="14.0610832"><ele>781.0</ele><time>2026-04-26T09:49:34.31Z</time></trkpt><trkpt lat="37.7869278" lon="14.0611628"><ele>780.0</ele><time>2026-04-26T09:49:35.309Z</time></trkpt><trkpt lat="37.7867488" lon="14.0612762"><ele>779.0</ele><time>2026-04-26T09:49:36.31Z</time></trkpt><trkpt lat="37.7865791" lon="14.0613876"><ele>778.0</ele><time>2026-04-26T09:49:37.31Z</time></trkpt><trkpt lat="37.7864192" lon="14.0614654"><ele>778.0</ele><time>2026-04-26T09:49:38.31Z</time></trkpt><trkpt lat="37.7862632" lon="14.061497"><ele>778.0</ele><time>2026-04-26T09:49:39.31Z</time></trkpt><trkpt lat="37.7861002" lon="14.0614884"><ele>778.0</ele><time>2026-04-26T09:49:40.31Z</time></trkpt><trkpt lat="37.7859443" lon="14.0614269"><ele>776.3333333333333</ele><time>2026-04-26T09:49:41.31Z</time></trkpt><trkpt lat="37.7857953" lon="14.0613289"><ele>774.6666666666667</ele><time>2026-04-26T09:49:42.309Z</time></trkpt><trkpt lat="37.7856833" lon="14.0611903"><ele>773.0</ele><time>2026-04-26T09:49:43.31Z</time></trkpt><trkpt lat="37.7856148" lon="14.0610293"><ele>773.0</ele><time>2026-04-26T09:49:44.31Z</time></trkpt><trkpt lat="37.7855838" lon="14.060847"><ele>773.0</ele><time>2026-04-26T09:49:45.309Z</time></trkpt><trkpt lat="37.7855882" lon="14.0606525"><ele>773.0</ele><time>2026-04-26T09:49:46.31Z</time></trkpt><trkpt lat="37.7856157" lon="14.0604549"><ele>771.3333333333334</ele><time>2026-04-26T09:49:47.31Z</time></trkpt><trkpt lat="37.7856825" lon="14.0602537"><ele>769.6666666666667</ele><time>2026-04-26T09:49:48.31Z</time></trkpt><trkpt lat="37.7857779" lon="14.0600619"><ele>768.0</ele><time>2026-04-26T09:49:49.31Z</time></trkpt><trkpt lat="37.7858789" lon="14.0598744"><ele>766.3333333333334</ele><time>2026-04-26T09:49:50.31Z</time></trkpt><trkpt lat="37.7859657" lon="14.0596867"><ele>764.6666666666667</ele><time>2026-04-26T09:49:51.31Z</time></trkpt><trkpt lat="37.7860215" lon="14.0594902"><ele>763.0</ele><time>2026-04-26T09:49:52.31Z</time></trkpt><trkpt lat="37.7860319" lon="14.0592793"><ele>762.6666666666667</ele><time>2026-04-26T09:49:53.31Z</time></trkpt><trkpt lat="37.7860024" lon="14.0590464"><ele>762.3333333333334</ele><time>2026-04-26T09:49:54.31Z</time></trkpt><trkpt lat="37.7859533" lon="14.0587998"><ele>762.0</ele><time>2026-04-26T09:49:55.31Z</time></trkpt><trkpt lat="37.7858933" lon="14.0585563"><ele>762.0</ele><time>2026-04-26T09:49:56.31Z</time></trkpt><trkpt lat="37.7858287" lon="14.0583027"><ele>762.0</ele><time>2026-04-26T09:49:57.309Z</time></trkpt><trkpt lat="37.7857618" lon="14.0580352"><ele>762.0</ele><time>2026-04-26T09:49:58.31Z</time></trkpt><trkpt lat="37.7856983" lon="14.0577731"><ele>762.3333333333334</ele><time>2026-04-26T09:49:59.31Z</time></trkpt><trkpt lat="37.7856364" lon="14.0575158"><ele>762.6666666666667</ele><time>2026-04-26T09:50:00.309Z</time></trkpt><trkpt lat="37.7855741" lon="14.0572588"><ele>763.0</ele><time>2026-04-26T09:50:01.31Z</time></trkpt><trkpt lat="37.7855113" lon="14.0569973"><ele>764.0</ele><time>2026-04-26T09:50:02.31Z</time></trkpt><trkpt lat="37.7854486" lon="14.0567409"><ele>765.0</ele><time>2026-04-26T09:50:03.31Z</time></trkpt><trkpt lat="37.7853834" lon="14.0564784"><ele>766.0</ele><time>2026-04-26T09:50:04.31Z</time></trkpt><trkpt lat="37.7853215" lon="14.0562135"><ele>766.6666666666667</ele><time>2026-04-26T09:50:05.31Z</time></trkpt><trkpt lat="37.7852563" lon="14.0559514"><ele>767.3333333333334</ele><time>2026-04-26T09:50:06.31Z</time></trkpt><trkpt lat="37.7851865" lon="14.0556877"><ele>768.0</ele><time>2026-04-26T09:50:07.31Z</time></trkpt><trkpt lat="37.7851216" lon="14.0554289"><ele>765.6666666666666</ele><time>2026-04-26T09:50:08.31Z</time></trkpt><trkpt lat="37.7850534" lon="14.0551632"><ele>763.3333333333333</ele><time>2026-04-26T09:50:09.31Z</time></trkpt><trkpt lat="37.7849871" lon="14.0549011"><ele>761.0</ele><time>2026-04-26T09:50:10.31Z</time></trkpt><trkpt lat="37.7849227" lon="14.0546452"><ele>761.0</ele><time>2026-04-26T09:50:11.31Z</time></trkpt><trkpt lat="37.7848565" lon="14.0544016"><ele>761.0</ele><time>2026-04-26T09:50:12.31Z</time></trkpt><trkpt lat="37.7847958" lon="14.054171"><ele>761.0</ele><time>2026-04-26T09:50:13.31Z</time></trkpt><trkpt lat="37.784748" lon="14.0539387"><ele>760.6666666666666</ele><time>2026-04-26T09:50:14.31Z</time></trkpt><trkpt lat="37.7847272" lon="14.0537013"><ele>760.3333333333334</ele><time>2026-04-26T09:50:15.31Z</time></trkpt><trkpt lat="37.7847249" lon="14.0534538"><ele>760.0</ele><time>2026-04-26T09:50:16.31Z</time></trkpt><trkpt lat="37.7847342" lon="14.0531999"><ele>760.0</ele><time>2026-04-26T09:50:17.31Z</time></trkpt><trkpt lat="37.7847496" lon="14.0529457"><ele>760.0</ele><time>2026-04-26T09:50:18.31Z</time></trkpt><trkpt lat="37.7847656" lon="14.0526808"><ele>760.0</ele><time>2026-04-26T09:50:19.31Z</time></trkpt><trkpt lat="37.7847798" lon="14.0524183"><ele>759.0</ele><time>2026-04-26T09:50:20.31Z</time></trkpt><trkpt lat="37.7847879" lon="14.0521639"><ele>758.0</ele><time>2026-04-26T09:50:21.309Z</time></trkpt><trkpt lat="37.7847943" lon="14.0519273"><ele>757.0</ele><time>2026-04-26T09:50:22.31Z</time></trkpt><trkpt lat="37.7848073" lon="14.0516919"><ele>755.3333333333334</ele><time>2026-04-26T09:50:23.31Z</time></trkpt><trkpt lat="37.7848354" lon="14.0514542"><ele>753.6666666666666</ele><time>2026-04-26T09:50:24.31Z</time></trkpt><trkpt lat="37.7848726" lon="14.0512127"><ele>752.0</ele><time>2026-04-26T09:50:25.31Z</time></trkpt><trkpt lat="37.7849319" lon="14.0509643"><ele>753.0</ele><time>2026-04-26T09:50:26.31Z</time></trkpt><trkpt lat="37.7850073" lon="14.0507243"><ele>754.0</ele><time>2026-04-26T09:50:27.31Z</time></trkpt><trkpt lat="37.7850935" lon="14.0505038"><ele>755.0</ele><time>2026-04-26T09:50:28.31Z</time></trkpt><trkpt lat="37.7852" lon="14.0502991"><ele>755.0</ele><time>2026-04-26T09:50:29.31Z</time></trkpt><trkpt lat="37.7853253" lon="14.0501038"><ele>755.0</ele><time>2026-04-26T09:50:30.31Z</time></trkpt><trkpt lat="37.7854703" lon="14.0499152"><ele>755.0</ele><time>2026-04-26T09:50:31.31Z</time></trkpt><trkpt lat="37.7856291" lon="14.0497353"><ele>754.6666666666666</ele><time>2026-04-26T09:50:32.31Z</time></trkpt><trkpt lat="37.7857871" lon="14.0495531"><ele>754.3333333333334</ele><time>2026-04-26T09:50:33.31Z</time></trkpt><trkpt lat="37.7859475" lon="14.049372"><ele>754.0</ele><time>2026-04-26T09:50:34.31Z</time></trkpt><trkpt lat="37.7861048" lon="14.0492053"><ele>751.0</ele><time>2026-04-26T09:50:35.309Z</time></trkpt><trkpt lat="37.7862585" lon="14.0490458"><ele>748.0</ele><time>2026-04-26T09:50:36.31Z</time></trkpt><trkpt lat="37.7864029" lon="14.0488985"><ele>745.0</ele><time>2026-04-26T09:50:37.31Z</time></trkpt><trkpt lat="37.7865359" lon="14.04876"><ele>745.0</ele><time>2026-04-26T09:50:38.31Z</time></trkpt><trkpt lat="37.7866468" lon="14.0486311"><ele>745.0</ele><time>2026-04-26T09:50:39.31Z</time></trkpt><trkpt lat="37.7867256" lon="14.0484965"><ele>745.0</ele><time>2026-04-26T09:50:40.31Z</time></trkpt><trkpt lat="37.7867754" lon="14.0483369"><ele>745.0</ele><time>2026-04-26T09:50:41.31Z</time></trkpt><trkpt lat="37.7867798" lon="14.048159"><ele>744.3333333333334</ele><time>2026-04-26T09:50:42.309Z</time></trkpt><trkpt lat="37.78675" lon="14.0479736"><ele>743.6666666666666</ele><time>2026-04-26T09:50:43.309Z</time></trkpt><trkpt lat="37.7866786" lon="14.047796"><ele>743.0</ele><time>2026-04-26T09:50:44.31Z</time></trkpt><trkpt lat="37.7866032" lon="14.0476147"><ele>742.3333333333333</ele><time>2026-04-26T09:50:45.31Z</time></trkpt><trkpt lat="37.7865516" lon="14.0474285"><ele>741.6666666666666</ele><time>2026-04-26T09:50:46.31Z</time></trkpt><trkpt lat="37.78653" lon="14.0472485"><ele>741.0</ele><time>2026-04-26T09:50:47.31Z</time></trkpt><trkpt lat="37.786545" lon="14.0470594"><ele>741.0</ele><time>2026-04-26T09:50:48.309Z</time></trkpt><trkpt lat="37.7866059" lon="14.0468713"><ele>741.0</ele><time>2026-04-26T09:50:49.31Z</time></trkpt><trkpt lat="37.786698" lon="14.04669"><ele>741.0</ele><time>2026-04-26T09:50:50.31Z</time></trkpt><trkpt lat="37.7868084" lon="14.0465"><ele>742.0</ele><time>2026-04-26T09:50:51.31Z</time></trkpt><trkpt lat="37.7869306" lon="14.0463119"><ele>743.0</ele><time>2026-04-26T09:50:52.31Z</time></trkpt><trkpt lat="37.7870542" lon="14.046115"><ele>744.0</ele><time>2026-04-26T09:50:53.31Z</time></trkpt><trkpt lat="37.7871705" lon="14.0459214"><ele>741.3333333333334</ele><time>2026-04-26T09:50:54.31Z</time></trkpt><trkpt lat="37.7872872" lon="14.0457318"><ele>738.6666666666667</ele><time>2026-04-26T09:50:55.309Z</time></trkpt><trkpt lat="37.7874025" lon="14.0455563"><ele>736.0</ele><time>2026-04-26T09:50:56.31Z</time></trkpt><trkpt lat="37.787506" lon="14.0453892"><ele>736.0</ele><time>2026-04-26T09:50:57.31Z</time></trkpt><trkpt lat="37.7876059" lon="14.0452344"><ele>736.0</ele><time>2026-04-26T09:50:58.31Z</time></trkpt><trkpt lat="37.7876882" lon="14.0450849"><ele>736.0</ele><time>2026-04-26T09:50:59.31Z</time></trkpt><trkpt lat="37.7877476" lon="14.0449325"><ele>736.0</ele><time>2026-04-26T09:51:00.31Z</time></trkpt><trkpt lat="37.7877779" lon="14.0447583"><ele>735.6666666666667</ele><time>2026-04-26T09:51:01.31Z</time></trkpt><trkpt lat="37.7877633" lon="14.0445613"><ele>735.3333333333334</ele><time>2026-04-26T09:51:02.31Z</time></trkpt><trkpt lat="37.7877083" lon="14.0443476"><ele>735.0</ele><time>2026-04-26T09:51:03.31Z</time></trkpt><trkpt lat="37.7876284" lon="14.0441394"><ele>736.5</ele><time>2026-04-26T09:51:04.31Z</time></trkpt><trkpt lat="37.7875519" lon="14.0439541"><ele>738.0</ele><time>2026-04-26T09:51:05.31Z</time></trkpt><trkpt lat="37.7874832" lon="14.0437913"><ele>739.5</ele><time>2026-04-26T09:51:06.309Z</time></trkpt><trkpt lat="37.7874094" lon="14.043671"><ele>741.0</ele><time>2026-04-26T09:51:07.309Z</time></trkpt><trkpt lat="37.7873171" lon="14.0436031"><ele>741.0</ele><time>2026-04-26T09:51:08.31Z</time></trkpt><trkpt lat="37.7871988" lon="14.0435566"><ele>741.0</ele><time>2026-04-26T09:51:09.309Z</time></trkpt><trkpt lat="37.7870628" lon="14.0435558"><ele>741.0</ele><time>2026-04-26T09:51:10.31Z</time></trkpt><trkpt lat="37.786914" lon="14.0435853"><ele>741.0</ele><time>2026-04-26T09:51:11.31Z</time></trkpt><trkpt lat="37.7867513" lon="14.0436222"><ele>741.0</ele><time>2026-04-26T09:51:12.31Z</time></trkpt><trkpt lat="37.7865827" lon="14.0436653"><ele>741.0</ele><time>2026-04-26T09:51:13.309Z</time></trkpt><trkpt lat="37.7864182" lon="14.0437036"><ele>741.0</ele><time>2026-04-26T09:51:14.31Z</time></trkpt><trkpt lat="37.7862693" lon="14.043755"><ele>741.0</ele><time>2026-04-26T09:51:15.31Z</time></trkpt><trkpt lat="37.7861256" lon="14.0438164"><ele>741.0</ele><time>2026-04-26T09:51:16.31Z</time></trkpt><trkpt lat="37.7859827" lon="14.0438847"><ele>741.0</ele><time>2026-04-26T09:51:17.31Z</time></trkpt><trkpt lat="37.7858446" lon="14.0439541"><ele>740.3333333333334</ele><time>2026-04-26T09:51:18.31Z</time></trkpt><trkpt lat="37.7857065" lon="14.04402"><ele>739.6666666666667</ele><time>2026-04-26T09:51:19.31Z</time></trkpt><trkpt lat="37.7855653" lon="14.0440913"><ele>739.0</ele><time>2026-04-26T09:51:20.31Z</time></trkpt><trkpt lat="37.7854245" lon="14.0441605"><ele>739.0</ele><time>2026-04-26T09:51:21.31Z</time></trkpt><trkpt lat="37.785284" lon="14.0442316"><ele>739.0</ele><time>2026-04-26T09:51:22.309Z</time></trkpt><trkpt lat="37.7851419" lon="14.0442967"><ele>739.0</ele><time>2026-04-26T09:51:23.31Z</time></trkpt><trkpt lat="37.7850038" lon="14.0443579"><ele>739.0</ele><time>2026-04-26T09:51:24.31Z</time></trkpt><trkpt lat="37.7848748" lon="14.0444106"><ele>741.75</ele><time>2026-04-26T09:51:25.31Z</time></trkpt><trkpt lat="37.7847451" lon="14.0444575"><ele>744.5</ele><time>2026-04-26T09:51:26.31Z</time></trkpt><trkpt lat="37.7846075" lon="14.0444847"><ele>747.25</ele><time>2026-04-26T09:51:27.31Z</time></trkpt><trkpt lat="37.7844619" lon="14.0445004"><ele>750.0</ele><time>2026-04-26T09:51:28.309Z</time></trkpt><trkpt lat="37.7843101" lon="14.0444958"><ele>751.3333333333334</ele><time>2026-04-26T09:51:29.31Z</time></trkpt><trkpt lat="37.7841532" lon="14.0444678"><ele>752.6666666666667</ele><time>2026-04-26T09:51:30.31Z</time></trkpt><trkpt lat="37.7839926" lon="14.0444362"><ele>754.0</ele><time>2026-04-26T09:51:31.31Z</time></trkpt><trkpt lat="37.7838331" lon="14.0444041"><ele>754.0</ele><time>2026-04-26T09:51:32.31Z</time></trkpt><trkpt lat="37.7836799" lon="14.0443715"><ele>754.0</ele><time>2026-04-26T09:51:33.31Z</time></trkpt><trkpt lat="37.783536" lon="14.0443395"><ele>754.0</ele><time>2026-04-26T09:51:34.31Z</time></trkpt><trkpt lat="37.7833987" lon="14.0443148"><ele>754.0</ele><time>2026-04-26T09:51:35.31Z</time></trkpt><trkpt lat="37.7832614" lon="14.0442849"><ele>755.0</ele><time>2026-04-26T09:51:36.31Z</time></trkpt><trkpt lat="37.7831303" lon="14.0442543"><ele>756.0</ele><time>2026-04-26T09:51:37.31Z</time></trkpt><trkpt lat="37.7830016" lon="14.0442242"><ele>757.0</ele><time>2026-04-26T09:51:38.31Z</time></trkpt><trkpt lat="37.7828734" lon="14.0441923"><ele>758.0</ele><time>2026-04-26T09:51:39.31Z</time></trkpt><trkpt lat="37.7827482" lon="14.0441469"><ele>760.5</ele><time>2026-04-26T09:51:40.31Z</time></trkpt><trkpt lat="37.7826237" lon="14.0440896"><ele>763.0</ele><time>2026-04-26T09:51:41.31Z</time></trkpt><trkpt lat="37.7825022" lon="14.0440215"><ele>765.5</ele><time>2026-04-26T09:51:42.31Z</time></trkpt><trkpt lat="37.7823988" lon="14.0439296"><ele>768.0</ele><time>2026-04-26T09:51:43.31Z</time></trkpt><trkpt lat="37.7822999" lon="14.0438343"><ele>768.0</ele><time>2026-04-26T09:51:44.31Z</time></trkpt><trkpt lat="37.7822022" lon="14.043741"><ele>768.0</ele><time>2026-04-26T09:51:45.31Z</time></trkpt><trkpt lat="37.782112" lon="14.0436437"><ele>768.0</ele><time>2026-04-26T09:51:46.31Z</time></trkpt><trkpt lat="37.7820338" lon="14.0435495"><ele>768.0</ele><time>2026-04-26T09:51:47.31Z</time></trkpt><trkpt lat="37.7819888" lon="14.0434264"><ele>769.25</ele><time>2026-04-26T09:51:48.31Z</time></trkpt><trkpt lat="37.7819613" lon="14.0432826"><ele>770.5</ele><time>2026-04-26T09:51:49.31Z</time></trkpt><trkpt lat="37.781959" lon="14.0431279"><ele>771.75</ele><time>2026-04-26T09:51:50.31Z</time></trkpt><trkpt lat="37.7819742" lon="14.0429791"><ele>773.0</ele><time>2026-04-26T09:51:51.31Z</time></trkpt><trkpt lat="37.7820078" lon="14.042836"><ele>773.0</ele><time>2026-04-26T09:51:52.31Z</time></trkpt><trkpt lat="37.7820343" lon="14.0426965"><ele>773.0</ele><time>2026-04-26T09:51:53.31Z</time></trkpt><trkpt lat="37.7820634" lon="14.0425541"><ele>773.0</ele><time>2026-04-26T09:51:54.31Z</time></trkpt><trkpt lat="37.7820955" lon="14.042421"><ele>773.0</ele><time>2026-04-26T09:51:55.31Z</time></trkpt><trkpt lat="37.7821229" lon="14.0422963"><ele>773.0</ele><time>2026-04-26T09:51:56.31Z</time></trkpt><trkpt lat="37.7821527" lon="14.0421803"><ele>773.0000000000001</ele><time>2026-04-26T09:51:57.31Z</time></trkpt><trkpt lat="37.7821852" lon="14.0420775"><ele>773.0</ele><time>2026-04-26T09:51:58.31Z</time></trkpt><trkpt lat="37.7822177" lon="14.0419881"><ele>773.0</ele><time>2026-04-26T09:51:59.31Z</time></trkpt><trkpt lat="37.7822509" lon="14.0419057"><ele>773.0</ele><time>2026-04-26T09:52:00.31Z</time></trkpt><trkpt lat="37.7822788" lon="14.0418338"><ele>773.0000000000001</ele><time>2026-04-26T09:52:01.309Z</time></trkpt><trkpt lat="37.7823311" lon="14.0417091"><ele>773.0</ele><time>2026-04-26T09:52:03.31Z</time></trkpt><trkpt lat="37.7823724" lon="14.0415972"><ele>771.8</ele><time>2026-04-26T09:52:05.31Z</time></trkpt><trkpt lat="37.7824212" lon="14.0414911"><ele>770.5999999999999</ele><time>2026-04-26T09:52:07.31Z</time></trkpt><trkpt lat="37.7824749" lon="14.041373"><ele>769.4000000000001</ele><time>2026-04-26T09:52:09.31Z</time></trkpt><trkpt lat="37.7825217" lon="14.0412924"><ele>768.2</ele><time>2026-04-26T09:52:10.309Z</time></trkpt><trkpt lat="37.7825768" lon="14.0412113"><ele>767.0</ele><time>2026-04-26T09:52:11.31Z</time></trkpt><trkpt lat="37.7826326" lon="14.0411258"><ele>766.4000000000001</ele><time>2026-04-26T09:52:12.31Z</time></trkpt><trkpt lat="37.7826892" lon="14.0410432"><ele>765.8000000000001</ele><time>2026-04-26T09:52:13.31Z</time></trkpt><trkpt lat="37.7827447" lon="14.0409646"><ele>765.2</ele><time>2026-04-26T09:52:14.31Z</time></trkpt><trkpt lat="37.7828302" lon="14.0408604"><ele>764.6</ele><time>2026-04-26T09:52:16.309Z</time></trkpt><trkpt lat="37.7829211" lon="14.0407853"><ele>764.0</ele><time>2026-04-26T09:52:18.31Z</time></trkpt><trkpt lat="37.7830156" lon="14.0406936"><ele>764.0</ele><time>2026-04-26T09:52:20.31Z</time></trkpt><trkpt lat="37.7830804" lon="14.0406356"><ele>764.0</ele><time>2026-04-26T09:52:21.31Z</time></trkpt><trkpt lat="37.7831469" lon="14.0405741"><ele>764.0</ele><time>2026-04-26T09:52:22.31Z</time></trkpt><trkpt lat="37.7832185" lon="14.0405097"><ele>764.0</ele><time>2026-04-26T09:52:23.31Z</time></trkpt><trkpt lat="37.7832898" lon="14.0404449"><ele>764.0</ele><time>2026-04-26T09:52:24.31Z</time></trkpt><trkpt lat="37.7833601" lon="14.0403827"><ele>764.0</ele><time>2026-04-26T09:52:25.31Z</time></trkpt><trkpt lat="37.7834272" lon="14.0403142"><ele>764.0</ele><time>2026-04-26T09:52:26.31Z</time></trkpt><trkpt lat="37.7834976" lon="14.0402509"><ele>764.0</ele><time>2026-04-26T09:52:27.31Z</time></trkpt><trkpt lat="37.7835689" lon="14.0401852"><ele>764.0</ele><time>2026-04-26T09:52:28.31Z</time></trkpt><trkpt lat="37.7836422" lon="14.0401145"><ele>764.0</ele><time>2026-04-26T09:52:29.31Z</time></trkpt><trkpt lat="37.783721" lon="14.0400489"><ele>764.0</ele><time>2026-04-26T09:52:30.31Z</time></trkpt><trkpt lat="37.7838003" lon="14.0399793"><ele>763.5</ele><time>2026-04-26T09:52:31.31Z</time></trkpt><trkpt lat="37.7838808" lon="14.039913"><ele>763.0</ele><time>2026-04-26T09:52:32.31Z</time></trkpt><trkpt lat="37.7839584" lon="14.0398457"><ele>762.5</ele><time>2026-04-26T09:52:33.31Z</time></trkpt><trkpt lat="37.7840317" lon="14.039783"><ele>762.0</ele><time>2026-04-26T09:52:34.309Z</time></trkpt><trkpt lat="37.7841002" lon="14.0397238"><ele>761.5</ele><time>2026-04-26T09:52:35.31Z</time></trkpt><trkpt lat="37.7841665" lon="14.0396678"><ele>761.0</ele><time>2026-04-26T09:52:36.31Z</time></trkpt><trkpt lat="37.7842309" lon="14.0396124"><ele>761.0</ele><time>2026-04-26T09:52:37.31Z</time></trkpt><trkpt lat="37.784298" lon="14.0395525"><ele>761.0</ele><time>2026-04-26T09:52:38.31Z</time></trkpt><trkpt lat="37.7843674" lon="14.039486"><ele>761.0</ele><time>2026-04-26T09:52:39.31Z</time></trkpt><trkpt lat="37.7844401" lon="14.0394141"><ele>761.0</ele><time>2026-04-26T09:52:40.31Z</time></trkpt><trkpt lat="37.7845123" lon="14.0393442"><ele>761.0</ele><time>2026-04-26T09:52:41.31Z</time></trkpt><trkpt lat="37.7845904" lon="14.0392742"><ele>761.0</ele><time>2026-04-26T09:52:42.31Z</time></trkpt><trkpt lat="37.784671" lon="14.0392033"><ele>761.4</ele><time>2026-04-26T09:52:43.31Z</time></trkpt><trkpt lat="37.7847544" lon="14.0391287"><ele>761.8</ele><time>2026-04-26T09:52:44.31Z</time></trkpt><trkpt lat="37.7848397" lon="14.0390502"><ele>762.1999999999999</ele><time>2026-04-26T09:52:45.309Z</time></trkpt><trkpt lat="37.7849309" lon="14.0389734"><ele>762.5999999999999</ele><time>2026-04-26T09:52:46.309Z</time></trkpt><trkpt lat="37.7850268" lon="14.0389014"><ele>763.0</ele><time>2026-04-26T09:52:47.31Z</time></trkpt><trkpt lat="37.7851206" lon="14.038837"><ele>763.5999999999999</ele><time>2026-04-26T09:52:48.31Z</time></trkpt><trkpt lat="37.7852149" lon="14.0387709"><ele>764.1999999999999</ele><time>2026-04-26T09:52:49.31Z</time></trkpt><trkpt lat="37.785305" lon="14.0387073"><ele>764.8</ele><time>2026-04-26T09:52:50.31Z</time></trkpt><trkpt lat="37.7853922" lon="14.0386537"><ele>765.4</ele><time>2026-04-26T09:52:51.31Z</time></trkpt><trkpt lat="37.7854837" lon="14.0385957"><ele>766.0</ele><time>2026-04-26T09:52:52.309Z</time></trkpt><trkpt lat="37.7855716" lon="14.0385382"><ele>766.0</ele><time>2026-04-26T09:52:53.31Z</time></trkpt><trkpt lat="37.7856575" lon="14.0384846"><ele>766.0</ele><time>2026-04-26T09:52:54.31Z</time></trkpt><trkpt lat="37.7857373" lon="14.0384295"><ele>766.0</ele><time>2026-04-26T09:52:55.309Z</time></trkpt><trkpt lat="37.7858176" lon="14.0383799"><ele>766.0</ele><time>2026-04-26T09:52:56.31Z</time></trkpt><trkpt lat="37.7858959" lon="14.0383299"><ele>766.0</ele><time>2026-04-26T09:52:57.31Z</time></trkpt><trkpt lat="37.7859825" lon="14.0382729"><ele>765.5</ele><time>2026-04-26T09:52:58.309Z</time></trkpt><trkpt lat="37.7860771" lon="14.0382112"><ele>765.0</ele><time>2026-04-26T09:52:59.31Z</time></trkpt><trkpt lat="37.7861772" lon="14.0381434"><ele>764.5</ele><time>2026-04-26T09:53:00.309Z</time></trkpt><trkpt lat="37.786277" lon="14.0380656"><ele>764.0</ele><time>2026-04-26T09:53:01.31Z</time></trkpt><trkpt lat="37.7863736" lon="14.0379756"><ele>764.0</ele><time>2026-04-26T09:53:02.31Z</time></trkpt><trkpt lat="37.7864642" lon="14.0378734"><ele>764.0</ele><time>2026-04-26T09:53:03.31Z</time></trkpt><trkpt lat="37.7865414" lon="14.0377514"><ele>764.0</ele><time>2026-04-26T09:53:04.31Z</time></trkpt><trkpt lat="37.7866076" lon="14.0376087"><ele>764.0</ele><time>2026-04-26T09:53:05.31Z</time></trkpt><trkpt lat="37.7866605" lon="14.0374467"><ele>764.0</ele><time>2026-04-26T09:53:06.31Z</time></trkpt><trkpt lat="37.7866947" lon="14.0372719"><ele>764.0</ele><time>2026-04-26T09:53:07.31Z</time></trkpt><trkpt lat="37.7867264" lon="14.0370711"><ele>764.0</ele><time>2026-04-26T09:53:08.31Z</time></trkpt><trkpt lat="37.7867694" lon="14.0368673"><ele>764.0</ele><time>2026-04-26T09:53:09.31Z</time></trkpt><trkpt lat="37.7868172" lon="14.0366724"><ele>764.0</ele><time>2026-04-26T09:53:10.31Z</time></trkpt><trkpt lat="37.7868798" lon="14.0364853"><ele>764.0</ele><time>2026-04-26T09:53:11.31Z</time></trkpt><trkpt lat="37.7869665" lon="14.0363089"><ele>766.0</ele><time>2026-04-26T09:53:12.31Z</time></trkpt><trkpt lat="37.7870641" lon="14.0361541"><ele>768.0</ele><time>2026-04-26T09:53:13.31Z</time></trkpt><trkpt lat="37.7871846" lon="14.0360232"><ele>770.0</ele><time>2026-04-26T09:53:14.31Z</time></trkpt><trkpt lat="37.7873217" lon="14.0359049"><ele>769.3333333333334</ele><time>2026-04-26T09:53:15.31Z</time></trkpt><trkpt lat="37.7874723" lon="14.035791"><ele>768.6666666666667</ele><time>2026-04-26T09:53:16.31Z</time></trkpt><trkpt lat="37.7876332" lon="14.0356768"><ele>768.0</ele><time>2026-04-26T09:53:17.31Z</time></trkpt><trkpt lat="37.7878008" lon="14.0355525"><ele>768.0</ele><time>2026-04-26T09:53:18.31Z</time></trkpt><trkpt lat="37.7879696" lon="14.035416"><ele>768.0</ele><time>2026-04-26T09:53:19.31Z</time></trkpt><trkpt lat="37.7881382" lon="14.0352816"><ele>768.0</ele><time>2026-04-26T09:53:20.31Z</time></trkpt><trkpt lat="37.7883089" lon="14.0351425"><ele>768.0</ele><time>2026-04-26T09:53:21.31Z</time></trkpt><trkpt lat="37.788485" lon="14.0350123"><ele>768.0</ele><time>2026-04-26T09:53:22.31Z</time></trkpt><trkpt lat="37.7886612" lon="14.0348844"><ele>768.0</ele><time>2026-04-26T09:53:23.31Z</time></trkpt><trkpt lat="37.7888301" lon="14.0347669"><ele>769.0</ele><time>2026-04-26T09:53:24.31Z</time></trkpt><trkpt lat="37.7889857" lon="14.0346365"><ele>770.0</ele><time>2026-04-26T09:53:25.31Z</time></trkpt><trkpt lat="37.7891234" lon="14.0344754"><ele>771.0</ele><time>2026-04-26T09:53:26.31Z</time></trkpt><trkpt lat="37.7892431" lon="14.0342856"><ele>770.3333333333333</ele><time>2026-04-26T09:53:27.31Z</time></trkpt><trkpt lat="37.7893376" lon="14.0340653"><ele>769.6666666666666</ele><time>2026-04-26T09:53:28.31Z</time></trkpt><trkpt lat="37.7894213" lon="14.0338308"><ele>769.0</ele><time>2026-04-26T09:53:29.31Z</time></trkpt><trkpt lat="37.7894888" lon="14.0335886"><ele>770.6666666666666</ele><time>2026-04-26T09:53:30.31Z</time></trkpt><trkpt lat="37.7895574" lon="14.0333485"><ele>772.3333333333333</ele><time>2026-04-26T09:53:31.31Z</time></trkpt><trkpt lat="37.7896307" lon="14.0331261"><ele>774.0</ele><time>2026-04-26T09:53:32.31Z</time></trkpt><trkpt lat="37.7896936" lon="14.0329203"><ele>774.0</ele><time>2026-04-26T09:53:33.31Z</time></trkpt><trkpt lat="37.7897365" lon="14.0327411"><ele>774.0</ele><time>2026-04-26T09:53:34.31Z</time></trkpt><trkpt lat="37.7897449" lon="14.0325608"><ele>774.0</ele><time>2026-04-26T09:53:35.31Z</time></trkpt><trkpt lat="37.7897062" lon="14.0323862"><ele>774.0</ele><time>2026-04-26T09:53:36.31Z</time></trkpt><trkpt lat="37.7896057" lon="14.032206"><ele>774.0</ele><time>2026-04-26T09:53:37.31Z</time></trkpt><trkpt lat="37.7894741" lon="14.0320284"><ele>774.0</ele><time>2026-04-26T09:53:38.309Z</time></trkpt><trkpt lat="37.7893317" lon="14.0318511"><ele>774.0</ele><time>2026-04-26T09:53:39.308Z</time></trkpt><trkpt lat="37.7891922" lon="14.0316771"><ele>777.0</ele><time>2026-04-26T09:53:40.309Z</time></trkpt><trkpt lat="37.7890697" lon="14.0315089"><ele>780.0</ele><time>2026-04-26T09:53:41.309Z</time></trkpt><trkpt lat="37.7889553" lon="14.0313242"><ele>783.0</ele><time>2026-04-26T09:53:42.309Z</time></trkpt><trkpt lat="37.7888599" lon="14.0311161"><ele>783.0</ele><time>2026-04-26T09:53:43.309Z</time></trkpt><trkpt lat="37.788775" lon="14.0308808"><ele>783.0</ele><time>2026-04-26T09:53:44.309Z</time></trkpt><trkpt lat="37.7886968" lon="14.030616"><ele>783.0</ele><time>2026-04-26T09:53:45.309Z</time></trkpt><trkpt lat="37.7886076" lon="14.030353"><ele>785.5</ele><time>2026-04-26T09:53:46.309Z</time></trkpt><trkpt lat="37.7885089" lon="14.0300861"><ele>788.0</ele><time>2026-04-26T09:53:47.309Z</time></trkpt><trkpt lat="37.7883948" lon="14.0298188"><ele>790.0</ele><time>2026-04-26T09:53:48.309Z</time></trkpt><trkpt lat="37.7882605" lon="14.029568"><ele>792.0</ele><time>2026-04-26T09:53:49.309Z</time></trkpt><trkpt lat="37.7881354" lon="14.029336"><ele>792.6666666666667</ele><time>2026-04-26T09:53:50.309Z</time></trkpt><trkpt lat="37.7880461" lon="14.0291077"><ele>793.3333333333334</ele><time>2026-04-26T09:53:51.309Z</time></trkpt><trkpt lat="37.7879919" lon="14.0288572"><ele>794.0</ele><time>2026-04-26T09:53:52.309Z</time></trkpt><trkpt lat="37.7879783" lon="14.0286058"><ele>794.0</ele><time>2026-04-26T09:53:53.309Z</time></trkpt><trkpt lat="37.7880108" lon="14.0283299"><ele>794.0</ele><time>2026-04-26T09:53:54.309Z</time></trkpt><trkpt lat="37.7880636" lon="14.028084"><ele>794.0</ele><time>2026-04-26T09:53:55.309Z</time></trkpt><trkpt lat="37.7881278" lon="14.0278694"><ele>794.0</ele><time>2026-04-26T09:53:56.308Z</time></trkpt><trkpt lat="37.7882214" lon="14.0276874"><ele>794.0</ele><time>2026-04-26T09:53:57.309Z</time></trkpt><trkpt lat="37.7883622" lon="14.0275208"><ele>794.0</ele><time>2026-04-26T09:53:58.309Z</time></trkpt><trkpt lat="37.7885308" lon="14.0273687"><ele>797.3333333333334</ele><time>2026-04-26T09:53:59.309Z</time></trkpt><trkpt lat="37.7886939" lon="14.0272171"><ele>800.6666666666667</ele><time>2026-04-26T09:54:00.309Z</time></trkpt><trkpt lat="37.7888256" lon="14.0270741"><ele>804.0</ele><time>2026-04-26T09:54:01.309Z</time></trkpt><trkpt lat="37.7889166" lon="14.0269311"><ele>804.0</ele><time>2026-04-26T09:54:02.309Z</time></trkpt><trkpt lat="37.7889523" lon="14.0267727"><ele>804.0</ele><time>2026-04-26T09:54:03.309Z</time></trkpt><trkpt lat="37.7889424" lon="14.0266373"><ele>804.0</ele><time>2026-04-26T09:54:04.309Z</time></trkpt><trkpt lat="37.7888842" lon="14.0264851"><ele>804.0</ele><time>2026-04-26T09:54:05.309Z</time></trkpt><trkpt lat="37.7887799" lon="14.0263073"><ele>803.3333333333333</ele><time>2026-04-26T09:54:06.309Z</time></trkpt><trkpt lat="37.7886406" lon="14.0261199"><ele>802.6666666666666</ele><time>2026-04-26T09:54:07.309Z</time></trkpt><trkpt lat="37.7884874" lon="14.0258994"><ele>802.0</ele><time>2026-04-26T09:54:08.309Z</time></trkpt><trkpt lat="37.7883281" lon="14.0256583"><ele>807.0</ele><time>2026-04-26T09:54:09.309Z</time></trkpt><trkpt lat="37.7881649" lon="14.0253963"><ele>812.0</ele><time>2026-04-26T09:54:10.309Z</time></trkpt><trkpt lat="37.7879899" lon="14.0251223"><ele>813.0</ele><time>2026-04-26T09:54:11.309Z</time></trkpt><trkpt lat="37.7878098" lon="14.0248322"><ele>814.0</ele><time>2026-04-26T09:54:12.309Z</time></trkpt><trkpt lat="37.7876337" lon="14.0245491"><ele>814.0</ele><time>2026-04-26T09:54:13.309Z</time></trkpt><trkpt lat="37.7874677" lon="14.0242755"><ele>814.0</ele><time>2026-04-26T09:54:14.309Z</time></trkpt><trkpt lat="37.787317" lon="14.024032"><ele>818.6666666666666</ele><time>2026-04-26T09:54:15.309Z</time></trkpt><trkpt lat="37.7871861" lon="14.0238309"><ele>823.3333333333333</ele><time>2026-04-26T09:54:16.309Z</time></trkpt><trkpt lat="37.787053" lon="14.0236852"><ele>828.0</ele><time>2026-04-26T09:54:17.309Z</time></trkpt><trkpt lat="37.7869035" lon="14.0235915"><ele>824.6666666666667</ele><time>2026-04-26T09:54:18.309Z</time></trkpt><trkpt lat="37.7867146" lon="14.0235434"><ele>821.3333333333334</ele><time>2026-04-26T09:54:19.309Z</time></trkpt><trkpt lat="37.7865194" lon="14.0235014"><ele>818.0</ele><time>2026-04-26T09:54:20.309Z</time></trkpt><trkpt lat="37.7863345" lon="14.0234476"><ele>818.0</ele><time>2026-04-26T09:54:21.309Z</time></trkpt><trkpt lat="37.7861597" lon="14.0233563"><ele>818.0</ele><time>2026-04-26T09:54:22.309Z</time></trkpt><trkpt lat="37.7860023" lon="14.0232146"><ele>818.0</ele><time>2026-04-26T09:54:23.309Z</time></trkpt><trkpt lat="37.7858831" lon="14.0230405"><ele>819.3333333333334</ele><time>2026-04-26T09:54:24.309Z</time></trkpt><trkpt lat="37.7858044" lon="14.0228279"><ele>820.6666666666667</ele><time>2026-04-26T09:54:25.309Z</time></trkpt><trkpt lat="37.7857697" lon="14.0225876"><ele>822.0</ele><time>2026-04-26T09:54:26.309Z</time></trkpt><trkpt lat="37.7857664" lon="14.0223436"><ele>824.0</ele><time>2026-04-26T09:54:27.309Z</time></trkpt><trkpt lat="37.7857696" lon="14.0221209"><ele>826.0</ele><time>2026-04-26T09:54:28.309Z</time></trkpt><trkpt lat="37.7857518" lon="14.0219183"><ele>828.0</ele><time>2026-04-26T09:54:29.309Z</time></trkpt><trkpt lat="37.7856869" lon="14.0217298"><ele>832.6666666666667</ele><time>2026-04-26T09:54:30.309Z</time></trkpt><trkpt lat="37.7855672" lon="14.0215593"><ele>837.3333333333334</ele><time>2026-04-26T09:54:31.309Z</time></trkpt><trkpt lat="37.7854007" lon="14.0214041"><ele>842.0</ele><time>2026-04-26T09:54:32.309Z</time></trkpt><trkpt lat="37.7852236" lon="14.0212414"><ele>842.3333333333334</ele><time>2026-04-26T09:54:33.309Z</time></trkpt><trkpt lat="37.7850473" lon="14.0210775"><ele>842.6666666666667</ele><time>2026-04-26T09:54:34.309Z</time></trkpt><trkpt lat="37.7848892" lon="14.0209267"><ele>843.0</ele><time>2026-04-26T09:54:35.309Z</time></trkpt><trkpt lat="37.7847696" lon="14.0207929"><ele>843.0</ele><time>2026-04-26T09:54:36.308Z</time></trkpt><trkpt lat="37.7846896" lon="14.0206495"><ele>843.0</ele><time>2026-04-26T09:54:37.309Z</time></trkpt><trkpt lat="37.7846443" lon="14.0204704"><ele>843.0</ele><time>2026-04-26T09:54:38.309Z</time></trkpt><trkpt lat="37.7846037" lon="14.0202742"><ele>843.0</ele><time>2026-04-26T09:54:39.309Z</time></trkpt><trkpt lat="37.7845483" lon="14.0200776"><ele>844.3333333333333</ele><time>2026-04-26T09:54:40.309Z</time></trkpt><trkpt lat="37.7844528" lon="14.0199142"><ele>845.6666666666666</ele><time>2026-04-26T09:54:41.309Z</time></trkpt><trkpt lat="37.7843159" lon="14.0197848"><ele>847.0</ele><time>2026-04-26T09:54:42.309Z</time></trkpt><trkpt lat="37.7841454" lon="14.0196738"><ele>847.0</ele><time>2026-04-26T09:54:43.309Z</time></trkpt><trkpt lat="37.7839405" lon="14.0195658"><ele>847.0</ele><time>2026-04-26T09:54:44.309Z</time></trkpt><trkpt lat="37.7837354" lon="14.0194603"><ele>847.0</ele><time>2026-04-26T09:54:45.309Z</time></trkpt><trkpt lat="37.7835531" lon="14.0193405"><ele>846.0</ele><time>2026-04-26T09:54:46.309Z</time></trkpt><trkpt lat="37.7833851" lon="14.0192004"><ele>845.0</ele><time>2026-04-26T09:54:47.309Z</time></trkpt><trkpt lat="37.7832514" lon="14.0190405"><ele>844.0</ele><time>2026-04-26T09:54:48.309Z</time></trkpt><trkpt lat="37.7831375" lon="14.0188471"><ele>844.0</ele><time>2026-04-26T09:54:49.309Z</time></trkpt><trkpt lat="37.7830323" lon="14.0186081"><ele>844.0</ele><time>2026-04-26T09:54:50.309Z</time></trkpt><trkpt lat="37.7829179" lon="14.0183506"><ele>845.0</ele><time>2026-04-26T09:54:51.309Z</time></trkpt><trkpt lat="37.7827971" lon="14.0180907"><ele>846.0</ele><time>2026-04-26T09:54:52.309Z</time></trkpt><trkpt lat="37.7826721" lon="14.0178472"><ele>842.5</ele><time>2026-04-26T09:54:53.309Z</time></trkpt><trkpt lat="37.7825391" lon="14.0176185"><ele>839.0</ele><time>2026-04-26T09:54:54.309Z</time></trkpt><trkpt lat="37.7823805" lon="14.0174163"><ele>839.0</ele><time>2026-04-26T09:54:55.309Z</time></trkpt><trkpt lat="37.7821991" lon="14.0172354"><ele>839.0</ele><time>2026-04-26T09:54:56.309Z</time></trkpt><trkpt lat="37.7820171" lon="14.017064"><ele>836.6666666666667</ele><time>2026-04-26T09:54:57.309Z</time></trkpt><trkpt lat="37.7818425" lon="14.016899"><ele>834.3333333333333</ele><time>2026-04-26T09:54:58.309Z</time></trkpt><trkpt lat="37.7816968" lon="14.01673"><ele>832.0</ele><time>2026-04-26T09:54:59.309Z</time></trkpt><trkpt lat="37.7815881" lon="14.0165464"><ele>832.0</ele><time>2026-04-26T09:55:00.309Z</time></trkpt><trkpt lat="37.7815027" lon="14.0163088"><ele>832.0</ele><time>2026-04-26T09:55:01.309Z</time></trkpt><trkpt lat="37.7814328" lon="14.016059"><ele>832.0</ele><time>2026-04-26T09:55:02.309Z</time></trkpt><trkpt lat="37.7813686" lon="14.0158081"><ele>833.0</ele><time>2026-04-26T09:55:03.309Z</time></trkpt><trkpt lat="37.7812834" lon="14.0155673"><ele>834.0</ele><time>2026-04-26T09:55:04.309Z</time></trkpt><trkpt lat="37.7811685" lon="14.0153584"><ele>835.0</ele><time>2026-04-26T09:55:05.309Z</time></trkpt><trkpt lat="37.7810205" lon="14.0151781"><ele>836.3333333333333</ele><time>2026-04-26T09:55:06.309Z</time></trkpt><trkpt lat="37.7808413" lon="14.0150393"><ele>837.6666666666667</ele><time>2026-04-26T09:55:07.309Z</time></trkpt><trkpt lat="37.7806325" lon="14.0149348"><ele>839.0</ele><time>2026-04-26T09:55:08.309Z</time></trkpt><trkpt lat="37.7803959" lon="14.0148845"><ele>835.5</ele><time>2026-04-26T09:55:09.308Z</time></trkpt><trkpt lat="37.7801451" lon="14.0148647"><ele>832.0</ele><time>2026-04-26T09:55:10.309Z</time></trkpt><trkpt lat="37.7798988" lon="14.0148661"><ele>832.0</ele><time>2026-04-26T09:55:11.309Z</time></trkpt><trkpt lat="37.7796583" lon="14.0148704"><ele>832.0</ele><time>2026-04-26T09:55:12.309Z</time></trkpt><trkpt lat="37.7794513" lon="14.0148603"><ele>832.0</ele><time>2026-04-26T09:55:13.309Z</time></trkpt><trkpt lat="37.7792607" lon="14.014839"><ele>828.3333333333333</ele><time>2026-04-26T09:55:14.309Z</time></trkpt><trkpt lat="37.7790912" lon="14.0147672"><ele>824.6666666666667</ele><time>2026-04-26T09:55:15.309Z</time></trkpt><trkpt lat="37.7789498" lon="14.01465"><ele>821.0</ele><time>2026-04-26T09:55:16.309Z</time></trkpt><trkpt lat="37.7788136" lon="14.0144818"><ele>821.0</ele><time>2026-04-26T09:55:17.309Z</time></trkpt><trkpt lat="37.7786862" lon="14.0142616"><ele>821.0</ele><time>2026-04-26T09:55:18.309Z</time></trkpt><trkpt lat="37.7785547" lon="14.0140034"><ele>817.0</ele><time>2026-04-26T09:55:19.308Z</time></trkpt><trkpt lat="37.7784147" lon="14.0137492"><ele>813.0</ele><time>2026-04-26T09:55:20.309Z</time></trkpt><trkpt lat="37.7782704" lon="14.0135078"><ele>818.5</ele><time>2026-04-26T09:55:21.309Z</time></trkpt><trkpt lat="37.7781153" lon="14.0132889"><ele>824.0</ele><time>2026-04-26T09:55:22.309Z</time></trkpt><trkpt lat="37.7779522" lon="14.0131035"><ele>824.0</ele><time>2026-04-26T09:55:23.309Z</time></trkpt><trkpt lat="37.7778013" lon="14.0129324"><ele>824.0</ele><time>2026-04-26T09:55:24.309Z</time></trkpt><trkpt lat="37.777673" lon="14.0127777"><ele>824.0</ele><time>2026-04-26T09:55:25.309Z</time></trkpt><trkpt lat="37.7775697" lon="14.0126014"><ele>818.0</ele><time>2026-04-26T09:55:26.309Z</time></trkpt><trkpt lat="37.7775055" lon="14.0123662"><ele>812.0</ele><time>2026-04-26T09:55:27.309Z</time></trkpt><trkpt lat="37.7774331" lon="14.0120631"><ele>806.0</ele><time>2026-04-26T09:55:28.309Z</time></trkpt><trkpt lat="37.7773557" lon="14.0117349"><ele>807.5</ele><time>2026-04-26T09:55:29.309Z</time></trkpt><trkpt lat="37.7772871" lon="14.0114249"><ele>809.0</ele><time>2026-04-26T09:55:30.309Z</time></trkpt><trkpt lat="37.7772278" lon="14.0111334"><ele>809.0</ele><time>2026-04-26T09:55:31.309Z</time></trkpt><trkpt lat="37.7772024" lon="14.01084"><ele>809.0</ele><time>2026-04-26T09:55:32.309Z</time></trkpt><trkpt lat="37.7772055" lon="14.0105001"><ele>808.0</ele><time>2026-04-26T09:55:33.309Z</time></trkpt><trkpt lat="37.7772181" lon="14.010113"><ele>807.0</ele><time>2026-04-26T09:55:34.308Z</time></trkpt><trkpt lat="37.7772378" lon="14.0097465"><ele>805.5</ele><time>2026-04-26T09:55:35.309Z</time></trkpt><trkpt lat="37.7772507" lon="14.009404"><ele>804.0</ele><time>2026-04-26T09:55:36.309Z</time></trkpt><trkpt lat="37.7772662" lon="14.0090897"><ele>802.6666666666667</ele><time>2026-04-26T09:55:37.309Z</time></trkpt><trkpt lat="37.7772731" lon="14.0088302"><ele>801.3333333333334</ele><time>2026-04-26T09:55:38.309Z</time></trkpt><trkpt lat="37.7772624" lon="14.0086134"><ele>800.0</ele><time>2026-04-26T09:55:39.309Z</time></trkpt><trkpt lat="37.7772234" lon="14.0084164"><ele>801.6666666666667</ele><time>2026-04-26T09:55:40.309Z</time></trkpt><trkpt lat="37.7771349" lon="14.0082268"><ele>803.3333333333333</ele><time>2026-04-26T09:55:41.309Z</time></trkpt><trkpt lat="37.7769982" lon="14.0080245"><ele>805.0</ele><time>2026-04-26T09:55:42.309Z</time></trkpt><trkpt lat="37.7768505" lon="14.0078116"><ele>800.6666666666666</ele><time>2026-04-26T09:55:43.309Z</time></trkpt><trkpt lat="37.7767102" lon="14.0075863"><ele>796.3333333333333</ele><time>2026-04-26T09:55:44.309Z</time></trkpt><trkpt lat="37.7765987" lon="14.0073451"><ele>792.0</ele><time>2026-04-26T09:55:45.309Z</time></trkpt><trkpt lat="37.7765053" lon="14.0070986"><ele>792.0</ele><time>2026-04-26T09:55:46.309Z</time></trkpt><trkpt lat="37.7763994" lon="14.0068557"><ele>792.0</ele><time>2026-04-26T09:55:47.309Z</time></trkpt><trkpt lat="37.7762761" lon="14.0066452"><ele>792.0</ele><time>2026-04-26T09:55:48.309Z</time></trkpt><trkpt lat="37.7761467" lon="14.0064765"><ele>793.3333333333333</ele><time>2026-04-26T09:55:49.309Z</time></trkpt><trkpt lat="37.7760289" lon="14.0063339"><ele>794.6666666666666</ele><time>2026-04-26T09:55:50.309Z</time></trkpt><trkpt lat="37.7759425" lon="14.0061863"><ele>796.0</ele><time>2026-04-26T09:55:51.309Z</time></trkpt><trkpt lat="37.7759138" lon="14.0059755"><ele>787.0</ele><time>2026-04-26T09:55:52.309Z</time></trkpt><trkpt lat="37.7759039" lon="14.005673"><ele>778.0</ele><time>2026-04-26T09:55:53.309Z</time></trkpt><trkpt lat="37.7759056" lon="14.0053787"><ele>778.0</ele><time>2026-04-26T09:55:54.309Z</time></trkpt><trkpt lat="37.7759205" lon="14.0051032"><ele>778.0</ele><time>2026-04-26T09:55:55.309Z</time></trkpt><trkpt lat="37.7759497" lon="14.0048518"><ele>778.0</ele><time>2026-04-26T09:55:56.309Z</time></trkpt><trkpt lat="37.7760257" lon="14.0045821"><ele>780.5</ele><time>2026-04-26T09:55:57.309Z</time></trkpt><trkpt lat="37.7761409" lon="14.0042951"><ele>783.0</ele><time>2026-04-26T09:55:58.309Z</time></trkpt><trkpt lat="37.7762742" lon="14.0039672"><ele>783.0</ele><time>2026-04-26T09:55:59.309Z</time></trkpt><trkpt lat="37.7764053" lon="14.0036272"><ele>783.0</ele><time>2026-04-26T09:56:00.309Z</time></trkpt><trkpt lat="37.7765255" lon="14.0032955"><ele>778.0</ele><time>2026-04-26T09:56:01.309Z</time></trkpt><trkpt lat="37.7766403" lon="14.0029771"><ele>773.0</ele><time>2026-04-26T09:56:02.309Z</time></trkpt><trkpt lat="37.7767421" lon="14.0026882"><ele>772.3333333333334</ele><time>2026-04-26T09:56:03.309Z</time></trkpt><trkpt lat="37.7768177" lon="14.0024361"><ele>771.6666666666667</ele><time>2026-04-26T09:56:04.309Z</time></trkpt><trkpt lat="37.7768743" lon="14.0022135"><ele>771.0</ele><time>2026-04-26T09:56:05.309Z</time></trkpt><trkpt lat="37.776908" lon="14.002011"><ele>771.3333333333333</ele><time>2026-04-26T09:56:06.309Z</time></trkpt><trkpt lat="37.7769024" lon="14.0018214"><ele>771.6666666666666</ele><time>2026-04-26T09:56:07.309Z</time></trkpt><trkpt lat="37.7768487" lon="14.0016207"><ele>772.0</ele><time>2026-04-26T09:56:08.309Z</time></trkpt><trkpt lat="37.7767472" lon="14.0014137"><ele>772.0</ele><time>2026-04-26T09:56:09.309Z</time></trkpt><trkpt lat="37.7766387" lon="14.0012089"><ele>772.0</ele><time>2026-04-26T09:56:10.309Z</time></trkpt><trkpt lat="37.776553" lon="14.0010311"><ele>772.0</ele><time>2026-04-26T09:56:11.309Z</time></trkpt><trkpt lat="37.776505" lon="14.0008646"><ele>770.0</ele><time>2026-04-26T09:56:12.309Z</time></trkpt><trkpt lat="37.7765122" lon="14.0006723"><ele>768.0</ele><time>2026-04-26T09:56:13.309Z</time></trkpt><trkpt lat="37.7765797" lon="14.0004648"><ele>766.0</ele><time>2026-04-26T09:56:14.309Z</time></trkpt><trkpt lat="37.776682" lon="14.0002502"><ele>766.0</ele><time>2026-04-26T09:56:15.309Z</time></trkpt><trkpt lat="37.7767776" lon="14.0000352"><ele>766.0</ele><time>2026-04-26T09:56:16.309Z</time></trkpt><trkpt lat="37.7768366" lon="13.9997976"><ele>766.0</ele><time>2026-04-26T09:56:17.308Z</time></trkpt><trkpt lat="37.7768582" lon="13.9995347"><ele>766.0</ele><time>2026-04-26T09:56:18.309Z</time></trkpt><trkpt lat="37.7768457" lon="13.9992454"><ele>766.0</ele><time>2026-04-26T09:56:19.309Z</time></trkpt><trkpt lat="37.7768079" lon="13.9989617"><ele>766.0</ele><time>2026-04-26T09:56:20.308Z</time></trkpt><trkpt lat="37.7767657" lon="13.9987146"><ele>766.0</ele><time>2026-04-26T09:56:21.309Z</time></trkpt><trkpt lat="37.7767044" lon="13.9984957"><ele>766.0</ele><time>2026-04-26T09:56:22.309Z</time></trkpt><trkpt lat="37.7766011" lon="13.9982955"><ele>766.0</ele><time>2026-04-26T09:56:23.308Z</time></trkpt><trkpt lat="37.776457" lon="13.9980662"><ele>766.0</ele><time>2026-04-26T09:56:24.309Z</time></trkpt><trkpt lat="37.7762792" lon="13.9978272"><ele>766.0</ele><time>2026-04-26T09:56:25.309Z</time></trkpt><trkpt lat="37.7760992" lon="13.9975878"><ele>766.0</ele><time>2026-04-26T09:56:26.309Z</time></trkpt><trkpt lat="37.7759299" lon="13.9973824"><ele>763.5</ele><time>2026-04-26T09:56:27.309Z</time></trkpt><trkpt lat="37.7757408" lon="13.9972027"><ele>761.0</ele><time>2026-04-26T09:56:28.308Z</time></trkpt><trkpt lat="37.7755112" lon="13.997023"><ele>761.0</ele><time>2026-04-26T09:56:29.308Z</time></trkpt><trkpt lat="37.7752466" lon="13.9968531"><ele>761.0</ele><time>2026-04-26T09:56:30.309Z</time></trkpt><trkpt lat="37.7749695" lon="13.9966771"><ele>760.5</ele><time>2026-04-26T09:56:31.309Z</time></trkpt><trkpt lat="37.7747242" lon="13.9965212"><ele>760.0</ele><time>2026-04-26T09:56:32.309Z</time></trkpt><trkpt lat="37.7745235" lon="13.9964055"><ele>760.3333333333334</ele><time>2026-04-26T09:56:33.309Z</time></trkpt><trkpt lat="37.7743489" lon="13.9963146"><ele>760.6666666666666</ele><time>2026-04-26T09:56:34.309Z</time></trkpt><trkpt lat="37.7741803" lon="13.996255"><ele>761.0</ele><time>2026-04-26T09:56:35.309Z</time></trkpt><trkpt lat="37.7739944" lon="13.9962602"><ele>761.0</ele><time>2026-04-26T09:56:36.309Z</time></trkpt><trkpt lat="37.773784" lon="13.996318"><ele>761.0</ele><time>2026-04-26T09:56:37.309Z</time></trkpt><trkpt lat="37.7735435" lon="13.9964053"><ele>763.5</ele><time>2026-04-26T09:56:38.309Z</time></trkpt><trkpt lat="37.7733051" lon="13.9964987"><ele>766.0</ele><time>2026-04-26T09:56:39.309Z</time></trkpt><trkpt lat="37.7730929" lon="13.9966003"><ele>763.6666666666667</ele><time>2026-04-26T09:56:40.309Z</time></trkpt><trkpt lat="37.7729059" lon="13.9967202"><ele>761.3333333333334</ele><time>2026-04-26T09:56:41.309Z</time></trkpt><trkpt lat="37.7727358" lon="13.996895"><ele>759.0</ele><time>2026-04-26T09:56:42.309Z</time></trkpt><trkpt lat="37.772584" lon="13.9971118"><ele>760.6666666666666</ele><time>2026-04-26T09:56:43.309Z</time></trkpt><trkpt lat="37.7724328" lon="13.9973373"><ele>762.3333333333333</ele><time>2026-04-26T09:56:44.309Z</time></trkpt><trkpt lat="37.7722956" lon="13.9975377"><ele>764.0</ele><time>2026-04-26T09:56:45.309Z</time></trkpt><trkpt lat="37.7721777" lon="13.9977071"><ele>764.0</ele><time>2026-04-26T09:56:46.309Z</time></trkpt><trkpt lat="37.7720852" lon="13.9978334"><ele>764.0</ele><time>2026-04-26T09:56:47.309Z</time></trkpt><trkpt lat="37.7720075" lon="13.9979392"><ele>764.0</ele><time>2026-04-26T09:56:48.309Z</time></trkpt><trkpt lat="37.7719235" lon="13.9980102"><ele>764.0</ele><time>2026-04-26T09:56:49.309Z</time></trkpt><trkpt lat="37.7718391" lon="13.998057"><ele>764.0</ele><time>2026-04-26T09:56:50.309Z</time></trkpt><trkpt lat="37.7717531" lon="13.9980692"><ele>767.0</ele><time>2026-04-26T09:56:51.309Z</time></trkpt><trkpt lat="37.7716358" lon="13.9980455"><ele>770.0</ele><time>2026-04-26T09:56:52.309Z</time></trkpt><trkpt lat="37.7714838" lon="13.9979793"><ele>773.0</ele><time>2026-04-26T09:56:53.309Z</time></trkpt><trkpt lat="37.7713046" lon="13.9978682"><ele>773.0</ele><time>2026-04-26T09:56:54.309Z</time></trkpt><trkpt lat="37.7710812" lon="13.9977192"><ele>773.0</ele><time>2026-04-26T09:56:55.309Z</time></trkpt><trkpt lat="37.7708397" lon="13.9975476"><ele>778.0</ele><time>2026-04-26T09:56:56.309Z</time></trkpt><trkpt lat="37.7705798" lon="13.9973605"><ele>783.0</ele><time>2026-04-26T09:56:57.309Z</time></trkpt><trkpt lat="37.7703322" lon="13.9971779"><ele>780.5</ele><time>2026-04-26T09:56:58.309Z</time></trkpt><trkpt lat="37.7701073" lon="13.9970241"><ele>778.0</ele><time>2026-04-26T09:56:59.308Z</time></trkpt><trkpt lat="37.769923" lon="13.9968873"><ele>778.0</ele><time>2026-04-26T09:57:00.309Z</time></trkpt><trkpt lat="37.7697758" lon="13.9967497"><ele>778.0</ele><time>2026-04-26T09:57:01.309Z</time></trkpt><trkpt lat="37.7696797" lon="13.9965651"><ele>778.0</ele><time>2026-04-26T09:57:02.309Z</time></trkpt><trkpt lat="37.7696153" lon="13.9963542"><ele>778.0</ele><time>2026-04-26T09:57:03.309Z</time></trkpt><trkpt lat="37.7695482" lon="13.9961497"><ele>778.0</ele><time>2026-04-26T09:57:04.309Z</time></trkpt><trkpt lat="37.7694542" lon="13.9959874"><ele>778.0</ele><time>2026-04-26T09:57:05.309Z</time></trkpt><trkpt lat="37.7693231" lon="13.9958715"><ele>782.3333333333333</ele><time>2026-04-26T09:57:06.309Z</time></trkpt><trkpt lat="37.7691457" lon="13.9957914"><ele>786.6666666666667</ele><time>2026-04-26T09:57:07.309Z</time></trkpt><trkpt lat="37.7689457" lon="13.995721"><ele>791.0</ele><time>2026-04-26T09:57:08.308Z</time></trkpt><trkpt lat="37.7687386" lon="13.9956216"><ele>791.0</ele><time>2026-04-26T09:57:09.309Z</time></trkpt><trkpt lat="37.7685442" lon="13.9954879"><ele>791.0</ele><time>2026-04-26T09:57:10.309Z</time></trkpt><trkpt lat="37.7683596" lon="13.9952869"><ele>788.5</ele><time>2026-04-26T09:57:11.308Z</time></trkpt><trkpt lat="37.7681659" lon="13.9950571"><ele>786.0</ele><time>2026-04-26T09:57:12.309Z</time></trkpt><trkpt lat="37.7679726" lon="13.9948156"><ele>789.0</ele><time>2026-04-26T09:57:13.309Z</time></trkpt><trkpt lat="37.7678009" lon="13.9945911"><ele>792.0</ele><time>2026-04-26T09:57:14.309Z</time></trkpt><trkpt lat="37.7676375" lon="13.9943739"><ele>796.5</ele><time>2026-04-26T09:57:15.309Z</time></trkpt><trkpt lat="37.7674665" lon="13.9941422"><ele>801.0</ele><time>2026-04-26T09:57:16.309Z</time></trkpt><trkpt lat="37.7672883" lon="13.9938921"><ele>801.0</ele><time>2026-04-26T09:57:17.309Z</time></trkpt><trkpt lat="37.767117" lon="13.9936269"><ele>801.0</ele><time>2026-04-26T09:57:18.309Z</time></trkpt><trkpt lat="37.766954" lon="13.9933729"><ele>802.0</ele><time>2026-04-26T09:57:19.309Z</time></trkpt><trkpt lat="37.7668171" lon="13.9931286"><ele>803.0</ele><time>2026-04-26T09:57:20.309Z</time></trkpt><trkpt lat="37.7666932" lon="13.9929086"><ele>803.0</ele><time>2026-04-26T09:57:21.309Z</time></trkpt><trkpt lat="37.7665886" lon="13.992719"><ele>803.0</ele><time>2026-04-26T09:57:22.308Z</time></trkpt><trkpt lat="37.7664882" lon="13.992557"><ele>803.0</ele><time>2026-04-26T09:57:23.309Z</time></trkpt><trkpt lat="37.7663766" lon="13.9924187"><ele>805.0</ele><time>2026-04-26T09:57:24.309Z</time></trkpt><trkpt lat="37.7662321" lon="13.9923058"><ele>807.0</ele><time>2026-04-26T09:57:25.309Z</time></trkpt><trkpt lat="37.7660499" lon="13.9921973"><ele>809.0</ele><time>2026-04-26T09:57:26.309Z</time></trkpt><trkpt lat="37.7658199" lon="13.9920866"><ele>809.0</ele><time>2026-04-26T09:57:27.309Z</time></trkpt><trkpt lat="37.7655662" lon="13.9919764"><ele>809.0</ele><time>2026-04-26T09:57:28.308Z</time></trkpt><trkpt lat="37.7653288" lon="13.9918831"><ele>809.3333333333334</ele><time>2026-04-26T09:57:29.309Z</time></trkpt><trkpt lat="37.7651136" lon="13.9918286"><ele>809.6666666666667</ele><time>2026-04-26T09:57:30.309Z</time></trkpt><trkpt lat="37.764909" lon="13.9918146"><ele>810.0</ele><time>2026-04-26T09:57:31.309Z</time></trkpt><trkpt lat="37.7646889" lon="13.9918527"><ele>810.0</ele><time>2026-04-26T09:57:32.309Z</time></trkpt><trkpt lat="37.7644339" lon="13.9919213"><ele>810.0</ele><time>2026-04-26T09:57:33.308Z</time></trkpt><trkpt lat="37.764169" lon="13.992007"><ele>813.0</ele><time>2026-04-26T09:57:34.309Z</time></trkpt><trkpt lat="37.7639241" lon="13.992099"><ele>816.0</ele><time>2026-04-26T09:57:35.309Z</time></trkpt><trkpt lat="37.7637001" lon="13.9921968"><ele>819.5</ele><time>2026-04-26T09:57:36.309Z</time></trkpt><trkpt lat="37.7635035" lon="13.9923465"><ele>823.0</ele><time>2026-04-26T09:57:37.309Z</time></trkpt><trkpt lat="37.7633142" lon="13.9925356"><ele>823.0</ele><time>2026-04-26T09:57:38.309Z</time></trkpt><trkpt lat="37.7631065" lon="13.9927761"><ele>823.0</ele><time>2026-04-26T09:57:39.309Z</time></trkpt><trkpt lat="37.7629079" lon="13.9930136"><ele>823.0</ele><time>2026-04-26T09:57:40.309Z</time></trkpt><trkpt lat="37.7627434" lon="13.9932024"><ele>823.0</ele><time>2026-04-26T09:57:41.309Z</time></trkpt><trkpt lat="37.7625956" lon="13.9933633"><ele>823.0</ele><time>2026-04-26T09:57:42.309Z</time></trkpt><trkpt lat="37.7624641" lon="13.9934932"><ele>824.5</ele><time>2026-04-26T09:57:43.309Z</time></trkpt><trkpt lat="37.7623427" lon="13.9935467"><ele>826.0</ele><time>2026-04-26T09:57:44.309Z</time></trkpt><trkpt lat="37.7622108" lon="13.9935512"><ele>827.5</ele><time>2026-04-26T09:57:45.309Z</time></trkpt><trkpt lat="37.7620677" lon="13.9934697"><ele>829.0</ele><time>2026-04-26T09:57:46.309Z</time></trkpt><trkpt lat="37.7619094" lon="13.9933896"><ele>830.3333333333333</ele><time>2026-04-26T09:57:47.309Z</time></trkpt><trkpt lat="37.7617449" lon="13.9933363"><ele>831.6666666666667</ele><time>2026-04-26T09:57:48.309Z</time></trkpt><trkpt lat="37.7615626" lon="13.9933358"><ele>833.0</ele><time>2026-04-26T09:57:49.309Z</time></trkpt><trkpt lat="37.7613867" lon="13.9933913"><ele>833.0</ele><time>2026-04-26T09:57:50.309Z</time></trkpt><trkpt lat="37.7611828" lon="13.9934593"><ele>833.0</ele><time>2026-04-26T09:57:51.309Z</time></trkpt><trkpt lat="37.7609802" lon="13.9935234"><ele>833.0</ele><time>2026-04-26T09:57:52.309Z</time></trkpt><trkpt lat="37.7607536" lon="13.9935561"><ele>836.0</ele><time>2026-04-26T09:57:53.309Z</time></trkpt><trkpt lat="37.7605195" lon="13.9935542"><ele>839.0</ele><time>2026-04-26T09:57:54.309Z</time></trkpt><trkpt lat="37.7602779" lon="13.9935366"><ele>842.5</ele><time>2026-04-26T09:57:55.309Z</time></trkpt><trkpt lat="37.7600428" lon="13.9935402"><ele>846.0</ele><time>2026-04-26T09:57:56.308Z</time></trkpt><trkpt lat="37.7598146" lon="13.993577"><ele>846.0</ele><time>2026-04-26T09:57:57.309Z</time></trkpt><trkpt lat="37.7595818" lon="13.9936634"><ele>846.0</ele><time>2026-04-26T09:57:58.309Z</time></trkpt><trkpt lat="37.7593499" lon="13.9938137"><ele>847.0</ele><time>2026-04-26T09:57:59.309Z</time></trkpt><trkpt lat="37.7590917" lon="13.9940098"><ele>848.0</ele><time>2026-04-26T09:58:00.309Z</time></trkpt><trkpt lat="37.7588361" lon="13.9942124"><ele>848.0</ele><time>2026-04-26T09:58:01.309Z</time></trkpt><trkpt lat="37.7586081" lon="13.9943835"><ele>848.0</ele><time>2026-04-26T09:58:02.309Z</time></trkpt><trkpt lat="37.7584207" lon="13.9945316"><ele>852.3333333333334</ele><time>2026-04-26T09:58:03.309Z</time></trkpt><trkpt lat="37.7582813" lon="13.9946677"><ele>856.6666666666667</ele><time>2026-04-26T09:58:04.309Z</time></trkpt><trkpt lat="37.7581803" lon="13.9948404"><ele>861.0</ele><time>2026-04-26T09:58:05.308Z</time></trkpt><trkpt lat="37.7581121" lon="13.9950882"><ele>861.0</ele><time>2026-04-26T09:58:06.309Z</time></trkpt><trkpt lat="37.7580581" lon="13.9953582"><ele>861.0</ele><time>2026-04-26T09:58:07.309Z</time></trkpt><trkpt lat="37.7580155" lon="13.9956003"><ele>861.0</ele><time>2026-04-26T09:58:08.309Z</time></trkpt><trkpt lat="37.7579777" lon="13.9958"><ele>860.6666666666667</ele><time>2026-04-26T09:58:09.309Z</time></trkpt><trkpt lat="37.7578977" lon="13.9959674"><ele>860.3333333333334</ele><time>2026-04-26T09:58:10.309Z</time></trkpt><trkpt lat="37.7577813" lon="13.9960629"><ele>860.0</ele><time>2026-04-26T09:58:11.309Z</time></trkpt><trkpt lat="37.7576299" lon="13.9961162"><ele>863.6666666666667</ele><time>2026-04-26T09:58:12.309Z</time></trkpt><trkpt lat="37.7574851" lon="13.996098"><ele>867.3333333333333</ele><time>2026-04-26T09:58:13.309Z</time></trkpt><trkpt lat="37.7573337" lon="13.996021"><ele>871.0</ele><time>2026-04-26T09:58:14.309Z</time></trkpt><trkpt lat="37.7571885" lon="13.9958917"><ele>871.3333333333333</ele><time>2026-04-26T09:58:15.309Z</time></trkpt><trkpt lat="37.7570297" lon="13.9957375"><ele>871.6666666666667</ele><time>2026-04-26T09:58:16.309Z</time></trkpt><trkpt lat="37.7568668" lon="13.9955748"><ele>872.0</ele><time>2026-04-26T09:58:17.309Z</time></trkpt><trkpt lat="37.7567293" lon="13.9954359"><ele>872.0</ele><time>2026-04-26T09:58:18.309Z</time></trkpt><trkpt lat="37.756636" lon="13.9953045"><ele>872.0</ele><time>2026-04-26T09:58:19.309Z</time></trkpt><trkpt lat="37.7566028" lon="13.9951732"><ele>872.0</ele><time>2026-04-26T09:58:20.309Z</time></trkpt><trkpt lat="37.7566173" lon="13.9950215"><ele>872.0</ele><time>2026-04-26T09:58:21.309Z</time></trkpt><trkpt lat="37.7566845" lon="13.9948818"><ele>873.6666666666667</ele><time>2026-04-26T09:58:22.309Z</time></trkpt><trkpt lat="37.7568013" lon="13.994756"><ele>875.3333333333333</ele><time>2026-04-26T09:58:23.309Z</time></trkpt><trkpt lat="37.756936" lon="13.994631"><ele>877.0</ele><time>2026-04-26T09:58:24.309Z</time></trkpt><trkpt lat="37.7570805" lon="13.9944783"><ele>877.0</ele><time>2026-04-26T09:58:25.309Z</time></trkpt><trkpt lat="37.7572166" lon="13.9942841"><ele>877.0</ele><time>2026-04-26T09:58:26.309Z</time></trkpt><trkpt lat="37.7573273" lon="13.9940634"><ele>877.0</ele><time>2026-04-26T09:58:27.309Z</time></trkpt><trkpt lat="37.7574076" lon="13.9938134"><ele>878.0</ele><time>2026-04-26T09:58:28.309Z</time></trkpt><trkpt lat="37.757446" lon="13.9935464"><ele>879.0</ele><time>2026-04-26T09:58:29.309Z</time></trkpt><trkpt lat="37.7574557" lon="13.9932611"><ele>880.0</ele><time>2026-04-26T09:58:30.309Z</time></trkpt><trkpt lat="37.757436" lon="13.9929723"><ele>880.0</ele><time>2026-04-26T09:58:31.309Z</time></trkpt><trkpt lat="37.7573931" lon="13.9926961"><ele>880.0</ele><time>2026-04-26T09:58:32.309Z</time></trkpt><trkpt lat="37.7573522" lon="13.9924517"><ele>880.0</ele><time>2026-04-26T09:58:33.309Z</time></trkpt><trkpt lat="37.7573391" lon="13.9922336"><ele>878.6666666666666</ele><time>2026-04-26T09:58:34.309Z</time></trkpt><trkpt lat="37.7573655" lon="13.992048"><ele>877.3333333333333</ele><time>2026-04-26T09:58:35.309Z</time></trkpt><trkpt lat="37.7574503" lon="13.991852"><ele>876.0</ele><time>2026-04-26T09:58:36.309Z</time></trkpt><trkpt lat="37.7575883" lon="13.9916363"><ele>877.0</ele><time>2026-04-26T09:58:37.309Z</time></trkpt><trkpt lat="37.7577513" lon="13.9914207"><ele>878.0</ele><time>2026-04-26T09:58:38.309Z</time></trkpt><trkpt lat="37.7579161" lon="13.991204"><ele>878.0</ele><time>2026-04-26T09:58:39.309Z</time></trkpt><trkpt lat="37.7580712" lon="13.9909958"><ele>878.0</ele><time>2026-04-26T09:58:40.309Z</time></trkpt><trkpt lat="37.7582222" lon="13.9907954"><ele>878.0</ele><time>2026-04-26T09:58:41.309Z</time></trkpt><trkpt lat="37.7583577" lon="13.9906082"><ele>877.3333333333334</ele><time>2026-04-26T09:58:42.309Z</time></trkpt><trkpt lat="37.7584807" lon="13.9904222"><ele>876.6666666666667</ele><time>2026-04-26T09:58:43.309Z</time></trkpt><trkpt lat="37.7585846" lon="13.990239"><ele>876.0</ele><time>2026-04-26T09:58:44.309Z</time></trkpt><trkpt lat="37.7586552" lon="13.9900391"><ele>873.6666666666667</ele><time>2026-04-26T09:58:45.309Z</time></trkpt><trkpt lat="37.7586943" lon="13.9898467"><ele>871.3333333333334</ele><time>2026-04-26T09:58:46.309Z</time></trkpt><trkpt lat="37.7587195" lon="13.9896564"><ele>869.0</ele><time>2026-04-26T09:58:47.309Z</time></trkpt><trkpt lat="37.7587322" lon="13.9894702"><ele>869.0</ele><time>2026-04-26T09:58:48.309Z</time></trkpt><trkpt lat="37.7587426" lon="13.9892984"><ele>869.0000000000001</ele><time>2026-04-26T09:58:49.309Z</time></trkpt><trkpt lat="37.7587446" lon="13.9891563"><ele>869.0000000000001</ele><time>2026-04-26T09:58:50.309Z</time></trkpt><trkpt lat="37.7587219" lon="13.9890456"><ele>869.0</ele><time>2026-04-26T09:58:51.308Z</time></trkpt><trkpt lat="37.7586648" lon="13.9889664"><ele>869.0</ele><time>2026-04-26T09:58:52.309Z</time></trkpt><trkpt lat="37.7585923" lon="13.9889237"><ele>865.8000000000001</ele><time>2026-04-26T09:58:53.309Z</time></trkpt><trkpt lat="37.7585042" lon="13.9889408"><ele>862.6000000000001</ele><time>2026-04-26T09:58:54.309Z</time></trkpt><trkpt lat="37.7584136" lon="13.9889958"><ele>859.4</ele><time>2026-04-26T09:58:55.309Z</time></trkpt><trkpt lat="37.7583567" lon="13.9890961"><ele>856.2</ele><time>2026-04-26T09:58:56.308Z</time></trkpt><trkpt lat="37.7583104" lon="13.9892488"><ele>853.0</ele><time>2026-04-26T09:58:57.309Z</time></trkpt><trkpt lat="37.7582779" lon="13.989398"><ele>853.0</ele><time>2026-04-26T09:58:58.308Z</time></trkpt><trkpt lat="37.7582507" lon="13.9895513"><ele>853.0</ele><time>2026-04-26T09:58:59.309Z</time></trkpt><trkpt lat="37.7582067" lon="13.9897017"><ele>853.0</ele><time>2026-04-26T09:59:00.309Z</time></trkpt><trkpt lat="37.7581305" lon="13.989857"><ele>853.0</ele><time>2026-04-26T09:59:01.309Z</time></trkpt><trkpt lat="37.7580372" lon="13.9900056"><ele>852.5</ele><time>2026-04-26T09:59:02.309Z</time></trkpt><trkpt lat="37.7579251" lon="13.9901201"><ele>852.0</ele><time>2026-04-26T09:59:03.308Z</time></trkpt><trkpt lat="37.7578045" lon="13.9902073"><ele>851.5</ele><time>2026-04-26T09:59:04.309Z</time></trkpt><trkpt lat="37.7576743" lon="13.9902695"><ele>851.0</ele><time>2026-04-26T09:59:05.308Z</time></trkpt><trkpt lat="37.7575431" lon="13.9903169"><ele>851.0</ele><time>2026-04-26T09:59:06.309Z</time></trkpt><trkpt lat="37.7574134" lon="13.9903589"><ele>851.0</ele><time>2026-04-26T09:59:07.309Z</time></trkpt><trkpt lat="37.7572807" lon="13.9904062"><ele>851.0</ele><time>2026-04-26T09:59:08.309Z</time></trkpt><trkpt lat="37.7571493" lon="13.9904539"><ele>851.0</ele><time>2026-04-26T09:59:09.309Z</time></trkpt><trkpt lat="37.7570238" lon="13.9905125"><ele>851.0</ele><time>2026-04-26T09:59:10.309Z</time></trkpt><trkpt lat="37.7569046" lon="13.9905799"><ele>851.0</ele><time>2026-04-26T09:59:11.309Z</time></trkpt><trkpt lat="37.7567944" lon="13.9906586"><ele>851.0</ele><time>2026-04-26T09:59:12.309Z</time></trkpt><trkpt lat="37.7566897" lon="13.99073"><ele>851.0</ele><time>2026-04-26T09:59:13.309Z</time></trkpt><trkpt lat="37.7565981" lon="13.9908"><ele>850.6666666666667</ele><time>2026-04-26T09:59:14.309Z</time></trkpt><trkpt lat="37.7565165" lon="13.9908563"><ele>850.3333333333334</ele><time>2026-04-26T09:59:15.309Z</time></trkpt><trkpt lat="37.7564356" lon="13.9908825"><ele>850.0</ele><time>2026-04-26T09:59:16.309Z</time></trkpt><trkpt lat="37.7563684" lon="13.9908582"><ele>849.6666666666667</ele><time>2026-04-26T09:59:17.309Z</time></trkpt><trkpt lat="37.7563173" lon="13.9907909"><ele>849.3333333333334</ele><time>2026-04-26T09:59:18.308Z</time></trkpt><trkpt lat="37.7563047" lon="13.9906924"><ele>849.0</ele><time>2026-04-26T09:59:19.309Z</time></trkpt><trkpt lat="37.7563334" lon="13.9905792"><ele>845.5</ele><time>2026-04-26T09:59:20.309Z</time></trkpt><trkpt lat="37.7564088" lon="13.9904468"><ele>842.0</ele><time>2026-04-26T09:59:21.309Z</time></trkpt><trkpt lat="37.7564978" lon="13.9903233"><ele>838.5</ele><time>2026-04-26T09:59:22.309Z</time></trkpt><trkpt lat="37.7565867" lon="13.9902029"><ele>835.0</ele><time>2026-04-26T09:59:23.309Z</time></trkpt><trkpt lat="37.7566685" lon="13.9900734"><ele>835.5</ele><time>2026-04-26T09:59:24.309Z</time></trkpt><trkpt lat="37.7567453" lon="13.9899421"><ele>836.0</ele><time>2026-04-26T09:59:25.309Z</time></trkpt><trkpt lat="37.7568162" lon="13.9898025"><ele>836.5</ele><time>2026-04-26T09:59:26.309Z</time></trkpt><trkpt lat="37.7568851" lon="13.9896467"><ele>837.0</ele><time>2026-04-26T09:59:27.308Z</time></trkpt><trkpt lat="37.756945" lon="13.9894682"><ele>837.0</ele><time>2026-04-26T09:59:28.309Z</time></trkpt><trkpt lat="37.7569958" lon="13.989276"><ele>837.0</ele><time>2026-04-26T09:59:29.309Z</time></trkpt><trkpt lat="37.757041" lon="13.9890735"><ele>837.0</ele><time>2026-04-26T09:59:30.309Z</time></trkpt><trkpt lat="37.7570833" lon="13.9888698"><ele>834.3333333333333</ele><time>2026-04-26T09:59:31.309Z</time></trkpt><trkpt lat="37.7571291" lon="13.9886676"><ele>831.6666666666666</ele><time>2026-04-26T09:59:32.309Z</time></trkpt><trkpt lat="37.7571762" lon="13.9884763"><ele>829.0</ele><time>2026-04-26T09:59:33.309Z</time></trkpt><trkpt lat="37.7572206" lon="13.988289"><ele>826.6666666666666</ele><time>2026-04-26T09:59:34.309Z</time></trkpt><trkpt lat="37.7572524" lon="13.9881063"><ele>824.3333333333333</ele><time>2026-04-26T09:59:35.309Z</time></trkpt><trkpt lat="37.7572725" lon="13.9879213"><ele>822.0</ele><time>2026-04-26T09:59:36.309Z</time></trkpt><trkpt lat="37.7572725" lon="13.9877249"><ele>822.0</ele><time>2026-04-26T09:59:37.309Z</time></trkpt><trkpt lat="37.7572483" lon="13.9875178"><ele>822.0</ele><time>2026-04-26T09:59:38.309Z</time></trkpt><trkpt lat="37.7571885" lon="13.9873147"><ele>822.0</ele><time>2026-04-26T09:59:39.309Z</time></trkpt><trkpt lat="37.7571027" lon="13.9871321"><ele>822.0</ele><time>2026-04-26T09:59:40.308Z</time></trkpt><trkpt lat="37.7570094" lon="13.9869466"><ele>822.0</ele><time>2026-04-26T09:59:41.309Z</time></trkpt><trkpt lat="37.756908" lon="13.9867562"><ele>822.0</ele><time>2026-04-26T09:59:42.309Z</time></trkpt><trkpt lat="37.7568028" lon="13.9865693"><ele>818.25</ele><time>2026-04-26T09:59:43.308Z</time></trkpt><trkpt lat="37.7567113" lon="13.9863921"><ele>814.5</ele><time>2026-04-26T09:59:44.309Z</time></trkpt><trkpt lat="37.7566301" lon="13.9862368"><ele>810.75</ele><time>2026-04-26T09:59:45.309Z</time></trkpt><trkpt lat="37.7565519" lon="13.9861031"><ele>807.0</ele><time>2026-04-26T09:59:46.309Z</time></trkpt><trkpt lat="37.7564853" lon="13.9859746"><ele>807.0</ele><time>2026-04-26T09:59:47.309Z</time></trkpt><trkpt lat="37.7564463" lon="13.9858519"><ele>807.0</ele><time>2026-04-26T09:59:48.309Z</time></trkpt><trkpt lat="37.7564434" lon="13.9857294"><ele>807.0</ele><time>2026-04-26T09:59:49.308Z</time></trkpt><trkpt lat="37.7564731" lon="13.9856181"><ele>807.0</ele><time>2026-04-26T09:59:50.309Z</time></trkpt><trkpt lat="37.7565424" lon="13.9855186"><ele>807.0</ele><time>2026-04-26T09:59:51.309Z</time></trkpt><trkpt lat="37.7566544" lon="13.9854381"><ele>806.0</ele><time>2026-04-26T09:59:52.309Z</time></trkpt><trkpt lat="37.7568099" lon="13.985359"><ele>805.0</ele><time>2026-04-26T09:59:53.309Z</time></trkpt><trkpt lat="37.7569739" lon="13.9852823"><ele>804.0</ele><time>2026-04-26T09:59:54.309Z</time></trkpt><trkpt lat="37.7571339" lon="13.9852092"><ele>806.6666666666667</ele><time>2026-04-26T09:59:55.309Z</time></trkpt><trkpt lat="37.7572839" lon="13.9851284"><ele>809.3333333333334</ele><time>2026-04-26T09:59:56.309Z</time></trkpt><trkpt lat="37.7574315" lon="13.9850396"><ele>812.0</ele><time>2026-04-26T09:59:57.309Z</time></trkpt><trkpt lat="37.7575856" lon="13.9849309"><ele>808.3333333333334</ele><time>2026-04-26T09:59:58.308Z</time></trkpt><trkpt lat="37.7577451" lon="13.9847889"><ele>804.6666666666667</ele><time>2026-04-26T09:59:59.309Z</time></trkpt><trkpt lat="37.7579115" lon="13.9846268"><ele>801.0</ele><time>2026-04-26T10:00:00.309Z</time></trkpt><trkpt lat="37.7580754" lon="13.9844607"><ele>801.0</ele><time>2026-04-26T10:00:01.309Z</time></trkpt><trkpt lat="37.7582369" lon="13.9842984"><ele>801.0</ele><time>2026-04-26T10:00:02.309Z</time></trkpt><trkpt lat="37.7584003" lon="13.9841448"><ele>801.0</ele><time>2026-04-26T10:00:03.309Z</time></trkpt><trkpt lat="37.7585671" lon="13.9839945"><ele>798.0</ele><time>2026-04-26T10:00:04.309Z</time></trkpt><trkpt lat="37.7587352" lon="13.983843"><ele>795.0</ele><time>2026-04-26T10:00:05.309Z</time></trkpt><trkpt lat="37.7588973" lon="13.9836814"><ele>792.0</ele><time>2026-04-26T10:00:06.309Z</time></trkpt><trkpt lat="37.7590452" lon="13.9835035"><ele>788.6666666666667</ele><time>2026-04-26T10:00:07.309Z</time></trkpt><trkpt lat="37.7591727" lon="13.9833105"><ele>785.3333333333334</ele><time>2026-04-26T10:00:08.309Z</time></trkpt><trkpt lat="37.7592779" lon="13.9831151"><ele>782.0</ele><time>2026-04-26T10:00:09.309Z</time></trkpt><trkpt lat="37.7593543" lon="13.9829218"><ele>780.0</ele><time>2026-04-26T10:00:10.309Z</time></trkpt><trkpt lat="37.7593943" lon="13.9827338"><ele>778.0</ele><time>2026-04-26T10:00:11.309Z</time></trkpt><trkpt lat="37.7593873" lon="13.9825439"><ele>776.0</ele><time>2026-04-26T10:00:12.308Z</time></trkpt><trkpt lat="37.7593345" lon="13.982331"><ele>776.0</ele><time>2026-04-26T10:00:13.308Z</time></trkpt><trkpt lat="37.7592539" lon="13.9820947"><ele>776.0</ele><time>2026-04-26T10:00:14.308Z</time></trkpt><trkpt lat="37.7591668" lon="13.981843"><ele>776.0</ele><time>2026-04-26T10:00:15.308Z</time></trkpt><trkpt lat="37.7590768" lon="13.9815866"><ele>776.0</ele><time>2026-04-26T10:00:16.309Z</time></trkpt><trkpt lat="37.7589962" lon="13.9813079"><ele>776.0</ele><time>2026-04-26T10:00:17.309Z</time></trkpt><trkpt lat="37.758923" lon="13.9810271"><ele>776.0</ele><time>2026-04-26T10:00:18.309Z</time></trkpt><trkpt lat="37.7588544" lon="13.980755"><ele>776.0</ele><time>2026-04-26T10:00:19.309Z</time></trkpt><trkpt lat="37.758798" lon="13.9804905"><ele>776.0</ele><time>2026-04-26T10:00:20.309Z</time></trkpt><trkpt lat="37.7587541" lon="13.9802133"><ele>775.0</ele><time>2026-04-26T10:00:21.309Z</time></trkpt><trkpt lat="37.7587253" lon="13.979934"><ele>774.0</ele><time>2026-04-26T10:00:22.309Z</time></trkpt><trkpt lat="37.7587102" lon="13.9796576"><ele>773.0</ele><time>2026-04-26T10:00:23.309Z</time></trkpt><trkpt lat="37.7587036" lon="13.9793895"><ele>771.3333333333334</ele><time>2026-04-26T10:00:24.309Z</time></trkpt><trkpt lat="37.7587037" lon="13.9791227"><ele>769.6666666666667</ele><time>2026-04-26T10:00:25.309Z</time></trkpt><trkpt lat="37.7587043" lon="13.9788633"><ele>768.0</ele><time>2026-04-26T10:00:26.309Z</time></trkpt><trkpt lat="37.7586949" lon="13.9786168"><ele>768.0</ele><time>2026-04-26T10:00:27.309Z</time></trkpt><trkpt lat="37.7586661" lon="13.9783754"><ele>768.0</ele><time>2026-04-26T10:00:28.309Z</time></trkpt><trkpt lat="37.7586107" lon="13.9781331"><ele>768.0</ele><time>2026-04-26T10:00:29.308Z</time></trkpt><trkpt lat="37.758528" lon="13.9778954"><ele>764.0</ele><time>2026-04-26T10:00:30.309Z</time></trkpt><trkpt lat="37.7584271" lon="13.9776564"><ele>760.0</ele><time>2026-04-26T10:00:31.308Z</time></trkpt><trkpt lat="37.7583206" lon="13.977401"><ele>756.0</ele><time>2026-04-26T10:00:32.308Z</time></trkpt><trkpt lat="37.7582169" lon="13.9771394"><ele>755.6666666666666</ele><time>2026-04-26T10:00:33.309Z</time></trkpt><trkpt lat="37.758117" lon="13.9768887"><ele>755.3333333333333</ele><time>2026-04-26T10:00:34.309Z</time></trkpt><trkpt lat="37.7580163" lon="13.9766507"><ele>755.0</ele><time>2026-04-26T10:00:35.309Z</time></trkpt><trkpt lat="37.7579102" lon="13.9764462"><ele>754.5</ele><time>2026-04-26T10:00:36.309Z</time></trkpt><trkpt lat="37.7577894" lon="13.9762791"><ele>754.0</ele><time>2026-04-26T10:00:37.309Z</time></trkpt><trkpt lat="37.7576753" lon="13.9761611"><ele>753.5</ele><time>2026-04-26T10:00:38.309Z</time></trkpt><trkpt lat="37.7575895" lon="13.9760677"><ele>753.0</ele><time>2026-04-26T10:00:39.308Z</time></trkpt><trkpt lat="37.7575229" lon="13.9760012"><ele>751.0</ele><time>2026-04-26T10:00:40.308Z</time></trkpt><trkpt lat="37.7574589" lon="13.97594"><ele>749.0</ele><time>2026-04-26T10:00:42.309Z</time></trkpt><trkpt lat="37.7573481" lon="13.9758412"><ele>747.0</ele><time>2026-04-26T10:00:44.309Z</time></trkpt><trkpt lat="37.7572707" lon="13.9757552"><ele>745.0</ele><time>2026-04-26T10:00:45.309Z</time></trkpt><trkpt lat="37.7571877" lon="13.9756474"><ele>743.0</ele><time>2026-04-26T10:00:46.309Z</time></trkpt><trkpt lat="37.7570989" lon="13.9755238"><ele>742.6666666666666</ele><time>2026-04-26T10:00:47.309Z</time></trkpt><trkpt lat="37.756999" lon="13.9753857"><ele>742.3333333333334</ele><time>2026-04-26T10:00:48.309Z</time></trkpt><trkpt lat="37.7568889" lon="13.9752324"><ele>742.0</ele><time>2026-04-26T10:00:49.309Z</time></trkpt><trkpt lat="37.7567815" lon="13.9750779"><ele>741.3333333333334</ele><time>2026-04-26T10:00:50.308Z</time></trkpt><trkpt lat="37.7566712" lon="13.9749196"><ele>740.6666666666666</ele><time>2026-04-26T10:00:51.309Z</time></trkpt><trkpt lat="37.7565545" lon="13.9747479"><ele>740.0</ele><time>2026-04-26T10:00:52.309Z</time></trkpt><trkpt lat="37.7564326" lon="13.9745742"><ele>740.0</ele><time>2026-04-26T10:00:53.309Z</time></trkpt><trkpt lat="37.7562945" lon="13.9744005"><ele>740.0</ele><time>2026-04-26T10:00:54.309Z</time></trkpt><trkpt lat="37.756132" lon="13.9742509"><ele>740.0</ele><time>2026-04-26T10:00:55.309Z</time></trkpt><trkpt lat="37.7559494" lon="13.9741299"><ele>740.0</ele><time>2026-04-26T10:00:56.309Z</time></trkpt><trkpt lat="37.7557363" lon="13.9740467"><ele>740.0</ele><time>2026-04-26T10:00:57.309Z</time></trkpt><trkpt lat="37.7555081" lon="13.973954"><ele>740.0</ele><time>2026-04-26T10:00:58.309Z</time></trkpt><trkpt lat="37.7552753" lon="13.9738467"><ele>740.0</ele><time>2026-04-26T10:00:59.309Z</time></trkpt><trkpt lat="37.7550431" lon="13.9737382"><ele>740.0</ele><time>2026-04-26T10:01:00.309Z</time></trkpt><trkpt lat="37.7548225" lon="13.9736427"><ele>740.0</ele><time>2026-04-26T10:01:01.309Z</time></trkpt><trkpt lat="37.7546225" lon="13.9735645"><ele>740.0</ele><time>2026-04-26T10:01:02.309Z</time></trkpt><trkpt lat="37.7544372" lon="13.9734847"><ele>740.3333333333333</ele><time>2026-04-26T10:01:03.309Z</time></trkpt><trkpt lat="37.7542674" lon="13.9733868"><ele>740.6666666666666</ele><time>2026-04-26T10:01:04.309Z</time></trkpt><trkpt lat="37.7541142" lon="13.973259"><ele>741.0</ele><time>2026-04-26T10:01:05.309Z</time></trkpt><trkpt lat="37.7539691" lon="13.9730886"><ele>744.6666666666666</ele><time>2026-04-26T10:01:06.309Z</time></trkpt><trkpt lat="37.7538404" lon="13.9728976"><ele>748.3333333333333</ele><time>2026-04-26T10:01:07.309Z</time></trkpt><trkpt lat="37.7537261" lon="13.9726868"><ele>752.0</ele><time>2026-04-26T10:01:08.309Z</time></trkpt><trkpt lat="37.7536235" lon="13.9724557"><ele>752.0</ele><time>2026-04-26T10:01:09.309Z</time></trkpt><trkpt lat="37.7535317" lon="13.9722085"><ele>752.0</ele><time>2026-04-26T10:01:10.309Z</time></trkpt><trkpt lat="37.7534599" lon="13.9719444"><ele>752.0</ele><time>2026-04-26T10:01:11.309Z</time></trkpt><trkpt lat="37.753399" lon="13.9716644"><ele>752.0</ele><time>2026-04-26T10:01:12.309Z</time></trkpt><trkpt lat="37.7533337" lon="13.9713645"><ele>752.0</ele><time>2026-04-26T10:01:13.309Z</time></trkpt><trkpt lat="37.75326" lon="13.9710376"><ele>751.5</ele><time>2026-04-26T10:01:14.309Z</time></trkpt><trkpt lat="37.7531801" lon="13.9707001"><ele>751.0</ele><time>2026-04-26T10:01:15.309Z</time></trkpt><trkpt lat="37.7531069" lon="13.9703699"><ele>751.0</ele><time>2026-04-26T10:01:16.309Z</time></trkpt><trkpt lat="37.7530442" lon="13.9700754"><ele>751.0</ele><time>2026-04-26T10:01:17.309Z</time></trkpt><trkpt lat="37.7529886" lon="13.969807"><ele>751.0</ele><time>2026-04-26T10:01:18.309Z</time></trkpt><trkpt lat="37.7529324" lon="13.9695558"><ele>751.0</ele><time>2026-04-26T10:01:19.309Z</time></trkpt><trkpt lat="37.7528875" lon="13.9693356"><ele>751.0</ele><time>2026-04-26T10:01:20.309Z</time></trkpt><trkpt lat="37.7528662" lon="13.9691322"><ele>749.6666666666667</ele><time>2026-04-26T10:01:21.309Z</time></trkpt><trkpt lat="37.7528766" lon="13.968938"><ele>748.3333333333334</ele><time>2026-04-26T10:01:22.309Z</time></trkpt><trkpt lat="37.7529304" lon="13.9687524"><ele>747.0</ele><time>2026-04-26T10:01:23.308Z</time></trkpt><trkpt lat="37.7530258" lon="13.9685647"><ele>747.0</ele><time>2026-04-26T10:01:24.309Z</time></trkpt><trkpt lat="37.7531393" lon="13.9683818"><ele>747.0</ele><time>2026-04-26T10:01:25.309Z</time></trkpt><trkpt lat="37.7532567" lon="13.968198"><ele>747.0</ele><time>2026-04-26T10:01:26.309Z</time></trkpt><trkpt lat="37.7533795" lon="13.9679972"><ele>748.6666666666666</ele><time>2026-04-26T10:01:27.309Z</time></trkpt><trkpt lat="37.7535087" lon="13.9677873"><ele>750.3333333333333</ele><time>2026-04-26T10:01:28.309Z</time></trkpt><trkpt lat="37.7536376" lon="13.9675741"><ele>752.0</ele><time>2026-04-26T10:01:29.309Z</time></trkpt><trkpt lat="37.7537676" lon="13.9673645"><ele>748.0</ele><time>2026-04-26T10:01:30.309Z</time></trkpt><trkpt lat="37.7538899" lon="13.9671603"><ele>744.0</ele><time>2026-04-26T10:01:31.309Z</time></trkpt><trkpt lat="37.7540034" lon="13.966957"><ele>740.0</ele><time>2026-04-26T10:01:32.309Z</time></trkpt><trkpt lat="37.7541016" lon="13.9667474"><ele>737.3333333333333</ele><time>2026-04-26T10:01:33.309Z</time></trkpt><trkpt lat="37.7541866" lon="13.9665229"><ele>734.6666666666666</ele><time>2026-04-26T10:01:34.309Z</time></trkpt><trkpt lat="37.7542589" lon="13.966281"><ele>732.0</ele><time>2026-04-26T10:01:35.309Z</time></trkpt><trkpt lat="37.7543283" lon="13.9660529"><ele>731.6666666666666</ele><time>2026-04-26T10:01:36.308Z</time></trkpt><trkpt lat="37.7543938" lon="13.9658436"><ele>731.3333333333333</ele><time>2026-04-26T10:01:37.309Z</time></trkpt><trkpt lat="37.7544746" lon="13.9656396"><ele>731.0</ele><time>2026-04-26T10:01:38.309Z</time></trkpt><trkpt lat="37.7545707" lon="13.9654446"><ele>731.0</ele><time>2026-04-26T10:01:39.309Z</time></trkpt><trkpt lat="37.7546814" lon="13.96526"><ele>731.0</ele><time>2026-04-26T10:01:40.309Z</time></trkpt><trkpt lat="37.7548075" lon="13.9650848"><ele>731.0</ele><time>2026-04-26T10:01:41.309Z</time></trkpt><trkpt lat="37.7549376" lon="13.9649198"><ele>728.3333333333333</ele><time>2026-04-26T10:01:42.309Z</time></trkpt><trkpt lat="37.7550634" lon="13.9647568"><ele>725.6666666666666</ele><time>2026-04-26T10:01:43.309Z</time></trkpt><trkpt lat="37.7551922" lon="13.9646051"><ele>723.0</ele><time>2026-04-26T10:01:44.309Z</time></trkpt><trkpt lat="37.7553224" lon="13.9644662"><ele>723.0</ele><time>2026-04-26T10:01:45.309Z</time></trkpt><trkpt lat="37.7554516" lon="13.9643457"><ele>723.0</ele><time>2026-04-26T10:01:46.309Z</time></trkpt><trkpt lat="37.7555744" lon="13.9642422"><ele>723.0</ele><time>2026-04-26T10:01:47.309Z</time></trkpt><trkpt lat="37.7556961" lon="13.964168"><ele>723.0</ele><time>2026-04-26T10:01:48.309Z</time></trkpt><trkpt lat="37.7558153" lon="13.9641055"><ele>721.25</ele><time>2026-04-26T10:01:49.309Z</time></trkpt><trkpt lat="37.7559495" lon="13.964062"><ele>719.5</ele><time>2026-04-26T10:01:50.309Z</time></trkpt><trkpt lat="37.7560924" lon="13.9640392"><ele>717.75</ele><time>2026-04-26T10:01:51.309Z</time></trkpt><trkpt lat="37.7562532" lon="13.9640301"><ele>716.0</ele><time>2026-04-26T10:01:52.309Z</time></trkpt><trkpt lat="37.7564216" lon="13.9640384"><ele>716.0</ele><time>2026-04-26T10:01:53.309Z</time></trkpt><trkpt lat="37.7565945" lon="13.964053"><ele>716.0</ele><time>2026-04-26T10:01:54.309Z</time></trkpt><trkpt lat="37.7567667" lon="13.9640756"><ele>716.0</ele><time>2026-04-26T10:01:55.309Z</time></trkpt><trkpt lat="37.7569419" lon="13.9641097"><ele>717.3333333333333</ele><time>2026-04-26T10:01:56.309Z</time></trkpt><trkpt lat="37.7571141" lon="13.9641627"><ele>718.6666666666666</ele><time>2026-04-26T10:01:57.309Z</time></trkpt><trkpt lat="37.7572844" lon="13.9642239"><ele>720.0</ele><time>2026-04-26T10:01:58.309Z</time></trkpt><trkpt lat="37.757455" lon="13.9643028"><ele>722.3333333333334</ele><time>2026-04-26T10:01:59.309Z</time></trkpt><trkpt lat="37.7576285" lon="13.9643913"><ele>724.6666666666667</ele><time>2026-04-26T10:02:00.309Z</time></trkpt><trkpt lat="37.7578005" lon="13.9644766"><ele>727.0</ele><time>2026-04-26T10:02:01.309Z</time></trkpt><trkpt lat="37.7579678" lon="13.9645596"><ele>727.0</ele><time>2026-04-26T10:02:02.309Z</time></trkpt><trkpt lat="37.7581331" lon="13.9646416"><ele>727.0</ele><time>2026-04-26T10:02:03.309Z</time></trkpt><trkpt lat="37.7582887" lon="13.9647227"><ele>727.0</ele><time>2026-04-26T10:02:04.309Z</time></trkpt><trkpt lat="37.7584362" lon="13.9647974"><ele>726.75</ele><time>2026-04-26T10:02:05.309Z</time></trkpt><trkpt lat="37.7585776" lon="13.9648501"><ele>726.5</ele><time>2026-04-26T10:02:06.309Z</time></trkpt><trkpt lat="37.7587116" lon="13.9648678"><ele>726.25</ele><time>2026-04-26T10:02:07.309Z</time></trkpt><trkpt lat="37.7588375" lon="13.9648484"><ele>726.0</ele><time>2026-04-26T10:02:08.309Z</time></trkpt><trkpt lat="37.7589616" lon="13.9647798"><ele>726.0</ele><time>2026-04-26T10:02:09.309Z</time></trkpt><trkpt lat="37.7590751" lon="13.9646758"><ele>726.0</ele><time>2026-04-26T10:02:10.309Z</time></trkpt><trkpt lat="37.7591565" lon="13.964547"><ele>726.0</ele><time>2026-04-26T10:02:11.309Z</time></trkpt><trkpt lat="37.7592185" lon="13.9643968"><ele>726.0</ele><time>2026-04-26T10:02:12.309Z</time></trkpt><trkpt lat="37.7592546" lon="13.9642211"><ele>726.3333333333334</ele><time>2026-04-26T10:02:13.309Z</time></trkpt><trkpt lat="37.7592714" lon="13.9640333"><ele>726.6666666666667</ele><time>2026-04-26T10:02:14.309Z</time></trkpt><trkpt lat="37.7592612" lon="13.9638416"><ele>727.0</ele><time>2026-04-26T10:02:15.309Z</time></trkpt><trkpt lat="37.7592137" lon="13.9636405"><ele>727.0</ele><time>2026-04-26T10:02:16.309Z</time></trkpt><trkpt lat="37.7591346" lon="13.9634438"><ele>727.0</ele><time>2026-04-26T10:02:17.309Z</time></trkpt><trkpt lat="37.7590572" lon="13.9632566"><ele>727.0</ele><time>2026-04-26T10:02:18.309Z</time></trkpt><trkpt lat="37.758999" lon="13.9630807"><ele>728.6666666666667</ele><time>2026-04-26T10:02:19.309Z</time></trkpt><trkpt lat="37.7589787" lon="13.9628852"><ele>730.3333333333334</ele><time>2026-04-26T10:02:20.309Z</time></trkpt><trkpt lat="37.7589898" lon="13.9626718"><ele>732.0</ele><time>2026-04-26T10:02:21.309Z</time></trkpt><trkpt lat="37.7590473" lon="13.9624596"><ele>733.3333333333334</ele><time>2026-04-26T10:02:22.309Z</time></trkpt><trkpt lat="37.7591258" lon="13.9622497"><ele>734.6666666666667</ele><time>2026-04-26T10:02:23.308Z</time></trkpt><trkpt lat="37.7592138" lon="13.9620431"><ele>736.0</ele><time>2026-04-26T10:02:24.308Z</time></trkpt><trkpt lat="37.7593201" lon="13.9618457"><ele>738.3333333333334</ele><time>2026-04-26T10:02:25.308Z</time></trkpt><trkpt lat="37.7594231" lon="13.9616593"><ele>740.6666666666666</ele><time>2026-04-26T10:02:26.308Z</time></trkpt><trkpt lat="37.759512" lon="13.9614836"><ele>743.0</ele><time>2026-04-26T10:02:27.307Z</time></trkpt><trkpt lat="37.7595766" lon="13.9613091"><ele>743.0</ele><time>2026-04-26T10:02:28.308Z</time></trkpt><trkpt lat="37.7596157" lon="13.9611232"><ele>743.0</ele><time>2026-04-26T10:02:29.308Z</time></trkpt><trkpt lat="37.7596432" lon="13.9609268"><ele>743.0</ele><time>2026-04-26T10:02:30.308Z</time></trkpt><trkpt lat="37.759657" lon="13.9607356"><ele>743.5</ele><time>2026-04-26T10:02:31.308Z</time></trkpt><trkpt lat="37.759667" lon="13.9605556"><ele>744.0</ele><time>2026-04-26T10:02:32.308Z</time></trkpt><trkpt lat="37.7596854" lon="13.9603923"><ele>744.5</ele><time>2026-04-26T10:02:33.308Z</time></trkpt><trkpt lat="37.7597176" lon="13.9602466"><ele>745.0</ele><time>2026-04-26T10:02:34.308Z</time></trkpt><trkpt lat="37.7597684" lon="13.9601061"><ele>746.3333333333334</ele><time>2026-04-26T10:02:35.308Z</time></trkpt><trkpt lat="37.7598425" lon="13.9599602"><ele>747.6666666666666</ele><time>2026-04-26T10:02:36.308Z</time></trkpt><trkpt lat="37.7599435" lon="13.9598032"><ele>749.0</ele><time>2026-04-26T10:02:37.308Z</time></trkpt><trkpt lat="37.760055" lon="13.9596396"><ele>749.0</ele><time>2026-04-26T10:02:38.308Z</time></trkpt><trkpt lat="37.760172" lon="13.959468"><ele>749.0</ele><time>2026-04-26T10:02:39.308Z</time></trkpt><trkpt lat="37.7602872" lon="13.9593006"><ele>749.0</ele><time>2026-04-26T10:02:40.308Z</time></trkpt><trkpt lat="37.7603986" lon="13.9591463"><ele>749.75</ele><time>2026-04-26T10:02:41.308Z</time></trkpt><trkpt lat="37.7604988" lon="13.9590037"><ele>750.5</ele><time>2026-04-26T10:02:42.308Z</time></trkpt><trkpt lat="37.7605879" lon="13.9588714"><ele>751.25</ele><time>2026-04-26T10:02:43.308Z</time></trkpt><trkpt lat="37.7606659" lon="13.9587498"><ele>752.0</ele><time>2026-04-26T10:02:44.308Z</time></trkpt><trkpt lat="37.760712" lon="13.9586199"><ele>752.0</ele><time>2026-04-26T10:02:45.308Z</time></trkpt><trkpt lat="37.7607089" lon="13.9584913"><ele>752.0</ele><time>2026-04-26T10:02:46.308Z</time></trkpt><trkpt lat="37.7606667" lon="13.9583277"><ele>752.0</ele><time>2026-04-26T10:02:47.308Z</time></trkpt><trkpt lat="37.7605866" lon="13.9581482"><ele>752.0</ele><time>2026-04-26T10:02:48.308Z</time></trkpt><trkpt lat="37.7604787" lon="13.9579552"><ele>753.3333333333333</ele><time>2026-04-26T10:02:49.308Z</time></trkpt><trkpt lat="37.7603832" lon="13.9577665"><ele>754.6666666666666</ele><time>2026-04-26T10:02:50.307Z</time></trkpt><trkpt lat="37.7603046" lon="13.9576012"><ele>756.0</ele><time>2026-04-26T10:02:51.308Z</time></trkpt><trkpt lat="37.7602617" lon="13.9574327"><ele>758.0</ele><time>2026-04-26T10:02:52.308Z</time></trkpt><trkpt lat="37.7602569" lon="13.957242"><ele>760.0</ele><time>2026-04-26T10:02:53.308Z</time></trkpt><trkpt lat="37.7602942" lon="13.9570441"><ele>762.0</ele><time>2026-04-26T10:02:54.308Z</time></trkpt><trkpt lat="37.7603814" lon="13.9568516"><ele>764.3333333333333</ele><time>2026-04-26T10:02:55.308Z</time></trkpt><trkpt lat="37.7604792" lon="13.9566582"><ele>766.6666666666666</ele><time>2026-04-26T10:02:56.308Z</time></trkpt><trkpt lat="37.7605868" lon="13.9564544"><ele>769.0</ele><time>2026-04-26T10:02:57.308Z</time></trkpt><trkpt lat="37.7607065" lon="13.9562462"><ele>769.0</ele><time>2026-04-26T10:02:58.308Z</time></trkpt><trkpt lat="37.7608539" lon="13.9560512"><ele>769.0</ele><time>2026-04-26T10:02:59.308Z</time></trkpt><trkpt lat="37.761019" lon="13.9558779"><ele>769.0</ele><time>2026-04-26T10:03:00.307Z</time></trkpt><trkpt lat="37.7611982" lon="13.955739"><ele>771.6666666666666</ele><time>2026-04-26T10:03:01.308Z</time></trkpt><trkpt lat="37.7613856" lon="13.9556151"><ele>774.3333333333333</ele><time>2026-04-26T10:03:02.308Z</time></trkpt><trkpt lat="37.7615791" lon="13.9555112"><ele>777.0</ele><time>2026-04-26T10:03:03.308Z</time></trkpt><trkpt lat="37.7617818" lon="13.9554326"><ele>778.6666666666667</ele><time>2026-04-26T10:03:04.308Z</time></trkpt><trkpt lat="37.7619827" lon="13.9553817"><ele>780.3333333333334</ele><time>2026-04-26T10:03:05.308Z</time></trkpt><trkpt lat="37.7621837" lon="13.9553365"><ele>782.0</ele><time>2026-04-26T10:03:06.308Z</time></trkpt><trkpt lat="37.762382" lon="13.955307"><ele>782.0</ele><time>2026-04-26T10:03:07.308Z</time></trkpt><trkpt lat="37.7625762" lon="13.955292"><ele>782.0</ele><time>2026-04-26T10:03:08.308Z</time></trkpt><trkpt lat="37.7627628" lon="13.9553063"><ele>782.0</ele><time>2026-04-26T10:03:09.308Z</time></trkpt><trkpt lat="37.7629441" lon="13.95535"><ele>784.6666666666667</ele><time>2026-04-26T10:03:10.308Z</time></trkpt><trkpt lat="37.763117" lon="13.9553931"><ele>787.3333333333333</ele><time>2026-04-26T10:03:11.308Z</time></trkpt><trkpt lat="37.7632903" lon="13.9554137"><ele>790.0</ele><time>2026-04-26T10:03:12.308Z</time></trkpt><trkpt lat="37.7634702" lon="13.9553936"><ele>786.6666666666666</ele><time>2026-04-26T10:03:13.308Z</time></trkpt><trkpt lat="37.7636577" lon="13.9553363"><ele>783.3333333333333</ele><time>2026-04-26T10:03:14.308Z</time></trkpt><trkpt lat="37.7638488" lon="13.9552523"><ele>780.0</ele><time>2026-04-26T10:03:15.308Z</time></trkpt><trkpt lat="37.7640403" lon="13.9551489"><ele>780.0</ele><time>2026-04-26T10:03:16.308Z</time></trkpt><trkpt lat="37.7642282" lon="13.9550537"><ele>780.0</ele><time>2026-04-26T10:03:17.308Z</time></trkpt><trkpt lat="37.7644105" lon="13.9549643"><ele>780.0</ele><time>2026-04-26T10:03:18.308Z</time></trkpt><trkpt lat="37.7645819" lon="13.9548866"><ele>782.3333333333333</ele><time>2026-04-26T10:03:19.308Z</time></trkpt><trkpt lat="37.7647462" lon="13.9548153"><ele>784.6666666666666</ele><time>2026-04-26T10:03:20.308Z</time></trkpt><trkpt lat="37.7649003" lon="13.9547247"><ele>787.0</ele><time>2026-04-26T10:03:21.308Z</time></trkpt><trkpt lat="37.765044" lon="13.9545944"><ele>787.0</ele><time>2026-04-26T10:03:22.308Z</time></trkpt><trkpt lat="37.7651903" lon="13.9544466"><ele>787.0</ele><time>2026-04-26T10:03:23.307Z</time></trkpt><trkpt lat="37.7653356" lon="13.9542766"><ele>787.0</ele><time>2026-04-26T10:03:24.308Z</time></trkpt><trkpt lat="37.7654908" lon="13.9540931"><ele>787.6666666666666</ele><time>2026-04-26T10:03:25.308Z</time></trkpt><trkpt lat="37.7656471" lon="13.9539035"><ele>788.3333333333333</ele><time>2026-04-26T10:03:26.308Z</time></trkpt><trkpt lat="37.7658043" lon="13.9537121"><ele>789.0</ele><time>2026-04-26T10:03:27.308Z</time></trkpt><trkpt lat="37.7659574" lon="13.9535274"><ele>791.6666666666667</ele><time>2026-04-26T10:03:28.308Z</time></trkpt><trkpt lat="37.7661029" lon="13.9533482"><ele>794.3333333333334</ele><time>2026-04-26T10:03:29.308Z</time></trkpt><trkpt lat="37.7662447" lon="13.9531756"><ele>797.0</ele><time>2026-04-26T10:03:30.308Z</time></trkpt><trkpt lat="37.7663845" lon="13.9530101"><ele>797.0</ele><time>2026-04-26T10:03:31.308Z</time></trkpt><trkpt lat="37.7665245" lon="13.9528435"><ele>797.0</ele><time>2026-04-26T10:03:32.308Z</time></trkpt><trkpt lat="37.7666658" lon="13.9526743"><ele>797.0</ele><time>2026-04-26T10:03:33.308Z</time></trkpt><trkpt lat="37.7668065" lon="13.9525004"><ele>801.6666666666667</ele><time>2026-04-26T10:03:34.308Z</time></trkpt><trkpt lat="37.7669437" lon="13.9523344"><ele>806.3333333333333</ele><time>2026-04-26T10:03:35.308Z</time></trkpt><trkpt lat="37.7670708" lon="13.9521694"><ele>811.0</ele><time>2026-04-26T10:03:36.308Z</time></trkpt><trkpt lat="37.7671864" lon="13.9520144"><ele>811.0</ele><time>2026-04-26T10:03:37.308Z</time></trkpt><trkpt lat="37.7672845" lon="13.9518608"><ele>811.0</ele><time>2026-04-26T10:03:38.308Z</time></trkpt><trkpt lat="37.7673568" lon="13.9517046"><ele>811.0</ele><time>2026-04-26T10:03:39.308Z</time></trkpt><trkpt lat="37.7673905" lon="13.9515248"><ele>811.0</ele><time>2026-04-26T10:03:40.308Z</time></trkpt><trkpt lat="37.7673907" lon="13.9513356"><ele>809.3333333333333</ele><time>2026-04-26T10:03:41.308Z</time></trkpt><trkpt lat="37.7673532" lon="13.9511167"><ele>807.6666666666667</ele><time>2026-04-26T10:03:42.307Z</time></trkpt><trkpt lat="37.7672979" lon="13.9508935"><ele>806.0</ele><time>2026-04-26T10:03:43.308Z</time></trkpt><trkpt lat="37.7672438" lon="13.9506593"><ele>805.3333333333334</ele><time>2026-04-26T10:03:44.308Z</time></trkpt><trkpt lat="37.7671908" lon="13.9504014"><ele>804.6666666666667</ele><time>2026-04-26T10:03:45.308Z</time></trkpt><trkpt lat="37.7671369" lon="13.9501456"><ele>804.0</ele><time>2026-04-26T10:03:46.308Z</time></trkpt><trkpt lat="37.767088" lon="13.9498939"><ele>806.6666666666667</ele><time>2026-04-26T10:03:47.308Z</time></trkpt><trkpt lat="37.767039" lon="13.9496569"><ele>809.3333333333334</ele><time>2026-04-26T10:03:48.308Z</time></trkpt><trkpt lat="37.7669945" lon="13.9494415"><ele>812.0</ele><time>2026-04-26T10:03:49.308Z</time></trkpt><trkpt lat="37.7669654" lon="13.9492353"><ele>813.0</ele><time>2026-04-26T10:03:50.308Z</time></trkpt><trkpt lat="37.7669495" lon="13.9490386"><ele>814.0</ele><time>2026-04-26T10:03:51.308Z</time></trkpt><trkpt lat="37.7669516" lon="13.9488425"><ele>815.0</ele><time>2026-04-26T10:03:52.308Z</time></trkpt><trkpt lat="37.7669708" lon="13.9486493"><ele>815.0</ele><time>2026-04-26T10:03:53.308Z</time></trkpt><trkpt lat="37.767001" lon="13.9484564"><ele>815.0</ele><time>2026-04-26T10:03:54.308Z</time></trkpt><trkpt lat="37.7670448" lon="13.9482546"><ele>815.0</ele><time>2026-04-26T10:03:55.307Z</time></trkpt><trkpt lat="37.7671036" lon="13.948052"><ele>813.6666666666667</ele><time>2026-04-26T10:03:56.308Z</time></trkpt><trkpt lat="37.7671723" lon="13.9478511"><ele>812.3333333333333</ele><time>2026-04-26T10:03:57.307Z</time></trkpt><trkpt lat="37.7672507" lon="13.9476632"><ele>811.0</ele><time>2026-04-26T10:03:58.308Z</time></trkpt><trkpt lat="37.7673182" lon="13.9474657"><ele>810.3333333333333</ele><time>2026-04-26T10:03:59.307Z</time></trkpt><trkpt lat="37.7673661" lon="13.9472513"><ele>809.6666666666667</ele><time>2026-04-26T10:04:00.308Z</time></trkpt><trkpt lat="37.767389" lon="13.947016"><ele>809.0</ele><time>2026-04-26T10:04:01.308Z</time></trkpt><trkpt lat="37.7673981" lon="13.9467682"><ele>808.6666666666667</ele><time>2026-04-26T10:04:02.308Z</time></trkpt><trkpt lat="37.7673639" lon="13.9465229"><ele>808.3333333333333</ele><time>2026-04-26T10:04:03.308Z</time></trkpt><trkpt lat="37.7673131" lon="13.9462829"><ele>808.0</ele><time>2026-04-26T10:04:04.308Z</time></trkpt><trkpt lat="37.767235" lon="13.9460453"><ele>809.0</ele><time>2026-04-26T10:04:05.308Z</time></trkpt><trkpt lat="37.7671339" lon="13.9458275"><ele>810.0</ele><time>2026-04-26T10:04:06.308Z</time></trkpt><trkpt lat="37.7670197" lon="13.9456359"><ele>811.0</ele><time>2026-04-26T10:04:07.308Z</time></trkpt><trkpt lat="37.7669038" lon="13.9454569"><ele>808.0</ele><time>2026-04-26T10:04:08.308Z</time></trkpt><trkpt lat="37.7667683" lon="13.9453004"><ele>805.0</ele><time>2026-04-26T10:04:09.308Z</time></trkpt><trkpt lat="37.7666162" lon="13.9451778"><ele>802.0</ele><time>2026-04-26T10:04:10.308Z</time></trkpt><trkpt lat="37.7664532" lon="13.9450861"><ele>803.3333333333333</ele><time>2026-04-26T10:04:11.308Z</time></trkpt><trkpt lat="37.766279" lon="13.9450147"><ele>804.6666666666667</ele><time>2026-04-26T10:04:12.308Z</time></trkpt><trkpt lat="37.766114" lon="13.9449409"><ele>806.0</ele><time>2026-04-26T10:04:13.307Z</time></trkpt><trkpt lat="37.7659636" lon="13.9448345"><ele>806.0</ele><time>2026-04-26T10:04:14.308Z</time></trkpt><trkpt lat="37.7658261" lon="13.9446933"><ele>806.0</ele><time>2026-04-26T10:04:15.308Z</time></trkpt><trkpt lat="37.7657029" lon="13.944514"><ele>806.0</ele><time>2026-04-26T10:04:16.308Z</time></trkpt><trkpt lat="37.7656105" lon="13.9443109"><ele>811.3333333333334</ele><time>2026-04-26T10:04:17.308Z</time></trkpt><trkpt lat="37.76554" lon="13.9440899"><ele>816.6666666666667</ele><time>2026-04-26T10:04:18.308Z</time></trkpt><trkpt lat="37.765478" lon="13.9438512"><ele>822.0</ele><time>2026-04-26T10:04:19.308Z</time></trkpt><trkpt lat="37.7654255" lon="13.9436269"><ele>822.0</ele><time>2026-04-26T10:04:20.308Z</time></trkpt><trkpt lat="37.7653913" lon="13.9434119"><ele>822.0</ele><time>2026-04-26T10:04:21.308Z</time></trkpt><trkpt lat="37.7653866" lon="13.9432064"><ele>822.0</ele><time>2026-04-26T10:04:22.308Z</time></trkpt><trkpt lat="37.7654183" lon="13.9429988"><ele>825.0</ele><time>2026-04-26T10:04:23.308Z</time></trkpt><trkpt lat="37.765472" lon="13.9427866"><ele>828.0</ele><time>2026-04-26T10:04:24.308Z</time></trkpt><trkpt lat="37.7655432" lon="13.9425638"><ele>831.0</ele><time>2026-04-26T10:04:25.308Z</time></trkpt><trkpt lat="37.765619" lon="13.9423296"><ele>831.0</ele><time>2026-04-26T10:04:26.308Z</time></trkpt><trkpt lat="37.7656965" lon="13.9420871"><ele>831.0</ele><time>2026-04-26T10:04:27.308Z</time></trkpt><trkpt lat="37.7657683" lon="13.9418326"><ele>831.0</ele><time>2026-04-26T10:04:28.308Z</time></trkpt><trkpt lat="37.7658416" lon="13.9415689"><ele>829.6666666666667</ele><time>2026-04-26T10:04:29.308Z</time></trkpt><trkpt lat="37.7659067" lon="13.9413011"><ele>828.3333333333334</ele><time>2026-04-26T10:04:30.308Z</time></trkpt><trkpt lat="37.7659668" lon="13.9410349"><ele>827.0</ele><time>2026-04-26T10:04:31.308Z</time></trkpt><trkpt lat="37.7660193" lon="13.9407814"><ele>831.3333333333334</ele><time>2026-04-26T10:04:32.308Z</time></trkpt><trkpt lat="37.766069" lon="13.9405462"><ele>835.6666666666667</ele><time>2026-04-26T10:04:33.308Z</time></trkpt><trkpt lat="37.7661174" lon="13.940338"><ele>840.0</ele><time>2026-04-26T10:04:34.308Z</time></trkpt><trkpt lat="37.7661711" lon="13.9401468"><ele>838.75</ele><time>2026-04-26T10:04:35.308Z</time></trkpt><trkpt lat="37.7662343" lon="13.9399692"><ele>837.5</ele><time>2026-04-26T10:04:36.308Z</time></trkpt><trkpt lat="37.7663071" lon="13.9398087"><ele>836.25</ele><time>2026-04-26T10:04:37.308Z</time></trkpt><trkpt lat="37.7663873" lon="13.9396578"><ele>835.0</ele><time>2026-04-26T10:04:38.308Z</time></trkpt><trkpt lat="37.7664766" lon="13.9395085"><ele>835.0</ele><time>2026-04-26T10:04:39.308Z</time></trkpt><trkpt lat="37.7665885" lon="13.9393778"><ele>835.0</ele><time>2026-04-26T10:04:40.308Z</time></trkpt><trkpt lat="37.766716" lon="13.9392381"><ele>835.0</ele><time>2026-04-26T10:04:41.308Z</time></trkpt><trkpt lat="37.7668582" lon="13.939103"><ele>833.3333333333333</ele><time>2026-04-26T10:04:42.308Z</time></trkpt><trkpt lat="37.7670019" lon="13.9389672"><ele>831.6666666666667</ele><time>2026-04-26T10:04:43.308Z</time></trkpt><trkpt lat="37.7671443" lon="13.9388322"><ele>830.0</ele><time>2026-04-26T10:04:44.308Z</time></trkpt><trkpt lat="37.7672789" lon="13.9386878"><ele>830.0</ele><time>2026-04-26T10:04:45.308Z</time></trkpt><trkpt lat="37.7673936" lon="13.9385166"><ele>830.0</ele><time>2026-04-26T10:04:46.308Z</time></trkpt><trkpt lat="37.7674858" lon="13.9383154"><ele>830.0</ele><time>2026-04-26T10:04:47.308Z</time></trkpt><trkpt lat="37.7675506" lon="13.9380974"><ele>830.3333333333334</ele><time>2026-04-26T10:04:48.308Z</time></trkpt><trkpt lat="37.7675813" lon="13.9378527"><ele>830.6666666666667</ele><time>2026-04-26T10:04:49.308Z</time></trkpt><trkpt lat="37.7675926" lon="13.9375996"><ele>831.0</ele><time>2026-04-26T10:04:50.308Z</time></trkpt><trkpt lat="37.7676085" lon="13.9373607"><ele>831.6666666666667</ele><time>2026-04-26T10:04:51.308Z</time></trkpt><trkpt lat="37.7676311" lon="13.9371506"><ele>832.3333333333334</ele><time>2026-04-26T10:04:52.308Z</time></trkpt><trkpt lat="37.7676701" lon="13.936973"><ele>833.0</ele><time>2026-04-26T10:04:53.308Z</time></trkpt><trkpt lat="37.7677489" lon="13.9368191"><ele>830.6666666666667</ele><time>2026-04-26T10:04:54.308Z</time></trkpt><trkpt lat="37.7678546" lon="13.9366887"><ele>828.3333333333333</ele><time>2026-04-26T10:04:55.308Z</time></trkpt><trkpt lat="37.7679881" lon="13.9365862"><ele>826.0</ele><time>2026-04-26T10:04:56.308Z</time></trkpt><trkpt lat="37.7681349" lon="13.9364871"><ele>826.0</ele><time>2026-04-26T10:04:57.308Z</time></trkpt><trkpt lat="37.76829" lon="13.9363764"><ele>826.0</ele><time>2026-04-26T10:04:58.308Z</time></trkpt><trkpt lat="37.7684358" lon="13.9362361"><ele>826.0</ele><time>2026-04-26T10:04:59.308Z</time></trkpt><trkpt lat="37.7685812" lon="13.936054"><ele>824.6666666666666</ele><time>2026-04-26T10:05:00.308Z</time></trkpt><trkpt lat="37.768715" lon="13.9358571"><ele>823.3333333333333</ele><time>2026-04-26T10:05:01.308Z</time></trkpt><trkpt lat="37.7688451" lon="13.9356563"><ele>822.0</ele><time>2026-04-26T10:05:02.308Z</time></trkpt><trkpt lat="37.7689665" lon="13.9354584"><ele>822.0</ele><time>2026-04-26T10:05:03.308Z</time></trkpt><trkpt lat="37.7690864" lon="13.9352711"><ele>822.0</ele><time>2026-04-26T10:05:04.308Z</time></trkpt><trkpt lat="37.7692067" lon="13.9351047"><ele>822.0</ele><time>2026-04-26T10:05:05.308Z</time></trkpt><trkpt lat="37.7693441" lon="13.9349447"><ele>821.6666666666667</ele><time>2026-04-26T10:05:06.308Z</time></trkpt><trkpt lat="37.7695092" lon="13.9348028"><ele>821.3333333333334</ele><time>2026-04-26T10:05:07.308Z</time></trkpt><trkpt lat="37.7696882" lon="13.9346739"><ele>821.0</ele><time>2026-04-26T10:05:08.308Z</time></trkpt><trkpt lat="37.7698781" lon="13.93455"><ele>821.0</ele><time>2026-04-26T10:05:09.308Z</time></trkpt><trkpt lat="37.7700674" lon="13.9344316"><ele>821.0</ele><time>2026-04-26T10:05:10.308Z</time></trkpt><trkpt lat="37.7702594" lon="13.9343134"><ele>821.0</ele><time>2026-04-26T10:05:11.308Z</time></trkpt><trkpt lat="37.7704563" lon="13.9341933"><ele>821.0</ele><time>2026-04-26T10:05:12.307Z</time></trkpt><trkpt lat="37.7706533" lon="13.9340706"><ele>821.0</ele><time>2026-04-26T10:05:13.308Z</time></trkpt><trkpt lat="37.770845" lon="13.9339442"><ele>821.0</ele><time>2026-04-26T10:05:14.308Z</time></trkpt><trkpt lat="37.7710376" lon="13.9338122"><ele>822.6666666666667</ele><time>2026-04-26T10:05:15.308Z</time></trkpt><trkpt lat="37.7712318" lon="13.93367"><ele>824.3333333333333</ele><time>2026-04-26T10:05:16.308Z</time></trkpt><trkpt lat="37.7714176" lon="13.9335209"><ele>826.0</ele><time>2026-04-26T10:05:17.308Z</time></trkpt><trkpt lat="37.7715933" lon="13.9333558"><ele>822.6666666666666</ele><time>2026-04-26T10:05:18.308Z</time></trkpt><trkpt lat="37.771762" lon="13.9331925"><ele>819.3333333333333</ele><time>2026-04-26T10:05:19.308Z</time></trkpt><trkpt lat="37.7719268" lon="13.9330376"><ele>816.0</ele><time>2026-04-26T10:05:20.308Z</time></trkpt><trkpt lat="37.7720878" lon="13.9329019"><ele>816.0</ele><time>2026-04-26T10:05:21.308Z</time></trkpt><trkpt lat="37.7722649" lon="13.9327816"><ele>816.0</ele><time>2026-04-26T10:05:22.307Z</time></trkpt><trkpt lat="37.7724587" lon="13.9326822"><ele>816.0</ele><time>2026-04-26T10:05:23.308Z</time></trkpt><trkpt lat="37.7726644" lon="13.9326002"><ele>813.3333333333333</ele><time>2026-04-26T10:05:24.307Z</time></trkpt><trkpt lat="37.7728713" lon="13.9325249"><ele>810.6666666666666</ele><time>2026-04-26T10:05:25.308Z</time></trkpt><trkpt lat="37.7730793" lon="13.932448"><ele>808.0</ele><time>2026-04-26T10:05:26.308Z</time></trkpt><trkpt lat="37.7732869" lon="13.9323572"><ele>808.0</ele><time>2026-04-26T10:05:27.308Z</time></trkpt><trkpt lat="37.7734914" lon="13.9322548"><ele>808.0</ele><time>2026-04-26T10:05:28.308Z</time></trkpt><trkpt lat="37.7736958" lon="13.9321201"><ele>808.5</ele><time>2026-04-26T10:05:29.308Z</time></trkpt><trkpt lat="37.7738982" lon="13.9319619"><ele>809.0</ele><time>2026-04-26T10:05:30.308Z</time></trkpt><trkpt lat="37.7740979" lon="13.9318012"><ele>807.6666666666667</ele><time>2026-04-26T10:05:31.308Z</time></trkpt><trkpt lat="37.7742882" lon="13.9316416"><ele>806.3333333333333</ele><time>2026-04-26T10:05:32.308Z</time></trkpt><trkpt lat="37.774475" lon="13.931493"><ele>805.0</ele><time>2026-04-26T10:05:33.308Z</time></trkpt><trkpt lat="37.7746514" lon="13.9313495"><ele>805.0</ele><time>2026-04-26T10:05:34.308Z</time></trkpt><trkpt lat="37.7748246" lon="13.9312055"><ele>805.0</ele><time>2026-04-26T10:05:35.308Z</time></trkpt><trkpt lat="37.7749903" lon="13.9310494"><ele>805.0</ele><time>2026-04-26T10:05:36.308Z</time></trkpt><trkpt lat="37.775157" lon="13.9308874"><ele>805.0</ele><time>2026-04-26T10:05:37.308Z</time></trkpt><trkpt lat="37.7753228" lon="13.9307107"><ele>805.0</ele><time>2026-04-26T10:05:38.307Z</time></trkpt><trkpt lat="37.7754873" lon="13.9305218"><ele>805.0</ele><time>2026-04-26T10:05:39.307Z</time></trkpt><trkpt lat="37.7756428" lon="13.9303266"><ele>805.0</ele><time>2026-04-26T10:05:40.308Z</time></trkpt><trkpt lat="37.7757952" lon="13.9301322"><ele>805.0</ele><time>2026-04-26T10:05:41.308Z</time></trkpt><trkpt lat="37.7759441" lon="13.9299341"><ele>805.0</ele><time>2026-04-26T10:05:42.308Z</time></trkpt><trkpt lat="37.7760886" lon="13.9297363"><ele>805.3333333333333</ele><time>2026-04-26T10:05:43.308Z</time></trkpt><trkpt lat="37.7762269" lon="13.9295518"><ele>805.6666666666667</ele><time>2026-04-26T10:05:44.308Z</time></trkpt><trkpt lat="37.7763577" lon="13.9293753"><ele>806.0</ele><time>2026-04-26T10:05:45.307Z</time></trkpt><trkpt lat="37.7764921" lon="13.9292111"><ele>806.6666666666667</ele><time>2026-04-26T10:05:46.308Z</time></trkpt><trkpt lat="37.776639" lon="13.9290542"><ele>807.3333333333333</ele><time>2026-04-26T10:05:47.308Z</time></trkpt><trkpt lat="37.7768024" lon="13.9289077"><ele>808.0</ele><time>2026-04-26T10:05:48.308Z</time></trkpt><trkpt lat="37.7769816" lon="13.928774"><ele>808.0</ele><time>2026-04-26T10:05:49.308Z</time></trkpt><trkpt lat="37.7771644" lon="13.9286405"><ele>808.0</ele><time>2026-04-26T10:05:50.308Z</time></trkpt><trkpt lat="37.7773438" lon="13.9285129"><ele>808.0</ele><time>2026-04-26T10:05:51.308Z</time></trkpt><trkpt lat="37.7775151" lon="13.928394"><ele>803.6666666666666</ele><time>2026-04-26T10:05:52.308Z</time></trkpt><trkpt lat="37.7776783" lon="13.9282874"><ele>799.3333333333333</ele><time>2026-04-26T10:05:53.308Z</time></trkpt><trkpt lat="37.777851" lon="13.9282043"><ele>795.0</ele><time>2026-04-26T10:05:54.308Z</time></trkpt><trkpt lat="37.7780331" lon="13.9281551"><ele>795.0</ele><time>2026-04-26T10:05:55.308Z</time></trkpt><trkpt lat="37.7782209" lon="13.9281244"><ele>795.0</ele><time>2026-04-26T10:05:56.308Z</time></trkpt><trkpt lat="37.7784157" lon="13.9281057"><ele>795.0</ele><time>2026-04-26T10:05:57.308Z</time></trkpt><trkpt lat="37.7786258" lon="13.928078"><ele>796.3333333333333</ele><time>2026-04-26T10:05:58.308Z</time></trkpt><trkpt lat="37.7788444" lon="13.9280477"><ele>797.6666666666666</ele><time>2026-04-26T10:05:59.308Z</time></trkpt><trkpt lat="37.7790615" lon="13.9280201"><ele>799.0</ele><time>2026-04-26T10:06:00.308Z</time></trkpt><trkpt lat="37.779265" lon="13.9280049"><ele>796.0</ele><time>2026-04-26T10:06:01.308Z</time></trkpt><trkpt lat="37.7794517" lon="13.9279958"><ele>793.0</ele><time>2026-04-26T10:06:02.308Z</time></trkpt><trkpt lat="37.7796279" lon="13.9280065"><ele>790.0</ele><time>2026-04-26T10:06:03.308Z</time></trkpt><trkpt lat="37.7798025" lon="13.9280586"><ele>790.0</ele><time>2026-04-26T10:06:04.308Z</time></trkpt><trkpt lat="37.7799777" lon="13.9281476"><ele>790.0</ele><time>2026-04-26T10:06:05.308Z</time></trkpt><trkpt lat="37.7801427" lon="13.9282562"><ele>790.0</ele><time>2026-04-26T10:06:06.308Z</time></trkpt><trkpt lat="37.7803122" lon="13.9283721"><ele>792.6666666666666</ele><time>2026-04-26T10:06:07.307Z</time></trkpt><trkpt lat="37.7804864" lon="13.928477"><ele>795.3333333333333</ele><time>2026-04-26T10:06:08.308Z</time></trkpt><trkpt lat="37.7806578" lon="13.9285429"><ele>798.0</ele><time>2026-04-26T10:06:09.308Z</time></trkpt><trkpt lat="37.7808319" lon="13.9285695"><ele>798.0</ele><time>2026-04-26T10:06:10.308Z</time></trkpt><trkpt lat="37.7810114" lon="13.9285451"><ele>798.0</ele><time>2026-04-26T10:06:11.308Z</time></trkpt><trkpt lat="37.7811941" lon="13.9284812"><ele>798.0</ele><time>2026-04-26T10:06:12.308Z</time></trkpt><trkpt lat="37.7813792" lon="13.9284272"><ele>795.0</ele><time>2026-04-26T10:06:13.308Z</time></trkpt><trkpt lat="37.7815725" lon="13.9283916"><ele>792.0</ele><time>2026-04-26T10:06:14.308Z</time></trkpt><trkpt lat="37.7817631" lon="13.9283878"><ele>789.0</ele><time>2026-04-26T10:06:15.308Z</time></trkpt><trkpt lat="37.7819637" lon="13.9284109"><ele>789.0</ele><time>2026-04-26T10:06:16.308Z</time></trkpt><trkpt lat="37.7821648" lon="13.9284548"><ele>789.0</ele><time>2026-04-26T10:06:17.308Z</time></trkpt><trkpt lat="37.7823656" lon="13.9285247"><ele>789.0</ele><time>2026-04-26T10:06:18.308Z</time></trkpt><trkpt lat="37.7825672" lon="13.9286063"><ele>787.0</ele><time>2026-04-26T10:06:19.308Z</time></trkpt><trkpt lat="37.782759" lon="13.9287139"><ele>785.0</ele><time>2026-04-26T10:06:20.308Z</time></trkpt><trkpt lat="37.782941" lon="13.9288278"><ele>783.0</ele><time>2026-04-26T10:06:21.308Z</time></trkpt><trkpt lat="37.7831156" lon="13.9289417"><ele>783.0</ele><time>2026-04-26T10:06:22.308Z</time></trkpt><trkpt lat="37.7832887" lon="13.9290315"><ele>783.0</ele><time>2026-04-26T10:06:23.308Z</time></trkpt><trkpt lat="37.78346" lon="13.9290767"><ele>783.0</ele><time>2026-04-26T10:06:24.308Z</time></trkpt><trkpt lat="37.7836412" lon="13.9290692"><ele>783.6666666666667</ele><time>2026-04-26T10:06:25.308Z</time></trkpt><trkpt lat="37.7838192" lon="13.929003"><ele>784.3333333333334</ele><time>2026-04-26T10:06:26.308Z</time></trkpt><trkpt lat="37.7839927" lon="13.9288947"><ele>785.0</ele><time>2026-04-26T10:06:27.308Z</time></trkpt><trkpt lat="37.7841337" lon="13.9287507"><ele>785.0</ele><time>2026-04-26T10:06:28.308Z</time></trkpt><trkpt lat="37.7842477" lon="13.928561"><ele>785.0</ele><time>2026-04-26T10:06:29.308Z</time></trkpt><trkpt lat="37.7843433" lon="13.9283361"><ele>785.0</ele><time>2026-04-26T10:06:30.308Z</time></trkpt><trkpt lat="37.7844226" lon="13.9280889"><ele>786.0</ele><time>2026-04-26T10:06:31.308Z</time></trkpt><trkpt lat="37.7844971" lon="13.927836"><ele>787.0</ele><time>2026-04-26T10:06:32.308Z</time></trkpt><trkpt lat="37.7845721" lon="13.9275983"><ele>788.0</ele><time>2026-04-26T10:06:33.308Z</time></trkpt><trkpt lat="37.7846473" lon="13.9273698"><ele>788.6666666666667</ele><time>2026-04-26T10:06:34.308Z</time></trkpt><trkpt lat="37.7847213" lon="13.9271569"><ele>789.3333333333333</ele><time>2026-04-26T10:06:35.308Z</time></trkpt><trkpt lat="37.784823" lon="13.9269594"><ele>790.0</ele><time>2026-04-26T10:06:36.308Z</time></trkpt><trkpt lat="37.7849521" lon="13.9267885"><ele>789.0</ele><time>2026-04-26T10:06:37.308Z</time></trkpt><trkpt lat="37.7851076" lon="13.9266542"><ele>788.0</ele><time>2026-04-26T10:06:38.308Z</time></trkpt><trkpt lat="37.7852748" lon="13.9265403"><ele>787.0</ele><time>2026-04-26T10:06:39.308Z</time></trkpt><trkpt lat="37.7854574" lon="13.9264385"><ele>789.6666666666666</ele><time>2026-04-26T10:06:40.308Z</time></trkpt><trkpt lat="37.785651" lon="13.9263301"><ele>792.3333333333333</ele><time>2026-04-26T10:06:41.307Z</time></trkpt><trkpt lat="37.785841" lon="13.9262157"><ele>795.0</ele><time>2026-04-26T10:06:42.308Z</time></trkpt><trkpt lat="37.786035" lon="13.9261032"><ele>796.6666666666667</ele><time>2026-04-26T10:06:43.308Z</time></trkpt><trkpt lat="37.7862266" lon="13.9259744"><ele>798.3333333333334</ele><time>2026-04-26T10:06:44.308Z</time></trkpt><trkpt lat="37.7864172" lon="13.925829"><ele>800.0</ele><time>2026-04-26T10:06:45.308Z</time></trkpt><trkpt lat="37.7865952" lon="13.9256617"><ele>800.0</ele><time>2026-04-26T10:06:46.308Z</time></trkpt><trkpt lat="37.7867652" lon="13.9254724"><ele>800.0</ele><time>2026-04-26T10:06:47.308Z</time></trkpt><trkpt lat="37.7869407" lon="13.9252789"><ele>799.3333333333334</ele><time>2026-04-26T10:06:48.307Z</time></trkpt><trkpt lat="37.7871064" lon="13.9250939"><ele>798.6666666666667</ele><time>2026-04-26T10:06:49.308Z</time></trkpt><trkpt lat="37.7872597" lon="13.9249295"><ele>798.0</ele><time>2026-04-26T10:06:50.308Z</time></trkpt><trkpt lat="37.7873985" lon="13.9247707"><ele>798.0</ele><time>2026-04-26T10:06:51.308Z</time></trkpt><trkpt lat="37.7875205" lon="13.9246112"><ele>798.0</ele><time>2026-04-26T10:06:52.308Z</time></trkpt><trkpt lat="37.7876104" lon="13.92442"><ele>798.0</ele><time>2026-04-26T10:06:53.308Z</time></trkpt><trkpt lat="37.7876654" lon="13.9241954"><ele>798.6666666666667</ele><time>2026-04-26T10:06:54.308Z</time></trkpt><trkpt lat="37.7876819" lon="13.9239499"><ele>799.3333333333334</ele><time>2026-04-26T10:06:55.308Z</time></trkpt><trkpt lat="37.7876649" lon="13.9236894"><ele>800.0</ele><time>2026-04-26T10:06:56.308Z</time></trkpt><trkpt lat="37.7876346" lon="13.9234337"><ele>804.3333333333334</ele><time>2026-04-26T10:06:57.308Z</time></trkpt><trkpt lat="37.787609" lon="13.9231832"><ele>808.6666666666667</ele><time>2026-04-26T10:06:58.308Z</time></trkpt><trkpt lat="37.7876037" lon="13.9229276"><ele>813.0</ele><time>2026-04-26T10:06:59.308Z</time></trkpt><trkpt lat="37.7876228" lon="13.9226749"><ele>812.6666666666667</ele><time>2026-04-26T10:07:00.308Z</time></trkpt><trkpt lat="37.7876543" lon="13.9224204"><ele>812.3333333333334</ele><time>2026-04-26T10:07:01.308Z</time></trkpt><trkpt lat="37.7876954" lon="13.9221609"><ele>812.0</ele><time>2026-04-26T10:07:02.308Z</time></trkpt><trkpt lat="37.7877356" lon="13.9218999"><ele>815.6666666666667</ele><time>2026-04-26T10:07:03.308Z</time></trkpt><trkpt lat="37.7877745" lon="13.9216486"><ele>819.3333333333333</ele><time>2026-04-26T10:07:04.307Z</time></trkpt><trkpt lat="37.7878105" lon="13.9214255"><ele>823.0</ele><time>2026-04-26T10:07:05.308Z</time></trkpt><trkpt lat="37.7878602" lon="13.9212325"><ele>823.0</ele><time>2026-04-26T10:07:06.308Z</time></trkpt><trkpt lat="37.787942" lon="13.9210628"><ele>823.0</ele><time>2026-04-26T10:07:07.308Z</time></trkpt><trkpt lat="37.7880465" lon="13.9209157"><ele>823.0</ele><time>2026-04-26T10:07:08.308Z</time></trkpt><trkpt lat="37.7881891" lon="13.9208054"><ele>822.6666666666666</ele><time>2026-04-26T10:07:09.308Z</time></trkpt><trkpt lat="37.7883585" lon="13.9207328"><ele>822.3333333333333</ele><time>2026-04-26T10:07:10.307Z</time></trkpt><trkpt lat="37.7885409" lon="13.920682"><ele>822.0</ele><time>2026-04-26T10:07:11.308Z</time></trkpt><trkpt lat="37.7887307" lon="13.9206256"><ele>822.0</ele><time>2026-04-26T10:07:12.307Z</time></trkpt><trkpt lat="37.7889317" lon="13.9205615"><ele>822.0</ele><time>2026-04-26T10:07:13.308Z</time></trkpt><trkpt lat="37.7891332" lon="13.9205011"><ele>822.0</ele><time>2026-04-26T10:07:14.308Z</time></trkpt><trkpt lat="37.7893332" lon="13.9204516"><ele>821.3333333333333</ele><time>2026-04-26T10:07:15.308Z</time></trkpt><trkpt lat="37.7895185" lon="13.9204023"><ele>820.6666666666666</ele><time>2026-04-26T10:07:16.308Z</time></trkpt><trkpt lat="37.7896971" lon="13.9203403"><ele>820.0</ele><time>2026-04-26T10:07:17.308Z</time></trkpt><trkpt lat="37.7898626" lon="13.9202397"><ele>820.0</ele><time>2026-04-26T10:07:18.308Z</time></trkpt><trkpt lat="37.7899994" lon="13.9200869"><ele>820.0</ele><time>2026-04-26T10:07:19.308Z</time></trkpt><trkpt lat="37.7901164" lon="13.9199075"><ele>820.0</ele><time>2026-04-26T10:07:20.308Z</time></trkpt><trkpt lat="37.7901868" lon="13.919697"><ele>819.6666666666666</ele><time>2026-04-26T10:07:21.308Z</time></trkpt><trkpt lat="37.7902107" lon="13.9194549"><ele>819.3333333333333</ele><time>2026-04-26T10:07:22.308Z</time></trkpt><trkpt lat="37.7902082" lon="13.9191814"><ele>819.0</ele><time>2026-04-26T10:07:23.308Z</time></trkpt><trkpt lat="37.7901918" lon="13.9189146"><ele>819.0</ele><time>2026-04-26T10:07:24.308Z</time></trkpt><trkpt lat="37.7901872" lon="13.9186696"><ele>819.0</ele><time>2026-04-26T10:07:25.308Z</time></trkpt><trkpt lat="37.7901938" lon="13.918447"><ele>819.0</ele><time>2026-04-26T10:07:26.308Z</time></trkpt><trkpt lat="37.7902236" lon="13.9182558"><ele>818.0</ele><time>2026-04-26T10:07:27.308Z</time></trkpt><trkpt lat="37.7902896" lon="13.9180717"><ele>817.0</ele><time>2026-04-26T10:07:28.308Z</time></trkpt><trkpt lat="37.7903939" lon="13.9178942"><ele>816.0</ele><time>2026-04-26T10:07:29.308Z</time></trkpt><trkpt lat="37.7905279" lon="13.9177448"><ele>816.0</ele><time>2026-04-26T10:07:30.308Z</time></trkpt><trkpt lat="37.7906758" lon="13.9176077"><ele>816.0</ele><time>2026-04-26T10:07:31.308Z</time></trkpt><trkpt lat="37.7908121" lon="13.9174527"><ele>816.0</ele><time>2026-04-26T10:07:32.308Z</time></trkpt><trkpt lat="37.7909193" lon="13.9172456"><ele>815.6666666666667</ele><time>2026-04-26T10:07:33.308Z</time></trkpt><trkpt lat="37.7909962" lon="13.9170096"><ele>815.3333333333334</ele><time>2026-04-26T10:07:34.308Z</time></trkpt><trkpt lat="37.7910399" lon="13.9167679"><ele>815.0</ele><time>2026-04-26T10:07:35.308Z</time></trkpt><trkpt lat="37.7910632" lon="13.916535"><ele>815.0</ele><time>2026-04-26T10:07:36.308Z</time></trkpt><trkpt lat="37.791084" lon="13.9163163"><ele>815.0</ele><time>2026-04-26T10:07:37.308Z</time></trkpt><trkpt lat="37.7911236" lon="13.9161249"><ele>815.0</ele><time>2026-04-26T10:07:38.307Z</time></trkpt><trkpt lat="37.7911841" lon="13.9159452"><ele>814.3333333333334</ele><time>2026-04-26T10:07:39.308Z</time></trkpt><trkpt lat="37.7912725" lon="13.9157786"><ele>813.6666666666667</ele><time>2026-04-26T10:07:40.308Z</time></trkpt><trkpt lat="37.7913899" lon="13.9156305"><ele>813.0</ele><time>2026-04-26T10:07:41.308Z</time></trkpt><trkpt lat="37.7915351" lon="13.9154956"><ele>813.0</ele><time>2026-04-26T10:07:42.308Z</time></trkpt><trkpt lat="37.7916968" lon="13.9153727"><ele>813.0</ele><time>2026-04-26T10:07:43.308Z</time></trkpt><trkpt lat="37.7918638" lon="13.9152463"><ele>813.0</ele><time>2026-04-26T10:07:44.308Z</time></trkpt><trkpt lat="37.7920281" lon="13.9151262"><ele>812.6666666666667</ele><time>2026-04-26T10:07:45.308Z</time></trkpt><trkpt lat="37.7921771" lon="13.9150074"><ele>812.3333333333334</ele><time>2026-04-26T10:07:46.308Z</time></trkpt><trkpt lat="37.7923123" lon="13.9148767"><ele>812.0</ele><time>2026-04-26T10:07:47.308Z</time></trkpt><trkpt lat="37.7924079" lon="13.9147051"><ele>812.0</ele><time>2026-04-26T10:07:48.308Z</time></trkpt><trkpt lat="37.7924621" lon="13.9145077"><ele>812.0</ele><time>2026-04-26T10:07:49.308Z</time></trkpt><trkpt lat="37.7924697" lon="13.9142939"><ele>812.0</ele><time>2026-04-26T10:07:50.308Z</time></trkpt><trkpt lat="37.7924321" lon="13.9140801"><ele>810.3333333333334</ele><time>2026-04-26T10:07:51.308Z</time></trkpt><trkpt lat="37.7923901" lon="13.9138714"><ele>808.6666666666667</ele><time>2026-04-26T10:07:52.308Z</time></trkpt><trkpt lat="37.7923636" lon="13.9136672"><ele>807.0</ele><time>2026-04-26T10:07:53.308Z</time></trkpt><trkpt lat="37.7923811" lon="13.9134775"><ele>806.6666666666667</ele><time>2026-04-26T10:07:54.308Z</time></trkpt><trkpt lat="37.7924338" lon="13.9132895"><ele>806.3333333333334</ele><time>2026-04-26T10:07:55.308Z</time></trkpt><trkpt lat="37.7925292" lon="13.9131139"><ele>806.0</ele><time>2026-04-26T10:07:56.308Z</time></trkpt><trkpt lat="37.7926585" lon="13.9129508"><ele>807.0</ele><time>2026-04-26T10:07:57.308Z</time></trkpt><trkpt lat="37.792806" lon="13.9128044"><ele>808.0</ele><time>2026-04-26T10:07:58.308Z</time></trkpt><trkpt lat="37.7929683" lon="13.9126536"><ele>809.0</ele><time>2026-04-26T10:07:59.308Z</time></trkpt><trkpt lat="37.7931267" lon="13.9124943"><ele>807.0</ele><time>2026-04-26T10:08:00.308Z</time></trkpt><trkpt lat="37.7932695" lon="13.9123185"><ele>805.0</ele><time>2026-04-26T10:08:01.308Z</time></trkpt><trkpt lat="37.7933919" lon="13.9121299"><ele>803.0</ele><time>2026-04-26T10:08:02.308Z</time></trkpt><trkpt lat="37.7934948" lon="13.911938"><ele>801.3333333333334</ele><time>2026-04-26T10:08:03.308Z</time></trkpt><trkpt lat="37.793585" lon="13.9117483"><ele>799.6666666666667</ele><time>2026-04-26T10:08:04.307Z</time></trkpt><trkpt lat="37.7936852" lon="13.9115924"><ele>798.0</ele><time>2026-04-26T10:08:05.308Z</time></trkpt><trkpt lat="37.7938116" lon="13.9114789"><ele>798.0</ele><time>2026-04-26T10:08:06.308Z</time></trkpt><trkpt lat="37.7939609" lon="13.9113887"><ele>798.0</ele><time>2026-04-26T10:08:07.307Z</time></trkpt><trkpt lat="37.794127" lon="13.9113082"><ele>798.0</ele><time>2026-04-26T10:08:08.308Z</time></trkpt><trkpt lat="37.7943016" lon="13.9111977"><ele>797.0</ele><time>2026-04-26T10:08:09.308Z</time></trkpt><trkpt lat="37.7944635" lon="13.9110483"><ele>796.0</ele><time>2026-04-26T10:08:10.308Z</time></trkpt><trkpt lat="37.7946129" lon="13.9108783"><ele>795.0</ele><time>2026-04-26T10:08:11.308Z</time></trkpt><trkpt lat="37.7947611" lon="13.9107132"><ele>795.0</ele><time>2026-04-26T10:08:12.308Z</time></trkpt><trkpt lat="37.7948908" lon="13.9105616"><ele>795.0</ele><time>2026-04-26T10:08:13.307Z</time></trkpt><trkpt lat="37.795012" lon="13.9104226"><ele>795.0</ele><time>2026-04-26T10:08:14.308Z</time></trkpt><trkpt lat="37.7951367" lon="13.9103067"><ele>796.0</ele><time>2026-04-26T10:08:15.308Z</time></trkpt><trkpt lat="37.795269" lon="13.9102393"><ele>797.0</ele><time>2026-04-26T10:08:16.307Z</time></trkpt><trkpt lat="37.7954214" lon="13.9101919"><ele>798.0</ele><time>2026-04-26T10:08:17.308Z</time></trkpt><trkpt lat="37.7955841" lon="13.9101746"><ele>798.0</ele><time>2026-04-26T10:08:18.308Z</time></trkpt><trkpt lat="37.7957499" lon="13.9101671"><ele>798.0</ele><time>2026-04-26T10:08:19.308Z</time></trkpt><trkpt lat="37.7959138" lon="13.9101574"><ele>798.0</ele><time>2026-04-26T10:08:20.308Z</time></trkpt><trkpt lat="37.7960643" lon="13.9101434"><ele>797.0</ele><time>2026-04-26T10:08:21.308Z</time></trkpt><trkpt lat="37.7962093" lon="13.9100995"><ele>796.0</ele><time>2026-04-26T10:08:22.308Z</time></trkpt><trkpt lat="37.7963617" lon="13.9100155"><ele>795.0</ele><time>2026-04-26T10:08:23.308Z</time></trkpt><trkpt lat="37.7965285" lon="13.9099058"><ele>790.6666666666667</ele><time>2026-04-26T10:08:24.308Z</time></trkpt><trkpt lat="37.7966853" lon="13.9097861"><ele>786.3333333333334</ele><time>2026-04-26T10:08:25.308Z</time></trkpt><trkpt lat="37.796837" lon="13.9096883"><ele>782.0</ele><time>2026-04-26T10:08:26.308Z</time></trkpt><trkpt lat="37.7969934" lon="13.9096495"><ele>781.0</ele><time>2026-04-26T10:08:27.308Z</time></trkpt><trkpt lat="37.7971676" lon="13.9096504"><ele>780.0</ele><time>2026-04-26T10:08:28.308Z</time></trkpt><trkpt lat="37.7973469" lon="13.9096763"><ele>779.0</ele><time>2026-04-26T10:08:29.307Z</time></trkpt><trkpt lat="37.7975327" lon="13.9097151"><ele>777.6666666666667</ele><time>2026-04-26T10:08:30.308Z</time></trkpt><trkpt lat="37.7977228" lon="13.9097537"><ele>776.3333333333333</ele><time>2026-04-26T10:08:31.308Z</time></trkpt><trkpt lat="37.797915" lon="13.9097832"><ele>775.0</ele><time>2026-04-26T10:08:32.308Z</time></trkpt><trkpt lat="37.7981118" lon="13.9098003"><ele>775.0</ele><time>2026-04-26T10:08:33.308Z</time></trkpt><trkpt lat="37.7983165" lon="13.909804"><ele>775.0</ele><time>2026-04-26T10:08:34.307Z</time></trkpt><trkpt lat="37.7985316" lon="13.9097867"><ele>775.0</ele><time>2026-04-26T10:08:35.308Z</time></trkpt><trkpt lat="37.7987536" lon="13.9097555"><ele>775.3333333333333</ele><time>2026-04-26T10:08:36.308Z</time></trkpt><trkpt lat="37.7989757" lon="13.909722"><ele>775.6666666666667</ele><time>2026-04-26T10:08:37.308Z</time></trkpt><trkpt lat="37.7992007" lon="13.9096995"><ele>776.0</ele><time>2026-04-26T10:08:38.308Z</time></trkpt><trkpt lat="37.7994196" lon="13.9096914"><ele>773.6666666666667</ele><time>2026-04-26T10:08:39.308Z</time></trkpt><trkpt lat="37.7996346" lon="13.9096985"><ele>771.3333333333333</ele><time>2026-04-26T10:08:40.308Z</time></trkpt><trkpt lat="37.7998393" lon="13.9097023"><ele>769.0</ele><time>2026-04-26T10:08:41.308Z</time></trkpt><trkpt lat="37.8000388" lon="13.9096917"><ele>768.3333333333333</ele><time>2026-04-26T10:08:42.308Z</time></trkpt><trkpt lat="37.8002343" lon="13.9096493"><ele>767.6666666666666</ele><time>2026-04-26T10:08:43.308Z</time></trkpt><trkpt lat="37.8004263" lon="13.9095633"><ele>767.0</ele><time>2026-04-26T10:08:44.308Z</time></trkpt><trkpt lat="37.8006022" lon="13.909419"><ele>767.0</ele><time>2026-04-26T10:08:45.307Z</time></trkpt><trkpt lat="37.8007915" lon="13.9092512"><ele>767.0</ele><time>2026-04-26T10:08:46.308Z</time></trkpt><trkpt lat="37.800978" lon="13.9090636"><ele>767.0</ele><time>2026-04-26T10:08:47.308Z</time></trkpt><trkpt lat="37.8011754" lon="13.9088702"><ele>767.0</ele><time>2026-04-26T10:08:48.308Z</time></trkpt><trkpt lat="37.8013727" lon="13.9086851"><ele>767.0</ele><time>2026-04-26T10:08:49.308Z</time></trkpt><trkpt lat="37.8015663" lon="13.9085062"><ele>767.0</ele><time>2026-04-26T10:08:50.308Z</time></trkpt><trkpt lat="37.801755" lon="13.908325"><ele>763.5</ele><time>2026-04-26T10:08:51.308Z</time></trkpt><trkpt lat="37.801942" lon="13.9081535"><ele>760.0</ele><time>2026-04-26T10:08:52.307Z</time></trkpt><trkpt lat="37.8021267" lon="13.9079787"><ele>760.0</ele><time>2026-04-26T10:08:53.308Z</time></trkpt><trkpt lat="37.8023025" lon="13.9078033"><ele>760.0</ele><time>2026-04-26T10:08:54.307Z</time></trkpt><trkpt lat="37.8024579" lon="13.9076125"><ele>760.0</ele><time>2026-04-26T10:08:55.308Z</time></trkpt><trkpt lat="37.8025972" lon="13.9074047"><ele>756.3333333333334</ele><time>2026-04-26T10:08:56.308Z</time></trkpt><trkpt lat="37.8027175" lon="13.9071838"><ele>752.6666666666666</ele><time>2026-04-26T10:08:57.308Z</time></trkpt><trkpt lat="37.8028172" lon="13.906981"><ele>749.0</ele><time>2026-04-26T10:08:58.308Z</time></trkpt><trkpt lat="37.8029151" lon="13.9067802"><ele>747.3333333333333</ele><time>2026-04-26T10:08:59.308Z</time></trkpt><trkpt lat="37.8030106" lon="13.9065986"><ele>745.6666666666666</ele><time>2026-04-26T10:09:00.308Z</time></trkpt><trkpt lat="37.803115" lon="13.9064449"><ele>744.0</ele><time>2026-04-26T10:09:01.308Z</time></trkpt><trkpt lat="37.8032201" lon="13.9063335"><ele>744.0</ele><time>2026-04-26T10:09:02.308Z</time></trkpt><trkpt lat="37.8033324" lon="13.9062376"><ele>744.0</ele><time>2026-04-26T10:09:03.308Z</time></trkpt><trkpt lat="37.8034348" lon="13.9061598"><ele>744.0</ele><time>2026-04-26T10:09:04.308Z</time></trkpt><trkpt lat="37.8035156" lon="13.9060802"><ele>744.0</ele><time>2026-04-26T10:09:05.308Z</time></trkpt><trkpt lat="37.8035787" lon="13.9060036"><ele>744.0</ele><time>2026-04-26T10:09:06.308Z</time></trkpt><trkpt lat="37.8036272" lon="13.9059298"><ele>742.6</ele><time>2026-04-26T10:09:07.308Z</time></trkpt><trkpt lat="37.8036655" lon="13.9058664"><ele>741.2</ele><time>2026-04-26T10:09:08.308Z</time></trkpt><trkpt lat="37.8037326" lon="13.9057613"><ele>739.8000000000001</ele><time>2026-04-26T10:09:10.308Z</time></trkpt><trkpt lat="37.8037939" lon="13.9056541"><ele>738.4000000000001</ele><time>2026-04-26T10:09:12.308Z</time></trkpt><trkpt lat="37.8038721" lon="13.9055105"><ele>737.0</ele><time>2026-04-26T10:09:14.308Z</time></trkpt><trkpt lat="37.8039197" lon="13.9054176"><ele>737.0</ele><time>2026-04-26T10:09:15.308Z</time></trkpt><trkpt lat="37.8039856" lon="13.9053141"><ele>737.0</ele><time>2026-04-26T10:09:16.308Z</time></trkpt><trkpt lat="37.8040627" lon="13.9051925"><ele>737.0</ele><time>2026-04-26T10:09:17.308Z</time></trkpt><trkpt lat="37.8041434" lon="13.9050735"><ele>737.0</ele><time>2026-04-26T10:09:18.308Z</time></trkpt><trkpt lat="37.8042347" lon="13.9049522"><ele>735.5</ele><time>2026-04-26T10:09:19.308Z</time></trkpt><trkpt lat="37.804327" lon="13.9048232"><ele>734.0</ele><time>2026-04-26T10:09:20.308Z</time></trkpt><trkpt lat="37.8044324" lon="13.9046862"><ele>732.5</ele><time>2026-04-26T10:09:21.308Z</time></trkpt><trkpt lat="37.8045462" lon="13.9045471"><ele>731.0</ele><time>2026-04-26T10:09:22.308Z</time></trkpt><trkpt lat="37.8046786" lon="13.9044055"><ele>729.6666666666666</ele><time>2026-04-26T10:09:23.308Z</time></trkpt><trkpt lat="37.8048195" lon="13.9042689"><ele>728.3333333333334</ele><time>2026-04-26T10:09:24.308Z</time></trkpt><trkpt lat="37.8049663" lon="13.9041258"><ele>727.0</ele><time>2026-04-26T10:09:25.307Z</time></trkpt><trkpt lat="37.8051181" lon="13.9039752"><ele>724.0</ele><time>2026-04-26T10:09:26.307Z</time></trkpt><trkpt lat="37.8052663" lon="13.9038287"><ele>721.0</ele><time>2026-04-26T10:09:27.307Z</time></trkpt><trkpt lat="37.8054126" lon="13.9036895"><ele>718.0</ele><time>2026-04-26T10:09:28.308Z</time></trkpt><trkpt lat="37.8055533" lon="13.9035582"><ele>718.0</ele><time>2026-04-26T10:09:29.308Z</time></trkpt><trkpt lat="37.8056883" lon="13.9034318"><ele>718.0</ele><time>2026-04-26T10:09:30.308Z</time></trkpt><trkpt lat="37.8058148" lon="13.9033085"><ele>718.0</ele><time>2026-04-26T10:09:31.308Z</time></trkpt><trkpt lat="37.805934" lon="13.903179"><ele>716.25</ele><time>2026-04-26T10:09:32.308Z</time></trkpt><trkpt lat="37.8060462" lon="13.9030483"><ele>714.5</ele><time>2026-04-26T10:09:33.308Z</time></trkpt><trkpt lat="37.8061447" lon="13.9029066"><ele>712.75</ele><time>2026-04-26T10:09:34.308Z</time></trkpt><trkpt lat="37.8062238" lon="13.9027611"><ele>711.0</ele><time>2026-04-26T10:09:35.308Z</time></trkpt><trkpt lat="37.8062851" lon="13.9025923"><ele>712.5</ele><time>2026-04-26T10:09:36.307Z</time></trkpt><trkpt lat="37.8063158" lon="13.9024137"><ele>714.0</ele><time>2026-04-26T10:09:37.308Z</time></trkpt><trkpt lat="37.8063176" lon="13.9022224"><ele>715.5</ele><time>2026-04-26T10:09:38.308Z</time></trkpt><trkpt lat="37.8063014" lon="13.9020348"><ele>717.0</ele><time>2026-04-26T10:09:39.307Z</time></trkpt><trkpt lat="37.8062692" lon="13.9018475"><ele>717.75</ele><time>2026-04-26T10:09:40.308Z</time></trkpt><trkpt lat="37.806235" lon="13.9016774"><ele>718.5</ele><time>2026-04-26T10:09:41.308Z</time></trkpt><trkpt lat="37.806208" lon="13.9015195"><ele>719.25</ele><time>2026-04-26T10:09:42.308Z</time></trkpt><trkpt lat="37.8062061" lon="13.9013609"><ele>720.0</ele><time>2026-04-26T10:09:43.308Z</time></trkpt><trkpt lat="37.8062334" lon="13.9012018"><ele>720.0</ele><time>2026-04-26T10:09:44.308Z</time></trkpt><trkpt lat="37.8062979" lon="13.9010424"><ele>720.0</ele><time>2026-04-26T10:09:45.308Z</time></trkpt><trkpt lat="37.8063932" lon="13.9009077"><ele>720.0</ele><time>2026-04-26T10:09:46.308Z</time></trkpt><trkpt lat="37.8065196" lon="13.9007856"><ele>720.0</ele><time>2026-04-26T10:09:47.308Z</time></trkpt><trkpt lat="37.8066632" lon="13.90066"><ele>721.3333333333334</ele><time>2026-04-26T10:09:48.308Z</time></trkpt><trkpt lat="37.8068041" lon="13.9005099"><ele>722.6666666666667</ele><time>2026-04-26T10:09:49.308Z</time></trkpt><trkpt lat="37.8069385" lon="13.9003414"><ele>724.0</ele><time>2026-04-26T10:09:50.308Z</time></trkpt><trkpt lat="37.8070593" lon="13.9001527"><ele>719.6666666666667</ele><time>2026-04-26T10:09:51.308Z</time></trkpt><trkpt lat="37.8071695" lon="13.8999772"><ele>715.3333333333334</ele><time>2026-04-26T10:09:52.307Z</time></trkpt><trkpt lat="37.8072763" lon="13.8998378"><ele>711.0</ele><time>2026-04-26T10:09:53.308Z</time></trkpt><trkpt lat="37.8073941" lon="13.8997355"><ele>711.0</ele><time>2026-04-26T10:09:54.308Z</time></trkpt><trkpt lat="37.8075484" lon="13.8996714"><ele>711.0</ele><time>2026-04-26T10:09:55.308Z</time></trkpt><trkpt lat="37.8077185" lon="13.8996282"><ele>711.0</ele><time>2026-04-26T10:09:56.308Z</time></trkpt><trkpt lat="37.8078991" lon="13.8995959"><ele>711.0</ele><time>2026-04-26T10:09:57.308Z</time></trkpt><trkpt lat="37.8080878" lon="13.8995627"><ele>711.0</ele><time>2026-04-26T10:09:58.308Z</time></trkpt><trkpt lat="37.8082786" lon="13.8995249"><ele>711.0</ele><time>2026-04-26T10:09:59.308Z</time></trkpt><trkpt lat="37.8084671" lon="13.8994778"><ele>710.3333333333334</ele><time>2026-04-26T10:10:00.308Z</time></trkpt><trkpt lat="37.808659" lon="13.8994091"><ele>709.6666666666667</ele><time>2026-04-26T10:10:01.308Z</time></trkpt><trkpt lat="37.8088294" lon="13.8993041"><ele>709.0</ele><time>2026-04-26T10:10:02.308Z</time></trkpt><trkpt lat="37.8089907" lon="13.8991724"><ele>705.6666666666667</ele><time>2026-04-26T10:10:03.308Z</time></trkpt><trkpt lat="37.8091364" lon="13.8990278"><ele>702.3333333333334</ele><time>2026-04-26T10:10:04.308Z</time></trkpt><trkpt lat="37.8092876" lon="13.8989005"><ele>699.0</ele><time>2026-04-26T10:10:05.308Z</time></trkpt><trkpt lat="37.8094454" lon="13.8988085"><ele>699.0</ele><time>2026-04-26T10:10:06.307Z</time></trkpt><trkpt lat="37.8096248" lon="13.8987388"><ele>699.0</ele><time>2026-04-26T10:10:07.308Z</time></trkpt><trkpt lat="37.809817" lon="13.8986888"><ele>699.0</ele><time>2026-04-26T10:10:08.308Z</time></trkpt><trkpt lat="37.810012" lon="13.8986482"><ele>698.3333333333334</ele><time>2026-04-26T10:10:09.308Z</time></trkpt><trkpt lat="37.8101924" lon="13.8986061"><ele>697.6666666666667</ele><time>2026-04-26T10:10:10.308Z</time></trkpt><trkpt lat="37.8103473" lon="13.8985592"><ele>697.0</ele><time>2026-04-26T10:10:11.308Z</time></trkpt><trkpt lat="37.8104845" lon="13.8984991"><ele>694.6666666666667</ele><time>2026-04-26T10:10:12.308Z</time></trkpt><trkpt lat="37.810607" lon="13.8984025"><ele>692.3333333333334</ele><time>2026-04-26T10:10:13.308Z</time></trkpt><trkpt lat="37.8107176" lon="13.8982692"><ele>690.0</ele><time>2026-04-26T10:10:14.308Z</time></trkpt><trkpt lat="37.8108182" lon="13.8981134"><ele>690.0</ele><time>2026-04-26T10:10:15.308Z</time></trkpt><trkpt lat="37.8109185" lon="13.8979414"><ele>690.0</ele><time>2026-04-26T10:10:16.307Z</time></trkpt><trkpt lat="37.8110227" lon="13.8977798"><ele>690.0</ele><time>2026-04-26T10:10:17.308Z</time></trkpt><trkpt lat="37.8111391" lon="13.8976344"><ele>687.3333333333334</ele><time>2026-04-26T10:10:18.308Z</time></trkpt><trkpt lat="37.8112736" lon="13.8975161"><ele>684.6666666666667</ele><time>2026-04-26T10:10:19.308Z</time></trkpt><trkpt lat="37.811429" lon="13.8974204"><ele>682.0</ele><time>2026-04-26T10:10:20.308Z</time></trkpt><trkpt lat="37.8115952" lon="13.8973266"><ele>682.0</ele><time>2026-04-26T10:10:21.308Z</time></trkpt><trkpt lat="37.8117704" lon="13.8972258"><ele>682.0</ele><time>2026-04-26T10:10:22.308Z</time></trkpt><trkpt lat="37.811946" lon="13.8971245"><ele>682.0</ele><time>2026-04-26T10:10:23.307Z</time></trkpt><trkpt lat="37.8121224" lon="13.8970201"><ele>684.3333333333334</ele><time>2026-04-26T10:10:24.307Z</time></trkpt><trkpt lat="37.8122917" lon="13.8969246"><ele>686.6666666666666</ele><time>2026-04-26T10:10:25.308Z</time></trkpt><trkpt lat="37.8124577" lon="13.8968361"><ele>689.0</ele><time>2026-04-26T10:10:26.308Z</time></trkpt><trkpt lat="37.8126234" lon="13.8967675"><ele>683.3333333333333</ele><time>2026-04-26T10:10:27.308Z</time></trkpt><trkpt lat="37.8127876" lon="13.8967123"><ele>677.6666666666666</ele><time>2026-04-26T10:10:28.308Z</time></trkpt><trkpt lat="37.8129528" lon="13.8966722"><ele>672.0</ele><time>2026-04-26T10:10:29.308Z</time></trkpt><trkpt lat="37.8131204" lon="13.896634"><ele>672.0</ele><time>2026-04-26T10:10:30.308Z</time></trkpt><trkpt lat="37.8132878" lon="13.8965962"><ele>672.0</ele><time>2026-04-26T10:10:31.308Z</time></trkpt><trkpt lat="37.8134471" lon="13.8965418"><ele>672.0</ele><time>2026-04-26T10:10:32.308Z</time></trkpt><trkpt lat="37.8136001" lon="13.8964675"><ele>673.6666666666666</ele><time>2026-04-26T10:10:33.308Z</time></trkpt><trkpt lat="37.8137364" lon="13.8963688"><ele>675.3333333333333</ele><time>2026-04-26T10:10:34.308Z</time></trkpt><trkpt lat="37.8138616" lon="13.8962626"><ele>677.0</ele><time>2026-04-26T10:10:35.308Z</time></trkpt><trkpt lat="37.8139928" lon="13.8961624"><ele>677.0</ele><time>2026-04-26T10:10:36.308Z</time></trkpt><trkpt lat="37.8141243" lon="13.8960922"><ele>677.0</ele><time>2026-04-26T10:10:37.308Z</time></trkpt><trkpt lat="37.8142633" lon="13.8960542"><ele>677.0</ele><time>2026-04-26T10:10:38.308Z</time></trkpt><trkpt lat="37.8144047" lon="13.8960357"><ele>677.0</ele><time>2026-04-26T10:10:39.308Z</time></trkpt><trkpt lat="37.8145375" lon="13.8960358"><ele>676.25</ele><time>2026-04-26T10:10:40.308Z</time></trkpt><trkpt lat="37.8146641" lon="13.896045"><ele>675.5</ele><time>2026-04-26T10:10:41.308Z</time></trkpt><trkpt lat="37.8147833" lon="13.8960576"><ele>674.75</ele><time>2026-04-26T10:10:42.307Z</time></trkpt><trkpt lat="37.8148985" lon="13.8960631"><ele>674.0</ele><time>2026-04-26T10:10:43.308Z</time></trkpt><trkpt lat="37.8150087" lon="13.896057"><ele>674.0</ele><time>2026-04-26T10:10:44.308Z</time></trkpt><trkpt lat="37.8151117" lon="13.896036"><ele>674.0</ele><time>2026-04-26T10:10:45.308Z</time></trkpt><trkpt lat="37.8152103" lon="13.8959998"><ele>674.0</ele><time>2026-04-26T10:10:46.308Z</time></trkpt><trkpt lat="37.8153028" lon="13.8959413"><ele>674.0</ele><time>2026-04-26T10:10:47.308Z</time></trkpt><trkpt lat="37.8153877" lon="13.8958515"><ele>674.0</ele><time>2026-04-26T10:10:48.308Z</time></trkpt><trkpt lat="37.815467" lon="13.8957411"><ele>672.75</ele><time>2026-04-26T10:10:49.308Z</time></trkpt><trkpt lat="37.8155338" lon="13.8956074"><ele>671.5</ele><time>2026-04-26T10:10:50.308Z</time></trkpt><trkpt lat="37.8155897" lon="13.8954646"><ele>670.25</ele><time>2026-04-26T10:10:51.307Z</time></trkpt><trkpt lat="37.8156354" lon="13.8953081"><ele>669.0</ele><time>2026-04-26T10:10:52.307Z</time></trkpt><trkpt lat="37.8156695" lon="13.8951504"><ele>667.75</ele><time>2026-04-26T10:10:53.307Z</time></trkpt><trkpt lat="37.8157031" lon="13.8949986"><ele>666.5</ele><time>2026-04-26T10:10:54.307Z</time></trkpt><trkpt lat="37.8157333" lon="13.8948515"><ele>665.25</ele><time>2026-04-26T10:10:55.307Z</time></trkpt><trkpt lat="37.8157679" lon="13.8947141"><ele>664.0</ele><time>2026-04-26T10:10:56.307Z</time></trkpt><trkpt lat="37.8158008" lon="13.8945804"><ele>664.0</ele><time>2026-04-26T10:10:57.307Z</time></trkpt><trkpt lat="37.8158313" lon="13.8944464"><ele>664.0</ele><time>2026-04-26T10:10:58.307Z</time></trkpt><trkpt lat="37.8158634" lon="13.8943169"><ele>664.0</ele><time>2026-04-26T10:10:59.307Z</time></trkpt><trkpt lat="37.8158915" lon="13.8941935"><ele>664.0</ele><time>2026-04-26T10:11:00.307Z</time></trkpt><trkpt lat="37.8159236" lon="13.8940712"><ele>664.0</ele><time>2026-04-26T10:11:01.307Z</time></trkpt><trkpt lat="37.8159573" lon="13.893944"><ele>664.5</ele><time>2026-04-26T10:11:02.307Z</time></trkpt><trkpt lat="37.8159901" lon="13.8938107"><ele>665.0</ele><time>2026-04-26T10:11:03.307Z</time></trkpt><trkpt lat="37.8160279" lon="13.8936752"><ele>665.5</ele><time>2026-04-26T10:11:04.307Z</time></trkpt><trkpt lat="37.8160828" lon="13.8935525"><ele>666.0</ele><time>2026-04-26T10:11:05.307Z</time></trkpt><trkpt lat="37.816154" lon="13.893438"><ele>662.75</ele><time>2026-04-26T10:11:06.307Z</time></trkpt><trkpt lat="37.8162417" lon="13.8933377"><ele>659.5</ele><time>2026-04-26T10:11:07.307Z</time></trkpt><trkpt lat="37.8163353" lon="13.8932525"><ele>656.25</ele><time>2026-04-26T10:11:08.307Z</time></trkpt><trkpt lat="37.8164328" lon="13.8931821"><ele>653.0</ele><time>2026-04-26T10:11:09.307Z</time></trkpt><trkpt lat="37.8165306" lon="13.8931105"><ele>653.0</ele><time>2026-04-26T10:11:10.307Z</time></trkpt><trkpt lat="37.8166303" lon="13.8930367"><ele>653.0</ele><time>2026-04-26T10:11:11.307Z</time></trkpt><trkpt lat="37.8167361" lon="13.8929574"><ele>653.0</ele><time>2026-04-26T10:11:12.307Z</time></trkpt><trkpt lat="37.8168473" lon="13.8928905"><ele>653.0</ele><time>2026-04-26T10:11:13.307Z</time></trkpt><trkpt lat="37.8169632" lon="13.8928383"><ele>654.5</ele><time>2026-04-26T10:11:14.307Z</time></trkpt><trkpt lat="37.8170808" lon="13.8927967"><ele>656.0</ele><time>2026-04-26T10:11:15.307Z</time></trkpt><trkpt lat="37.8171991" lon="13.8927775"><ele>657.5</ele><time>2026-04-26T10:11:16.307Z</time></trkpt><trkpt lat="37.817316" lon="13.8927645"><ele>659.0</ele><time>2026-04-26T10:11:17.307Z</time></trkpt><trkpt lat="37.8174337" lon="13.892749"><ele>659.0</ele><time>2026-04-26T10:11:18.307Z</time></trkpt><trkpt lat="37.8175467" lon="13.8927276"><ele>659.0</ele><time>2026-04-26T10:11:19.307Z</time></trkpt><trkpt lat="37.8176568" lon="13.8926873"><ele>659.0</ele><time>2026-04-26T10:11:20.307Z</time></trkpt><trkpt lat="37.8177615" lon="13.8926292"><ele>659.0</ele><time>2026-04-26T10:11:21.307Z</time></trkpt><trkpt lat="37.8178608" lon="13.8925581"><ele>657.0</ele><time>2026-04-26T10:11:22.307Z</time></trkpt><trkpt lat="37.8179443" lon="13.8924808"><ele>655.0</ele><time>2026-04-26T10:11:23.307Z</time></trkpt><trkpt lat="37.8180193" lon="13.8924003"><ele>653.0</ele><time>2026-04-26T10:11:24.307Z</time></trkpt><trkpt lat="37.8180896" lon="13.8923111"><ele>651.0</ele><time>2026-04-26T10:11:25.307Z</time></trkpt><trkpt lat="37.81815" lon="13.8922094"><ele>649.0</ele><time>2026-04-26T10:11:26.307Z</time></trkpt><trkpt lat="37.8182072" lon="13.8920988"><ele>649.0</ele><time>2026-04-26T10:11:27.307Z</time></trkpt><trkpt lat="37.8182557" lon="13.8919867"><ele>649.0</ele><time>2026-04-26T10:11:28.307Z</time></trkpt><trkpt lat="37.8182968" lon="13.8918653"><ele>649.0</ele><time>2026-04-26T10:11:29.307Z</time></trkpt><trkpt lat="37.8183377" lon="13.8917393"><ele>649.0</ele><time>2026-04-26T10:11:30.307Z</time></trkpt><trkpt lat="37.8183875" lon="13.8916311"><ele>649.0</ele><time>2026-04-26T10:11:31.307Z</time></trkpt><trkpt lat="37.8184439" lon="13.8915402"><ele>646.8000000000001</ele><time>2026-04-26T10:11:32.307Z</time></trkpt><trkpt lat="37.8185156" lon="13.8914601"><ele>644.6</ele><time>2026-04-26T10:11:33.307Z</time></trkpt><trkpt lat="37.818596" lon="13.8913912"><ele>642.4</ele><time>2026-04-26T10:11:34.307Z</time></trkpt><trkpt lat="37.8186799" lon="13.8913373"><ele>640.2</ele><time>2026-04-26T10:11:35.307Z</time></trkpt><trkpt lat="37.81877" lon="13.8912932"><ele>638.0</ele><time>2026-04-26T10:11:36.307Z</time></trkpt><trkpt lat="37.8188677" lon="13.8912749"><ele>638.0</ele><time>2026-04-26T10:11:37.307Z</time></trkpt><trkpt lat="37.8189586" lon="13.8912714"><ele>638.0</ele><time>2026-04-26T10:11:38.307Z</time></trkpt><trkpt lat="37.8190402" lon="13.891276"><ele>638.0</ele><time>2026-04-26T10:11:39.307Z</time></trkpt><trkpt lat="37.8191182" lon="13.8912973"><ele>638.0</ele><time>2026-04-26T10:11:40.307Z</time></trkpt><trkpt lat="37.8191807" lon="13.8913098"><ele>638.0</ele><time>2026-04-26T10:11:41.307Z</time></trkpt><trkpt lat="37.8192831" lon="13.8913197"><ele>638.0</ele><time>2026-04-26T10:11:43.307Z</time></trkpt><trkpt lat="37.819348" lon="13.891313"><ele>638.5</ele><time>2026-04-26T10:11:45.307Z</time></trkpt><trkpt lat="37.8194318" lon="13.8912897"><ele>639.0</ele><time>2026-04-26T10:11:49.307Z</time></trkpt><trkpt lat="37.8195008" lon="13.8912575"><ele>639.5</ele><time>2026-04-26T10:11:52.307Z</time></trkpt><trkpt lat="37.8195641" lon="13.8911986"><ele>640.0</ele><time>2026-04-26T10:11:55.307Z</time></trkpt><trkpt lat="37.8196293" lon="13.8911403"><ele>640.5</ele><time>2026-04-26T10:11:57.307Z</time></trkpt><trkpt lat="37.8196946" lon="13.8910686"><ele>641.0</ele><time>2026-04-26T10:11:59.307Z</time></trkpt><trkpt lat="37.8197615" lon="13.8910018"><ele>641.0</ele><time>2026-04-26T10:12:01.307Z</time></trkpt><trkpt lat="37.8198204" lon="13.8909458"><ele>641.0</ele><time>2026-04-26T10:12:03.307Z</time></trkpt><trkpt lat="37.8198812" lon="13.8908772"><ele>641.0</ele><time>2026-04-26T10:12:05.307Z</time></trkpt><trkpt lat="37.8199609" lon="13.8908058"><ele>641.0</ele><time>2026-04-26T10:12:07.307Z</time></trkpt><trkpt lat="37.820046" lon="13.8907288"><ele>641.0</ele><time>2026-04-26T10:12:09.307Z</time></trkpt><trkpt lat="37.8201364" lon="13.8906376"><ele>640.8</ele><time>2026-04-26T10:12:11.307Z</time></trkpt><trkpt lat="37.8202162" lon="13.8905478"><ele>640.5999999999999</ele><time>2026-04-26T10:12:13.307Z</time></trkpt><trkpt lat="37.8202948" lon="13.8904616"><ele>640.4</ele><time>2026-04-26T10:12:15.307Z</time></trkpt><trkpt lat="37.820358" lon="13.8903561"><ele>640.2</ele><time>2026-04-26T10:12:17.307Z</time></trkpt><trkpt lat="37.8203882" lon="13.8902448"><ele>640.0</ele><time>2026-04-26T10:12:19.307Z</time></trkpt><trkpt lat="37.8203714" lon="13.8901442"><ele>637.6</ele><time>2026-04-26T10:12:21.307Z</time></trkpt><trkpt lat="37.820313" lon="13.8900492"><ele>635.2</ele><time>2026-04-26T10:12:23.307Z</time></trkpt><trkpt lat="37.8202037" lon="13.889961"><ele>632.8</ele><time>2026-04-26T10:12:25.307Z</time></trkpt><trkpt lat="37.8201314" lon="13.8899386"><ele>630.4</ele><time>2026-04-26T10:12:26.307Z</time></trkpt><trkpt lat="37.8200495" lon="13.8899278"><ele>628.0</ele><time>2026-04-26T10:12:27.307Z</time></trkpt><trkpt lat="37.8199675" lon="13.8899265"><ele>627.8333333333334</ele><time>2026-04-26T10:12:28.307Z</time></trkpt><trkpt lat="37.8198803" lon="13.8899144"><ele>627.6666666666667</ele><time>2026-04-26T10:12:29.307Z</time></trkpt><trkpt lat="37.8198006" lon="13.8899047"><ele>627.5</ele><time>2026-04-26T10:12:30.307Z</time></trkpt><trkpt lat="37.8197199" lon="13.8899009"><ele>627.3333333333334</ele><time>2026-04-26T10:12:31.307Z</time></trkpt><trkpt lat="37.8196458" lon="13.8898922"><ele>627.1666666666666</ele><time>2026-04-26T10:12:32.307Z</time></trkpt><trkpt lat="37.8195703" lon="13.8898909"><ele>627.0</ele><time>2026-04-26T10:12:33.307Z</time></trkpt><trkpt lat="37.8194888" lon="13.8898801"><ele>627.0</ele><time>2026-04-26T10:12:34.307Z</time></trkpt><trkpt lat="37.8194008" lon="13.8898684"><ele>627.0</ele><time>2026-04-26T10:12:35.307Z</time></trkpt><trkpt lat="37.8193035" lon="13.889872"><ele>627.0</ele><time>2026-04-26T10:12:36.307Z</time></trkpt><trkpt lat="37.819214" lon="13.889891"><ele>627.0</ele><time>2026-04-26T10:12:37.307Z</time></trkpt><trkpt lat="37.819127" lon="13.889932"><ele>627.0</ele><time>2026-04-26T10:12:38.307Z</time></trkpt><trkpt lat="37.8190404" lon="13.8899839"><ele>626.4</ele><time>2026-04-26T10:12:39.307Z</time></trkpt><trkpt lat="37.8189466" lon="13.89004"><ele>625.8000000000001</ele><time>2026-04-26T10:12:40.307Z</time></trkpt><trkpt lat="37.8188457" lon="13.8901063"><ele>625.2</ele><time>2026-04-26T10:12:41.307Z</time></trkpt><trkpt lat="37.8187409" lon="13.8901687"><ele>624.6</ele><time>2026-04-26T10:12:42.307Z</time></trkpt><trkpt lat="37.8186387" lon="13.8902277"><ele>624.0</ele><time>2026-04-26T10:12:43.307Z</time></trkpt><trkpt lat="37.8185358" lon="13.890298"><ele>624.5</ele><time>2026-04-26T10:12:44.307Z</time></trkpt><trkpt lat="37.8184305" lon="13.8903635"><ele>625.0</ele><time>2026-04-26T10:12:45.307Z</time></trkpt><trkpt lat="37.8183236" lon="13.8904236"><ele>625.5</ele><time>2026-04-26T10:12:46.307Z</time></trkpt><trkpt lat="37.818214" lon="13.8904853"><ele>626.0</ele><time>2026-04-26T10:12:47.307Z</time></trkpt><trkpt lat="37.8180929" lon="13.8905484"><ele>626.0</ele><time>2026-04-26T10:12:48.307Z</time></trkpt><trkpt lat="37.8179739" lon="13.89062"><ele>626.0</ele><time>2026-04-26T10:12:49.307Z</time></trkpt><trkpt lat="37.8178618" lon="13.8906889"><ele>626.0</ele><time>2026-04-26T10:12:50.307Z</time></trkpt><trkpt lat="37.8177518" lon="13.8907557"><ele>626.0</ele><time>2026-04-26T10:12:51.307Z</time></trkpt><trkpt lat="37.817641" lon="13.8908182"><ele>625.75</ele><time>2026-04-26T10:12:52.307Z</time></trkpt><trkpt lat="37.8175297" lon="13.890883"><ele>625.5</ele><time>2026-04-26T10:12:53.307Z</time></trkpt><trkpt lat="37.8174217" lon="13.8909491"><ele>625.25</ele><time>2026-04-26T10:12:54.307Z</time></trkpt><trkpt lat="37.8173093" lon="13.8910154"><ele>625.0</ele><time>2026-04-26T10:12:55.307Z</time></trkpt><trkpt lat="37.8171891" lon="13.8910891"><ele>625.0</ele><time>2026-04-26T10:12:56.307Z</time></trkpt><trkpt lat="37.8170643" lon="13.8911612"><ele>625.0</ele><time>2026-04-26T10:12:57.307Z</time></trkpt><trkpt lat="37.8169422" lon="13.8912349"><ele>625.0</ele><time>2026-04-26T10:12:58.307Z</time></trkpt><trkpt lat="37.8168219" lon="13.8913003"><ele>625.0</ele><time>2026-04-26T10:12:59.307Z</time></trkpt><trkpt lat="37.8167002" lon="13.8913647"><ele>621.5</ele><time>2026-04-26T10:13:00.307Z</time></trkpt><trkpt lat="37.8165799" lon="13.8914347"><ele>618.0</ele><time>2026-04-26T10:13:01.307Z</time></trkpt><trkpt lat="37.8164556" lon="13.8915124"><ele>614.5</ele><time>2026-04-26T10:13:02.307Z</time></trkpt><trkpt lat="37.8163292" lon="13.8915865"><ele>611.0</ele><time>2026-04-26T10:13:03.307Z</time></trkpt><trkpt lat="37.816205" lon="13.8916565"><ele>611.0</ele><time>2026-04-26T10:13:04.307Z</time></trkpt><trkpt lat="37.8160816" lon="13.8917176"><ele>611.0</ele><time>2026-04-26T10:13:05.307Z</time></trkpt><trkpt lat="37.8159518" lon="13.8917622"><ele>611.0</ele><time>2026-04-26T10:13:06.307Z</time></trkpt><trkpt lat="37.8158236" lon="13.8917845"><ele>611.0</ele><time>2026-04-26T10:13:07.306Z</time></trkpt><trkpt lat="37.8156924" lon="13.8917882"><ele>613.0</ele><time>2026-04-26T10:13:08.307Z</time></trkpt><trkpt lat="37.8155667" lon="13.8917821"><ele>615.0</ele><time>2026-04-26T10:13:09.306Z</time></trkpt><trkpt lat="37.8154567" lon="13.8917694"><ele>617.0</ele><time>2026-04-26T10:13:10.307Z</time></trkpt><trkpt lat="37.8153683" lon="13.8917446"><ele>619.0</ele><time>2026-04-26T10:13:11.307Z</time></trkpt><trkpt lat="37.8153116" lon="13.8916994"><ele>621.0</ele><time>2026-04-26T10:13:12.307Z</time></trkpt><trkpt lat="37.8152963" lon="13.8915423"><ele>617.1666666666666</ele><time>2026-04-26T10:13:14.307Z</time></trkpt><trkpt lat="37.8153331" lon="13.8914743"><ele>613.3333333333334</ele><time>2026-04-26T10:13:15.307Z</time></trkpt><trkpt lat="37.8154015" lon="13.8914331"><ele>609.5</ele><time>2026-04-26T10:13:16.307Z</time></trkpt><trkpt lat="37.815485" lon="13.891406"><ele>605.6666666666667</ele><time>2026-04-26T10:13:17.307Z</time></trkpt><trkpt lat="37.8155698" lon="13.8913944"><ele>601.8333333333334</ele><time>2026-04-26T10:13:18.307Z</time></trkpt><trkpt lat="37.815663" lon="13.8913847"><ele>598.0</ele><time>2026-04-26T10:13:19.307Z</time></trkpt><trkpt lat="37.815761" lon="13.8913617"><ele>598.0</ele><time>2026-04-26T10:13:20.307Z</time></trkpt><trkpt lat="37.8158687" lon="13.8913236"><ele>598.0</ele><time>2026-04-26T10:13:21.307Z</time></trkpt><trkpt lat="37.8159823" lon="13.8912625"><ele>598.0</ele><time>2026-04-26T10:13:22.307Z</time></trkpt><trkpt lat="37.8160991" lon="13.8911758"><ele>598.0</ele><time>2026-04-26T10:13:23.307Z</time></trkpt><trkpt lat="37.816215" lon="13.8910722"><ele>596.3333333333334</ele><time>2026-04-26T10:13:24.307Z</time></trkpt><trkpt lat="37.8163162" lon="13.8909367"><ele>594.6666666666666</ele><time>2026-04-26T10:13:25.306Z</time></trkpt><trkpt lat="37.8164139" lon="13.8907892"><ele>593.0</ele><time>2026-04-26T10:13:26.307Z</time></trkpt><trkpt lat="37.8165026" lon="13.8906262"><ele>593.0</ele><time>2026-04-26T10:13:27.307Z</time></trkpt><trkpt lat="37.8165789" lon="13.8904687"><ele>593.0</ele><time>2026-04-26T10:13:28.307Z</time></trkpt><trkpt lat="37.8166455" lon="13.8903131"><ele>593.0</ele><time>2026-04-26T10:13:29.307Z</time></trkpt><trkpt lat="37.8167143" lon="13.8901762"><ele>593.0</ele><time>2026-04-26T10:13:30.307Z</time></trkpt><trkpt lat="37.8167827" lon="13.8900486"><ele>592.0</ele><time>2026-04-26T10:13:31.307Z</time></trkpt><trkpt lat="37.8168537" lon="13.889938"><ele>591.0</ele><time>2026-04-26T10:13:32.307Z</time></trkpt><trkpt lat="37.8169405" lon="13.8898592"><ele>590.0</ele><time>2026-04-26T10:13:33.307Z</time></trkpt><trkpt lat="37.8170464" lon="13.8898104"><ele>589.0</ele><time>2026-04-26T10:13:34.307Z</time></trkpt><trkpt lat="37.8171722" lon="13.8897885"><ele>589.0</ele><time>2026-04-26T10:13:35.307Z</time></trkpt><trkpt lat="37.8172946" lon="13.8897724"><ele>589.0</ele><time>2026-04-26T10:13:36.307Z</time></trkpt><trkpt lat="37.8174115" lon="13.8897505"><ele>589.0</ele><time>2026-04-26T10:13:37.307Z</time></trkpt><trkpt lat="37.8175216" lon="13.8897123"><ele>589.0</ele><time>2026-04-26T10:13:38.307Z</time></trkpt><trkpt lat="37.8176104" lon="13.8896515"><ele>591.75</ele><time>2026-04-26T10:13:39.307Z</time></trkpt><trkpt lat="37.8176899" lon="13.8895458"><ele>594.5</ele><time>2026-04-26T10:13:40.307Z</time></trkpt><trkpt lat="37.8177498" lon="13.889423"><ele>597.25</ele><time>2026-04-26T10:13:41.306Z</time></trkpt><trkpt lat="37.8177716" lon="13.88927"><ele>600.0</ele><time>2026-04-26T10:13:42.307Z</time></trkpt><trkpt lat="37.8177637" lon="13.8890904"><ele>600.0</ele><time>2026-04-26T10:13:43.307Z</time></trkpt><trkpt lat="37.8177381" lon="13.8888844"><ele>600.0</ele><time>2026-04-26T10:13:44.307Z</time></trkpt><trkpt lat="37.8177052" lon="13.8886581"><ele>600.0</ele><time>2026-04-26T10:13:45.307Z</time></trkpt><trkpt lat="37.8176762" lon="13.8884091"><ele>590.3333333333334</ele><time>2026-04-26T10:13:46.306Z</time></trkpt><trkpt lat="37.8176477" lon="13.8881474"><ele>580.6666666666667</ele><time>2026-04-26T10:13:47.307Z</time></trkpt><trkpt lat="37.8176181" lon="13.8878844"><ele>571.0</ele><time>2026-04-26T10:13:48.307Z</time></trkpt><trkpt lat="37.8175854" lon="13.8876312"><ele>569.0</ele><time>2026-04-26T10:13:49.307Z</time></trkpt><trkpt lat="37.8175528" lon="13.8873896"><ele>567.0</ele><time>2026-04-26T10:13:50.307Z</time></trkpt><trkpt lat="37.817525" lon="13.8871748"><ele>565.0</ele><time>2026-04-26T10:13:51.307Z</time></trkpt><trkpt lat="37.8175201" lon="13.8869925"><ele>565.0</ele><time>2026-04-26T10:13:52.307Z</time></trkpt><trkpt lat="37.8175498" lon="13.8868441"><ele>565.0</ele><time>2026-04-26T10:13:53.307Z</time></trkpt><trkpt lat="37.8176213" lon="13.886723"><ele>565.0</ele><time>2026-04-26T10:13:54.307Z</time></trkpt><trkpt lat="37.8177448" lon="13.886639"><ele>565.0</ele><time>2026-04-26T10:13:55.307Z</time></trkpt><trkpt lat="37.8179063" lon="13.8865778"><ele>565.3333333333334</ele><time>2026-04-26T10:13:56.306Z</time></trkpt><trkpt lat="37.8180885" lon="13.8865176"><ele>565.6666666666666</ele><time>2026-04-26T10:13:57.307Z</time></trkpt><trkpt lat="37.8183067" lon="13.8864349"><ele>566.0</ele><time>2026-04-26T10:13:58.307Z</time></trkpt><trkpt lat="37.8185331" lon="13.8863513"><ele>566.0</ele><time>2026-04-26T10:13:59.307Z</time></trkpt><trkpt lat="37.8187601" lon="13.8862673"><ele>566.0</ele><time>2026-04-26T10:14:00.307Z</time></trkpt><trkpt lat="37.8189714" lon="13.8861929"><ele>566.0</ele><time>2026-04-26T10:14:01.307Z</time></trkpt><trkpt lat="37.8191759" lon="13.8861328"><ele>566.0</ele><time>2026-04-26T10:14:02.307Z</time></trkpt><trkpt lat="37.8193809" lon="13.8860867"><ele>566.0</ele><time>2026-04-26T10:14:03.307Z</time></trkpt><trkpt lat="37.8195821" lon="13.8860666"><ele>565.0</ele><time>2026-04-26T10:14:04.307Z</time></trkpt><trkpt lat="37.819777" lon="13.8860639"><ele>564.0</ele><time>2026-04-26T10:14:05.307Z</time></trkpt><trkpt lat="37.8199643" lon="13.8860712"><ele>563.0</ele><time>2026-04-26T10:14:06.307Z</time></trkpt><trkpt lat="37.8201445" lon="13.8860676"><ele>565.6666666666666</ele><time>2026-04-26T10:14:07.307Z</time></trkpt><trkpt lat="37.8203139" lon="13.8860351"><ele>568.3333333333334</ele><time>2026-04-26T10:14:08.307Z</time></trkpt><trkpt lat="37.820471" lon="13.8859408"><ele>571.0</ele><time>2026-04-26T10:14:09.307Z</time></trkpt><trkpt lat="37.8206215" lon="13.8858278"><ele>564.6666666666667</ele><time>2026-04-26T10:14:10.307Z</time></trkpt><trkpt lat="37.8207623" lon="13.8857196"><ele>558.3333333333334</ele><time>2026-04-26T10:14:11.307Z</time></trkpt><trkpt lat="37.8208997" lon="13.8856331"><ele>552.0</ele><time>2026-04-26T10:14:12.307Z</time></trkpt><trkpt lat="37.8210497" lon="13.8855978"><ele>552.0</ele><time>2026-04-26T10:14:13.307Z</time></trkpt><trkpt lat="37.8212141" lon="13.8855942"><ele>552.0</ele><time>2026-04-26T10:14:14.307Z</time></trkpt><trkpt lat="37.8213834" lon="13.8855879"><ele>552.0</ele><time>2026-04-26T10:14:15.307Z</time></trkpt><trkpt lat="37.8215662" lon="13.8855546"><ele>552.0</ele><time>2026-04-26T10:14:16.307Z</time></trkpt><trkpt lat="37.8217366" lon="13.8854789"><ele>552.0</ele><time>2026-04-26T10:14:17.307Z</time></trkpt><trkpt lat="37.8219059" lon="13.8853892"><ele>552.0</ele><time>2026-04-26T10:14:18.307Z</time></trkpt><trkpt lat="37.8220666" lon="13.8852984"><ele>553.0</ele><time>2026-04-26T10:14:19.307Z</time></trkpt><trkpt lat="37.8222341" lon="13.8852352"><ele>554.0</ele><time>2026-04-26T10:14:20.307Z</time></trkpt><trkpt lat="37.8224119" lon="13.8852018"><ele>555.0</ele><time>2026-04-26T10:14:21.307Z</time></trkpt><trkpt lat="37.8225879" lon="13.8851713"><ele>554.0</ele><time>2026-04-26T10:14:22.307Z</time></trkpt><trkpt lat="37.8227575" lon="13.8851192"><ele>553.0</ele><time>2026-04-26T10:14:23.307Z</time></trkpt><trkpt lat="37.8229093" lon="13.8850181"><ele>552.0</ele><time>2026-04-26T10:14:24.307Z</time></trkpt><trkpt lat="37.8230403" lon="13.8848844"><ele>548.0</ele><time>2026-04-26T10:14:25.307Z</time></trkpt><trkpt lat="37.823155" lon="13.8847488"><ele>544.0</ele><time>2026-04-26T10:14:26.307Z</time></trkpt><trkpt lat="37.8232642" lon="13.8846721"><ele>540.0</ele><time>2026-04-26T10:14:27.307Z</time></trkpt><trkpt lat="37.8233838" lon="13.8846498"><ele>536.0</ele><time>2026-04-26T10:14:28.307Z</time></trkpt><trkpt lat="37.82351" lon="13.8846908"><ele>532.6666666666666</ele><time>2026-04-26T10:14:29.307Z</time></trkpt><trkpt lat="37.8236356" lon="13.8847809"><ele>529.3333333333334</ele><time>2026-04-26T10:14:30.307Z</time></trkpt><trkpt lat="37.8237645" lon="13.884915"><ele>526.0</ele><time>2026-04-26T10:14:31.307Z</time></trkpt><trkpt lat="37.8239019" lon="13.8850543"><ele>532.3333333333334</ele><time>2026-04-26T10:14:32.306Z</time></trkpt><trkpt lat="37.8240419" lon="13.8851887"><ele>538.6666666666666</ele><time>2026-04-26T10:14:33.307Z</time></trkpt><trkpt lat="37.824172" lon="13.8853025"><ele>545.0</ele><time>2026-04-26T10:14:34.307Z</time></trkpt><trkpt lat="37.8242909" lon="13.8853878"><ele>546.2</ele><time>2026-04-26T10:14:35.307Z</time></trkpt><trkpt lat="37.8243877" lon="13.8854185"><ele>547.4</ele><time>2026-04-26T10:14:36.307Z</time></trkpt><trkpt lat="37.8244557" lon="13.8853663"><ele>548.6</ele><time>2026-04-26T10:14:37.307Z</time></trkpt><trkpt lat="37.8245005" lon="13.8852618"><ele>549.8</ele><time>2026-04-26T10:14:38.306Z</time></trkpt><trkpt lat="37.8244825" lon="13.8851381"><ele>551.0</ele><time>2026-04-26T10:14:39.306Z</time></trkpt><trkpt lat="37.8244069" lon="13.88502"><ele>544.75</ele><time>2026-04-26T10:14:40.307Z</time></trkpt><trkpt lat="37.8242911" lon="13.8849221"><ele>538.5</ele><time>2026-04-26T10:14:41.307Z</time></trkpt><trkpt lat="37.8241773" lon="13.8848137"><ele>532.25</ele><time>2026-04-26T10:14:42.307Z</time></trkpt><trkpt lat="37.8240584" lon="13.8846928"><ele>526.0</ele><time>2026-04-26T10:14:43.307Z</time></trkpt><trkpt lat="37.8239327" lon="13.8845657"><ele>526.0</ele><time>2026-04-26T10:14:44.307Z</time></trkpt><trkpt lat="37.8237943" lon="13.8844284"><ele>526.0</ele><time>2026-04-26T10:14:45.307Z</time></trkpt><trkpt lat="37.8236459" lon="13.8843011"><ele>526.0</ele><time>2026-04-26T10:14:46.307Z</time></trkpt><trkpt lat="37.8234861" lon="13.884184"><ele>523.3333333333334</ele><time>2026-04-26T10:14:47.307Z</time></trkpt><trkpt lat="37.8233127" lon="13.884085"><ele>520.6666666666666</ele><time>2026-04-26T10:14:48.307Z</time></trkpt><trkpt lat="37.8231443" lon="13.8840028"><ele>518.0</ele><time>2026-04-26T10:14:49.307Z</time></trkpt><trkpt lat="37.822973" lon="13.8839463"><ele>518.0</ele><time>2026-04-26T10:14:50.307Z</time></trkpt><trkpt lat="37.8227978" lon="13.8839446"><ele>518.0</ele><time>2026-04-26T10:14:51.307Z</time></trkpt><trkpt lat="37.8226258" lon="13.8839558"><ele>518.0</ele><time>2026-04-26T10:14:52.306Z</time></trkpt><trkpt lat="37.8224597" lon="13.8839612"><ele>517.6666666666666</ele><time>2026-04-26T10:14:53.307Z</time></trkpt><trkpt lat="37.8222885" lon="13.8839469"><ele>517.3333333333334</ele><time>2026-04-26T10:14:54.307Z</time></trkpt><trkpt lat="37.8221212" lon="13.8839129"><ele>517.0</ele><time>2026-04-26T10:14:55.306Z</time></trkpt><trkpt lat="37.8219564" lon="13.8838432"><ele>516.3333333333334</ele><time>2026-04-26T10:14:56.307Z</time></trkpt><trkpt lat="37.8218035" lon="13.8837488"><ele>515.6666666666666</ele><time>2026-04-26T10:14:57.307Z</time></trkpt><trkpt lat="37.8216703" lon="13.8836394"><ele>515.0</ele><time>2026-04-26T10:14:58.307Z</time></trkpt><trkpt lat="37.8215628" lon="13.8835199"><ele>511.0</ele><time>2026-04-26T10:14:59.307Z</time></trkpt><trkpt lat="37.821447" lon="13.8834226"><ele>507.0</ele><time>2026-04-26T10:15:00.306Z</time></trkpt><trkpt lat="37.8213042" lon="13.8833479"><ele>503.0</ele><time>2026-04-26T10:15:01.306Z</time></trkpt><trkpt lat="37.8211307" lon="13.8832985"><ele>503.0</ele><time>2026-04-26T10:15:02.307Z</time></trkpt><trkpt lat="37.8209457" lon="13.8832312"><ele>503.0</ele><time>2026-04-26T10:15:03.307Z</time></trkpt><trkpt lat="37.820771" lon="13.883148"><ele>503.0</ele><time>2026-04-26T10:15:04.306Z</time></trkpt><trkpt lat="37.8206085" lon="13.8830569"><ele>503.0</ele><time>2026-04-26T10:15:05.306Z</time></trkpt><trkpt lat="37.8204636" lon="13.882986"><ele>503.0</ele><time>2026-04-26T10:15:06.307Z</time></trkpt><trkpt lat="37.8203396" lon="13.8829408"><ele>503.0</ele><time>2026-04-26T10:15:07.306Z</time></trkpt><trkpt lat="37.8202371" lon="13.8828881"><ele>503.0</ele><time>2026-04-26T10:15:08.306Z</time></trkpt><trkpt lat="37.8201645" lon="13.8828176"><ele>503.2</ele><time>2026-04-26T10:15:09.307Z</time></trkpt><trkpt lat="37.8201132" lon="13.8827191"><ele>503.4</ele><time>2026-04-26T10:15:10.307Z</time></trkpt><trkpt lat="37.8200785" lon="13.8825983"><ele>503.59999999999997</ele><time>2026-04-26T10:15:11.307Z</time></trkpt><trkpt lat="37.8200495" lon="13.8824783"><ele>503.79999999999995</ele><time>2026-04-26T10:15:12.306Z</time></trkpt><trkpt lat="37.8200402" lon="13.8823675"><ele>504.0</ele><time>2026-04-26T10:15:13.307Z</time></trkpt><trkpt lat="37.8200654" lon="13.8822691"><ele>502.79999999999995</ele><time>2026-04-26T10:15:14.307Z</time></trkpt><trkpt lat="37.8201228" lon="13.8821884"><ele>501.59999999999997</ele><time>2026-04-26T10:15:15.307Z</time></trkpt><trkpt lat="37.8202047" lon="13.8821335"><ele>500.4</ele><time>2026-04-26T10:15:16.306Z</time></trkpt><trkpt lat="37.8203268" lon="13.8820966"><ele>499.2</ele><time>2026-04-26T10:15:17.307Z</time></trkpt><trkpt lat="37.8204712" lon="13.8820747"><ele>498.0</ele><time>2026-04-26T10:15:18.307Z</time></trkpt><trkpt lat="37.8206309" lon="13.8820379"><ele>496.0</ele><time>2026-04-26T10:15:19.307Z</time></trkpt><trkpt lat="37.820802" lon="13.8819913"><ele>494.0</ele><time>2026-04-26T10:15:20.307Z</time></trkpt><trkpt lat="37.8209711" lon="13.8819304"><ele>492.0</ele><time>2026-04-26T10:15:21.307Z</time></trkpt><trkpt lat="37.8211425" lon="13.8818443"><ele>488.66666666666663</ele><time>2026-04-26T10:15:22.307Z</time></trkpt><trkpt lat="37.8213109" lon="13.8817176"><ele>485.3333333333333</ele><time>2026-04-26T10:15:23.307Z</time></trkpt><trkpt lat="37.8214747" lon="13.8815604"><ele>482.0</ele><time>2026-04-26T10:15:24.307Z</time></trkpt><trkpt lat="37.8216195" lon="13.8813963"><ele>482.0</ele><time>2026-04-26T10:15:25.307Z</time></trkpt><trkpt lat="37.8217478" lon="13.8812212"><ele>482.0</ele><time>2026-04-26T10:15:26.307Z</time></trkpt><trkpt lat="37.8218655" lon="13.8810802"><ele>482.0</ele><time>2026-04-26T10:15:27.306Z</time></trkpt><trkpt lat="37.8219857" lon="13.8809842"><ele>481.66666666666663</ele><time>2026-04-26T10:15:28.307Z</time></trkpt><trkpt lat="37.8221335" lon="13.8809241"><ele>481.33333333333337</ele><time>2026-04-26T10:15:29.307Z</time></trkpt><trkpt lat="37.8223057" lon="13.8808668"><ele>481.0</ele><time>2026-04-26T10:15:30.307Z</time></trkpt><trkpt lat="37.8224879" lon="13.8808242"><ele>476.6666666666667</ele><time>2026-04-26T10:15:31.307Z</time></trkpt><trkpt lat="37.8226673" lon="13.8807818"><ele>472.33333333333337</ele><time>2026-04-26T10:15:32.307Z</time></trkpt><trkpt lat="37.8228372" lon="13.8807353"><ele>468.0</ele><time>2026-04-26T10:15:33.307Z</time></trkpt><trkpt lat="37.8230131" lon="13.8806817"><ele>468.0</ele><time>2026-04-26T10:15:34.307Z</time></trkpt><trkpt lat="37.823192" lon="13.8806079"><ele>468.0</ele><time>2026-04-26T10:15:35.306Z</time></trkpt><trkpt lat="37.8233597" lon="13.880509"><ele>468.0</ele><time>2026-04-26T10:15:36.307Z</time></trkpt><trkpt lat="37.8235125" lon="13.8803761"><ele>469.0</ele><time>2026-04-26T10:15:37.307Z</time></trkpt><trkpt lat="37.8236608" lon="13.8802244"><ele>470.0</ele><time>2026-04-26T10:15:38.307Z</time></trkpt><trkpt lat="37.823818" lon="13.8800855"><ele>471.0</ele><time>2026-04-26T10:15:39.307Z</time></trkpt><trkpt lat="37.8239831" lon="13.8799617"><ele>471.0</ele><time>2026-04-26T10:15:40.307Z</time></trkpt><trkpt lat="37.8241485" lon="13.8798595"><ele>471.0</ele><time>2026-04-26T10:15:41.307Z</time></trkpt><trkpt lat="37.8243062" lon="13.8797619"><ele>471.0</ele><time>2026-04-26T10:15:42.307Z</time></trkpt><trkpt lat="37.8244666" lon="13.8796805"><ele>467.0</ele><time>2026-04-26T10:15:43.307Z</time></trkpt><trkpt lat="37.8246291" lon="13.8796241"><ele>463.0</ele><time>2026-04-26T10:15:44.307Z</time></trkpt><trkpt lat="37.824783" lon="13.8795866"><ele>459.0</ele><time>2026-04-26T10:15:45.307Z</time></trkpt><trkpt lat="37.824926" lon="13.8795422"><ele>459.0</ele><time>2026-04-26T10:15:46.307Z</time></trkpt><trkpt lat="37.8250359" lon="13.879463"><ele>459.0</ele><time>2026-04-26T10:15:47.307Z</time></trkpt><trkpt lat="37.8251269" lon="13.8793889"><ele>459.0</ele><time>2026-04-26T10:15:48.307Z</time></trkpt><trkpt lat="37.8252031" lon="13.8793733"><ele>459.0</ele><time>2026-04-26T10:15:49.307Z</time></trkpt><trkpt lat="37.8252616" lon="13.8794034"><ele>459.0</ele><time>2026-04-26T10:15:50.307Z</time></trkpt><trkpt lat="37.8252901" lon="13.8794884"><ele>459.0</ele><time>2026-04-26T10:15:51.307Z</time></trkpt><trkpt lat="37.8252727" lon="13.8795865"><ele>459.0</ele><time>2026-04-26T10:15:52.307Z</time></trkpt><trkpt lat="37.8252115" lon="13.8796655"><ele>459.0</ele><time>2026-04-26T10:15:53.307Z</time></trkpt><trkpt lat="37.8251106" lon="13.8797398"><ele>459.0</ele><time>2026-04-26T10:15:54.307Z</time></trkpt><trkpt lat="37.8249907" lon="13.8798242"><ele>459.0</ele><time>2026-04-26T10:15:55.307Z</time></trkpt><trkpt lat="37.8248592" lon="13.8799353"><ele>459.0</ele><time>2026-04-26T10:15:56.307Z</time></trkpt><trkpt lat="37.8247145" lon="13.8800836"><ele>459.0</ele><time>2026-04-26T10:15:57.307Z</time></trkpt><trkpt lat="37.8245686" lon="13.8802371"><ele>459.0</ele><time>2026-04-26T10:15:58.307Z</time></trkpt><trkpt lat="37.8244323" lon="13.8803793"><ele>458.0</ele><time>2026-04-26T10:15:59.307Z</time></trkpt><trkpt lat="37.824304" lon="13.8804898"><ele>457.0</ele><time>2026-04-26T10:16:00.307Z</time></trkpt><trkpt lat="37.8241813" lon="13.8805564"><ele>456.0</ele><time>2026-04-26T10:16:01.307Z</time></trkpt><trkpt lat="37.8240705" lon="13.8805989"><ele>455.0</ele><time>2026-04-26T10:16:02.306Z</time></trkpt><trkpt lat="37.823981" lon="13.8806586"><ele>454.99999999999994</ele><time>2026-04-26T10:16:03.307Z</time></trkpt><trkpt lat="37.8239411" lon="13.8807548"><ele>455.0</ele><time>2026-04-26T10:16:04.307Z</time></trkpt><trkpt lat="37.8239561" lon="13.8808515"><ele>455.0</ele><time>2026-04-26T10:16:05.307Z</time></trkpt><trkpt lat="37.8240251" lon="13.8809164"><ele>455.0</ele><time>2026-04-26T10:16:06.307Z</time></trkpt><trkpt lat="37.8241104" lon="13.880924"><ele>454.99999999999994</ele><time>2026-04-26T10:16:07.307Z</time></trkpt><trkpt lat="37.8242042" lon="13.8809077"><ele>455.0</ele><time>2026-04-26T10:16:08.306Z</time></trkpt><trkpt lat="37.8242998" lon="13.8808376"><ele>451.75</ele><time>2026-04-26T10:16:09.306Z</time></trkpt><trkpt lat="37.8244094" lon="13.8807347"><ele>448.5</ele><time>2026-04-26T10:16:10.306Z</time></trkpt><trkpt lat="37.8245241" lon="13.8806329"><ele>445.25</ele><time>2026-04-26T10:16:11.307Z</time></trkpt><trkpt lat="37.8246457" lon="13.8805209"><ele>442.0</ele><time>2026-04-26T10:16:12.307Z</time></trkpt><trkpt lat="37.8247789" lon="13.8804098"><ele>442.0</ele><time>2026-04-26T10:16:13.306Z</time></trkpt><trkpt lat="37.8249113" lon="13.8803196"><ele>442.0</ele><time>2026-04-26T10:16:14.307Z</time></trkpt><trkpt lat="37.8250444" lon="13.8802706"><ele>442.0</ele><time>2026-04-26T10:16:15.307Z</time></trkpt><trkpt lat="37.8251835" lon="13.8802348"><ele>442.0</ele><time>2026-04-26T10:16:16.307Z</time></trkpt><trkpt lat="37.8253258" lon="13.8802043"><ele>443.33333333333337</ele><time>2026-04-26T10:16:17.307Z</time></trkpt><trkpt lat="37.825479" lon="13.8801512"><ele>444.66666666666663</ele><time>2026-04-26T10:16:18.307Z</time></trkpt><trkpt lat="37.825647" lon="13.8800737"><ele>446.0</ele><time>2026-04-26T10:16:19.307Z</time></trkpt><trkpt lat="37.8258219" lon="13.879989"><ele>443.3333333333333</ele><time>2026-04-26T10:16:20.307Z</time></trkpt><trkpt lat="37.8260087" lon="13.8799047"><ele>440.66666666666663</ele><time>2026-04-26T10:16:21.307Z</time></trkpt><trkpt lat="37.8261907" lon="13.8798146"><ele>438.0</ele><time>2026-04-26T10:16:22.306Z</time></trkpt><trkpt lat="37.8263625" lon="13.8797357"><ele>438.0</ele><time>2026-04-26T10:16:23.307Z</time></trkpt><trkpt lat="37.8265086" lon="13.8796619"><ele>438.0</ele><time>2026-04-26T10:16:24.307Z</time></trkpt><trkpt lat="37.8266316" lon="13.8795778"><ele>438.0</ele><time>2026-04-26T10:16:25.307Z</time></trkpt><trkpt lat="37.8267058" lon="13.8794664"><ele>438.0</ele><time>2026-04-26T10:16:26.307Z</time></trkpt><trkpt lat="37.8267504" lon="13.8793293"><ele>439.25</ele><time>2026-04-26T10:16:27.307Z</time></trkpt><trkpt lat="37.8267552" lon="13.8791682"><ele>440.5</ele><time>2026-04-26T10:16:28.307Z</time></trkpt><trkpt lat="37.8267293" lon="13.8789955"><ele>441.75</ele><time>2026-04-26T10:16:29.307Z</time></trkpt><trkpt lat="37.8266884" lon="13.8788243"><ele>443.0</ele><time>2026-04-26T10:16:30.307Z</time></trkpt><trkpt lat="37.8266433" lon="13.8786509"><ele>443.0</ele><time>2026-04-26T10:16:31.307Z</time></trkpt><trkpt lat="37.8266026" lon="13.8784831"><ele>443.0</ele><time>2026-04-26T10:16:32.306Z</time></trkpt><trkpt lat="37.8265727" lon="13.8783222"><ele>443.0</ele><time>2026-04-26T10:16:33.307Z</time></trkpt><trkpt lat="37.826568" lon="13.8781668"><ele>443.0</ele><time>2026-04-26T10:16:34.307Z</time></trkpt><trkpt lat="37.8266063" lon="13.8780243"><ele>443.0</ele><time>2026-04-26T10:16:35.307Z</time></trkpt><trkpt lat="37.8266634" lon="13.877892"><ele>443.0</ele><time>2026-04-26T10:16:36.307Z</time></trkpt><trkpt lat="37.8267474" lon="13.8777908"><ele>443.0</ele><time>2026-04-26T10:16:37.307Z</time></trkpt><trkpt lat="37.8268561" lon="13.8777292"><ele>443.0</ele><time>2026-04-26T10:16:38.307Z</time></trkpt><trkpt lat="37.8269713" lon="13.8776904"><ele>438.5</ele><time>2026-04-26T10:16:39.307Z</time></trkpt><trkpt lat="37.8270973" lon="13.8776417"><ele>434.0</ele><time>2026-04-26T10:16:40.307Z</time></trkpt><trkpt lat="37.8272124" lon="13.8775486"><ele>429.5</ele><time>2026-04-26T10:16:41.307Z</time></trkpt><trkpt lat="37.8273126" lon="13.8774189"><ele>425.0</ele><time>2026-04-26T10:16:42.307Z</time></trkpt><trkpt lat="37.8274017" lon="13.8772794"><ele>425.0</ele><time>2026-04-26T10:16:43.307Z</time></trkpt><trkpt lat="37.8274667" lon="13.8771337"><ele>425.0</ele><time>2026-04-26T10:16:44.307Z</time></trkpt><trkpt lat="37.8274939" lon="13.8769859"><ele>425.0</ele><time>2026-04-26T10:16:45.307Z</time></trkpt><trkpt lat="37.8274736" lon="13.8768304"><ele>425.0</ele><time>2026-04-26T10:16:46.307Z</time></trkpt><trkpt lat="37.8274431" lon="13.8766533"><ele>425.75</ele><time>2026-04-26T10:16:47.307Z</time></trkpt><trkpt lat="37.8274076" lon="13.876473"><ele>426.5</ele><time>2026-04-26T10:16:48.306Z</time></trkpt><trkpt lat="37.8273846" lon="13.876294"><ele>427.25</ele><time>2026-04-26T10:16:49.307Z</time></trkpt><trkpt lat="37.8273787" lon="13.8761115"><ele>428.0</ele><time>2026-04-26T10:16:50.307Z</time></trkpt><trkpt lat="37.8273913" lon="13.8759269"><ele>428.0</ele><time>2026-04-26T10:16:51.307Z</time></trkpt><trkpt lat="37.8274323" lon="13.8757376"><ele>428.0</ele><time>2026-04-26T10:16:52.307Z</time></trkpt><trkpt lat="37.8275055" lon="13.8755506"><ele>428.0</ele><time>2026-04-26T10:16:53.307Z</time></trkpt><trkpt lat="37.8276126" lon="13.8753754"><ele>421.66666666666663</ele><time>2026-04-26T10:16:54.307Z</time></trkpt><trkpt lat="37.8277419" lon="13.8752232"><ele>415.33333333333337</ele><time>2026-04-26T10:16:55.307Z</time></trkpt><trkpt lat="37.8278644" lon="13.8750794"><ele>409.0</ele><time>2026-04-26T10:16:56.307Z</time></trkpt><trkpt lat="37.8279738" lon="13.8749371"><ele>409.0</ele><time>2026-04-26T10:16:57.307Z</time></trkpt><trkpt lat="37.8280572" lon="13.874781"><ele>409.0</ele><time>2026-04-26T10:16:58.307Z</time></trkpt><trkpt lat="37.8281124" lon="13.8746072"><ele>409.0</ele><time>2026-04-26T10:16:59.307Z</time></trkpt><trkpt lat="37.828145" lon="13.8744068"><ele>410.6666666666667</ele><time>2026-04-26T10:17:00.307Z</time></trkpt><trkpt lat="37.8281572" lon="13.8741816"><ele>412.33333333333337</ele><time>2026-04-26T10:17:01.307Z</time></trkpt><trkpt lat="37.8281618" lon="13.8739613"><ele>414.0</ele><time>2026-04-26T10:17:02.307Z</time></trkpt><trkpt lat="37.8281743" lon="13.8737569"><ele>414.0</ele><time>2026-04-26T10:17:03.307Z</time></trkpt><trkpt lat="37.8282198" lon="13.8735573"><ele>414.0</ele><time>2026-04-26T10:17:04.307Z</time></trkpt><trkpt lat="37.8282859" lon="13.8733839"><ele>414.0</ele><time>2026-04-26T10:17:05.307Z</time></trkpt><trkpt lat="37.8283604" lon="13.873252"><ele>414.0</ele><time>2026-04-26T10:17:06.307Z</time></trkpt><trkpt lat="37.8284412" lon="13.8731732"><ele>410.5</ele><time>2026-04-26T10:17:07.307Z</time></trkpt><trkpt lat="37.8285374" lon="13.8731336"><ele>407.0</ele><time>2026-04-26T10:17:08.307Z</time></trkpt><trkpt lat="37.8286537" lon="13.8731408"><ele>403.5</ele><time>2026-04-26T10:17:09.307Z</time></trkpt><trkpt lat="37.8287707" lon="13.8731166"><ele>400.0</ele><time>2026-04-26T10:17:10.307Z</time></trkpt><trkpt lat="37.8288901" lon="13.8730484"><ele>400.0</ele><time>2026-04-26T10:17:11.307Z</time></trkpt><trkpt lat="37.8289823" lon="13.8729399"><ele>400.0</ele><time>2026-04-26T10:17:12.307Z</time></trkpt><trkpt lat="37.8290632" lon="13.872811"><ele>400.0</ele><time>2026-04-26T10:17:13.307Z</time></trkpt><trkpt lat="37.8291372" lon="13.872677"><ele>400.0</ele><time>2026-04-26T10:17:14.306Z</time></trkpt><trkpt lat="37.829224" lon="13.8725662"><ele>400.5</ele><time>2026-04-26T10:17:15.306Z</time></trkpt><trkpt lat="37.8293254" lon="13.8724937"><ele>401.0</ele><time>2026-04-26T10:17:16.307Z</time></trkpt><trkpt lat="37.8294423" lon="13.8724722"><ele>401.5</ele><time>2026-04-26T10:17:17.307Z</time></trkpt><trkpt lat="37.8295801" lon="13.8724751"><ele>402.0</ele><time>2026-04-26T10:17:18.307Z</time></trkpt><trkpt lat="37.8297248" lon="13.8724939"><ele>402.0</ele><time>2026-04-26T10:17:19.307Z</time></trkpt><trkpt lat="37.8298759" lon="13.8725134"><ele>402.0</ele><time>2026-04-26T10:17:20.307Z</time></trkpt><trkpt lat="37.8300326" lon="13.8725111"><ele>402.0</ele><time>2026-04-26T10:17:21.307Z</time></trkpt><trkpt lat="37.8301914" lon="13.8724872"><ele>399.33333333333337</ele><time>2026-04-26T10:17:22.307Z</time></trkpt><trkpt lat="37.8303569" lon="13.8724389"><ele>396.6666666666667</ele><time>2026-04-26T10:17:23.307Z</time></trkpt><trkpt lat="37.8305079" lon="13.8723842"><ele>394.0</ele><time>2026-04-26T10:17:24.307Z</time></trkpt><trkpt lat="37.830656" lon="13.8723449"><ele>394.0</ele><time>2026-04-26T10:17:25.307Z</time></trkpt><trkpt lat="37.8308019" lon="13.872336"><ele>394.0</ele><time>2026-04-26T10:17:26.307Z</time></trkpt><trkpt lat="37.8309485" lon="13.8723569"><ele>394.0</ele><time>2026-04-26T10:17:27.307Z</time></trkpt><trkpt lat="37.8310896" lon="13.872393"><ele>394.0</ele><time>2026-04-26T10:17:28.307Z</time></trkpt><trkpt lat="37.8312266" lon="13.8724269"><ele>391.25</ele><time>2026-04-26T10:17:29.307Z</time></trkpt><trkpt lat="37.8313595" lon="13.872425"><ele>388.5</ele><time>2026-04-26T10:17:30.307Z</time></trkpt><trkpt lat="37.8314714" lon="13.8723814"><ele>385.75</ele><time>2026-04-26T10:17:31.307Z</time></trkpt><trkpt lat="37.8315703" lon="13.8722956"><ele>383.0</ele><time>2026-04-26T10:17:32.307Z</time></trkpt><trkpt lat="37.8316411" lon="13.8721705"><ele>383.0</ele><time>2026-04-26T10:17:33.307Z</time></trkpt><trkpt lat="37.8317012" lon="13.8720138"><ele>383.0</ele><time>2026-04-26T10:17:34.307Z</time></trkpt><trkpt lat="37.8317566" lon="13.8718346"><ele>383.0</ele><time>2026-04-26T10:17:35.307Z</time></trkpt><trkpt lat="37.8318162" lon="13.8716413"><ele>378.0</ele><time>2026-04-26T10:17:36.307Z</time></trkpt><trkpt lat="37.8318834" lon="13.8714577"><ele>373.0</ele><time>2026-04-26T10:17:37.307Z</time></trkpt><trkpt lat="37.8319496" lon="13.8712942"><ele>368.0</ele><time>2026-04-26T10:17:38.307Z</time></trkpt><trkpt lat="37.8320173" lon="13.8711363"><ele>363.0</ele><time>2026-04-26T10:17:39.306Z</time></trkpt><trkpt lat="37.8320985" lon="13.8710089"><ele>367.75</ele><time>2026-04-26T10:17:40.307Z</time></trkpt><trkpt lat="37.8321885" lon="13.8709241"><ele>372.5</ele><time>2026-04-26T10:17:41.307Z</time></trkpt><trkpt lat="37.8323045" lon="13.8708863"><ele>377.25</ele><time>2026-04-26T10:17:42.307Z</time></trkpt><trkpt lat="37.8324266" lon="13.8708822"><ele>382.0</ele><time>2026-04-26T10:17:43.306Z</time></trkpt><trkpt lat="37.8325565" lon="13.8708606"><ele>375.66666666666663</ele><time>2026-04-26T10:17:44.306Z</time></trkpt><trkpt lat="37.8326773" lon="13.8707822"><ele>369.3333333333333</ele><time>2026-04-26T10:17:45.307Z</time></trkpt><trkpt lat="37.8327909" lon="13.8706392"><ele>363.0</ele><time>2026-04-26T10:17:46.306Z</time></trkpt><trkpt lat="37.8329008" lon="13.8704729"><ele>363.0</ele><time>2026-04-26T10:17:47.307Z</time></trkpt><trkpt lat="37.8329953" lon="13.870302"><ele>363.0</ele><time>2026-04-26T10:17:48.306Z</time></trkpt><trkpt lat="37.833071" lon="13.870121"><ele>363.0</ele><time>2026-04-26T10:17:49.307Z</time></trkpt><trkpt lat="37.8331187" lon="13.8699172"><ele>365.6666666666667</ele><time>2026-04-26T10:17:50.307Z</time></trkpt><trkpt lat="37.8331439" lon="13.869702"><ele>368.33333333333337</ele><time>2026-04-26T10:17:51.307Z</time></trkpt><trkpt lat="37.8331678" lon="13.8694769"><ele>371.0</ele><time>2026-04-26T10:17:52.307Z</time></trkpt><trkpt lat="37.8332119" lon="13.8692502"><ele>372.0</ele><time>2026-04-26T10:17:53.307Z</time></trkpt><trkpt lat="37.8332777" lon="13.8690321"><ele>373.0</ele><time>2026-04-26T10:17:54.307Z</time></trkpt><trkpt lat="37.8333479" lon="13.868825"><ele>374.0</ele><time>2026-04-26T10:17:55.307Z</time></trkpt><trkpt lat="37.8334284" lon="13.8686495"><ele>370.0</ele><time>2026-04-26T10:17:56.307Z</time></trkpt><trkpt lat="37.8335002" lon="13.8684879"><ele>366.0</ele><time>2026-04-26T10:17:57.307Z</time></trkpt><trkpt lat="37.8335525" lon="13.8683334"><ele>362.0</ele><time>2026-04-26T10:17:58.307Z</time></trkpt><trkpt lat="37.8335802" lon="13.8681789"><ele>358.0</ele><time>2026-04-26T10:17:59.307Z</time></trkpt><trkpt lat="37.833579" lon="13.8680323"><ele>358.0</ele><time>2026-04-26T10:18:00.307Z</time></trkpt><trkpt lat="37.8335831" lon="13.8678961"><ele>358.0</ele><time>2026-04-26T10:18:01.306Z</time></trkpt><trkpt lat="37.8335968" lon="13.8677786"><ele>358.0</ele><time>2026-04-26T10:18:02.307Z</time></trkpt><trkpt lat="37.8336428" lon="13.8676967"><ele>358.0</ele><time>2026-04-26T10:18:03.307Z</time></trkpt><trkpt lat="37.8337175" lon="13.8676409"><ele>358.0</ele><time>2026-04-26T10:18:04.307Z</time></trkpt><trkpt lat="37.8338208" lon="13.8675839"><ele>359.25</ele><time>2026-04-26T10:18:05.307Z</time></trkpt><trkpt lat="37.8339297" lon="13.8675229"><ele>360.5</ele><time>2026-04-26T10:18:06.307Z</time></trkpt><trkpt lat="37.8340256" lon="13.867427"><ele>361.75</ele><time>2026-04-26T10:18:07.307Z</time></trkpt><trkpt lat="37.8340783" lon="13.8673225"><ele>363.0</ele><time>2026-04-26T10:18:08.307Z</time></trkpt><trkpt lat="37.8341047" lon="13.8671658"><ele>363.0</ele><time>2026-04-26T10:18:09.307Z</time></trkpt><trkpt lat="37.8341176" lon="13.8669975"><ele>363.0</ele><time>2026-04-26T10:18:10.307Z</time></trkpt><trkpt lat="37.8341363" lon="13.8668329"><ele>363.0</ele><time>2026-04-26T10:18:11.307Z</time></trkpt><trkpt lat="37.8341915" lon="13.8666733"><ele>363.0</ele><time>2026-04-26T10:18:12.307Z</time></trkpt><trkpt lat="37.8342822" lon="13.8665509"><ele>361.75</ele><time>2026-04-26T10:18:13.307Z</time></trkpt><trkpt lat="37.834385" lon="13.8664719"><ele>360.5</ele><time>2026-04-26T10:18:14.307Z</time></trkpt><trkpt lat="37.8345115" lon="13.8664477"><ele>359.25</ele><time>2026-04-26T10:18:15.307Z</time></trkpt><trkpt lat="37.8346367" lon="13.866464"><ele>358.0</ele><time>2026-04-26T10:18:16.307Z</time></trkpt><trkpt lat="37.8347597" lon="13.8664996"><ele>358.0</ele><time>2026-04-26T10:18:17.307Z</time></trkpt><trkpt lat="37.8348686" lon="13.8665396"><ele>358.0</ele><time>2026-04-26T10:18:18.307Z</time></trkpt><trkpt lat="37.8349645" lon="13.8665446"><ele>358.0</ele><time>2026-04-26T10:18:19.307Z</time></trkpt><trkpt lat="37.8350494" lon="13.8664885"><ele>358.0</ele><time>2026-04-26T10:18:20.307Z</time></trkpt><trkpt lat="37.8351353" lon="13.866406"><ele>358.0</ele><time>2026-04-26T10:18:21.306Z</time></trkpt><trkpt lat="37.8352307" lon="13.8662815"><ele>355.25</ele><time>2026-04-26T10:18:22.307Z</time></trkpt><trkpt lat="37.8353404" lon="13.8661731"><ele>352.5</ele><time>2026-04-26T10:18:23.306Z</time></trkpt><trkpt lat="37.835463" lon="13.8661107"><ele>349.75</ele><time>2026-04-26T10:18:24.307Z</time></trkpt><trkpt lat="37.8355882" lon="13.8660888"><ele>347.0</ele><time>2026-04-26T10:18:25.306Z</time></trkpt><trkpt lat="37.8357157" lon="13.8660833"><ele>347.0</ele><time>2026-04-26T10:18:26.307Z</time></trkpt><trkpt lat="37.835839" lon="13.866059"><ele>347.0</ele><time>2026-04-26T10:18:27.307Z</time></trkpt><trkpt lat="37.8359645" lon="13.866008"><ele>347.0</ele><time>2026-04-26T10:18:28.307Z</time></trkpt><trkpt lat="37.8360852" lon="13.8659377"><ele>347.0</ele><time>2026-04-26T10:18:29.307Z</time></trkpt><trkpt lat="37.8361957" lon="13.8658664"><ele>346.20000000000005</ele><time>2026-04-26T10:18:30.307Z</time></trkpt><trkpt lat="37.8362877" lon="13.8657955"><ele>345.4</ele><time>2026-04-26T10:18:31.307Z</time></trkpt><trkpt lat="37.836349" lon="13.8657072"><ele>344.6</ele><time>2026-04-26T10:18:32.307Z</time></trkpt><trkpt lat="37.8363885" lon="13.8655971"><ele>343.79999999999995</ele><time>2026-04-26T10:18:33.307Z</time></trkpt><trkpt lat="37.8363814" lon="13.8654715"><ele>343.0</ele><time>2026-04-26T10:18:34.307Z</time></trkpt><trkpt lat="37.8363449" lon="13.8653326"><ele>343.0</ele><time>2026-04-26T10:18:35.307Z</time></trkpt><trkpt lat="37.8362978" lon="13.8651762"><ele>343.0</ele><time>2026-04-26T10:18:36.307Z</time></trkpt><trkpt lat="37.8362611" lon="13.865018"><ele>343.0</ele><time>2026-04-26T10:18:37.307Z</time></trkpt><trkpt lat="37.8362521" lon="13.864852"><ele>343.0</ele><time>2026-04-26T10:18:38.307Z</time></trkpt><trkpt lat="37.8362655" lon="13.8646778"><ele>342.25</ele><time>2026-04-26T10:18:39.307Z</time></trkpt><trkpt lat="37.8363017" lon="13.8644918"><ele>341.5</ele><time>2026-04-26T10:18:40.307Z</time></trkpt><trkpt lat="37.8363496" lon="13.8643133"><ele>340.75</ele><time>2026-04-26T10:18:41.307Z</time></trkpt><trkpt lat="37.8363973" lon="13.8641396"><ele>340.0</ele><time>2026-04-26T10:18:42.307Z</time></trkpt><trkpt lat="37.8364368" lon="13.8639741"><ele>340.0</ele><time>2026-04-26T10:18:43.307Z</time></trkpt><trkpt lat="37.8364723" lon="13.8638232"><ele>340.0</ele><time>2026-04-26T10:18:44.307Z</time></trkpt><trkpt lat="37.8364981" lon="13.8636896"><ele>340.0</ele><time>2026-04-26T10:18:45.307Z</time></trkpt><trkpt lat="37.8365035" lon="13.8635544"><ele>340.0</ele><time>2026-04-26T10:18:46.307Z</time></trkpt><trkpt lat="37.8364846" lon="13.8634088"><ele>338.75</ele><time>2026-04-26T10:18:47.307Z</time></trkpt><trkpt lat="37.8364433" lon="13.8632703"><ele>337.5</ele><time>2026-04-26T10:18:48.307Z</time></trkpt><trkpt lat="37.8363727" lon="13.8631625"><ele>336.25</ele><time>2026-04-26T10:18:49.307Z</time></trkpt><trkpt lat="37.8362696" lon="13.8630914"><ele>335.0</ele><time>2026-04-26T10:18:50.307Z</time></trkpt><trkpt lat="37.8361359" lon="13.8630384"><ele>335.0</ele><time>2026-04-26T10:18:51.307Z</time></trkpt><trkpt lat="37.8359959" lon="13.862968"><ele>335.0</ele><time>2026-04-26T10:18:52.307Z</time></trkpt><trkpt lat="37.8358565" lon="13.8628734"><ele>335.0</ele><time>2026-04-26T10:18:53.307Z</time></trkpt><trkpt lat="37.83573" lon="13.8627618"><ele>334.0</ele><time>2026-04-26T10:18:54.307Z</time></trkpt><trkpt lat="37.8356141" lon="13.8626306"><ele>333.0</ele><time>2026-04-26T10:18:55.307Z</time></trkpt><trkpt lat="37.8355141" lon="13.8624874"><ele>332.0</ele><time>2026-04-26T10:18:56.307Z</time></trkpt><trkpt lat="37.8354407" lon="13.8623284"><ele>332.0</ele><time>2026-04-26T10:18:57.307Z</time></trkpt><trkpt lat="37.8353872" lon="13.8621745"><ele>332.0</ele><time>2026-04-26T10:18:58.307Z</time></trkpt><trkpt lat="37.8353375" lon="13.8620361"><ele>332.0</ele><time>2026-04-26T10:18:59.307Z</time></trkpt><trkpt lat="37.8352544" lon="13.861937"><ele>332.0</ele><time>2026-04-26T10:19:00.307Z</time></trkpt><trkpt lat="37.8351404" lon="13.8618604"><ele>331.8</ele><time>2026-04-26T10:19:01.307Z</time></trkpt><trkpt lat="37.83503" lon="13.8617928"><ele>331.6</ele><time>2026-04-26T10:19:02.307Z</time></trkpt><trkpt lat="37.8349318" lon="13.8617257"><ele>331.40000000000003</ele><time>2026-04-26T10:19:03.307Z</time></trkpt><trkpt lat="37.8348718" lon="13.8616377"><ele>331.20000000000005</ele><time>2026-04-26T10:19:04.307Z</time></trkpt><trkpt lat="37.8348597" lon="13.8615269"><ele>331.0</ele><time>2026-04-26T10:19:05.307Z</time></trkpt><trkpt lat="37.8348793" lon="13.861404"><ele>331.0</ele><time>2026-04-26T10:19:06.306Z</time></trkpt><trkpt lat="37.834915" lon="13.8612715"><ele>331.0</ele><time>2026-04-26T10:19:07.307Z</time></trkpt><trkpt lat="37.8349525" lon="13.8611184"><ele>331.0</ele><time>2026-04-26T10:19:08.307Z</time></trkpt><trkpt lat="37.835" lon="13.860957"><ele>331.0</ele><time>2026-04-26T10:19:09.307Z</time></trkpt><trkpt lat="37.8350716" lon="13.8607892"><ele>326.25</ele><time>2026-04-26T10:19:10.307Z</time></trkpt><trkpt lat="37.8351559" lon="13.8606237"><ele>321.5</ele><time>2026-04-26T10:19:11.307Z</time></trkpt><trkpt lat="37.8352471" lon="13.8604742"><ele>316.75</ele><time>2026-04-26T10:19:12.307Z</time></trkpt><trkpt lat="37.8353232" lon="13.8603244"><ele>312.0</ele><time>2026-04-26T10:19:13.307Z</time></trkpt><trkpt lat="37.8353758" lon="13.8601626"><ele>312.75</ele><time>2026-04-26T10:19:14.307Z</time></trkpt><trkpt lat="37.8354039" lon="13.8599844"><ele>313.5</ele><time>2026-04-26T10:19:15.306Z</time></trkpt><trkpt lat="37.8354118" lon="13.8598045"><ele>314.25</ele><time>2026-04-26T10:19:16.307Z</time></trkpt><trkpt lat="37.8354206" lon="13.8596261"><ele>315.0</ele><time>2026-04-26T10:19:17.307Z</time></trkpt><trkpt lat="37.8354486" lon="13.8594435"><ele>316.0</ele><time>2026-04-26T10:19:18.307Z</time></trkpt><trkpt lat="37.8355095" lon="13.8592681"><ele>317.0</ele><time>2026-04-26T10:19:19.307Z</time></trkpt><trkpt lat="37.8355963" lon="13.8591239"><ele>318.0</ele><time>2026-04-26T10:19:20.307Z</time></trkpt><trkpt lat="37.8356885" lon="13.8590048"><ele>319.0</ele><time>2026-04-26T10:19:21.307Z</time></trkpt><trkpt lat="37.8357734" lon="13.8588962"><ele>319.0</ele><time>2026-04-26T10:19:22.307Z</time></trkpt><trkpt lat="37.8358424" lon="13.858787"><ele>319.0</ele><time>2026-04-26T10:19:23.307Z</time></trkpt><trkpt lat="37.83589" lon="13.8586731"><ele>319.0</ele><time>2026-04-26T10:19:24.307Z</time></trkpt><trkpt lat="37.8358981" lon="13.8585428"><ele>319.0</ele><time>2026-04-26T10:19:25.305Z</time></trkpt><trkpt lat="37.8358728" lon="13.8583903"><ele>319.0</ele><time>2026-04-26T10:19:26.306Z</time></trkpt><trkpt lat="37.835826" lon="13.8582263"><ele>319.3333333333333</ele><time>2026-04-26T10:19:27.306Z</time></trkpt><trkpt lat="37.8357631" lon="13.858046"><ele>319.6666666666667</ele><time>2026-04-26T10:19:28.306Z</time></trkpt><trkpt lat="37.8357068" lon="13.8578516"><ele>320.0</ele><time>2026-04-26T10:19:29.305Z</time></trkpt><trkpt lat="37.8356628" lon="13.8576607"><ele>319.0</ele><time>2026-04-26T10:19:30.306Z</time></trkpt><trkpt lat="37.8356354" lon="13.8574759"><ele>318.0</ele><time>2026-04-26T10:19:31.306Z</time></trkpt><trkpt lat="37.8356105" lon="13.8573054"><ele>317.0</ele><time>2026-04-26T10:19:32.306Z</time></trkpt><trkpt lat="37.8355805" lon="13.857158"><ele>316.0</ele><time>2026-04-26T10:19:33.306Z</time></trkpt><trkpt lat="37.8355289" lon="13.857034"><ele>316.0</ele><time>2026-04-26T10:19:34.306Z</time></trkpt><trkpt lat="37.8354476" lon="13.8569217"><ele>316.0</ele><time>2026-04-26T10:19:35.306Z</time></trkpt><trkpt lat="37.8353536" lon="13.8568046"><ele>316.0</ele><time>2026-04-26T10:19:36.305Z</time></trkpt><trkpt lat="37.8352521" lon="13.8566975"><ele>316.0</ele><time>2026-04-26T10:19:37.306Z</time></trkpt><trkpt lat="37.8351519" lon="13.8565769"><ele>316.75</ele><time>2026-04-26T10:19:38.305Z</time></trkpt><trkpt lat="37.8350668" lon="13.8564312"><ele>317.5</ele><time>2026-04-26T10:19:39.306Z</time></trkpt><trkpt lat="37.8350057" lon="13.8562704"><ele>318.25</ele><time>2026-04-26T10:19:40.306Z</time></trkpt><trkpt lat="37.834953" lon="13.8561232"><ele>319.0</ele><time>2026-04-26T10:19:41.306Z</time></trkpt><trkpt lat="37.8348936" lon="13.8559767"><ele>316.0</ele><time>2026-04-26T10:19:42.306Z</time></trkpt><trkpt lat="37.8348166" lon="13.8558405"><ele>313.0</ele><time>2026-04-26T10:19:43.305Z</time></trkpt><trkpt lat="37.8347234" lon="13.8557376"><ele>310.0</ele><time>2026-04-26T10:19:44.306Z</time></trkpt><trkpt lat="37.8346056" lon="13.8556577"><ele>307.0</ele><time>2026-04-26T10:19:45.305Z</time></trkpt><trkpt lat="37.8344633" lon="13.8556114"><ele>307.0</ele><time>2026-04-26T10:19:46.306Z</time></trkpt><trkpt lat="37.8343119" lon="13.8555789"><ele>307.0</ele><time>2026-04-26T10:19:47.306Z</time></trkpt><trkpt lat="37.8341703" lon="13.8555477"><ele>307.0</ele><time>2026-04-26T10:19:48.305Z</time></trkpt><trkpt lat="37.8340429" lon="13.8554807"><ele>307.0</ele><time>2026-04-26T10:19:49.306Z</time></trkpt><trkpt lat="37.8339234" lon="13.8553881"><ele>305.8</ele><time>2026-04-26T10:19:50.305Z</time></trkpt><trkpt lat="37.8338216" lon="13.8552807"><ele>304.6</ele><time>2026-04-26T10:19:51.306Z</time></trkpt><trkpt lat="37.8337395" lon="13.8551702"><ele>303.40000000000003</ele><time>2026-04-26T10:19:52.306Z</time></trkpt><trkpt lat="37.8336924" lon="13.8550741"><ele>302.2</ele><time>2026-04-26T10:19:53.306Z</time></trkpt><trkpt lat="37.8336904" lon="13.8549596"><ele>301.0</ele><time>2026-04-26T10:19:54.306Z</time></trkpt><trkpt lat="37.8337226" lon="13.8548359"><ele>301.0</ele><time>2026-04-26T10:19:55.306Z</time></trkpt><trkpt lat="37.8337737" lon="13.8547001"><ele>301.0</ele><time>2026-04-26T10:19:56.306Z</time></trkpt><trkpt lat="37.8338276" lon="13.8545545"><ele>301.0</ele><time>2026-04-26T10:19:57.306Z</time></trkpt><trkpt lat="37.8338655" lon="13.8544086"><ele>301.0</ele><time>2026-04-26T10:19:58.306Z</time></trkpt><trkpt lat="37.8338605" lon="13.8542804"><ele>298.5</ele><time>2026-04-26T10:19:59.306Z</time></trkpt><trkpt lat="37.8338113" lon="13.854174"><ele>296.0</ele><time>2026-04-26T10:20:00.306Z</time></trkpt><trkpt lat="37.8337364" lon="13.854071"><ele>293.5</ele><time>2026-04-26T10:20:01.306Z</time></trkpt><trkpt lat="37.8336315" lon="13.8539731"><ele>291.0</ele><time>2026-04-26T10:20:02.306Z</time></trkpt><trkpt lat="37.8335268" lon="13.8538715"><ele>294.0</ele><time>2026-04-26T10:20:03.306Z</time></trkpt><trkpt lat="37.833439" lon="13.8537391"><ele>297.0</ele><time>2026-04-26T10:20:04.306Z</time></trkpt><trkpt lat="37.8333755" lon="13.8535909"><ele>300.0</ele><time>2026-04-26T10:20:05.305Z</time></trkpt><trkpt lat="37.83334" lon="13.8534325"><ele>303.0</ele><time>2026-04-26T10:20:06.306Z</time></trkpt><trkpt lat="37.8333438" lon="13.8532863"><ele>303.0</ele><time>2026-04-26T10:20:07.306Z</time></trkpt><trkpt lat="37.8333833" lon="13.8531593"><ele>303.0</ele><time>2026-04-26T10:20:08.306Z</time></trkpt><trkpt lat="37.833454" lon="13.8530488"><ele>303.0</ele><time>2026-04-26T10:20:09.306Z</time></trkpt><trkpt lat="37.8335331" lon="13.8529426"><ele>303.0</ele><time>2026-04-26T10:20:10.306Z</time></trkpt><trkpt lat="37.8336074" lon="13.8528492"><ele>303.0</ele><time>2026-04-26T10:20:11.306Z</time></trkpt><trkpt lat="37.8336629" lon="13.8527446"><ele>298.6</ele><time>2026-04-26T10:20:12.306Z</time></trkpt><trkpt lat="37.8336799" lon="13.8526253"><ele>294.20000000000005</ele><time>2026-04-26T10:20:13.306Z</time></trkpt><trkpt lat="37.8336685" lon="13.8524991"><ele>289.8</ele><time>2026-04-26T10:20:14.306Z</time></trkpt><trkpt lat="37.8336289" lon="13.8523819"><ele>285.40000000000003</ele><time>2026-04-26T10:20:15.306Z</time></trkpt><trkpt lat="37.8335652" lon="13.852292"><ele>281.0</ele><time>2026-04-26T10:20:16.306Z</time></trkpt><trkpt lat="37.8334972" lon="13.8522158"><ele>280.33333333333337</ele><time>2026-04-26T10:20:17.306Z</time></trkpt><trkpt lat="37.8334557" lon="13.8521507"><ele>279.6666666666667</ele><time>2026-04-26T10:20:18.306Z</time></trkpt><trkpt lat="37.8334843" lon="13.852009"><ele>279.0</ele><time>2026-04-26T10:20:20.306Z</time></trkpt><trkpt lat="37.8335984" lon="13.8520095"><ele>278.3333333333333</ele><time>2026-04-26T10:20:22.306Z</time></trkpt><trkpt lat="37.8336418" lon="13.852071"><ele>277.66666666666663</ele><time>2026-04-26T10:20:23.306Z</time></trkpt><trkpt lat="37.8336863" lon="13.852161"><ele>277.0</ele><time>2026-04-26T10:20:24.306Z</time></trkpt><trkpt lat="37.8337278" lon="13.8522742"><ele>277.0</ele><time>2026-04-26T10:20:25.306Z</time></trkpt><trkpt lat="37.8337758" lon="13.8523923"><ele>277.0</ele><time>2026-04-26T10:20:26.306Z</time></trkpt><trkpt lat="37.8338366" lon="13.8524975"><ele>277.0</ele><time>2026-04-26T10:20:27.306Z</time></trkpt><trkpt lat="37.8339045" lon="13.8525781"><ele>277.0</ele><time>2026-04-26T10:20:28.306Z</time></trkpt><trkpt lat="37.8339804" lon="13.8526394"><ele>277.0</ele><time>2026-04-26T10:20:29.306Z</time></trkpt><trkpt lat="37.8340602" lon="13.8526866"><ele>277.66666666666663</ele><time>2026-04-26T10:20:30.306Z</time></trkpt><trkpt lat="37.8341449" lon="13.8527257"><ele>278.3333333333333</ele><time>2026-04-26T10:20:31.306Z</time></trkpt><trkpt lat="37.8342255" lon="13.8527724"><ele>279.0</ele><time>2026-04-26T10:20:32.306Z</time></trkpt><trkpt lat="37.8342846" lon="13.852843"><ele>279.6666666666667</ele><time>2026-04-26T10:20:33.306Z</time></trkpt><trkpt lat="37.8343304" lon="13.8529323"><ele>280.33333333333337</ele><time>2026-04-26T10:20:34.306Z</time></trkpt><trkpt lat="37.8343624" lon="13.8530516"><ele>281.0</ele><time>2026-04-26T10:20:35.306Z</time></trkpt><trkpt lat="37.83439" lon="13.8532022"><ele>280.0</ele><time>2026-04-26T10:20:36.305Z</time></trkpt><trkpt lat="37.8344186" lon="13.8533519"><ele>279.0</ele><time>2026-04-26T10:20:37.306Z</time></trkpt><trkpt lat="37.8344632" lon="13.8534878"><ele>278.0</ele><time>2026-04-26T10:20:38.306Z</time></trkpt><trkpt lat="37.8345269" lon="13.8536074"><ele>277.0</ele><time>2026-04-26T10:20:39.306Z</time></trkpt><trkpt lat="37.8346254" lon="13.8536794"><ele>277.0</ele><time>2026-04-26T10:20:40.305Z</time></trkpt><trkpt lat="37.8347437" lon="13.8537055"><ele>277.0</ele><time>2026-04-26T10:20:41.306Z</time></trkpt><trkpt lat="37.8348933" lon="13.8536884"><ele>277.0</ele><time>2026-04-26T10:20:42.306Z</time></trkpt><trkpt lat="37.8350581" lon="13.8536624"><ele>277.0</ele><time>2026-04-26T10:20:43.306Z</time></trkpt><trkpt lat="37.8352287" lon="13.8536376"><ele>276.0</ele><time>2026-04-26T10:20:44.306Z</time></trkpt><trkpt lat="37.8354054" lon="13.8536181"><ele>275.0</ele><time>2026-04-26T10:20:45.306Z</time></trkpt><trkpt lat="37.8355912" lon="13.8536063"><ele>274.0</ele><time>2026-04-26T10:20:46.305Z</time></trkpt><trkpt lat="37.8357826" lon="13.8536047"><ele>270.3333333333333</ele><time>2026-04-26T10:20:47.306Z</time></trkpt><trkpt lat="37.8359702" lon="13.8536011"><ele>266.6666666666667</ele><time>2026-04-26T10:20:48.306Z</time></trkpt><trkpt lat="37.8361472" lon="13.8536049"><ele>263.0</ele><time>2026-04-26T10:20:49.306Z</time></trkpt><trkpt lat="37.8363174" lon="13.8536148"><ele>263.0</ele><time>2026-04-26T10:20:50.306Z</time></trkpt><trkpt lat="37.836472" lon="13.853656"><ele>263.0</ele><time>2026-04-26T10:20:51.306Z</time></trkpt><trkpt lat="37.8366046" lon="13.8537249"><ele>263.0</ele><time>2026-04-26T10:20:52.306Z</time></trkpt><trkpt lat="37.8367043" lon="13.8538148"><ele>263.0</ele><time>2026-04-26T10:20:53.306Z</time></trkpt><trkpt lat="37.8367884" lon="13.8539495"><ele>259.0</ele><time>2026-04-26T10:20:54.305Z</time></trkpt><trkpt lat="37.8368718" lon="13.8541051"><ele>255.0</ele><time>2026-04-26T10:20:55.306Z</time></trkpt><trkpt lat="37.8369593" lon="13.8542775"><ele>251.0</ele><time>2026-04-26T10:20:56.306Z</time></trkpt><trkpt lat="37.8370484" lon="13.8544457"><ele>251.0</ele><time>2026-04-26T10:20:57.306Z</time></trkpt><trkpt lat="37.8371373" lon="13.854612"><ele>251.0</ele><time>2026-04-26T10:20:58.306Z</time></trkpt><trkpt lat="37.8372271" lon="13.85478"><ele>251.0</ele><time>2026-04-26T10:20:59.306Z</time></trkpt><trkpt lat="37.8373135" lon="13.8549327"><ele>251.0</ele><time>2026-04-26T10:21:00.306Z</time></trkpt><trkpt lat="37.8374156" lon="13.8550673"><ele>251.0</ele><time>2026-04-26T10:21:01.306Z</time></trkpt><trkpt lat="37.8375319" lon="13.8551745"><ele>251.0</ele><time>2026-04-26T10:21:02.306Z</time></trkpt><trkpt lat="37.8376491" lon="13.8552569"><ele>251.0</ele><time>2026-04-26T10:21:03.306Z</time></trkpt><trkpt lat="37.837753" lon="13.8553346"><ele>250.20000000000002</ele><time>2026-04-26T10:21:04.306Z</time></trkpt><trkpt lat="37.8378408" lon="13.8553852"><ele>249.40000000000003</ele><time>2026-04-26T10:21:05.306Z</time></trkpt><trkpt lat="37.8379049" lon="13.8554117"><ele>248.6</ele><time>2026-04-26T10:21:06.306Z</time></trkpt><trkpt lat="37.8379896" lon="13.8553383"><ele>247.8</ele><time>2026-04-26T10:21:08.306Z</time></trkpt><trkpt lat="37.8379533" lon="13.8551766"><ele>247.0</ele><time>2026-04-26T10:21:10.306Z</time></trkpt><trkpt lat="37.8378923" lon="13.8550826"><ele>248.0</ele><time>2026-04-26T10:21:11.306Z</time></trkpt><trkpt lat="37.8378209" lon="13.854975"><ele>249.0</ele><time>2026-04-26T10:21:12.306Z</time></trkpt><trkpt lat="37.8377375" lon="13.8548594"><ele>250.0</ele><time>2026-04-26T10:21:13.306Z</time></trkpt><trkpt lat="37.8376532" lon="13.8547389"><ele>251.0</ele><time>2026-04-26T10:21:14.306Z</time></trkpt><trkpt lat="37.8375894" lon="13.8546042"><ele>251.0</ele><time>2026-04-26T10:21:15.306Z</time></trkpt><trkpt lat="37.8375527" lon="13.8544435"><ele>251.0</ele><time>2026-04-26T10:21:16.306Z</time></trkpt><trkpt lat="37.8375388" lon="13.8542623"><ele>251.0</ele><time>2026-04-26T10:21:17.306Z</time></trkpt><trkpt lat="37.8375355" lon="13.8540748"><ele>251.0</ele><time>2026-04-26T10:21:18.305Z</time></trkpt><trkpt lat="37.8375414" lon="13.853888"><ele>249.25</ele><time>2026-04-26T10:21:19.306Z</time></trkpt><trkpt lat="37.8375464" lon="13.8537128"><ele>247.5</ele><time>2026-04-26T10:21:20.306Z</time></trkpt><trkpt lat="37.8375308" lon="13.8535559"><ele>245.75</ele><time>2026-04-26T10:21:21.306Z</time></trkpt><trkpt lat="37.8374814" lon="13.853416"><ele>244.0</ele><time>2026-04-26T10:21:22.306Z</time></trkpt><trkpt lat="37.8374075" lon="13.8532664"><ele>241.33333333333331</ele><time>2026-04-26T10:21:23.306Z</time></trkpt><trkpt lat="37.837311" lon="13.8531298"><ele>238.66666666666669</ele><time>2026-04-26T10:21:24.306Z</time></trkpt><trkpt lat="37.8372103" lon="13.8529886"><ele>236.0</ele><time>2026-04-26T10:21:25.306Z</time></trkpt><trkpt lat="37.8370996" lon="13.8528492"><ele>236.0</ele><time>2026-04-26T10:21:26.306Z</time></trkpt><trkpt lat="37.8369795" lon="13.852714"><ele>236.0</ele><time>2026-04-26T10:21:27.306Z</time></trkpt><trkpt lat="37.8368633" lon="13.8525689"><ele>236.0</ele><time>2026-04-26T10:21:28.306Z</time></trkpt><trkpt lat="37.8367595" lon="13.8524172"><ele>237.0</ele><time>2026-04-26T10:21:29.306Z</time></trkpt><trkpt lat="37.8366707" lon="13.8522495"><ele>238.0</ele><time>2026-04-26T10:21:30.306Z</time></trkpt><trkpt lat="37.8365884" lon="13.852079"><ele>239.0</ele><time>2026-04-26T10:21:31.306Z</time></trkpt><trkpt lat="37.8364881" lon="13.851904"><ele>235.66666666666669</ele><time>2026-04-26T10:21:32.306Z</time></trkpt><trkpt lat="37.8363528" lon="13.8517409"><ele>232.33333333333331</ele><time>2026-04-26T10:21:33.306Z</time></trkpt><trkpt lat="37.8362042" lon="13.8515773"><ele>229.0</ele><time>2026-04-26T10:21:34.306Z</time></trkpt><trkpt lat="37.8360496" lon="13.8514124"><ele>228.66666666666666</ele><time>2026-04-26T10:21:35.305Z</time></trkpt><trkpt lat="37.8358908" lon="13.8512392"><ele>228.33333333333331</ele><time>2026-04-26T10:21:36.306Z</time></trkpt><trkpt lat="37.8357352" lon="13.8510643"><ele>228.0</ele><time>2026-04-26T10:21:37.306Z</time></trkpt><trkpt lat="37.835582" lon="13.8508932"><ele>228.0</ele><time>2026-04-26T10:21:38.306Z</time></trkpt><trkpt lat="37.8354359" lon="13.8507319"><ele>228.0</ele><time>2026-04-26T10:21:39.305Z</time></trkpt><trkpt lat="37.8353079" lon="13.8505886"><ele>228.0</ele><time>2026-04-26T10:21:40.306Z</time></trkpt><trkpt lat="37.8351936" lon="13.85047"><ele>228.5</ele><time>2026-04-26T10:21:41.306Z</time></trkpt><trkpt lat="37.8350998" lon="13.8503595"><ele>229.0</ele><time>2026-04-26T10:21:42.306Z</time></trkpt><trkpt lat="37.835039" lon="13.850247"><ele>229.5</ele><time>2026-04-26T10:21:43.306Z</time></trkpt><trkpt lat="37.8350123" lon="13.8501099"><ele>230.0</ele><time>2026-04-26T10:21:44.306Z</time></trkpt><trkpt lat="37.8350092" lon="13.8499476"><ele>227.5</ele><time>2026-04-26T10:21:45.306Z</time></trkpt><trkpt lat="37.835019" lon="13.8497635"><ele>225.0</ele><time>2026-04-26T10:21:46.306Z</time></trkpt><trkpt lat="37.8350287" lon="13.8495754"><ele>222.5</ele><time>2026-04-26T10:21:47.306Z</time></trkpt><trkpt lat="37.8350348" lon="13.8493833"><ele>220.0</ele><time>2026-04-26T10:21:48.306Z</time></trkpt><trkpt lat="37.8350574" lon="13.8492218"><ele>220.0</ele><time>2026-04-26T10:21:49.306Z</time></trkpt><trkpt lat="37.8351029" lon="13.849078"><ele>220.0</ele><time>2026-04-26T10:21:50.306Z</time></trkpt><trkpt lat="37.8352001" lon="13.8489463"><ele>220.0</ele><time>2026-04-26T10:21:51.306Z</time></trkpt><trkpt lat="37.8353263" lon="13.8488305"><ele>220.0</ele><time>2026-04-26T10:21:52.306Z</time></trkpt><trkpt lat="37.8354618" lon="13.8487098"><ele>218.25</ele><time>2026-04-26T10:21:53.306Z</time></trkpt><trkpt lat="37.835594" lon="13.8485844"><ele>216.5</ele><time>2026-04-26T10:21:54.306Z</time></trkpt><trkpt lat="37.8357134" lon="13.8484765"><ele>214.75</ele><time>2026-04-26T10:21:55.306Z</time></trkpt><trkpt lat="37.8358226" lon="13.8483931"><ele>213.0</ele><time>2026-04-26T10:21:56.306Z</time></trkpt><trkpt lat="37.8359337" lon="13.8483373"><ele>217.0</ele><time>2026-04-26T10:21:57.306Z</time></trkpt><trkpt lat="37.8360658" lon="13.8483204"><ele>221.0</ele><time>2026-04-26T10:21:58.306Z</time></trkpt><trkpt lat="37.8362099" lon="13.8483176"><ele>225.0</ele><time>2026-04-26T10:21:59.306Z</time></trkpt><trkpt lat="37.8363586" lon="13.8483146"><ele>229.0</ele><time>2026-04-26T10:22:00.306Z</time></trkpt><trkpt lat="37.836511" lon="13.8483122"><ele>229.0</ele><time>2026-04-26T10:22:01.306Z</time></trkpt><trkpt lat="37.836658" lon="13.8482964"><ele>229.0</ele><time>2026-04-26T10:22:02.306Z</time></trkpt><trkpt lat="37.8368003" lon="13.8482633"><ele>229.0</ele><time>2026-04-26T10:22:03.306Z</time></trkpt><trkpt lat="37.8369343" lon="13.8482023"><ele>229.0</ele><time>2026-04-26T10:22:04.306Z</time></trkpt><trkpt lat="37.837061" lon="13.8481216"><ele>228.25</ele><time>2026-04-26T10:22:05.306Z</time></trkpt><trkpt lat="37.8371877" lon="13.8480306"><ele>227.5</ele><time>2026-04-26T10:22:06.306Z</time></trkpt><trkpt lat="37.8373164" lon="13.847937"><ele>226.75</ele><time>2026-04-26T10:22:07.306Z</time></trkpt><trkpt lat="37.8374285" lon="13.8478445"><ele>226.0</ele><time>2026-04-26T10:22:08.306Z</time></trkpt><trkpt lat="37.8375088" lon="13.8477386"><ele>225.99999999999997</ele><time>2026-04-26T10:22:09.306Z</time></trkpt><trkpt lat="37.8375535" lon="13.8476375"><ele>226.0</ele><time>2026-04-26T10:22:10.306Z</time></trkpt><trkpt lat="37.8375457" lon="13.8475422"><ele>226.0</ele><time>2026-04-26T10:22:11.306Z</time></trkpt><trkpt lat="37.8374891" lon="13.8474752"><ele>226.0</ele><time>2026-04-26T10:22:12.306Z</time></trkpt><trkpt lat="37.837401" lon="13.847465"><ele>225.99999999999997</ele><time>2026-04-26T10:22:13.306Z</time></trkpt><trkpt lat="37.8372952" lon="13.8474936"><ele>226.0</ele><time>2026-04-26T10:22:14.305Z</time></trkpt><trkpt lat="37.8371739" lon="13.8475428"><ele>226.0</ele><time>2026-04-26T10:22:15.306Z</time></trkpt><trkpt lat="37.8370561" lon="13.8475991"><ele>226.0</ele><time>2026-04-26T10:22:16.306Z</time></trkpt><trkpt lat="37.8369266" lon="13.8476507"><ele>226.0</ele><time>2026-04-26T10:22:17.306Z</time></trkpt><trkpt lat="37.8368065" lon="13.8476803"><ele>226.0</ele><time>2026-04-26T10:22:18.306Z</time></trkpt><trkpt lat="37.8366835" lon="13.8476728"><ele>226.75</ele><time>2026-04-26T10:22:19.306Z</time></trkpt><trkpt lat="37.8365608" lon="13.8476302"><ele>227.5</ele><time>2026-04-26T10:22:20.306Z</time></trkpt><trkpt lat="37.8364472" lon="13.8475375"><ele>228.25</ele><time>2026-04-26T10:22:21.306Z</time></trkpt><trkpt lat="37.8363352" lon="13.8474112"><ele>229.0</ele><time>2026-04-26T10:22:22.306Z</time></trkpt><trkpt lat="37.836222" lon="13.8472886"><ele>231.75</ele><time>2026-04-26T10:22:23.305Z</time></trkpt><trkpt lat="37.8360971" lon="13.8471975"><ele>234.5</ele><time>2026-04-26T10:22:24.305Z</time></trkpt><trkpt lat="37.835958" lon="13.8471422"><ele>237.25</ele><time>2026-04-26T10:22:25.306Z</time></trkpt><trkpt lat="37.8358058" lon="13.8471175"><ele>240.0</ele><time>2026-04-26T10:22:26.306Z</time></trkpt><trkpt lat="37.8356511" lon="13.8471226"><ele>240.33333333333331</ele><time>2026-04-26T10:22:27.306Z</time></trkpt><trkpt lat="37.8354979" lon="13.8471428"><ele>240.66666666666666</ele><time>2026-04-26T10:22:28.306Z</time></trkpt><trkpt lat="37.8353399" lon="13.8471649"><ele>241.0</ele><time>2026-04-26T10:22:29.306Z</time></trkpt><trkpt lat="37.8351758" lon="13.847193"><ele>243.33333333333331</ele><time>2026-04-26T10:22:30.306Z</time></trkpt><trkpt lat="37.8350067" lon="13.8472167"><ele>245.66666666666669</ele><time>2026-04-26T10:22:31.306Z</time></trkpt><trkpt lat="37.8348417" lon="13.8472545"><ele>248.0</ele><time>2026-04-26T10:22:32.306Z</time></trkpt><trkpt lat="37.8347028" lon="13.8473044"><ele>248.0</ele><time>2026-04-26T10:22:33.306Z</time></trkpt><trkpt lat="37.8345864" lon="13.8473542"><ele>248.0</ele><time>2026-04-26T10:22:34.306Z</time></trkpt><trkpt lat="37.8344893" lon="13.847369"><ele>248.0</ele><time>2026-04-26T10:22:35.306Z</time></trkpt><trkpt lat="37.8344211" lon="13.8473358"><ele>248.0</ele><time>2026-04-26T10:22:36.306Z</time></trkpt><trkpt lat="37.8344045" lon="13.8471786"><ele>248.0</ele><time>2026-04-26T10:22:38.306Z</time></trkpt><trkpt lat="37.8344527" lon="13.8471045"><ele>248.0</ele><time>2026-04-26T10:22:39.306Z</time></trkpt><trkpt lat="37.8345255" lon="13.8470366"><ele>248.0</ele><time>2026-04-26T10:22:40.306Z</time></trkpt><trkpt lat="37.8346455" lon="13.8469959"><ele>248.0</ele><time>2026-04-26T10:22:41.305Z</time></trkpt><trkpt lat="37.8347895" lon="13.8469537"><ele>248.0</ele><time>2026-04-26T10:22:42.306Z</time></trkpt><trkpt lat="37.8349319" lon="13.8468997"><ele>248.0</ele><time>2026-04-26T10:22:43.306Z</time></trkpt><trkpt lat="37.8350701" lon="13.8468233"><ele>248.0</ele><time>2026-04-26T10:22:44.306Z</time></trkpt><trkpt lat="37.8351837" lon="13.846713"><ele>248.0</ele><time>2026-04-26T10:22:45.306Z</time></trkpt><trkpt lat="37.835278" lon="13.8465699"><ele>248.0</ele><time>2026-04-26T10:22:46.306Z</time></trkpt><trkpt lat="37.8353602" lon="13.8464217"><ele>250.0</ele><time>2026-04-26T10:22:47.306Z</time></trkpt><trkpt lat="37.8354417" lon="13.8462739"><ele>252.0</ele><time>2026-04-26T10:22:48.306Z</time></trkpt><trkpt lat="37.8355319" lon="13.8461378"><ele>254.0</ele><time>2026-04-26T10:22:49.306Z</time></trkpt><trkpt lat="37.8356332" lon="13.8460271"><ele>256.0</ele><time>2026-04-26T10:22:50.306Z</time></trkpt><trkpt lat="37.8357245" lon="13.845931"><ele>258.0</ele><time>2026-04-26T10:22:51.305Z</time></trkpt><trkpt lat="37.8358158" lon="13.8458509"><ele>260.0</ele><time>2026-04-26T10:22:52.306Z</time></trkpt><trkpt lat="37.8359022" lon="13.845778"><ele>262.0</ele><time>2026-04-26T10:22:53.306Z</time></trkpt><trkpt lat="37.8359873" lon="13.845718"><ele>264.0</ele><time>2026-04-26T10:22:54.306Z</time></trkpt><trkpt lat="37.8360874" lon="13.8456815"><ele>266.0</ele><time>2026-04-26T10:22:55.305Z</time></trkpt><trkpt lat="37.8362063" lon="13.8456639"><ele>266.0</ele><time>2026-04-26T10:22:56.305Z</time></trkpt><trkpt lat="37.8363344" lon="13.845661"><ele>266.0</ele><time>2026-04-26T10:22:57.306Z</time></trkpt><trkpt lat="37.8364716" lon="13.8456696"><ele>266.0</ele><time>2026-04-26T10:22:58.305Z</time></trkpt><trkpt lat="37.8366143" lon="13.8456924"><ele>266.0</ele><time>2026-04-26T10:22:59.306Z</time></trkpt><trkpt lat="37.8367627" lon="13.8457184"><ele>268.33333333333337</ele><time>2026-04-26T10:23:00.306Z</time></trkpt><trkpt lat="37.8369271" lon="13.8457376"><ele>270.6666666666667</ele><time>2026-04-26T10:23:01.306Z</time></trkpt><trkpt lat="37.8370989" lon="13.845752"><ele>273.0</ele><time>2026-04-26T10:23:02.306Z</time></trkpt><trkpt lat="37.8372692" lon="13.8457561"><ele>273.0</ele><time>2026-04-26T10:23:03.306Z</time></trkpt><trkpt lat="37.8374374" lon="13.8457431"><ele>273.0</ele><time>2026-04-26T10:23:04.306Z</time></trkpt><trkpt lat="37.837612" lon="13.845704"><ele>273.0</ele><time>2026-04-26T10:23:05.306Z</time></trkpt><trkpt lat="37.8377874" lon="13.8456504"><ele>273.0</ele><time>2026-04-26T10:23:06.306Z</time></trkpt><trkpt lat="37.8379716" lon="13.8455835"><ele>273.0</ele><time>2026-04-26T10:23:07.306Z</time></trkpt><trkpt lat="37.8381516" lon="13.8455147"><ele>273.0</ele><time>2026-04-26T10:23:08.306Z</time></trkpt><trkpt lat="37.8383267" lon="13.8454376"><ele>274.0</ele><time>2026-04-26T10:23:09.306Z</time></trkpt><trkpt lat="37.8384933" lon="13.8453553"><ele>275.0</ele><time>2026-04-26T10:23:10.306Z</time></trkpt><trkpt lat="37.83865" lon="13.8452496"><ele>276.0</ele><time>2026-04-26T10:23:11.306Z</time></trkpt><trkpt lat="37.8387888" lon="13.8451168"><ele>276.0</ele><time>2026-04-26T10:23:12.306Z</time></trkpt><trkpt lat="37.8389232" lon="13.8449616"><ele>276.0</ele><time>2026-04-26T10:23:13.306Z</time></trkpt><trkpt lat="37.839059" lon="13.8447954"><ele>276.0</ele><time>2026-04-26T10:23:14.306Z</time></trkpt><trkpt lat="37.8392019" lon="13.844627"><ele>275.0</ele><time>2026-04-26T10:23:15.305Z</time></trkpt><trkpt lat="37.8393536" lon="13.8444659"><ele>274.0</ele><time>2026-04-26T10:23:16.306Z</time></trkpt><trkpt lat="37.8395127" lon="13.8443071"><ele>273.0</ele><time>2026-04-26T10:23:17.306Z</time></trkpt><trkpt lat="37.8396707" lon="13.8441563"><ele>276.3333333333333</ele><time>2026-04-26T10:23:18.306Z</time></trkpt><trkpt lat="37.8398234" lon="13.8440106"><ele>279.66666666666663</ele><time>2026-04-26T10:23:19.306Z</time></trkpt><trkpt lat="37.8399605" lon="13.8438793"><ele>283.0</ele><time>2026-04-26T10:23:20.306Z</time></trkpt><trkpt lat="37.8400885" lon="13.8437607"><ele>282.5</ele><time>2026-04-26T10:23:21.306Z</time></trkpt><trkpt lat="37.8402105" lon="13.8436652"><ele>282.0</ele><time>2026-04-26T10:23:22.306Z</time></trkpt><trkpt lat="37.840336" lon="13.8436027"><ele>281.5</ele><time>2026-04-26T10:23:23.306Z</time></trkpt><trkpt lat="37.8404697" lon="13.8435871"><ele>281.0</ele><time>2026-04-26T10:23:24.306Z</time></trkpt><trkpt lat="37.8406049" lon="13.8436141"><ele>281.0</ele><time>2026-04-26T10:23:25.306Z</time></trkpt><trkpt lat="37.8407457" lon="13.8436662"><ele>281.0</ele><time>2026-04-26T10:23:26.306Z</time></trkpt><trkpt lat="37.8408865" lon="13.8437465"><ele>281.0</ele><time>2026-04-26T10:23:27.306Z</time></trkpt><trkpt lat="37.8410402" lon="13.8438496"><ele>282.33333333333337</ele><time>2026-04-26T10:23:28.306Z</time></trkpt><trkpt lat="37.841204" lon="13.8439526"><ele>283.6666666666667</ele><time>2026-04-26T10:23:29.306Z</time></trkpt><trkpt lat="37.841371" lon="13.8440542"><ele>285.0</ele><time>2026-04-26T10:23:30.306Z</time></trkpt><trkpt lat="37.8415419" lon="13.844153"><ele>285.0</ele><time>2026-04-26T10:23:31.306Z</time></trkpt><trkpt lat="37.8417114" lon="13.8442518"><ele>285.0</ele><time>2026-04-26T10:23:32.306Z</time></trkpt><trkpt lat="37.841886" lon="13.8443466"><ele>285.0</ele><time>2026-04-26T10:23:33.305Z</time></trkpt><trkpt lat="37.8420652" lon="13.8444327"><ele>281.3333333333333</ele><time>2026-04-26T10:23:34.306Z</time></trkpt><trkpt lat="37.8422502" lon="13.844501"><ele>277.66666666666663</ele><time>2026-04-26T10:23:35.306Z</time></trkpt><trkpt lat="37.8424386" lon="13.8445615"><ele>274.0</ele><time>2026-04-26T10:23:36.306Z</time></trkpt><trkpt lat="37.8426257" lon="13.844607"><ele>274.66666666666663</ele><time>2026-04-26T10:23:37.306Z</time></trkpt><trkpt lat="37.8428009" lon="13.8446393"><ele>275.3333333333333</ele><time>2026-04-26T10:23:38.306Z</time></trkpt><trkpt lat="37.8429631" lon="13.8446476"><ele>276.0</ele><time>2026-04-26T10:23:39.306Z</time></trkpt><trkpt lat="37.8431083" lon="13.8446325"><ele>276.0</ele><time>2026-04-26T10:23:40.306Z</time></trkpt><trkpt lat="37.8432234" lon="13.8445882"><ele>276.0</ele><time>2026-04-26T10:23:41.306Z</time></trkpt><trkpt lat="37.8433283" lon="13.8444988"><ele>276.0</ele><time>2026-04-26T10:23:42.306Z</time></trkpt><trkpt lat="37.8434135" lon="13.8443759"><ele>276.0</ele><time>2026-04-26T10:23:43.306Z</time></trkpt><trkpt lat="37.8434695" lon="13.8442305"><ele>279.5</ele><time>2026-04-26T10:23:44.306Z</time></trkpt><trkpt lat="37.8434947" lon="13.8440578"><ele>283.0</ele><time>2026-04-26T10:23:45.306Z</time></trkpt><trkpt lat="37.8434894" lon="13.8438732"><ele>286.5</ele><time>2026-04-26T10:23:46.306Z</time></trkpt><trkpt lat="37.8434931" lon="13.8436831"><ele>290.0</ele><time>2026-04-26T10:23:47.305Z</time></trkpt><trkpt lat="37.843531" lon="13.8435213"><ele>291.6</ele><time>2026-04-26T10:23:48.306Z</time></trkpt><trkpt lat="37.8435942" lon="13.8433836"><ele>293.2</ele><time>2026-04-26T10:23:49.305Z</time></trkpt><trkpt lat="37.8436786" lon="13.8432909"><ele>294.8</ele><time>2026-04-26T10:23:50.306Z</time></trkpt><trkpt lat="37.843765" lon="13.8432462"><ele>296.4</ele><time>2026-04-26T10:23:51.305Z</time></trkpt><trkpt lat="37.8438642" lon="13.8432401"><ele>298.0</ele><time>2026-04-26T10:23:52.306Z</time></trkpt><trkpt lat="37.8439494" lon="13.8432683"><ele>298.0</ele><time>2026-04-26T10:23:53.306Z</time></trkpt><trkpt lat="37.8440055" lon="13.8433387"><ele>298.0</ele><time>2026-04-26T10:23:54.305Z</time></trkpt><trkpt lat="37.8440385" lon="13.8434312"><ele>298.0</ele><time>2026-04-26T10:23:55.306Z</time></trkpt><trkpt lat="37.844037" lon="13.8435456"><ele>298.0</ele><time>2026-04-26T10:23:56.306Z</time></trkpt><trkpt lat="37.8440369" lon="13.8436749"><ele>298.0</ele><time>2026-04-26T10:23:57.306Z</time></trkpt><trkpt lat="37.8440632" lon="13.8438142"><ele>297.4</ele><time>2026-04-26T10:23:58.306Z</time></trkpt><trkpt lat="37.8441094" lon="13.8439477"><ele>296.8</ele><time>2026-04-26T10:23:59.306Z</time></trkpt><trkpt lat="37.8441762" lon="13.8440334"><ele>296.2</ele><time>2026-04-26T10:24:00.305Z</time></trkpt><trkpt lat="37.8442725" lon="13.8440972"><ele>295.6</ele><time>2026-04-26T10:24:01.306Z</time></trkpt><trkpt lat="37.8443984" lon="13.8441341"><ele>295.0</ele><time>2026-04-26T10:24:02.306Z</time></trkpt><trkpt lat="37.8445398" lon="13.8441491"><ele>295.0</ele><time>2026-04-26T10:24:03.306Z</time></trkpt><trkpt lat="37.8446872" lon="13.8441723"><ele>295.0</ele><time>2026-04-26T10:24:04.306Z</time></trkpt><trkpt lat="37.8448279" lon="13.8441959"><ele>295.0</ele><time>2026-04-26T10:24:05.306Z</time></trkpt><trkpt lat="37.8449595" lon="13.8442273"><ele>295.0</ele><time>2026-04-26T10:24:06.306Z</time></trkpt><trkpt lat="37.8450788" lon="13.8442786"><ele>298.5</ele><time>2026-04-26T10:24:07.306Z</time></trkpt><trkpt lat="37.8451815" lon="13.8443532"><ele>302.0</ele><time>2026-04-26T10:24:08.306Z</time></trkpt><trkpt lat="37.8452575" lon="13.8444616"><ele>305.5</ele><time>2026-04-26T10:24:09.306Z</time></trkpt><trkpt lat="37.8453108" lon="13.8445948"><ele>309.0</ele><time>2026-04-26T10:24:10.305Z</time></trkpt><trkpt lat="37.8453468" lon="13.8447436"><ele>309.0</ele><time>2026-04-26T10:24:11.306Z</time></trkpt><trkpt lat="37.8453589" lon="13.8449107"><ele>309.0</ele><time>2026-04-26T10:24:12.306Z</time></trkpt><trkpt lat="37.8453629" lon="13.8450839"><ele>309.0</ele><time>2026-04-26T10:24:13.306Z</time></trkpt><trkpt lat="37.8453658" lon="13.8452352"><ele>309.0</ele><time>2026-04-26T10:24:14.306Z</time></trkpt><trkpt lat="37.8453743" lon="13.8453681"><ele>307.2</ele><time>2026-04-26T10:24:15.306Z</time></trkpt><trkpt lat="37.8453857" lon="13.845495"><ele>305.4</ele><time>2026-04-26T10:24:16.306Z</time></trkpt><trkpt lat="37.8454131" lon="13.8456304"><ele>303.6</ele><time>2026-04-26T10:24:17.306Z</time></trkpt><trkpt lat="37.8454547" lon="13.8457645"><ele>301.8</ele><time>2026-04-26T10:24:18.306Z</time></trkpt><trkpt lat="37.8455065" lon="13.84589"><ele>300.0</ele><time>2026-04-26T10:24:19.306Z</time></trkpt><trkpt lat="37.8455697" lon="13.8460074"><ele>298.0</ele><time>2026-04-26T10:24:20.306Z</time></trkpt><trkpt lat="37.8456528" lon="13.8461278"><ele>296.0</ele><time>2026-04-26T10:24:21.306Z</time></trkpt><trkpt lat="37.845754" lon="13.8462339"><ele>294.0</ele><time>2026-04-26T10:24:22.306Z</time></trkpt><trkpt lat="37.8458717" lon="13.8463217"><ele>292.0</ele><time>2026-04-26T10:24:23.306Z</time></trkpt><trkpt lat="37.8459987" lon="13.8463996"><ele>292.0</ele><time>2026-04-26T10:24:24.305Z</time></trkpt><trkpt lat="37.8461254" lon="13.8464537"><ele>292.0</ele><time>2026-04-26T10:24:25.306Z</time></trkpt><trkpt lat="37.8462578" lon="13.8464786"><ele>292.0</ele><time>2026-04-26T10:24:26.306Z</time></trkpt><trkpt lat="37.8463981" lon="13.8464808"><ele>292.0</ele><time>2026-04-26T10:24:27.306Z</time></trkpt><trkpt lat="37.8465378" lon="13.846461"><ele>292.0</ele><time>2026-04-26T10:24:28.306Z</time></trkpt><trkpt lat="37.8466828" lon="13.8464187"><ele>292.0</ele><time>2026-04-26T10:24:29.305Z</time></trkpt><trkpt lat="37.8468191" lon="13.8463775"><ele>292.0</ele><time>2026-04-26T10:24:30.306Z</time></trkpt><trkpt lat="37.8469669" lon="13.8463632"><ele>292.0</ele><time>2026-04-26T10:24:31.306Z</time></trkpt><trkpt lat="37.8471107" lon="13.8463754"><ele>292.25</ele><time>2026-04-26T10:24:32.305Z</time></trkpt><trkpt lat="37.8472528" lon="13.8464204"><ele>292.5</ele><time>2026-04-26T10:24:33.306Z</time></trkpt><trkpt lat="37.8473937" lon="13.8464762"><ele>292.75</ele><time>2026-04-26T10:24:34.306Z</time></trkpt><trkpt lat="37.847532" lon="13.8465196"><ele>293.0</ele><time>2026-04-26T10:24:35.306Z</time></trkpt><trkpt lat="37.8476725" lon="13.8465398"><ele>293.0</ele><time>2026-04-26T10:24:36.305Z</time></trkpt><trkpt lat="37.8478283" lon="13.8465377"><ele>293.0</ele><time>2026-04-26T10:24:37.306Z</time></trkpt><trkpt lat="37.8479755" lon="13.8465024"><ele>293.0</ele><time>2026-04-26T10:24:38.306Z</time></trkpt><trkpt lat="37.8481169" lon="13.8464431"><ele>293.0</ele><time>2026-04-26T10:24:39.306Z</time></trkpt><trkpt lat="37.8482535" lon="13.8463675"><ele>293.0</ele><time>2026-04-26T10:24:40.306Z</time></trkpt><trkpt lat="37.8483839" lon="13.8462616"><ele>293.0</ele><time>2026-04-26T10:24:41.306Z</time></trkpt><trkpt lat="37.8485147" lon="13.8461323"><ele>291.0</ele><time>2026-04-26T10:24:42.306Z</time></trkpt><trkpt lat="37.8486431" lon="13.8459933"><ele>289.0</ele><time>2026-04-26T10:24:43.306Z</time></trkpt><trkpt lat="37.8487808" lon="13.8458468"><ele>287.0</ele><time>2026-04-26T10:24:44.306Z</time></trkpt><trkpt lat="37.8489158" lon="13.8457005"><ele>288.0</ele><time>2026-04-26T10:24:45.306Z</time></trkpt><trkpt lat="37.8490494" lon="13.8455516"><ele>289.0</ele><time>2026-04-26T10:24:46.306Z</time></trkpt><trkpt lat="37.8491824" lon="13.8453919"><ele>290.0</ele><time>2026-04-26T10:24:47.306Z</time></trkpt><trkpt lat="37.8493139" lon="13.8452368"><ele>294.33333333333337</ele><time>2026-04-26T10:24:48.305Z</time></trkpt><trkpt lat="37.8494381" lon="13.8450856"><ele>298.6666666666667</ele><time>2026-04-26T10:24:49.306Z</time></trkpt><trkpt lat="37.8495527" lon="13.8449506"><ele>303.0</ele><time>2026-04-26T10:24:50.306Z</time></trkpt><trkpt lat="37.8496697" lon="13.8448523"><ele>303.0</ele><time>2026-04-26T10:24:51.305Z</time></trkpt><trkpt lat="37.8498023" lon="13.844786"><ele>303.0</ele><time>2026-04-26T10:24:52.306Z</time></trkpt><trkpt lat="37.849941" lon="13.8447398"><ele>303.0</ele><time>2026-04-26T10:24:53.306Z</time></trkpt><trkpt lat="37.8500923" lon="13.8447221"><ele>303.0</ele><time>2026-04-26T10:24:54.306Z</time></trkpt><trkpt lat="37.8502355" lon="13.8447192"><ele>302.0</ele><time>2026-04-26T10:24:55.306Z</time></trkpt><trkpt lat="37.8503751" lon="13.8447101"><ele>301.0</ele><time>2026-04-26T10:24:56.306Z</time></trkpt><trkpt lat="37.8505039" lon="13.8446748"><ele>300.0</ele><time>2026-04-26T10:24:57.306Z</time></trkpt><trkpt lat="37.8506393" lon="13.8445833"><ele>299.0</ele><time>2026-04-26T10:24:58.306Z</time></trkpt><trkpt lat="37.8507785" lon="13.8444717"><ele>299.0</ele><time>2026-04-26T10:24:59.306Z</time></trkpt><trkpt lat="37.8509241" lon="13.8443453"><ele>299.0</ele><time>2026-04-26T10:25:00.306Z</time></trkpt><trkpt lat="37.8510695" lon="13.8442128"><ele>299.0</ele><time>2026-04-26T10:25:01.306Z</time></trkpt><trkpt lat="37.8512184" lon="13.8440803"><ele>302.0</ele><time>2026-04-26T10:25:02.306Z</time></trkpt><trkpt lat="37.8513618" lon="13.8439582"><ele>305.0</ele><time>2026-04-26T10:25:03.306Z</time></trkpt><trkpt lat="37.8514899" lon="13.843856"><ele>308.0</ele><time>2026-04-26T10:25:04.306Z</time></trkpt><trkpt lat="37.8516019" lon="13.843775"><ele>308.0</ele><time>2026-04-26T10:25:05.306Z</time></trkpt><trkpt lat="37.8517148" lon="13.8437027"><ele>308.0</ele><time>2026-04-26T10:25:06.306Z</time></trkpt><trkpt lat="37.8518412" lon="13.8436863"><ele>308.0</ele><time>2026-04-26T10:25:07.306Z</time></trkpt><trkpt lat="37.8519767" lon="13.8437037"><ele>308.0</ele><time>2026-04-26T10:25:08.306Z</time></trkpt><trkpt lat="37.8521176" lon="13.8437622"><ele>309.25</ele><time>2026-04-26T10:25:09.306Z</time></trkpt><trkpt lat="37.8522574" lon="13.8438299"><ele>310.5</ele><time>2026-04-26T10:25:10.305Z</time></trkpt><trkpt lat="37.8523962" lon="13.8438933"><ele>311.75</ele><time>2026-04-26T10:25:11.306Z</time></trkpt><trkpt lat="37.8525302" lon="13.8439649"><ele>313.0</ele><time>2026-04-26T10:25:12.306Z</time></trkpt><trkpt lat="37.8526432" lon="13.8440556"><ele>314.25</ele><time>2026-04-26T10:25:13.306Z</time></trkpt><trkpt lat="37.8527336" lon="13.8441809"><ele>315.5</ele><time>2026-04-26T10:25:14.306Z</time></trkpt><trkpt lat="37.852788" lon="13.844344"><ele>316.75</ele><time>2026-04-26T10:25:15.306Z</time></trkpt><trkpt lat="37.8528206" lon="13.844532"><ele>318.0</ele><time>2026-04-26T10:25:16.306Z</time></trkpt><trkpt lat="37.8528517" lon="13.8447381"><ele>318.0</ele><time>2026-04-26T10:25:17.306Z</time></trkpt><trkpt lat="37.8529069" lon="13.844948"><ele>318.0</ele><time>2026-04-26T10:25:18.306Z</time></trkpt><trkpt lat="37.852978" lon="13.8451474"><ele>318.0</ele><time>2026-04-26T10:25:19.306Z</time></trkpt><trkpt lat="37.8530671" lon="13.8453272"><ele>316.5</ele><time>2026-04-26T10:25:20.306Z</time></trkpt><trkpt lat="37.8531527" lon="13.8454903"><ele>315.0</ele><time>2026-04-26T10:25:21.305Z</time></trkpt><trkpt lat="37.8532297" lon="13.8456495"><ele>313.5</ele><time>2026-04-26T10:25:22.306Z</time></trkpt><trkpt lat="37.8533009" lon="13.8458017"><ele>312.0</ele><time>2026-04-26T10:25:23.305Z</time></trkpt><trkpt lat="37.853363" lon="13.8459424"><ele>312.2</ele><time>2026-04-26T10:25:24.306Z</time></trkpt><trkpt lat="37.8534271" lon="13.8460665"><ele>312.4</ele><time>2026-04-26T10:25:25.306Z</time></trkpt><trkpt lat="37.8534929" lon="13.8461605"><ele>312.6</ele><time>2026-04-26T10:25:26.306Z</time></trkpt><trkpt lat="37.853574" lon="13.8462308"><ele>312.8</ele><time>2026-04-26T10:25:27.306Z</time></trkpt><trkpt lat="37.8536714" lon="13.8462853"><ele>313.0</ele><time>2026-04-26T10:25:28.306Z</time></trkpt><trkpt lat="37.8537756" lon="13.8463514"><ele>313.0</ele><time>2026-04-26T10:25:29.306Z</time></trkpt><trkpt lat="37.8538871" lon="13.8464285"><ele>313.0</ele><time>2026-04-26T10:25:30.306Z</time></trkpt><trkpt lat="37.8540059" lon="13.8465065"><ele>313.0</ele><time>2026-04-26T10:25:31.306Z</time></trkpt><trkpt lat="37.854125" lon="13.8465792"><ele>313.0</ele><time>2026-04-26T10:25:32.306Z</time></trkpt><trkpt lat="37.8542445" lon="13.8466539"><ele>314.25</ele><time>2026-04-26T10:25:33.306Z</time></trkpt><trkpt lat="37.8543641" lon="13.8467393"><ele>315.5</ele><time>2026-04-26T10:25:34.306Z</time></trkpt><trkpt lat="37.8544806" lon="13.8468335"><ele>316.75</ele><time>2026-04-26T10:25:35.306Z</time></trkpt><trkpt lat="37.8545917" lon="13.846941"><ele>318.0</ele><time>2026-04-26T10:25:36.306Z</time></trkpt><trkpt lat="37.8546977" lon="13.8470524"><ele>318.0</ele><time>2026-04-26T10:25:37.306Z</time></trkpt><trkpt lat="37.8547914" lon="13.847178"><ele>318.0</ele><time>2026-04-26T10:25:38.306Z</time></trkpt><trkpt lat="37.8548799" lon="13.8473248"><ele>318.0</ele><time>2026-04-26T10:25:39.306Z</time></trkpt><trkpt lat="37.8549639" lon="13.8474893"><ele>318.0</ele><time>2026-04-26T10:25:40.306Z</time></trkpt><trkpt lat="37.8550415" lon="13.8476618"><ele>316.25</ele><time>2026-04-26T10:25:41.306Z</time></trkpt><trkpt lat="37.8551139" lon="13.8478297"><ele>314.5</ele><time>2026-04-26T10:25:42.306Z</time></trkpt><trkpt lat="37.8551834" lon="13.8479858"><ele>312.75</ele><time>2026-04-26T10:25:43.306Z</time></trkpt><trkpt lat="37.8552428" lon="13.848125"><ele>311.0</ele><time>2026-04-26T10:25:44.306Z</time></trkpt><trkpt lat="37.8552973" lon="13.8482475"><ele>311.0</ele><time>2026-04-26T10:25:45.306Z</time></trkpt><trkpt lat="37.8553612" lon="13.8483451"><ele>311.0</ele><time>2026-04-26T10:25:46.306Z</time></trkpt><trkpt lat="37.85543" lon="13.8483948"><ele>311.0</ele><time>2026-04-26T10:25:47.306Z</time></trkpt><trkpt lat="37.85552" lon="13.8483862"><ele>311.0</ele><time>2026-04-26T10:25:48.305Z</time></trkpt><trkpt lat="37.8556146" lon="13.84834"><ele>311.0</ele><time>2026-04-26T10:25:49.306Z</time></trkpt><trkpt lat="37.8556987" lon="13.848237"><ele>311.0</ele><time>2026-04-26T10:25:50.306Z</time></trkpt><trkpt lat="37.8557672" lon="13.84811"><ele>311.0</ele><time>2026-04-26T10:25:51.306Z</time></trkpt><trkpt lat="37.855812" lon="13.847957"><ele>311.0</ele><time>2026-04-26T10:25:52.305Z</time></trkpt><trkpt lat="37.8558445" lon="13.8477961"><ele>311.0</ele><time>2026-04-26T10:25:53.306Z</time></trkpt><trkpt lat="37.8558745" lon="13.847629"><ele>311.75</ele><time>2026-04-26T10:25:54.306Z</time></trkpt><trkpt lat="37.8559066" lon="13.8474679"><ele>312.5</ele><time>2026-04-26T10:25:55.306Z</time></trkpt><trkpt lat="37.8559371" lon="13.8473208"><ele>313.25</ele><time>2026-04-26T10:25:56.305Z</time></trkpt><trkpt lat="37.8559869" lon="13.8471811"><ele>314.0</ele><time>2026-04-26T10:25:57.306Z</time></trkpt><trkpt lat="37.856064" lon="13.8470572"><ele>314.0</ele><time>2026-04-26T10:25:58.306Z</time></trkpt><trkpt lat="37.8561693" lon="13.8469615"><ele>314.0</ele><time>2026-04-26T10:25:59.306Z</time></trkpt><trkpt lat="37.8563082" lon="13.8469054"><ele>314.0</ele><time>2026-04-26T10:26:00.306Z</time></trkpt><trkpt lat="37.8564602" lon="13.8468565"><ele>314.0</ele><time>2026-04-26T10:26:01.306Z</time></trkpt><trkpt lat="37.8566235" lon="13.8468089"><ele>317.6666666666667</ele><time>2026-04-26T10:26:02.306Z</time></trkpt><trkpt lat="37.8567952" lon="13.8467685"><ele>321.3333333333333</ele><time>2026-04-26T10:26:03.306Z</time></trkpt><trkpt lat="37.8569716" lon="13.8467303"><ele>325.0</ele><time>2026-04-26T10:26:04.306Z</time></trkpt><trkpt lat="37.857149" lon="13.8466942"><ele>325.0</ele><time>2026-04-26T10:26:05.306Z</time></trkpt><trkpt lat="37.8573142" lon="13.8466637"><ele>325.0</ele><time>2026-04-26T10:26:06.306Z</time></trkpt><trkpt lat="37.85747" lon="13.8466533"><ele>325.0</ele><time>2026-04-26T10:26:07.306Z</time></trkpt><trkpt lat="37.8576047" lon="13.8466657"><ele>324.25</ele><time>2026-04-26T10:26:08.306Z</time></trkpt><trkpt lat="37.8577372" lon="13.8467132"><ele>323.5</ele><time>2026-04-26T10:26:09.306Z</time></trkpt><trkpt lat="37.8578731" lon="13.8467878"><ele>322.75</ele><time>2026-04-26T10:26:10.306Z</time></trkpt><trkpt lat="37.8580076" lon="13.8468864"><ele>322.0</ele><time>2026-04-26T10:26:11.306Z</time></trkpt><trkpt lat="37.8581559" lon="13.8469896"><ele>322.0</ele><time>2026-04-26T10:26:12.306Z</time></trkpt><trkpt lat="37.858298" lon="13.8471015"><ele>322.0</ele><time>2026-04-26T10:26:13.306Z</time></trkpt><trkpt lat="37.8584228" lon="13.8472218"><ele>322.0</ele><time>2026-04-26T10:26:14.306Z</time></trkpt><trkpt lat="37.8585328" lon="13.8473581"><ele>325.5</ele><time>2026-04-26T10:26:15.306Z</time></trkpt><trkpt lat="37.858626" lon="13.8475074"><ele>329.0</ele><time>2026-04-26T10:26:16.306Z</time></trkpt><trkpt lat="37.858697" lon="13.8476632"><ele>332.5</ele><time>2026-04-26T10:26:17.306Z</time></trkpt><trkpt lat="37.8587532" lon="13.8478224"><ele>336.0</ele><time>2026-04-26T10:26:18.306Z</time></trkpt><trkpt lat="37.8587734" lon="13.8480101"><ele>336.0</ele><time>2026-04-26T10:26:19.306Z</time></trkpt><trkpt lat="37.8587664" lon="13.8482156"><ele>336.0</ele><time>2026-04-26T10:26:20.306Z</time></trkpt><trkpt lat="37.8587521" lon="13.8484319"><ele>336.0</ele><time>2026-04-26T10:26:21.306Z</time></trkpt><trkpt lat="37.8587452" lon="13.8486565"><ele>336.3333333333333</ele><time>2026-04-26T10:26:22.306Z</time></trkpt><trkpt lat="37.8587527" lon="13.8488873"><ele>336.66666666666663</ele><time>2026-04-26T10:26:23.306Z</time></trkpt><trkpt lat="37.858772" lon="13.8491163"><ele>337.0</ele><time>2026-04-26T10:26:24.306Z</time></trkpt><trkpt lat="37.858794" lon="13.8493313"><ele>335.25</ele><time>2026-04-26T10:26:25.306Z</time></trkpt><trkpt lat="37.8588139" lon="13.8495263"><ele>333.5</ele><time>2026-04-26T10:26:26.306Z</time></trkpt><trkpt lat="37.8588367" lon="13.8497039"><ele>331.75</ele><time>2026-04-26T10:26:27.306Z</time></trkpt><trkpt lat="37.8588811" lon="13.8498664"><ele>330.0</ele><time>2026-04-26T10:26:28.306Z</time></trkpt><trkpt lat="37.8589428" lon="13.850018"><ele>329.75</ele><time>2026-04-26T10:26:29.306Z</time></trkpt><trkpt lat="37.8590345" lon="13.8501558"><ele>329.5</ele><time>2026-04-26T10:26:30.306Z</time></trkpt><trkpt lat="37.8591453" lon="13.8502664"><ele>329.25</ele><time>2026-04-26T10:26:31.306Z</time></trkpt><trkpt lat="37.8592799" lon="13.8503564"><ele>329.0</ele><time>2026-04-26T10:26:32.306Z</time></trkpt><trkpt lat="37.859423" lon="13.8504127"><ele>329.0</ele><time>2026-04-26T10:26:33.306Z</time></trkpt><trkpt lat="37.8595634" lon="13.8504547"><ele>329.0</ele><time>2026-04-26T10:26:34.305Z</time></trkpt><trkpt lat="37.859697" lon="13.850515"><ele>329.0</ele><time>2026-04-26T10:26:35.306Z</time></trkpt><trkpt lat="37.8598058" lon="13.8506013"><ele>329.0</ele><time>2026-04-26T10:26:36.306Z</time></trkpt><trkpt lat="37.8599011" lon="13.8507212"><ele>329.0</ele><time>2026-04-26T10:26:37.306Z</time></trkpt><trkpt lat="37.8599939" lon="13.8508643"><ele>329.0</ele><time>2026-04-26T10:26:38.306Z</time></trkpt><trkpt lat="37.860081" lon="13.8510165"><ele>329.0</ele><time>2026-04-26T10:26:39.306Z</time></trkpt><trkpt lat="37.860171" lon="13.8511699"><ele>329.0</ele><time>2026-04-26T10:26:40.306Z</time></trkpt><trkpt lat="37.8602521" lon="13.8513132"><ele>329.2</ele><time>2026-04-26T10:26:41.306Z</time></trkpt><trkpt lat="37.8603279" lon="13.8514361"><ele>329.4</ele><time>2026-04-26T10:26:42.306Z</time></trkpt><trkpt lat="37.8604017" lon="13.8515402"><ele>329.6</ele><time>2026-04-26T10:26:43.306Z</time></trkpt><trkpt lat="37.8604904" lon="13.8516289"><ele>329.8</ele><time>2026-04-26T10:26:44.306Z</time></trkpt><trkpt lat="37.8605743" lon="13.8516933"><ele>330.0</ele><time>2026-04-26T10:26:45.306Z</time></trkpt><trkpt lat="37.8606633" lon="13.8517369"><ele>330.0</ele><time>2026-04-26T10:26:46.306Z</time></trkpt><trkpt lat="37.8607432" lon="13.8517594"><ele>330.0</ele><time>2026-04-26T10:26:47.306Z</time></trkpt><trkpt lat="37.8608101" lon="13.851768"><ele>330.0</ele><time>2026-04-26T10:26:48.306Z</time></trkpt><trkpt lat="37.8608993" lon="13.8517662"><ele>330.0</ele><time>2026-04-26T10:26:50.306Z</time></trkpt><trkpt lat="37.861026" lon="13.8517721"><ele>330.0</ele><time>2026-04-26T10:28:46.305Z</time></trkpt><trkpt lat="37.8611509" lon="13.8517448"><ele>330.6</ele><time>2026-04-26T10:28:48.305Z</time></trkpt><trkpt lat="37.8612318" lon="13.8517335"><ele>331.2</ele><time>2026-04-26T10:28:49.305Z</time></trkpt><trkpt lat="37.8613215" lon="13.8517324"><ele>331.79999999999995</ele><time>2026-04-26T10:28:50.305Z</time></trkpt><trkpt lat="37.8614214" lon="13.8517318"><ele>332.4</ele><time>2026-04-26T10:28:51.305Z</time></trkpt><trkpt lat="37.8615227" lon="13.8517295"><ele>333.0</ele><time>2026-04-26T10:28:52.305Z</time></trkpt><trkpt lat="37.8616268" lon="13.8517274"><ele>333.0</ele><time>2026-04-26T10:28:53.305Z</time></trkpt><trkpt lat="37.8617278" lon="13.8517241"><ele>333.0</ele><time>2026-04-26T10:28:54.305Z</time></trkpt><trkpt lat="37.8618182" lon="13.8517298"><ele>333.0</ele><time>2026-04-26T10:28:55.305Z</time></trkpt><trkpt lat="37.86191" lon="13.851744"><ele>333.0</ele><time>2026-04-26T10:28:56.305Z</time></trkpt><trkpt lat="37.8620003" lon="13.8517628"><ele>333.0</ele><time>2026-04-26T10:28:57.305Z</time></trkpt><trkpt lat="37.8620871" lon="13.8517865"><ele>332.59999999999997</ele><time>2026-04-26T10:28:58.305Z</time></trkpt><trkpt lat="37.8621783" lon="13.8518127"><ele>332.2</ele><time>2026-04-26T10:28:59.305Z</time></trkpt><trkpt lat="37.8622678" lon="13.8518418"><ele>331.8</ele><time>2026-04-26T10:29:00.305Z</time></trkpt><trkpt lat="37.8623489" lon="13.8518733"><ele>331.4</ele><time>2026-04-26T10:29:01.305Z</time></trkpt><trkpt lat="37.8624173" lon="13.8519049"><ele>331.0</ele><time>2026-04-26T10:29:02.305Z</time></trkpt><trkpt lat="37.8625169" lon="13.8519924"><ele>331.0</ele><time>2026-04-26T10:29:04.304Z</time></trkpt><trkpt lat="37.8625625" lon="13.8520616"><ele>331.0</ele><time>2026-04-26T10:29:05.305Z</time></trkpt><trkpt lat="37.8625974" lon="13.8521395"><ele>331.0</ele><time>2026-04-26T10:29:06.305Z</time></trkpt><trkpt lat="37.8626251" lon="13.8522157"><ele>331.0</ele><time>2026-04-26T10:29:07.305Z</time></trkpt><trkpt lat="37.8626424" lon="13.8522924"><ele>331.0</ele><time>2026-04-26T10:29:08.305Z</time></trkpt><trkpt lat="37.8626568" lon="13.8523769"><ele>331.0</ele><time>2026-04-26T10:29:09.305Z</time></trkpt><trkpt lat="37.8626624" lon="13.8524718"><ele>331.0</ele><time>2026-04-26T10:29:10.305Z</time></trkpt><trkpt lat="37.862658" lon="13.8525793"><ele>330.66666666666663</ele><time>2026-04-26T10:29:11.305Z</time></trkpt><trkpt lat="37.8626407" lon="13.8526865"><ele>330.3333333333333</ele><time>2026-04-26T10:29:12.305Z</time></trkpt><trkpt lat="37.8626191" lon="13.8527931"><ele>330.0</ele><time>2026-04-26T10:29:13.305Z</time></trkpt><trkpt lat="37.8626042" lon="13.8528964"><ele>329.6666666666667</ele><time>2026-04-26T10:29:14.305Z</time></trkpt><trkpt lat="37.8625986" lon="13.852993"><ele>329.33333333333337</ele><time>2026-04-26T10:29:15.305Z</time></trkpt><trkpt lat="37.8626173" lon="13.8530715"><ele>329.0</ele><time>2026-04-26T10:29:16.305Z</time></trkpt><trkpt lat="37.8627016" lon="13.8531801"><ele>328.5</ele><time>2026-04-26T10:29:18.305Z</time></trkpt><trkpt lat="37.8627695" lon="13.85321"><ele>328.0</ele><time>2026-04-26T10:29:19.305Z</time></trkpt><trkpt lat="37.8628485" lon="13.8532026"><ele>327.5</ele><time>2026-04-26T10:29:20.304Z</time></trkpt><trkpt lat="37.8629166" lon="13.8532267"><ele>327.0</ele><time>2026-04-26T10:29:21.305Z</time></trkpt><trkpt lat="37.862977" lon="13.8531576"><ele>326.5</ele><time>2026-04-26T10:29:22.305Z</time></trkpt><trkpt lat="37.8630207" lon="13.8530653"><ele>326.0</ele><time>2026-04-26T10:29:23.305Z</time></trkpt><trkpt lat="37.8630594" lon="13.8529589"><ele>326.0</ele><time>2026-04-26T10:29:24.304Z</time></trkpt><trkpt lat="37.8630953" lon="13.8528446"><ele>326.0</ele><time>2026-04-26T10:29:25.305Z</time></trkpt><trkpt lat="37.8631296" lon="13.8527268"><ele>326.0</ele><time>2026-04-26T10:29:26.305Z</time></trkpt><trkpt lat="37.8631637" lon="13.8526128"><ele>326.0</ele><time>2026-04-26T10:29:27.305Z</time></trkpt><trkpt lat="37.8632022" lon="13.8524975"><ele>326.0</ele><time>2026-04-26T10:29:28.305Z</time></trkpt><trkpt lat="37.8632429" lon="13.8523646"><ele>328.0</ele><time>2026-04-26T10:29:29.305Z</time></trkpt><trkpt lat="37.8632873" lon="13.852226"><ele>330.0</ele><time>2026-04-26T10:29:30.305Z</time></trkpt><trkpt lat="37.8633332" lon="13.8520784"><ele>332.0</ele><time>2026-04-26T10:29:31.305Z</time></trkpt><trkpt lat="37.8633794" lon="13.8519261"><ele>334.0</ele><time>2026-04-26T10:29:32.305Z</time></trkpt><trkpt lat="37.8634296" lon="13.8517727"><ele>331.75</ele><time>2026-04-26T10:29:33.305Z</time></trkpt><trkpt lat="37.8634847" lon="13.8516122"><ele>329.5</ele><time>2026-04-26T10:29:34.305Z</time></trkpt><trkpt lat="37.8635372" lon="13.8514444"><ele>327.25</ele><time>2026-04-26T10:29:35.305Z</time></trkpt><trkpt lat="37.8635888" lon="13.8512673"><ele>325.0</ele><time>2026-04-26T10:29:36.305Z</time></trkpt><trkpt lat="37.8636395" lon="13.8510878"><ele>326.5</ele><time>2026-04-26T10:29:37.305Z</time></trkpt><trkpt lat="37.8636864" lon="13.8509158"><ele>328.0</ele><time>2026-04-26T10:29:38.304Z</time></trkpt><trkpt lat="37.8637219" lon="13.8507606"><ele>329.5</ele><time>2026-04-26T10:29:39.305Z</time></trkpt><trkpt lat="37.8637538" lon="13.8506151"><ele>331.0</ele><time>2026-04-26T10:29:40.305Z</time></trkpt><trkpt lat="37.8637946" lon="13.8504906"><ele>331.0</ele><time>2026-04-26T10:29:41.305Z</time></trkpt><trkpt lat="37.863832" lon="13.8503624"><ele>331.0</ele><time>2026-04-26T10:29:42.304Z</time></trkpt><trkpt lat="37.8638799" lon="13.8502477"><ele>331.0</ele><time>2026-04-26T10:29:43.305Z</time></trkpt><trkpt lat="37.8639384" lon="13.8501478"><ele>331.0</ele><time>2026-04-26T10:29:44.305Z</time></trkpt><trkpt lat="37.8640016" lon="13.8500556"><ele>331.0</ele><time>2026-04-26T10:29:45.305Z</time></trkpt><trkpt lat="37.8640664" lon="13.8499727"><ele>330.66666666666663</ele><time>2026-04-26T10:29:46.305Z</time></trkpt><trkpt lat="37.8641402" lon="13.8498988"><ele>330.3333333333333</ele><time>2026-04-26T10:29:47.305Z</time></trkpt><trkpt lat="37.8642179" lon="13.8498383"><ele>330.0</ele><time>2026-04-26T10:29:48.305Z</time></trkpt><trkpt lat="37.864295" lon="13.8498012"><ele>329.6666666666667</ele><time>2026-04-26T10:29:49.305Z</time></trkpt><trkpt lat="37.8643762" lon="13.8497738"><ele>329.33333333333337</ele><time>2026-04-26T10:29:50.305Z</time></trkpt><trkpt lat="37.8644594" lon="13.8497518"><ele>329.0</ele><time>2026-04-26T10:29:51.305Z</time></trkpt><trkpt lat="37.8645438" lon="13.8497314"><ele>329.0</ele><time>2026-04-26T10:29:52.305Z</time></trkpt><trkpt lat="37.8646375" lon="13.8497047"><ele>329.0</ele><time>2026-04-26T10:29:53.305Z</time></trkpt><trkpt lat="37.8647206" lon="13.8496749"><ele>329.0</ele><time>2026-04-26T10:29:54.305Z</time></trkpt><trkpt lat="37.8647924" lon="13.8496432"><ele>329.0</ele><time>2026-04-26T10:29:55.305Z</time></trkpt><trkpt lat="37.8648628" lon="13.8496071"><ele>329.0</ele><time>2026-04-26T10:29:56.305Z</time></trkpt><trkpt lat="37.8649345" lon="13.8495598"><ele>329.0</ele><time>2026-04-26T10:29:57.305Z</time></trkpt><trkpt lat="37.8650122" lon="13.8495117"><ele>329.0</ele><time>2026-04-26T10:29:58.305Z</time></trkpt><trkpt lat="37.8650939" lon="13.8494558"><ele>329.0</ele><time>2026-04-26T10:29:59.304Z</time></trkpt><trkpt lat="37.8651812" lon="13.8494008"><ele>329.0</ele><time>2026-04-26T10:30:00.305Z</time></trkpt><trkpt lat="37.8652705" lon="13.8493528"><ele>329.0</ele><time>2026-04-26T10:30:01.305Z</time></trkpt><trkpt lat="37.8653575" lon="13.8492956"><ele>329.0</ele><time>2026-04-26T10:30:02.305Z</time></trkpt><trkpt lat="37.8654426" lon="13.8492404"><ele>331.79999999999995</ele><time>2026-04-26T10:30:03.305Z</time></trkpt><trkpt lat="37.8655416" lon="13.8492066"><ele>334.59999999999997</ele><time>2026-04-26T10:30:04.305Z</time></trkpt><trkpt lat="37.8656366" lon="13.8491667"><ele>337.4</ele><time>2026-04-26T10:30:05.305Z</time></trkpt><trkpt lat="37.8657313" lon="13.8491298"><ele>340.2</ele><time>2026-04-26T10:30:06.305Z</time></trkpt><trkpt lat="37.8658152" lon="13.8491088"><ele>343.0</ele><time>2026-04-26T10:30:07.305Z</time></trkpt><trkpt lat="37.8658825" lon="13.8490957"><ele>343.2</ele><time>2026-04-26T10:30:08.305Z</time></trkpt><trkpt lat="37.8660122" lon="13.8490987"><ele>343.4</ele><time>2026-04-26T10:30:10.305Z</time></trkpt><trkpt lat="37.8660872" lon="13.8491042"><ele>343.59999999999997</ele><time>2026-04-26T10:30:11.305Z</time></trkpt><trkpt lat="37.8661635" lon="13.8491167"><ele>343.79999999999995</ele><time>2026-04-26T10:30:12.305Z</time></trkpt><trkpt lat="37.8662604" lon="13.8491271"><ele>344.0</ele><time>2026-04-26T10:30:13.305Z</time></trkpt><trkpt lat="37.8663625" lon="13.8491337"><ele>344.0</ele><time>2026-04-26T10:30:14.305Z</time></trkpt><trkpt lat="37.8664801" lon="13.8491075"><ele>344.0</ele><time>2026-04-26T10:30:15.305Z</time></trkpt><trkpt lat="37.8665938" lon="13.849069"><ele>344.0</ele><time>2026-04-26T10:30:16.305Z</time></trkpt><trkpt lat="37.866701" lon="13.849002"><ele>344.0</ele><time>2026-04-26T10:30:17.305Z</time></trkpt><trkpt lat="37.8668044" lon="13.8489169"><ele>342.25</ele><time>2026-04-26T10:30:18.305Z</time></trkpt><trkpt lat="37.8669047" lon="13.8488229"><ele>340.5</ele><time>2026-04-26T10:30:19.305Z</time></trkpt><trkpt lat="37.8670172" lon="13.8487056"><ele>338.75</ele><time>2026-04-26T10:30:20.305Z</time></trkpt><trkpt lat="37.8671408" lon="13.8485688"><ele>337.0</ele><time>2026-04-26T10:30:21.305Z</time></trkpt><trkpt lat="37.8672564" lon="13.8484524"><ele>339.5</ele><time>2026-04-26T10:30:22.305Z</time></trkpt><trkpt lat="37.8673722" lon="13.8483716"><ele>342.0</ele><time>2026-04-26T10:30:23.305Z</time></trkpt><trkpt lat="37.8674915" lon="13.8483213"><ele>344.5</ele><time>2026-04-26T10:30:24.305Z</time></trkpt><trkpt lat="37.8676274" lon="13.8483048"><ele>347.0</ele><time>2026-04-26T10:30:25.305Z</time></trkpt><trkpt lat="37.8677806" lon="13.8482981"><ele>347.0</ele><time>2026-04-26T10:30:26.305Z</time></trkpt><trkpt lat="37.8679473" lon="13.8483119"><ele>347.0</ele><time>2026-04-26T10:30:27.305Z</time></trkpt><trkpt lat="37.8681192" lon="13.8483218"><ele>347.0</ele><time>2026-04-26T10:30:28.305Z</time></trkpt><trkpt lat="37.8682952" lon="13.8483219"><ele>345.6666666666667</ele><time>2026-04-26T10:30:29.305Z</time></trkpt><trkpt lat="37.8684709" lon="13.8483163"><ele>344.3333333333333</ele><time>2026-04-26T10:30:30.305Z</time></trkpt><trkpt lat="37.8686365" lon="13.8483074"><ele>343.0</ele><time>2026-04-26T10:30:31.305Z</time></trkpt><trkpt lat="37.8687988" lon="13.8483055"><ele>343.0</ele><time>2026-04-26T10:30:32.305Z</time></trkpt><trkpt lat="37.8689515" lon="13.8483004"><ele>343.0</ele><time>2026-04-26T10:30:33.305Z</time></trkpt><trkpt lat="37.8690976" lon="13.8482739"><ele>343.0</ele><time>2026-04-26T10:30:34.305Z</time></trkpt><trkpt lat="37.8692273" lon="13.8482192"><ele>343.0</ele><time>2026-04-26T10:30:35.304Z</time></trkpt><trkpt lat="37.8693654" lon="13.8481316"><ele>340.66666666666663</ele><time>2026-04-26T10:30:36.305Z</time></trkpt><trkpt lat="37.8695086" lon="13.8480114"><ele>338.3333333333333</ele><time>2026-04-26T10:30:37.305Z</time></trkpt><trkpt lat="37.8696335" lon="13.8478941"><ele>336.0</ele><time>2026-04-26T10:30:38.305Z</time></trkpt><trkpt lat="37.8697447" lon="13.8477618"><ele>337.75</ele><time>2026-04-26T10:30:39.305Z</time></trkpt><trkpt lat="37.8698206" lon="13.8476178"><ele>339.5</ele><time>2026-04-26T10:30:40.305Z</time></trkpt><trkpt lat="37.8698672" lon="13.8474484"><ele>341.25</ele><time>2026-04-26T10:30:41.305Z</time></trkpt><trkpt lat="37.8698941" lon="13.8472614"><ele>343.0</ele><time>2026-04-26T10:30:42.305Z</time></trkpt><trkpt lat="37.8699171" lon="13.8470649"><ele>343.0</ele><time>2026-04-26T10:30:43.305Z</time></trkpt><trkpt lat="37.8699313" lon="13.8468762"><ele>343.0</ele><time>2026-04-26T10:30:44.305Z</time></trkpt><trkpt lat="37.8699384" lon="13.8467282"><ele>343.0</ele><time>2026-04-26T10:30:45.305Z</time></trkpt><trkpt lat="37.8699157" lon="13.8465823"><ele>343.0</ele><time>2026-04-26T10:30:46.305Z</time></trkpt><trkpt lat="37.8699768" lon="13.8464898"><ele>343.75</ele><time>2026-04-26T10:30:47.305Z</time></trkpt><trkpt lat="37.8700657" lon="13.8464145"><ele>344.5</ele><time>2026-04-26T10:30:48.305Z</time></trkpt><trkpt lat="37.8701941" lon="13.8463507"><ele>345.25</ele><time>2026-04-26T10:30:49.305Z</time></trkpt><trkpt lat="37.870332" lon="13.8462692"><ele>346.0</ele><time>2026-04-26T10:30:50.305Z</time></trkpt><trkpt lat="37.870476" lon="13.8461778"><ele>346.0</ele><time>2026-04-26T10:30:51.305Z</time></trkpt><trkpt lat="37.8706153" lon="13.8460801"><ele>346.0</ele><time>2026-04-26T10:30:52.305Z</time></trkpt><trkpt lat="37.8707353" lon="13.8459636"><ele>346.0</ele><time>2026-04-26T10:30:53.305Z</time></trkpt><trkpt lat="37.870827" lon="13.8458286"><ele>345.75</ele><time>2026-04-26T10:30:54.305Z</time></trkpt><trkpt lat="37.8709057" lon="13.8456852"><ele>345.5</ele><time>2026-04-26T10:30:55.305Z</time></trkpt><trkpt lat="37.8709715" lon="13.8455193"><ele>345.25</ele><time>2026-04-26T10:30:56.305Z</time></trkpt><trkpt lat="37.8710351" lon="13.845342"><ele>345.0</ele><time>2026-04-26T10:30:57.305Z</time></trkpt><trkpt lat="37.8710992" lon="13.8451565"><ele>347.0</ele><time>2026-04-26T10:30:58.305Z</time></trkpt><trkpt lat="37.8711648" lon="13.8449768"><ele>349.0</ele><time>2026-04-26T10:30:59.305Z</time></trkpt><trkpt lat="37.8712258" lon="13.8448069"><ele>351.0</ele><time>2026-04-26T10:31:00.305Z</time></trkpt><trkpt lat="37.8712882" lon="13.8446311"><ele>351.0</ele><time>2026-04-26T10:31:01.305Z</time></trkpt><trkpt lat="37.8713459" lon="13.844461"><ele>351.0</ele><time>2026-04-26T10:31:02.305Z</time></trkpt><trkpt lat="37.8713956" lon="13.8443014"><ele>351.0</ele><time>2026-04-26T10:31:03.305Z</time></trkpt><trkpt lat="37.8714427" lon="13.8441514"><ele>351.0</ele><time>2026-04-26T10:31:04.305Z</time></trkpt><trkpt lat="37.8715047" lon="13.8440315"><ele>351.8</ele><time>2026-04-26T10:31:05.305Z</time></trkpt><trkpt lat="37.8715782" lon="13.8439229"><ele>352.6</ele><time>2026-04-26T10:31:06.305Z</time></trkpt><trkpt lat="37.8716638" lon="13.8438417"><ele>353.4</ele><time>2026-04-26T10:31:07.305Z</time></trkpt><trkpt lat="37.871749" lon="13.8438083"><ele>354.2</ele><time>2026-04-26T10:31:08.304Z</time></trkpt><trkpt lat="37.8718327" lon="13.8438289"><ele>355.0</ele><time>2026-04-26T10:31:09.305Z</time></trkpt><trkpt lat="37.8719175" lon="13.843881"><ele>355.0</ele><time>2026-04-26T10:31:10.305Z</time></trkpt><trkpt lat="37.8720082" lon="13.8439337"><ele>355.0</ele><time>2026-04-26T10:31:11.305Z</time></trkpt><trkpt lat="37.8721004" lon="13.8439795"><ele>355.0</ele><time>2026-04-26T10:31:12.305Z</time></trkpt><trkpt lat="37.8722002" lon="13.8439828"><ele>355.0</ele><time>2026-04-26T10:31:13.305Z</time></trkpt><trkpt lat="37.8723015" lon="13.843954"><ele>355.0</ele><time>2026-04-26T10:31:14.305Z</time></trkpt><trkpt lat="37.8723998" lon="13.8439017"><ele>355.0</ele><time>2026-04-26T10:31:15.305Z</time></trkpt><trkpt lat="37.872504" lon="13.8438173"><ele>355.0</ele><time>2026-04-26T10:31:16.305Z</time></trkpt><trkpt lat="37.8726116" lon="13.8437362"><ele>355.0</ele><time>2026-04-26T10:31:17.305Z</time></trkpt><trkpt lat="37.872729" lon="13.8436737"><ele>355.0</ele><time>2026-04-26T10:31:18.305Z</time></trkpt><trkpt lat="37.8728496" lon="13.8436283"><ele>355.25</ele><time>2026-04-26T10:31:19.305Z</time></trkpt><trkpt lat="37.8729817" lon="13.8435809"><ele>355.5</ele><time>2026-04-26T10:31:20.305Z</time></trkpt><trkpt lat="37.8731234" lon="13.8435402"><ele>355.75</ele><time>2026-04-26T10:31:21.305Z</time></trkpt><trkpt lat="37.873271" lon="13.843491"><ele>356.0</ele><time>2026-04-26T10:31:22.305Z</time></trkpt><trkpt lat="37.8734222" lon="13.8434385"><ele>359.33333333333337</ele><time>2026-04-26T10:31:23.305Z</time></trkpt><trkpt lat="37.8735669" lon="13.8433802"><ele>362.6666666666667</ele><time>2026-04-26T10:31:24.305Z</time></trkpt><trkpt lat="37.8737151" lon="13.8433294"><ele>366.0</ele><time>2026-04-26T10:31:25.305Z</time></trkpt><trkpt lat="37.8738655" lon="13.8432963"><ele>366.0</ele><time>2026-04-26T10:31:26.305Z</time></trkpt><trkpt lat="37.8740164" lon="13.8432821"><ele>366.0</ele><time>2026-04-26T10:31:27.305Z</time></trkpt><trkpt lat="37.8741652" lon="13.8432774"><ele>366.0</ele><time>2026-04-26T10:31:28.305Z</time></trkpt><trkpt lat="37.8743074" lon="13.8432764"><ele>366.0</ele><time>2026-04-26T10:31:29.305Z</time></trkpt><trkpt lat="37.8744468" lon="13.8432703"><ele>365.3333333333333</ele><time>2026-04-26T10:31:30.305Z</time></trkpt><trkpt lat="37.8745893" lon="13.8432489"><ele>364.66666666666663</ele><time>2026-04-26T10:31:31.305Z</time></trkpt><trkpt lat="37.874793" lon="13.8431581"><ele>364.0</ele><time>2026-04-26T10:31:32.305Z</time></trkpt><trkpt lat="37.8748861" lon="13.8431022"><ele>364.0</ele><time>2026-04-26T10:31:33.305Z</time></trkpt><trkpt lat="37.8749961" lon="13.8430102"><ele>364.0</ele><time>2026-04-26T10:31:34.304Z</time></trkpt><trkpt lat="37.8751308" lon="13.8428919"><ele>364.0</ele><time>2026-04-26T10:31:35.305Z</time></trkpt><trkpt lat="37.8752598" lon="13.8427435"><ele>365.0</ele><time>2026-04-26T10:31:36.305Z</time></trkpt><trkpt lat="37.8753796" lon="13.842582"><ele>366.0</ele><time>2026-04-26T10:31:37.305Z</time></trkpt><trkpt lat="37.8755052" lon="13.8424397"><ele>367.0</ele><time>2026-04-26T10:31:38.305Z</time></trkpt><trkpt lat="37.8756332" lon="13.8422938"><ele>367.0</ele><time>2026-04-26T10:31:39.305Z</time></trkpt><trkpt lat="37.8757618" lon="13.842152"><ele>367.0</ele><time>2026-04-26T10:31:40.305Z</time></trkpt><trkpt lat="37.875892" lon="13.8420129"><ele>367.0</ele><time>2026-04-26T10:31:41.305Z</time></trkpt><trkpt lat="37.8760172" lon="13.8418683"><ele>368.3333333333333</ele><time>2026-04-26T10:31:42.305Z</time></trkpt><trkpt lat="37.8761415" lon="13.8417218"><ele>369.6666666666667</ele><time>2026-04-26T10:31:43.305Z</time></trkpt><trkpt lat="37.8762639" lon="13.8415731"><ele>371.0</ele><time>2026-04-26T10:31:44.304Z</time></trkpt><trkpt lat="37.8763944" lon="13.8414234"><ele>371.0</ele><time>2026-04-26T10:31:45.305Z</time></trkpt><trkpt lat="37.8765234" lon="13.8412708"><ele>371.0</ele><time>2026-04-26T10:31:46.305Z</time></trkpt><trkpt lat="37.8766515" lon="13.8411184"><ele>371.0</ele><time>2026-04-26T10:31:47.304Z</time></trkpt><trkpt lat="37.876774" lon="13.8409549"><ele>370.6666666666667</ele><time>2026-04-26T10:31:48.305Z</time></trkpt><trkpt lat="37.8768992" lon="13.8407915"><ele>370.3333333333333</ele><time>2026-04-26T10:31:49.305Z</time></trkpt><trkpt lat="37.8770231" lon="13.840633"><ele>370.0</ele><time>2026-04-26T10:31:50.305Z</time></trkpt><trkpt lat="37.8771447" lon="13.8405025"><ele>370.0</ele><time>2026-04-26T10:31:51.305Z</time></trkpt><trkpt lat="37.8772855" lon="13.8404035"><ele>370.0</ele><time>2026-04-26T10:31:52.305Z</time></trkpt><trkpt lat="37.8774204" lon="13.8403091"><ele>370.0</ele><time>2026-04-26T10:31:53.305Z</time></trkpt><trkpt lat="37.8775686" lon="13.8402481"><ele>369.3333333333333</ele><time>2026-04-26T10:31:54.304Z</time></trkpt><trkpt lat="37.8777186" lon="13.8402035"><ele>368.6666666666667</ele><time>2026-04-26T10:31:55.305Z</time></trkpt><trkpt lat="37.8778793" lon="13.8401618"><ele>368.0</ele><time>2026-04-26T10:31:56.305Z</time></trkpt><trkpt lat="37.8780497" lon="13.8401035"><ele>368.0</ele><time>2026-04-26T10:31:57.305Z</time></trkpt><trkpt lat="37.8782177" lon="13.8400237"><ele>368.0</ele><time>2026-04-26T10:31:58.305Z</time></trkpt><trkpt lat="37.878382" lon="13.8399153"><ele>368.0</ele><time>2026-04-26T10:31:59.305Z</time></trkpt><trkpt lat="37.8785167" lon="13.8397754"><ele>368.0</ele><time>2026-04-26T10:32:00.305Z</time></trkpt><trkpt lat="37.8785994" lon="13.8396181"><ele>368.0</ele><time>2026-04-26T10:32:01.305Z</time></trkpt><trkpt lat="37.8787157" lon="13.8394116"><ele>368.0</ele><time>2026-04-26T10:32:02.304Z</time></trkpt><trkpt lat="37.8787916" lon="13.839231"><ele>370.0</ele><time>2026-04-26T10:32:03.305Z</time></trkpt><trkpt lat="37.8788362" lon="13.8390411"><ele>372.0</ele><time>2026-04-26T10:32:04.305Z</time></trkpt><trkpt lat="37.878893" lon="13.8388356"><ele>374.0</ele><time>2026-04-26T10:32:05.305Z</time></trkpt><trkpt lat="37.8789705" lon="13.8386515"><ele>375.6666666666667</ele><time>2026-04-26T10:32:06.305Z</time></trkpt><trkpt lat="37.8790507" lon="13.8384335"><ele>377.3333333333333</ele><time>2026-04-26T10:32:07.305Z</time></trkpt><trkpt lat="37.8790877" lon="13.838223"><ele>379.0</ele><time>2026-04-26T10:32:08.305Z</time></trkpt><trkpt lat="37.8791017" lon="13.8380056"><ele>379.0</ele><time>2026-04-26T10:32:09.305Z</time></trkpt><trkpt lat="37.8790849" lon="13.8378167"><ele>379.0</ele><time>2026-04-26T10:32:10.305Z</time></trkpt><trkpt lat="37.8790894" lon="13.8376769"><ele>379.0</ele><time>2026-04-26T10:32:11.305Z</time></trkpt><trkpt lat="37.8790757" lon="13.8375889"><ele>379.0</ele><time>2026-04-26T10:32:12.305Z</time></trkpt><trkpt lat="37.8791521" lon="13.8375777"><ele>379.0</ele><time>2026-04-26T10:32:15.305Z</time></trkpt><trkpt lat="37.8792833" lon="13.8376154"><ele>380.75</ele><time>2026-04-26T10:32:17.305Z</time></trkpt><trkpt lat="37.8793997" lon="13.8375943"><ele>382.5</ele><time>2026-04-26T10:32:18.304Z</time></trkpt><trkpt lat="37.8795015" lon="13.8375243"><ele>384.25</ele><time>2026-04-26T10:32:19.305Z</time></trkpt><trkpt lat="37.879624" lon="13.8374126"><ele>386.0</ele><time>2026-04-26T10:32:20.305Z</time></trkpt><trkpt lat="37.8797367" lon="13.8372591"><ele>386.0</ele><time>2026-04-26T10:32:21.305Z</time></trkpt><trkpt lat="37.8798561" lon="13.8370804"><ele>386.0</ele><time>2026-04-26T10:32:22.305Z</time></trkpt><trkpt lat="37.880421" lon="13.8369035"><ele>385.66666666666663</ele><time>2026-04-26T10:32:23.305Z</time></trkpt><trkpt lat="37.8805242" lon="13.8367088"><ele>385.33333333333337</ele><time>2026-04-26T10:32:24.305Z</time></trkpt><trkpt lat="37.8806311" lon="13.8365209"><ele>385.0</ele><time>2026-04-26T10:32:25.305Z</time></trkpt><trkpt lat="37.8807379" lon="13.8363366"><ele>385.0</ele><time>2026-04-26T10:32:26.305Z</time></trkpt><trkpt lat="37.8808458" lon="13.8361564"><ele>385.0</ele><time>2026-04-26T10:32:27.305Z</time></trkpt><trkpt lat="37.8809531" lon="13.8359874"><ele>385.0</ele><time>2026-04-26T10:32:28.305Z</time></trkpt><trkpt lat="37.8810614" lon="13.8358266"><ele>385.6666666666667</ele><time>2026-04-26T10:32:29.304Z</time></trkpt><trkpt lat="37.8811673" lon="13.8356745"><ele>386.33333333333337</ele><time>2026-04-26T10:32:30.305Z</time></trkpt><trkpt lat="37.8812851" lon="13.8355292"><ele>387.0</ele><time>2026-04-26T10:32:31.305Z</time></trkpt><trkpt lat="37.8814156" lon="13.8354057"><ele>387.0</ele><time>2026-04-26T10:32:32.305Z</time></trkpt><trkpt lat="37.8815545" lon="13.8353141"><ele>387.0</ele><time>2026-04-26T10:32:33.305Z</time></trkpt><trkpt lat="37.8816987" lon="13.8352345"><ele>387.0</ele><time>2026-04-26T10:32:34.305Z</time></trkpt><trkpt lat="37.8818375" lon="13.8351648"><ele>388.25</ele><time>2026-04-26T10:32:35.305Z</time></trkpt><trkpt lat="37.881973" lon="13.8351026"><ele>389.5</ele><time>2026-04-26T10:32:36.305Z</time></trkpt><trkpt lat="37.8821108" lon="13.8350433"><ele>390.75</ele><time>2026-04-26T10:32:37.305Z</time></trkpt><trkpt lat="37.8822488" lon="13.8349878"><ele>392.0</ele><time>2026-04-26T10:32:38.305Z</time></trkpt><trkpt lat="37.8823871" lon="13.834934"><ele>392.0</ele><time>2026-04-26T10:32:39.305Z</time></trkpt><trkpt lat="37.8825155" lon="13.834883"><ele>392.0</ele><time>2026-04-26T10:32:40.305Z</time></trkpt><trkpt lat="37.8826278" lon="13.8348611"><ele>392.0</ele><time>2026-04-26T10:32:41.305Z</time></trkpt><trkpt lat="37.8827179" lon="13.8348934"><ele>392.0</ele><time>2026-04-26T10:32:42.305Z</time></trkpt><trkpt lat="37.8828062" lon="13.8349743"><ele>391.5</ele><time>2026-04-26T10:32:43.305Z</time></trkpt><trkpt lat="37.8829007" lon="13.8350899"><ele>391.0</ele><time>2026-04-26T10:32:44.305Z</time></trkpt><trkpt lat="37.8830044" lon="13.8352339"><ele>390.5</ele><time>2026-04-26T10:32:45.305Z</time></trkpt><trkpt lat="37.8831129" lon="13.8353721"><ele>390.0</ele><time>2026-04-26T10:32:46.305Z</time></trkpt><trkpt lat="37.8832247" lon="13.8354904"><ele>390.0</ele><time>2026-04-26T10:32:47.305Z</time></trkpt><trkpt lat="37.8833423" lon="13.83557"><ele>390.0</ele><time>2026-04-26T10:32:48.305Z</time></trkpt><trkpt lat="37.8834779" lon="13.8356096"><ele>390.0</ele><time>2026-04-26T10:32:49.305Z</time></trkpt><trkpt lat="37.8836273" lon="13.8356048"><ele>390.0</ele><time>2026-04-26T10:32:50.305Z</time></trkpt><trkpt lat="37.8837778" lon="13.8355808"><ele>390.5</ele><time>2026-04-26T10:32:51.305Z</time></trkpt><trkpt lat="37.8839182" lon="13.8355658"><ele>391.0</ele><time>2026-04-26T10:32:52.305Z</time></trkpt><trkpt lat="37.8840288" lon="13.8355823"><ele>391.5</ele><time>2026-04-26T10:32:53.305Z</time></trkpt><trkpt lat="37.8841371" lon="13.8356276"><ele>392.0</ele><time>2026-04-26T10:32:54.305Z</time></trkpt><trkpt lat="37.884238" lon="13.8356602"><ele>390.5</ele><time>2026-04-26T10:32:55.305Z</time></trkpt><trkpt lat="37.8843485" lon="13.8356544"><ele>389.0</ele><time>2026-04-26T10:32:56.305Z</time></trkpt><trkpt lat="37.8844525" lon="13.8355953"><ele>387.5</ele><time>2026-04-26T10:32:57.305Z</time></trkpt><trkpt lat="37.8845476" lon="13.8354883"><ele>386.0</ele><time>2026-04-26T10:32:58.304Z</time></trkpt><trkpt lat="37.8846352" lon="13.8353448"><ele>386.0</ele><time>2026-04-26T10:32:59.305Z</time></trkpt><trkpt lat="37.8847162" lon="13.8351788"><ele>386.0</ele><time>2026-04-26T10:33:00.305Z</time></trkpt><trkpt lat="37.8847922" lon="13.8350271"><ele>386.0</ele><time>2026-04-26T10:33:01.305Z</time></trkpt><trkpt lat="37.8848783" lon="13.8348983"><ele>386.0</ele><time>2026-04-26T10:33:02.305Z</time></trkpt><trkpt lat="37.8849949" lon="13.8347878"><ele>387.0</ele><time>2026-04-26T10:33:03.305Z</time></trkpt><trkpt lat="37.8851262" lon="13.8346924"><ele>388.0</ele><time>2026-04-26T10:33:04.305Z</time></trkpt><trkpt lat="37.8852618" lon="13.8346023"><ele>389.0</ele><time>2026-04-26T10:33:05.305Z</time></trkpt><trkpt lat="37.8853884" lon="13.8345298"><ele>390.0</ele><time>2026-04-26T10:33:06.305Z</time></trkpt><trkpt lat="37.8855228" lon="13.8345051"><ele>390.0</ele><time>2026-04-26T10:33:07.305Z</time></trkpt><trkpt lat="37.8856651" lon="13.8345168"><ele>390.0</ele><time>2026-04-26T10:33:08.305Z</time></trkpt><trkpt lat="37.8858189" lon="13.8345303"><ele>390.0</ele><time>2026-04-26T10:33:09.305Z</time></trkpt><trkpt lat="37.8859943" lon="13.8345198"><ele>389.66666666666663</ele><time>2026-04-26T10:33:10.305Z</time></trkpt><trkpt lat="37.8861826" lon="13.8344837"><ele>389.3333333333333</ele><time>2026-04-26T10:33:11.305Z</time></trkpt><trkpt lat="37.8863792" lon="13.8344211"><ele>389.0</ele><time>2026-04-26T10:33:12.305Z</time></trkpt><trkpt lat="37.8865759" lon="13.8343435"><ele>393.0</ele><time>2026-04-26T10:33:13.304Z</time></trkpt><trkpt lat="37.8867706" lon="13.8342708"><ele>397.0</ele><time>2026-04-26T10:33:14.305Z</time></trkpt><trkpt lat="37.8869503" lon="13.8342047"><ele>401.0</ele><time>2026-04-26T10:33:15.305Z</time></trkpt><trkpt lat="37.8871097" lon="13.8341439"><ele>401.0</ele><time>2026-04-26T10:33:16.305Z</time></trkpt><trkpt lat="37.887241" lon="13.8340892"><ele>401.0</ele><time>2026-04-26T10:33:17.305Z</time></trkpt><trkpt lat="37.8873446" lon="13.8340606"><ele>401.0</ele><time>2026-04-26T10:33:18.305Z</time></trkpt><trkpt lat="37.8874476" lon="13.8340865"><ele>401.0</ele><time>2026-04-26T10:33:19.305Z</time></trkpt><trkpt lat="37.8875592" lon="13.8341499"><ele>400.66666666666663</ele><time>2026-04-26T10:33:20.305Z</time></trkpt><trkpt lat="37.8876687" lon="13.8342562"><ele>400.33333333333337</ele><time>2026-04-26T10:33:21.305Z</time></trkpt><trkpt lat="37.887792" lon="13.8343881"><ele>400.0</ele><time>2026-04-26T10:33:22.305Z</time></trkpt><trkpt lat="37.8879322" lon="13.8345447"><ele>400.0</ele><time>2026-04-26T10:33:23.305Z</time></trkpt><trkpt lat="37.8880789" lon="13.8346924"><ele>400.0</ele><time>2026-04-26T10:33:24.305Z</time></trkpt><trkpt lat="37.8882269" lon="13.8348441"><ele>400.0</ele><time>2026-04-26T10:33:25.305Z</time></trkpt><trkpt lat="37.8883737" lon="13.8349901"><ele>398.0</ele><time>2026-04-26T10:33:26.305Z</time></trkpt><trkpt lat="37.8885214" lon="13.8351219"><ele>396.0</ele><time>2026-04-26T10:33:27.305Z</time></trkpt><trkpt lat="37.8886724" lon="13.8352422"><ele>394.0</ele><time>2026-04-26T10:33:28.304Z</time></trkpt><trkpt lat="37.8888204" lon="13.8353509"><ele>394.0</ele><time>2026-04-26T10:33:29.305Z</time></trkpt><trkpt lat="37.8890976" lon="13.8355462"><ele>394.0</ele><time>2026-04-26T10:33:31.305Z</time></trkpt><trkpt lat="37.8892246" lon="13.835614"><ele>394.0</ele><time>2026-04-26T10:33:32.305Z</time></trkpt><trkpt lat="37.8893365" lon="13.8356469"><ele>394.0</ele><time>2026-04-26T10:33:33.305Z</time></trkpt><trkpt lat="37.889444" lon="13.8356414"><ele>394.0</ele><time>2026-04-26T10:33:34.305Z</time></trkpt><trkpt lat="37.8895467" lon="13.8356087"><ele>394.0</ele><time>2026-04-26T10:33:35.305Z</time></trkpt><trkpt lat="37.8896289" lon="13.8355381"><ele>394.0</ele><time>2026-04-26T10:33:36.305Z</time></trkpt><trkpt lat="37.8897071" lon="13.8354312"><ele>394.0</ele><time>2026-04-26T10:33:37.305Z</time></trkpt><trkpt lat="37.889789" lon="13.8353006"><ele>394.0</ele><time>2026-04-26T10:33:38.305Z</time></trkpt><trkpt lat="37.8898677" lon="13.8351445"><ele>394.0</ele><time>2026-04-26T10:33:39.305Z</time></trkpt><trkpt lat="37.8899423" lon="13.834989"><ele>394.0</ele><time>2026-04-26T10:33:40.305Z</time></trkpt><trkpt lat="37.8900257" lon="13.8348288"><ele>393.33333333333337</ele><time>2026-04-26T10:33:41.305Z</time></trkpt><trkpt lat="37.8901196" lon="13.8346689"><ele>392.66666666666663</ele><time>2026-04-26T10:33:42.305Z</time></trkpt><trkpt lat="37.890227" lon="13.8345198"><ele>392.0</ele><time>2026-04-26T10:33:43.305Z</time></trkpt><trkpt lat="37.890361" lon="13.8343944"><ele>394.66666666666663</ele><time>2026-04-26T10:33:44.305Z</time></trkpt><trkpt lat="37.8905071" lon="13.8342784"><ele>397.33333333333337</ele><time>2026-04-26T10:33:45.305Z</time></trkpt><trkpt lat="37.8906455" lon="13.8341543"><ele>400.0</ele><time>2026-04-26T10:33:46.305Z</time></trkpt><trkpt lat="37.890766" lon="13.8340215"><ele>400.0</ele><time>2026-04-26T10:33:47.305Z</time></trkpt><trkpt lat="37.8908622" lon="13.8338745"><ele>400.0</ele><time>2026-04-26T10:33:48.305Z</time></trkpt><trkpt lat="37.8909252" lon="13.8336961"><ele>400.0</ele><time>2026-04-26T10:33:49.305Z</time></trkpt><trkpt lat="37.8909688" lon="13.8334827"><ele>395.6666666666667</ele><time>2026-04-26T10:33:50.305Z</time></trkpt><trkpt lat="37.8909963" lon="13.833262"><ele>391.33333333333337</ele><time>2026-04-26T10:33:51.305Z</time></trkpt><trkpt lat="37.8910222" lon="13.8330435"><ele>387.0</ele><time>2026-04-26T10:33:52.305Z</time></trkpt><trkpt lat="37.8910442" lon="13.8328382"><ele>387.0</ele><time>2026-04-26T10:33:53.305Z</time></trkpt><trkpt lat="37.8910637" lon="13.8326631"><ele>387.0</ele><time>2026-04-26T10:33:54.305Z</time></trkpt><trkpt lat="37.891087" lon="13.8325094"><ele>387.0</ele><time>2026-04-26T10:33:55.305Z</time></trkpt><trkpt lat="37.8911279" lon="13.8323779"><ele>387.0</ele><time>2026-04-26T10:33:56.305Z</time></trkpt><trkpt lat="37.891196" lon="13.8322694"><ele>390.20000000000005</ele><time>2026-04-26T10:33:57.305Z</time></trkpt><trkpt lat="37.8912912" lon="13.832201"><ele>393.4</ele><time>2026-04-26T10:33:58.305Z</time></trkpt><trkpt lat="37.8914023" lon="13.8321796"><ele>396.6</ele><time>2026-04-26T10:33:59.305Z</time></trkpt><trkpt lat="37.8915075" lon="13.8321889"><ele>399.79999999999995</ele><time>2026-04-26T10:34:00.305Z</time></trkpt><trkpt lat="37.8915901" lon="13.8322178"><ele>403.0</ele><time>2026-04-26T10:34:01.305Z</time></trkpt><trkpt lat="37.89165" lon="13.8322528"><ele>403.00000000000006</ele><time>2026-04-26T10:34:02.305Z</time></trkpt><trkpt lat="37.8917187" lon="13.8322973"><ele>403.0</ele><time>2026-04-26T10:34:04.305Z</time></trkpt><trkpt lat="37.8918118" lon="13.8323263"><ele>403.0</ele><time>2026-04-26T10:34:25.304Z</time></trkpt><trkpt lat="37.8918827" lon="13.8323492"><ele>403.0</ele><time>2026-04-26T10:34:26.305Z</time></trkpt><trkpt lat="37.891965" lon="13.8323649"><ele>403.00000000000006</ele><time>2026-04-26T10:34:27.305Z</time></trkpt><trkpt lat="37.892041" lon="13.8323632"><ele>403.0</ele><time>2026-04-26T10:34:28.305Z</time></trkpt><trkpt lat="37.8921067" lon="13.8323408"><ele>402.50000000000006</ele><time>2026-04-26T10:34:29.305Z</time></trkpt><trkpt lat="37.8921975" lon="13.8322554"><ele>402.0</ele><time>2026-04-26T10:34:31.305Z</time></trkpt><trkpt lat="37.8922558" lon="13.8322211"><ele>401.5</ele><time>2026-04-26T10:34:32.304Z</time></trkpt><trkpt lat="37.8923256" lon="13.8321858"><ele>401.0</ele><time>2026-04-26T10:34:33.305Z</time></trkpt><trkpt lat="37.8924087" lon="13.8321528"><ele>400.50000000000006</ele><time>2026-04-26T10:34:34.305Z</time></trkpt><trkpt lat="37.8924896" lon="13.8321255"><ele>400.0</ele><time>2026-04-26T10:34:35.305Z</time></trkpt><trkpt lat="37.8925722" lon="13.8321037"><ele>400.0</ele><time>2026-04-26T10:34:36.305Z</time></trkpt><trkpt lat="37.8926571" lon="13.8320683"><ele>400.0</ele><time>2026-04-26T10:34:37.305Z</time></trkpt><trkpt lat="37.8927422" lon="13.8319816"><ele>400.0</ele><time>2026-04-26T10:34:38.305Z</time></trkpt><trkpt lat="37.8928155" lon="13.8318739"><ele>400.0</ele><time>2026-04-26T10:34:39.305Z</time></trkpt><trkpt lat="37.8928824" lon="13.8317667"><ele>400.0</ele><time>2026-04-26T10:34:40.305Z</time></trkpt><trkpt lat="37.8929433" lon="13.8316594"><ele>400.0</ele><time>2026-04-26T10:34:41.304Z</time></trkpt><trkpt lat="37.8930006" lon="13.8315533"><ele>400.0</ele><time>2026-04-26T10:34:42.305Z</time></trkpt><trkpt lat="37.8930576" lon="13.8314534"><ele>400.0</ele><time>2026-04-26T10:34:43.305Z</time></trkpt><trkpt lat="37.8931189" lon="13.8313513"><ele>400.0</ele><time>2026-04-26T10:34:44.304Z</time></trkpt><trkpt lat="37.8931801" lon="13.831228"><ele>400.0</ele><time>2026-04-26T10:34:45.305Z</time></trkpt><trkpt lat="37.8932279" lon="13.8310609"><ele>404.33333333333337</ele><time>2026-04-26T10:34:46.305Z</time></trkpt><trkpt lat="37.8932795" lon="13.8308703"><ele>408.66666666666663</ele><time>2026-04-26T10:34:47.305Z</time></trkpt><trkpt lat="37.8933374" lon="13.8306788"><ele>413.0</ele><time>2026-04-26T10:34:48.305Z</time></trkpt><trkpt lat="37.8934028" lon="13.830503"><ele>411.5</ele><time>2026-04-26T10:34:49.305Z</time></trkpt><trkpt lat="37.8934821" lon="13.8303583"><ele>410.0</ele><time>2026-04-26T10:34:50.305Z</time></trkpt><trkpt lat="37.8935803" lon="13.8302529"><ele>408.5</ele><time>2026-04-26T10:34:51.305Z</time></trkpt><trkpt lat="37.8937039" lon="13.8301573"><ele>407.0</ele><time>2026-04-26T10:34:52.305Z</time></trkpt><trkpt lat="37.893852" lon="13.8300738"><ele>407.0</ele><time>2026-04-26T10:34:53.305Z</time></trkpt><trkpt lat="37.8940053" lon="13.8299952"><ele>407.0</ele><time>2026-04-26T10:34:54.305Z</time></trkpt><trkpt lat="37.8941401" lon="13.8299119"><ele>407.0</ele><time>2026-04-26T10:34:55.305Z</time></trkpt><trkpt lat="37.8942522" lon="13.8298269"><ele>407.0</ele><time>2026-04-26T10:34:56.305Z</time></trkpt><trkpt lat="37.8943297" lon="13.8297148"><ele>404.75</ele><time>2026-04-26T10:34:57.305Z</time></trkpt><trkpt lat="37.8943648" lon="13.829567"><ele>402.5</ele><time>2026-04-26T10:34:58.305Z</time></trkpt><trkpt lat="37.8943757" lon="13.829396"><ele>400.25</ele><time>2026-04-26T10:34:59.305Z</time></trkpt><trkpt lat="37.8943605" lon="13.8292009"><ele>398.0</ele><time>2026-04-26T10:35:00.305Z</time></trkpt><trkpt lat="37.8943445" lon="13.8290119"><ele>398.0</ele><time>2026-04-26T10:35:01.305Z</time></trkpt><trkpt lat="37.8943337" lon="13.8288197"><ele>398.0</ele><time>2026-04-26T10:35:02.305Z</time></trkpt><trkpt lat="37.894365" lon="13.828647"><ele>398.0</ele><time>2026-04-26T10:35:03.305Z</time></trkpt><trkpt lat="37.8943717" lon="13.8284624"><ele>398.0</ele><time>2026-04-26T10:35:04.305Z</time></trkpt><trkpt lat="37.8943887" lon="13.8282867"><ele>399.5</ele><time>2026-04-26T10:35:05.305Z</time></trkpt><trkpt lat="37.8944274" lon="13.8281056"><ele>401.0</ele><time>2026-04-26T10:35:06.305Z</time></trkpt><trkpt lat="37.8944754" lon="13.8279333"><ele>402.5</ele><time>2026-04-26T10:35:07.305Z</time></trkpt><trkpt lat="37.8945283" lon="13.8277817"><ele>404.0</ele><time>2026-04-26T10:35:08.305Z</time></trkpt><trkpt lat="37.8945896" lon="13.8276553"><ele>406.0</ele><time>2026-04-26T10:35:09.305Z</time></trkpt><trkpt lat="37.8946655" lon="13.8275542"><ele>408.0</ele><time>2026-04-26T10:35:10.305Z</time></trkpt><trkpt lat="37.8947463" lon="13.827493"><ele>410.0</ele><time>2026-04-26T10:35:11.305Z</time></trkpt><trkpt lat="37.8948427" lon="13.8274553"><ele>412.0</ele><time>2026-04-26T10:35:12.305Z</time></trkpt><trkpt lat="37.8949549" lon="13.8274366"><ele>414.0</ele><time>2026-04-26T10:35:13.305Z</time></trkpt><trkpt lat="37.8950845" lon="13.8274313"><ele>411.75</ele><time>2026-04-26T10:35:14.305Z</time></trkpt><trkpt lat="37.8952162" lon="13.8274276"><ele>409.5</ele><time>2026-04-26T10:35:15.304Z</time></trkpt><trkpt lat="37.8953426" lon="13.827415"><ele>407.25</ele><time>2026-04-26T10:35:16.304Z</time></trkpt><trkpt lat="37.8954647" lon="13.8273853"><ele>405.0</ele><time>2026-04-26T10:35:17.305Z</time></trkpt><trkpt lat="37.8955694" lon="13.827324"><ele>405.0</ele><time>2026-04-26T10:35:18.305Z</time></trkpt><trkpt lat="37.8956456" lon="13.8272357"><ele>405.0</ele><time>2026-04-26T10:35:19.305Z</time></trkpt><trkpt lat="37.8956935" lon="13.8271304"><ele>405.0</ele><time>2026-04-26T10:35:20.305Z</time></trkpt><trkpt lat="37.8957163" lon="13.8270035"><ele>405.0</ele><time>2026-04-26T10:35:21.305Z</time></trkpt><trkpt lat="37.8957306" lon="13.8268608"><ele>405.0</ele><time>2026-04-26T10:35:22.305Z</time></trkpt><trkpt lat="37.8957604" lon="13.8267103"><ele>405.75</ele><time>2026-04-26T10:35:23.305Z</time></trkpt><trkpt lat="37.8957957" lon="13.8265431"><ele>406.5</ele><time>2026-04-26T10:35:24.305Z</time></trkpt><trkpt lat="37.8958512" lon="13.8263791"><ele>407.25</ele><time>2026-04-26T10:35:25.305Z</time></trkpt><trkpt lat="37.8959207" lon="13.8262271"><ele>408.0</ele><time>2026-04-26T10:35:26.305Z</time></trkpt><trkpt lat="37.8960051" lon="13.8260833"><ele>410.5</ele><time>2026-04-26T10:35:27.304Z</time></trkpt><trkpt lat="37.8960965" lon="13.8259752"><ele>413.0</ele><time>2026-04-26T10:35:28.304Z</time></trkpt><trkpt lat="37.896211" lon="13.8258837"><ele>415.5</ele><time>2026-04-26T10:35:29.305Z</time></trkpt><trkpt lat="37.8963313" lon="13.825792"><ele>418.0</ele><time>2026-04-26T10:35:30.305Z</time></trkpt><trkpt lat="37.8964472" lon="13.825706"><ele>418.0</ele><time>2026-04-26T10:35:31.305Z</time></trkpt><trkpt lat="37.8965593" lon="13.8256184"><ele>418.0</ele><time>2026-04-26T10:35:32.305Z</time></trkpt><trkpt lat="37.8966732" lon="13.825533"><ele>418.0</ele><time>2026-04-26T10:35:33.305Z</time></trkpt><trkpt lat="37.8967876" lon="13.8254438"><ele>418.0</ele><time>2026-04-26T10:35:34.305Z</time></trkpt><trkpt lat="37.8968918" lon="13.8253273"><ele>418.5</ele><time>2026-04-26T10:35:35.305Z</time></trkpt><trkpt lat="37.8969826" lon="13.8252063"><ele>419.0</ele><time>2026-04-26T10:35:36.305Z</time></trkpt><trkpt lat="37.8970698" lon="13.8250826"><ele>419.5</ele><time>2026-04-26T10:35:37.305Z</time></trkpt><trkpt lat="37.8971434" lon="13.8249401"><ele>420.0</ele><time>2026-04-26T10:35:38.305Z</time></trkpt><trkpt lat="37.8971983" lon="13.8247741"><ele>417.75</ele><time>2026-04-26T10:35:39.304Z</time></trkpt><trkpt lat="37.8972408" lon="13.8246031"><ele>415.5</ele><time>2026-04-26T10:35:40.305Z</time></trkpt><trkpt lat="37.897281" lon="13.8244348"><ele>413.25</ele><time>2026-04-26T10:35:41.305Z</time></trkpt><trkpt lat="37.8973099" lon="13.8242662"><ele>411.0</ele><time>2026-04-26T10:35:42.305Z</time></trkpt><trkpt lat="37.8973171" lon="13.8240858"><ele>408.66666666666663</ele><time>2026-04-26T10:35:43.305Z</time></trkpt><trkpt lat="37.8973141" lon="13.8238854"><ele>406.3333333333333</ele><time>2026-04-26T10:35:44.305Z</time></trkpt><trkpt lat="37.8973068" lon="13.8236826"><ele>404.0</ele><time>2026-04-26T10:35:45.305Z</time></trkpt><trkpt lat="37.8972991" lon="13.8234641"><ele>401.3333333333333</ele><time>2026-04-26T10:35:46.304Z</time></trkpt><trkpt lat="37.8972779" lon="13.8232414"><ele>398.66666666666663</ele><time>2026-04-26T10:35:47.305Z</time></trkpt><trkpt lat="37.8972415" lon="13.8230367"><ele>396.0</ele><time>2026-04-26T10:35:48.305Z</time></trkpt><trkpt lat="37.8972029" lon="13.8228461"><ele>396.0</ele><time>2026-04-26T10:35:49.305Z</time></trkpt><trkpt lat="37.8971892" lon="13.822664"><ele>396.0</ele><time>2026-04-26T10:35:50.305Z</time></trkpt><trkpt lat="37.8971804" lon="13.8224909"><ele>396.0</ele><time>2026-04-26T10:35:51.305Z</time></trkpt><trkpt lat="37.8971962" lon="13.822325"><ele>396.0</ele><time>2026-04-26T10:35:52.305Z</time></trkpt><trkpt lat="37.8972088" lon="13.8221465"><ele>394.75</ele><time>2026-04-26T10:35:53.305Z</time></trkpt><trkpt lat="37.8972133" lon="13.8219621"><ele>393.5</ele><time>2026-04-26T10:35:54.304Z</time></trkpt><trkpt lat="37.8972222" lon="13.8217898"><ele>392.25</ele><time>2026-04-26T10:35:55.305Z</time></trkpt><trkpt lat="37.8972274" lon="13.8216183"><ele>391.0</ele><time>2026-04-26T10:35:56.305Z</time></trkpt><trkpt lat="37.8972203" lon="13.8214288"><ele>390.5</ele><time>2026-04-26T10:35:57.305Z</time></trkpt><trkpt lat="37.8972143" lon="13.8212384"><ele>390.0</ele><time>2026-04-26T10:35:58.305Z</time></trkpt><trkpt lat="37.8972089" lon="13.8210464"><ele>389.5</ele><time>2026-04-26T10:35:59.305Z</time></trkpt><trkpt lat="37.8971966" lon="13.8208626"><ele>389.0</ele><time>2026-04-26T10:36:00.305Z</time></trkpt><trkpt lat="37.8971722" lon="13.8206859"><ele>388.75</ele><time>2026-04-26T10:36:01.304Z</time></trkpt><trkpt lat="37.8971357" lon="13.8205109"><ele>388.5</ele><time>2026-04-26T10:36:02.304Z</time></trkpt><trkpt lat="37.8971012" lon="13.8203385"><ele>388.25</ele><time>2026-04-26T10:36:03.303Z</time></trkpt><trkpt lat="37.8970741" lon="13.8201682"><ele>388.0</ele><time>2026-04-26T10:36:04.304Z</time></trkpt><trkpt lat="37.8970463" lon="13.8200039"><ele>386.25</ele><time>2026-04-26T10:36:05.304Z</time></trkpt><trkpt lat="37.8970134" lon="13.819843"><ele>384.5</ele><time>2026-04-26T10:36:06.304Z</time></trkpt><trkpt lat="37.896972" lon="13.8196939"><ele>382.75</ele><time>2026-04-26T10:36:07.304Z</time></trkpt><trkpt lat="37.8969253" lon="13.8195533"><ele>381.0</ele><time>2026-04-26T10:36:08.304Z</time></trkpt><trkpt lat="37.8968774" lon="13.8194218"><ele>379.4</ele><time>2026-04-26T10:36:09.304Z</time></trkpt><trkpt lat="37.8968321" lon="13.8192941"><ele>377.8</ele><time>2026-04-26T10:36:10.303Z</time></trkpt><trkpt lat="37.8967886" lon="13.8191664"><ele>376.2</ele><time>2026-04-26T10:36:11.304Z</time></trkpt><trkpt lat="37.896751" lon="13.8190385"><ele>374.59999999999997</ele><time>2026-04-26T10:36:12.304Z</time></trkpt><trkpt lat="37.8967156" lon="13.8189154"><ele>373.0</ele><time>2026-04-26T10:36:13.304Z</time></trkpt><trkpt lat="37.8966818" lon="13.8187848"><ele>375.75</ele><time>2026-04-26T10:36:14.304Z</time></trkpt><trkpt lat="37.8966539" lon="13.818638"><ele>378.5</ele><time>2026-04-26T10:36:15.304Z</time></trkpt><trkpt lat="37.8966486" lon="13.8184782"><ele>381.25</ele><time>2026-04-26T10:36:16.304Z</time></trkpt><trkpt lat="37.8966609" lon="13.8183066"><ele>384.0</ele><time>2026-04-26T10:36:17.304Z</time></trkpt><trkpt lat="37.8966832" lon="13.818119"><ele>384.0</ele><time>2026-04-26T10:36:18.304Z</time></trkpt><trkpt lat="37.8967018" lon="13.8179452"><ele>384.0</ele><time>2026-04-26T10:36:19.304Z</time></trkpt><trkpt lat="37.8967021" lon="13.8177844"><ele>384.0</ele><time>2026-04-26T10:36:20.304Z</time></trkpt><trkpt lat="37.8966736" lon="13.8176146"><ele>384.0</ele><time>2026-04-26T10:36:21.304Z</time></trkpt><trkpt lat="37.8966205" lon="13.8174277"><ele>381.6666666666667</ele><time>2026-04-26T10:36:22.304Z</time></trkpt><trkpt lat="37.8965551" lon="13.8172229"><ele>379.33333333333337</ele><time>2026-04-26T10:36:23.304Z</time></trkpt><trkpt lat="37.8964831" lon="13.8170256"><ele>377.0</ele><time>2026-04-26T10:36:24.304Z</time></trkpt><trkpt lat="37.8964195" lon="13.816843"><ele>373.6666666666667</ele><time>2026-04-26T10:36:25.304Z</time></trkpt><trkpt lat="37.8963435" lon="13.8166616"><ele>370.3333333333333</ele><time>2026-04-26T10:36:26.303Z</time></trkpt><trkpt lat="37.8962537" lon="13.8164889"><ele>367.0</ele><time>2026-04-26T10:36:27.304Z</time></trkpt><trkpt lat="37.8961509" lon="13.816345"><ele>367.0</ele><time>2026-04-26T10:36:28.304Z</time></trkpt><trkpt lat="37.8960303" lon="13.8162227"><ele>367.0</ele><time>2026-04-26T10:36:29.304Z</time></trkpt><trkpt lat="37.8959022" lon="13.8161301"><ele>367.0</ele><time>2026-04-26T10:36:30.304Z</time></trkpt><trkpt lat="37.8957479" lon="13.8160668"><ele>370.66666666666663</ele><time>2026-04-26T10:36:31.304Z</time></trkpt><trkpt lat="37.8955793" lon="13.816032"><ele>374.3333333333333</ele><time>2026-04-26T10:36:32.304Z</time></trkpt><trkpt lat="37.895419" lon="13.8160148"><ele>378.0</ele><time>2026-04-26T10:36:33.304Z</time></trkpt><trkpt lat="37.8952649" lon="13.8160088"><ele>374.25</ele><time>2026-04-26T10:36:34.304Z</time></trkpt><trkpt lat="37.8951309" lon="13.8159737"><ele>370.5</ele><time>2026-04-26T10:36:35.304Z</time></trkpt><trkpt lat="37.8950029" lon="13.8159042"><ele>366.75</ele><time>2026-04-26T10:36:36.304Z</time></trkpt><trkpt lat="37.8948848" lon="13.8157975"><ele>363.0</ele><time>2026-04-26T10:36:37.304Z</time></trkpt><trkpt lat="37.8947761" lon="13.8156616"><ele>363.0</ele><time>2026-04-26T10:36:38.304Z</time></trkpt><trkpt lat="37.8946877" lon="13.8155148"><ele>363.0</ele><time>2026-04-26T10:36:39.304Z</time></trkpt><trkpt lat="37.8946193" lon="13.8153597"><ele>363.0</ele><time>2026-04-26T10:36:40.304Z</time></trkpt><trkpt lat="37.8945847" lon="13.8152027"><ele>363.0</ele><time>2026-04-26T10:36:41.304Z</time></trkpt><trkpt lat="37.8945902" lon="13.8150204"><ele>360.0</ele><time>2026-04-26T10:36:42.303Z</time></trkpt><trkpt lat="37.8946248" lon="13.8148248"><ele>357.0</ele><time>2026-04-26T10:36:43.304Z</time></trkpt><trkpt lat="37.8946759" lon="13.8146262"><ele>354.0</ele><time>2026-04-26T10:36:44.304Z</time></trkpt><trkpt lat="37.8947255" lon="13.8144426"><ele>353.0</ele><time>2026-04-26T10:36:45.304Z</time></trkpt><trkpt lat="37.8947676" lon="13.8142848"><ele>352.0</ele><time>2026-04-26T10:36:46.304Z</time></trkpt><trkpt lat="37.8947891" lon="13.8141393"><ele>351.0</ele><time>2026-04-26T10:36:47.304Z</time></trkpt><trkpt lat="37.8947748" lon="13.8140051"><ele>350.0</ele><time>2026-04-26T10:36:48.304Z</time></trkpt><trkpt lat="37.8947253" lon="13.8138727"><ele>350.0</ele><time>2026-04-26T10:36:49.304Z</time></trkpt><trkpt lat="37.8946575" lon="13.8137385"><ele>350.0</ele><time>2026-04-26T10:36:50.304Z</time></trkpt><trkpt lat="37.8945549" lon="13.8136266"><ele>350.0</ele><time>2026-04-26T10:36:51.304Z</time></trkpt><trkpt lat="37.8944297" lon="13.8135237"><ele>350.0</ele><time>2026-04-26T10:36:52.304Z</time></trkpt><trkpt lat="37.8943004" lon="13.8134304"><ele>349.8</ele><time>2026-04-26T10:36:53.304Z</time></trkpt><trkpt lat="37.8941926" lon="13.8133479"><ele>349.6</ele><time>2026-04-26T10:36:54.304Z</time></trkpt><trkpt lat="37.894094" lon="13.8132703"><ele>349.4</ele><time>2026-04-26T10:36:55.304Z</time></trkpt><trkpt lat="37.8940124" lon="13.8131861"><ele>349.2</ele><time>2026-04-26T10:36:56.304Z</time></trkpt><trkpt lat="37.8939525" lon="13.8130862"><ele>349.0</ele><time>2026-04-26T10:36:57.304Z</time></trkpt><trkpt lat="37.8939166" lon="13.8129591"><ele>349.0</ele><time>2026-04-26T10:36:58.304Z</time></trkpt><trkpt lat="37.8939192" lon="13.8128124"><ele>349.0</ele><time>2026-04-26T10:36:59.304Z</time></trkpt><trkpt lat="37.8939505" lon="13.8126597"><ele>349.0</ele><time>2026-04-26T10:37:00.304Z</time></trkpt><trkpt lat="37.8940027" lon="13.8125107"><ele>349.0</ele><time>2026-04-26T10:37:01.303Z</time></trkpt><trkpt lat="37.8940658" lon="13.8123662"><ele>348.25</ele><time>2026-04-26T10:37:02.304Z</time></trkpt><trkpt lat="37.8941355" lon="13.8122341"><ele>347.5</ele><time>2026-04-26T10:37:03.303Z</time></trkpt><trkpt lat="37.8941871" lon="13.8121087"><ele>346.75</ele><time>2026-04-26T10:37:04.304Z</time></trkpt><trkpt lat="37.8942179" lon="13.8119808"><ele>346.0</ele><time>2026-04-26T10:37:05.304Z</time></trkpt><trkpt lat="37.89422" lon="13.8118452"><ele>345.0</ele><time>2026-04-26T10:37:06.304Z</time></trkpt><trkpt lat="37.8941908" lon="13.8117073"><ele>344.0</ele><time>2026-04-26T10:37:07.304Z</time></trkpt><trkpt lat="37.8941381" lon="13.8115696"><ele>343.0</ele><time>2026-04-26T10:37:08.304Z</time></trkpt><trkpt lat="37.8940633" lon="13.8114305"><ele>342.0</ele><time>2026-04-26T10:37:09.304Z</time></trkpt><trkpt lat="37.8939839" lon="13.8112834"><ele>342.0</ele><time>2026-04-26T10:37:10.304Z</time></trkpt><trkpt lat="37.8938885" lon="13.8111354"><ele>342.0</ele><time>2026-04-26T10:37:11.304Z</time></trkpt><trkpt lat="37.8937918" lon="13.8109845"><ele>342.0</ele><time>2026-04-26T10:37:12.304Z</time></trkpt><trkpt lat="37.8936984" lon="13.8108285"><ele>342.25</ele><time>2026-04-26T10:37:13.304Z</time></trkpt><trkpt lat="37.8936031" lon="13.8106803"><ele>342.5</ele><time>2026-04-26T10:37:14.304Z</time></trkpt><trkpt lat="37.8935174" lon="13.810535"><ele>342.75</ele><time>2026-04-26T10:37:15.304Z</time></trkpt><trkpt lat="37.8934301" lon="13.810396"><ele>343.0</ele><time>2026-04-26T10:37:16.304Z</time></trkpt><trkpt lat="37.8933514" lon="13.8102641"><ele>341.25</ele><time>2026-04-26T10:37:17.304Z</time></trkpt><trkpt lat="37.8932901" lon="13.8101315"><ele>339.5</ele><time>2026-04-26T10:37:18.304Z</time></trkpt><trkpt lat="37.8932462" lon="13.8099984"><ele>337.75</ele><time>2026-04-26T10:37:19.304Z</time></trkpt><trkpt lat="37.8932275" lon="13.8098543"><ele>336.0</ele><time>2026-04-26T10:37:20.304Z</time></trkpt><trkpt lat="37.8932319" lon="13.8097142"><ele>336.0</ele><time>2026-04-26T10:37:21.304Z</time></trkpt><trkpt lat="37.8932573" lon="13.8095816"><ele>336.0</ele><time>2026-04-26T10:37:22.304Z</time></trkpt><trkpt lat="37.8933081" lon="13.8094861"><ele>336.0</ele><time>2026-04-26T10:37:23.304Z</time></trkpt><trkpt lat="37.8933865" lon="13.8094241"><ele>336.0</ele><time>2026-04-26T10:37:24.304Z</time></trkpt><trkpt lat="37.8934696" lon="13.8094063"><ele>336.0</ele><time>2026-04-26T10:37:25.304Z</time></trkpt><trkpt lat="37.893552" lon="13.8094291"><ele>333.25</ele><time>2026-04-26T10:37:26.303Z</time></trkpt><trkpt lat="37.8936373" lon="13.8094979"><ele>330.5</ele><time>2026-04-26T10:37:27.304Z</time></trkpt><trkpt lat="37.8937161" lon="13.8096001"><ele>327.75</ele><time>2026-04-26T10:37:28.304Z</time></trkpt><trkpt lat="37.8937958" lon="13.8097233"><ele>325.0</ele><time>2026-04-26T10:37:29.304Z</time></trkpt><trkpt lat="37.8938785" lon="13.8098495"><ele>325.0</ele><time>2026-04-26T10:37:30.304Z</time></trkpt><trkpt lat="37.8939717" lon="13.8099694"><ele>325.0</ele><time>2026-04-26T10:37:31.304Z</time></trkpt><trkpt lat="37.8940841" lon="13.8100662"><ele>325.0</ele><time>2026-04-26T10:37:32.304Z</time></trkpt><trkpt lat="37.8942116" lon="13.8101484"><ele>325.0</ele><time>2026-04-26T10:37:33.304Z</time></trkpt><trkpt lat="37.894349" lon="13.8102103"><ele>324.75</ele><time>2026-04-26T10:37:34.304Z</time></trkpt><trkpt lat="37.8944964" lon="13.8102481"><ele>324.5</ele><time>2026-04-26T10:37:35.304Z</time></trkpt><trkpt lat="37.8946469" lon="13.8102705"><ele>324.25</ele><time>2026-04-26T10:37:36.303Z</time></trkpt><trkpt lat="37.8947865" lon="13.8102896"><ele>324.0</ele><time>2026-04-26T10:37:37.304Z</time></trkpt><trkpt lat="37.8949205" lon="13.8103118"><ele>324.0</ele><time>2026-04-26T10:37:38.304Z</time></trkpt><trkpt lat="37.8950416" lon="13.8103397"><ele>324.0</ele><time>2026-04-26T10:37:39.304Z</time></trkpt><trkpt lat="37.8951509" lon="13.8103812"><ele>324.0</ele><time>2026-04-26T10:37:40.304Z</time></trkpt><trkpt lat="37.8952526" lon="13.810456"><ele>324.0</ele><time>2026-04-26T10:37:41.304Z</time></trkpt><trkpt lat="37.8953501" lon="13.8105497"><ele>322.25</ele><time>2026-04-26T10:37:42.304Z</time></trkpt><trkpt lat="37.8954465" lon="13.8106516"><ele>320.5</ele><time>2026-04-26T10:37:43.304Z</time></trkpt><trkpt lat="37.8955462" lon="13.8107674"><ele>318.75</ele><time>2026-04-26T10:37:44.303Z</time></trkpt><trkpt lat="37.8956596" lon="13.8108801"><ele>317.0</ele><time>2026-04-26T10:37:45.304Z</time></trkpt><trkpt lat="37.8957668" lon="13.810999"><ele>317.0</ele><time>2026-04-26T10:37:46.304Z</time></trkpt><trkpt lat="37.8958817" lon="13.8111227"><ele>317.0</ele><time>2026-04-26T10:37:47.304Z</time></trkpt><trkpt lat="37.8959973" lon="13.8112509"><ele>317.0</ele><time>2026-04-26T10:37:48.304Z</time></trkpt><trkpt lat="37.8961137" lon="13.8113799"><ele>314.0</ele><time>2026-04-26T10:37:49.304Z</time></trkpt><trkpt lat="37.896225" lon="13.8115117"><ele>311.0</ele><time>2026-04-26T10:37:50.304Z</time></trkpt><trkpt lat="37.8963511" lon="13.8116507"><ele>308.0</ele><time>2026-04-26T10:37:51.304Z</time></trkpt><trkpt lat="37.8964863" lon="13.8117898"><ele>306.0</ele><time>2026-04-26T10:37:52.304Z</time></trkpt><trkpt lat="37.8966191" lon="13.8119157"><ele>304.0</ele><time>2026-04-26T10:37:53.304Z</time></trkpt><trkpt lat="37.8967581" lon="13.8120241"><ele>302.0</ele><time>2026-04-26T10:37:54.304Z</time></trkpt><trkpt lat="37.8969006" lon="13.8121248"><ele>302.0</ele><time>2026-04-26T10:37:55.304Z</time></trkpt><trkpt lat="37.8970372" lon="13.8122177"><ele>302.0</ele><time>2026-04-26T10:37:56.304Z</time></trkpt><trkpt lat="37.8971655" lon="13.8123125"><ele>302.0</ele><time>2026-04-26T10:37:57.304Z</time></trkpt><trkpt lat="37.8972886" lon="13.812404"><ele>302.0</ele><time>2026-04-26T10:37:58.304Z</time></trkpt><trkpt lat="37.8974073" lon="13.8124999"><ele>302.0</ele><time>2026-04-26T10:37:59.304Z</time></trkpt><trkpt lat="37.8975153" lon="13.8126054"><ele>302.0</ele><time>2026-04-26T10:38:00.304Z</time></trkpt><trkpt lat="37.8976076" lon="13.8127241"><ele>302.0</ele><time>2026-04-26T10:38:01.304Z</time></trkpt><trkpt lat="37.8976836" lon="13.8128516"><ele>302.0</ele><time>2026-04-26T10:38:02.304Z</time></trkpt><trkpt lat="37.8977507" lon="13.8129835"><ele>300.5</ele><time>2026-04-26T10:38:03.304Z</time></trkpt><trkpt lat="37.8978177" lon="13.8131113"><ele>299.0</ele><time>2026-04-26T10:38:04.304Z</time></trkpt><trkpt lat="37.8978901" lon="13.8132282"><ele>297.5</ele><time>2026-04-26T10:38:05.304Z</time></trkpt><trkpt lat="37.8979755" lon="13.8133281"><ele>296.0</ele><time>2026-04-26T10:38:06.304Z</time></trkpt><trkpt lat="37.8980662" lon="13.8134187"><ele>297.2</ele><time>2026-04-26T10:38:07.304Z</time></trkpt><trkpt lat="37.8981551" lon="13.8134996"><ele>298.40000000000003</ele><time>2026-04-26T10:38:08.304Z</time></trkpt><trkpt lat="37.8982459" lon="13.813571"><ele>299.6</ele><time>2026-04-26T10:38:09.304Z</time></trkpt><trkpt lat="37.8983399" lon="13.8136375"><ele>300.8</ele><time>2026-04-26T10:38:10.304Z</time></trkpt><trkpt lat="37.8984537" lon="13.8136967"><ele>302.0</ele><time>2026-04-26T10:38:11.304Z</time></trkpt><trkpt lat="37.8985741" lon="13.8137636"><ele>299.0</ele><time>2026-04-26T10:38:12.304Z</time></trkpt><trkpt lat="37.8986868" lon="13.8138445"><ele>296.0</ele><time>2026-04-26T10:38:13.304Z</time></trkpt><trkpt lat="37.8987956" lon="13.8139582"><ele>293.0</ele><time>2026-04-26T10:38:14.304Z</time></trkpt><trkpt lat="37.898896" lon="13.8140973"><ele>290.0</ele><time>2026-04-26T10:38:15.304Z</time></trkpt><trkpt lat="37.8989851" lon="13.8142683"><ele>290.33333333333337</ele><time>2026-04-26T10:38:16.304Z</time></trkpt><trkpt lat="37.8990641" lon="13.8144503"><ele>290.6666666666667</ele><time>2026-04-26T10:38:17.304Z</time></trkpt><trkpt lat="37.8991478" lon="13.8146245"><ele>291.0</ele><time>2026-04-26T10:38:18.304Z</time></trkpt><trkpt lat="37.8992272" lon="13.8147993"><ele>288.0</ele><time>2026-04-26T10:38:19.304Z</time></trkpt><trkpt lat="37.8993043" lon="13.8149651"><ele>285.0</ele><time>2026-04-26T10:38:20.304Z</time></trkpt><trkpt lat="37.8993968" lon="13.8151282"><ele>282.0</ele><time>2026-04-26T10:38:21.304Z</time></trkpt><trkpt lat="37.8995085" lon="13.815284"><ele>282.0</ele><time>2026-04-26T10:38:22.304Z</time></trkpt><trkpt lat="37.8996253" lon="13.8154271"><ele>282.0</ele><time>2026-04-26T10:38:23.304Z</time></trkpt><trkpt lat="37.8997332" lon="13.8155671"><ele>282.0</ele><time>2026-04-26T10:38:24.304Z</time></trkpt><trkpt lat="37.8998318" lon="13.8157011"><ele>282.0</ele><time>2026-04-26T10:38:25.304Z</time></trkpt><trkpt lat="37.8999214" lon="13.8158328"><ele>282.0</ele><time>2026-04-26T10:38:26.304Z</time></trkpt><trkpt lat="37.8999979" lon="13.8159773"><ele>282.0</ele><time>2026-04-26T10:38:27.304Z</time></trkpt><trkpt lat="37.9000598" lon="13.8161357"><ele>282.0</ele><time>2026-04-26T10:38:28.304Z</time></trkpt><trkpt lat="37.9001219" lon="13.8163037"><ele>283.25</ele><time>2026-04-26T10:38:29.304Z</time></trkpt><trkpt lat="37.9001872" lon="13.816467"><ele>284.5</ele><time>2026-04-26T10:38:30.304Z</time></trkpt><trkpt lat="37.9002603" lon="13.8166139"><ele>285.75</ele><time>2026-04-26T10:38:31.304Z</time></trkpt><trkpt lat="37.9003323" lon="13.8167269"><ele>287.0</ele><time>2026-04-26T10:38:32.304Z</time></trkpt><trkpt lat="37.900403" lon="13.8168093"><ele>287.0</ele><time>2026-04-26T10:38:33.304Z</time></trkpt><trkpt lat="37.9004655" lon="13.8168589"><ele>287.0</ele><time>2026-04-26T10:38:34.304Z</time></trkpt><trkpt lat="37.9005529" lon="13.8169068"><ele>287.0</ele><time>2026-04-26T10:38:36.304Z</time></trkpt><trkpt lat="37.9006243" lon="13.8169332"><ele>287.0</ele><time>2026-04-26T10:38:38.304Z</time></trkpt><trkpt lat="37.9007119" lon="13.8169045"><ele>287.0</ele><time>2026-04-26T10:38:40.304Z</time></trkpt><trkpt lat="37.9008" lon="13.816822"><ele>287.0</ele><time>2026-04-26T10:38:42.304Z</time></trkpt><trkpt lat="37.9008637" lon="13.8166819"><ele>287.0</ele><time>2026-04-26T10:38:44.304Z</time></trkpt><trkpt lat="37.9008946" lon="13.8165868"><ele>287.0</ele><time>2026-04-26T10:38:45.304Z</time></trkpt><trkpt lat="37.9009251" lon="13.8164901"><ele>287.0</ele><time>2026-04-26T10:38:46.303Z</time></trkpt><trkpt lat="37.9009748" lon="13.8163942"><ele>287.0</ele><time>2026-04-26T10:38:47.304Z</time></trkpt><trkpt lat="37.9010393" lon="13.8163071"><ele>287.0</ele><time>2026-04-26T10:38:48.304Z</time></trkpt><trkpt lat="37.9011059" lon="13.8162271"><ele>287.0</ele><time>2026-04-26T10:38:49.304Z</time></trkpt><trkpt lat="37.901179" lon="13.8161516"><ele>286.2</ele><time>2026-04-26T10:38:50.304Z</time></trkpt><trkpt lat="37.9012516" lon="13.8160827"><ele>285.4</ele><time>2026-04-26T10:38:51.304Z</time></trkpt><trkpt lat="37.9013235" lon="13.8160404"><ele>284.6</ele><time>2026-04-26T10:38:52.303Z</time></trkpt><trkpt lat="37.9014239" lon="13.8159885"><ele>283.8</ele><time>2026-04-26T10:38:54.304Z</time></trkpt><trkpt lat="37.9015288" lon="13.8159295"><ele>283.0</ele><time>2026-04-26T10:38:56.304Z</time></trkpt><trkpt lat="37.9016485" lon="13.8158651"><ele>283.0</ele><time>2026-04-26T10:38:58.304Z</time></trkpt><trkpt lat="37.9017115" lon="13.815828"><ele>283.0</ele><time>2026-04-26T10:38:59.304Z</time></trkpt><trkpt lat="37.9017764" lon="13.8157846"><ele>283.0</ele><time>2026-04-26T10:39:00.304Z</time></trkpt><trkpt lat="37.9018494" lon="13.8157457"><ele>283.0</ele><time>2026-04-26T10:39:01.304Z</time></trkpt><trkpt lat="37.9019291" lon="13.8157053"><ele>283.0</ele><time>2026-04-26T10:39:02.304Z</time></trkpt><trkpt lat="37.9020032" lon="13.8156701"><ele>283.0</ele><time>2026-04-26T10:39:03.304Z</time></trkpt><trkpt lat="37.9020947" lon="13.8156163"><ele>283.0</ele><time>2026-04-26T10:39:05.304Z</time></trkpt><trkpt lat="37.9021561" lon="13.8155756"><ele>283.0</ele><time>2026-04-26T10:39:07.304Z</time></trkpt><trkpt lat="37.9022303" lon="13.8155352"><ele>283.0</ele><time>2026-04-26T10:39:21.304Z</time></trkpt><trkpt lat="37.9021437" lon="13.8155535"><ele>283.0</ele><time>2026-04-26T10:39:28.304Z</time></trkpt><trkpt lat="37.9020794" lon="13.8155892"><ele>283.0</ele><time>2026-04-26T10:39:29.303Z</time></trkpt><trkpt lat="37.9020113" lon="13.8156246"><ele>283.0</ele><time>2026-04-26T10:39:30.304Z</time></trkpt><trkpt lat="37.9019284" lon="13.8156546"><ele>283.0</ele><time>2026-04-26T10:39:31.303Z</time></trkpt><trkpt lat="37.9018433" lon="13.815698"><ele>283.0</ele><time>2026-04-26T10:39:32.304Z</time></trkpt><trkpt lat="37.9017585" lon="13.8157374"><ele>283.0</ele><time>2026-04-26T10:39:33.304Z</time></trkpt><trkpt lat="37.9016673" lon="13.8157768"><ele>283.0</ele><time>2026-04-26T10:39:34.304Z</time></trkpt><trkpt lat="37.9015655" lon="13.8158138"><ele>283.0</ele><time>2026-04-26T10:39:35.304Z</time></trkpt><trkpt lat="37.9014593" lon="13.8158507"><ele>283.0</ele><time>2026-04-26T10:39:36.304Z</time></trkpt><trkpt lat="37.9013515" lon="13.8158909"><ele>283.0</ele><time>2026-04-26T10:39:37.304Z</time></trkpt><trkpt lat="37.9012481" lon="13.8159399"><ele>283.0</ele><time>2026-04-26T10:39:38.304Z</time></trkpt><trkpt lat="37.9011551" lon="13.8160057"><ele>283.0</ele><time>2026-04-26T10:39:39.303Z</time></trkpt><trkpt lat="37.901072" lon="13.8160872"><ele>283.0</ele><time>2026-04-26T10:39:40.304Z</time></trkpt><trkpt lat="37.9009922" lon="13.8161715"><ele>283.66666666666663</ele><time>2026-04-26T10:39:41.304Z</time></trkpt><trkpt lat="37.9009307" lon="13.8162723"><ele>284.3333333333333</ele><time>2026-04-26T10:39:42.304Z</time></trkpt><trkpt lat="37.9008772" lon="13.816374"><ele>285.0</ele><time>2026-04-26T10:39:43.303Z</time></trkpt><trkpt lat="37.9008339" lon="13.8164727"><ele>285.6666666666667</ele><time>2026-04-26T10:39:44.304Z</time></trkpt><trkpt lat="37.9008033" lon="13.8165589"><ele>286.33333333333337</ele><time>2026-04-26T10:39:45.304Z</time></trkpt><trkpt lat="37.9007902" lon="13.816637"><ele>287.0</ele><time>2026-04-26T10:39:46.304Z</time></trkpt><trkpt lat="37.9007486" lon="13.8167672"><ele>288.6666666666667</ele><time>2026-04-26T10:39:48.304Z</time></trkpt><trkpt lat="37.9006907" lon="13.8168379"><ele>290.33333333333337</ele><time>2026-04-26T10:39:50.304Z</time></trkpt><trkpt lat="37.9006401" lon="13.8168871"><ele>292.0</ele><time>2026-04-26T10:39:52.303Z</time></trkpt><trkpt lat="37.9006275" lon="13.8169689"><ele>293.6666666666667</ele><time>2026-04-26T10:39:54.304Z</time></trkpt><trkpt lat="37.9006706" lon="13.8170856"><ele>295.3333333333333</ele><time>2026-04-26T10:39:56.304Z</time></trkpt><trkpt lat="37.9007761" lon="13.8171376"><ele>297.0</ele><time>2026-04-26T10:39:58.303Z</time></trkpt><trkpt lat="37.9008418" lon="13.8171212"><ele>298.75</ele><time>2026-04-26T10:39:59.304Z</time></trkpt><trkpt lat="37.9009439" lon="13.8170845"><ele>300.5</ele><time>2026-04-26T10:40:01.304Z</time></trkpt><trkpt lat="37.9010625" lon="13.8170236"><ele>302.25</ele><time>2026-04-26T10:40:03.304Z</time></trkpt><trkpt lat="37.9011696" lon="13.8169543"><ele>304.0</ele><time>2026-04-26T10:40:05.304Z</time></trkpt><trkpt lat="37.9012645" lon="13.8168933"><ele>304.0</ele><time>2026-04-26T10:40:07.304Z</time></trkpt><trkpt lat="37.9013334" lon="13.8168641"><ele>304.0</ele><time>2026-04-26T10:40:09.304Z</time></trkpt><trkpt lat="37.9014081" lon="13.816922"><ele>304.0</ele><time>2026-04-26T10:40:12.304Z</time></trkpt><trkpt lat="37.9014564" lon="13.817034"><ele>304.0</ele><time>2026-04-26T10:40:15.304Z</time></trkpt><trkpt lat="37.9014896" lon="13.817139"><ele>304.0</ele><time>2026-04-26T10:40:17.304Z</time></trkpt><trkpt lat="37.9015398" lon="13.8172701"><ele>304.0</ele><time>2026-04-26T10:40:19.304Z</time></trkpt><trkpt lat="37.9015563" lon="13.8173492"><ele>304.0</ele><time>2026-04-26T10:40:20.304Z</time></trkpt><trkpt lat="37.9015904" lon="13.8174772"><ele>304.0</ele><time>2026-04-26T10:40:22.304Z</time></trkpt><trkpt lat="37.9016154" lon="13.8175834"><ele>304.0</ele><time>2026-04-26T10:40:24.304Z</time></trkpt><trkpt lat="37.9016431" lon="13.8176861"><ele>304.0</ele><time>2026-04-26T10:40:26.304Z</time></trkpt><trkpt lat="37.9016701" lon="13.8177932"><ele>304.0</ele><time>2026-04-26T10:40:28.304Z</time></trkpt><trkpt lat="37.9016975" lon="13.8179069"><ele>304.8333333333333</ele><time>2026-04-26T10:40:30.304Z</time></trkpt><trkpt lat="37.9017275" lon="13.8180037"><ele>305.66666666666663</ele><time>2026-04-26T10:40:33.304Z</time></trkpt><trkpt lat="37.9017614" lon="13.8180765"><ele>306.5</ele><time>2026-04-26T10:40:36.304Z</time></trkpt><trkpt lat="37.9018486" lon="13.8180385"><ele>307.3333333333333</ele><time>2026-04-26T10:40:39.304Z</time></trkpt><trkpt lat="37.9018966" lon="13.8179864"><ele>308.1666666666667</ele><time>2026-04-26T10:40:40.304Z</time></trkpt><trkpt lat="37.9019513" lon="13.817927"><ele>309.0</ele><time>2026-04-26T10:40:41.304Z</time></trkpt><trkpt lat="37.9020184" lon="13.8178674"><ele>309.0</ele><time>2026-04-26T10:40:42.304Z</time></trkpt><trkpt lat="37.9020903" lon="13.8178129"><ele>309.0</ele><time>2026-04-26T10:40:43.304Z</time></trkpt><trkpt lat="37.9021601" lon="13.8177661"><ele>309.0</ele><time>2026-04-26T10:40:44.304Z</time></trkpt><trkpt lat="37.9022267" lon="13.8177234"><ele>309.0</ele><time>2026-04-26T10:40:45.304Z</time></trkpt><trkpt lat="37.9022926" lon="13.8176859"><ele>309.0</ele><time>2026-04-26T10:40:46.304Z</time></trkpt><trkpt lat="37.9023599" lon="13.8176586"><ele>309.0</ele><time>2026-04-26T10:40:47.304Z</time></trkpt><trkpt lat="37.9024346" lon="13.8176395"><ele>307.7142857142857</ele><time>2026-04-26T10:40:48.304Z</time></trkpt><trkpt lat="37.9025004" lon="13.8176257"><ele>306.42857142857144</ele><time>2026-04-26T10:40:49.304Z</time></trkpt><trkpt lat="37.9025694" lon="13.8176088"><ele>305.1428571428571</ele><time>2026-04-26T10:40:50.303Z</time></trkpt><trkpt lat="37.9026385" lon="13.8175805"><ele>303.8571428571429</ele><time>2026-04-26T10:40:51.304Z</time></trkpt><trkpt lat="37.9027116" lon="13.817547"><ele>302.57142857142856</ele><time>2026-04-26T10:40:52.304Z</time></trkpt><trkpt lat="37.9027855" lon="13.8175067"><ele>301.2857142857143</ele><time>2026-04-26T10:40:53.304Z</time></trkpt><trkpt lat="37.9028529" lon="13.8174767"><ele>300.0</ele><time>2026-04-26T10:40:54.304Z</time></trkpt><trkpt lat="37.9029238" lon="13.8174355"><ele>299.4</ele><time>2026-04-26T10:40:55.304Z</time></trkpt><trkpt lat="37.9030275" lon="13.8173749"><ele>298.8</ele><time>2026-04-26T10:40:57.304Z</time></trkpt><trkpt lat="37.9031024" lon="13.8173288"><ele>298.2</ele><time>2026-04-26T10:41:00.304Z</time></trkpt><trkpt lat="37.9031847" lon="13.8173474"><ele>297.6</ele><time>2026-04-26T10:41:09.304Z</time></trkpt><trkpt lat="37.9032175" lon="13.8174418"><ele>297.0</ele><time>2026-04-26T10:41:11.304Z</time></trkpt><trkpt lat="37.9032551" lon="13.817562"><ele>297.6666666666667</ele><time>2026-04-26T10:41:13.303Z</time></trkpt><trkpt lat="37.9033082" lon="13.8176648"><ele>298.3333333333333</ele><time>2026-04-26T10:41:15.304Z</time></trkpt><trkpt lat="37.9033549" lon="13.8177204"><ele>299.0</ele><time>2026-04-26T10:41:17.304Z</time></trkpt><trkpt lat="37.9034341" lon="13.8176999"><ele>299.66666666666663</ele><time>2026-04-26T10:41:19.304Z</time></trkpt><trkpt lat="37.9035476" lon="13.8176179"><ele>300.3333333333333</ele><time>2026-04-26T10:41:21.304Z</time></trkpt><trkpt lat="37.9036117" lon="13.8175865"><ele>301.0</ele><time>2026-04-26T10:41:22.304Z</time></trkpt><trkpt lat="37.9036758" lon="13.8175517"><ele>301.0</ele><time>2026-04-26T10:41:23.304Z</time></trkpt><trkpt lat="37.9037388" lon="13.8175147"><ele>301.0</ele><time>2026-04-26T10:41:24.304Z</time></trkpt><trkpt lat="37.9038075" lon="13.8174779"><ele>301.0</ele><time>2026-04-26T10:41:25.304Z</time></trkpt><trkpt lat="37.9038808" lon="13.817444"><ele>301.0</ele><time>2026-04-26T10:41:26.304Z</time></trkpt><trkpt lat="37.9039492" lon="13.8174051"><ele>301.0</ele><time>2026-04-26T10:41:27.304Z</time></trkpt><trkpt lat="37.9040697" lon="13.8173387"><ele>301.0</ele><time>2026-04-26T10:41:29.304Z</time></trkpt><trkpt lat="37.9041767" lon="13.8172885"><ele>302.8</ele><time>2026-04-26T10:41:31.304Z</time></trkpt><trkpt lat="37.9042552" lon="13.8172355"><ele>304.6</ele><time>2026-04-26T10:41:33.304Z</time></trkpt><trkpt lat="37.9043361" lon="13.8171859"><ele>306.4</ele><time>2026-04-26T10:41:35.304Z</time></trkpt><trkpt lat="37.9044435" lon="13.8171248"><ele>308.2</ele><time>2026-04-26T10:41:37.303Z</time></trkpt><trkpt lat="37.9045291" lon="13.8170801"><ele>310.0</ele><time>2026-04-26T10:41:39.304Z</time></trkpt><trkpt lat="37.9046189" lon="13.8170389"><ele>310.0</ele><time>2026-04-26T10:41:41.304Z</time></trkpt><trkpt lat="37.9047166" lon="13.8169741"><ele>310.0</ele><time>2026-04-26T10:41:43.304Z</time></trkpt><trkpt lat="37.9048389" lon="13.816949"><ele>310.0</ele><time>2026-04-26T10:41:45.304Z</time></trkpt><trkpt lat="37.9049033" lon="13.8169218"><ele>310.0</ele><time>2026-04-26T10:41:46.304Z</time></trkpt><trkpt lat="37.9049685" lon="13.8169037"><ele>310.0</ele><time>2026-04-26T10:41:47.304Z</time></trkpt><trkpt lat="37.9050334" lon="13.8168806"><ele>310.0</ele><time>2026-04-26T10:41:48.304Z</time></trkpt><trkpt lat="37.9051476" lon="13.8168182"><ele>309.3333333333333</ele><time>2026-04-26T10:41:50.304Z</time></trkpt><trkpt lat="37.9052121" lon="13.8167941"><ele>308.66666666666663</ele><time>2026-04-26T10:41:51.304Z</time></trkpt><trkpt lat="37.9052725" lon="13.8167664"><ele>308.0</ele><time>2026-04-26T10:41:52.303Z</time></trkpt><trkpt lat="37.9053837" lon="13.8166949"><ele>307.3333333333333</ele><time>2026-04-26T10:41:54.304Z</time></trkpt><trkpt lat="37.9054469" lon="13.8166615"><ele>306.6666666666667</ele><time>2026-04-26T10:41:55.304Z</time></trkpt><trkpt lat="37.9055083" lon="13.8166262"><ele>306.0</ele><time>2026-04-26T10:41:56.304Z</time></trkpt><trkpt lat="37.9055696" lon="13.8165948"><ele>306.0</ele><time>2026-04-26T10:41:57.303Z</time></trkpt><trkpt lat="37.9056288" lon="13.8165646"><ele>306.0</ele><time>2026-04-26T10:41:58.304Z</time></trkpt><trkpt lat="37.9057397" lon="13.8165042"><ele>306.0</ele><time>2026-04-26T10:42:00.304Z</time></trkpt><trkpt lat="37.9058601" lon="13.8164517"><ele>306.0</ele><time>2026-04-26T10:42:02.304Z</time></trkpt><trkpt lat="37.9059225" lon="13.8164194"><ele>306.0</ele><time>2026-04-26T10:42:03.304Z</time></trkpt><trkpt lat="37.9060331" lon="13.8163621"><ele>308.6</ele><time>2026-04-26T10:42:05.304Z</time></trkpt><trkpt lat="37.9060939" lon="13.816338"><ele>311.20000000000005</ele><time>2026-04-26T10:42:06.304Z</time></trkpt><trkpt lat="37.9061532" lon="13.816311"><ele>313.79999999999995</ele><time>2026-04-26T10:42:07.304Z</time></trkpt><trkpt lat="37.9062609" lon="13.8162553"><ele>316.4</ele><time>2026-04-26T10:42:09.304Z</time></trkpt><trkpt lat="37.9063502" lon="13.8161965"><ele>319.0</ele><time>2026-04-26T10:42:11.303Z</time></trkpt><trkpt lat="37.9064434" lon="13.8161328"><ele>319.0</ele><time>2026-04-26T10:42:13.304Z</time></trkpt><trkpt lat="37.9065137" lon="13.8161027"><ele>319.0</ele><time>2026-04-26T10:42:15.304Z</time></trkpt><trkpt lat="37.9065984" lon="13.8160647"><ele>319.0</ele><time>2026-04-26T10:42:36.304Z</time></trkpt><trkpt lat="37.9066546" lon="13.8160278"><ele>319.0</ele><time>2026-04-26T10:42:38.304Z</time></trkpt><trkpt lat="37.9067317" lon="13.8159952"><ele>319.0</ele><time>2026-04-26T10:43:02.304Z</time></trkpt><trkpt lat="37.9068218" lon="13.8159419"><ele>319.0</ele><time>2026-04-26T10:43:04.304Z</time></trkpt><trkpt lat="37.9069232" lon="13.8159109"><ele>319.0</ele><time>2026-04-26T10:43:06.304Z</time></trkpt><trkpt lat="37.9069901" lon="13.815915"><ele>319.0</ele><time>2026-04-26T10:43:07.303Z</time></trkpt><trkpt lat="37.9070511" lon="13.8159436"><ele>319.0</ele><time>2026-04-26T10:43:08.304Z</time></trkpt><trkpt lat="37.9071139" lon="13.8159838"><ele>319.0</ele><time>2026-04-26T10:43:09.304Z</time></trkpt><trkpt lat="37.9071719" lon="13.8160294"><ele>319.0</ele><time>2026-04-26T10:43:10.304Z</time></trkpt><trkpt lat="37.9072393" lon="13.8160743"><ele>319.0</ele><time>2026-04-26T10:43:11.304Z</time></trkpt><trkpt lat="37.9073008" lon="13.8161456"><ele>319.0</ele><time>2026-04-26T10:43:12.304Z</time></trkpt><trkpt lat="37.9073614" lon="13.8162063"><ele>319.0</ele><time>2026-04-26T10:43:13.304Z</time></trkpt><trkpt lat="37.907421" lon="13.8162689"><ele>319.0</ele><time>2026-04-26T10:43:14.304Z</time></trkpt><trkpt lat="37.907475" lon="13.8163438"><ele>319.0</ele><time>2026-04-26T10:43:15.304Z</time></trkpt><trkpt lat="37.9075343" lon="13.8164207"><ele>319.0</ele><time>2026-04-26T10:43:16.304Z</time></trkpt><trkpt lat="37.9076018" lon="13.8164906"><ele>319.0</ele><time>2026-04-26T10:43:17.304Z</time></trkpt><trkpt lat="37.9076828" lon="13.8165429"><ele>319.0</ele><time>2026-04-26T10:43:18.304Z</time></trkpt><trkpt lat="37.9077634" lon="13.8165854"><ele>319.16666666666663</ele><time>2026-04-26T10:43:19.304Z</time></trkpt><trkpt lat="37.9078452" lon="13.8166253"><ele>319.3333333333333</ele><time>2026-04-26T10:43:20.304Z</time></trkpt><trkpt lat="37.907921" lon="13.8166659"><ele>319.5</ele><time>2026-04-26T10:43:21.304Z</time></trkpt><trkpt lat="37.9079962" lon="13.8167045"><ele>319.6666666666667</ele><time>2026-04-26T10:43:22.304Z</time></trkpt><trkpt lat="37.9080732" lon="13.8167422"><ele>319.83333333333337</ele><time>2026-04-26T10:43:23.303Z</time></trkpt><trkpt lat="37.9081454" lon="13.8167787"><ele>320.0</ele><time>2026-04-26T10:43:24.304Z</time></trkpt><trkpt lat="37.9082121" lon="13.8168106"><ele>320.8</ele><time>2026-04-26T10:43:25.304Z</time></trkpt><trkpt lat="37.9082718" lon="13.8168381"><ele>321.6</ele><time>2026-04-26T10:43:26.303Z</time></trkpt><trkpt lat="37.908377" lon="13.8168682"><ele>322.4</ele><time>2026-04-26T10:43:28.304Z</time></trkpt><trkpt lat="37.9084513" lon="13.816818"><ele>323.2</ele><time>2026-04-26T10:43:30.303Z</time></trkpt><trkpt lat="37.9085488" lon="13.8167242"><ele>324.0</ele><time>2026-04-26T10:43:32.304Z</time></trkpt><trkpt lat="37.9086128" lon="13.816674"><ele>324.0</ele><time>2026-04-26T10:43:33.304Z</time></trkpt><trkpt lat="37.9086828" lon="13.8166287"><ele>324.0</ele><time>2026-04-26T10:43:34.304Z</time></trkpt><trkpt lat="37.9087502" lon="13.8165811"><ele>324.0</ele><time>2026-04-26T10:43:35.304Z</time></trkpt><trkpt lat="37.9088178" lon="13.8165347"><ele>324.0</ele><time>2026-04-26T10:43:36.304Z</time></trkpt><trkpt lat="37.9088792" lon="13.8164869"><ele>324.0</ele><time>2026-04-26T10:43:37.304Z</time></trkpt><trkpt lat="37.908932" lon="13.816425"><ele>324.0</ele><time>2026-04-26T10:43:38.304Z</time></trkpt><trkpt lat="37.9089667" lon="13.8163488"><ele>324.0</ele><time>2026-04-26T10:43:39.303Z</time></trkpt><trkpt lat="37.9089743" lon="13.8162513"><ele>324.0</ele><time>2026-04-26T10:43:40.304Z</time></trkpt><trkpt lat="37.9089685" lon="13.8161596"><ele>324.0</ele><time>2026-04-26T10:43:41.304Z</time></trkpt><trkpt lat="37.9089555" lon="13.8160737"><ele>324.0</ele><time>2026-04-26T10:43:42.304Z</time></trkpt><trkpt lat="37.9089414" lon="13.8159837"><ele>324.0</ele><time>2026-04-26T10:43:43.304Z</time></trkpt><trkpt lat="37.9089296" lon="13.8158966"><ele>324.0</ele><time>2026-04-26T10:43:44.304Z</time></trkpt><trkpt lat="37.9089189" lon="13.8158141"><ele>324.0</ele><time>2026-04-26T10:43:45.304Z</time></trkpt><trkpt lat="37.9088952" lon="13.8156538"><ele>321.59999999999997</ele><time>2026-04-26T10:43:47.304Z</time></trkpt><trkpt lat="37.9088853" lon="13.8155722"><ele>319.2</ele><time>2026-04-26T10:43:48.303Z</time></trkpt><trkpt lat="37.9088658" lon="13.8154167"><ele>316.79999999999995</ele><time>2026-04-26T10:43:50.304Z</time></trkpt><trkpt lat="37.9088419" lon="13.8152716"><ele>314.4</ele><time>2026-04-26T10:43:52.304Z</time></trkpt><trkpt lat="37.9088254" lon="13.8151857"><ele>312.0</ele><time>2026-04-26T10:43:53.304Z</time></trkpt><trkpt lat="37.9088135" lon="13.8150864"><ele>310.14285714285717</ele><time>2026-04-26T10:43:54.304Z</time></trkpt><trkpt lat="37.9087981" lon="13.814987"><ele>308.2857142857143</ele><time>2026-04-26T10:43:55.304Z</time></trkpt><trkpt lat="37.9087854" lon="13.8148915"><ele>306.42857142857144</ele><time>2026-04-26T10:43:56.303Z</time></trkpt><trkpt lat="37.908772" lon="13.8147942"><ele>304.57142857142856</ele><time>2026-04-26T10:43:57.304Z</time></trkpt><trkpt lat="37.9087614" lon="13.814706"><ele>302.7142857142857</ele><time>2026-04-26T10:43:58.304Z</time></trkpt><trkpt lat="37.9087507" lon="13.8146197"><ele>300.85714285714283</ele><time>2026-04-26T10:43:59.303Z</time></trkpt><trkpt lat="37.9087394" lon="13.8145356"><ele>299.0</ele><time>2026-04-26T10:44:00.304Z</time></trkpt><trkpt lat="37.9087248" lon="13.8144453"><ele>299.0</ele><time>2026-04-26T10:44:01.304Z</time></trkpt><trkpt lat="37.9087143" lon="13.8143608"><ele>299.0</ele><time>2026-04-26T10:44:02.304Z</time></trkpt><trkpt lat="37.9086985" lon="13.8142719"><ele>299.0</ele><time>2026-04-26T10:44:03.304Z</time></trkpt><trkpt lat="37.9086748" lon="13.8141761"><ele>299.0</ele><time>2026-04-26T10:44:04.304Z</time></trkpt><trkpt lat="37.9086438" lon="13.8140794"><ele>299.0</ele><time>2026-04-26T10:44:05.303Z</time></trkpt><trkpt lat="37.9085949" lon="13.8139912"><ele>299.0</ele><time>2026-04-26T10:44:06.304Z</time></trkpt><trkpt lat="37.9085366" lon="13.8139249"><ele>297.0</ele><time>2026-04-26T10:44:07.304Z</time></trkpt><trkpt lat="37.9084725" lon="13.8138704"><ele>295.0</ele><time>2026-04-26T10:44:08.304Z</time></trkpt><trkpt lat="37.9084043" lon="13.8138193"><ele>293.0</ele><time>2026-04-26T10:44:09.304Z</time></trkpt><trkpt lat="37.9083517" lon="13.8137612"><ele>291.0</ele><time>2026-04-26T10:44:10.303Z</time></trkpt><trkpt lat="37.9083058" lon="13.8136854"><ele>289.0</ele><time>2026-04-26T10:44:11.304Z</time></trkpt><trkpt lat="37.9082671" lon="13.8135969"><ele>287.0</ele><time>2026-04-26T10:44:12.304Z</time></trkpt><trkpt lat="37.9082343" lon="13.8135092"><ele>284.33333333333337</ele><time>2026-04-26T10:44:13.304Z</time></trkpt><trkpt lat="37.9082104" lon="13.8134213"><ele>281.6666666666667</ele><time>2026-04-26T10:44:14.303Z</time></trkpt><trkpt lat="37.9081901" lon="13.813335"><ele>279.0</ele><time>2026-04-26T10:44:15.302Z</time></trkpt><trkpt lat="37.9081662" lon="13.8132466"><ele>276.3333333333333</ele><time>2026-04-26T10:44:16.303Z</time></trkpt><trkpt lat="37.9081273" lon="13.8131143"><ele>273.66666666666663</ele><time>2026-04-26T10:44:18.303Z</time></trkpt><trkpt lat="37.9080982" lon="13.813009"><ele>271.0</ele><time>2026-04-26T10:44:21.303Z</time></trkpt><trkpt lat="37.9080417" lon="13.8129718"><ele>271.0</ele><time>2026-04-26T10:44:23.303Z</time></trkpt><trkpt lat="37.9079729" lon="13.8129678"><ele>271.0</ele><time>2026-04-26T10:44:25.303Z</time></trkpt><trkpt lat="37.9079289" lon="13.8128721"><ele>271.0</ele><time>2026-04-26T10:44:28.303Z</time></trkpt><trkpt lat="37.9079576" lon="13.8127285"><ele>271.0</ele><time>2026-04-26T10:44:30.303Z</time></trkpt><trkpt lat="37.9080123" lon="13.8125809"><ele>271.0</ele><time>2026-04-26T10:44:32.303Z</time></trkpt><trkpt lat="37.9080533" lon="13.8125074"><ele>270.8333333333333</ele><time>2026-04-26T10:44:33.302Z</time></trkpt><trkpt lat="37.9081035" lon="13.8124433"><ele>270.66666666666663</ele><time>2026-04-26T10:44:34.303Z</time></trkpt><trkpt lat="37.908162" lon="13.8123799"><ele>270.5</ele><time>2026-04-26T10:44:35.303Z</time></trkpt><trkpt lat="37.9082268" lon="13.8123336"><ele>270.3333333333333</ele><time>2026-04-26T10:44:36.303Z</time></trkpt><trkpt lat="37.9082964" lon="13.8122881"><ele>270.1666666666667</ele><time>2026-04-26T10:44:37.303Z</time></trkpt><trkpt lat="37.9083696" lon="13.8122531"><ele>270.0</ele><time>2026-04-26T10:44:38.303Z</time></trkpt><trkpt lat="37.9084479" lon="13.8122232"><ele>270.0</ele><time>2026-04-26T10:44:39.303Z</time></trkpt><trkpt lat="37.9085217" lon="13.8121926"><ele>270.0</ele><time>2026-04-26T10:44:40.303Z</time></trkpt><trkpt lat="37.9085912" lon="13.8121654"><ele>270.0</ele><time>2026-04-26T10:44:41.303Z</time></trkpt><trkpt lat="37.9086605" lon="13.8121368"><ele>270.0</ele><time>2026-04-26T10:44:42.303Z</time></trkpt><trkpt lat="37.9087287" lon="13.8121041"><ele>270.0</ele><time>2026-04-26T10:44:43.303Z</time></trkpt><trkpt lat="37.9087916" lon="13.8120678"><ele>270.0</ele><time>2026-04-26T10:44:44.303Z</time></trkpt><trkpt lat="37.9088688" lon="13.8120207"><ele>270.0</ele><time>2026-04-26T10:44:45.303Z</time></trkpt><trkpt lat="37.908925" lon="13.8119072"><ele>270.0</ele><time>2026-04-26T10:44:47.303Z</time></trkpt><trkpt lat="37.9088846" lon="13.8117596"><ele>270.0</ele><time>2026-04-26T10:44:49.303Z</time></trkpt><trkpt lat="37.9088119" lon="13.811658"><ele>270.0</ele><time>2026-04-26T10:44:51.303Z</time></trkpt><trkpt lat="37.9087634" lon="13.8115965"><ele>270.0</ele><time>2026-04-26T10:44:52.303Z</time></trkpt><trkpt lat="37.9087214" lon="13.8115297"><ele>268.3333333333333</ele><time>2026-04-26T10:44:53.303Z</time></trkpt><trkpt lat="37.9086818" lon="13.8114632"><ele>266.6666666666667</ele><time>2026-04-26T10:44:54.303Z</time></trkpt><trkpt lat="37.9086445" lon="13.8113985"><ele>265.0</ele><time>2026-04-26T10:44:55.303Z</time></trkpt><trkpt lat="37.9086056" lon="13.8113324"><ele>263.33333333333337</ele><time>2026-04-26T10:44:56.303Z</time></trkpt><trkpt lat="37.908533" lon="13.8112002"><ele>261.6666666666667</ele><time>2026-04-26T10:44:58.303Z</time></trkpt><trkpt lat="37.9085046" lon="13.8111283"><ele>260.0</ele><time>2026-04-26T10:44:59.303Z</time></trkpt><trkpt lat="37.9084635" lon="13.810981"><ele>258.6</ele><time>2026-04-26T10:45:01.303Z</time></trkpt><trkpt lat="37.908438" lon="13.8108267"><ele>257.2</ele><time>2026-04-26T10:45:03.303Z</time></trkpt><trkpt lat="37.9084327" lon="13.8107463"><ele>255.8</ele><time>2026-04-26T10:45:04.303Z</time></trkpt><trkpt lat="37.9084366" lon="13.8105961"><ele>254.4</ele><time>2026-04-26T10:45:06.303Z</time></trkpt><trkpt lat="37.9084656" lon="13.8104574"><ele>253.0</ele><time>2026-04-26T10:45:08.302Z</time></trkpt><trkpt lat="37.9085196" lon="13.8103344"><ele>253.0</ele><time>2026-04-26T10:45:10.303Z</time></trkpt><trkpt lat="37.9086181" lon="13.8102245"><ele>253.0</ele><time>2026-04-26T10:45:12.303Z</time></trkpt><trkpt lat="37.9086928" lon="13.8101816"><ele>253.0</ele><time>2026-04-26T10:45:13.303Z</time></trkpt><trkpt lat="37.9087767" lon="13.8101459"><ele>253.0</ele><time>2026-04-26T10:45:14.303Z</time></trkpt><trkpt lat="37.9088684" lon="13.8101312"><ele>253.0</ele><time>2026-04-26T10:45:15.303Z</time></trkpt><trkpt lat="37.9089769" lon="13.8101293"><ele>250.0</ele><time>2026-04-26T10:45:16.303Z</time></trkpt><trkpt lat="37.9090931" lon="13.8101366"><ele>247.0</ele><time>2026-04-26T10:45:17.303Z</time></trkpt><trkpt lat="37.9092161" lon="13.8101434"><ele>244.0</ele><time>2026-04-26T10:45:18.303Z</time></trkpt><trkpt lat="37.9093466" lon="13.8101396"><ele>241.0</ele><time>2026-04-26T10:45:19.303Z</time></trkpt><trkpt lat="37.9094834" lon="13.8101345"><ele>239.5</ele><time>2026-04-26T10:45:20.303Z</time></trkpt><trkpt lat="37.9096246" lon="13.8101164"><ele>238.0</ele><time>2026-04-26T10:45:21.303Z</time></trkpt><trkpt lat="37.909755" lon="13.8100709"><ele>236.5</ele><time>2026-04-26T10:45:22.303Z</time></trkpt><trkpt lat="37.9098716" lon="13.8100167"><ele>235.0</ele><time>2026-04-26T10:45:23.303Z</time></trkpt><trkpt lat="37.9099805" lon="13.8099543"><ele>236.6</ele><time>2026-04-26T10:45:24.303Z</time></trkpt><trkpt lat="37.9100856" lon="13.8098884"><ele>238.2</ele><time>2026-04-26T10:45:25.303Z</time></trkpt><trkpt lat="37.9101784" lon="13.8098147"><ele>239.8</ele><time>2026-04-26T10:45:26.303Z</time></trkpt><trkpt lat="37.9102706" lon="13.8097436"><ele>241.4</ele><time>2026-04-26T10:45:27.303Z</time></trkpt><trkpt lat="37.9103468" lon="13.8096548"><ele>243.0</ele><time>2026-04-26T10:45:28.303Z</time></trkpt><trkpt lat="37.9103906" lon="13.809561"><ele>243.0</ele><time>2026-04-26T10:45:29.303Z</time></trkpt><trkpt lat="37.9104153" lon="13.8094693"><ele>243.0</ele><time>2026-04-26T10:45:30.303Z</time></trkpt><trkpt lat="37.9104245" lon="13.80939"><ele>243.0</ele><time>2026-04-26T10:45:31.303Z</time></trkpt><trkpt lat="37.9104194" lon="13.8092658"><ele>243.0</ele><time>2026-04-26T10:45:33.303Z</time></trkpt><trkpt lat="37.9104068" lon="13.8091633"><ele>243.0</ele><time>2026-04-26T10:45:36.303Z</time></trkpt><trkpt lat="37.9104094" lon="13.8090593"><ele>243.0</ele><time>2026-04-26T10:45:38.302Z</time></trkpt><trkpt lat="37.9104122" lon="13.8089728"><ele>242.33333333333334</ele><time>2026-04-26T10:45:41.303Z</time></trkpt><trkpt lat="37.9104142" lon="13.8088777"><ele>241.66666666666669</ele><time>2026-04-26T10:45:43.303Z</time></trkpt><trkpt lat="37.9104284" lon="13.8087682"><ele>241.0</ele><time>2026-04-26T10:45:45.303Z</time></trkpt><trkpt lat="37.9104614" lon="13.8086593"><ele>240.33333333333334</ele><time>2026-04-26T10:45:47.303Z</time></trkpt><trkpt lat="37.9105105" lon="13.8085468"><ele>239.66666666666669</ele><time>2026-04-26T10:45:49.303Z</time></trkpt><trkpt lat="37.9105511" lon="13.8084774"><ele>239.0</ele><time>2026-04-26T10:45:50.303Z</time></trkpt><trkpt lat="37.9105897" lon="13.8083975"><ele>238.39999999999998</ele><time>2026-04-26T10:45:51.303Z</time></trkpt><trkpt lat="37.9106471" lon="13.8083102"><ele>237.79999999999998</ele><time>2026-04-26T10:45:52.303Z</time></trkpt><trkpt lat="37.9107054" lon="13.8082055"><ele>237.20000000000002</ele><time>2026-04-26T10:45:53.303Z</time></trkpt><trkpt lat="37.910772" lon="13.8081031"><ele>236.60000000000002</ele><time>2026-04-26T10:45:54.302Z</time></trkpt><trkpt lat="37.910838" lon="13.8080005"><ele>236.0</ele><time>2026-04-26T10:45:55.303Z</time></trkpt><trkpt lat="37.9109011" lon="13.8078992"><ele>236.60000000000002</ele><time>2026-04-26T10:45:56.303Z</time></trkpt><trkpt lat="37.9109593" lon="13.8077987"><ele>237.20000000000002</ele><time>2026-04-26T10:45:57.302Z</time></trkpt><trkpt lat="37.9110189" lon="13.8076998"><ele>237.79999999999998</ele><time>2026-04-26T10:45:58.303Z</time></trkpt><trkpt lat="37.9110805" lon="13.8076008"><ele>238.39999999999998</ele><time>2026-04-26T10:45:59.303Z</time></trkpt><trkpt lat="37.9111444" lon="13.8074955"><ele>239.0</ele><time>2026-04-26T10:46:00.303Z</time></trkpt><trkpt lat="37.9112159" lon="13.8073939"><ele>237.0</ele><time>2026-04-26T10:46:01.303Z</time></trkpt><trkpt lat="37.9112939" lon="13.8073045"><ele>234.99999999999997</ele><time>2026-04-26T10:46:02.303Z</time></trkpt><trkpt lat="37.9113866" lon="13.8072295"><ele>232.99999999999997</ele><time>2026-04-26T10:46:03.303Z</time></trkpt><trkpt lat="37.911485" lon="13.8071695"><ele>231.0</ele><time>2026-04-26T10:46:04.303Z</time></trkpt><trkpt lat="37.9115897" lon="13.807125"><ele>229.0</ele><time>2026-04-26T10:46:05.303Z</time></trkpt><trkpt lat="37.9116998" lon="13.8070947"><ele>228.75</ele><time>2026-04-26T10:46:06.303Z</time></trkpt><trkpt lat="37.9118159" lon="13.8070711"><ele>228.5</ele><time>2026-04-26T10:46:07.303Z</time></trkpt><trkpt lat="37.9119367" lon="13.8070488"><ele>228.25</ele><time>2026-04-26T10:46:08.303Z</time></trkpt><trkpt lat="37.9120634" lon="13.8070405"><ele>228.0</ele><time>2026-04-26T10:46:09.303Z</time></trkpt><trkpt lat="37.9121727" lon="13.8070133"><ele>228.0</ele><time>2026-04-26T10:46:10.303Z</time></trkpt><trkpt lat="37.9122792" lon="13.8069949"><ele>228.0</ele><time>2026-04-26T10:46:11.303Z</time></trkpt><trkpt lat="37.9123835" lon="13.8069664"><ele>228.0</ele><time>2026-04-26T10:46:12.303Z</time></trkpt><trkpt lat="37.9124936" lon="13.8069364"><ele>228.0</ele><time>2026-04-26T10:46:13.303Z</time></trkpt><trkpt lat="37.9125983" lon="13.8069048"><ele>228.0</ele><time>2026-04-26T10:46:14.302Z</time></trkpt><trkpt lat="37.9126995" lon="13.8068644"><ele>226.60000000000002</ele><time>2026-04-26T10:46:15.302Z</time></trkpt><trkpt lat="37.9127925" lon="13.8068074"><ele>225.20000000000002</ele><time>2026-04-26T10:46:16.303Z</time></trkpt><trkpt lat="37.9128704" lon="13.8067309"><ele>223.8</ele><time>2026-04-26T10:46:17.303Z</time></trkpt><trkpt lat="37.9129394" lon="13.806646"><ele>222.4</ele><time>2026-04-26T10:46:18.303Z</time></trkpt><trkpt lat="37.9130047" lon="13.8065543"><ele>221.0</ele><time>2026-04-26T10:46:19.303Z</time></trkpt><trkpt lat="37.9130634" lon="13.8064655"><ele>221.00000000000003</ele><time>2026-04-26T10:46:20.303Z</time></trkpt><trkpt lat="37.9131199" lon="13.8063806"><ele>221.0</ele><time>2026-04-26T10:46:21.303Z</time></trkpt><trkpt lat="37.9131769" lon="13.8063064"><ele>221.0</ele><time>2026-04-26T10:46:22.303Z</time></trkpt><trkpt lat="37.9132324" lon="13.8062345"><ele>221.0</ele><time>2026-04-26T10:46:23.303Z</time></trkpt><trkpt lat="37.9132917" lon="13.8061691"><ele>221.00000000000003</ele><time>2026-04-26T10:46:24.302Z</time></trkpt><trkpt lat="37.9133588" lon="13.8061036"><ele>221.0</ele><time>2026-04-26T10:46:25.303Z</time></trkpt><trkpt lat="37.9134267" lon="13.8060342"><ele>221.00000000000003</ele><time>2026-04-26T10:46:26.303Z</time></trkpt><trkpt lat="37.9134931" lon="13.8059676"><ele>221.0</ele><time>2026-04-26T10:46:27.303Z</time></trkpt><trkpt lat="37.9135586" lon="13.8059016"><ele>221.0</ele><time>2026-04-26T10:46:28.303Z</time></trkpt><trkpt lat="37.9136158" lon="13.8058386"><ele>221.0</ele><time>2026-04-26T10:46:29.302Z</time></trkpt><trkpt lat="37.9136706" lon="13.8057703"><ele>221.00000000000003</ele><time>2026-04-26T10:46:30.303Z</time></trkpt><trkpt lat="37.913715" lon="13.805702"><ele>221.0</ele><time>2026-04-26T10:46:31.303Z</time></trkpt><trkpt lat="37.9137581" lon="13.8056192"><ele>221.00000000000003</ele><time>2026-04-26T10:46:32.302Z</time></trkpt><trkpt lat="37.9137917" lon="13.8055218"><ele>221.0</ele><time>2026-04-26T10:46:33.303Z</time></trkpt><trkpt lat="37.9138184" lon="13.805415"><ele>221.0</ele><time>2026-04-26T10:46:34.303Z</time></trkpt><trkpt lat="37.9138288" lon="13.8053073"><ele>221.0</ele><time>2026-04-26T10:46:35.303Z</time></trkpt><trkpt lat="37.913818" lon="13.805215"><ele>221.00000000000003</ele><time>2026-04-26T10:46:36.303Z</time></trkpt><trkpt lat="37.9137941" lon="13.805129"><ele>221.0</ele><time>2026-04-26T10:46:37.303Z</time></trkpt><trkpt lat="37.9137549" lon="13.805047"><ele>220.20000000000002</ele><time>2026-04-26T10:46:38.303Z</time></trkpt><trkpt lat="37.9136841" lon="13.8049302"><ele>219.40000000000003</ele><time>2026-04-26T10:46:40.303Z</time></trkpt><trkpt lat="37.9136054" lon="13.8047977"><ele>218.6</ele><time>2026-04-26T10:46:42.303Z</time></trkpt><trkpt lat="37.9135667" lon="13.8047173"><ele>217.8</ele><time>2026-04-26T10:46:43.303Z</time></trkpt><trkpt lat="37.9135403" lon="13.8046318"><ele>217.0</ele><time>2026-04-26T10:46:44.303Z</time></trkpt><trkpt lat="37.9135286" lon="13.8045414"><ele>216.99999999999997</ele><time>2026-04-26T10:46:45.303Z</time></trkpt><trkpt lat="37.9135311" lon="13.8044497"><ele>217.0</ele><time>2026-04-26T10:46:46.303Z</time></trkpt><trkpt lat="37.9135405" lon="13.8043594"><ele>217.0</ele><time>2026-04-26T10:46:47.303Z</time></trkpt><trkpt lat="37.9135629" lon="13.8042689"><ele>217.0</ele><time>2026-04-26T10:46:48.303Z</time></trkpt><trkpt lat="37.9136035" lon="13.8041872"><ele>216.99999999999997</ele><time>2026-04-26T10:46:49.303Z</time></trkpt><trkpt lat="37.9136558" lon="13.8041058"><ele>217.0</ele><time>2026-04-26T10:46:50.303Z</time></trkpt><trkpt lat="37.9137121" lon="13.8040296"><ele>216.16666666666666</ele><time>2026-04-26T10:46:51.303Z</time></trkpt><trkpt lat="37.9137694" lon="13.803961"><ele>215.33333333333331</ele><time>2026-04-26T10:46:52.303Z</time></trkpt><trkpt lat="37.9138314" lon="13.8038922"><ele>214.5</ele><time>2026-04-26T10:46:53.303Z</time></trkpt><trkpt lat="37.9138942" lon="13.8038216"><ele>213.66666666666669</ele><time>2026-04-26T10:46:54.303Z</time></trkpt><trkpt lat="37.9139604" lon="13.8037465"><ele>212.83333333333334</ele><time>2026-04-26T10:46:55.303Z</time></trkpt><trkpt lat="37.9140296" lon="13.8036667"><ele>212.0</ele><time>2026-04-26T10:46:56.303Z</time></trkpt><trkpt lat="37.9141098" lon="13.8036003"><ele>212.0</ele><time>2026-04-26T10:46:57.303Z</time></trkpt><trkpt lat="37.9141943" lon="13.8035463"><ele>212.0</ele><time>2026-04-26T10:46:58.303Z</time></trkpt><trkpt lat="37.9142802" lon="13.803506"><ele>212.0</ele><time>2026-04-26T10:46:59.303Z</time></trkpt><trkpt lat="37.9143662" lon="13.8034751"><ele>212.0</ele><time>2026-04-26T10:47:00.303Z</time></trkpt><trkpt lat="37.9144618" lon="13.803444"><ele>212.0</ele><time>2026-04-26T10:47:01.302Z</time></trkpt><trkpt lat="37.9145609" lon="13.8034093"><ele>209.66666666666669</ele><time>2026-04-26T10:47:02.302Z</time></trkpt><trkpt lat="37.9146601" lon="13.8033668"><ele>207.33333333333334</ele><time>2026-04-26T10:47:03.303Z</time></trkpt><trkpt lat="37.9147348" lon="13.8033255"><ele>205.0</ele><time>2026-04-26T10:47:04.303Z</time></trkpt><trkpt lat="37.9148042" lon="13.8032801"><ele>202.66666666666669</ele><time>2026-04-26T10:47:05.303Z</time></trkpt><trkpt lat="37.9148679" lon="13.8032321"><ele>200.33333333333334</ele><time>2026-04-26T10:47:06.303Z</time></trkpt><trkpt lat="37.914935" lon="13.8031788"><ele>198.0</ele><time>2026-04-26T10:47:07.303Z</time></trkpt><trkpt lat="37.9150044" lon="13.8031229"><ele>197.4</ele><time>2026-04-26T10:47:08.302Z</time></trkpt><trkpt lat="37.9150765" lon="13.8030601"><ele>196.8</ele><time>2026-04-26T10:47:09.303Z</time></trkpt><trkpt lat="37.9151484" lon="13.8029907"><ele>196.2</ele><time>2026-04-26T10:47:10.303Z</time></trkpt><trkpt lat="37.9152252" lon="13.8029179"><ele>195.6</ele><time>2026-04-26T10:47:11.303Z</time></trkpt><trkpt lat="37.9153025" lon="13.8028488"><ele>195.0</ele><time>2026-04-26T10:47:12.303Z</time></trkpt><trkpt lat="37.9153795" lon="13.8027799"><ele>195.0</ele><time>2026-04-26T10:47:13.303Z</time></trkpt><trkpt lat="37.9154509" lon="13.8027137"><ele>195.0</ele><time>2026-04-26T10:47:14.303Z</time></trkpt><trkpt lat="37.9155216" lon="13.8026536"><ele>195.0</ele><time>2026-04-26T10:47:15.303Z</time></trkpt><trkpt lat="37.915594" lon="13.8025995"><ele>195.0</ele><time>2026-04-26T10:47:16.303Z</time></trkpt><trkpt lat="37.9156739" lon="13.802549"><ele>195.0</ele><time>2026-04-26T10:47:17.303Z</time></trkpt><trkpt lat="37.915763" lon="13.8025133"><ele>195.0</ele><time>2026-04-26T10:47:18.303Z</time></trkpt><trkpt lat="37.9158496" lon="13.8024924"><ele>193.16666666666666</ele><time>2026-04-26T10:47:19.303Z</time></trkpt><trkpt lat="37.9159319" lon="13.8024903"><ele>191.33333333333334</ele><time>2026-04-26T10:47:20.303Z</time></trkpt><trkpt lat="37.9160109" lon="13.8025057"><ele>189.5</ele><time>2026-04-26T10:47:21.303Z</time></trkpt><trkpt lat="37.9160871" lon="13.802525"><ele>187.66666666666669</ele><time>2026-04-26T10:47:22.303Z</time></trkpt><trkpt lat="37.9161593" lon="13.8025384"><ele>185.83333333333334</ele><time>2026-04-26T10:47:23.302Z</time></trkpt><trkpt lat="37.9162315" lon="13.8025448"><ele>184.0</ele><time>2026-04-26T10:47:24.303Z</time></trkpt><trkpt lat="37.9163023" lon="13.8025477"><ele>184.0</ele><time>2026-04-26T10:47:25.303Z</time></trkpt><trkpt lat="37.9163732" lon="13.8025429"><ele>184.0</ele><time>2026-04-26T10:47:26.303Z</time></trkpt><trkpt lat="37.916441" lon="13.8025318"><ele>184.0</ele><time>2026-04-26T10:47:27.303Z</time></trkpt><trkpt lat="37.9165044" lon="13.8025163"><ele>184.0</ele><time>2026-04-26T10:47:28.303Z</time></trkpt><trkpt lat="37.9166182" lon="13.8024855"><ele>184.0</ele><time>2026-04-26T10:47:30.303Z</time></trkpt><trkpt lat="37.9167206" lon="13.8024058"><ele>184.0</ele><time>2026-04-26T10:47:32.303Z</time></trkpt><trkpt lat="37.9167804" lon="13.8022847"><ele>183.83333333333334</ele><time>2026-04-26T10:47:34.303Z</time></trkpt><trkpt lat="37.9167907" lon="13.802142"><ele>183.66666666666669</ele><time>2026-04-26T10:47:36.303Z</time></trkpt><trkpt lat="37.9167868" lon="13.8020611"><ele>183.5</ele><time>2026-04-26T10:47:37.303Z</time></trkpt><trkpt lat="37.9167798" lon="13.8019786"><ele>183.33333333333334</ele><time>2026-04-26T10:47:38.303Z</time></trkpt><trkpt lat="37.9167781" lon="13.8018939"><ele>183.16666666666666</ele><time>2026-04-26T10:47:39.303Z</time></trkpt><trkpt lat="37.9167809" lon="13.8018059"><ele>183.0</ele><time>2026-04-26T10:47:40.303Z</time></trkpt><trkpt lat="37.9167878" lon="13.8017146"><ele>181.5</ele><time>2026-04-26T10:47:41.303Z</time></trkpt><trkpt lat="37.9168089" lon="13.8016255"><ele>180.0</ele><time>2026-04-26T10:47:42.303Z</time></trkpt><trkpt lat="37.9168449" lon="13.8015448"><ele>178.5</ele><time>2026-04-26T10:47:43.303Z</time></trkpt><trkpt lat="37.9169" lon="13.8014802"><ele>177.0</ele><time>2026-04-26T10:47:44.303Z</time></trkpt><trkpt lat="37.916973" lon="13.8014354"><ele>175.5</ele><time>2026-04-26T10:47:45.302Z</time></trkpt><trkpt lat="37.9170557" lon="13.8014147"><ele>174.0</ele><time>2026-04-26T10:47:46.302Z</time></trkpt><trkpt lat="37.9171449" lon="13.8014154"><ele>174.0</ele><time>2026-04-26T10:47:47.303Z</time></trkpt><trkpt lat="37.9172337" lon="13.8014303"><ele>174.0</ele><time>2026-04-26T10:47:48.303Z</time></trkpt><trkpt lat="37.9173338" lon="13.8014664"><ele>174.0</ele><time>2026-04-26T10:47:49.303Z</time></trkpt><trkpt lat="37.9174281" lon="13.8015254"><ele>174.0</ele><time>2026-04-26T10:47:50.303Z</time></trkpt><trkpt lat="37.9175327" lon="13.8016051"><ele>174.0</ele><time>2026-04-26T10:47:51.303Z</time></trkpt><trkpt lat="37.9176315" lon="13.8016927"><ele>175.0</ele><time>2026-04-26T10:47:52.303Z</time></trkpt><trkpt lat="37.9177246" lon="13.8017728"><ele>176.0</ele><time>2026-04-26T10:47:53.303Z</time></trkpt><trkpt lat="37.9178169" lon="13.8018614"><ele>177.0</ele><time>2026-04-26T10:47:54.303Z</time></trkpt><trkpt lat="37.9179157" lon="13.8019407"><ele>178.0</ele><time>2026-04-26T10:47:55.303Z</time></trkpt><trkpt lat="37.9180145" lon="13.8019941"><ele>178.0</ele><time>2026-04-26T10:47:56.303Z</time></trkpt><trkpt lat="37.918118" lon="13.8020184"><ele>178.0</ele><time>2026-04-26T10:47:57.303Z</time></trkpt><trkpt lat="37.9182487" lon="13.802001"><ele>178.0</ele><time>2026-04-26T10:47:58.303Z</time></trkpt><trkpt lat="37.9184233" lon="13.8019464"><ele>178.0</ele><time>2026-04-26T10:47:59.303Z</time></trkpt><trkpt lat="37.9186439" lon="13.8018343"><ele>176.0</ele><time>2026-04-26T10:48:00.303Z</time></trkpt><trkpt lat="37.9187932" lon="13.8017142"><ele>174.0</ele><time>2026-04-26T10:48:01.303Z</time></trkpt><trkpt lat="37.9189261" lon="13.8015731"><ele>172.0</ele><time>2026-04-26T10:48:02.303Z</time></trkpt><trkpt lat="37.9190397" lon="13.8014089"><ele>172.0</ele><time>2026-04-26T10:48:03.303Z</time></trkpt><trkpt lat="37.9191271" lon="13.8012103"><ele>172.0</ele><time>2026-04-26T10:48:04.303Z</time></trkpt><trkpt lat="37.9192049" lon="13.800987"><ele>172.0</ele><time>2026-04-26T10:48:05.303Z</time></trkpt><trkpt lat="37.9192684" lon="13.8007424"><ele>171.66666666666669</ele><time>2026-04-26T10:48:06.303Z</time></trkpt><trkpt lat="37.9193158" lon="13.8004912"><ele>171.33333333333334</ele><time>2026-04-26T10:48:07.303Z</time></trkpt><trkpt lat="37.9193503" lon="13.8002448"><ele>171.0</ele><time>2026-04-26T10:48:08.303Z</time></trkpt><trkpt lat="37.9193657" lon="13.8000017"><ele>171.0</ele><time>2026-04-26T10:48:09.303Z</time></trkpt><trkpt lat="37.9193617" lon="13.7997609"><ele>171.0</ele><time>2026-04-26T10:48:10.303Z</time></trkpt><trkpt lat="37.9193461" lon="13.7995299"><ele>171.0</ele><time>2026-04-26T10:48:11.303Z</time></trkpt><trkpt lat="37.9193334" lon="13.799313"><ele>169.33333333333334</ele><time>2026-04-26T10:48:12.303Z</time></trkpt><trkpt lat="37.9193324" lon="13.7991103"><ele>167.66666666666669</ele><time>2026-04-26T10:48:13.303Z</time></trkpt><trkpt lat="37.9193571" lon="13.7989119"><ele>166.0</ele><time>2026-04-26T10:48:14.303Z</time></trkpt><trkpt lat="37.9194148" lon="13.7987374"><ele>166.0</ele><time>2026-04-26T10:48:15.303Z</time></trkpt><trkpt lat="37.9195069" lon="13.7985752"><ele>166.0</ele><time>2026-04-26T10:48:16.303Z</time></trkpt><trkpt lat="37.9196343" lon="13.7984418"><ele>166.0</ele><time>2026-04-26T10:48:17.302Z</time></trkpt><trkpt lat="37.9197778" lon="13.7983267"><ele>164.0</ele><time>2026-04-26T10:48:18.303Z</time></trkpt><trkpt lat="37.9199436" lon="13.7982108"><ele>162.0</ele><time>2026-04-26T10:48:19.303Z</time></trkpt><trkpt lat="37.9201102" lon="13.798094"><ele>160.0</ele><time>2026-04-26T10:48:20.303Z</time></trkpt><trkpt lat="37.9202674" lon="13.7979832"><ele>160.0</ele><time>2026-04-26T10:48:21.303Z</time></trkpt><trkpt lat="37.9204097" lon="13.797878"><ele>160.0</ele><time>2026-04-26T10:48:22.303Z</time></trkpt><trkpt lat="37.9205264" lon="13.7977828"><ele>160.0</ele><time>2026-04-26T10:48:23.303Z</time></trkpt><trkpt lat="37.9206219" lon="13.7976654"><ele>160.0</ele><time>2026-04-26T10:48:24.303Z</time></trkpt><trkpt lat="37.9206817" lon="13.7975127"><ele>158.0</ele><time>2026-04-26T10:48:25.303Z</time></trkpt><trkpt lat="37.9207323" lon="13.7973232"><ele>156.0</ele><time>2026-04-26T10:48:26.303Z</time></trkpt><trkpt lat="37.9207707" lon="13.7971072"><ele>154.0</ele><time>2026-04-26T10:48:27.303Z</time></trkpt><trkpt lat="37.9208225" lon="13.7968867"><ele>152.33333333333334</ele><time>2026-04-26T10:48:28.303Z</time></trkpt><trkpt lat="37.9208691" lon="13.7966804"><ele>150.66666666666666</ele><time>2026-04-26T10:48:29.303Z</time></trkpt><trkpt lat="37.9209689" lon="13.7965256"><ele>149.0</ele><time>2026-04-26T10:48:30.303Z</time></trkpt><trkpt lat="37.9210577" lon="13.7963256"><ele>149.0</ele><time>2026-04-26T10:48:31.303Z</time></trkpt><trkpt lat="37.9211549" lon="13.7961499"><ele>149.0</ele><time>2026-04-26T10:48:32.303Z</time></trkpt><trkpt lat="37.9212536" lon="13.7960014"><ele>149.0</ele><time>2026-04-26T10:48:33.303Z</time></trkpt><trkpt lat="37.9213547" lon="13.7958781"><ele>146.0</ele><time>2026-04-26T10:48:34.303Z</time></trkpt><trkpt lat="37.9214583" lon="13.7958083"><ele>143.0</ele><time>2026-04-26T10:48:35.303Z</time></trkpt><trkpt lat="37.9215595" lon="13.7957815"><ele>140.0</ele><time>2026-04-26T10:48:36.303Z</time></trkpt><trkpt lat="37.9216673" lon="13.7958184"><ele>137.0</ele><time>2026-04-26T10:48:37.302Z</time></trkpt><trkpt lat="37.9217759" lon="13.7959154"><ele>137.25</ele><time>2026-04-26T10:48:38.303Z</time></trkpt><trkpt lat="37.9218727" lon="13.7960359"><ele>137.5</ele><time>2026-04-26T10:48:39.303Z</time></trkpt><trkpt lat="37.9219579" lon="13.7961659"><ele>137.75</ele><time>2026-04-26T10:48:40.303Z</time></trkpt><trkpt lat="37.9220466" lon="13.7962761"><ele>138.0</ele><time>2026-04-26T10:48:41.303Z</time></trkpt><trkpt lat="37.9221326" lon="13.7963429"><ele>138.0</ele><time>2026-04-26T10:48:42.303Z</time></trkpt><trkpt lat="37.9222065" lon="13.7963603"><ele>138.0</ele><time>2026-04-26T10:48:43.303Z</time></trkpt><trkpt lat="37.922295" lon="13.7963204"><ele>138.0</ele><time>2026-04-26T10:48:44.302Z</time></trkpt><trkpt lat="37.9223907" lon="13.7962222"><ele>138.0</ele><time>2026-04-26T10:48:45.303Z</time></trkpt><trkpt lat="37.9225078" lon="13.7960958"><ele>138.0</ele><time>2026-04-26T10:48:46.303Z</time></trkpt><trkpt lat="37.9225995" lon="13.7959083"><ele>139.33333333333334</ele><time>2026-04-26T10:48:47.303Z</time></trkpt><trkpt lat="37.9226515" lon="13.7957293"><ele>140.66666666666669</ele><time>2026-04-26T10:48:48.303Z</time></trkpt><trkpt lat="37.9227159" lon="13.7955453"><ele>142.0</ele><time>2026-04-26T10:48:49.302Z</time></trkpt><trkpt lat="37.9227887" lon="13.795368"><ele>142.0</ele><time>2026-04-26T10:48:50.303Z</time></trkpt><trkpt lat="37.9228777" lon="13.7951956"><ele>142.0</ele><time>2026-04-26T10:48:51.303Z</time></trkpt><trkpt lat="37.9229613" lon="13.7950325"><ele>142.0</ele><time>2026-04-26T10:48:52.303Z</time></trkpt><trkpt lat="37.9230464" lon="13.7948841"><ele>141.0</ele><time>2026-04-26T10:48:53.303Z</time></trkpt><trkpt lat="37.9231403" lon="13.7947615"><ele>140.0</ele><time>2026-04-26T10:48:54.303Z</time></trkpt><trkpt lat="37.9232583" lon="13.7946539"><ele>139.0</ele><time>2026-04-26T10:48:55.303Z</time></trkpt><trkpt lat="37.9233924" lon="13.7945671"><ele>138.0</ele><time>2026-04-26T10:48:56.302Z</time></trkpt><trkpt lat="37.9235417" lon="13.7944912"><ele>138.0</ele><time>2026-04-26T10:48:57.303Z</time></trkpt><trkpt lat="37.9236987" lon="13.7944039"><ele>138.0</ele><time>2026-04-26T10:48:58.303Z</time></trkpt><trkpt lat="37.9238471" lon="13.7942788"><ele>138.0</ele><time>2026-04-26T10:48:59.303Z</time></trkpt><trkpt lat="37.9239825" lon="13.7941214"><ele>138.0</ele><time>2026-04-26T10:49:00.302Z</time></trkpt><trkpt lat="37.9241035" lon="13.7939519"><ele>138.0</ele><time>2026-04-26T10:49:01.303Z</time></trkpt><trkpt lat="37.9241998" lon="13.7937639"><ele>138.0</ele><time>2026-04-26T10:49:02.303Z</time></trkpt><trkpt lat="37.9242705" lon="13.7935613"><ele>135.66666666666666</ele><time>2026-04-26T10:49:03.303Z</time></trkpt><trkpt lat="37.9243292" lon="13.793368"><ele>133.33333333333331</ele><time>2026-04-26T10:49:04.303Z</time></trkpt><trkpt lat="37.9243968" lon="13.7931941"><ele>131.0</ele><time>2026-04-26T10:49:05.303Z</time></trkpt><trkpt lat="37.9244902" lon="13.7930418"><ele>131.0</ele><time>2026-04-26T10:49:06.303Z</time></trkpt><trkpt lat="37.9246021" lon="13.7929074"><ele>131.0</ele><time>2026-04-26T10:49:07.303Z</time></trkpt><trkpt lat="37.9247382" lon="13.7927869"><ele>131.0</ele><time>2026-04-26T10:49:08.303Z</time></trkpt><trkpt lat="37.9248904" lon="13.7926605"><ele>130.0</ele><time>2026-04-26T10:49:09.303Z</time></trkpt><trkpt lat="37.9250501" lon="13.7925415"><ele>129.0</ele><time>2026-04-26T10:49:10.303Z</time></trkpt><trkpt lat="37.925212" lon="13.7924245"><ele>128.0</ele><time>2026-04-26T10:49:11.303Z</time></trkpt><trkpt lat="37.9253715" lon="13.7923186"><ele>128.0</ele><time>2026-04-26T10:49:12.303Z</time></trkpt><trkpt lat="37.9255367" lon="13.7922143"><ele>128.0</ele><time>2026-04-26T10:49:13.303Z</time></trkpt><trkpt lat="37.9257086" lon="13.792126"><ele>128.0</ele><time>2026-04-26T10:49:14.303Z</time></trkpt><trkpt lat="37.9258858" lon="13.792043"><ele>128.33333333333331</ele><time>2026-04-26T10:49:15.303Z</time></trkpt><trkpt lat="37.9260712" lon="13.7919523"><ele>128.66666666666666</ele><time>2026-04-26T10:49:16.303Z</time></trkpt><trkpt lat="37.9262586" lon="13.7918626"><ele>129.0</ele><time>2026-04-26T10:49:17.303Z</time></trkpt><trkpt lat="37.926447" lon="13.7917721"><ele>125.66666666666666</ele><time>2026-04-26T10:49:18.303Z</time></trkpt><trkpt lat="37.9266415" lon="13.7916782"><ele>122.33333333333333</ele><time>2026-04-26T10:49:19.303Z</time></trkpt><trkpt lat="37.9268399" lon="13.7915785"><ele>119.0</ele><time>2026-04-26T10:49:20.303Z</time></trkpt><trkpt lat="37.9270327" lon="13.7914893"><ele>119.0</ele><time>2026-04-26T10:49:21.303Z</time></trkpt><trkpt lat="37.9272292" lon="13.7914048"><ele>119.0</ele><time>2026-04-26T10:49:22.303Z</time></trkpt><trkpt lat="37.9274251" lon="13.7913265"><ele>119.0</ele><time>2026-04-26T10:49:23.302Z</time></trkpt><trkpt lat="37.9276205" lon="13.7912512"><ele>118.0</ele><time>2026-04-26T10:49:24.303Z</time></trkpt><trkpt lat="37.9278143" lon="13.7911721"><ele>117.0</ele><time>2026-04-26T10:49:25.303Z</time></trkpt><trkpt lat="37.9280125" lon="13.7910936"><ele>116.0</ele><time>2026-04-26T10:49:26.303Z</time></trkpt><trkpt lat="37.9282127" lon="13.7910103"><ele>113.33333333333333</ele><time>2026-04-26T10:49:27.303Z</time></trkpt><trkpt lat="37.9284072" lon="13.7909261"><ele>110.66666666666666</ele><time>2026-04-26T10:49:28.303Z</time></trkpt><trkpt lat="37.9285999" lon="13.7908444"><ele>108.0</ele><time>2026-04-26T10:49:29.303Z</time></trkpt><trkpt lat="37.9287872" lon="13.7907676"><ele>108.0</ele><time>2026-04-26T10:49:30.303Z</time></trkpt><trkpt lat="37.9289706" lon="13.7906968"><ele>108.0</ele><time>2026-04-26T10:49:31.303Z</time></trkpt><trkpt lat="37.9291441" lon="13.7906312"><ele>108.0</ele><time>2026-04-26T10:49:32.303Z</time></trkpt><trkpt lat="37.9293142" lon="13.7905547"><ele>106.0</ele><time>2026-04-26T10:49:33.303Z</time></trkpt><trkpt lat="37.9294905" lon="13.790479"><ele>104.0</ele><time>2026-04-26T10:49:34.302Z</time></trkpt><trkpt lat="37.929665" lon="13.7904148"><ele>102.0</ele><time>2026-04-26T10:49:35.303Z</time></trkpt><trkpt lat="37.9298482" lon="13.7903673"><ele>102.0</ele><time>2026-04-26T10:49:36.303Z</time></trkpt><trkpt lat="37.9300285" lon="13.7903399"><ele>102.0</ele><time>2026-04-26T10:49:37.303Z</time></trkpt><trkpt lat="37.9301921" lon="13.7903157"><ele>102.0</ele><time>2026-04-26T10:49:38.303Z</time></trkpt><trkpt lat="37.9303413" lon="13.7902981"><ele>98.75</ele><time>2026-04-26T10:49:39.303Z</time></trkpt><trkpt lat="37.9304707" lon="13.7902863"><ele>95.5</ele><time>2026-04-26T10:49:40.303Z</time></trkpt><trkpt lat="37.9305842" lon="13.7902939"><ele>92.25</ele><time>2026-04-26T10:49:41.303Z</time></trkpt><trkpt lat="37.9306894" lon="13.7903395"><ele>89.0</ele><time>2026-04-26T10:49:42.303Z</time></trkpt><trkpt lat="37.9307745" lon="13.7904374"><ele>89.0</ele><time>2026-04-26T10:49:43.303Z</time></trkpt><trkpt lat="37.9308431" lon="13.7905833"><ele>89.0</ele><time>2026-04-26T10:49:44.303Z</time></trkpt><trkpt lat="37.9308879" lon="13.7907484"><ele>89.0</ele><time>2026-04-26T10:49:45.303Z</time></trkpt><trkpt lat="37.9309036" lon="13.790919"><ele>89.0</ele><time>2026-04-26T10:49:46.303Z</time></trkpt><trkpt lat="37.9308863" lon="13.7910904"><ele>89.25</ele><time>2026-04-26T10:49:47.302Z</time></trkpt><trkpt lat="37.930851" lon="13.7912552"><ele>89.5</ele><time>2026-04-26T10:49:48.303Z</time></trkpt><trkpt lat="37.9308176" lon="13.7914074"><ele>89.75</ele><time>2026-04-26T10:49:49.303Z</time></trkpt><trkpt lat="37.93081" lon="13.7915568"><ele>90.0</ele><time>2026-04-26T10:49:50.303Z</time></trkpt><trkpt lat="37.9308467" lon="13.79168"><ele>90.25</ele><time>2026-04-26T10:49:51.303Z</time></trkpt><trkpt lat="37.9309242" lon="13.7917634"><ele>90.5</ele><time>2026-04-26T10:49:52.303Z</time></trkpt><trkpt lat="37.9310299" lon="13.7917997"><ele>90.75</ele><time>2026-04-26T10:49:53.303Z</time></trkpt><trkpt lat="37.9311464" lon="13.7917928"><ele>91.0</ele><time>2026-04-26T10:49:54.303Z</time></trkpt><trkpt lat="37.9312912" lon="13.7917417"><ele>91.0</ele><time>2026-04-26T10:49:55.303Z</time></trkpt><trkpt lat="37.9314558" lon="13.7916653"><ele>91.0</ele><time>2026-04-26T10:49:56.303Z</time></trkpt><trkpt lat="37.9315996" lon="13.7916279"><ele>91.0</ele><time>2026-04-26T10:49:57.302Z</time></trkpt><trkpt lat="37.9317521" lon="13.7915785"><ele>91.66666666666666</ele><time>2026-04-26T10:49:58.302Z</time></trkpt><trkpt lat="37.9318998" lon="13.7915194"><ele>92.33333333333333</ele><time>2026-04-26T10:49:59.303Z</time></trkpt><trkpt lat="37.9320449" lon="13.7914856"><ele>93.0</ele><time>2026-04-26T10:50:00.303Z</time></trkpt><trkpt lat="37.9321973" lon="13.7914822"><ele>93.0</ele><time>2026-04-26T10:50:01.303Z</time></trkpt><trkpt lat="37.9323629" lon="13.7915273"><ele>93.0</ele><time>2026-04-26T10:50:02.303Z</time></trkpt><trkpt lat="37.9325267" lon="13.7915968"><ele>93.0</ele><time>2026-04-26T10:50:03.303Z</time></trkpt><trkpt lat="37.9327007" lon="13.7916686"><ele>91.66666666666667</ele><time>2026-04-26T10:50:04.302Z</time></trkpt><trkpt lat="37.9328688" lon="13.7917287"><ele>90.33333333333334</ele><time>2026-04-26T10:50:05.303Z</time></trkpt><trkpt lat="37.9330317" lon="13.7918099"><ele>89.0</ele><time>2026-04-26T10:50:06.303Z</time></trkpt><trkpt lat="37.9331755" lon="13.791905"><ele>91.5</ele><time>2026-04-26T10:50:07.303Z</time></trkpt><trkpt lat="37.9333044" lon="13.7920017"><ele>94.0</ele><time>2026-04-26T10:50:08.303Z</time></trkpt><trkpt lat="37.9334285" lon="13.7920769"><ele>96.5</ele><time>2026-04-26T10:50:09.303Z</time></trkpt><trkpt lat="37.9335619" lon="13.7921018"><ele>99.0</ele><time>2026-04-26T10:50:10.302Z</time></trkpt><trkpt lat="37.9337068" lon="13.7920855"><ele>99.0</ele><time>2026-04-26T10:50:11.303Z</time></trkpt><trkpt lat="37.9338442" lon="13.7920264"><ele>99.0</ele><time>2026-04-26T10:50:12.303Z</time></trkpt><trkpt lat="37.9339687" lon="13.7919188"><ele>99.0</ele><time>2026-04-26T10:50:13.303Z</time></trkpt><trkpt lat="37.9340656" lon="13.7917665"><ele>100.0</ele><time>2026-04-26T10:50:14.303Z</time></trkpt><trkpt lat="37.9341311" lon="13.7915768"><ele>101.0</ele><time>2026-04-26T10:50:15.303Z</time></trkpt><trkpt lat="37.9342165" lon="13.7913899"><ele>102.0</ele><time>2026-04-26T10:50:16.303Z</time></trkpt><trkpt lat="37.9343303" lon="13.7912041"><ele>102.0</ele><time>2026-04-26T10:50:17.303Z</time></trkpt><trkpt lat="37.9344776" lon="13.7910246"><ele>102.0</ele><time>2026-04-26T10:50:18.303Z</time></trkpt><trkpt lat="37.9346323" lon="13.7908437"><ele>102.0</ele><time>2026-04-26T10:50:19.303Z</time></trkpt><trkpt lat="37.9348001" lon="13.7906579"><ele>99.5</ele><time>2026-04-26T10:50:20.303Z</time></trkpt><trkpt lat="37.9349765" lon="13.790466"><ele>97.0</ele><time>2026-04-26T10:50:21.303Z</time></trkpt><trkpt lat="37.9351554" lon="13.7902735"><ele>93.5</ele><time>2026-04-26T10:50:22.302Z</time></trkpt><trkpt lat="37.935321" lon="13.7900753"><ele>90.0</ele><time>2026-04-26T10:50:23.303Z</time></trkpt><trkpt lat="37.9354864" lon="13.7898757"><ele>90.0</ele><time>2026-04-26T10:50:24.303Z</time></trkpt><trkpt lat="37.9356401" lon="13.7896633"><ele>90.0</ele><time>2026-04-26T10:50:25.303Z</time></trkpt><trkpt lat="37.9357733" lon="13.7894507"><ele>90.0</ele><time>2026-04-26T10:50:26.303Z</time></trkpt><trkpt lat="37.9358951" lon="13.7892612"><ele>89.33333333333333</ele><time>2026-04-26T10:50:27.303Z</time></trkpt><trkpt lat="37.9360097" lon="13.7891025"><ele>88.66666666666666</ele><time>2026-04-26T10:50:28.302Z</time></trkpt><trkpt lat="37.9361369" lon="13.7889511"><ele>88.0</ele><time>2026-04-26T10:50:29.303Z</time></trkpt><trkpt lat="37.9362687" lon="13.7888215"><ele>88.0</ele><time>2026-04-26T10:50:30.303Z</time></trkpt><trkpt lat="37.9364328" lon="13.7887181"><ele>88.0</ele><time>2026-04-26T10:50:31.303Z</time></trkpt><trkpt lat="37.9366036" lon="13.7886048"><ele>88.0</ele><time>2026-04-26T10:50:32.302Z</time></trkpt><trkpt lat="37.9367732" lon="13.7884663"><ele>86.0</ele><time>2026-04-26T10:50:33.303Z</time></trkpt><trkpt lat="37.9369242" lon="13.788309"><ele>84.0</ele><time>2026-04-26T10:50:34.303Z</time></trkpt><trkpt lat="37.9370613" lon="13.7881504"><ele>82.0</ele><time>2026-04-26T10:50:35.303Z</time></trkpt><trkpt lat="37.937181" lon="13.7880049"><ele>82.0</ele><time>2026-04-26T10:50:36.303Z</time></trkpt><trkpt lat="37.9372917" lon="13.7878912"><ele>82.0</ele><time>2026-04-26T10:50:37.303Z</time></trkpt><trkpt lat="37.9373965" lon="13.7878165"><ele>82.0</ele><time>2026-04-26T10:50:38.303Z</time></trkpt><trkpt lat="37.9375337" lon="13.7878018"><ele>82.0</ele><time>2026-04-26T10:50:39.303Z</time></trkpt><trkpt lat="37.9376824" lon="13.7878265"><ele>79.0</ele><time>2026-04-26T10:50:40.303Z</time></trkpt><trkpt lat="37.9378334" lon="13.7878843"><ele>76.0</ele><time>2026-04-26T10:50:41.303Z</time></trkpt><trkpt lat="37.9379821" lon="13.7879759"><ele>73.0</ele><time>2026-04-26T10:50:42.303Z</time></trkpt><trkpt lat="37.9381296" lon="13.7881151"><ele>73.0</ele><time>2026-04-26T10:50:43.303Z</time></trkpt><trkpt lat="37.9382644" lon="13.7882694"><ele>73.0</ele><time>2026-04-26T10:50:44.303Z</time></trkpt><trkpt lat="37.9383793" lon="13.7884315"><ele>73.0</ele><time>2026-04-26T10:50:45.303Z</time></trkpt><trkpt lat="37.9384622" lon="13.7885892"><ele>72.5</ele><time>2026-04-26T10:50:46.303Z</time></trkpt><trkpt lat="37.9385134" lon="13.7887521"><ele>72.0</ele><time>2026-04-26T10:50:47.303Z</time></trkpt><trkpt lat="37.9385237" lon="13.7889256"><ele>71.5</ele><time>2026-04-26T10:50:48.303Z</time></trkpt><trkpt lat="37.938517" lon="13.7891008"><ele>71.0</ele><time>2026-04-26T10:50:49.302Z</time></trkpt><trkpt lat="37.9385212" lon="13.7892595"><ele>72.8</ele><time>2026-04-26T10:50:50.303Z</time></trkpt><trkpt lat="37.9385525" lon="13.7893861"><ele>74.6</ele><time>2026-04-26T10:50:51.303Z</time></trkpt><trkpt lat="37.9386029" lon="13.7894756"><ele>76.4</ele><time>2026-04-26T10:50:52.303Z</time></trkpt><trkpt lat="37.9386889" lon="13.7895244"><ele>78.2</ele><time>2026-04-26T10:50:53.303Z</time></trkpt><trkpt lat="37.9387784" lon="13.7894933"><ele>80.0</ele><time>2026-04-26T10:50:54.302Z</time></trkpt><trkpt lat="37.93889" lon="13.789416"><ele>79.75</ele><time>2026-04-26T10:50:55.303Z</time></trkpt><trkpt lat="37.9390162" lon="13.7893289"><ele>79.5</ele><time>2026-04-26T10:50:56.303Z</time></trkpt><trkpt lat="37.9391471" lon="13.789233"><ele>79.25</ele><time>2026-04-26T10:50:57.303Z</time></trkpt><trkpt lat="37.9392712" lon="13.789121"><ele>79.0</ele><time>2026-04-26T10:50:58.303Z</time></trkpt><trkpt lat="37.9393939" lon="13.7889753"><ele>79.0</ele><time>2026-04-26T10:50:59.303Z</time></trkpt><trkpt lat="37.9395123" lon="13.7888327"><ele>79.0</ele><time>2026-04-26T10:51:00.303Z</time></trkpt><trkpt lat="37.9396312" lon="13.788721"><ele>79.0</ele><time>2026-04-26T10:51:01.303Z</time></trkpt><trkpt lat="37.9397476" lon="13.7886217"><ele>79.0</ele><time>2026-04-26T10:51:02.303Z</time></trkpt><trkpt lat="37.9398971" lon="13.788601"><ele>79.0</ele><time>2026-04-26T10:51:03.303Z</time></trkpt><trkpt lat="37.9400598" lon="13.7886072"><ele>79.0</ele><time>2026-04-26T10:51:04.303Z</time></trkpt><trkpt lat="37.9402443" lon="13.7886113"><ele>76.66666666666666</ele><time>2026-04-26T10:51:05.303Z</time></trkpt><trkpt lat="37.9404484" lon="13.7886103"><ele>74.33333333333333</ele><time>2026-04-26T10:51:06.303Z</time></trkpt><trkpt lat="37.9406492" lon="13.7886078"><ele>72.0</ele><time>2026-04-26T10:51:07.303Z</time></trkpt><trkpt lat="37.940819" lon="13.7886151"><ele>67.75</ele><time>2026-04-26T10:51:08.302Z</time></trkpt><trkpt lat="37.9409636" lon="13.7886403"><ele>63.5</ele><time>2026-04-26T10:51:09.303Z</time></trkpt><trkpt lat="37.9410838" lon="13.7887154"><ele>59.25</ele><time>2026-04-26T10:51:10.302Z</time></trkpt><trkpt lat="37.9411875" lon="13.7888484"><ele>55.0</ele><time>2026-04-26T10:51:11.303Z</time></trkpt><trkpt lat="37.941281" lon="13.7890186"><ele>55.0</ele><time>2026-04-26T10:51:12.303Z</time></trkpt><trkpt lat="37.9413667" lon="13.7892117"><ele>55.0</ele><time>2026-04-26T10:51:13.303Z</time></trkpt><trkpt lat="37.9414664" lon="13.7893994"><ele>55.0</ele><time>2026-04-26T10:51:14.303Z</time></trkpt><trkpt lat="37.9415603" lon="13.7895752"><ele>56.25</ele><time>2026-04-26T10:51:15.303Z</time></trkpt><trkpt lat="37.9416237" lon="13.7897319"><ele>57.5</ele><time>2026-04-26T10:51:16.303Z</time></trkpt><trkpt lat="37.9416503" lon="13.7898887"><ele>58.75</ele><time>2026-04-26T10:51:17.303Z</time></trkpt><trkpt lat="37.9416401" lon="13.7900784"><ele>60.0</ele><time>2026-04-26T10:51:18.303Z</time></trkpt><trkpt lat="37.9415865" lon="13.7902624"><ele>60.0</ele><time>2026-04-26T10:51:19.303Z</time></trkpt><trkpt lat="37.9415023" lon="13.7904538"><ele>60.0</ele><time>2026-04-26T10:51:20.303Z</time></trkpt><trkpt lat="37.9414089" lon="13.7906523"><ele>60.0</ele><time>2026-04-26T10:51:21.303Z</time></trkpt><trkpt lat="37.941308" lon="13.7908643"><ele>60.66666666666667</ele><time>2026-04-26T10:51:22.303Z</time></trkpt><trkpt lat="37.9412078" lon="13.7910667"><ele>61.333333333333336</ele><time>2026-04-26T10:51:23.302Z</time></trkpt><trkpt lat="37.9411636" lon="13.7912385"><ele>62.0</ele><time>2026-04-26T10:51:24.302Z</time></trkpt><trkpt lat="37.941096" lon="13.7914282"><ele>62.0</ele><time>2026-04-26T10:51:25.303Z</time></trkpt><trkpt lat="37.9410458" lon="13.7915766"><ele>62.0</ele><time>2026-04-26T10:51:26.302Z</time></trkpt><trkpt lat="37.9410391" lon="13.7917269"><ele>62.0</ele><time>2026-04-26T10:51:27.302Z</time></trkpt><trkpt lat="37.9410729" lon="13.7918695"><ele>62.0</ele><time>2026-04-26T10:51:28.302Z</time></trkpt><trkpt lat="37.9411444" lon="13.7919908"><ele>64.66666666666667</ele><time>2026-04-26T10:51:29.302Z</time></trkpt><trkpt lat="37.9412866" lon="13.7921405"><ele>67.33333333333333</ele><time>2026-04-26T10:51:30.302Z</time></trkpt><trkpt lat="37.941417" lon="13.7921887"><ele>70.0</ele><time>2026-04-26T10:51:31.301Z</time></trkpt><trkpt lat="37.94155" lon="13.7921783"><ele>70.0</ele><time>2026-04-26T10:51:32.302Z</time></trkpt><trkpt lat="37.9416778" lon="13.792118"><ele>70.0</ele><time>2026-04-26T10:51:33.302Z</time></trkpt><trkpt lat="37.9418038" lon="13.7920185"><ele>70.0</ele><time>2026-04-26T10:51:34.302Z</time></trkpt><trkpt lat="37.9419226" lon="13.7918775"><ele>70.0</ele><time>2026-04-26T10:51:35.302Z</time></trkpt><trkpt lat="37.942036" lon="13.7917105"><ele>70.66666666666666</ele><time>2026-04-26T10:51:36.302Z</time></trkpt><trkpt lat="37.9421313" lon="13.7915436"><ele>71.33333333333333</ele><time>2026-04-26T10:51:37.302Z</time></trkpt><trkpt lat="37.9422336" lon="13.7913804"><ele>72.0</ele><time>2026-04-26T10:51:38.302Z</time></trkpt><trkpt lat="37.942362" lon="13.7912241"><ele>72.0</ele><time>2026-04-26T10:51:39.302Z</time></trkpt><trkpt lat="37.9425107" lon="13.7910885"><ele>72.0</ele><time>2026-04-26T10:51:40.302Z</time></trkpt><trkpt lat="37.9426749" lon="13.7909639"><ele>72.0</ele><time>2026-04-26T10:51:41.301Z</time></trkpt><trkpt lat="37.9428407" lon="13.7908373"><ele>71.33333333333333</ele><time>2026-04-26T10:51:42.302Z</time></trkpt><trkpt lat="37.942986" lon="13.7906639"><ele>70.66666666666666</ele><time>2026-04-26T10:51:43.302Z</time></trkpt><trkpt lat="37.943118" lon="13.7904529"><ele>70.0</ele><time>2026-04-26T10:51:44.302Z</time></trkpt><trkpt lat="37.9432491" lon="13.79025"><ele>68.66666666666666</ele><time>2026-04-26T10:51:45.302Z</time></trkpt><trkpt lat="37.9433835" lon="13.7900646"><ele>67.33333333333333</ele><time>2026-04-26T10:51:46.302Z</time></trkpt><trkpt lat="37.943518" lon="13.7899113"><ele>66.0</ele><time>2026-04-26T10:51:47.302Z</time></trkpt><trkpt lat="37.9436614" lon="13.7897659"><ele>66.0</ele><time>2026-04-26T10:51:48.302Z</time></trkpt><trkpt lat="37.9438073" lon="13.7896232"><ele>66.0</ele><time>2026-04-26T10:51:49.302Z</time></trkpt><trkpt lat="37.9439555" lon="13.7895111"><ele>66.0</ele><time>2026-04-26T10:51:50.302Z</time></trkpt><trkpt lat="37.9440958" lon="13.7894367"><ele>64.66666666666667</ele><time>2026-04-26T10:51:51.301Z</time></trkpt><trkpt lat="37.9442533" lon="13.789414"><ele>63.333333333333336</ele><time>2026-04-26T10:51:52.302Z</time></trkpt><trkpt lat="37.9444218" lon="13.7894364"><ele>62.0</ele><time>2026-04-26T10:51:53.302Z</time></trkpt><trkpt lat="37.9446128" lon="13.7894843"><ele>62.0</ele><time>2026-04-26T10:51:54.302Z</time></trkpt><trkpt lat="37.9448224" lon="13.7895336"><ele>62.0</ele><time>2026-04-26T10:51:55.302Z</time></trkpt><trkpt lat="37.9450405" lon="13.7895907"><ele>62.0</ele><time>2026-04-26T10:51:56.302Z</time></trkpt><trkpt lat="37.9452489" lon="13.7896473"><ele>61.66666666666667</ele><time>2026-04-26T10:51:57.302Z</time></trkpt><trkpt lat="37.945456" lon="13.789687"><ele>61.33333333333333</ele><time>2026-04-26T10:51:58.302Z</time></trkpt><trkpt lat="37.9456714" lon="13.7897117"><ele>61.0</ele><time>2026-04-26T10:51:59.302Z</time></trkpt><trkpt lat="37.9458706" lon="13.7897245"><ele>60.666666666666664</ele><time>2026-04-26T10:52:00.302Z</time></trkpt><trkpt lat="37.9460758" lon="13.7897122"><ele>60.33333333333333</ele><time>2026-04-26T10:52:01.302Z</time></trkpt><trkpt lat="37.9462798" lon="13.7896556"><ele>60.0</ele><time>2026-04-26T10:52:02.302Z</time></trkpt><trkpt lat="37.9464945" lon="13.7895921"><ele>60.0</ele><time>2026-04-26T10:52:03.302Z</time></trkpt><trkpt lat="37.9466932" lon="13.7895324"><ele>60.0</ele><time>2026-04-26T10:52:04.302Z</time></trkpt><trkpt lat="37.9468856" lon="13.7894579"><ele>60.0</ele><time>2026-04-26T10:52:05.302Z</time></trkpt><trkpt lat="37.9470471" lon="13.7893725"><ele>57.33333333333333</ele><time>2026-04-26T10:52:06.302Z</time></trkpt><trkpt lat="37.9472003" lon="13.7892424"><ele>54.666666666666664</ele><time>2026-04-26T10:52:07.302Z</time></trkpt><trkpt lat="37.9473374" lon="13.7890769"><ele>52.0</ele><time>2026-04-26T10:52:08.301Z</time></trkpt><trkpt lat="37.9474561" lon="13.7888806"><ele>54.666666666666664</ele><time>2026-04-26T10:52:09.302Z</time></trkpt><trkpt lat="37.9475449" lon="13.7886738"><ele>57.33333333333333</ele><time>2026-04-26T10:52:10.302Z</time></trkpt><trkpt lat="37.9476033" lon="13.7884525"><ele>60.0</ele><time>2026-04-26T10:52:11.301Z</time></trkpt><trkpt lat="37.947631" lon="13.7882451"><ele>60.0</ele><time>2026-04-26T10:52:12.302Z</time></trkpt><trkpt lat="37.9476338" lon="13.7880342"><ele>60.0</ele><time>2026-04-26T10:52:13.302Z</time></trkpt><trkpt lat="37.9476305" lon="13.7878263"><ele>60.0</ele><time>2026-04-26T10:52:14.302Z</time></trkpt><trkpt lat="37.9476309" lon="13.7876166"><ele>59.0</ele><time>2026-04-26T10:52:15.302Z</time></trkpt><trkpt lat="37.9476235" lon="13.7874147"><ele>58.0</ele><time>2026-04-26T10:52:16.302Z</time></trkpt><trkpt lat="37.9476199" lon="13.7872347"><ele>57.0</ele><time>2026-04-26T10:52:17.302Z</time></trkpt><trkpt lat="37.9476159" lon="13.787065"><ele>56.0</ele><time>2026-04-26T10:52:18.302Z</time></trkpt><trkpt lat="37.9476178" lon="13.7869001"><ele>55.25</ele><time>2026-04-26T10:52:19.302Z</time></trkpt><trkpt lat="37.94763" lon="13.7867489"><ele>54.5</ele><time>2026-04-26T10:52:20.302Z</time></trkpt><trkpt lat="37.9476509" lon="13.7866076"><ele>53.75</ele><time>2026-04-26T10:52:21.302Z</time></trkpt><trkpt lat="37.9476795" lon="13.7864697"><ele>53.0</ele><time>2026-04-26T10:52:22.302Z</time></trkpt><trkpt lat="37.9477131" lon="13.7863432"><ele>53.0</ele><time>2026-04-26T10:52:23.302Z</time></trkpt><trkpt lat="37.9477474" lon="13.7862186"><ele>53.0</ele><time>2026-04-26T10:52:24.302Z</time></trkpt><trkpt lat="37.9477837" lon="13.7860968"><ele>53.0</ele><time>2026-04-26T10:52:25.302Z</time></trkpt><trkpt lat="37.9478209" lon="13.7859777"><ele>53.0</ele><time>2026-04-26T10:52:26.302Z</time></trkpt><trkpt lat="37.9478558" lon="13.7858586"><ele>53.0</ele><time>2026-04-26T10:52:27.302Z</time></trkpt><trkpt lat="37.947895" lon="13.7857494"><ele>51.599999999999994</ele><time>2026-04-26T10:52:28.302Z</time></trkpt><trkpt lat="37.9479401" lon="13.7856503"><ele>50.199999999999996</ele><time>2026-04-26T10:52:29.302Z</time></trkpt><trkpt lat="37.9479903" lon="13.7855563"><ele>48.8</ele><time>2026-04-26T10:52:30.302Z</time></trkpt><trkpt lat="37.9480474" lon="13.7854615"><ele>47.4</ele><time>2026-04-26T10:52:31.302Z</time></trkpt><trkpt lat="37.9481078" lon="13.7853668"><ele>46.0</ele><time>2026-04-26T10:52:32.302Z</time></trkpt><trkpt lat="37.9481746" lon="13.7852791"><ele>46.0</ele><time>2026-04-26T10:52:33.302Z</time></trkpt><trkpt lat="37.948252" lon="13.7852095"><ele>46.0</ele><time>2026-04-26T10:52:34.301Z</time></trkpt><trkpt lat="37.9483505" lon="13.7851615"><ele>46.0</ele><time>2026-04-26T10:52:35.301Z</time></trkpt><trkpt lat="37.9484584" lon="13.7851357"><ele>46.0</ele><time>2026-04-26T10:52:36.302Z</time></trkpt><trkpt lat="37.9485742" lon="13.7851242"><ele>46.0</ele><time>2026-04-26T10:52:37.302Z</time></trkpt><trkpt lat="37.9486993" lon="13.7851075"><ele>43.75</ele><time>2026-04-26T10:52:38.302Z</time></trkpt><trkpt lat="37.9488326" lon="13.7850853"><ele>41.5</ele><time>2026-04-26T10:52:39.302Z</time></trkpt><trkpt lat="37.9489649" lon="13.7850734"><ele>39.25</ele><time>2026-04-26T10:52:40.302Z</time></trkpt><trkpt lat="37.9491085" lon="13.7850913"><ele>37.0</ele><time>2026-04-26T10:52:41.302Z</time></trkpt><trkpt lat="37.9492508" lon="13.7851536"><ele>38.333333333333336</ele><time>2026-04-26T10:52:42.302Z</time></trkpt><trkpt lat="37.9493839" lon="13.7852383"><ele>39.666666666666664</ele><time>2026-04-26T10:52:43.302Z</time></trkpt><trkpt lat="37.9495195" lon="13.7853266"><ele>41.0</ele><time>2026-04-26T10:52:44.302Z</time></trkpt><trkpt lat="37.949663" lon="13.7854079"><ele>41.0</ele><time>2026-04-26T10:52:45.301Z</time></trkpt><trkpt lat="37.9498011" lon="13.7854531"><ele>41.0</ele><time>2026-04-26T10:52:46.302Z</time></trkpt><trkpt lat="37.9499519" lon="13.7854452"><ele>41.0</ele><time>2026-04-26T10:52:47.302Z</time></trkpt><trkpt lat="37.9501071" lon="13.7853845"><ele>40.33333333333333</ele><time>2026-04-26T10:52:48.302Z</time></trkpt><trkpt lat="37.9502626" lon="13.7852934"><ele>39.666666666666664</ele><time>2026-04-26T10:52:49.302Z</time></trkpt><trkpt lat="37.9504036" lon="13.7852078"><ele>39.0</ele><time>2026-04-26T10:52:50.301Z</time></trkpt><trkpt lat="37.9505282" lon="13.7851155"><ele>36.5</ele><time>2026-04-26T10:52:51.302Z</time></trkpt><trkpt lat="37.9506557" lon="13.7850329"><ele>34.0</ele><time>2026-04-26T10:52:52.302Z</time></trkpt><trkpt lat="37.9507647" lon="13.7849632"><ele>31.5</ele><time>2026-04-26T10:52:53.302Z</time></trkpt><trkpt lat="37.9508527" lon="13.7849019"><ele>29.0</ele><time>2026-04-26T10:52:54.302Z</time></trkpt><trkpt lat="37.9509366" lon="13.784845"><ele>28.666666666666664</ele><time>2026-04-26T10:52:55.302Z</time></trkpt><trkpt lat="37.9510154" lon="13.7847917"><ele>28.333333333333332</ele><time>2026-04-26T10:52:56.302Z</time></trkpt><trkpt lat="37.9510795" lon="13.7847492"><ele>28.0</ele><time>2026-04-26T10:52:57.302Z</time></trkpt><trkpt lat="37.951175" lon="13.7846854"><ele>27.666666666666664</ele><time>2026-04-26T10:52:59.302Z</time></trkpt><trkpt lat="37.9512428" lon="13.7846419"><ele>27.333333333333332</ele><time>2026-04-26T10:53:02.302Z</time></trkpt><trkpt lat="37.9512226" lon="13.7845361"><ele>27.0</ele><time>2026-04-26T10:53:11.302Z</time></trkpt><trkpt lat="37.9511282" lon="13.7845074"><ele>27.0</ele><time>2026-04-26T10:53:13.302Z</time></trkpt><trkpt lat="37.9510412" lon="13.7844922"><ele>27.0</ele><time>2026-04-26T10:53:15.302Z</time></trkpt><trkpt lat="37.9509746" lon="13.7844757"><ele>27.0</ele><time>2026-04-26T10:53:17.302Z</time></trkpt><trkpt lat="37.9509087" lon="13.7844818"><ele>27.0</ele><time>2026-04-26T10:58:12.302Z</time></trkpt><trkpt lat="37.950832" lon="13.7844812"><ele>27.0</ele><time>2026-04-26T10:58:14.302Z</time></trkpt><trkpt lat="37.9507263" lon="13.7844582"><ele>27.0</ele><time>2026-04-26T10:58:16.302Z</time></trkpt><trkpt lat="37.9506684" lon="13.7844239"><ele>27.400000000000002</ele><time>2026-04-26T10:58:17.302Z</time></trkpt><trkpt lat="37.9506058" lon="13.7843753"><ele>27.800000000000004</ele><time>2026-04-26T10:58:18.302Z</time></trkpt><trkpt lat="37.950536" lon="13.7843228"><ele>28.2</ele><time>2026-04-26T10:58:19.302Z</time></trkpt><trkpt lat="37.9504587" lon="13.7842864"><ele>28.6</ele><time>2026-04-26T10:58:20.302Z</time></trkpt><trkpt lat="37.950349" lon="13.7842644"><ele>29.0</ele><time>2026-04-26T10:58:21.302Z</time></trkpt><trkpt lat="37.9502366" lon="13.7842387"><ele>28.5</ele><time>2026-04-26T10:58:22.301Z</time></trkpt><trkpt lat="37.9501048" lon="13.7842037"><ele>28.0</ele><time>2026-04-26T10:58:23.302Z</time></trkpt><trkpt lat="37.9499628" lon="13.7841528"><ele>27.5</ele><time>2026-04-26T10:58:24.301Z</time></trkpt><trkpt lat="37.9498243" lon="13.7841113"><ele>27.0</ele><time>2026-04-26T10:58:25.302Z</time></trkpt><trkpt lat="37.9496885" lon="13.7840691"><ele>27.0</ele><time>2026-04-26T10:58:26.302Z</time></trkpt><trkpt lat="37.9495588" lon="13.7840268"><ele>27.0</ele><time>2026-04-26T10:58:27.302Z</time></trkpt><trkpt lat="37.9494412" lon="13.7839846"><ele>27.0</ele><time>2026-04-26T10:58:28.302Z</time></trkpt><trkpt lat="37.9493353" lon="13.7839288"><ele>27.0</ele><time>2026-04-26T10:58:29.301Z</time></trkpt><trkpt lat="37.9492517" lon="13.7838514"><ele>26.8</ele><time>2026-04-26T10:58:30.302Z</time></trkpt><trkpt lat="37.9491892" lon="13.7837485"><ele>26.6</ele><time>2026-04-26T10:58:31.302Z</time></trkpt><trkpt lat="37.9491563" lon="13.7836355"><ele>26.400000000000002</ele><time>2026-04-26T10:58:32.302Z</time></trkpt><trkpt lat="37.9491331" lon="13.783498"><ele>26.200000000000003</ele><time>2026-04-26T10:58:33.302Z</time></trkpt><trkpt lat="37.9491105" lon="13.7833396"><ele>26.0</ele><time>2026-04-26T10:58:34.302Z</time></trkpt><trkpt lat="37.9490867" lon="13.7831504"><ele>26.0</ele><time>2026-04-26T10:58:35.302Z</time></trkpt><trkpt lat="37.9490528" lon="13.7829267"><ele>26.0</ele><time>2026-04-26T10:58:36.302Z</time></trkpt><trkpt lat="37.9490123" lon="13.7826578"><ele>26.0</ele><time>2026-04-26T10:58:37.302Z</time></trkpt><trkpt lat="37.9489736" lon="13.7823851"><ele>26.0</ele><time>2026-04-26T10:58:38.302Z</time></trkpt><trkpt lat="37.9489306" lon="13.7820963"><ele>26.0</ele><time>2026-04-26T10:58:39.302Z</time></trkpt><trkpt lat="37.9488843" lon="13.7818052"><ele>26.0</ele><time>2026-04-26T10:58:40.302Z</time></trkpt><trkpt lat="37.9488417" lon="13.7815109"><ele>26.0</ele><time>2026-04-26T10:58:41.302Z</time></trkpt><trkpt lat="37.9487998" lon="13.7812101"><ele>25.0</ele><time>2026-04-26T10:58:42.302Z</time></trkpt><trkpt lat="37.9487565" lon="13.7809095"><ele>24.0</ele><time>2026-04-26T10:58:43.302Z</time></trkpt><trkpt lat="37.9487178" lon="13.7806249"><ele>24.0</ele><time>2026-04-26T10:58:44.302Z</time></trkpt><trkpt lat="37.9486821" lon="13.7803635"><ele>24.0</ele><time>2026-04-26T10:58:45.302Z</time></trkpt><trkpt lat="37.9486499" lon="13.7801023"><ele>24.0</ele><time>2026-04-26T10:58:46.302Z</time></trkpt><trkpt lat="37.9486173" lon="13.7798616"><ele>25.0</ele><time>2026-04-26T10:58:47.301Z</time></trkpt><trkpt lat="37.9485908" lon="13.7796301"><ele>26.0</ele><time>2026-04-26T10:58:48.302Z</time></trkpt><trkpt lat="37.9485568" lon="13.7794182"><ele>27.0</ele><time>2026-04-26T10:58:49.302Z</time></trkpt><trkpt lat="37.9485462" lon="13.7792182"><ele>27.75</ele><time>2026-04-26T10:58:50.302Z</time></trkpt><trkpt lat="37.948571" lon="13.77904"><ele>28.5</ele><time>2026-04-26T10:58:51.302Z</time></trkpt><trkpt lat="37.948632" lon="13.7788871"><ele>29.25</ele><time>2026-04-26T10:58:52.301Z</time></trkpt><trkpt lat="37.9487255" lon="13.7787622"><ele>30.0</ele><time>2026-04-26T10:58:53.302Z</time></trkpt><trkpt lat="37.9488107" lon="13.7786626"><ele>30.0</ele><time>2026-04-26T10:58:54.302Z</time></trkpt><trkpt lat="37.9488771" lon="13.7785556"><ele>30.0</ele><time>2026-04-26T10:58:55.301Z</time></trkpt><trkpt lat="37.9489083" lon="13.7784438"><ele>30.0</ele><time>2026-04-26T10:58:56.302Z</time></trkpt><trkpt lat="37.9488994" lon="13.7783364"><ele>30.0</ele><time>2026-04-26T10:58:57.302Z</time></trkpt><trkpt lat="37.9488459" lon="13.7782505"><ele>30.0</ele><time>2026-04-26T10:58:58.302Z</time></trkpt><trkpt lat="37.9487635" lon="13.7781751"><ele>31.5</ele><time>2026-04-26T10:58:59.301Z</time></trkpt><trkpt lat="37.9486547" lon="13.7780999"><ele>33.0</ele><time>2026-04-26T10:59:00.302Z</time></trkpt><trkpt lat="37.9485329" lon="13.778018"><ele>34.5</ele><time>2026-04-26T10:59:01.302Z</time></trkpt><trkpt lat="37.9483858" lon="13.7779426"><ele>36.0</ele><time>2026-04-26T10:59:02.302Z</time></trkpt><trkpt lat="37.9482179" lon="13.7778684"><ele>36.333333333333336</ele><time>2026-04-26T10:59:03.302Z</time></trkpt><trkpt lat="37.9480502" lon="13.7778146"><ele>36.66666666666667</ele><time>2026-04-26T10:59:04.302Z</time></trkpt><trkpt lat="37.9478995" lon="13.7777439"><ele>37.0</ele><time>2026-04-26T10:59:05.302Z</time></trkpt><trkpt lat="37.9477671" lon="13.7776734"><ele>38.5</ele><time>2026-04-26T10:59:06.302Z</time></trkpt><trkpt lat="37.9476556" lon="13.7775683"><ele>40.0</ele><time>2026-04-26T10:59:07.302Z</time></trkpt><trkpt lat="37.9475688" lon="13.7774467"><ele>41.5</ele><time>2026-04-26T10:59:08.302Z</time></trkpt><trkpt lat="37.947518" lon="13.7773003"><ele>43.0</ele><time>2026-04-26T10:59:09.302Z</time></trkpt><trkpt lat="37.9474999" lon="13.7771399"><ele>44.25</ele><time>2026-04-26T10:59:10.301Z</time></trkpt><trkpt lat="37.9475228" lon="13.7769743"><ele>45.5</ele><time>2026-04-26T10:59:11.302Z</time></trkpt><trkpt lat="37.9475886" lon="13.776818"><ele>46.75</ele><time>2026-04-26T10:59:12.302Z</time></trkpt><trkpt lat="37.9476941" lon="13.7766716"><ele>48.0</ele><time>2026-04-26T10:59:13.302Z</time></trkpt><trkpt lat="37.9478209" lon="13.7765278"><ele>50.33333333333333</ele><time>2026-04-26T10:59:14.302Z</time></trkpt><trkpt lat="37.9479594" lon="13.776384"><ele>52.666666666666664</ele><time>2026-04-26T10:59:15.302Z</time></trkpt><trkpt lat="37.9480906" lon="13.776229"><ele>55.0</ele><time>2026-04-26T10:59:16.302Z</time></trkpt><trkpt lat="37.9482283" lon="13.7760768"><ele>57.0</ele><time>2026-04-26T10:59:17.302Z</time></trkpt><trkpt lat="37.9483673" lon="13.7759283"><ele>59.0</ele><time>2026-04-26T10:59:18.302Z</time></trkpt><trkpt lat="37.9485053" lon="13.7757927"><ele>61.0</ele><time>2026-04-26T10:59:19.302Z</time></trkpt><trkpt lat="37.9486276" lon="13.7756626"><ele>61.0</ele><time>2026-04-26T10:59:20.301Z</time></trkpt><trkpt lat="37.9487344" lon="13.7755218"><ele>61.0</ele><time>2026-04-26T10:59:21.302Z</time></trkpt><trkpt lat="37.9488198" lon="13.7753465"><ele>61.0</ele><time>2026-04-26T10:59:22.302Z</time></trkpt><trkpt lat="37.9488762" lon="13.775174"><ele>63.0</ele><time>2026-04-26T10:59:23.302Z</time></trkpt><trkpt lat="37.9489337" lon="13.7750152"><ele>65.0</ele><time>2026-04-26T10:59:24.302Z</time></trkpt><trkpt lat="37.9490084" lon="13.7748556"><ele>67.0</ele><time>2026-04-26T10:59:25.302Z</time></trkpt><trkpt lat="37.9491218" lon="13.7747323"><ele>69.0</ele><time>2026-04-26T10:59:26.302Z</time></trkpt><trkpt lat="37.9492657" lon="13.7746311"><ele>69.33333333333333</ele><time>2026-04-26T10:59:27.302Z</time></trkpt><trkpt lat="37.94943" lon="13.7745301"><ele>69.66666666666666</ele><time>2026-04-26T10:59:28.302Z</time></trkpt><trkpt lat="37.9496005" lon="13.7744311"><ele>70.0</ele><time>2026-04-26T10:59:29.302Z</time></trkpt><trkpt lat="37.9497886" lon="13.7743257"><ele>72.33333333333333</ele><time>2026-04-26T10:59:30.302Z</time></trkpt><trkpt lat="37.9499722" lon="13.7742135"><ele>74.66666666666667</ele><time>2026-04-26T10:59:31.302Z</time></trkpt><trkpt lat="37.950174" lon="13.7740885"><ele>77.0</ele><time>2026-04-26T10:59:32.302Z</time></trkpt><trkpt lat="37.9503786" lon="13.7739878"><ele>79.0</ele><time>2026-04-26T10:59:33.302Z</time></trkpt><trkpt lat="37.9505579" lon="13.773931"><ele>81.0</ele><time>2026-04-26T10:59:34.302Z</time></trkpt><trkpt lat="37.9507121" lon="13.7739"><ele>83.0</ele><time>2026-04-26T10:59:35.302Z</time></trkpt><trkpt lat="37.9508386" lon="13.7738808"><ele>82.5</ele><time>2026-04-26T10:59:36.301Z</time></trkpt><trkpt lat="37.9509737" lon="13.7738741"><ele>82.0</ele><time>2026-04-26T10:59:37.301Z</time></trkpt><trkpt lat="37.9511112" lon="13.7738358"><ele>81.5</ele><time>2026-04-26T10:59:38.301Z</time></trkpt><trkpt lat="37.9512486" lon="13.7737435"><ele>81.0</ele><time>2026-04-26T10:59:39.301Z</time></trkpt><trkpt lat="37.9513866" lon="13.7736258"><ele>85.66666666666667</ele><time>2026-04-26T10:59:40.301Z</time></trkpt><trkpt lat="37.9515204" lon="13.7735041"><ele>90.33333333333334</ele><time>2026-04-26T10:59:41.301Z</time></trkpt><trkpt lat="37.9516602" lon="13.7733681"><ele>95.0</ele><time>2026-04-26T10:59:42.301Z</time></trkpt><trkpt lat="37.9518068" lon="13.7732248"><ele>95.33333333333334</ele><time>2026-04-26T10:59:43.301Z</time></trkpt><trkpt lat="37.9519597" lon="13.7730839"><ele>95.66666666666667</ele><time>2026-04-26T10:59:44.301Z</time></trkpt><trkpt lat="37.9521114" lon="13.7729565"><ele>96.0</ele><time>2026-04-26T10:59:45.301Z</time></trkpt><trkpt lat="37.9522642" lon="13.7728765"><ele>96.0</ele><time>2026-04-26T10:59:46.301Z</time></trkpt><trkpt lat="37.9524208" lon="13.772819"><ele>96.0</ele><time>2026-04-26T10:59:47.301Z</time></trkpt><trkpt lat="37.9525888" lon="13.772807"><ele>96.0</ele><time>2026-04-26T10:59:48.301Z</time></trkpt><trkpt lat="37.9527663" lon="13.7728317"><ele>98.33333333333334</ele><time>2026-04-26T10:59:49.301Z</time></trkpt><trkpt lat="37.9529506" lon="13.7728671"><ele>100.66666666666667</ele><time>2026-04-26T10:59:50.301Z</time></trkpt><trkpt lat="37.9531384" lon="13.7728932"><ele>103.0</ele><time>2026-04-26T10:59:51.301Z</time></trkpt><trkpt lat="37.9533326" lon="13.772921"><ele>103.66666666666667</ele><time>2026-04-26T10:59:52.301Z</time></trkpt><trkpt lat="37.9535427" lon="13.772934"><ele>104.33333333333334</ele><time>2026-04-26T10:59:53.301Z</time></trkpt><trkpt lat="37.953763" lon="13.7729497"><ele>105.0</ele><time>2026-04-26T10:59:54.301Z</time></trkpt><trkpt lat="37.9539874" lon="13.7729674"><ele>105.33333333333334</ele><time>2026-04-26T10:59:55.3Z</time></trkpt><trkpt lat="37.9542112" lon="13.7729823"><ele>105.66666666666667</ele><time>2026-04-26T10:59:56.3Z</time></trkpt><trkpt lat="37.9544189" lon="13.7729749"><ele>106.0</ele><time>2026-04-26T10:59:57.301Z</time></trkpt><trkpt lat="37.9546151" lon="13.7729746"><ele>106.0</ele><time>2026-04-26T10:59:58.301Z</time></trkpt><trkpt lat="37.9547975" lon="13.7729408"><ele>106.0</ele><time>2026-04-26T10:59:59.301Z</time></trkpt><trkpt lat="37.9549799" lon="13.7728755"><ele>106.0</ele><time>2026-04-26T11:00:00.301Z</time></trkpt><trkpt lat="37.9551484" lon="13.7727945"><ele>106.0</ele><time>2026-04-26T11:00:01.301Z</time></trkpt><trkpt lat="37.9553128" lon="13.7727146"><ele>106.0</ele><time>2026-04-26T11:00:02.301Z</time></trkpt><trkpt lat="37.9554654" lon="13.7726377"><ele>106.0</ele><time>2026-04-26T11:00:03.301Z</time></trkpt><trkpt lat="37.9555893" lon="13.772562"><ele>106.0</ele><time>2026-04-26T11:00:04.301Z</time></trkpt><trkpt lat="37.9556832" lon="13.77246"><ele>106.0</ele><time>2026-04-26T11:00:05.301Z</time></trkpt><trkpt lat="37.9557506" lon="13.7723284"><ele>106.0</ele><time>2026-04-26T11:00:06.301Z</time></trkpt><trkpt lat="37.9557982" lon="13.7721644"><ele>106.0</ele><time>2026-04-26T11:00:07.301Z</time></trkpt><trkpt lat="37.9558411" lon="13.7719967"><ele>108.25</ele><time>2026-04-26T11:00:08.301Z</time></trkpt><trkpt lat="37.9558865" lon="13.771854"><ele>110.5</ele><time>2026-04-26T11:00:09.301Z</time></trkpt><trkpt lat="37.9559887" lon="13.7717356"><ele>112.75</ele><time>2026-04-26T11:00:10.301Z</time></trkpt><trkpt lat="37.9561144" lon="13.771642"><ele>115.0</ele><time>2026-04-26T11:00:11.301Z</time></trkpt><trkpt lat="37.9562531" lon="13.7715854"><ele>115.0</ele><time>2026-04-26T11:00:12.301Z</time></trkpt><trkpt lat="37.9564014" lon="13.7715503"><ele>115.0</ele><time>2026-04-26T11:00:13.301Z</time></trkpt><trkpt lat="37.9565576" lon="13.7715331"><ele>115.0</ele><time>2026-04-26T11:00:14.301Z</time></trkpt><trkpt lat="37.9567161" lon="13.7715086"><ele>114.0</ele><time>2026-04-26T11:00:15.301Z</time></trkpt><trkpt lat="37.9568697" lon="13.7714509"><ele>113.0</ele><time>2026-04-26T11:00:16.3Z</time></trkpt><trkpt lat="37.957028" lon="13.7713514"><ele>112.0</ele><time>2026-04-26T11:00:17.301Z</time></trkpt><trkpt lat="37.9571872" lon="13.7712398"><ele>112.0</ele><time>2026-04-26T11:00:18.301Z</time></trkpt><trkpt lat="37.9573394" lon="13.7711325"><ele>112.0</ele><time>2026-04-26T11:00:19.301Z</time></trkpt><trkpt lat="37.9574996" lon="13.7710146"><ele>112.0</ele><time>2026-04-26T11:00:20.3Z</time></trkpt><trkpt lat="37.9576511" lon="13.7708556"><ele>113.0</ele><time>2026-04-26T11:00:21.301Z</time></trkpt><trkpt lat="37.9577961" lon="13.7706498"><ele>114.0</ele><time>2026-04-26T11:00:22.301Z</time></trkpt><trkpt lat="37.9579298" lon="13.7704389"><ele>115.0</ele><time>2026-04-26T11:00:23.301Z</time></trkpt><trkpt lat="37.9580459" lon="13.7702085"><ele>116.33333333333334</ele><time>2026-04-26T11:00:24.301Z</time></trkpt><trkpt lat="37.9581519" lon="13.7699857"><ele>117.66666666666666</ele><time>2026-04-26T11:00:25.301Z</time></trkpt><trkpt lat="37.9582575" lon="13.7697364"><ele>119.0</ele><time>2026-04-26T11:00:26.301Z</time></trkpt><trkpt lat="37.9583552" lon="13.7694915"><ele>117.33333333333333</ele><time>2026-04-26T11:00:27.301Z</time></trkpt><trkpt lat="37.9584537" lon="13.769253"><ele>115.66666666666666</ele><time>2026-04-26T11:00:28.301Z</time></trkpt><trkpt lat="37.9585576" lon="13.7690138"><ele>114.0</ele><time>2026-04-26T11:00:29.301Z</time></trkpt><trkpt lat="37.9586535" lon="13.7687762"><ele>114.0</ele><time>2026-04-26T11:00:30.301Z</time></trkpt><trkpt lat="37.9587503" lon="13.7685328"><ele>114.0</ele><time>2026-04-26T11:00:31.301Z</time></trkpt><trkpt lat="37.9588439" lon="13.7682815"><ele>114.0</ele><time>2026-04-26T11:00:32.301Z</time></trkpt><trkpt lat="37.9589326" lon="13.7680184"><ele>114.0</ele><time>2026-04-26T11:00:33.301Z</time></trkpt><trkpt lat="37.9590212" lon="13.7677485"><ele>114.0</ele><time>2026-04-26T11:00:34.301Z</time></trkpt><trkpt lat="37.9591077" lon="13.7674752"><ele>114.0</ele><time>2026-04-26T11:00:35.301Z</time></trkpt><trkpt lat="37.9591905" lon="13.7672069"><ele>114.0</ele><time>2026-04-26T11:00:36.301Z</time></trkpt><trkpt lat="37.9592682" lon="13.7669434"><ele>114.0</ele><time>2026-04-26T11:00:37.301Z</time></trkpt><trkpt lat="37.9593409" lon="13.766691"><ele>112.33333333333334</ele><time>2026-04-26T11:00:38.301Z</time></trkpt><trkpt lat="37.9594181" lon="13.7664471"><ele>110.66666666666667</ele><time>2026-04-26T11:00:39.301Z</time></trkpt><trkpt lat="37.9594908" lon="13.7662084"><ele>109.0</ele><time>2026-04-26T11:00:40.301Z</time></trkpt><trkpt lat="37.9595632" lon="13.7659602"><ele>109.0</ele><time>2026-04-26T11:00:41.301Z</time></trkpt><trkpt lat="37.9596296" lon="13.7657013"><ele>109.0</ele><time>2026-04-26T11:00:42.301Z</time></trkpt><trkpt lat="37.9597062" lon="13.765426"><ele>109.0</ele><time>2026-04-26T11:00:43.301Z</time></trkpt><trkpt lat="37.9597875" lon="13.7651513"><ele>111.0</ele><time>2026-04-26T11:00:44.301Z</time></trkpt><trkpt lat="37.9598679" lon="13.7648823"><ele>113.0</ele><time>2026-04-26T11:00:45.301Z</time></trkpt><trkpt lat="37.9599574" lon="13.7646222"><ele>108.33333333333333</ele><time>2026-04-26T11:00:46.301Z</time></trkpt><trkpt lat="37.960039" lon="13.7643739"><ele>103.66666666666666</ele><time>2026-04-26T11:00:47.301Z</time></trkpt><trkpt lat="37.9601157" lon="13.7641423"><ele>99.0</ele><time>2026-04-26T11:00:48.301Z</time></trkpt><trkpt lat="37.9601886" lon="13.7639163"><ele>99.0</ele><time>2026-04-26T11:00:49.301Z</time></trkpt><trkpt lat="37.960241" lon="13.7636905"><ele>99.0</ele><time>2026-04-26T11:00:50.301Z</time></trkpt><trkpt lat="37.9602647" lon="13.7634412"><ele>99.0</ele><time>2026-04-26T11:00:51.301Z</time></trkpt><trkpt lat="37.960266" lon="13.7631754"><ele>100.66666666666666</ele><time>2026-04-26T11:00:52.301Z</time></trkpt><trkpt lat="37.9602719" lon="13.7628982"><ele>102.33333333333333</ele><time>2026-04-26T11:00:53.3Z</time></trkpt><trkpt lat="37.9602792" lon="13.7626246"><ele>104.0</ele><time>2026-04-26T11:00:54.301Z</time></trkpt><trkpt lat="37.9602874" lon="13.7623446"><ele>104.0</ele><time>2026-04-26T11:00:55.301Z</time></trkpt><trkpt lat="37.9602994" lon="13.7620674"><ele>104.0</ele><time>2026-04-26T11:00:56.301Z</time></trkpt><trkpt lat="37.9603065" lon="13.7618142"><ele>104.0</ele><time>2026-04-26T11:00:57.301Z</time></trkpt><trkpt lat="37.9603099" lon="13.7615985"><ele>104.0</ele><time>2026-04-26T11:00:58.301Z</time></trkpt><trkpt lat="37.9603006" lon="13.7613942"><ele>104.0</ele><time>2026-04-26T11:00:59.301Z</time></trkpt><trkpt lat="37.9602717" lon="13.7612042"><ele>104.0</ele><time>2026-04-26T11:01:00.301Z</time></trkpt><trkpt lat="37.9602108" lon="13.7610386"><ele>103.33333333333333</ele><time>2026-04-26T11:01:01.301Z</time></trkpt><trkpt lat="37.9601158" lon="13.7608693"><ele>102.66666666666666</ele><time>2026-04-26T11:01:02.301Z</time></trkpt><trkpt lat="37.9599964" lon="13.7606984"><ele>102.0</ele><time>2026-04-26T11:01:03.301Z</time></trkpt><trkpt lat="37.9598754" lon="13.7605461"><ele>105.0</ele><time>2026-04-26T11:01:04.301Z</time></trkpt><trkpt lat="37.9597821" lon="13.7604014"><ele>108.0</ele><time>2026-04-26T11:01:05.301Z</time></trkpt><trkpt lat="37.9597202" lon="13.7602642"><ele>111.0</ele><time>2026-04-26T11:01:06.301Z</time></trkpt><trkpt lat="37.9596936" lon="13.7601006"><ele>114.0</ele><time>2026-04-26T11:01:07.301Z</time></trkpt><trkpt lat="37.9597116" lon="13.7599514"><ele>114.0</ele><time>2026-04-26T11:01:08.301Z</time></trkpt><trkpt lat="37.9597721" lon="13.7598152"><ele>114.0</ele><time>2026-04-26T11:01:09.301Z</time></trkpt><trkpt lat="37.9598677" lon="13.7596974"><ele>114.0</ele><time>2026-04-26T11:01:10.301Z</time></trkpt><trkpt lat="37.9599967" lon="13.7596058"><ele>114.0</ele><time>2026-04-26T11:01:11.301Z</time></trkpt><trkpt lat="37.9601484" lon="13.7594802"><ele>111.33333333333334</ele><time>2026-04-26T11:01:12.301Z</time></trkpt><trkpt lat="37.9603118" lon="13.7594082"><ele>108.66666666666667</ele><time>2026-04-26T11:01:13.301Z</time></trkpt><trkpt lat="37.9604567" lon="13.7592829"><ele>106.0</ele><time>2026-04-26T11:01:14.301Z</time></trkpt><trkpt lat="37.9605945" lon="13.7591159"><ele>106.0</ele><time>2026-04-26T11:01:15.301Z</time></trkpt><trkpt lat="37.960721" lon="13.7588925"><ele>106.0</ele><time>2026-04-26T11:01:16.301Z</time></trkpt><trkpt lat="37.9608336" lon="13.7586542"><ele>106.0</ele><time>2026-04-26T11:01:17.301Z</time></trkpt><trkpt lat="37.9609363" lon="13.7584306"><ele>102.0</ele><time>2026-04-26T11:01:18.301Z</time></trkpt><trkpt lat="37.9610267" lon="13.7582101"><ele>98.0</ele><time>2026-04-26T11:01:19.301Z</time></trkpt><trkpt lat="37.9610998" lon="13.75799"><ele>94.0</ele><time>2026-04-26T11:01:20.301Z</time></trkpt><trkpt lat="37.9611443" lon="13.7577652"><ele>94.66666666666666</ele><time>2026-04-26T11:01:21.301Z</time></trkpt><trkpt lat="37.961168" lon="13.7575256"><ele>95.33333333333333</ele><time>2026-04-26T11:01:22.301Z</time></trkpt><trkpt lat="37.9611617" lon="13.7572682"><ele>96.0</ele><time>2026-04-26T11:01:23.301Z</time></trkpt><trkpt lat="37.9611671" lon="13.7570334"><ele>97.0</ele><time>2026-04-26T11:01:24.301Z</time></trkpt><trkpt lat="37.9611755" lon="13.7567988"><ele>98.0</ele><time>2026-04-26T11:01:25.301Z</time></trkpt><trkpt lat="37.96118" lon="13.7565631"><ele>99.0</ele><time>2026-04-26T11:01:26.301Z</time></trkpt><trkpt lat="37.9611939" lon="13.7563415"><ele>99.0</ele><time>2026-04-26T11:01:27.301Z</time></trkpt><trkpt lat="37.9612242" lon="13.7561253"><ele>99.0</ele><time>2026-04-26T11:01:28.3Z</time></trkpt><trkpt lat="37.9612813" lon="13.7559123"><ele>99.0</ele><time>2026-04-26T11:01:29.301Z</time></trkpt><trkpt lat="37.961355" lon="13.7556974"><ele>101.0</ele><time>2026-04-26T11:01:30.301Z</time></trkpt><trkpt lat="37.9614238" lon="13.7554739"><ele>103.0</ele><time>2026-04-26T11:01:31.301Z</time></trkpt><trkpt lat="37.9614781" lon="13.7552359"><ele>105.0</ele><time>2026-04-26T11:01:32.3Z</time></trkpt><trkpt lat="37.9615119" lon="13.7549893"><ele>104.33333333333334</ele><time>2026-04-26T11:01:33.301Z</time></trkpt><trkpt lat="37.9615545" lon="13.7547642"><ele>103.66666666666667</ele><time>2026-04-26T11:01:34.3Z</time></trkpt><trkpt lat="37.9615792" lon="13.7545421"><ele>103.0</ele><time>2026-04-26T11:01:35.301Z</time></trkpt><trkpt lat="37.9615884" lon="13.7543367"><ele>103.0</ele><time>2026-04-26T11:01:36.301Z</time></trkpt><trkpt lat="37.9615649" lon="13.7541315"><ele>103.0</ele><time>2026-04-26T11:01:37.301Z</time></trkpt><trkpt lat="37.9615085" lon="13.7539303"><ele>103.0</ele><time>2026-04-26T11:01:38.3Z</time></trkpt><trkpt lat="37.9614366" lon="13.753753"><ele>103.0</ele><time>2026-04-26T11:01:39.301Z</time></trkpt><trkpt lat="37.9613655" lon="13.7535834"><ele>103.0</ele><time>2026-04-26T11:01:40.301Z</time></trkpt><trkpt lat="37.9613158" lon="13.7534284"><ele>103.0</ele><time>2026-04-26T11:01:41.301Z</time></trkpt><trkpt lat="37.9613069" lon="13.7532503"><ele>103.0</ele><time>2026-04-26T11:01:42.301Z</time></trkpt><trkpt lat="37.961333" lon="13.7530729"><ele>101.66666666666667</ele><time>2026-04-26T11:01:43.301Z</time></trkpt><trkpt lat="37.9613926" lon="13.7528955"><ele>100.33333333333334</ele><time>2026-04-26T11:01:44.3Z</time></trkpt><trkpt lat="37.9614649" lon="13.752724"><ele>99.0</ele><time>2026-04-26T11:01:45.301Z</time></trkpt><trkpt lat="37.9615546" lon="13.7525759"><ele>101.5</ele><time>2026-04-26T11:01:46.301Z</time></trkpt><trkpt lat="37.9616587" lon="13.7524627"><ele>104.0</ele><time>2026-04-26T11:01:47.301Z</time></trkpt><trkpt lat="37.9617733" lon="13.7523686"><ele>106.5</ele><time>2026-04-26T11:01:48.301Z</time></trkpt><trkpt lat="37.9618779" lon="13.7522693"><ele>109.0</ele><time>2026-04-26T11:01:49.301Z</time></trkpt><trkpt lat="37.9619731" lon="13.7521374"><ele>102.33333333333334</ele><time>2026-04-26T11:01:50.301Z</time></trkpt><trkpt lat="37.9620317" lon="13.7519401"><ele>95.66666666666667</ele><time>2026-04-26T11:01:51.301Z</time></trkpt><trkpt lat="37.962081" lon="13.7517232"><ele>89.0</ele><time>2026-04-26T11:01:52.3Z</time></trkpt><trkpt lat="37.9621187" lon="13.7514847"><ele>89.0</ele><time>2026-04-26T11:01:53.3Z</time></trkpt><trkpt lat="37.9621392" lon="13.7512277"><ele>89.0</ele><time>2026-04-26T11:01:54.301Z</time></trkpt><trkpt lat="37.9621575" lon="13.7509846"><ele>89.0</ele><time>2026-04-26T11:01:55.3Z</time></trkpt><trkpt lat="37.9621507" lon="13.7507594"><ele>89.33333333333334</ele><time>2026-04-26T11:01:56.301Z</time></trkpt><trkpt lat="37.9621556" lon="13.7505215"><ele>89.66666666666667</ele><time>2026-04-26T11:01:57.301Z</time></trkpt><trkpt lat="37.9621439" lon="13.7502693"><ele>90.0</ele><time>2026-04-26T11:01:58.301Z</time></trkpt><trkpt lat="37.9621129" lon="13.7500174"><ele>90.0</ele><time>2026-04-26T11:01:59.3Z</time></trkpt><trkpt lat="37.9620741" lon="13.7497604"><ele>90.0</ele><time>2026-04-26T11:02:00.301Z</time></trkpt><trkpt lat="37.9620425" lon="13.7494958"><ele>90.0</ele><time>2026-04-26T11:02:01.301Z</time></trkpt><trkpt lat="37.9620343" lon="13.7492368"><ele>90.0</ele><time>2026-04-26T11:02:02.301Z</time></trkpt><trkpt lat="37.9620489" lon="13.7489909"><ele>90.0</ele><time>2026-04-26T11:02:03.301Z</time></trkpt><trkpt lat="37.9620744" lon="13.7487828"><ele>90.0</ele><time>2026-04-26T11:02:04.3Z</time></trkpt><trkpt lat="37.9620876" lon="13.7485453"><ele>90.0</ele><time>2026-04-26T11:02:05.301Z</time></trkpt><trkpt lat="37.9621036" lon="13.7483243"><ele>90.0</ele><time>2026-04-26T11:02:06.301Z</time></trkpt><trkpt lat="37.9621251" lon="13.7481073"><ele>90.0</ele><time>2026-04-26T11:02:07.301Z</time></trkpt><trkpt lat="37.9621591" lon="13.7479001"><ele>91.33333333333333</ele><time>2026-04-26T11:02:08.301Z</time></trkpt><trkpt lat="37.9622145" lon="13.7476876"><ele>92.66666666666666</ele><time>2026-04-26T11:02:09.301Z</time></trkpt><trkpt lat="37.9622873" lon="13.7474907"><ele>94.0</ele><time>2026-04-26T11:02:10.301Z</time></trkpt><trkpt lat="37.9623808" lon="13.7472924"><ele>94.0</ele><time>2026-04-26T11:02:11.3Z</time></trkpt><trkpt lat="37.9624831" lon="13.7470961"><ele>94.0</ele><time>2026-04-26T11:02:12.301Z</time></trkpt><trkpt lat="37.9625943" lon="13.7468947"><ele>94.0</ele><time>2026-04-26T11:02:13.301Z</time></trkpt><trkpt lat="37.9627063" lon="13.7466986"><ele>90.66666666666666</ele><time>2026-04-26T11:02:14.301Z</time></trkpt><trkpt lat="37.9628221" lon="13.7465036"><ele>87.33333333333333</ele><time>2026-04-26T11:02:15.301Z</time></trkpt><trkpt lat="37.962941" lon="13.7463101"><ele>84.0</ele><time>2026-04-26T11:02:16.301Z</time></trkpt><trkpt lat="37.9630479" lon="13.7461139"><ele>87.0</ele><time>2026-04-26T11:02:17.301Z</time></trkpt><trkpt lat="37.9631404" lon="13.7458996"><ele>90.0</ele><time>2026-04-26T11:02:18.301Z</time></trkpt><trkpt lat="37.9632141" lon="13.745691"><ele>93.0</ele><time>2026-04-26T11:02:19.3Z</time></trkpt><trkpt lat="37.963274" lon="13.7454785"><ele>93.0</ele><time>2026-04-26T11:02:20.301Z</time></trkpt><trkpt lat="37.9633087" lon="13.7452663"><ele>93.0</ele><time>2026-04-26T11:02:21.301Z</time></trkpt><trkpt lat="37.9633129" lon="13.7450284"><ele>93.0</ele><time>2026-04-26T11:02:22.301Z</time></trkpt><trkpt lat="37.9632876" lon="13.7447957"><ele>94.66666666666666</ele><time>2026-04-26T11:02:23.301Z</time></trkpt><trkpt lat="37.9632396" lon="13.7445877"><ele>96.33333333333333</ele><time>2026-04-26T11:02:24.301Z</time></trkpt><trkpt lat="37.9631849" lon="13.7443965"><ele>98.0</ele><time>2026-04-26T11:02:25.301Z</time></trkpt><trkpt lat="37.9631614" lon="13.7442181"><ele>98.66666666666666</ele><time>2026-04-26T11:02:26.301Z</time></trkpt><trkpt lat="37.9631721" lon="13.7440356"><ele>99.33333333333334</ele><time>2026-04-26T11:02:27.301Z</time></trkpt><trkpt lat="37.9631842" lon="13.743818"><ele>100.0</ele><time>2026-04-26T11:02:28.301Z</time></trkpt><trkpt lat="37.9631941" lon="13.7435856"><ele>102.33333333333334</ele><time>2026-04-26T11:02:29.301Z</time></trkpt><trkpt lat="37.9632076" lon="13.7433477"><ele>104.66666666666666</ele><time>2026-04-26T11:02:30.301Z</time></trkpt><trkpt lat="37.9632224" lon="13.7431147"><ele>107.0</ele><time>2026-04-26T11:02:31.301Z</time></trkpt><trkpt lat="37.9632394" lon="13.7428938"><ele>110.0</ele><time>2026-04-26T11:02:32.301Z</time></trkpt><trkpt lat="37.9632566" lon="13.742672"><ele>113.0</ele><time>2026-04-26T11:02:33.301Z</time></trkpt><trkpt lat="37.9632969" lon="13.7424483"><ele>116.0</ele><time>2026-04-26T11:02:34.301Z</time></trkpt><trkpt lat="37.9633508" lon="13.7422272"><ele>112.0</ele><time>2026-04-26T11:02:35.301Z</time></trkpt><trkpt lat="37.963431" lon="13.7420128"><ele>108.0</ele><time>2026-04-26T11:02:36.301Z</time></trkpt><trkpt lat="37.9635398" lon="13.7418052"><ele>104.0</ele><time>2026-04-26T11:02:37.301Z</time></trkpt><trkpt lat="37.9636632" lon="13.741619"><ele>104.0</ele><time>2026-04-26T11:02:38.301Z</time></trkpt><trkpt lat="37.9638016" lon="13.7414529"><ele>104.0</ele><time>2026-04-26T11:02:39.301Z</time></trkpt><trkpt lat="37.9639792" lon="13.7412983"><ele>104.0</ele><time>2026-04-26T11:02:40.301Z</time></trkpt><trkpt lat="37.9641376" lon="13.7411551"><ele>101.33333333333333</ele><time>2026-04-26T11:02:41.301Z</time></trkpt><trkpt lat="37.9643003" lon="13.7409917"><ele>98.66666666666666</ele><time>2026-04-26T11:02:42.301Z</time></trkpt><trkpt lat="37.9644808" lon="13.7408401"><ele>96.0</ele><time>2026-04-26T11:02:43.301Z</time></trkpt><trkpt lat="37.9646481" lon="13.7407365"><ele>96.0</ele><time>2026-04-26T11:02:44.301Z</time></trkpt><trkpt lat="37.96482" lon="13.7405926"><ele>96.0</ele><time>2026-04-26T11:02:45.301Z</time></trkpt><trkpt lat="37.9649988" lon="13.7404593"><ele>96.0</ele><time>2026-04-26T11:02:46.301Z</time></trkpt><trkpt lat="37.9651773" lon="13.7403329"><ele>95.33333333333333</ele><time>2026-04-26T11:02:47.301Z</time></trkpt><trkpt lat="37.9653506" lon="13.740207"><ele>94.66666666666666</ele><time>2026-04-26T11:02:48.301Z</time></trkpt><trkpt lat="37.96552" lon="13.7400828"><ele>94.0</ele><time>2026-04-26T11:02:49.301Z</time></trkpt><trkpt lat="37.9656943" lon="13.7399566"><ele>94.0</ele><time>2026-04-26T11:02:50.301Z</time></trkpt><trkpt lat="37.9658538" lon="13.7398398"><ele>94.0</ele><time>2026-04-26T11:02:51.301Z</time></trkpt><trkpt lat="37.9660097" lon="13.7397347"><ele>94.0</ele><time>2026-04-26T11:02:52.301Z</time></trkpt><trkpt lat="37.9661638" lon="13.7396339"><ele>92.66666666666666</ele><time>2026-04-26T11:02:53.301Z</time></trkpt><trkpt lat="37.9663198" lon="13.7395475"><ele>91.33333333333333</ele><time>2026-04-26T11:02:54.301Z</time></trkpt><trkpt lat="37.9664675" lon="13.7394603"><ele>90.0</ele><time>2026-04-26T11:02:55.301Z</time></trkpt><trkpt lat="37.9666101" lon="13.739363"><ele>86.33333333333333</ele><time>2026-04-26T11:02:56.301Z</time></trkpt><trkpt lat="37.9667462" lon="13.7392611"><ele>82.66666666666666</ele><time>2026-04-26T11:02:57.301Z</time></trkpt><trkpt lat="37.9668724" lon="13.7391448"><ele>79.0</ele><time>2026-04-26T11:02:58.3Z</time></trkpt><trkpt lat="37.9669964" lon="13.7389936"><ele>79.0</ele><time>2026-04-26T11:02:59.301Z</time></trkpt><trkpt lat="37.9671075" lon="13.7388278"><ele>79.0</ele><time>2026-04-26T11:03:00.301Z</time></trkpt><trkpt lat="37.9672047" lon="13.7386431"><ele>79.0</ele><time>2026-04-26T11:03:01.301Z</time></trkpt><trkpt lat="37.9672854" lon="13.7384462"><ele>80.66666666666666</ele><time>2026-04-26T11:03:02.301Z</time></trkpt><trkpt lat="37.9673705" lon="13.7382479"><ele>82.33333333333333</ele><time>2026-04-26T11:03:03.301Z</time></trkpt><trkpt lat="37.967462" lon="13.738067"><ele>84.0</ele><time>2026-04-26T11:03:04.301Z</time></trkpt><trkpt lat="37.9675679" lon="13.7378833"><ele>83.66666666666667</ele><time>2026-04-26T11:03:05.301Z</time></trkpt><trkpt lat="37.9676967" lon="13.7377128"><ele>83.33333333333334</ele><time>2026-04-26T11:03:06.301Z</time></trkpt><trkpt lat="37.9678429" lon="13.7375541"><ele>83.0</ele><time>2026-04-26T11:03:07.301Z</time></trkpt><trkpt lat="37.9680026" lon="13.7373956"><ele>83.0</ele><time>2026-04-26T11:03:08.3Z</time></trkpt><trkpt lat="37.9681613" lon="13.7372418"><ele>83.0</ele><time>2026-04-26T11:03:09.301Z</time></trkpt><trkpt lat="37.968308" lon="13.7370956"><ele>83.0</ele><time>2026-04-26T11:03:10.301Z</time></trkpt><trkpt lat="37.9684553" lon="13.7369472"><ele>83.0</ele><time>2026-04-26T11:03:11.301Z</time></trkpt><trkpt lat="37.9685934" lon="13.7368072"><ele>83.0</ele><time>2026-04-26T11:03:12.301Z</time></trkpt><trkpt lat="37.9687218" lon="13.7366782"><ele>83.0</ele><time>2026-04-26T11:03:13.301Z</time></trkpt><trkpt lat="37.9688379" lon="13.7365212"><ele>83.0</ele><time>2026-04-26T11:03:14.301Z</time></trkpt><trkpt lat="37.9689479" lon="13.7363484"><ele>83.0</ele><time>2026-04-26T11:03:15.301Z</time></trkpt><trkpt lat="37.9690451" lon="13.7361503"><ele>83.0</ele><time>2026-04-26T11:03:16.301Z</time></trkpt><trkpt lat="37.9691366" lon="13.7359422"><ele>82.66666666666667</ele><time>2026-04-26T11:03:17.301Z</time></trkpt><trkpt lat="37.9692198" lon="13.7357453"><ele>82.33333333333333</ele><time>2026-04-26T11:03:18.301Z</time></trkpt><trkpt lat="37.9692956" lon="13.7355606"><ele>82.0</ele><time>2026-04-26T11:03:19.3Z</time></trkpt><trkpt lat="37.9693652" lon="13.7353816"><ele>81.5</ele><time>2026-04-26T11:03:20.301Z</time></trkpt><trkpt lat="37.9694227" lon="13.7352049"><ele>81.0</ele><time>2026-04-26T11:03:21.301Z</time></trkpt><trkpt lat="37.969471" lon="13.735033"><ele>80.5</ele><time>2026-04-26T11:03:22.301Z</time></trkpt><trkpt lat="37.9695229" lon="13.7348558"><ele>80.0</ele><time>2026-04-26T11:03:23.301Z</time></trkpt><trkpt lat="37.9695711" lon="13.7346766"><ele>80.0</ele><time>2026-04-26T11:03:24.3Z</time></trkpt><trkpt lat="37.9696306" lon="13.7344938"><ele>80.0</ele><time>2026-04-26T11:03:25.301Z</time></trkpt><trkpt lat="37.9696799" lon="13.7343027"><ele>80.0</ele><time>2026-04-26T11:03:26.301Z</time></trkpt><trkpt lat="37.9697189" lon="13.7340966"><ele>80.0</ele><time>2026-04-26T11:03:27.301Z</time></trkpt><trkpt lat="37.9697483" lon="13.7338761"><ele>80.0</ele><time>2026-04-26T11:03:28.301Z</time></trkpt><trkpt lat="37.9697767" lon="13.7336452"><ele>80.0</ele><time>2026-04-26T11:03:29.301Z</time></trkpt><trkpt lat="37.9698065" lon="13.7334204"><ele>80.0</ele><time>2026-04-26T11:03:30.301Z</time></trkpt><trkpt lat="37.9698388" lon="13.7331845"><ele>80.0</ele><time>2026-04-26T11:03:31.301Z</time></trkpt><trkpt lat="37.9698657" lon="13.7329385"><ele>80.0</ele><time>2026-04-26T11:03:32.301Z</time></trkpt><trkpt lat="37.9699012" lon="13.7326988"><ele>80.0</ele><time>2026-04-26T11:03:33.301Z</time></trkpt><trkpt lat="37.9699479" lon="13.7324777"><ele>80.0</ele><time>2026-04-26T11:03:34.301Z</time></trkpt><trkpt lat="37.9699921" lon="13.7323123"><ele>80.0</ele><time>2026-04-26T11:03:35.3Z</time></trkpt><trkpt lat="37.9700393" lon="13.7320852"><ele>78.66666666666667</ele><time>2026-04-26T11:03:36.301Z</time></trkpt><trkpt lat="37.9700766" lon="13.7318699"><ele>77.33333333333333</ele><time>2026-04-26T11:03:37.301Z</time></trkpt><trkpt lat="37.9700994" lon="13.7316436"><ele>76.0</ele><time>2026-04-26T11:03:38.301Z</time></trkpt><trkpt lat="37.9701148" lon="13.7314241"><ele>76.0</ele><time>2026-04-26T11:03:39.3Z</time></trkpt><trkpt lat="37.9701286" lon="13.7312026"><ele>76.0</ele><time>2026-04-26T11:03:40.301Z</time></trkpt><trkpt lat="37.9701396" lon="13.7309791"><ele>76.0</ele><time>2026-04-26T11:03:41.301Z</time></trkpt><trkpt lat="37.9701536" lon="13.7307644"><ele>76.33333333333333</ele><time>2026-04-26T11:03:42.301Z</time></trkpt><trkpt lat="37.970174" lon="13.7305515"><ele>76.66666666666667</ele><time>2026-04-26T11:03:43.301Z</time></trkpt><trkpt lat="37.9702007" lon="13.7303518"><ele>77.0</ele><time>2026-04-26T11:03:44.301Z</time></trkpt><trkpt lat="37.9702325" lon="13.7301535"><ele>77.0</ele><time>2026-04-26T11:03:45.301Z</time></trkpt><trkpt lat="37.9702664" lon="13.7299574"><ele>77.0</ele><time>2026-04-26T11:03:46.301Z</time></trkpt><trkpt lat="37.9702992" lon="13.7297612"><ele>77.0</ele><time>2026-04-26T11:03:47.301Z</time></trkpt><trkpt lat="37.9703347" lon="13.7295676"><ele>76.0</ele><time>2026-04-26T11:03:48.301Z</time></trkpt><trkpt lat="37.9703749" lon="13.7293731"><ele>75.0</ele><time>2026-04-26T11:03:49.301Z</time></trkpt><trkpt lat="37.9704164" lon="13.7291821"><ele>74.0</ele><time>2026-04-26T11:03:50.301Z</time></trkpt><trkpt lat="37.9704567" lon="13.7289971"><ele>74.0</ele><time>2026-04-26T11:03:51.301Z</time></trkpt><trkpt lat="37.9704965" lon="13.7288236"><ele>74.0</ele><time>2026-04-26T11:03:52.301Z</time></trkpt><trkpt lat="37.9705341" lon="13.7286587"><ele>74.0</ele><time>2026-04-26T11:03:53.301Z</time></trkpt><trkpt lat="37.9705703" lon="13.7285014"><ele>74.0</ele><time>2026-04-26T11:03:54.301Z</time></trkpt><trkpt lat="37.9706074" lon="13.7283501"><ele>73.75</ele><time>2026-04-26T11:03:55.301Z</time></trkpt><trkpt lat="37.97065" lon="13.7281956"><ele>73.5</ele><time>2026-04-26T11:03:56.301Z</time></trkpt><trkpt lat="37.9707036" lon="13.7280433"><ele>73.25</ele><time>2026-04-26T11:03:57.301Z</time></trkpt><trkpt lat="37.9707735" lon="13.7279035"><ele>73.0</ele><time>2026-04-26T11:03:58.301Z</time></trkpt><trkpt lat="37.9708475" lon="13.7277674"><ele>71.6</ele><time>2026-04-26T11:03:59.301Z</time></trkpt><trkpt lat="37.970918" lon="13.7276396"><ele>70.19999999999999</ele><time>2026-04-26T11:04:00.301Z</time></trkpt><trkpt lat="37.9709697" lon="13.727513"><ele>68.8</ele><time>2026-04-26T11:04:01.301Z</time></trkpt><trkpt lat="37.9709956" lon="13.7273806"><ele>67.39999999999999</ele><time>2026-04-26T11:04:02.301Z</time></trkpt><trkpt lat="37.9709919" lon="13.7272547"><ele>66.0</ele><time>2026-04-26T11:04:03.301Z</time></trkpt><trkpt lat="37.9709678" lon="13.7271031"><ele>66.0</ele><time>2026-04-26T11:04:04.301Z</time></trkpt><trkpt lat="37.9709294" lon="13.7269454"><ele>66.0</ele><time>2026-04-26T11:04:05.3Z</time></trkpt><trkpt lat="37.9708836" lon="13.7267895"><ele>66.0</ele><time>2026-04-26T11:04:06.301Z</time></trkpt><trkpt lat="37.9708243" lon="13.7266381"><ele>66.0</ele><time>2026-04-26T11:04:07.3Z</time></trkpt><trkpt lat="37.9707528" lon="13.7264958"><ele>65.5</ele><time>2026-04-26T11:04:08.301Z</time></trkpt><trkpt lat="37.9706765" lon="13.7263616"><ele>65.0</ele><time>2026-04-26T11:04:09.301Z</time></trkpt><trkpt lat="37.9705969" lon="13.7262388"><ele>64.5</ele><time>2026-04-26T11:04:10.301Z</time></trkpt><trkpt lat="37.9705195" lon="13.7261254"><ele>64.0</ele><time>2026-04-26T11:04:11.301Z</time></trkpt><trkpt lat="37.9704372" lon="13.7260279"><ele>64.0</ele><time>2026-04-26T11:04:12.301Z</time></trkpt><trkpt lat="37.9703549" lon="13.7259361"><ele>64.0</ele><time>2026-04-26T11:04:13.301Z</time></trkpt><trkpt lat="37.9702764" lon="13.7258532"><ele>64.0</ele><time>2026-04-26T11:04:14.301Z</time></trkpt><trkpt lat="37.9702025" lon="13.7257695"><ele>64.0</ele><time>2026-04-26T11:04:15.301Z</time></trkpt><trkpt lat="37.9701329" lon="13.7256854"><ele>64.0</ele><time>2026-04-26T11:04:16.301Z</time></trkpt><trkpt lat="37.970073" lon="13.7255995"><ele>64.66666666666666</ele><time>2026-04-26T11:04:17.301Z</time></trkpt><trkpt lat="37.9700151" lon="13.7255191"><ele>65.33333333333333</ele><time>2026-04-26T11:04:18.301Z</time></trkpt><trkpt lat="37.9699589" lon="13.7254445"><ele>66.0</ele><time>2026-04-26T11:04:19.301Z</time></trkpt><trkpt lat="37.9699049" lon="13.7253771"><ele>66.66666666666667</ele><time>2026-04-26T11:04:20.301Z</time></trkpt><trkpt lat="37.9698598" lon="13.7253194"><ele>67.33333333333334</ele><time>2026-04-26T11:04:21.301Z</time></trkpt><trkpt lat="37.9697816" lon="13.7252266"><ele>68.0</ele><time>2026-04-26T11:04:23.301Z</time></trkpt><trkpt lat="37.9697244" lon="13.7251533"><ele>68.0</ele><time>2026-04-26T11:04:25.301Z</time></trkpt><trkpt lat="37.969644" lon="13.7250546"><ele>68.0</ele><time>2026-04-26T11:05:41.301Z</time></trkpt><trkpt lat="37.9695916" lon="13.7250008"><ele>68.0</ele><time>2026-04-26T11:05:42.301Z</time></trkpt><trkpt lat="37.9695306" lon="13.7249302"><ele>68.0</ele><time>2026-04-26T11:05:43.3Z</time></trkpt><trkpt lat="37.9694692" lon="13.7248526"><ele>68.0</ele><time>2026-04-26T11:05:44.3Z</time></trkpt><trkpt lat="37.9693971" lon="13.7247553"><ele>68.0</ele><time>2026-04-26T11:05:45.301Z</time></trkpt><trkpt lat="37.9693537" lon="13.7246655"><ele>68.0</ele><time>2026-04-26T11:05:46.301Z</time></trkpt><trkpt lat="37.969299" lon="13.7245318"><ele>68.0</ele><time>2026-04-26T11:05:47.301Z</time></trkpt><trkpt lat="37.9692503" lon="13.7243704"><ele>68.0</ele><time>2026-04-26T11:05:48.301Z</time></trkpt><trkpt lat="37.9691963" lon="13.7242154"><ele>69.5</ele><time>2026-04-26T11:05:49.301Z</time></trkpt><trkpt lat="37.9691434" lon="13.7240569"><ele>71.0</ele><time>2026-04-26T11:05:50.301Z</time></trkpt><trkpt lat="37.9690869" lon="13.7238986"><ele>72.5</ele><time>2026-04-26T11:05:51.301Z</time></trkpt><trkpt lat="37.9690448" lon="13.7237383"><ele>74.0</ele><time>2026-04-26T11:05:52.301Z</time></trkpt><trkpt lat="37.9690259" lon="13.7235816"><ele>73.4</ele><time>2026-04-26T11:05:53.301Z</time></trkpt><trkpt lat="37.9690352" lon="13.7234296"><ele>72.80000000000001</ele><time>2026-04-26T11:05:54.301Z</time></trkpt><trkpt lat="37.9690679" lon="13.7232923"><ele>72.19999999999999</ele><time>2026-04-26T11:05:55.3Z</time></trkpt><trkpt lat="37.9691227" lon="13.7231784"><ele>71.6</ele><time>2026-04-26T11:05:56.301Z</time></trkpt><trkpt lat="37.9692035" lon="13.7230939"><ele>71.0</ele><time>2026-04-26T11:05:57.301Z</time></trkpt><trkpt lat="37.9693146" lon="13.7230425"><ele>70.0</ele><time>2026-04-26T11:05:58.301Z</time></trkpt><trkpt lat="37.9694395" lon="13.7230048"><ele>69.0</ele><time>2026-04-26T11:05:59.3Z</time></trkpt><trkpt lat="37.9695772" lon="13.7230146"><ele>68.0</ele><time>2026-04-26T11:06:00.301Z</time></trkpt><trkpt lat="37.9697241" lon="13.7230437"><ele>67.0</ele><time>2026-04-26T11:06:01.301Z</time></trkpt><trkpt lat="37.9698753" lon="13.7230913"><ele>67.66666666666666</ele><time>2026-04-26T11:06:02.301Z</time></trkpt><trkpt lat="37.9700299" lon="13.7231416"><ele>68.33333333333333</ele><time>2026-04-26T11:06:03.3Z</time></trkpt><trkpt lat="37.9701916" lon="13.7231959"><ele>69.0</ele><time>2026-04-26T11:06:04.301Z</time></trkpt><trkpt lat="37.9703524" lon="13.7232578"><ele>69.0</ele><time>2026-04-26T11:06:05.301Z</time></trkpt><trkpt lat="37.9705134" lon="13.7233035"><ele>69.0</ele><time>2026-04-26T11:06:06.301Z</time></trkpt><trkpt lat="37.9706838" lon="13.7233628"><ele>69.0</ele><time>2026-04-26T11:06:07.301Z</time></trkpt><trkpt lat="37.9708552" lon="13.7234238"><ele>68.0</ele><time>2026-04-26T11:06:08.301Z</time></trkpt><trkpt lat="37.9710217" lon="13.7234857"><ele>67.0</ele><time>2026-04-26T11:06:09.301Z</time></trkpt><trkpt lat="37.9711931" lon="13.723546"><ele>66.0</ele><time>2026-04-26T11:06:10.301Z</time></trkpt><trkpt lat="37.9713506" lon="13.7236002"><ele>62.33333333333333</ele><time>2026-04-26T11:06:11.301Z</time></trkpt><trkpt lat="37.9715004" lon="13.7236559"><ele>58.666666666666664</ele><time>2026-04-26T11:06:12.301Z</time></trkpt><trkpt lat="37.9716499" lon="13.7237124"><ele>55.0</ele><time>2026-04-26T11:06:13.301Z</time></trkpt><trkpt lat="37.9718062" lon="13.7237772"><ele>53.33333333333333</ele><time>2026-04-26T11:06:14.301Z</time></trkpt><trkpt lat="37.9719666" lon="13.7238281"><ele>51.66666666666667</ele><time>2026-04-26T11:06:15.301Z</time></trkpt><trkpt lat="37.972137" lon="13.723873"><ele>50.0</ele><time>2026-04-26T11:06:16.301Z</time></trkpt><trkpt lat="37.9723091" lon="13.7239134"><ele>50.0</ele><time>2026-04-26T11:06:17.301Z</time></trkpt><trkpt lat="37.9724794" lon="13.7239502"><ele>50.0</ele><time>2026-04-26T11:06:18.301Z</time></trkpt><trkpt lat="37.9726494" lon="13.723981"><ele>50.0</ele><time>2026-04-26T11:06:19.301Z</time></trkpt><trkpt lat="37.9728071" lon="13.724017"><ele>47.66666666666667</ele><time>2026-04-26T11:06:20.301Z</time></trkpt><trkpt lat="37.9729667" lon="13.7240401"><ele>45.333333333333336</ele><time>2026-04-26T11:06:21.301Z</time></trkpt><trkpt lat="37.9731214" lon="13.7240429"><ele>43.0</ele><time>2026-04-26T11:06:22.301Z</time></trkpt><trkpt lat="37.973266" lon="13.7240353"><ele>40.75</ele><time>2026-04-26T11:06:23.301Z</time></trkpt><trkpt lat="37.9734005" lon="13.7240201"><ele>38.5</ele><time>2026-04-26T11:06:24.301Z</time></trkpt><trkpt lat="37.9735167" lon="13.7239928"><ele>36.25</ele><time>2026-04-26T11:06:25.301Z</time></trkpt><trkpt lat="37.9736237" lon="13.7239421"><ele>34.0</ele><time>2026-04-26T11:06:26.301Z</time></trkpt><trkpt lat="37.9737074" lon="13.7238455"><ele>34.0</ele><time>2026-04-26T11:06:27.301Z</time></trkpt><trkpt lat="37.9737792" lon="13.723717"><ele>34.0</ele><time>2026-04-26T11:06:28.301Z</time></trkpt><trkpt lat="37.9738291" lon="13.723549"><ele>34.0</ele><time>2026-04-26T11:06:29.301Z</time></trkpt><trkpt lat="37.9738661" lon="13.7233561"><ele>34.0</ele><time>2026-04-26T11:06:30.301Z</time></trkpt><trkpt lat="37.9738954" lon="13.7231609"><ele>34.0</ele><time>2026-04-26T11:06:31.301Z</time></trkpt><trkpt lat="37.9739196" lon="13.7229691"><ele>34.0</ele><time>2026-04-26T11:06:32.301Z</time></trkpt><trkpt lat="37.9739425" lon="13.7227826"><ele>34.0</ele><time>2026-04-26T11:06:33.301Z</time></trkpt><trkpt lat="37.9739624" lon="13.7225964"><ele>34.333333333333336</ele><time>2026-04-26T11:06:34.301Z</time></trkpt><trkpt lat="37.9739965" lon="13.7224014"><ele>34.666666666666664</ele><time>2026-04-26T11:06:35.301Z</time></trkpt><trkpt lat="37.9740443" lon="13.7222121"><ele>35.0</ele><time>2026-04-26T11:06:36.3Z</time></trkpt><trkpt lat="37.9740986" lon="13.7220221"><ele>36.666666666666664</ele><time>2026-04-26T11:06:37.301Z</time></trkpt><trkpt lat="37.9741575" lon="13.7218305"><ele>38.333333333333336</ele><time>2026-04-26T11:06:38.301Z</time></trkpt><trkpt lat="37.974229" lon="13.7216428"><ele>40.0</ele><time>2026-04-26T11:06:39.301Z</time></trkpt><trkpt lat="37.9743003" lon="13.7214666"><ele>33.333333333333336</ele><time>2026-04-26T11:06:40.301Z</time></trkpt><trkpt lat="37.9743662" lon="13.7212859"><ele>26.666666666666668</ele><time>2026-04-26T11:06:41.301Z</time></trkpt><trkpt lat="37.9744166" lon="13.7211019"><ele>20.0</ele><time>2026-04-26T11:06:42.301Z</time></trkpt><trkpt lat="37.9744534" lon="13.720915"><ele>20.0</ele><time>2026-04-26T11:06:43.301Z</time></trkpt><trkpt lat="37.9744977" lon="13.7207335"><ele>20.0</ele><time>2026-04-26T11:06:44.301Z</time></trkpt><trkpt lat="37.9745562" lon="13.720547"><ele>20.0</ele><time>2026-04-26T11:06:45.301Z</time></trkpt><trkpt lat="37.9746363" lon="13.7203734"><ele>22.0</ele><time>2026-04-26T11:06:46.301Z</time></trkpt><trkpt lat="37.97473" lon="13.7202094"><ele>24.0</ele><time>2026-04-26T11:06:47.301Z</time></trkpt><trkpt lat="37.9748316" lon="13.7200437"><ele>26.0</ele><time>2026-04-26T11:06:48.301Z</time></trkpt><trkpt lat="37.974932" lon="13.7198774"><ele>21.666666666666664</ele><time>2026-04-26T11:06:49.301Z</time></trkpt><trkpt lat="37.9750266" lon="13.7197058"><ele>17.333333333333332</ele><time>2026-04-26T11:06:50.301Z</time></trkpt><trkpt lat="37.9751247" lon="13.7195284"><ele>13.0</ele><time>2026-04-26T11:06:51.301Z</time></trkpt><trkpt lat="37.9752091" lon="13.7193397"><ele>13.0</ele><time>2026-04-26T11:06:52.301Z</time></trkpt><trkpt lat="37.9752908" lon="13.7191448"><ele>13.0</ele><time>2026-04-26T11:06:53.3Z</time></trkpt><trkpt lat="37.9753696" lon="13.7189493"><ele>13.0</ele><time>2026-04-26T11:06:54.301Z</time></trkpt><trkpt lat="37.9754455" lon="13.718771"><ele>13.0</ele><time>2026-04-26T11:06:55.301Z</time></trkpt><trkpt lat="37.975512" lon="13.7186038"><ele>13.0</ele><time>2026-04-26T11:06:56.301Z</time></trkpt><trkpt lat="37.9755793" lon="13.7184391"><ele>13.0</ele><time>2026-04-26T11:06:57.301Z</time></trkpt><trkpt lat="37.9756426" lon="13.7182749"><ele>13.0</ele><time>2026-04-26T11:06:58.301Z</time></trkpt><trkpt lat="37.9757097" lon="13.718123"><ele>14.25</ele><time>2026-04-26T11:06:59.301Z</time></trkpt><trkpt lat="37.9757758" lon="13.7179786"><ele>15.5</ele><time>2026-04-26T11:07:00.3Z</time></trkpt><trkpt lat="37.9758353" lon="13.7178346"><ele>16.75</ele><time>2026-04-26T11:07:01.301Z</time></trkpt><trkpt lat="37.9758922" lon="13.7176957"><ele>18.0</ele><time>2026-04-26T11:07:02.301Z</time></trkpt><trkpt lat="37.9759465" lon="13.7175622"><ele>15.0</ele><time>2026-04-26T11:07:03.301Z</time></trkpt><trkpt lat="37.9759995" lon="13.7174352"><ele>12.0</ele><time>2026-04-26T11:07:04.301Z</time></trkpt><trkpt lat="37.9760534" lon="13.7173092"><ele>9.0</ele><time>2026-04-26T11:07:05.301Z</time></trkpt><trkpt lat="37.9761068" lon="13.717175"><ele>6.0</ele><time>2026-04-26T11:07:06.301Z</time></trkpt><trkpt lat="37.9761537" lon="13.7170305"><ele>6.0</ele><time>2026-04-26T11:07:07.301Z</time></trkpt><trkpt lat="37.9761899" lon="13.716884"><ele>6.0</ele><time>2026-04-26T11:07:08.301Z</time></trkpt><trkpt lat="37.976216" lon="13.716736"><ele>6.0</ele><time>2026-04-26T11:07:09.301Z</time></trkpt><trkpt lat="37.9762416" lon="13.7165791"><ele>6.0</ele><time>2026-04-26T11:07:10.301Z</time></trkpt><trkpt lat="37.9762704" lon="13.7164191"><ele>6.0</ele><time>2026-04-26T11:07:11.301Z</time></trkpt><trkpt lat="37.9762947" lon="13.7162589"><ele>6.0</ele><time>2026-04-26T11:07:12.301Z</time></trkpt><trkpt lat="37.976317" lon="13.7160961"><ele>6.0</ele><time>2026-04-26T11:07:13.301Z</time></trkpt><trkpt lat="37.976334" lon="13.7159326"><ele>6.0</ele><time>2026-04-26T11:07:14.3Z</time></trkpt><trkpt lat="37.9763479" lon="13.7157692"><ele>6.5</ele><time>2026-04-26T11:07:15.3Z</time></trkpt><trkpt lat="37.9763606" lon="13.7156031"><ele>7.0</ele><time>2026-04-26T11:07:16.3Z</time></trkpt><trkpt lat="37.9763684" lon="13.7154278"><ele>7.5</ele><time>2026-04-26T11:07:17.3Z</time></trkpt><trkpt lat="37.9763792" lon="13.7152437"><ele>8.0</ele><time>2026-04-26T11:07:18.3Z</time></trkpt><trkpt lat="37.9763894" lon="13.7150711"><ele>8.25</ele><time>2026-04-26T11:07:19.3Z</time></trkpt><trkpt lat="37.9764033" lon="13.7149152"><ele>8.5</ele><time>2026-04-26T11:07:20.3Z</time></trkpt><trkpt lat="37.9764163" lon="13.7147684"><ele>8.75</ele><time>2026-04-26T11:07:21.3Z</time></trkpt><trkpt lat="37.9764303" lon="13.7146243"><ele>9.0</ele><time>2026-04-26T11:07:22.3Z</time></trkpt><trkpt lat="37.976442" lon="13.7144804"><ele>8.8</ele><time>2026-04-26T11:07:23.3Z</time></trkpt><trkpt lat="37.9764506" lon="13.7143289"><ele>8.600000000000001</ele><time>2026-04-26T11:07:24.3Z</time></trkpt><trkpt lat="37.976455" lon="13.7141828"><ele>8.4</ele><time>2026-04-26T11:07:25.3Z</time></trkpt><trkpt lat="37.9764637" lon="13.7140556"><ele>8.200000000000001</ele><time>2026-04-26T11:07:26.3Z</time></trkpt><trkpt lat="37.9764709" lon="13.7139322"><ele>8.0</ele><time>2026-04-26T11:07:27.3Z</time></trkpt><trkpt lat="37.976478" lon="13.7138127"><ele>8.0</ele><time>2026-04-26T11:07:28.299Z</time></trkpt><trkpt lat="37.9764871" lon="13.713688"><ele>8.0</ele><time>2026-04-26T11:07:29.3Z</time></trkpt><trkpt lat="37.9764963" lon="13.7135608"><ele>8.0</ele><time>2026-04-26T11:07:30.3Z</time></trkpt><trkpt lat="37.9765085" lon="13.713435"><ele>8.0</ele><time>2026-04-26T11:07:31.3Z</time></trkpt><trkpt lat="37.9765192" lon="13.7133069"><ele>8.0</ele><time>2026-04-26T11:07:32.3Z</time></trkpt><trkpt lat="37.9765302" lon="13.7131742"><ele>8.25</ele><time>2026-04-26T11:07:33.3Z</time></trkpt><trkpt lat="37.9765426" lon="13.7130373"><ele>8.5</ele><time>2026-04-26T11:07:34.3Z</time></trkpt><trkpt lat="37.9765578" lon="13.7128981"><ele>8.75</ele><time>2026-04-26T11:07:35.3Z</time></trkpt><trkpt lat="37.9765799" lon="13.712746"><ele>9.0</ele><time>2026-04-26T11:07:36.3Z</time></trkpt><trkpt lat="37.9765986" lon="13.7126011"><ele>10.25</ele><time>2026-04-26T11:07:37.3Z</time></trkpt><trkpt lat="37.9766173" lon="13.7124548"><ele>11.5</ele><time>2026-04-26T11:07:38.3Z</time></trkpt><trkpt lat="37.9766362" lon="13.7123147"><ele>12.75</ele><time>2026-04-26T11:07:39.3Z</time></trkpt><trkpt lat="37.9766569" lon="13.7121757"><ele>14.0</ele><time>2026-04-26T11:07:40.3Z</time></trkpt><trkpt lat="37.9766793" lon="13.7120334"><ele>12.6</ele><time>2026-04-26T11:07:41.3Z</time></trkpt><trkpt lat="37.9767053" lon="13.711896"><ele>11.2</ele><time>2026-04-26T11:07:42.299Z</time></trkpt><trkpt lat="37.9767256" lon="13.7117548"><ele>9.799999999999999</ele><time>2026-04-26T11:07:43.3Z</time></trkpt><trkpt lat="37.9767508" lon="13.7116122"><ele>8.399999999999999</ele><time>2026-04-26T11:07:44.3Z</time></trkpt><trkpt lat="37.9767702" lon="13.7114817"><ele>7.0</ele><time>2026-04-26T11:07:45.3Z</time></trkpt><trkpt lat="37.976797" lon="13.7113359"><ele>7.0</ele><time>2026-04-26T11:07:46.3Z</time></trkpt><trkpt lat="37.9768225" lon="13.7111901"><ele>7.0</ele><time>2026-04-26T11:07:47.299Z</time></trkpt><trkpt lat="37.9768434" lon="13.7110484"><ele>7.0</ele><time>2026-04-26T11:07:48.3Z</time></trkpt><trkpt lat="37.9768637" lon="13.7109092"><ele>7.0</ele><time>2026-04-26T11:07:49.3Z</time></trkpt><trkpt lat="37.9768815" lon="13.710768"><ele>7.25</ele><time>2026-04-26T11:07:50.3Z</time></trkpt><trkpt lat="37.9768968" lon="13.7106271"><ele>7.5</ele><time>2026-04-26T11:07:51.3Z</time></trkpt><trkpt lat="37.9769164" lon="13.7104855"><ele>7.75</ele><time>2026-04-26T11:07:52.299Z</time></trkpt><trkpt lat="37.9769378" lon="13.7103374"><ele>8.0</ele><time>2026-04-26T11:07:53.3Z</time></trkpt><trkpt lat="37.9769665" lon="13.7101908"><ele>8.0</ele><time>2026-04-26T11:07:54.3Z</time></trkpt><trkpt lat="37.9769913" lon="13.710041"><ele>8.0</ele><time>2026-04-26T11:07:55.3Z</time></trkpt><trkpt lat="37.9770174" lon="13.7098841"><ele>8.0</ele><time>2026-04-26T11:07:56.299Z</time></trkpt><trkpt lat="37.977054" lon="13.7097284"><ele>8.0</ele><time>2026-04-26T11:07:57.3Z</time></trkpt><trkpt lat="37.9770849" lon="13.7095705"><ele>8.0</ele><time>2026-04-26T11:07:58.3Z</time></trkpt><trkpt lat="37.9771194" lon="13.7094136"><ele>8.0</ele><time>2026-04-26T11:07:59.3Z</time></trkpt><trkpt lat="37.977154" lon="13.7092499"><ele>8.0</ele><time>2026-04-26T11:08:00.3Z</time></trkpt><trkpt lat="37.9771902" lon="13.7090902"><ele>8.0</ele><time>2026-04-26T11:08:01.3Z</time></trkpt><trkpt lat="37.9772286" lon="13.7089346"><ele>8.5</ele><time>2026-04-26T11:08:02.3Z</time></trkpt><trkpt lat="37.9772665" lon="13.708781"><ele>9.0</ele><time>2026-04-26T11:08:03.3Z</time></trkpt><trkpt lat="37.9773057" lon="13.7086255"><ele>9.5</ele><time>2026-04-26T11:08:04.299Z</time></trkpt><trkpt lat="37.977342" lon="13.7084743"><ele>10.0</ele><time>2026-04-26T11:08:05.3Z</time></trkpt><trkpt lat="37.9773736" lon="13.7083221"><ele>11.25</ele><time>2026-04-26T11:08:06.3Z</time></trkpt><trkpt lat="37.9774039" lon="13.7081783"><ele>12.5</ele><time>2026-04-26T11:08:07.3Z</time></trkpt><trkpt lat="37.9774371" lon="13.7080373"><ele>13.75</ele><time>2026-04-26T11:08:08.3Z</time></trkpt><trkpt lat="37.9774702" lon="13.70789"><ele>15.0</ele><time>2026-04-26T11:08:09.3Z</time></trkpt><trkpt lat="37.9775029" lon="13.7077385"><ele>13.25</ele><time>2026-04-26T11:08:10.3Z</time></trkpt><trkpt lat="37.9775421" lon="13.7075871"><ele>11.5</ele><time>2026-04-26T11:08:11.3Z</time></trkpt><trkpt lat="37.9775865" lon="13.7074374"><ele>9.75</ele><time>2026-04-26T11:08:12.3Z</time></trkpt><trkpt lat="37.9776297" lon="13.7072914"><ele>8.0</ele><time>2026-04-26T11:08:13.3Z</time></trkpt><trkpt lat="37.9776772" lon="13.7071521"><ele>8.0</ele><time>2026-04-26T11:08:14.3Z</time></trkpt><trkpt lat="37.9777278" lon="13.7070136"><ele>8.0</ele><time>2026-04-26T11:08:15.3Z</time></trkpt><trkpt lat="37.9777765" lon="13.706874"><ele>8.0</ele><time>2026-04-26T11:08:16.299Z</time></trkpt><trkpt lat="37.9778341" lon="13.7067403"><ele>8.0</ele><time>2026-04-26T11:08:17.3Z</time></trkpt><trkpt lat="37.9778953" lon="13.7066119"><ele>8.75</ele><time>2026-04-26T11:08:18.3Z</time></trkpt><trkpt lat="37.9779562" lon="13.7064837"><ele>9.5</ele><time>2026-04-26T11:08:19.299Z</time></trkpt><trkpt lat="37.9780149" lon="13.706357"><ele>10.25</ele><time>2026-04-26T11:08:20.3Z</time></trkpt><trkpt lat="37.9780778" lon="13.7062473"><ele>11.0</ele><time>2026-04-26T11:08:21.3Z</time></trkpt><trkpt lat="37.9781326" lon="13.7061223"><ele>10.25</ele><time>2026-04-26T11:08:22.3Z</time></trkpt><trkpt lat="37.9781922" lon="13.7060036"><ele>9.5</ele><time>2026-04-26T11:08:23.3Z</time></trkpt><trkpt lat="37.9782539" lon="13.705879"><ele>8.75</ele><time>2026-04-26T11:08:24.3Z</time></trkpt><trkpt lat="37.9783133" lon="13.7057551"><ele>8.0</ele><time>2026-04-26T11:08:25.3Z</time></trkpt><trkpt lat="37.978369" lon="13.7056274"><ele>8.0</ele><time>2026-04-26T11:08:26.3Z</time></trkpt><trkpt lat="37.9784257" lon="13.7055046"><ele>8.0</ele><time>2026-04-26T11:08:27.3Z</time></trkpt><trkpt lat="37.9784821" lon="13.7053811"><ele>8.0</ele><time>2026-04-26T11:08:28.3Z</time></trkpt><trkpt lat="37.9785358" lon="13.7052572"><ele>8.0</ele><time>2026-04-26T11:08:29.3Z</time></trkpt><trkpt lat="37.9785892" lon="13.7051351"><ele>8.0</ele><time>2026-04-26T11:08:30.3Z</time></trkpt><trkpt lat="37.9786462" lon="13.7050166"><ele>8.4</ele><time>2026-04-26T11:08:31.299Z</time></trkpt><trkpt lat="37.9787023" lon="13.7048973"><ele>8.8</ele><time>2026-04-26T11:08:32.3Z</time></trkpt><trkpt lat="37.9787582" lon="13.704781"><ele>9.2</ele><time>2026-04-26T11:08:33.3Z</time></trkpt><trkpt lat="37.9788107" lon="13.70467"><ele>9.6</ele><time>2026-04-26T11:08:34.299Z</time></trkpt><trkpt lat="37.9788599" lon="13.7045653"><ele>10.0</ele><time>2026-04-26T11:08:35.3Z</time></trkpt><trkpt lat="37.9789023" lon="13.7044691"><ele>9.6</ele><time>2026-04-26T11:08:36.3Z</time></trkpt><trkpt lat="37.9789516" lon="13.7043671"><ele>9.2</ele><time>2026-04-26T11:08:37.3Z</time></trkpt><trkpt lat="37.9790085" lon="13.704262"><ele>8.8</ele><time>2026-04-26T11:08:38.3Z</time></trkpt><trkpt lat="37.9790674" lon="13.7041467"><ele>8.4</ele><time>2026-04-26T11:08:39.3Z</time></trkpt><trkpt lat="37.9791317" lon="13.704024"><ele>8.0</ele><time>2026-04-26T11:08:40.3Z</time></trkpt><trkpt lat="37.9791957" lon="13.7038995"><ele>8.0</ele><time>2026-04-26T11:08:41.3Z</time></trkpt><trkpt lat="37.9792614" lon="13.7037793"><ele>8.0</ele><time>2026-04-26T11:08:42.3Z</time></trkpt><trkpt lat="37.9793275" lon="13.7036599"><ele>8.0</ele><time>2026-04-26T11:08:43.3Z</time></trkpt><trkpt lat="37.9793923" lon="13.7035411"><ele>8.0</ele><time>2026-04-26T11:08:44.3Z</time></trkpt><trkpt lat="37.9794569" lon="13.7034292"><ele>8.833333333333332</ele><time>2026-04-26T11:08:45.3Z</time></trkpt><trkpt lat="37.9795193" lon="13.7033313"><ele>9.666666666666666</ele><time>2026-04-26T11:08:46.3Z</time></trkpt><trkpt lat="37.9795791" lon="13.7032478"><ele>10.5</ele><time>2026-04-26T11:08:47.3Z</time></trkpt><trkpt lat="37.9796347" lon="13.7031709"><ele>11.333333333333332</ele><time>2026-04-26T11:08:48.3Z</time></trkpt><trkpt lat="37.9796898" lon="13.7030994"><ele>12.166666666666666</ele><time>2026-04-26T11:08:49.3Z</time></trkpt><trkpt lat="37.9797528" lon="13.7030313"><ele>13.0</ele><time>2026-04-26T11:08:50.3Z</time></trkpt><trkpt lat="37.9798236" lon="13.7029505"><ele>13.0</ele><time>2026-04-26T11:08:51.299Z</time></trkpt><trkpt lat="37.9798968" lon="13.7028775"><ele>13.0</ele><time>2026-04-26T11:08:52.3Z</time></trkpt><trkpt lat="37.9799727" lon="13.7028044"><ele>13.0</ele><time>2026-04-26T11:08:53.3Z</time></trkpt><trkpt lat="37.9800513" lon="13.702738"><ele>13.0</ele><time>2026-04-26T11:08:54.3Z</time></trkpt><trkpt lat="37.9801312" lon="13.7026717"><ele>13.0</ele><time>2026-04-26T11:08:55.3Z</time></trkpt><trkpt lat="37.9802156" lon="13.7026058"><ele>12.8</ele><time>2026-04-26T11:08:56.3Z</time></trkpt><trkpt lat="37.9802928" lon="13.7025366"><ele>12.600000000000001</ele><time>2026-04-26T11:08:57.3Z</time></trkpt><trkpt lat="37.9803687" lon="13.7024721"><ele>12.399999999999999</ele><time>2026-04-26T11:08:58.3Z</time></trkpt><trkpt lat="37.9804443" lon="13.7024072"><ele>12.2</ele><time>2026-04-26T11:08:59.3Z</time></trkpt><trkpt lat="37.9805167" lon="13.7023445"><ele>12.0</ele><time>2026-04-26T11:09:00.3Z</time></trkpt><trkpt lat="37.9805914" lon="13.7022844"><ele>12.0</ele><time>2026-04-26T11:09:01.299Z</time></trkpt><trkpt lat="37.9806626" lon="13.7022245"><ele>12.0</ele><time>2026-04-26T11:09:02.3Z</time></trkpt><trkpt lat="37.9807331" lon="13.7021658"><ele>12.0</ele><time>2026-04-26T11:09:03.3Z</time></trkpt><trkpt lat="37.9807976" lon="13.7021055"><ele>12.0</ele><time>2026-04-26T11:09:04.3Z</time></trkpt><trkpt lat="37.9808542" lon="13.7020528"><ele>12.0</ele><time>2026-04-26T11:09:05.3Z</time></trkpt><trkpt lat="37.9809496" lon="13.7019622"><ele>12.0</ele><time>2026-04-26T11:09:07.3Z</time></trkpt><trkpt lat="37.9810299" lon="13.7018976"><ele>12.0</ele><time>2026-04-26T11:09:09.3Z</time></trkpt><trkpt lat="37.9810804" lon="13.7018467"><ele>12.0</ele><time>2026-04-26T11:09:11.3Z</time></trkpt><trkpt lat="37.981106" lon="13.7017329"><ele>12.0</ele><time>2026-04-26T11:09:15.3Z</time></trkpt><trkpt lat="37.9810389" lon="13.701626"><ele>12.0</ele><time>2026-04-26T11:09:17.3Z</time></trkpt><trkpt lat="37.9810071" lon="13.701553"><ele>12.0</ele><time>2026-04-26T11:09:18.3Z</time></trkpt><trkpt lat="37.9809828" lon="13.7014637"><ele>12.0</ele><time>2026-04-26T11:09:19.3Z</time></trkpt><trkpt lat="37.9809652" lon="13.7013567"><ele>12.0</ele><time>2026-04-26T11:09:20.3Z</time></trkpt><trkpt lat="37.9809531" lon="13.7012491"><ele>12.0</ele><time>2026-04-26T11:09:21.3Z</time></trkpt><trkpt lat="37.9809465" lon="13.7011278"><ele>12.0</ele><time>2026-04-26T11:09:22.3Z</time></trkpt><trkpt lat="37.9809436" lon="13.7009985"><ele>12.0</ele><time>2026-04-26T11:09:23.299Z</time></trkpt><trkpt lat="37.9809455" lon="13.7008666"><ele>12.0</ele><time>2026-04-26T11:09:24.3Z</time></trkpt><trkpt lat="37.9809527" lon="13.7007343"><ele>13.0</ele><time>2026-04-26T11:09:25.3Z</time></trkpt><trkpt lat="37.9809595" lon="13.7006045"><ele>14.0</ele><time>2026-04-26T11:09:26.3Z</time></trkpt><trkpt lat="37.9809569" lon="13.7004711"><ele>15.0</ele><time>2026-04-26T11:09:27.3Z</time></trkpt><trkpt lat="37.9809436" lon="13.7003375"><ele>16.0</ele><time>2026-04-26T11:09:28.3Z</time></trkpt><trkpt lat="37.980916" lon="13.7002066"><ele>17.0</ele><time>2026-04-26T11:09:29.3Z</time></trkpt><trkpt lat="37.9808726" lon="13.7000887"><ele>17.333333333333336</ele><time>2026-04-26T11:09:30.3Z</time></trkpt><trkpt lat="37.9808189" lon="13.6999811"><ele>17.666666666666668</ele><time>2026-04-26T11:09:31.3Z</time></trkpt><trkpt lat="37.9807591" lon="13.6998928"><ele>18.0</ele><time>2026-04-26T11:09:32.299Z</time></trkpt><trkpt lat="37.980708" lon="13.6998048"><ele>18.333333333333332</ele><time>2026-04-26T11:09:33.3Z</time></trkpt><trkpt lat="37.9806637" lon="13.6997192"><ele>18.666666666666664</ele><time>2026-04-26T11:09:34.3Z</time></trkpt><trkpt lat="37.9806386" lon="13.6996288"><ele>19.0</ele><time>2026-04-26T11:09:35.3Z</time></trkpt><trkpt lat="37.9806341" lon="13.6995379"><ele>19.0</ele><time>2026-04-26T11:09:36.299Z</time></trkpt><trkpt lat="37.9806537" lon="13.6994488"><ele>19.0</ele><time>2026-04-26T11:09:37.3Z</time></trkpt><trkpt lat="37.9806934" lon="13.6993667"><ele>19.0</ele><time>2026-04-26T11:09:38.3Z</time></trkpt><trkpt lat="37.9807384" lon="13.6992913"><ele>19.0</ele><time>2026-04-26T11:09:39.3Z</time></trkpt><trkpt lat="37.9807815" lon="13.6992282"><ele>19.0</ele><time>2026-04-26T11:09:40.3Z</time></trkpt><trkpt lat="37.9808551" lon="13.6991333"><ele>19.0</ele><time>2026-04-26T11:09:42.3Z</time></trkpt><trkpt lat="37.9809254" lon="13.6990433"><ele>19.833333333333332</ele><time>2026-04-26T11:09:44.299Z</time></trkpt><trkpt lat="37.9809934" lon="13.6989734"><ele>20.666666666666664</ele><time>2026-04-26T11:09:46.3Z</time></trkpt><trkpt lat="37.9810158" lon="13.6988873"><ele>21.5</ele><time>2026-04-26T11:09:48.3Z</time></trkpt><trkpt lat="37.9809782" lon="13.6988083"><ele>22.333333333333332</ele><time>2026-04-26T11:09:50.3Z</time></trkpt><trkpt lat="37.9808592" lon="13.6987378"><ele>23.166666666666668</ele><time>2026-04-26T11:09:52.3Z</time></trkpt><trkpt lat="37.9807889" lon="13.6987008"><ele>24.0</ele><time>2026-04-26T11:09:53.3Z</time></trkpt><trkpt lat="37.9807124" lon="13.6986604"><ele>24.0</ele><time>2026-04-26T11:09:54.3Z</time></trkpt><trkpt lat="37.9806325" lon="13.6986205"><ele>24.0</ele><time>2026-04-26T11:09:55.3Z</time></trkpt><trkpt lat="37.9805455" lon="13.6985791"><ele>24.0</ele><time>2026-04-26T11:09:56.3Z</time></trkpt><trkpt lat="37.9804602" lon="13.6985469"><ele>24.0</ele><time>2026-04-26T11:09:57.3Z</time></trkpt><trkpt lat="37.9803834" lon="13.6985137"><ele>24.0</ele><time>2026-04-26T11:09:58.3Z</time></trkpt><trkpt lat="37.9803018" lon="13.698473"><ele>24.0</ele><time>2026-04-26T11:09:59.299Z</time></trkpt><trkpt lat="37.980214" lon="13.6984304"><ele>24.0</ele><time>2026-04-26T11:10:00.3Z</time></trkpt><trkpt lat="37.9801363" lon="13.6983847"><ele>24.0</ele><time>2026-04-26T11:10:01.3Z</time></trkpt><trkpt lat="37.9800636" lon="13.6983432"><ele>24.0</ele><time>2026-04-26T11:10:02.3Z</time></trkpt><trkpt lat="37.9799996" lon="13.6982997"><ele>24.0</ele><time>2026-04-26T11:10:03.3Z</time></trkpt><trkpt lat="37.9799417" lon="13.6982484"><ele>24.0</ele><time>2026-04-26T11:10:04.3Z</time></trkpt><trkpt lat="37.9798644" lon="13.6981408"><ele>24.0</ele><time>2026-04-26T11:10:06.3Z</time></trkpt><trkpt lat="37.9798498" lon="13.6980103"><ele>24.0</ele><time>2026-04-26T11:10:08.3Z</time></trkpt><trkpt lat="37.9798587" lon="13.6979274"><ele>24.0</ele><time>2026-04-26T11:10:09.3Z</time></trkpt><trkpt lat="37.9798778" lon="13.6978346"><ele>24.0</ele><time>2026-04-26T11:10:10.3Z</time></trkpt><trkpt lat="37.9799047" lon="13.6977273"><ele>24.0</ele><time>2026-04-26T11:10:11.3Z</time></trkpt><trkpt lat="37.979937" lon="13.6976167"><ele>24.0</ele><time>2026-04-26T11:10:12.3Z</time></trkpt><trkpt lat="37.979963" lon="13.6975077"><ele>24.0</ele><time>2026-04-26T11:10:13.3Z</time></trkpt><trkpt lat="37.9799782" lon="13.6973819"><ele>25.0</ele><time>2026-04-26T11:10:14.3Z</time></trkpt><trkpt lat="37.9799696" lon="13.6972534"><ele>26.0</ele><time>2026-04-26T11:10:15.3Z</time></trkpt><trkpt lat="37.9799421" lon="13.697144"><ele>27.0</ele><time>2026-04-26T11:10:16.3Z</time></trkpt><trkpt lat="37.979917" lon="13.697038"><ele>28.0</ele><time>2026-04-26T11:10:17.299Z</time></trkpt><trkpt lat="37.9798906" lon="13.6969345"><ele>29.0</ele><time>2026-04-26T11:10:18.3Z</time></trkpt><trkpt lat="37.9798915" lon="13.696833"><ele>30.0</ele><time>2026-04-26T11:10:19.3Z</time></trkpt><trkpt lat="37.9799132" lon="13.6967365"><ele>31.166666666666668</ele><time>2026-04-26T11:10:20.3Z</time></trkpt><trkpt lat="37.9799475" lon="13.6966614"><ele>32.333333333333336</ele><time>2026-04-26T11:10:21.299Z</time></trkpt><trkpt lat="37.980004" lon="13.6966013"><ele>33.5</ele><time>2026-04-26T11:10:22.3Z</time></trkpt><trkpt lat="37.9800757" lon="13.696576"><ele>34.66666666666667</ele><time>2026-04-26T11:10:23.299Z</time></trkpt><trkpt lat="37.9801749" lon="13.6966031"><ele>35.833333333333336</ele><time>2026-04-26T11:10:24.3Z</time></trkpt><trkpt lat="37.9802622" lon="13.696653"><ele>37.0</ele><time>2026-04-26T11:10:25.3Z</time></trkpt><trkpt lat="37.9803621" lon="13.6967108"><ele>38.400000000000006</ele><time>2026-04-26T11:10:26.3Z</time></trkpt><trkpt lat="37.9804609" lon="13.6967681"><ele>39.800000000000004</ele><time>2026-04-26T11:10:27.3Z</time></trkpt><trkpt lat="37.9805577" lon="13.6968243"><ele>41.2</ele><time>2026-04-26T11:10:28.3Z</time></trkpt><trkpt lat="37.9806516" lon="13.696886"><ele>42.6</ele><time>2026-04-26T11:10:29.3Z</time></trkpt><trkpt lat="37.9807452" lon="13.6969519"><ele>44.0</ele><time>2026-04-26T11:10:30.3Z</time></trkpt><trkpt lat="37.9808387" lon="13.6969985"><ele>45.0</ele><time>2026-04-26T11:10:31.3Z</time></trkpt><trkpt lat="37.9809352" lon="13.6970485"><ele>46.0</ele><time>2026-04-26T11:10:32.3Z</time></trkpt><trkpt lat="37.9810341" lon="13.6970745"><ele>47.0</ele><time>2026-04-26T11:10:33.3Z</time></trkpt><trkpt lat="37.981134" lon="13.6970785"><ele>48.0</ele><time>2026-04-26T11:10:34.3Z</time></trkpt><trkpt lat="37.9812274" lon="13.6970509"><ele>49.0</ele><time>2026-04-26T11:10:35.3Z</time></trkpt><trkpt lat="37.9813113" lon="13.6969939"><ele>50.800000000000004</ele><time>2026-04-26T11:10:36.3Z</time></trkpt><trkpt lat="37.9813801" lon="13.6969169"><ele>52.6</ele><time>2026-04-26T11:10:37.3Z</time></trkpt><trkpt lat="37.9814345" lon="13.6968173"><ele>54.4</ele><time>2026-04-26T11:10:38.3Z</time></trkpt><trkpt lat="37.9814673" lon="13.6966962"><ele>56.2</ele><time>2026-04-26T11:10:39.3Z</time></trkpt><trkpt lat="37.9814748" lon="13.6965764"><ele>58.0</ele><time>2026-04-26T11:10:40.3Z</time></trkpt><trkpt lat="37.9814565" lon="13.69647"><ele>57.99999999999999</ele><time>2026-04-26T11:10:41.3Z</time></trkpt><trkpt lat="37.9814119" lon="13.6963744"><ele>58.0</ele><time>2026-04-26T11:10:42.3Z</time></trkpt><trkpt lat="37.9813509" lon="13.696297"><ele>58.0</ele><time>2026-04-26T11:10:43.3Z</time></trkpt><trkpt lat="37.9812758" lon="13.6962276"><ele>58.0</ele><time>2026-04-26T11:10:44.299Z</time></trkpt><trkpt lat="37.9812023" lon="13.6961605"><ele>57.99999999999999</ele><time>2026-04-26T11:10:45.3Z</time></trkpt><trkpt lat="37.9811461" lon="13.6960938"><ele>58.0</ele><time>2026-04-26T11:10:46.3Z</time></trkpt><trkpt lat="37.9811211" lon="13.6960103"><ele>59.166666666666664</ele><time>2026-04-26T11:10:47.3Z</time></trkpt><trkpt lat="37.9811414" lon="13.6958792"><ele>60.33333333333333</ele><time>2026-04-26T11:10:49.299Z</time></trkpt><trkpt lat="37.9811752" lon="13.6958092"><ele>61.5</ele><time>2026-04-26T11:10:50.3Z</time></trkpt><trkpt lat="37.981223" lon="13.695734"><ele>62.66666666666667</ele><time>2026-04-26T11:10:51.3Z</time></trkpt><trkpt lat="37.9812765" lon="13.6956682"><ele>63.833333333333336</ele><time>2026-04-26T11:10:52.3Z</time></trkpt><trkpt lat="37.9813415" lon="13.6956308"><ele>65.0</ele><time>2026-04-26T11:10:53.3Z</time></trkpt><trkpt lat="37.9814074" lon="13.6956303"><ele>65.0</ele><time>2026-04-26T11:10:54.3Z</time></trkpt><trkpt lat="37.9814776" lon="13.6956631"><ele>65.0</ele><time>2026-04-26T11:10:55.3Z</time></trkpt><trkpt lat="37.9815479" lon="13.6957238"><ele>65.0</ele><time>2026-04-26T11:10:56.3Z</time></trkpt><trkpt lat="37.9816128" lon="13.6957932"><ele>65.0</ele><time>2026-04-26T11:10:57.3Z</time></trkpt><trkpt lat="37.9816841" lon="13.6958564"><ele>65.0</ele><time>2026-04-26T11:10:58.3Z</time></trkpt><trkpt lat="37.9817621" lon="13.6958875"><ele>65.0</ele><time>2026-04-26T11:10:59.299Z</time></trkpt><trkpt lat="37.9818377" lon="13.695879"><ele>66.5</ele><time>2026-04-26T11:11:00.3Z</time></trkpt><trkpt lat="37.9819262" lon="13.6957881"><ele>68.0</ele><time>2026-04-26T11:11:02.3Z</time></trkpt><trkpt lat="37.9819358" lon="13.6957067"><ele>69.5</ele><time>2026-04-26T11:11:03.3Z</time></trkpt><trkpt lat="37.9819258" lon="13.6956154"><ele>71.0</ele><time>2026-04-26T11:11:04.3Z</time></trkpt><trkpt lat="37.9818961" lon="13.6955182"><ele>72.5</ele><time>2026-04-26T11:11:05.3Z</time></trkpt><trkpt lat="37.9818532" lon="13.695425"><ele>74.0</ele><time>2026-04-26T11:11:06.3Z</time></trkpt><trkpt lat="37.9818075" lon="13.6953386"><ele>74.0</ele><time>2026-04-26T11:11:07.299Z</time></trkpt><trkpt lat="37.9817502" lon="13.6952556"><ele>74.0</ele><time>2026-04-26T11:11:08.3Z</time></trkpt><trkpt lat="37.9816776" lon="13.6951797"><ele>74.0</ele><time>2026-04-26T11:11:09.3Z</time></trkpt><trkpt lat="37.9816006" lon="13.695115"><ele>74.0</ele><time>2026-04-26T11:11:10.3Z</time></trkpt><trkpt lat="37.9815182" lon="13.6950323"><ele>74.0</ele><time>2026-04-26T11:11:11.3Z</time></trkpt><trkpt lat="37.9814244" lon="13.6949442"><ele>75.0</ele><time>2026-04-26T11:11:12.3Z</time></trkpt><trkpt lat="37.9813275" lon="13.694859"><ele>76.0</ele><time>2026-04-26T11:11:13.3Z</time></trkpt><trkpt lat="37.9812333" lon="13.6947598"><ele>77.0</ele><time>2026-04-26T11:11:14.299Z</time></trkpt><trkpt lat="37.981142" lon="13.6946615"><ele>78.0</ele><time>2026-04-26T11:11:15.3Z</time></trkpt><trkpt lat="37.9810476" lon="13.6945702"><ele>78.0</ele><time>2026-04-26T11:11:16.3Z</time></trkpt><trkpt lat="37.9809585" lon="13.6944679"><ele>78.0</ele><time>2026-04-26T11:11:17.3Z</time></trkpt><trkpt lat="37.9808773" lon="13.6943555"><ele>78.0</ele><time>2026-04-26T11:11:18.3Z</time></trkpt><trkpt lat="37.9807959" lon="13.6942393"><ele>78.0</ele><time>2026-04-26T11:11:19.3Z</time></trkpt><trkpt lat="37.9807158" lon="13.6941085"><ele>79.5</ele><time>2026-04-26T11:11:20.3Z</time></trkpt><trkpt lat="37.9806352" lon="13.6939817"><ele>81.0</ele><time>2026-04-26T11:11:21.3Z</time></trkpt><trkpt lat="37.9805574" lon="13.6938416"><ele>82.5</ele><time>2026-04-26T11:11:22.3Z</time></trkpt><trkpt lat="37.980478" lon="13.6937061"><ele>84.0</ele><time>2026-04-26T11:11:23.3Z</time></trkpt><trkpt lat="37.980399" lon="13.6935752"><ele>85.25</ele><time>2026-04-26T11:11:24.299Z</time></trkpt><trkpt lat="37.9803203" lon="13.6934567"><ele>86.5</ele><time>2026-04-26T11:11:25.3Z</time></trkpt><trkpt lat="37.9802429" lon="13.6933318"><ele>87.75</ele><time>2026-04-26T11:11:26.3Z</time></trkpt><trkpt lat="37.980169" lon="13.6932061"><ele>89.0</ele><time>2026-04-26T11:11:27.3Z</time></trkpt><trkpt lat="37.9800901" lon="13.6930784"><ele>88.5</ele><time>2026-04-26T11:11:28.3Z</time></trkpt><trkpt lat="37.9800105" lon="13.6929509"><ele>88.0</ele><time>2026-04-26T11:11:29.3Z</time></trkpt><trkpt lat="37.9799339" lon="13.6928227"><ele>87.5</ele><time>2026-04-26T11:11:30.3Z</time></trkpt><trkpt lat="37.9798625" lon="13.6927004"><ele>87.0</ele><time>2026-04-26T11:11:31.3Z</time></trkpt><trkpt lat="37.9798013" lon="13.6925707"><ele>87.0</ele><time>2026-04-26T11:11:32.3Z</time></trkpt><trkpt lat="37.97976" lon="13.6924394"><ele>87.0</ele><time>2026-04-26T11:11:33.3Z</time></trkpt><trkpt lat="37.9797335" lon="13.6923008"><ele>87.0</ele><time>2026-04-26T11:11:34.3Z</time></trkpt><trkpt lat="37.9797248" lon="13.6921637"><ele>87.0</ele><time>2026-04-26T11:11:35.299Z</time></trkpt><trkpt lat="37.9797338" lon="13.6920389"><ele>87.0</ele><time>2026-04-26T11:11:36.3Z</time></trkpt><trkpt lat="37.9797449" lon="13.6919234"><ele>87.33333333333333</ele><time>2026-04-26T11:11:37.299Z</time></trkpt><trkpt lat="37.9797566" lon="13.6918301"><ele>87.66666666666667</ele><time>2026-04-26T11:11:38.3Z</time></trkpt><trkpt lat="37.9797701" lon="13.6917245"><ele>88.0</ele><time>2026-04-26T11:11:40.299Z</time></trkpt><trkpt lat="37.9797343" lon="13.6916152"><ele>88.33333333333334</ele><time>2026-04-26T11:11:43.3Z</time></trkpt><trkpt lat="37.979688" lon="13.6915555"><ele>88.66666666666667</ele><time>2026-04-26T11:11:44.3Z</time></trkpt><trkpt lat="37.9796191" lon="13.6914836"><ele>89.0</ele><time>2026-04-26T11:11:45.3Z</time></trkpt><trkpt lat="37.9795556" lon="13.691414"><ele>89.0</ele><time>2026-04-26T11:11:46.3Z</time></trkpt><trkpt lat="37.9794876" lon="13.6913404"><ele>89.0</ele><time>2026-04-26T11:11:47.3Z</time></trkpt><trkpt lat="37.9794132" lon="13.6912522"><ele>89.0</ele><time>2026-04-26T11:11:48.3Z</time></trkpt><trkpt lat="37.9793333" lon="13.6911669"><ele>89.0</ele><time>2026-04-26T11:11:49.3Z</time></trkpt><trkpt lat="37.97925" lon="13.6910799"><ele>89.0</ele><time>2026-04-26T11:11:50.3Z</time></trkpt><trkpt lat="37.9791597" lon="13.6909887"><ele>89.0</ele><time>2026-04-26T11:11:51.3Z</time></trkpt><trkpt lat="37.9790693" lon="13.6908999"><ele>89.0</ele><time>2026-04-26T11:11:52.3Z</time></trkpt><trkpt lat="37.9789804" lon="13.6908047"><ele>89.0</ele><time>2026-04-26T11:11:53.3Z</time></trkpt><trkpt lat="37.9788981" lon="13.69071"><ele>89.0</ele><time>2026-04-26T11:11:54.3Z</time></trkpt><trkpt lat="37.9788142" lon="13.6906204"><ele>89.0</ele><time>2026-04-26T11:11:55.3Z</time></trkpt><trkpt lat="37.9787308" lon="13.6905309"><ele>89.0</ele><time>2026-04-26T11:11:56.3Z</time></trkpt><trkpt lat="37.9786407" lon="13.6904401"><ele>89.0</ele><time>2026-04-26T11:11:57.3Z</time></trkpt><trkpt lat="37.9785524" lon="13.6903409"><ele>89.0</ele><time>2026-04-26T11:11:58.3Z</time></trkpt><trkpt lat="37.9784635" lon="13.6902396"><ele>89.5</ele><time>2026-04-26T11:11:59.3Z</time></trkpt><trkpt lat="37.9783708" lon="13.6901386"><ele>90.0</ele><time>2026-04-26T11:12:00.3Z</time></trkpt><trkpt lat="37.978282" lon="13.6900373"><ele>90.5</ele><time>2026-04-26T11:12:01.3Z</time></trkpt><trkpt lat="37.9781982" lon="13.689962"><ele>91.0</ele><time>2026-04-26T11:12:02.3Z</time></trkpt><trkpt lat="37.9781095" lon="13.6898567"><ele>92.5</ele><time>2026-04-26T11:12:03.3Z</time></trkpt><trkpt lat="37.9780232" lon="13.6897438"><ele>94.0</ele><time>2026-04-26T11:12:04.3Z</time></trkpt><trkpt lat="37.9779411" lon="13.6896382"><ele>95.5</ele><time>2026-04-26T11:12:05.3Z</time></trkpt><trkpt lat="37.9778548" lon="13.6895349"><ele>97.0</ele><time>2026-04-26T11:12:06.3Z</time></trkpt><trkpt lat="37.9777657" lon="13.6894294"><ele>97.0</ele><time>2026-04-26T11:12:07.3Z</time></trkpt><trkpt lat="37.977681" lon="13.6893271"><ele>97.0</ele><time>2026-04-26T11:12:08.3Z</time></trkpt><trkpt lat="37.9775998" lon="13.6892362"><ele>97.0</ele><time>2026-04-26T11:12:09.3Z</time></trkpt><trkpt lat="37.9775059" lon="13.689142"><ele>97.0</ele><time>2026-04-26T11:12:10.299Z</time></trkpt><trkpt lat="37.9774091" lon="13.6890538"><ele>97.25</ele><time>2026-04-26T11:12:11.3Z</time></trkpt><trkpt lat="37.9773167" lon="13.6889785"><ele>97.5</ele><time>2026-04-26T11:12:12.299Z</time></trkpt><trkpt lat="37.977234" lon="13.6888861"><ele>97.75</ele><time>2026-04-26T11:12:13.3Z</time></trkpt><trkpt lat="37.9771453" lon="13.6887835"><ele>98.0</ele><time>2026-04-26T11:12:14.3Z</time></trkpt><trkpt lat="37.9770547" lon="13.6886809"><ele>98.5</ele><time>2026-04-26T11:12:15.3Z</time></trkpt><trkpt lat="37.9769595" lon="13.6885888"><ele>99.0</ele><time>2026-04-26T11:12:16.3Z</time></trkpt><trkpt lat="37.9768732" lon="13.6884967"><ele>99.5</ele><time>2026-04-26T11:12:17.3Z</time></trkpt><trkpt lat="37.9767933" lon="13.6884039"><ele>100.0</ele><time>2026-04-26T11:12:18.3Z</time></trkpt><trkpt lat="37.976706" lon="13.6883113"><ele>100.6</ele><time>2026-04-26T11:12:19.3Z</time></trkpt><trkpt lat="37.9766246" lon="13.688223"><ele>101.2</ele><time>2026-04-26T11:12:20.3Z</time></trkpt><trkpt lat="37.976551" lon="13.6881385"><ele>101.80000000000001</ele><time>2026-04-26T11:12:21.3Z</time></trkpt><trkpt lat="37.9764823" lon="13.6880582"><ele>102.4</ele><time>2026-04-26T11:12:22.3Z</time></trkpt><trkpt lat="37.976413" lon="13.6879774"><ele>103.0</ele><time>2026-04-26T11:12:23.3Z</time></trkpt><trkpt lat="37.9763372" lon="13.6878932"><ele>103.0</ele><time>2026-04-26T11:12:24.3Z</time></trkpt><trkpt lat="37.9762606" lon="13.6878053"><ele>103.0</ele><time>2026-04-26T11:12:25.3Z</time></trkpt><trkpt lat="37.9761768" lon="13.6877127"><ele>103.0</ele><time>2026-04-26T11:12:26.3Z</time></trkpt><trkpt lat="37.9760979" lon="13.6876198"><ele>103.0</ele><time>2026-04-26T11:12:27.3Z</time></trkpt><trkpt lat="37.9760195" lon="13.6875185"><ele>103.0</ele><time>2026-04-26T11:12:28.3Z</time></trkpt><trkpt lat="37.9759515" lon="13.6874052"><ele>103.25</ele><time>2026-04-26T11:12:29.3Z</time></trkpt><trkpt lat="37.9758824" lon="13.6872787"><ele>103.5</ele><time>2026-04-26T11:12:30.299Z</time></trkpt><trkpt lat="37.9758216" lon="13.6871441"><ele>103.75</ele><time>2026-04-26T11:12:31.3Z</time></trkpt><trkpt lat="37.9757644" lon="13.6870109"><ele>104.0</ele><time>2026-04-26T11:12:32.3Z</time></trkpt><trkpt lat="37.9757177" lon="13.6868803"><ele>103.99999999999999</ele><time>2026-04-26T11:12:33.3Z</time></trkpt><trkpt lat="37.9756795" lon="13.6867582"><ele>104.0</ele><time>2026-04-26T11:12:34.3Z</time></trkpt><trkpt lat="37.9756457" lon="13.6866482"><ele>104.0</ele><time>2026-04-26T11:12:35.3Z</time></trkpt><trkpt lat="37.9756141" lon="13.6865473"><ele>104.0</ele><time>2026-04-26T11:12:36.3Z</time></trkpt><trkpt lat="37.9755758" lon="13.6864574"><ele>103.99999999999999</ele><time>2026-04-26T11:12:37.3Z</time></trkpt><trkpt lat="37.9755279" lon="13.6863872"><ele>104.0</ele><time>2026-04-26T11:12:38.3Z</time></trkpt><trkpt lat="37.9754609" lon="13.6863307"><ele>104.0</ele><time>2026-04-26T11:12:39.3Z</time></trkpt><trkpt lat="37.9753814" lon="13.6862941"><ele>104.0</ele><time>2026-04-26T11:12:40.3Z</time></trkpt><trkpt lat="37.9752903" lon="13.6862855"><ele>104.0</ele><time>2026-04-26T11:12:41.3Z</time></trkpt><trkpt lat="37.9751901" lon="13.686295"><ele>104.0</ele><time>2026-04-26T11:12:42.3Z</time></trkpt><trkpt lat="37.9750842" lon="13.6862986"><ele>104.0</ele><time>2026-04-26T11:12:43.3Z</time></trkpt><trkpt lat="37.9749807" lon="13.6862872"><ele>101.5</ele><time>2026-04-26T11:12:44.3Z</time></trkpt><trkpt lat="37.9748851" lon="13.6862438"><ele>99.0</ele><time>2026-04-26T11:12:45.299Z</time></trkpt><trkpt lat="37.9747851" lon="13.6861849"><ele>96.5</ele><time>2026-04-26T11:12:46.3Z</time></trkpt><trkpt lat="37.974676" lon="13.6861136"><ele>94.0</ele><time>2026-04-26T11:12:47.3Z</time></trkpt><trkpt lat="37.9745626" lon="13.686044"><ele>94.0</ele><time>2026-04-26T11:12:48.3Z</time></trkpt><trkpt lat="37.9744526" lon="13.6859707"><ele>94.0</ele><time>2026-04-26T11:12:49.3Z</time></trkpt><trkpt lat="37.974344" lon="13.6859015"><ele>94.0</ele><time>2026-04-26T11:12:50.3Z</time></trkpt><trkpt lat="37.9742308" lon="13.6858454"><ele>94.0</ele><time>2026-04-26T11:12:51.3Z</time></trkpt><trkpt lat="37.974114" lon="13.6858021"><ele>93.0</ele><time>2026-04-26T11:12:52.3Z</time></trkpt><trkpt lat="37.9739966" lon="13.685765"><ele>92.0</ele><time>2026-04-26T11:12:53.3Z</time></trkpt><trkpt lat="37.9738773" lon="13.6857282"><ele>91.0</ele><time>2026-04-26T11:12:54.3Z</time></trkpt><trkpt lat="37.973757" lon="13.6856915"><ele>90.0</ele><time>2026-04-26T11:12:55.3Z</time></trkpt><trkpt lat="37.9736421" lon="13.685658"><ele>90.0</ele><time>2026-04-26T11:12:56.3Z</time></trkpt><trkpt lat="37.9735222" lon="13.6856241"><ele>90.0</ele><time>2026-04-26T11:12:57.3Z</time></trkpt><trkpt lat="37.9733997" lon="13.6855865"><ele>90.0</ele><time>2026-04-26T11:12:58.3Z</time></trkpt><trkpt lat="37.9732781" lon="13.6855466"><ele>90.0</ele><time>2026-04-26T11:12:59.3Z</time></trkpt><trkpt lat="37.9731575" lon="13.6855079"><ele>87.75</ele><time>2026-04-26T11:13:00.3Z</time></trkpt><trkpt lat="37.9730418" lon="13.6854738"><ele>85.5</ele><time>2026-04-26T11:13:01.299Z</time></trkpt><trkpt lat="37.9729266" lon="13.6854478"><ele>83.25</ele><time>2026-04-26T11:13:02.3Z</time></trkpt><trkpt lat="37.9728097" lon="13.6854369"><ele>81.0</ele><time>2026-04-26T11:13:03.3Z</time></trkpt><trkpt lat="37.9726928" lon="13.6854483"><ele>81.0</ele><time>2026-04-26T11:13:04.3Z</time></trkpt><trkpt lat="37.9725724" lon="13.6854829"><ele>81.0</ele><time>2026-04-26T11:13:05.3Z</time></trkpt><trkpt lat="37.972455" lon="13.6855419"><ele>81.0</ele><time>2026-04-26T11:13:06.3Z</time></trkpt><trkpt lat="37.9723442" lon="13.6856301"><ele>81.0</ele><time>2026-04-26T11:13:07.3Z</time></trkpt><trkpt lat="37.9722357" lon="13.6857402"><ele>80.0</ele><time>2026-04-26T11:13:08.3Z</time></trkpt><trkpt lat="37.9721414" lon="13.68587"><ele>79.0</ele><time>2026-04-26T11:13:09.3Z</time></trkpt><trkpt lat="37.9720691" lon="13.6860153"><ele>78.0</ele><time>2026-04-26T11:13:10.3Z</time></trkpt><trkpt lat="37.9720213" lon="13.686169"><ele>77.0</ele><time>2026-04-26T11:13:11.299Z</time></trkpt><trkpt lat="37.9719907" lon="13.68633"><ele>77.0</ele><time>2026-04-26T11:13:12.3Z</time></trkpt><trkpt lat="37.9719788" lon="13.6864913"><ele>77.0</ele><time>2026-04-26T11:13:13.3Z</time></trkpt><trkpt lat="37.9719852" lon="13.6866526"><ele>77.0</ele><time>2026-04-26T11:13:14.3Z</time></trkpt><trkpt lat="37.972014" lon="13.6868214"><ele>77.0</ele><time>2026-04-26T11:13:15.3Z</time></trkpt><trkpt lat="37.9720658" lon="13.6869843"><ele>78.0</ele><time>2026-04-26T11:13:16.3Z</time></trkpt><trkpt lat="37.9721303" lon="13.6871403"><ele>79.0</ele><time>2026-04-26T11:13:17.3Z</time></trkpt><trkpt lat="37.9722146" lon="13.6872957"><ele>80.0</ele><time>2026-04-26T11:13:18.3Z</time></trkpt><trkpt lat="37.9723019" lon="13.687457"><ele>81.0</ele><time>2026-04-26T11:13:19.3Z</time></trkpt><trkpt lat="37.9723873" lon="13.6876134"><ele>80.0</ele><time>2026-04-26T11:13:20.3Z</time></trkpt><trkpt lat="37.9724736" lon="13.6877748"><ele>79.0</ele><time>2026-04-26T11:13:21.3Z</time></trkpt><trkpt lat="37.9725632" lon="13.6879297"><ele>78.0</ele><time>2026-04-26T11:13:22.3Z</time></trkpt><trkpt lat="37.9726633" lon="13.6880678"><ele>78.0</ele><time>2026-04-26T11:13:23.3Z</time></trkpt><trkpt lat="37.9727807" lon="13.6881794"><ele>78.0</ele><time>2026-04-26T11:13:24.3Z</time></trkpt><trkpt lat="37.9729221" lon="13.6882567"><ele>78.0</ele><time>2026-04-26T11:13:25.3Z</time></trkpt><trkpt lat="37.9730678" lon="13.6883046"><ele>78.0</ele><time>2026-04-26T11:13:26.3Z</time></trkpt><trkpt lat="37.973217" lon="13.6883256"><ele>78.0</ele><time>2026-04-26T11:13:27.3Z</time></trkpt><trkpt lat="37.9733583" lon="13.6883372"><ele>78.0</ele><time>2026-04-26T11:13:28.3Z</time></trkpt><trkpt lat="37.9734951" lon="13.6883517"><ele>78.0</ele><time>2026-04-26T11:13:29.3Z</time></trkpt><trkpt lat="37.9736344" lon="13.6883681"><ele>75.25</ele><time>2026-04-26T11:13:30.3Z</time></trkpt><trkpt lat="37.9737711" lon="13.6883935"><ele>72.5</ele><time>2026-04-26T11:13:31.3Z</time></trkpt><trkpt lat="37.9739016" lon="13.6884173"><ele>69.75</ele><time>2026-04-26T11:13:32.3Z</time></trkpt><trkpt lat="37.9740226" lon="13.6884865"><ele>67.0</ele><time>2026-04-26T11:13:33.3Z</time></trkpt><trkpt lat="37.9741333" lon="13.6885898"><ele>64.75</ele><time>2026-04-26T11:13:34.3Z</time></trkpt><trkpt lat="37.9742257" lon="13.6887174"><ele>62.5</ele><time>2026-04-26T11:13:35.3Z</time></trkpt><trkpt lat="37.9742988" lon="13.6888669"><ele>60.25</ele><time>2026-04-26T11:13:36.3Z</time></trkpt><trkpt lat="37.9743531" lon="13.6890396"><ele>58.0</ele><time>2026-04-26T11:13:37.3Z</time></trkpt><trkpt lat="37.9743681" lon="13.6892228"><ele>58.0</ele><time>2026-04-26T11:13:38.3Z</time></trkpt><trkpt lat="37.9743616" lon="13.6894165"><ele>58.0</ele><time>2026-04-26T11:13:39.3Z</time></trkpt><trkpt lat="37.9743181" lon="13.689594"><ele>58.0</ele><time>2026-04-26T11:13:40.3Z</time></trkpt><trkpt lat="37.9742447" lon="13.6897448"><ele>58.0</ele><time>2026-04-26T11:13:41.3Z</time></trkpt><trkpt lat="37.9741541" lon="13.6898661"><ele>60.599999999999994</ele><time>2026-04-26T11:13:42.3Z</time></trkpt><trkpt lat="37.974048" lon="13.6899452"><ele>63.199999999999996</ele><time>2026-04-26T11:13:43.3Z</time></trkpt><trkpt lat="37.9739406" lon="13.6899783"><ele>65.8</ele><time>2026-04-26T11:13:44.3Z</time></trkpt><trkpt lat="37.9738389" lon="13.6899722"><ele>68.39999999999999</ele><time>2026-04-26T11:13:45.3Z</time></trkpt><trkpt lat="37.973739" lon="13.6899191"><ele>71.0</ele><time>2026-04-26T11:13:46.3Z</time></trkpt><trkpt lat="37.9736589" lon="13.6898371"><ele>71.0</ele><time>2026-04-26T11:13:47.3Z</time></trkpt><trkpt lat="37.9736087" lon="13.6897296"><ele>71.0</ele><time>2026-04-26T11:13:48.3Z</time></trkpt><trkpt lat="37.9735848" lon="13.6895886"><ele>71.0</ele><time>2026-04-26T11:13:49.3Z</time></trkpt><trkpt lat="37.9735778" lon="13.689427"><ele>71.0</ele><time>2026-04-26T11:13:50.3Z</time></trkpt><trkpt lat="37.9735773" lon="13.6892383"><ele>71.0</ele><time>2026-04-26T11:13:51.3Z</time></trkpt><trkpt lat="37.9735743" lon="13.689049"><ele>71.0</ele><time>2026-04-26T11:13:52.3Z</time></trkpt><trkpt lat="37.973569" lon="13.6888368"><ele>71.0</ele><time>2026-04-26T11:13:53.3Z</time></trkpt><trkpt lat="37.9735673" lon="13.6886108"><ele>69.66666666666667</ele><time>2026-04-26T11:13:54.299Z</time></trkpt><trkpt lat="37.9735681" lon="13.6883763"><ele>68.33333333333333</ele><time>2026-04-26T11:13:55.3Z</time></trkpt><trkpt lat="37.9735762" lon="13.6881347"><ele>67.0</ele><time>2026-04-26T11:13:56.3Z</time></trkpt><trkpt lat="37.9735953" lon="13.6878827"><ele>67.0</ele><time>2026-04-26T11:13:57.3Z</time></trkpt><trkpt lat="37.9736258" lon="13.6876202"><ele>67.0</ele><time>2026-04-26T11:13:58.3Z</time></trkpt><trkpt lat="37.973664" lon="13.6873489"><ele>67.0</ele><time>2026-04-26T11:13:59.3Z</time></trkpt><trkpt lat="37.9737149" lon="13.6870798"><ele>69.33333333333333</ele><time>2026-04-26T11:14:00.3Z</time></trkpt><trkpt lat="37.9737744" lon="13.6868076"><ele>71.66666666666667</ele><time>2026-04-26T11:14:01.3Z</time></trkpt><trkpt lat="37.9738396" lon="13.6865353"><ele>74.0</ele><time>2026-04-26T11:14:02.299Z</time></trkpt><trkpt lat="37.973913" lon="13.6862639"><ele>82.0</ele><time>2026-04-26T11:14:03.3Z</time></trkpt><trkpt lat="37.9739985" lon="13.6859778"><ele>90.0</ele><time>2026-04-26T11:14:04.3Z</time></trkpt><trkpt lat="37.9740852" lon="13.6856944"><ele>90.0</ele><time>2026-04-26T11:14:05.3Z</time></trkpt><trkpt lat="37.9741731" lon="13.6854126"><ele>90.0</ele><time>2026-04-26T11:14:06.3Z</time></trkpt><trkpt lat="37.9742614" lon="13.6851326"><ele>94.0</ele><time>2026-04-26T11:14:07.3Z</time></trkpt><trkpt lat="37.9743437" lon="13.6848589"><ele>98.0</ele><time>2026-04-26T11:14:08.3Z</time></trkpt><trkpt lat="37.9744268" lon="13.684568"><ele>99.0</ele><time>2026-04-26T11:14:09.299Z</time></trkpt><trkpt lat="37.9745084" lon="13.6842256"><ele>100.0</ele><time>2026-04-26T11:14:10.3Z</time></trkpt><trkpt lat="37.9751303" lon="13.6818271"><ele>94.33333333333334</ele><time>2026-04-26T11:14:17.3Z</time></trkpt><trkpt lat="37.9752258" lon="13.6816844"><ele>88.66666666666667</ele><time>2026-04-26T11:14:18.3Z</time></trkpt><trkpt lat="37.9753803" lon="13.6814904"><ele>83.0</ele><time>2026-04-26T11:14:19.3Z</time></trkpt><trkpt lat="37.9754728" lon="13.6811987"><ele>86.5</ele><time>2026-04-26T11:14:20.3Z</time></trkpt><trkpt lat="37.9756008" lon="13.6809701"><ele>90.0</ele><time>2026-04-26T11:14:21.3Z</time></trkpt><trkpt lat="37.9757375" lon="13.6807276"><ele>80.5</ele><time>2026-04-26T11:14:22.3Z</time></trkpt><trkpt lat="37.9758667" lon="13.6804867"><ele>71.0</ele><time>2026-04-26T11:14:23.3Z</time></trkpt><trkpt lat="37.9759812" lon="13.6802389"><ele>71.0</ele><time>2026-04-26T11:14:24.299Z</time></trkpt><trkpt lat="37.9760975" lon="13.6799726"><ele>71.0</ele><time>2026-04-26T11:14:25.3Z</time></trkpt><trkpt lat="37.9762172" lon="13.6797137"><ele>71.0</ele><time>2026-04-26T11:14:26.3Z</time></trkpt><trkpt lat="37.9763394" lon="13.6794513"><ele>71.0</ele><time>2026-04-26T11:14:27.3Z</time></trkpt><trkpt lat="37.9764613" lon="13.6791862"><ele>72.5</ele><time>2026-04-26T11:14:28.3Z</time></trkpt><trkpt lat="37.9765781" lon="13.6789203"><ele>74.0</ele><time>2026-04-26T11:14:29.3Z</time></trkpt><trkpt lat="37.976702" lon="13.6786532"><ele>80.0</ele><time>2026-04-26T11:14:30.3Z</time></trkpt><trkpt lat="37.9768249" lon="13.6783827"><ele>86.0</ele><time>2026-04-26T11:14:31.3Z</time></trkpt><trkpt lat="37.9769443" lon="13.6781123"><ele>86.0</ele><time>2026-04-26T11:14:32.3Z</time></trkpt><trkpt lat="37.9770711" lon="13.6778409"><ele>86.0</ele><time>2026-04-26T11:14:33.3Z</time></trkpt><trkpt lat="37.9771912" lon="13.6775686"><ele>92.5</ele><time>2026-04-26T11:14:34.299Z</time></trkpt><trkpt lat="37.9773102" lon="13.6772962"><ele>99.0</ele><time>2026-04-26T11:14:35.3Z</time></trkpt><trkpt lat="37.9774305" lon="13.6770189"><ele>92.0</ele><time>2026-04-26T11:14:36.3Z</time></trkpt><trkpt lat="37.9775565" lon="13.6767508"><ele>85.0</ele><time>2026-04-26T11:14:37.3Z</time></trkpt><trkpt lat="37.9776835" lon="13.6764775"><ele>85.0</ele><time>2026-04-26T11:14:38.3Z</time></trkpt><trkpt lat="37.9778098" lon="13.6762101"><ele>85.0</ele><time>2026-04-26T11:14:39.3Z</time></trkpt><trkpt lat="37.9779321" lon="13.6759319"><ele>88.5</ele><time>2026-04-26T11:14:40.299Z</time></trkpt><trkpt lat="37.9780589" lon="13.675653"><ele>92.0</ele><time>2026-04-26T11:14:41.3Z</time></trkpt><trkpt lat="37.9781889" lon="13.6753717"><ele>93.5</ele><time>2026-04-26T11:14:42.3Z</time></trkpt><trkpt lat="37.9783143" lon="13.6750925"><ele>95.0</ele><time>2026-04-26T11:14:43.3Z</time></trkpt><trkpt lat="37.9784415" lon="13.6748103"><ele>95.0</ele><time>2026-04-26T11:14:44.3Z</time></trkpt><trkpt lat="37.9785666" lon="13.6745289"><ele>95.0</ele><time>2026-04-26T11:14:45.3Z</time></trkpt><trkpt lat="37.9786899" lon="13.6742471"><ele>91.0</ele><time>2026-04-26T11:14:46.3Z</time></trkpt><trkpt lat="37.978818" lon="13.6739661"><ele>87.0</ele><time>2026-04-26T11:14:47.3Z</time></trkpt><trkpt lat="37.978946" lon="13.6736869"><ele>75.0</ele><time>2026-04-26T11:14:48.3Z</time></trkpt><trkpt lat="37.9790757" lon="13.673409"><ele>63.0</ele><time>2026-04-26T11:14:49.3Z</time></trkpt><trkpt lat="37.9792112" lon="13.6731464"><ele>51.5</ele><time>2026-04-26T11:14:50.3Z</time></trkpt><trkpt lat="37.9793331" lon="13.6728868"><ele>40.0</ele><time>2026-04-26T11:14:51.3Z</time></trkpt><trkpt lat="37.9794624" lon="13.6726167"><ele>40.0</ele><time>2026-04-26T11:14:52.3Z</time></trkpt><trkpt lat="37.9795939" lon="13.6723212"><ele>40.0</ele><time>2026-04-26T11:14:53.3Z</time></trkpt><trkpt lat="37.9797232" lon="13.6720428"><ele>60.0</ele><time>2026-04-26T11:14:54.3Z</time></trkpt><trkpt lat="37.9798483" lon="13.6717586"><ele>80.0</ele><time>2026-04-26T11:14:55.3Z</time></trkpt><trkpt lat="37.9799806" lon="13.6714732"><ele>79.0</ele><time>2026-04-26T11:14:56.3Z</time></trkpt><trkpt lat="37.9801123" lon="13.671191"><ele>78.0</ele><time>2026-04-26T11:14:57.3Z</time></trkpt><trkpt lat="37.9802447" lon="13.6709107"><ele>78.0</ele><time>2026-04-26T11:14:58.3Z</time></trkpt><trkpt lat="37.9803801" lon="13.6706366"><ele>78.0</ele><time>2026-04-26T11:14:59.3Z</time></trkpt><trkpt lat="37.9805096" lon="13.670376"><ele>87.5</ele><time>2026-04-26T11:15:00.3Z</time></trkpt><trkpt lat="37.9806292" lon="13.6701036"><ele>97.0</ele><time>2026-04-26T11:15:01.299Z</time></trkpt><trkpt lat="37.9807558" lon="13.6698342"><ele>90.0</ele><time>2026-04-26T11:15:02.3Z</time></trkpt><trkpt lat="37.9808897" lon="13.6695564"><ele>83.0</ele><time>2026-04-26T11:15:03.3Z</time></trkpt><trkpt lat="37.9810147" lon="13.6692775"><ele>97.5</ele><time>2026-04-26T11:15:04.3Z</time></trkpt><trkpt lat="37.9811426" lon="13.6689978"><ele>112.0</ele><time>2026-04-26T11:15:05.3Z</time></trkpt><trkpt lat="37.9812623" lon="13.6687108"><ele>118.5</ele><time>2026-04-26T11:15:06.3Z</time></trkpt><trkpt lat="37.9813911" lon="13.668416"><ele>125.0</ele><time>2026-04-26T11:15:07.3Z</time></trkpt><trkpt lat="37.9815114" lon="13.6681176"><ele>125.0</ele><time>2026-04-26T11:15:08.3Z</time></trkpt><trkpt lat="37.9816283" lon="13.6678175"><ele>125.0</ele><time>2026-04-26T11:15:09.3Z</time></trkpt><trkpt lat="37.9817402" lon="13.667519"><ele>124.5</ele><time>2026-04-26T11:15:10.3Z</time></trkpt><trkpt lat="37.9818502" lon="13.667205"><ele>124.0</ele><time>2026-04-26T11:15:11.3Z</time></trkpt><trkpt lat="37.9819535" lon="13.6668864"><ele>124.0</ele><time>2026-04-26T11:15:12.3Z</time></trkpt><trkpt lat="37.9820453" lon="13.6665619"><ele>124.0</ele><time>2026-04-26T11:15:13.3Z</time></trkpt><trkpt lat="37.9821371" lon="13.6662377"><ele>125.0</ele><time>2026-04-26T11:15:14.3Z</time></trkpt><trkpt lat="37.9822253" lon="13.6659152"><ele>126.0</ele><time>2026-04-26T11:15:15.3Z</time></trkpt><trkpt lat="37.9823084" lon="13.6655787"><ele>128.0</ele><time>2026-04-26T11:15:16.3Z</time></trkpt><trkpt lat="37.9823902" lon="13.66525"><ele>130.0</ele><time>2026-04-26T11:15:17.3Z</time></trkpt><trkpt lat="37.9824646" lon="13.6649218"><ele>126.5</ele><time>2026-04-26T11:15:18.3Z</time></trkpt><trkpt lat="37.9825365" lon="13.6646041"><ele>123.0</ele><time>2026-04-26T11:15:19.3Z</time></trkpt><trkpt lat="37.9826029" lon="13.664289"><ele>123.0</ele><time>2026-04-26T11:15:20.3Z</time></trkpt><trkpt lat="37.9826703" lon="13.6639734"><ele>123.0</ele><time>2026-04-26T11:15:21.299Z</time></trkpt><trkpt lat="37.9827407" lon="13.6636593"><ele>124.0</ele><time>2026-04-26T11:15:22.3Z</time></trkpt><trkpt lat="37.9828077" lon="13.6633411"><ele>125.0</ele><time>2026-04-26T11:15:23.3Z</time></trkpt><trkpt lat="37.9828773" lon="13.6630243"><ele>128.0</ele><time>2026-04-26T11:15:24.3Z</time></trkpt><trkpt lat="37.9829495" lon="13.662693"><ele>131.0</ele><time>2026-04-26T11:15:25.299Z</time></trkpt><trkpt lat="37.9830177" lon="13.6623754"><ele>131.0</ele><time>2026-04-26T11:15:26.3Z</time></trkpt><trkpt lat="37.9830855" lon="13.6620591"><ele>131.0</ele><time>2026-04-26T11:15:27.3Z</time></trkpt><trkpt lat="37.9831645" lon="13.6617528"><ele>134.5</ele><time>2026-04-26T11:15:28.3Z</time></trkpt><trkpt lat="37.983254" lon="13.661446"><ele>138.0</ele><time>2026-04-26T11:15:29.3Z</time></trkpt><trkpt lat="37.9833532" lon="13.6611484"><ele>131.5</ele><time>2026-04-26T11:15:30.3Z</time></trkpt><trkpt lat="37.9834615" lon="13.660856"><ele>125.0</ele><time>2026-04-26T11:15:31.3Z</time></trkpt><trkpt lat="37.9835758" lon="13.6605637"><ele>129.0</ele><time>2026-04-26T11:15:32.299Z</time></trkpt><trkpt lat="37.9836994" lon="13.6602776"><ele>133.0</ele><time>2026-04-26T11:15:33.3Z</time></trkpt><trkpt lat="37.9838262" lon="13.660002"><ele>133.0</ele><time>2026-04-26T11:15:34.299Z</time></trkpt><trkpt lat="37.9839553" lon="13.659732"><ele>133.0</ele><time>2026-04-26T11:15:35.299Z</time></trkpt><trkpt lat="37.9840909" lon="13.6594719"><ele>130.0</ele><time>2026-04-26T11:15:36.299Z</time></trkpt><trkpt lat="37.9842338" lon="13.6592077"><ele>127.0</ele><time>2026-04-26T11:15:37.3Z</time></trkpt><trkpt lat="37.9843849" lon="13.6589498"><ele>127.0</ele><time>2026-04-26T11:15:38.3Z</time></trkpt><trkpt lat="37.9845426" lon="13.6587018"><ele>127.0</ele><time>2026-04-26T11:15:39.3Z</time></trkpt><trkpt lat="37.9847066" lon="13.6584512"><ele>128.5</ele><time>2026-04-26T11:15:40.3Z</time></trkpt><trkpt lat="37.9848781" lon="13.6582155"><ele>130.0</ele><time>2026-04-26T11:15:41.3Z</time></trkpt><trkpt lat="37.9850422" lon="13.6579955"><ele>125.0</ele><time>2026-04-26T11:15:42.3Z</time></trkpt><trkpt lat="37.985225" lon="13.6577751"><ele>120.0</ele><time>2026-04-26T11:15:43.3Z</time></trkpt><trkpt lat="37.9854113" lon="13.6575641"><ele>120.0</ele><time>2026-04-26T11:15:44.3Z</time></trkpt><trkpt lat="37.985595" lon="13.6573436"><ele>120.0</ele><time>2026-04-26T11:15:45.3Z</time></trkpt><trkpt lat="37.985793" lon="13.6571397"><ele>117.5</ele><time>2026-04-26T11:15:46.299Z</time></trkpt><trkpt lat="37.9859942" lon="13.6569457"><ele>115.0</ele><time>2026-04-26T11:15:47.3Z</time></trkpt><trkpt lat="37.9861992" lon="13.6567507"><ele>115.0</ele><time>2026-04-26T11:15:48.3Z</time></trkpt><trkpt lat="37.9864116" lon="13.6565648"><ele>115.0</ele><time>2026-04-26T11:15:49.3Z</time></trkpt><trkpt lat="37.9866111" lon="13.6563926"><ele>119.0</ele><time>2026-04-26T11:15:50.3Z</time></trkpt><trkpt lat="37.9867877" lon="13.6562054"><ele>123.0</ele><time>2026-04-26T11:15:51.3Z</time></trkpt><trkpt lat="37.98696" lon="13.6560236"><ele>123.0</ele><time>2026-04-26T11:15:52.299Z</time></trkpt><trkpt lat="37.987138" lon="13.6558195"><ele>123.0</ele><time>2026-04-26T11:15:53.299Z</time></trkpt><trkpt lat="37.9873156" lon="13.6556342"><ele>123.0</ele><time>2026-04-26T11:15:54.299Z</time></trkpt><trkpt lat="37.9875104" lon="13.6554692"><ele>123.0</ele><time>2026-04-26T11:15:55.299Z</time></trkpt><trkpt lat="37.9877353" lon="13.65533"><ele>129.5</ele><time>2026-04-26T11:15:56.299Z</time></trkpt><trkpt lat="37.9879405" lon="13.6551849"><ele>136.0</ele><time>2026-04-26T11:15:57.299Z</time></trkpt><trkpt lat="37.9881494" lon="13.655056"><ele>128.0</ele><time>2026-04-26T11:15:58.298Z</time></trkpt><trkpt lat="37.9883714" lon="13.6549334"><ele>120.0</ele><time>2026-04-26T11:15:59.299Z</time></trkpt><trkpt lat="37.9886207" lon="13.6548305"><ele>120.0</ele><time>2026-04-26T11:16:00.299Z</time></trkpt><trkpt lat="37.9888811" lon="13.6547448"><ele>120.0</ele><time>2026-04-26T11:16:01.299Z</time></trkpt><trkpt lat="37.9891401" lon="13.6546492"><ele>115.0</ele><time>2026-04-26T11:16:02.299Z</time></trkpt><trkpt lat="37.9894169" lon="13.6545437"><ele>110.0</ele><time>2026-04-26T11:16:03.299Z</time></trkpt><trkpt lat="37.9896781" lon="13.6544301"><ele>115.0</ele><time>2026-04-26T11:16:04.299Z</time></trkpt><trkpt lat="37.9899322" lon="13.6543103"><ele>120.0</ele><time>2026-04-26T11:16:05.299Z</time></trkpt><trkpt lat="37.9901839" lon="13.6541921"><ele>120.0</ele><time>2026-04-26T11:16:06.299Z</time></trkpt><trkpt lat="37.9904321" lon="13.6540784"><ele>120.0</ele><time>2026-04-26T11:16:07.299Z</time></trkpt><trkpt lat="37.9906878" lon="13.653972"><ele>108.5</ele><time>2026-04-26T11:16:08.299Z</time></trkpt><trkpt lat="37.9909465" lon="13.6538649"><ele>97.0</ele><time>2026-04-26T11:16:09.299Z</time></trkpt><trkpt lat="37.9912135" lon="13.6537605"><ele>97.0</ele><time>2026-04-26T11:16:10.299Z</time></trkpt><trkpt lat="37.9914597" lon="13.6536341"><ele>97.0</ele><time>2026-04-26T11:16:11.299Z</time></trkpt><trkpt lat="37.991706" lon="13.6534854"><ele>95.0</ele><time>2026-04-26T11:16:12.299Z</time></trkpt><trkpt lat="37.9919086" lon="13.6533119"><ele>93.0</ele><time>2026-04-26T11:16:13.299Z</time></trkpt><trkpt lat="37.9921008" lon="13.6531034"><ele>93.0</ele><time>2026-04-26T11:16:14.299Z</time></trkpt><trkpt lat="37.9923164" lon="13.6528884"><ele>93.0</ele><time>2026-04-26T11:16:15.298Z</time></trkpt><trkpt lat="37.9925524" lon="13.6526773"><ele>100.5</ele><time>2026-04-26T11:16:16.299Z</time></trkpt><trkpt lat="37.9927829" lon="13.6524566"><ele>108.0</ele><time>2026-04-26T11:16:17.299Z</time></trkpt><trkpt lat="37.9930175" lon="13.6522199"><ele>108.0</ele><time>2026-04-26T11:16:18.299Z</time></trkpt><trkpt lat="37.9932456" lon="13.6519649"><ele>108.0</ele><time>2026-04-26T11:16:19.299Z</time></trkpt><trkpt lat="37.9934705" lon="13.6517008"><ele>108.0</ele><time>2026-04-26T11:16:20.299Z</time></trkpt><trkpt lat="37.9936953" lon="13.6514397"><ele>108.0</ele><time>2026-04-26T11:16:21.299Z</time></trkpt><trkpt lat="37.9939279" lon="13.6511889"><ele>83.0</ele><time>2026-04-26T11:16:22.299Z</time></trkpt><trkpt lat="37.9945377" lon="13.650093"><ele>83.0</ele><time>2026-04-26T11:16:26.299Z</time></trkpt><trkpt lat="37.9945239" lon="13.6498347"><ele>83.0</ele><time>2026-04-26T11:16:27.299Z</time></trkpt><trkpt lat="37.9946964" lon="13.6495935"><ele>81.0</ele><time>2026-04-26T11:16:28.299Z</time></trkpt><trkpt lat="37.9948695" lon="13.6493654"><ele>79.0</ele><time>2026-04-26T11:16:29.299Z</time></trkpt><trkpt lat="37.9950382" lon="13.6491255"><ele>79.0</ele><time>2026-04-26T11:16:30.299Z</time></trkpt><trkpt lat="37.9952003" lon="13.6488921"><ele>79.0</ele><time>2026-04-26T11:16:31.298Z</time></trkpt><trkpt lat="37.9953672" lon="13.6486608"><ele>86.5</ele><time>2026-04-26T11:16:32.299Z</time></trkpt><trkpt lat="37.9955333" lon="13.6484297"><ele>94.0</ele><time>2026-04-26T11:16:33.299Z</time></trkpt><trkpt lat="37.9957015" lon="13.6481981"><ele>92.0</ele><time>2026-04-26T11:16:34.299Z</time></trkpt><trkpt lat="37.9958669" lon="13.647964"><ele>90.0</ele><time>2026-04-26T11:16:35.298Z</time></trkpt><trkpt lat="37.9960449" lon="13.6477488"><ele>100.0</ele><time>2026-04-26T11:16:36.299Z</time></trkpt><trkpt lat="37.9961849" lon="13.6475247"><ele>110.0</ele><time>2026-04-26T11:16:37.299Z</time></trkpt><trkpt lat="37.9963291" lon="13.6473047"><ele>110.0</ele><time>2026-04-26T11:16:38.299Z</time></trkpt><trkpt lat="37.9964661" lon="13.6470878"><ele>110.0</ele><time>2026-04-26T11:16:39.299Z</time></trkpt><trkpt lat="37.9966048" lon="13.6468704"><ele>110.0</ele><time>2026-04-26T11:16:40.299Z</time></trkpt><trkpt lat="37.9967426" lon="13.6466569"><ele>102.0</ele><time>2026-04-26T11:16:41.298Z</time></trkpt><trkpt lat="37.9968766" lon="13.6464384"><ele>94.0</ele><time>2026-04-26T11:16:42.299Z</time></trkpt><trkpt lat="37.9970101" lon="13.646221"><ele>86.0</ele><time>2026-04-26T11:16:43.299Z</time></trkpt><trkpt lat="37.9979597" lon="13.6448547"><ele>81.0</ele><time>2026-04-26T11:16:48.299Z</time></trkpt><trkpt lat="37.9980744" lon="13.6445807"><ele>76.0</ele><time>2026-04-26T11:16:49.299Z</time></trkpt><trkpt lat="37.9981865" lon="13.6443007"><ele>76.0</ele><time>2026-04-26T11:16:50.299Z</time></trkpt><trkpt lat="37.9983075" lon="13.6440161"><ele>76.0</ele><time>2026-04-26T11:16:51.299Z</time></trkpt><trkpt lat="37.9984163" lon="13.6437298"><ele>62.5</ele><time>2026-04-26T11:16:52.299Z</time></trkpt><trkpt lat="37.9985248" lon="13.6434333"><ele>49.0</ele><time>2026-04-26T11:16:53.299Z</time></trkpt><trkpt lat="37.9986172" lon="13.6431251"><ele>49.0</ele><time>2026-04-26T11:16:54.299Z</time></trkpt><trkpt lat="37.9987037" lon="13.6428137"><ele>49.0</ele><time>2026-04-26T11:16:55.299Z</time></trkpt><trkpt lat="37.9987796" lon="13.6424947"><ele>51.5</ele><time>2026-04-26T11:16:56.299Z</time></trkpt><trkpt lat="37.9988442" lon="13.6421739"><ele>54.0</ele><time>2026-04-26T11:16:57.299Z</time></trkpt><trkpt lat="37.9988994" lon="13.641844"><ele>55.5</ele><time>2026-04-26T11:16:58.299Z</time></trkpt><trkpt lat="37.9989458" lon="13.6415151"><ele>57.0</ele><time>2026-04-26T11:16:59.299Z</time></trkpt><trkpt lat="37.9989923" lon="13.6411848"><ele>60.5</ele><time>2026-04-26T11:17:00.298Z</time></trkpt><trkpt lat="37.9990363" lon="13.6408512"><ele>64.0</ele><time>2026-04-26T11:17:01.299Z</time></trkpt><trkpt lat="37.9990806" lon="13.6405204"><ele>64.0</ele><time>2026-04-26T11:17:02.299Z</time></trkpt><trkpt lat="37.9991304" lon="13.6401921"><ele>64.0</ele><time>2026-04-26T11:17:03.299Z</time></trkpt><trkpt lat="37.9991792" lon="13.6398653"><ele>53.0</ele><time>2026-04-26T11:17:04.299Z</time></trkpt><trkpt lat="37.9992361" lon="13.6395476"><ele>42.0</ele><time>2026-04-26T11:17:05.299Z</time></trkpt><trkpt lat="37.9992961" lon="13.6392358"><ele>41.5</ele><time>2026-04-26T11:17:06.299Z</time></trkpt><trkpt lat="37.9993623" lon="13.6389339"><ele>41.0</ele><time>2026-04-26T11:17:07.299Z</time></trkpt><trkpt lat="37.9994333" lon="13.6386385"><ele>42.0</ele><time>2026-04-26T11:17:08.299Z</time></trkpt><trkpt lat="37.9995117" lon="13.6383493"><ele>43.0</ele><time>2026-04-26T11:17:09.299Z</time></trkpt><trkpt lat="37.9995973" lon="13.6380643"><ele>44.5</ele><time>2026-04-26T11:17:10.299Z</time></trkpt><trkpt lat="37.9996938" lon="13.637773"><ele>46.0</ele><time>2026-04-26T11:17:11.299Z</time></trkpt><trkpt lat="37.9998017" lon="13.6374798"><ele>46.0</ele><time>2026-04-26T11:17:12.299Z</time></trkpt><trkpt lat="37.9999166" lon="13.6371876"><ele>46.0</ele><time>2026-04-26T11:17:13.299Z</time></trkpt><trkpt lat="38.0000424" lon="13.6368958"><ele>46.5</ele><time>2026-04-26T11:17:14.299Z</time></trkpt><trkpt lat="38.0001706" lon="13.6366063"><ele>47.0</ele><time>2026-04-26T11:17:15.299Z</time></trkpt><trkpt lat="38.0003004" lon="13.6363175"><ele>47.5</ele><time>2026-04-26T11:17:16.299Z</time></trkpt><trkpt lat="38.0004427" lon="13.6360459"><ele>48.0</ele><time>2026-04-26T11:17:17.299Z</time></trkpt><trkpt lat="38.0005896" lon="13.6357727"><ele>48.0</ele><time>2026-04-26T11:17:18.299Z</time></trkpt><trkpt lat="38.0007413" lon="13.6355113"><ele>48.0</ele><time>2026-04-26T11:17:19.299Z</time></trkpt><trkpt lat="38.0008928" lon="13.6352462"><ele>46.0</ele><time>2026-04-26T11:17:20.299Z</time></trkpt><trkpt lat="38.0010431" lon="13.6349849"><ele>44.0</ele><time>2026-04-26T11:17:21.298Z</time></trkpt><trkpt lat="38.0011903" lon="13.6347225"><ele>41.5</ele><time>2026-04-26T11:17:22.299Z</time></trkpt><trkpt lat="38.0013309" lon="13.6344599"><ele>39.0</ele><time>2026-04-26T11:17:23.299Z</time></trkpt><trkpt lat="38.0014685" lon="13.6341894"><ele>39.0</ele><time>2026-04-26T11:17:24.299Z</time></trkpt><trkpt lat="38.0016017" lon="13.6339174"><ele>39.0</ele><time>2026-04-26T11:17:25.299Z</time></trkpt><trkpt lat="38.00173" lon="13.6336411"><ele>36.0</ele><time>2026-04-26T11:17:26.299Z</time></trkpt><trkpt lat="38.0018533" lon="13.6333621"><ele>33.0</ele><time>2026-04-26T11:17:27.298Z</time></trkpt><trkpt lat="38.0019721" lon="13.6330792"><ele>34.5</ele><time>2026-04-26T11:17:28.299Z</time></trkpt><trkpt lat="38.002081" lon="13.632791"><ele>36.0</ele><time>2026-04-26T11:17:29.299Z</time></trkpt><trkpt lat="38.002184" lon="13.6324986"><ele>36.0</ele><time>2026-04-26T11:17:30.299Z</time></trkpt><trkpt lat="38.0022828" lon="13.6321992"><ele>36.0</ele><time>2026-04-26T11:17:31.299Z</time></trkpt><trkpt lat="38.0023777" lon="13.6318986"><ele>38.0</ele><time>2026-04-26T11:17:32.299Z</time></trkpt><trkpt lat="38.0024716" lon="13.6315992"><ele>40.0</ele><time>2026-04-26T11:17:33.299Z</time></trkpt><trkpt lat="38.0025669" lon="13.631307"><ele>43.0</ele><time>2026-04-26T11:17:34.298Z</time></trkpt><trkpt lat="38.0026648" lon="13.6310145"><ele>46.0</ele><time>2026-04-26T11:17:35.299Z</time></trkpt><trkpt lat="38.0027606" lon="13.630719"><ele>46.0</ele><time>2026-04-26T11:17:36.299Z</time></trkpt><trkpt lat="38.0028578" lon="13.6304254"><ele>46.0</ele><time>2026-04-26T11:17:37.299Z</time></trkpt><trkpt lat="38.0029552" lon="13.63013"><ele>48.0</ele><time>2026-04-26T11:17:38.298Z</time></trkpt><trkpt lat="38.0030593" lon="13.6298383"><ele>50.0</ele><time>2026-04-26T11:17:39.299Z</time></trkpt><trkpt lat="38.0031559" lon="13.6295361"><ele>51.0</ele><time>2026-04-26T11:17:40.299Z</time></trkpt><trkpt lat="38.003253" lon="13.6292334"><ele>52.0</ele><time>2026-04-26T11:17:41.299Z</time></trkpt><trkpt lat="38.0033461" lon="13.6289315"><ele>44.0</ele><time>2026-04-26T11:17:42.299Z</time></trkpt><trkpt lat="38.0034416" lon="13.6286251"><ele>36.0</ele><time>2026-04-26T11:17:43.299Z</time></trkpt><trkpt lat="38.0035406" lon="13.6283234"><ele>36.0</ele><time>2026-04-26T11:17:44.299Z</time></trkpt><trkpt lat="38.0036399" lon="13.6280255"><ele>36.0</ele><time>2026-04-26T11:17:45.299Z</time></trkpt><trkpt lat="38.0037404" lon="13.6277233"><ele>36.0</ele><time>2026-04-26T11:17:46.298Z</time></trkpt><trkpt lat="38.0038389" lon="13.6274233"><ele>36.0</ele><time>2026-04-26T11:17:47.299Z</time></trkpt><trkpt lat="38.00394" lon="13.6271148"><ele>38.5</ele><time>2026-04-26T11:17:48.299Z</time></trkpt><trkpt lat="38.0040393" lon="13.6268134"><ele>41.0</ele><time>2026-04-26T11:17:49.299Z</time></trkpt><trkpt lat="38.0041392" lon="13.6265135"><ele>37.5</ele><time>2026-04-26T11:17:50.299Z</time></trkpt><trkpt lat="38.0042367" lon="13.6262178"><ele>34.0</ele><time>2026-04-26T11:17:51.299Z</time></trkpt><trkpt lat="38.0043308" lon="13.6259264"><ele>34.0</ele><time>2026-04-26T11:17:52.299Z</time></trkpt><trkpt lat="38.0044252" lon="13.6256339"><ele>34.0</ele><time>2026-04-26T11:17:53.299Z</time></trkpt><trkpt lat="38.0045228" lon="13.6253428"><ele>34.5</ele><time>2026-04-26T11:17:54.299Z</time></trkpt><trkpt lat="38.0046217" lon="13.6250487"><ele>35.0</ele><time>2026-04-26T11:17:55.299Z</time></trkpt><trkpt lat="38.0047224" lon="13.6247507"><ele>32.0</ele><time>2026-04-26T11:17:56.299Z</time></trkpt><trkpt lat="38.0048237" lon="13.6244527"><ele>29.0</ele><time>2026-04-26T11:17:57.299Z</time></trkpt><trkpt lat="38.004926" lon="13.6241571"><ele>27.5</ele><time>2026-04-26T11:17:58.299Z</time></trkpt><trkpt lat="38.0050288" lon="13.6238574"><ele>26.0</ele><time>2026-04-26T11:17:59.299Z</time></trkpt><trkpt lat="38.0051365" lon="13.6235652"><ele>26.0</ele><time>2026-04-26T11:18:00.299Z</time></trkpt><trkpt lat="38.0052448" lon="13.6232749"><ele>26.0</ele><time>2026-04-26T11:18:01.299Z</time></trkpt><trkpt lat="38.0053561" lon="13.6229924"><ele>28.5</ele><time>2026-04-26T11:18:02.299Z</time></trkpt><trkpt lat="38.0054746" lon="13.6227094"><ele>31.0</ele><time>2026-04-26T11:18:03.299Z</time></trkpt><trkpt lat="38.0056018" lon="13.6224379"><ele>31.0</ele><time>2026-04-26T11:18:04.299Z</time></trkpt><trkpt lat="38.0057388" lon="13.6221724"><ele>31.0</ele><time>2026-04-26T11:18:05.299Z</time></trkpt><trkpt lat="38.0058775" lon="13.6219113"><ele>31.0</ele><time>2026-04-26T11:18:06.299Z</time></trkpt><trkpt lat="38.0060228" lon="13.6216587"><ele>31.0</ele><time>2026-04-26T11:18:07.299Z</time></trkpt><trkpt lat="38.0061702" lon="13.621407"><ele>31.0</ele><time>2026-04-26T11:18:08.299Z</time></trkpt><trkpt lat="38.0063212" lon="13.6211612"><ele>31.0</ele><time>2026-04-26T11:18:09.298Z</time></trkpt><trkpt lat="38.006476" lon="13.6209199"><ele>30.0</ele><time>2026-04-26T11:18:10.299Z</time></trkpt><trkpt lat="38.0066329" lon="13.6206771"><ele>29.0</ele><time>2026-04-26T11:18:11.299Z</time></trkpt><trkpt lat="38.0067882" lon="13.6204371"><ele>31.0</ele><time>2026-04-26T11:18:12.299Z</time></trkpt><trkpt lat="38.006941" lon="13.620192"><ele>33.0</ele><time>2026-04-26T11:18:13.299Z</time></trkpt><trkpt lat="38.0070938" lon="13.619943"><ele>33.0</ele><time>2026-04-26T11:18:14.298Z</time></trkpt><trkpt lat="38.0072492" lon="13.6196895"><ele>33.0</ele><time>2026-04-26T11:18:15.299Z</time></trkpt><trkpt lat="38.007407" lon="13.6194409"><ele>31.5</ele><time>2026-04-26T11:18:16.299Z</time></trkpt><trkpt lat="38.007567" lon="13.6191904"><ele>30.0</ele><time>2026-04-26T11:18:17.299Z</time></trkpt><trkpt lat="38.0077284" lon="13.6189391"><ele>30.0</ele><time>2026-04-26T11:18:18.299Z</time></trkpt><trkpt lat="38.0078929" lon="13.6186902"><ele>30.0</ele><time>2026-04-26T11:18:19.299Z</time></trkpt><trkpt lat="38.0080503" lon="13.618444"><ele>30.0</ele><time>2026-04-26T11:18:20.299Z</time></trkpt><trkpt lat="38.0082076" lon="13.6182022"><ele>30.0</ele><time>2026-04-26T11:18:21.299Z</time></trkpt><trkpt lat="38.0083631" lon="13.6179573"><ele>31.5</ele><time>2026-04-26T11:18:22.299Z</time></trkpt><trkpt lat="38.0085171" lon="13.6177135"><ele>33.0</ele><time>2026-04-26T11:18:23.299Z</time></trkpt><trkpt lat="38.0086738" lon="13.6174684"><ele>33.0</ele><time>2026-04-26T11:18:24.299Z</time></trkpt><trkpt lat="38.0088303" lon="13.6172147"><ele>33.0</ele><time>2026-04-26T11:18:25.299Z</time></trkpt><trkpt lat="38.0089858" lon="13.6169635"><ele>34.5</ele><time>2026-04-26T11:18:26.299Z</time></trkpt><trkpt lat="38.0091412" lon="13.6167154"><ele>36.0</ele><time>2026-04-26T11:18:27.299Z</time></trkpt><trkpt lat="38.0093014" lon="13.6164574"><ele>38.5</ele><time>2026-04-26T11:18:28.299Z</time></trkpt><trkpt lat="38.0094586" lon="13.6161914"><ele>41.0</ele><time>2026-04-26T11:18:29.299Z</time></trkpt><trkpt lat="38.0096238" lon="13.6159191"><ele>45.5</ele><time>2026-04-26T11:18:30.299Z</time></trkpt><trkpt lat="38.0097913" lon="13.6156524"><ele>50.0</ele><time>2026-04-26T11:18:31.299Z</time></trkpt><trkpt lat="38.0099572" lon="13.615385"><ele>50.5</ele><time>2026-04-26T11:18:32.299Z</time></trkpt><trkpt lat="38.0101259" lon="13.6151234"><ele>51.0</ele><time>2026-04-26T11:18:33.299Z</time></trkpt><trkpt lat="38.0102908" lon="13.614853"><ele>51.0</ele><time>2026-04-26T11:18:34.299Z</time></trkpt><trkpt lat="38.0104551" lon="13.6145876"><ele>51.0</ele><time>2026-04-26T11:18:35.299Z</time></trkpt><trkpt lat="38.0106194" lon="13.6143224"><ele>50.0</ele><time>2026-04-26T11:18:36.299Z</time></trkpt><trkpt lat="38.0107819" lon="13.6140637"><ele>49.0</ele><time>2026-04-26T11:18:37.299Z</time></trkpt><trkpt lat="38.0109456" lon="13.6138059"><ele>50.0</ele><time>2026-04-26T11:18:38.298Z</time></trkpt><trkpt lat="38.0111144" lon="13.6135488"><ele>51.0</ele><time>2026-04-26T11:18:39.299Z</time></trkpt><trkpt lat="38.0112783" lon="13.6132934"><ele>51.0</ele><time>2026-04-26T11:18:40.299Z</time></trkpt><trkpt lat="38.0114472" lon="13.6130463"><ele>51.0</ele><time>2026-04-26T11:18:41.299Z</time></trkpt><trkpt lat="38.0116139" lon="13.612794"><ele>56.0</ele><time>2026-04-26T11:18:42.299Z</time></trkpt><trkpt lat="38.0117797" lon="13.6125433"><ele>61.0</ele><time>2026-04-26T11:18:43.299Z</time></trkpt><trkpt lat="38.0119253" lon="13.6122987"><ele>61.0</ele><time>2026-04-26T11:18:44.299Z</time></trkpt><trkpt lat="38.012105" lon="13.6120479"><ele>61.0</ele><time>2026-04-26T11:18:45.299Z</time></trkpt><trkpt lat="38.0122693" lon="13.6118117"><ele>59.0</ele><time>2026-04-26T11:18:46.299Z</time></trkpt><trkpt lat="38.0124247" lon="13.6115637"><ele>57.0</ele><time>2026-04-26T11:18:47.299Z</time></trkpt><trkpt lat="38.0125886" lon="13.6113115"><ele>61.5</ele><time>2026-04-26T11:18:48.298Z</time></trkpt><trkpt lat="38.0127373" lon="13.6110618"><ele>66.0</ele><time>2026-04-26T11:18:49.299Z</time></trkpt><trkpt lat="38.0128914" lon="13.6108124"><ele>66.0</ele><time>2026-04-26T11:18:50.299Z</time></trkpt><trkpt lat="38.0130496" lon="13.6105635"><ele>66.0</ele><time>2026-04-26T11:18:51.299Z</time></trkpt><trkpt lat="38.0132054" lon="13.6103172"><ele>63.5</ele><time>2026-04-26T11:18:52.299Z</time></trkpt><trkpt lat="38.013361" lon="13.6100667"><ele>61.0</ele><time>2026-04-26T11:18:53.299Z</time></trkpt><trkpt lat="38.013514" lon="13.6098151"><ele>61.0</ele><time>2026-04-26T11:18:54.299Z</time></trkpt><trkpt lat="38.0136669" lon="13.6095654"><ele>61.0</ele><time>2026-04-26T11:18:55.299Z</time></trkpt><trkpt lat="38.0138198" lon="13.6093146"><ele>62.5</ele><time>2026-04-26T11:18:56.299Z</time></trkpt><trkpt lat="38.013978" lon="13.6090761"><ele>64.0</ele><time>2026-04-26T11:18:57.299Z</time></trkpt><trkpt lat="38.0141326" lon="13.6088308"><ele>69.0</ele><time>2026-04-26T11:18:58.299Z</time></trkpt><trkpt lat="38.0142943" lon="13.6085719"><ele>74.0</ele><time>2026-04-26T11:18:59.299Z</time></trkpt><trkpt lat="38.0144565" lon="13.6083312"><ele>74.0</ele><time>2026-04-26T11:19:00.299Z</time></trkpt><trkpt lat="38.0146307" lon="13.6080883"><ele>74.0</ele><time>2026-04-26T11:19:01.299Z</time></trkpt><trkpt lat="38.0148035" lon="13.6078503"><ele>75.5</ele><time>2026-04-26T11:19:02.299Z</time></trkpt><trkpt lat="38.0149829" lon="13.6076137"><ele>77.0</ele><time>2026-04-26T11:19:03.299Z</time></trkpt><trkpt lat="38.0151604" lon="13.607372"><ele>77.0</ele><time>2026-04-26T11:19:04.299Z</time></trkpt><trkpt lat="38.015334" lon="13.6071446"><ele>77.0</ele><time>2026-04-26T11:19:05.299Z</time></trkpt><trkpt lat="38.0155037" lon="13.606911"><ele>76.5</ele><time>2026-04-26T11:19:06.299Z</time></trkpt><trkpt lat="38.0156751" lon="13.6066851"><ele>76.0</ele><time>2026-04-26T11:19:07.299Z</time></trkpt><trkpt lat="38.0158539" lon="13.6064342"><ele>76.0</ele><time>2026-04-26T11:19:08.299Z</time></trkpt><trkpt lat="38.0160347" lon="13.6062098"><ele>76.0</ele><time>2026-04-26T11:19:09.299Z</time></trkpt><trkpt lat="38.0162126" lon="13.605986"><ele>79.0</ele><time>2026-04-26T11:19:10.299Z</time></trkpt><trkpt lat="38.0163928" lon="13.6057511"><ele>82.0</ele><time>2026-04-26T11:19:11.299Z</time></trkpt><trkpt lat="38.0165737" lon="13.6055346"><ele>80.5</ele><time>2026-04-26T11:19:12.299Z</time></trkpt><trkpt lat="38.016748" lon="13.6053088"><ele>79.0</ele><time>2026-04-26T11:19:13.299Z</time></trkpt><trkpt lat="38.0169217" lon="13.6050666"><ele>79.0</ele><time>2026-04-26T11:19:14.299Z</time></trkpt><trkpt lat="38.0170931" lon="13.6048472"><ele>79.0</ele><time>2026-04-26T11:19:15.299Z</time></trkpt><trkpt lat="38.0172619" lon="13.6046209"><ele>79.5</ele><time>2026-04-26T11:19:16.299Z</time></trkpt><trkpt lat="38.0174323" lon="13.604399"><ele>80.0</ele><time>2026-04-26T11:19:17.299Z</time></trkpt><trkpt lat="38.0176069" lon="13.6041792"><ele>80.0</ele><time>2026-04-26T11:19:18.299Z</time></trkpt><trkpt lat="38.0177787" lon="13.6039537"><ele>80.0</ele><time>2026-04-26T11:19:19.299Z</time></trkpt><trkpt lat="38.0179526" lon="13.6037278"><ele>84.5</ele><time>2026-04-26T11:19:20.299Z</time></trkpt><trkpt lat="38.018123" lon="13.6035011"><ele>89.0</ele><time>2026-04-26T11:19:21.299Z</time></trkpt><trkpt lat="38.0182948" lon="13.6032739"><ele>89.5</ele><time>2026-04-26T11:19:22.299Z</time></trkpt><trkpt lat="38.0184648" lon="13.6030381"><ele>90.0</ele><time>2026-04-26T11:19:23.299Z</time></trkpt><trkpt lat="38.0186304" lon="13.6028049"><ele>90.0</ele><time>2026-04-26T11:19:24.299Z</time></trkpt><trkpt lat="38.018791" lon="13.602555"><ele>90.0</ele><time>2026-04-26T11:19:25.299Z</time></trkpt><trkpt lat="38.0189347" lon="13.6022925"><ele>90.0</ele><time>2026-04-26T11:19:26.299Z</time></trkpt><trkpt lat="38.0190822" lon="13.6020293"><ele>90.0</ele><time>2026-04-26T11:19:27.299Z</time></trkpt><trkpt lat="38.0192189" lon="13.6017566"><ele>94.0</ele><time>2026-04-26T11:19:28.299Z</time></trkpt><trkpt lat="38.0193523" lon="13.6014808"><ele>98.0</ele><time>2026-04-26T11:19:29.299Z</time></trkpt><trkpt lat="38.0194835" lon="13.6012015"><ele>102.5</ele><time>2026-04-26T11:19:30.299Z</time></trkpt><trkpt lat="38.0196108" lon="13.6009149"><ele>107.0</ele><time>2026-04-26T11:19:31.299Z</time></trkpt><trkpt lat="38.0197291" lon="13.600621"><ele>109.5</ele><time>2026-04-26T11:19:32.299Z</time></trkpt><trkpt lat="38.0198356" lon="13.6003283"><ele>112.0</ele><time>2026-04-26T11:19:33.299Z</time></trkpt><trkpt lat="38.0199369" lon="13.6000349"><ele>108.0</ele><time>2026-04-26T11:19:34.299Z</time></trkpt><trkpt lat="38.0200361" lon="13.5997343"><ele>104.0</ele><time>2026-04-26T11:19:35.299Z</time></trkpt><trkpt lat="38.0201141" lon="13.599432"><ele>104.0</ele><time>2026-04-26T11:19:36.299Z</time></trkpt><trkpt lat="38.0201951" lon="13.5991268"><ele>104.0</ele><time>2026-04-26T11:19:37.299Z</time></trkpt><trkpt lat="38.0202697" lon="13.5988166"><ele>105.0</ele><time>2026-04-26T11:19:38.299Z</time></trkpt><trkpt lat="38.0203365" lon="13.598514"><ele>106.0</ele><time>2026-04-26T11:19:39.298Z</time></trkpt><trkpt lat="38.0203979" lon="13.5982085"><ele>106.0</ele><time>2026-04-26T11:19:40.299Z</time></trkpt><trkpt lat="38.0204575" lon="13.5978997"><ele>106.0</ele><time>2026-04-26T11:19:41.299Z</time></trkpt><trkpt lat="38.0205045" lon="13.5975917"><ele>106.0</ele><time>2026-04-26T11:19:42.299Z</time></trkpt><trkpt lat="38.020544" lon="13.5972815"><ele>106.0</ele><time>2026-04-26T11:19:43.298Z</time></trkpt><trkpt lat="38.0205806" lon="13.5969673"><ele>103.5</ele><time>2026-04-26T11:19:44.299Z</time></trkpt><trkpt lat="38.0206094" lon="13.5966543"><ele>101.0</ele><time>2026-04-26T11:19:45.299Z</time></trkpt><trkpt lat="38.0206366" lon="13.5963397"><ele>98.5</ele><time>2026-04-26T11:19:46.299Z</time></trkpt><trkpt lat="38.0206592" lon="13.5960193"><ele>96.0</ele><time>2026-04-26T11:19:47.299Z</time></trkpt><trkpt lat="38.0206889" lon="13.5957054"><ele>96.0</ele><time>2026-04-26T11:19:48.299Z</time></trkpt><trkpt lat="38.0207101" lon="13.5953881"><ele>96.0</ele><time>2026-04-26T11:19:49.299Z</time></trkpt><trkpt lat="38.0207435" lon="13.5950651"><ele>104.0</ele><time>2026-04-26T11:19:50.298Z</time></trkpt><trkpt lat="38.0207749" lon="13.5947533"><ele>112.0</ele><time>2026-04-26T11:19:51.299Z</time></trkpt><trkpt lat="38.0208067" lon="13.5944295"><ele>114.0</ele><time>2026-04-26T11:19:52.299Z</time></trkpt><trkpt lat="38.0208422" lon="13.5940943"><ele>116.0</ele><time>2026-04-26T11:19:53.299Z</time></trkpt><trkpt lat="38.0208836" lon="13.5937785"><ele>115.5</ele><time>2026-04-26T11:19:54.299Z</time></trkpt><trkpt lat="38.0208974" lon="13.5934765"><ele>115.0</ele><time>2026-04-26T11:19:55.299Z</time></trkpt><trkpt lat="38.0209523" lon="13.5931663"><ele>115.0</ele><time>2026-04-26T11:19:56.299Z</time></trkpt><trkpt lat="38.0210103" lon="13.5928445"><ele>115.0</ele><time>2026-04-26T11:19:57.299Z</time></trkpt><trkpt lat="38.0210777" lon="13.5925318"><ele>114.5</ele><time>2026-04-26T11:19:58.299Z</time></trkpt><trkpt lat="38.0211438" lon="13.5922179"><ele>114.0</ele><time>2026-04-26T11:19:59.299Z</time></trkpt><trkpt lat="38.0212182" lon="13.5919121"><ele>113.0</ele><time>2026-04-26T11:20:00.299Z</time></trkpt><trkpt lat="38.0213024" lon="13.5916008"><ele>112.0</ele><time>2026-04-26T11:20:01.299Z</time></trkpt><trkpt lat="38.0213875" lon="13.5912987"><ele>112.0</ele><time>2026-04-26T11:20:02.299Z</time></trkpt><trkpt lat="38.0214829" lon="13.5910065"><ele>112.0</ele><time>2026-04-26T11:20:03.299Z</time></trkpt><trkpt lat="38.0215776" lon="13.5907271"><ele>107.5</ele><time>2026-04-26T11:20:04.299Z</time></trkpt><trkpt lat="38.0217006" lon="13.590402"><ele>103.0</ele><time>2026-04-26T11:20:05.299Z</time></trkpt><trkpt lat="38.0218103" lon="13.5901109"><ele>100.5</ele><time>2026-04-26T11:20:06.299Z</time></trkpt><trkpt lat="38.0219403" lon="13.5898304"><ele>98.0</ele><time>2026-04-26T11:20:07.299Z</time></trkpt><trkpt lat="38.0220758" lon="13.5895564"><ele>95.0</ele><time>2026-04-26T11:20:08.299Z</time></trkpt><trkpt lat="38.0222149" lon="13.5892869"><ele>92.0</ele><time>2026-04-26T11:20:09.299Z</time></trkpt><trkpt lat="38.0223548" lon="13.5890185"><ele>93.5</ele><time>2026-04-26T11:20:10.299Z</time></trkpt><trkpt lat="38.0225" lon="13.5887536"><ele>95.0</ele><time>2026-04-26T11:20:11.299Z</time></trkpt><trkpt lat="38.0226419" lon="13.5884865"><ele>95.0</ele><time>2026-04-26T11:20:12.299Z</time></trkpt><trkpt lat="38.0227839" lon="13.5882215"><ele>95.0</ele><time>2026-04-26T11:20:13.299Z</time></trkpt><trkpt lat="38.0229267" lon="13.5879606"><ele>96.5</ele><time>2026-04-26T11:20:14.299Z</time></trkpt><trkpt lat="38.0230676" lon="13.5877016"><ele>98.0</ele><time>2026-04-26T11:20:15.299Z</time></trkpt><trkpt lat="38.0232029" lon="13.5874364"><ele>97.5</ele><time>2026-04-26T11:20:16.299Z</time></trkpt><trkpt lat="38.0233403" lon="13.5871805"><ele>97.0</ele><time>2026-04-26T11:20:17.299Z</time></trkpt><trkpt lat="38.0234813" lon="13.5869189"><ele>99.0</ele><time>2026-04-26T11:20:18.299Z</time></trkpt><trkpt lat="38.0236199" lon="13.5866592"><ele>101.0</ele><time>2026-04-26T11:20:19.299Z</time></trkpt><trkpt lat="38.0237552" lon="13.5863964"><ele>103.0</ele><time>2026-04-26T11:20:20.299Z</time></trkpt><trkpt lat="38.0238929" lon="13.5861336"><ele>105.0</ele><time>2026-04-26T11:20:21.299Z</time></trkpt><trkpt lat="38.0240305" lon="13.5858764"><ele>104.5</ele><time>2026-04-26T11:20:22.299Z</time></trkpt><trkpt lat="38.024167" lon="13.5856166"><ele>104.0</ele><time>2026-04-26T11:20:23.299Z</time></trkpt><trkpt lat="38.024304" lon="13.5853548"><ele>106.0</ele><time>2026-04-26T11:20:24.299Z</time></trkpt><trkpt lat="38.0244413" lon="13.5850911"><ele>108.0</ele><time>2026-04-26T11:20:25.298Z</time></trkpt><trkpt lat="38.0245795" lon="13.5848216"><ele>108.0</ele><time>2026-04-26T11:20:26.299Z</time></trkpt><trkpt lat="38.024716" lon="13.5845511"><ele>108.0</ele><time>2026-04-26T11:20:27.299Z</time></trkpt><trkpt lat="38.0248551" lon="13.5842883"><ele>106.5</ele><time>2026-04-26T11:20:28.299Z</time></trkpt><trkpt lat="38.0249971" lon="13.5840211"><ele>105.0</ele><time>2026-04-26T11:20:29.299Z</time></trkpt><trkpt lat="38.0251406" lon="13.5837523"><ele>104.5</ele><time>2026-04-26T11:20:30.299Z</time></trkpt><trkpt lat="38.0252844" lon="13.5834845"><ele>104.0</ele><time>2026-04-26T11:20:31.299Z</time></trkpt><trkpt lat="38.0254233" lon="13.5832175"><ele>104.0</ele><time>2026-04-26T11:20:32.299Z</time></trkpt><trkpt lat="38.0255644" lon="13.5829462"><ele>104.0</ele><time>2026-04-26T11:20:33.299Z</time></trkpt><trkpt lat="38.0257061" lon="13.5826726"><ele>101.5</ele><time>2026-04-26T11:20:34.299Z</time></trkpt><trkpt lat="38.0258474" lon="13.5824032"><ele>99.0</ele><time>2026-04-26T11:20:35.299Z</time></trkpt><trkpt lat="38.0259918" lon="13.582133"><ele>98.5</ele><time>2026-04-26T11:20:36.299Z</time></trkpt><trkpt lat="38.0261368" lon="13.5818633"><ele>98.0</ele><time>2026-04-26T11:20:37.299Z</time></trkpt><trkpt lat="38.0262805" lon="13.5815933"><ele>98.0</ele><time>2026-04-26T11:20:38.299Z</time></trkpt><trkpt lat="38.0264217" lon="13.5813226"><ele>98.0</ele><time>2026-04-26T11:20:39.299Z</time></trkpt><trkpt lat="38.0265666" lon="13.5810545"><ele>95.5</ele><time>2026-04-26T11:20:40.299Z</time></trkpt><trkpt lat="38.0267125" lon="13.5807831"><ele>93.0</ele><time>2026-04-26T11:20:41.299Z</time></trkpt><trkpt lat="38.0268585" lon="13.5805121"><ele>92.5</ele><time>2026-04-26T11:20:42.299Z</time></trkpt><trkpt lat="38.0270025" lon="13.5802368"><ele>92.0</ele><time>2026-04-26T11:20:43.299Z</time></trkpt><trkpt lat="38.0271442" lon="13.579959"><ele>92.0</ele><time>2026-04-26T11:20:44.299Z</time></trkpt><trkpt lat="38.0272835" lon="13.5796814"><ele>92.0</ele><time>2026-04-26T11:20:45.298Z</time></trkpt><trkpt lat="38.0274258" lon="13.5794068"><ele>89.0</ele><time>2026-04-26T11:20:46.299Z</time></trkpt><trkpt lat="38.0275698" lon="13.5791301"><ele>86.0</ele><time>2026-04-26T11:20:47.299Z</time></trkpt><trkpt lat="38.0277181" lon="13.5788556"><ele>86.5</ele><time>2026-04-26T11:20:48.299Z</time></trkpt><trkpt lat="38.0278677" lon="13.5785801"><ele>87.0</ele><time>2026-04-26T11:20:49.299Z</time></trkpt><trkpt lat="38.0280157" lon="13.5783001"><ele>87.0</ele><time>2026-04-26T11:20:50.299Z</time></trkpt><trkpt lat="38.0281609" lon="13.5780189"><ele>87.0</ele><time>2026-04-26T11:20:51.299Z</time></trkpt><trkpt lat="38.0283052" lon="13.577738"><ele>84.5</ele><time>2026-04-26T11:20:52.299Z</time></trkpt><trkpt lat="38.0284524" lon="13.5774559"><ele>82.0</ele><time>2026-04-26T11:20:53.299Z</time></trkpt><trkpt lat="38.0286009" lon="13.5771705"><ele>83.0</ele><time>2026-04-26T11:20:54.299Z</time></trkpt><trkpt lat="38.0287514" lon="13.5768868"><ele>84.0</ele><time>2026-04-26T11:20:55.299Z</time></trkpt><trkpt lat="38.0289002" lon="13.5766027"><ele>84.0</ele><time>2026-04-26T11:20:56.299Z</time></trkpt><trkpt lat="38.0290495" lon="13.5763194"><ele>84.0</ele><time>2026-04-26T11:20:57.299Z</time></trkpt><trkpt lat="38.0291997" lon="13.5760365"><ele>82.0</ele><time>2026-04-26T11:20:58.298Z</time></trkpt><trkpt lat="38.0293467" lon="13.5757488"><ele>80.0</ele><time>2026-04-26T11:20:59.299Z</time></trkpt><trkpt lat="38.0294963" lon="13.5754666"><ele>81.5</ele><time>2026-04-26T11:21:00.299Z</time></trkpt><trkpt lat="38.0296439" lon="13.5751859"><ele>83.0</ele><time>2026-04-26T11:21:01.299Z</time></trkpt><trkpt lat="38.0297955" lon="13.5749104"><ele>83.0</ele><time>2026-04-26T11:21:02.299Z</time></trkpt><trkpt lat="38.029944" lon="13.5746312"><ele>83.0</ele><time>2026-04-26T11:21:03.299Z</time></trkpt><trkpt lat="38.0300904" lon="13.574351"><ele>81.0</ele><time>2026-04-26T11:21:04.299Z</time></trkpt><trkpt lat="38.0302364" lon="13.5740729"><ele>79.0</ele><time>2026-04-26T11:21:05.299Z</time></trkpt><trkpt lat="38.0303795" lon="13.5737964"><ele>78.5</ele><time>2026-04-26T11:21:06.299Z</time></trkpt><trkpt lat="38.0305264" lon="13.5735233"><ele>78.0</ele><time>2026-04-26T11:21:07.299Z</time></trkpt><trkpt lat="38.0306684" lon="13.5732541"><ele>75.5</ele><time>2026-04-26T11:21:08.299Z</time></trkpt><trkpt lat="38.0308095" lon="13.5729966"><ele>73.0</ele><time>2026-04-26T11:21:09.299Z</time></trkpt><trkpt lat="38.0309441" lon="13.5727418"><ele>73.0</ele><time>2026-04-26T11:21:10.299Z</time></trkpt><trkpt lat="38.0310728" lon="13.5724932"><ele>73.0</ele><time>2026-04-26T11:21:11.299Z</time></trkpt><trkpt lat="38.0312021" lon="13.572251"><ele>75.0</ele><time>2026-04-26T11:21:12.299Z</time></trkpt><trkpt lat="38.0313305" lon="13.5720079"><ele>77.0</ele><time>2026-04-26T11:21:13.299Z</time></trkpt><trkpt lat="38.0314587" lon="13.5717652"><ele>77.0</ele><time>2026-04-26T11:21:14.299Z</time></trkpt><trkpt lat="38.0315845" lon="13.5715282"><ele>77.0</ele><time>2026-04-26T11:21:15.299Z</time></trkpt><trkpt lat="38.0317076" lon="13.571289"><ele>77.5</ele><time>2026-04-26T11:21:16.299Z</time></trkpt><trkpt lat="38.0318317" lon="13.5710473"><ele>78.0</ele><time>2026-04-26T11:21:17.299Z</time></trkpt><trkpt lat="38.0319557" lon="13.5708044"><ele>78.0</ele><time>2026-04-26T11:21:18.299Z</time></trkpt><trkpt lat="38.0320813" lon="13.5705601"><ele>78.0</ele><time>2026-04-26T11:21:19.299Z</time></trkpt><trkpt lat="38.0322093" lon="13.5703123"><ele>78.0</ele><time>2026-04-26T11:21:20.299Z</time></trkpt><trkpt lat="38.0323426" lon="13.5700613"><ele>78.0</ele><time>2026-04-26T11:21:21.299Z</time></trkpt><trkpt lat="38.0324776" lon="13.5698054"><ele>77.0</ele><time>2026-04-26T11:21:22.299Z</time></trkpt><trkpt lat="38.0326145" lon="13.5695495"><ele>76.0</ele><time>2026-04-26T11:21:23.299Z</time></trkpt><trkpt lat="38.032754" lon="13.5692861"><ele>76.0</ele><time>2026-04-26T11:21:24.299Z</time></trkpt><trkpt lat="38.0328932" lon="13.5690248"><ele>76.0</ele><time>2026-04-26T11:21:25.299Z</time></trkpt><trkpt lat="38.0330289" lon="13.5687566"><ele>77.0</ele><time>2026-04-26T11:21:26.299Z</time></trkpt><trkpt lat="38.0331724" lon="13.5684841"><ele>78.0</ele><time>2026-04-26T11:21:27.298Z</time></trkpt><trkpt lat="38.0333176" lon="13.5682151"><ele>76.0</ele><time>2026-04-26T11:21:28.298Z</time></trkpt><trkpt lat="38.0334644" lon="13.5679402"><ele>74.0</ele><time>2026-04-26T11:21:29.298Z</time></trkpt><trkpt lat="38.0336122" lon="13.5676653"><ele>74.0</ele><time>2026-04-26T11:21:30.299Z</time></trkpt><trkpt lat="38.0337584" lon="13.5673857"><ele>74.0</ele><time>2026-04-26T11:21:31.299Z</time></trkpt><trkpt lat="38.0339089" lon="13.5671044"><ele>73.5</ele><time>2026-04-26T11:21:32.299Z</time></trkpt><trkpt lat="38.0340574" lon="13.5668238"><ele>73.0</ele><time>2026-04-26T11:21:33.299Z</time></trkpt><trkpt lat="38.0342072" lon="13.5665548"><ele>73.0</ele><time>2026-04-26T11:21:34.299Z</time></trkpt><trkpt lat="38.0343627" lon="13.5662892"><ele>73.0</ele><time>2026-04-26T11:21:35.299Z</time></trkpt><trkpt lat="38.0345201" lon="13.5660385"><ele>73.0</ele><time>2026-04-26T11:21:36.299Z</time></trkpt><trkpt lat="38.034686" lon="13.5657939"><ele>73.0</ele><time>2026-04-26T11:21:37.299Z</time></trkpt><trkpt lat="38.0348592" lon="13.56556"><ele>72.5</ele><time>2026-04-26T11:21:38.299Z</time></trkpt><trkpt lat="38.0350381" lon="13.5653382"><ele>72.0</ele><time>2026-04-26T11:21:39.299Z</time></trkpt><trkpt lat="38.0352187" lon="13.5651264"><ele>72.0</ele><time>2026-04-26T11:21:40.299Z</time></trkpt><trkpt lat="38.0354062" lon="13.5649147"><ele>72.0</ele><time>2026-04-26T11:21:41.298Z</time></trkpt><trkpt lat="38.0356018" lon="13.5647065"><ele>73.5</ele><time>2026-04-26T11:21:42.299Z</time></trkpt><trkpt lat="38.0357967" lon="13.5644999"><ele>75.0</ele><time>2026-04-26T11:21:43.298Z</time></trkpt><trkpt lat="38.0359917" lon="13.5642949"><ele>71.5</ele><time>2026-04-26T11:21:44.299Z</time></trkpt><trkpt lat="38.0362018" lon="13.5641037"><ele>68.0</ele><time>2026-04-26T11:21:45.299Z</time></trkpt><trkpt lat="38.0364216" lon="13.5639194"><ele>63.5</ele><time>2026-04-26T11:21:46.299Z</time></trkpt><trkpt lat="38.0366458" lon="13.5637402"><ele>59.0</ele><time>2026-04-26T11:21:47.299Z</time></trkpt><trkpt lat="38.036875" lon="13.563571"><ele>59.0</ele><time>2026-04-26T11:21:48.299Z</time></trkpt><trkpt lat="38.0371072" lon="13.5634064"><ele>59.0</ele><time>2026-04-26T11:21:49.299Z</time></trkpt><trkpt lat="38.037336" lon="13.5632445"><ele>48.0</ele><time>2026-04-26T11:21:50.299Z</time></trkpt><trkpt lat="38.0377905" lon="13.5629283"><ele>39.0</ele><time>2026-04-26T11:21:52.299Z</time></trkpt><trkpt lat="38.0380156" lon="13.5627632"><ele>30.0</ele><time>2026-04-26T11:21:53.298Z</time></trkpt><trkpt lat="38.0382389" lon="13.56259"><ele>29.0</ele><time>2026-04-26T11:21:54.299Z</time></trkpt><trkpt lat="38.0384574" lon="13.5624138"><ele>28.0</ele><time>2026-04-26T11:21:55.299Z</time></trkpt><trkpt lat="38.0386701" lon="13.5622304"><ele>28.0</ele><time>2026-04-26T11:21:56.299Z</time></trkpt><trkpt lat="38.0388778" lon="13.5620399"><ele>28.0</ele><time>2026-04-26T11:21:57.299Z</time></trkpt><trkpt lat="38.039085" lon="13.5618462"><ele>39.5</ele><time>2026-04-26T11:21:58.299Z</time></trkpt><trkpt lat="38.0392947" lon="13.5616448"><ele>51.0</ele><time>2026-04-26T11:21:59.299Z</time></trkpt><trkpt lat="38.0395008" lon="13.5614303"><ele>51.0</ele><time>2026-04-26T11:22:00.298Z</time></trkpt><trkpt lat="38.0397086" lon="13.5612147"><ele>51.0</ele><time>2026-04-26T11:22:01.299Z</time></trkpt><trkpt lat="38.0399132" lon="13.5609911"><ele>50.5</ele><time>2026-04-26T11:22:02.299Z</time></trkpt><trkpt lat="38.0401116" lon="13.5607676"><ele>50.0</ele><time>2026-04-26T11:22:03.299Z</time></trkpt><trkpt lat="38.0403054" lon="13.5605408"><ele>52.5</ele><time>2026-04-26T11:22:04.298Z</time></trkpt><trkpt lat="38.0404962" lon="13.5603083"><ele>55.0</ele><time>2026-04-26T11:22:05.299Z</time></trkpt><trkpt lat="38.0406832" lon="13.5600661"><ele>45.5</ele><time>2026-04-26T11:22:06.299Z</time></trkpt><trkpt lat="38.0408639" lon="13.5598189"><ele>36.0</ele><time>2026-04-26T11:22:07.298Z</time></trkpt><trkpt lat="38.0410414" lon="13.5595646"><ele>37.5</ele><time>2026-04-26T11:22:08.299Z</time></trkpt><trkpt lat="38.0412171" lon="13.5593054"><ele>39.0</ele><time>2026-04-26T11:22:09.299Z</time></trkpt><trkpt lat="38.0413836" lon="13.5590526"><ele>39.0</ele><time>2026-04-26T11:22:10.299Z</time></trkpt><trkpt lat="38.0415454" lon="13.5587973"><ele>39.0</ele><time>2026-04-26T11:22:11.299Z</time></trkpt><trkpt lat="38.0417074" lon="13.558539"><ele>43.0</ele><time>2026-04-26T11:22:12.299Z</time></trkpt><trkpt lat="38.0418683" lon="13.5582805"><ele>47.0</ele><time>2026-04-26T11:22:13.299Z</time></trkpt><trkpt lat="38.0420323" lon="13.5580174"><ele>51.5</ele><time>2026-04-26T11:22:14.299Z</time></trkpt><trkpt lat="38.0421978" lon="13.5577568"><ele>56.0</ele><time>2026-04-26T11:22:15.299Z</time></trkpt><trkpt lat="38.0423617" lon="13.5574945"><ele>44.0</ele><time>2026-04-26T11:22:16.299Z</time></trkpt><trkpt lat="38.0425291" lon="13.5572269"><ele>32.0</ele><time>2026-04-26T11:22:17.299Z</time></trkpt><trkpt lat="38.0426949" lon="13.5569626"><ele>32.0</ele><time>2026-04-26T11:22:18.299Z</time></trkpt><trkpt lat="38.0428607" lon="13.5566998"><ele>32.0</ele><time>2026-04-26T11:22:19.299Z</time></trkpt><trkpt lat="38.0430342" lon="13.556442"><ele>30.0</ele><time>2026-04-26T11:22:20.299Z</time></trkpt><trkpt lat="38.0432072" lon="13.5561914"><ele>28.0</ele><time>2026-04-26T11:22:21.299Z</time></trkpt><trkpt lat="38.0433868" lon="13.555955"><ele>28.0</ele><time>2026-04-26T11:22:22.299Z</time></trkpt><trkpt lat="38.043575" lon="13.5557254"><ele>28.0</ele><time>2026-04-26T11:22:23.299Z</time></trkpt><trkpt lat="38.0437666" lon="13.5554993"><ele>26.5</ele><time>2026-04-26T11:22:24.299Z</time></trkpt><trkpt lat="38.0439561" lon="13.5552756"><ele>25.0</ele><time>2026-04-26T11:22:25.299Z</time></trkpt><trkpt lat="38.0441446" lon="13.5550587"><ele>25.0</ele><time>2026-04-26T11:22:26.299Z</time></trkpt><trkpt lat="38.0443323" lon="13.5548386"><ele>25.0</ele><time>2026-04-26T11:22:27.299Z</time></trkpt><trkpt lat="38.0445195" lon="13.5546129"><ele>27.5</ele><time>2026-04-26T11:22:28.299Z</time></trkpt><trkpt lat="38.0447055" lon="13.554382"><ele>30.0</ele><time>2026-04-26T11:22:29.299Z</time></trkpt><trkpt lat="38.0448949" lon="13.5541449"><ele>27.0</ele><time>2026-04-26T11:22:30.299Z</time></trkpt><trkpt lat="38.0450854" lon="13.553916"><ele>24.0</ele><time>2026-04-26T11:22:31.298Z</time></trkpt><trkpt lat="38.0452775" lon="13.5536836"><ele>24.0</ele><time>2026-04-26T11:22:32.299Z</time></trkpt><trkpt lat="38.0454741" lon="13.5534514"><ele>24.0</ele><time>2026-04-26T11:22:33.298Z</time></trkpt><trkpt lat="38.045672" lon="13.553223"><ele>23.5</ele><time>2026-04-26T11:22:34.299Z</time></trkpt><trkpt lat="38.04586" lon="13.5529975"><ele>23.0</ele><time>2026-04-26T11:22:35.299Z</time></trkpt><trkpt lat="38.0460444" lon="13.5527758"><ele>23.0</ele><time>2026-04-26T11:22:36.299Z</time></trkpt><trkpt lat="38.0462253" lon="13.5525575"><ele>23.0</ele><time>2026-04-26T11:22:37.299Z</time></trkpt><trkpt lat="38.0464052" lon="13.5523377"><ele>23.0</ele><time>2026-04-26T11:22:38.299Z</time></trkpt><trkpt lat="38.046585" lon="13.5521197"><ele>23.0</ele><time>2026-04-26T11:22:39.299Z</time></trkpt><trkpt lat="38.0467663" lon="13.5519035"><ele>22.0</ele><time>2026-04-26T11:22:40.299Z</time></trkpt><trkpt lat="38.0469444" lon="13.5516927"><ele>21.0</ele><time>2026-04-26T11:22:41.299Z</time></trkpt><trkpt lat="38.047121" lon="13.5514751"><ele>21.0</ele><time>2026-04-26T11:22:42.299Z</time></trkpt><trkpt lat="38.0472994" lon="13.5512576"><ele>21.0</ele><time>2026-04-26T11:22:43.298Z</time></trkpt><trkpt lat="38.0474786" lon="13.5510435"><ele>20.0</ele><time>2026-04-26T11:22:44.299Z</time></trkpt><trkpt lat="38.0476565" lon="13.5508288"><ele>19.0</ele><time>2026-04-26T11:22:45.299Z</time></trkpt><trkpt lat="38.0478316" lon="13.5506106"><ele>19.0</ele><time>2026-04-26T11:22:46.299Z</time></trkpt><trkpt lat="38.0480088" lon="13.5503971"><ele>19.0</ele><time>2026-04-26T11:22:47.299Z</time></trkpt><trkpt lat="38.048187" lon="13.5501812"><ele>19.5</ele><time>2026-04-26T11:22:48.299Z</time></trkpt><trkpt lat="38.048358" lon="13.5499571"><ele>20.0</ele><time>2026-04-26T11:22:49.299Z</time></trkpt><trkpt lat="38.0485219" lon="13.5497197"><ele>21.5</ele><time>2026-04-26T11:22:50.299Z</time></trkpt><trkpt lat="38.0486841" lon="13.5494765"><ele>23.0</ele><time>2026-04-26T11:22:51.299Z</time></trkpt><trkpt lat="38.0488393" lon="13.5492249"><ele>23.0</ele><time>2026-04-26T11:22:52.299Z</time></trkpt><trkpt lat="38.0489959" lon="13.5489776"><ele>23.0</ele><time>2026-04-26T11:22:53.299Z</time></trkpt><trkpt lat="38.0491565" lon="13.5487328"><ele>18.0</ele><time>2026-04-26T11:22:54.298Z</time></trkpt><trkpt lat="38.049318" lon="13.5484891"><ele>13.0</ele><time>2026-04-26T11:22:55.299Z</time></trkpt><trkpt lat="38.0494764" lon="13.5482531"><ele>13.0</ele><time>2026-04-26T11:22:56.299Z</time></trkpt><trkpt lat="38.0496352" lon="13.5480157"><ele>13.0</ele><time>2026-04-26T11:22:57.299Z</time></trkpt><trkpt lat="38.0497963" lon="13.547779"><ele>13.5</ele><time>2026-04-26T11:22:58.299Z</time></trkpt><trkpt lat="38.0499559" lon="13.547541"><ele>14.0</ele><time>2026-04-26T11:22:59.299Z</time></trkpt><trkpt lat="38.0501718" lon="13.5473849"><ele>14.0</ele><time>2026-04-26T11:23:00.299Z</time></trkpt><trkpt lat="38.050328" lon="13.5471385"><ele>14.0</ele><time>2026-04-26T11:23:01.299Z</time></trkpt><trkpt lat="38.0504824" lon="13.5468887"><ele>15.0</ele><time>2026-04-26T11:23:02.298Z</time></trkpt><trkpt lat="38.0506371" lon="13.5466431"><ele>16.0</ele><time>2026-04-26T11:23:03.299Z</time></trkpt><trkpt lat="38.0507869" lon="13.5464021"><ele>29.0</ele><time>2026-04-26T11:23:04.299Z</time></trkpt><trkpt lat="38.0509337" lon="13.5461629"><ele>42.0</ele><time>2026-04-26T11:23:05.299Z</time></trkpt><trkpt lat="38.0510698" lon="13.545929"><ele>42.0</ele><time>2026-04-26T11:23:06.299Z</time></trkpt><trkpt lat="38.0512146" lon="13.545704"><ele>42.0</ele><time>2026-04-26T11:23:07.299Z</time></trkpt><trkpt lat="38.0513506" lon="13.5454924"><ele>42.0</ele><time>2026-04-26T11:23:08.299Z</time></trkpt><trkpt lat="38.0514895" lon="13.5452985"><ele>39.666666666666664</ele><time>2026-04-26T11:23:09.299Z</time></trkpt><trkpt lat="38.0516206" lon="13.5451018"><ele>37.33333333333333</ele><time>2026-04-26T11:23:10.299Z</time></trkpt><trkpt lat="38.0517469" lon="13.5449091"><ele>35.0</ele><time>2026-04-26T11:23:11.299Z</time></trkpt><trkpt lat="38.0518719" lon="13.5447167"><ele>39.666666666666664</ele><time>2026-04-26T11:23:12.299Z</time></trkpt><trkpt lat="38.0519967" lon="13.5445189"><ele>44.33333333333333</ele><time>2026-04-26T11:23:13.299Z</time></trkpt><trkpt lat="38.05212" lon="13.544324"><ele>49.0</ele><time>2026-04-26T11:23:14.299Z</time></trkpt><trkpt lat="38.0522392" lon="13.5441349"><ele>49.0</ele><time>2026-04-26T11:23:15.299Z</time></trkpt><trkpt lat="38.0523547" lon="13.54395"><ele>49.0</ele><time>2026-04-26T11:23:16.299Z</time></trkpt><trkpt lat="38.0524718" lon="13.5437664"><ele>49.0</ele><time>2026-04-26T11:23:17.299Z</time></trkpt><trkpt lat="38.0525956" lon="13.5435791"><ele>43.0</ele><time>2026-04-26T11:23:18.299Z</time></trkpt><trkpt lat="38.0527258" lon="13.5433886"><ele>37.0</ele><time>2026-04-26T11:23:19.299Z</time></trkpt><trkpt lat="38.0528551" lon="13.5432113"><ele>31.0</ele><time>2026-04-26T11:23:20.299Z</time></trkpt><trkpt lat="38.0529888" lon="13.5430164"><ele>31.333333333333336</ele><time>2026-04-26T11:23:21.299Z</time></trkpt><trkpt lat="38.053123" lon="13.542817"><ele>31.666666666666664</ele><time>2026-04-26T11:23:22.299Z</time></trkpt><trkpt lat="38.0532557" lon="13.5426039"><ele>32.0</ele><time>2026-04-26T11:23:23.299Z</time></trkpt><trkpt lat="38.0533905" lon="13.5423975"><ele>32.666666666666664</ele><time>2026-04-26T11:23:24.299Z</time></trkpt><trkpt lat="38.0535306" lon="13.542186"><ele>33.333333333333336</ele><time>2026-04-26T11:23:25.299Z</time></trkpt><trkpt lat="38.053672" lon="13.5419708"><ele>34.0</ele><time>2026-04-26T11:23:26.299Z</time></trkpt><trkpt lat="38.0538174" lon="13.5417492"><ele>43.5</ele><time>2026-04-26T11:23:27.299Z</time></trkpt><trkpt lat="38.0539574" lon="13.5415231"><ele>53.0</ele><time>2026-04-26T11:23:28.299Z</time></trkpt><trkpt lat="38.0541081" lon="13.5412904"><ele>44.5</ele><time>2026-04-26T11:23:29.299Z</time></trkpt><trkpt lat="38.0542551" lon="13.5410637"><ele>36.0</ele><time>2026-04-26T11:23:30.299Z</time></trkpt><trkpt lat="38.0544071" lon="13.540828"><ele>36.0</ele><time>2026-04-26T11:23:31.299Z</time></trkpt><trkpt lat="38.0545557" lon="13.5405954"><ele>36.0</ele><time>2026-04-26T11:23:32.299Z</time></trkpt><trkpt lat="38.054708" lon="13.5403602"><ele>34.5</ele><time>2026-04-26T11:23:33.299Z</time></trkpt><trkpt lat="38.0548637" lon="13.540124"><ele>33.0</ele><time>2026-04-26T11:23:34.299Z</time></trkpt><trkpt lat="38.0550196" lon="13.5398881"><ele>41.5</ele><time>2026-04-26T11:23:35.299Z</time></trkpt><trkpt lat="38.0551757" lon="13.5396535"><ele>50.0</ele><time>2026-04-26T11:23:36.299Z</time></trkpt><trkpt lat="38.0553306" lon="13.5394151"><ele>50.5</ele><time>2026-04-26T11:23:37.298Z</time></trkpt><trkpt lat="38.0554902" lon="13.5391738"><ele>51.0</ele><time>2026-04-26T11:23:38.299Z</time></trkpt><trkpt lat="38.0556531" lon="13.5389331"><ele>56.5</ele><time>2026-04-26T11:23:39.299Z</time></trkpt><trkpt lat="38.0558099" lon="13.5386918"><ele>62.0</ele><time>2026-04-26T11:23:40.299Z</time></trkpt><trkpt lat="38.0559603" lon="13.5384538"><ele>62.0</ele><time>2026-04-26T11:23:41.299Z</time></trkpt><trkpt lat="38.0561153" lon="13.5382177"><ele>62.0</ele><time>2026-04-26T11:23:42.299Z</time></trkpt><trkpt lat="38.0562691" lon="13.537982"><ele>64.0</ele><time>2026-04-26T11:23:43.299Z</time></trkpt><trkpt lat="38.0564204" lon="13.5377456"><ele>66.0</ele><time>2026-04-26T11:23:44.299Z</time></trkpt><trkpt lat="38.0565677" lon="13.5375135"><ele>64.0</ele><time>2026-04-26T11:23:45.299Z</time></trkpt><trkpt lat="38.0567102" lon="13.5372826"><ele>62.0</ele><time>2026-04-26T11:23:46.299Z</time></trkpt><trkpt lat="38.05684" lon="13.537053"><ele>63.66666666666667</ele><time>2026-04-26T11:23:47.299Z</time></trkpt><trkpt lat="38.0569565" lon="13.5368219"><ele>65.33333333333333</ele><time>2026-04-26T11:23:48.299Z</time></trkpt><trkpt lat="38.0570733" lon="13.5366005"><ele>67.0</ele><time>2026-04-26T11:23:49.298Z</time></trkpt><trkpt lat="38.0571806" lon="13.5363845"><ele>67.33333333333333</ele><time>2026-04-26T11:23:50.299Z</time></trkpt><trkpt lat="38.0572755" lon="13.5361588"><ele>67.66666666666667</ele><time>2026-04-26T11:23:51.299Z</time></trkpt><trkpt lat="38.0573587" lon="13.5359302"><ele>68.0</ele><time>2026-04-26T11:23:52.299Z</time></trkpt><trkpt lat="38.0574661" lon="13.5356771"><ele>68.5</ele><time>2026-04-26T11:23:53.299Z</time></trkpt><trkpt lat="38.0575913" lon="13.5353792"><ele>69.0</ele><time>2026-04-26T11:23:54.299Z</time></trkpt><trkpt lat="38.057694" lon="13.5350976"><ele>69.0</ele><time>2026-04-26T11:23:55.299Z</time></trkpt><trkpt lat="38.0578022" lon="13.5348249"><ele>69.0</ele><time>2026-04-26T11:23:56.299Z</time></trkpt><trkpt lat="38.0579056" lon="13.534538"><ele>69.0</ele><time>2026-04-26T11:23:57.299Z</time></trkpt><trkpt lat="38.0580168" lon="13.5342473"><ele>69.0</ele><time>2026-04-26T11:23:58.299Z</time></trkpt><trkpt lat="38.058122" lon="13.5339482"><ele>68.0</ele><time>2026-04-26T11:23:59.299Z</time></trkpt><trkpt lat="38.0582284" lon="13.5336561"><ele>67.0</ele><time>2026-04-26T11:24:00.299Z</time></trkpt><trkpt lat="38.0583354" lon="13.5333525"><ele>65.5</ele><time>2026-04-26T11:24:01.299Z</time></trkpt><trkpt lat="38.0584445" lon="13.5330407"><ele>64.0</ele><time>2026-04-26T11:24:02.299Z</time></trkpt><trkpt lat="38.0585546" lon="13.5327276"><ele>64.0</ele><time>2026-04-26T11:24:03.299Z</time></trkpt><trkpt lat="38.0586646" lon="13.5324147"><ele>64.0</ele><time>2026-04-26T11:24:04.299Z</time></trkpt><trkpt lat="38.0587804" lon="13.532101"><ele>62.0</ele><time>2026-04-26T11:24:05.299Z</time></trkpt><trkpt lat="38.0588914" lon="13.5317895"><ele>60.0</ele><time>2026-04-26T11:24:06.299Z</time></trkpt><trkpt lat="38.0590026" lon="13.5314712"><ele>61.0</ele><time>2026-04-26T11:24:07.299Z</time></trkpt><trkpt lat="38.0591079" lon="13.5311579"><ele>62.0</ele><time>2026-04-26T11:24:08.299Z</time></trkpt><trkpt lat="38.0592241" lon="13.5308549"><ele>51.5</ele><time>2026-04-26T11:24:09.299Z</time></trkpt><trkpt lat="38.0593414" lon="13.5305522"><ele>41.0</ele><time>2026-04-26T11:24:10.299Z</time></trkpt><trkpt lat="38.0594541" lon="13.5302476"><ele>40.0</ele><time>2026-04-26T11:24:11.299Z</time></trkpt><trkpt lat="38.0595619" lon="13.5299358"><ele>39.0</ele><time>2026-04-26T11:24:12.298Z</time></trkpt><trkpt lat="38.0596807" lon="13.5296209"><ele>42.5</ele><time>2026-04-26T11:24:13.299Z</time></trkpt><trkpt lat="38.0598126" lon="13.5293007"><ele>46.0</ele><time>2026-04-26T11:24:14.299Z</time></trkpt><trkpt lat="38.0599203" lon="13.5289818"><ele>55.5</ele><time>2026-04-26T11:24:15.299Z</time></trkpt><trkpt lat="38.0600283" lon="13.5286703"><ele>65.0</ele><time>2026-04-26T11:24:16.299Z</time></trkpt><trkpt lat="38.0601395" lon="13.5283596"><ele>65.0</ele><time>2026-04-26T11:24:17.299Z</time></trkpt><trkpt lat="38.0602425" lon="13.5280549"><ele>65.0</ele><time>2026-04-26T11:24:18.299Z</time></trkpt><trkpt lat="38.0603418" lon="13.5277468"><ele>65.0</ele><time>2026-04-26T11:24:19.299Z</time></trkpt><trkpt lat="38.0604257" lon="13.5274321"><ele>65.0</ele><time>2026-04-26T11:24:20.299Z</time></trkpt><trkpt lat="38.0604964" lon="13.5271121"><ele>66.0</ele><time>2026-04-26T11:24:21.299Z</time></trkpt><trkpt lat="38.0605599" lon="13.5267936"><ele>67.0</ele><time>2026-04-26T11:24:22.299Z</time></trkpt><trkpt lat="38.0606162" lon="13.5264692"><ele>68.0</ele><time>2026-04-26T11:24:23.299Z</time></trkpt><trkpt lat="38.060655" lon="13.5261398"><ele>69.0</ele><time>2026-04-26T11:24:24.299Z</time></trkpt><trkpt lat="38.0606849" lon="13.5258168"><ele>69.0</ele><time>2026-04-26T11:24:25.299Z</time></trkpt><trkpt lat="38.0606977" lon="13.5254892"><ele>69.0</ele><time>2026-04-26T11:24:26.299Z</time></trkpt><trkpt lat="38.0607007" lon="13.5251581"><ele>70.0</ele><time>2026-04-26T11:24:27.298Z</time></trkpt><trkpt lat="38.0606952" lon="13.5248315"><ele>71.0</ele><time>2026-04-26T11:24:28.298Z</time></trkpt><trkpt lat="38.0606794" lon="13.5245121"><ele>71.0</ele><time>2026-04-26T11:24:29.298Z</time></trkpt><trkpt lat="38.0606629" lon="13.5241927"><ele>71.0</ele><time>2026-04-26T11:24:30.298Z</time></trkpt><trkpt lat="38.0606268" lon="13.5238691"><ele>73.5</ele><time>2026-04-26T11:24:31.298Z</time></trkpt><trkpt lat="38.0605849" lon="13.5235472"><ele>76.0</ele><time>2026-04-26T11:24:32.298Z</time></trkpt><trkpt lat="38.0605391" lon="13.5232308"><ele>76.0</ele><time>2026-04-26T11:24:33.298Z</time></trkpt><trkpt lat="38.0605012" lon="13.5229098"><ele>76.0</ele><time>2026-04-26T11:24:34.298Z</time></trkpt><trkpt lat="38.0604649" lon="13.5226077"><ele>77.33333333333333</ele><time>2026-04-26T11:24:35.297Z</time></trkpt><trkpt lat="38.0604318" lon="13.5223249"><ele>78.66666666666667</ele><time>2026-04-26T11:24:36.298Z</time></trkpt><trkpt lat="38.0603933" lon="13.5220468"><ele>80.0</ele><time>2026-04-26T11:24:37.298Z</time></trkpt><trkpt lat="38.0603406" lon="13.5217674"><ele>81.0</ele><time>2026-04-26T11:24:38.298Z</time></trkpt><trkpt lat="38.060298" lon="13.5214834"><ele>82.0</ele><time>2026-04-26T11:24:39.298Z</time></trkpt><trkpt lat="38.0602573" lon="13.5212042"><ele>85.0</ele><time>2026-04-26T11:24:40.298Z</time></trkpt><trkpt lat="38.0602311" lon="13.5209036"><ele>88.0</ele><time>2026-04-26T11:24:41.298Z</time></trkpt><trkpt lat="38.0602186" lon="13.5205928"><ele>88.0</ele><time>2026-04-26T11:24:42.298Z</time></trkpt><trkpt lat="38.0602288" lon="13.5202355"><ele>88.0</ele><time>2026-04-26T11:24:43.298Z</time></trkpt><trkpt lat="38.0602407" lon="13.5199154"><ele>88.0</ele><time>2026-04-26T11:24:44.298Z</time></trkpt><trkpt lat="38.0602569" lon="13.5196112"><ele>88.0</ele><time>2026-04-26T11:24:45.298Z</time></trkpt><trkpt lat="38.0602836" lon="13.5193051"><ele>86.0</ele><time>2026-04-26T11:24:46.298Z</time></trkpt><trkpt lat="38.060317" lon="13.5190006"><ele>84.0</ele><time>2026-04-26T11:24:47.298Z</time></trkpt><trkpt lat="38.0603617" lon="13.518696"><ele>81.0</ele><time>2026-04-26T11:24:48.298Z</time></trkpt><trkpt lat="38.0604175" lon="13.5183931"><ele>78.0</ele><time>2026-04-26T11:24:49.298Z</time></trkpt><trkpt lat="38.0604837" lon="13.5180926"><ele>76.0</ele><time>2026-04-26T11:24:50.297Z</time></trkpt><trkpt lat="38.0605626" lon="13.5177983"><ele>74.0</ele><time>2026-04-26T11:24:51.298Z</time></trkpt><trkpt lat="38.0606489" lon="13.5174989"><ele>74.0</ele><time>2026-04-26T11:24:52.298Z</time></trkpt><trkpt lat="38.0607491" lon="13.5172093"><ele>74.0</ele><time>2026-04-26T11:24:53.298Z</time></trkpt><trkpt lat="38.0608558" lon="13.5169222"><ele>78.5</ele><time>2026-04-26T11:24:54.298Z</time></trkpt><trkpt lat="38.060972" lon="13.5166379"><ele>83.0</ele><time>2026-04-26T11:24:55.298Z</time></trkpt><trkpt lat="38.0611027" lon="13.5163681"><ele>88.0</ele><time>2026-04-26T11:24:56.297Z</time></trkpt><trkpt lat="38.0612412" lon="13.5161048"><ele>93.0</ele><time>2026-04-26T11:24:57.298Z</time></trkpt><trkpt lat="38.061391" lon="13.5158499"><ele>93.0</ele><time>2026-04-26T11:24:58.298Z</time></trkpt><trkpt lat="38.0615467" lon="13.5155938"><ele>93.0</ele><time>2026-04-26T11:24:59.298Z</time></trkpt><trkpt lat="38.0617146" lon="13.5153452"><ele>99.5</ele><time>2026-04-26T11:25:00.298Z</time></trkpt><trkpt lat="38.0618817" lon="13.515098"><ele>106.0</ele><time>2026-04-26T11:25:01.298Z</time></trkpt><trkpt lat="38.0620546" lon="13.5148723"><ele>106.0</ele><time>2026-04-26T11:25:02.298Z</time></trkpt><trkpt lat="38.0622358" lon="13.5146638"><ele>106.0</ele><time>2026-04-26T11:25:03.298Z</time></trkpt><trkpt lat="38.062412" lon="13.5144673"><ele>101.0</ele><time>2026-04-26T11:25:04.298Z</time></trkpt><trkpt lat="38.0625827" lon="13.514277"><ele>96.0</ele><time>2026-04-26T11:25:05.298Z</time></trkpt><trkpt lat="38.0627528" lon="13.5140818"><ele>96.0</ele><time>2026-04-26T11:25:06.298Z</time></trkpt><trkpt lat="38.0629286" lon="13.5138764"><ele>96.0</ele><time>2026-04-26T11:25:07.298Z</time></trkpt><trkpt lat="38.0631155" lon="13.5136449"><ele>98.5</ele><time>2026-04-26T11:25:08.298Z</time></trkpt><trkpt lat="38.0632867" lon="13.5134566"><ele>101.0</ele><time>2026-04-26T11:25:09.298Z</time></trkpt><trkpt lat="38.0634614" lon="13.5132511"><ele>101.0</ele><time>2026-04-26T11:25:10.298Z</time></trkpt><trkpt lat="38.0636375" lon="13.5130397"><ele>101.0</ele><time>2026-04-26T11:25:11.298Z</time></trkpt><trkpt lat="38.0638152" lon="13.5128288"><ele>104.5</ele><time>2026-04-26T11:25:12.298Z</time></trkpt><trkpt lat="38.0639971" lon="13.5126171"><ele>108.0</ele><time>2026-04-26T11:25:13.298Z</time></trkpt><trkpt lat="38.0641778" lon="13.5124001"><ele>108.5</ele><time>2026-04-26T11:25:14.297Z</time></trkpt><trkpt lat="38.0643557" lon="13.5121827"><ele>109.0</ele><time>2026-04-26T11:25:15.298Z</time></trkpt><trkpt lat="38.0645337" lon="13.5119615"><ele>112.0</ele><time>2026-04-26T11:25:16.298Z</time></trkpt><trkpt lat="38.0647126" lon="13.5117386"><ele>115.0</ele><time>2026-04-26T11:25:17.298Z</time></trkpt><trkpt lat="38.0648966" lon="13.5115184"><ele>114.5</ele><time>2026-04-26T11:25:18.298Z</time></trkpt><trkpt lat="38.0650759" lon="13.511289"><ele>114.0</ele><time>2026-04-26T11:25:19.298Z</time></trkpt><trkpt lat="38.0652575" lon="13.5110658"><ele>116.0</ele><time>2026-04-26T11:25:20.298Z</time></trkpt><trkpt lat="38.0654375" lon="13.5108421"><ele>118.0</ele><time>2026-04-26T11:25:21.298Z</time></trkpt><trkpt lat="38.0656233" lon="13.510616"><ele>118.0</ele><time>2026-04-26T11:25:22.298Z</time></trkpt><trkpt lat="38.0658135" lon="13.5103902"><ele>118.0</ele><time>2026-04-26T11:25:23.298Z</time></trkpt><trkpt lat="38.0659999" lon="13.510168"><ele>118.0</ele><time>2026-04-26T11:25:24.298Z</time></trkpt><trkpt lat="38.0661801" lon="13.5099488"><ele>118.0</ele><time>2026-04-26T11:25:25.298Z</time></trkpt><trkpt lat="38.0663582" lon="13.5097209"><ele>117.66666666666667</ele><time>2026-04-26T11:25:26.298Z</time></trkpt><trkpt lat="38.0665096" lon="13.5095126"><ele>117.33333333333334</ele><time>2026-04-26T11:25:27.298Z</time></trkpt><trkpt lat="38.0666097" lon="13.5093197"><ele>117.0</ele><time>2026-04-26T11:25:28.298Z</time></trkpt><trkpt lat="38.0666549" lon="13.5091415"><ele>117.0</ele><time>2026-04-26T11:25:29.298Z</time></trkpt><trkpt lat="38.066666" lon="13.5089675"><ele>117.0</ele><time>2026-04-26T11:25:30.298Z</time></trkpt><trkpt lat="38.0666466" lon="13.5087987"><ele>117.0</ele><time>2026-04-26T11:25:31.298Z</time></trkpt><trkpt lat="38.0666307" lon="13.508643"><ele>117.0</ele><time>2026-04-26T11:25:32.297Z</time></trkpt><trkpt lat="38.0666197" lon="13.5084745"><ele>117.75</ele><time>2026-04-26T11:25:33.298Z</time></trkpt><trkpt lat="38.0666265" lon="13.5083036"><ele>118.5</ele><time>2026-04-26T11:25:34.298Z</time></trkpt><trkpt lat="38.0666244" lon="13.5081493"><ele>119.25</ele><time>2026-04-26T11:25:35.297Z</time></trkpt><trkpt lat="38.066641" lon="13.5079918"><ele>120.0</ele><time>2026-04-26T11:25:36.298Z</time></trkpt><trkpt lat="38.0666493" lon="13.5078312"><ele>117.0</ele><time>2026-04-26T11:25:37.298Z</time></trkpt><trkpt lat="38.0686432" lon="13.5070383"><ele>117.0</ele><time>2026-04-26T11:25:38.298Z</time></trkpt><trkpt lat="38.0688332" lon="13.506802"><ele>117.0</ele><time>2026-04-26T11:25:39.298Z</time></trkpt><trkpt lat="38.0690259" lon="13.5065661"><ele>116.0</ele><time>2026-04-26T11:25:40.298Z</time></trkpt><trkpt lat="38.0692179" lon="13.5063326"><ele>115.0</ele><time>2026-04-26T11:25:41.298Z</time></trkpt><trkpt lat="38.0694091" lon="13.5061075"><ele>115.0</ele><time>2026-04-26T11:25:42.298Z</time></trkpt><trkpt lat="38.069598" lon="13.505884"><ele>115.0</ele><time>2026-04-26T11:25:43.298Z</time></trkpt><trkpt lat="38.0697884" lon="13.5056545"><ele>113.5</ele><time>2026-04-26T11:25:44.298Z</time></trkpt><trkpt lat="38.0699798" lon="13.5054281"><ele>112.0</ele><time>2026-04-26T11:25:45.298Z</time></trkpt><trkpt lat="38.0701717" lon="13.5051991"><ele>110.5</ele><time>2026-04-26T11:25:46.298Z</time></trkpt><trkpt lat="38.0703619" lon="13.5049693"><ele>109.0</ele><time>2026-04-26T11:25:47.298Z</time></trkpt><trkpt lat="38.0705534" lon="13.5047409"><ele>108.0</ele><time>2026-04-26T11:25:48.298Z</time></trkpt><trkpt lat="38.0707439" lon="13.5045103"><ele>107.0</ele><time>2026-04-26T11:25:49.298Z</time></trkpt><trkpt lat="38.0709327" lon="13.5042756"><ele>105.5</ele><time>2026-04-26T11:25:50.297Z</time></trkpt><trkpt lat="38.0711262" lon="13.5040435"><ele>104.0</ele><time>2026-04-26T11:25:51.298Z</time></trkpt><trkpt lat="38.071318" lon="13.5038099"><ele>103.5</ele><time>2026-04-26T11:25:52.298Z</time></trkpt><trkpt lat="38.0715102" lon="13.5035706"><ele>103.0</ele><time>2026-04-26T11:25:53.298Z</time></trkpt><trkpt lat="38.0717062" lon="13.5033299"><ele>103.0</ele><time>2026-04-26T11:25:54.298Z</time></trkpt><trkpt lat="38.0719018" lon="13.5030846"><ele>103.0</ele><time>2026-04-26T11:25:55.298Z</time></trkpt><trkpt lat="38.072105" lon="13.5028294"><ele>103.0</ele><time>2026-04-26T11:25:56.297Z</time></trkpt><trkpt lat="38.0723135" lon="13.5025571"><ele>103.0</ele><time>2026-04-26T11:25:57.298Z</time></trkpt><trkpt lat="38.0725211" lon="13.5022714"><ele>103.0</ele><time>2026-04-26T11:25:58.298Z</time></trkpt><trkpt lat="38.0727173" lon="13.5019855"><ele>103.0</ele><time>2026-04-26T11:25:59.298Z</time></trkpt><trkpt lat="38.072902" lon="13.5016977"><ele>103.0</ele><time>2026-04-26T11:26:00.298Z</time></trkpt><trkpt lat="38.0730757" lon="13.501414"><ele>103.0</ele><time>2026-04-26T11:26:01.298Z</time></trkpt><trkpt lat="38.0732465" lon="13.5011398"><ele>100.0</ele><time>2026-04-26T11:26:02.298Z</time></trkpt><trkpt lat="38.0734106" lon="13.5008736"><ele>97.0</ele><time>2026-04-26T11:26:03.298Z</time></trkpt><trkpt lat="38.0735637" lon="13.5006091"><ele>97.5</ele><time>2026-04-26T11:26:04.298Z</time></trkpt><trkpt lat="38.0737184" lon="13.5003529"><ele>98.0</ele><time>2026-04-26T11:26:05.298Z</time></trkpt><trkpt lat="38.0738713" lon="13.5000958"><ele>98.0</ele><time>2026-04-26T11:26:06.297Z</time></trkpt><trkpt lat="38.0740196" lon="13.4998396"><ele>98.0</ele><time>2026-04-26T11:26:07.298Z</time></trkpt><trkpt lat="38.0741632" lon="13.4995907"><ele>95.0</ele><time>2026-04-26T11:26:08.298Z</time></trkpt><trkpt lat="38.0743059" lon="13.4993412"><ele>92.0</ele><time>2026-04-26T11:26:09.298Z</time></trkpt><trkpt lat="38.0744492" lon="13.4990833"><ele>92.0</ele><time>2026-04-26T11:26:10.298Z</time></trkpt><trkpt lat="38.0745998" lon="13.4988324"><ele>92.0</ele><time>2026-04-26T11:26:11.298Z</time></trkpt><trkpt lat="38.0747502" lon="13.4985749"><ele>91.5</ele><time>2026-04-26T11:26:12.298Z</time></trkpt><trkpt lat="38.0749009" lon="13.4983206"><ele>91.0</ele><time>2026-04-26T11:26:13.297Z</time></trkpt><trkpt lat="38.075057" lon="13.498067"><ele>89.5</ele><time>2026-04-26T11:26:14.298Z</time></trkpt><trkpt lat="38.0752096" lon="13.497809"><ele>88.0</ele><time>2026-04-26T11:26:15.298Z</time></trkpt><trkpt lat="38.0753634" lon="13.4975513"><ele>88.0</ele><time>2026-04-26T11:26:16.298Z</time></trkpt><trkpt lat="38.0755163" lon="13.4972961"><ele>88.0</ele><time>2026-04-26T11:26:17.298Z</time></trkpt><trkpt lat="38.0756662" lon="13.4970385"><ele>87.0</ele><time>2026-04-26T11:26:18.298Z</time></trkpt><trkpt lat="38.0758185" lon="13.4967799"><ele>86.0</ele><time>2026-04-26T11:26:19.298Z</time></trkpt><trkpt lat="38.0759716" lon="13.4965163"><ele>86.0</ele><time>2026-04-26T11:26:20.298Z</time></trkpt><trkpt lat="38.0761252" lon="13.4962549"><ele>86.0</ele><time>2026-04-26T11:26:21.298Z</time></trkpt><trkpt lat="38.0762817" lon="13.4959898"><ele>85.0</ele><time>2026-04-26T11:26:22.297Z</time></trkpt><trkpt lat="38.0764344" lon="13.4957253"><ele>84.0</ele><time>2026-04-26T11:26:23.298Z</time></trkpt><trkpt lat="38.0765801" lon="13.4954596"><ele>82.0</ele><time>2026-04-26T11:26:24.298Z</time></trkpt><trkpt lat="38.0767468" lon="13.495267"><ele>80.0</ele><time>2026-04-26T11:26:25.298Z</time></trkpt><trkpt lat="38.0768819" lon="13.4949755"><ele>80.0</ele><time>2026-04-26T11:26:26.298Z</time></trkpt><trkpt lat="38.0770021" lon="13.4946789"><ele>80.0</ele><time>2026-04-26T11:26:27.298Z</time></trkpt><trkpt lat="38.0771106" lon="13.4943791"><ele>81.5</ele><time>2026-04-26T11:26:28.298Z</time></trkpt><trkpt lat="38.0772174" lon="13.4940788"><ele>83.0</ele><time>2026-04-26T11:26:29.298Z</time></trkpt><trkpt lat="38.0773279" lon="13.4937786"><ele>81.0</ele><time>2026-04-26T11:26:30.298Z</time></trkpt><trkpt lat="38.0774382" lon="13.4934779"><ele>79.0</ele><time>2026-04-26T11:26:31.298Z</time></trkpt><trkpt lat="38.0775484" lon="13.4931753"><ele>83.5</ele><time>2026-04-26T11:26:32.298Z</time></trkpt><trkpt lat="38.0776618" lon="13.4928691"><ele>88.0</ele><time>2026-04-26T11:26:33.297Z</time></trkpt><trkpt lat="38.0777669" lon="13.4925686"><ele>88.0</ele><time>2026-04-26T11:26:34.298Z</time></trkpt><trkpt lat="38.077874" lon="13.4922645"><ele>88.0</ele><time>2026-04-26T11:26:35.298Z</time></trkpt><trkpt lat="38.0779859" lon="13.4919703"><ele>96.5</ele><time>2026-04-26T11:26:36.298Z</time></trkpt><trkpt lat="38.078098" lon="13.4916693"><ele>105.0</ele><time>2026-04-26T11:26:37.298Z</time></trkpt><trkpt lat="38.078208" lon="13.4913663"><ele>94.5</ele><time>2026-04-26T11:26:38.298Z</time></trkpt><trkpt lat="38.0783129" lon="13.4910612"><ele>84.0</ele><time>2026-04-26T11:26:39.298Z</time></trkpt><trkpt lat="38.0784196" lon="13.4907621"><ele>84.0</ele><time>2026-04-26T11:26:40.298Z</time></trkpt><trkpt lat="38.0785294" lon="13.4904613"><ele>84.0</ele><time>2026-04-26T11:26:41.297Z</time></trkpt><trkpt lat="38.0786385" lon="13.4901525"><ele>88.0</ele><time>2026-04-26T11:26:42.297Z</time></trkpt><trkpt lat="38.0787435" lon="13.4898487"><ele>92.0</ele><time>2026-04-26T11:26:43.298Z</time></trkpt><trkpt lat="38.0788472" lon="13.489546"><ele>94.5</ele><time>2026-04-26T11:26:44.297Z</time></trkpt><trkpt lat="38.0789606" lon="13.4892395"><ele>97.0</ele><time>2026-04-26T11:26:45.298Z</time></trkpt><trkpt lat="38.0790644" lon="13.4889294"><ele>86.5</ele><time>2026-04-26T11:26:46.298Z</time></trkpt><trkpt lat="38.0791636" lon="13.4886167"><ele>76.0</ele><time>2026-04-26T11:26:47.298Z</time></trkpt><trkpt lat="38.0792564" lon="13.4883059"><ele>76.0</ele><time>2026-04-26T11:26:48.298Z</time></trkpt><trkpt lat="38.0793351" lon="13.4879909"><ele>76.0</ele><time>2026-04-26T11:26:49.298Z</time></trkpt><trkpt lat="38.0794052" lon="13.4876677"><ele>74.0</ele><time>2026-04-26T11:26:50.297Z</time></trkpt><trkpt lat="38.079472" lon="13.4873522"><ele>72.0</ele><time>2026-04-26T11:26:51.297Z</time></trkpt><trkpt lat="38.0795267" lon="13.4870298"><ele>69.0</ele><time>2026-04-26T11:26:52.298Z</time></trkpt><trkpt lat="38.07958" lon="13.4867202"><ele>66.0</ele><time>2026-04-26T11:26:53.298Z</time></trkpt><trkpt lat="38.0796283" lon="13.486398"><ele>66.5</ele><time>2026-04-26T11:26:54.297Z</time></trkpt><trkpt lat="38.0796733" lon="13.4860684"><ele>67.0</ele><time>2026-04-26T11:26:55.298Z</time></trkpt><trkpt lat="38.0797173" lon="13.4857433"><ele>67.0</ele><time>2026-04-26T11:26:56.298Z</time></trkpt><trkpt lat="38.0797578" lon="13.4854191"><ele>67.0</ele><time>2026-04-26T11:26:57.297Z</time></trkpt><trkpt lat="38.0797979" lon="13.4851024"><ele>67.0</ele><time>2026-04-26T11:26:58.298Z</time></trkpt><trkpt lat="38.0798398" lon="13.4847793"><ele>67.0</ele><time>2026-04-26T11:26:59.298Z</time></trkpt><trkpt lat="38.0798846" lon="13.4844611"><ele>68.0</ele><time>2026-04-26T11:27:00.298Z</time></trkpt><trkpt lat="38.0799266" lon="13.4841384"><ele>69.0</ele><time>2026-04-26T11:27:01.298Z</time></trkpt><trkpt lat="38.0799688" lon="13.4838179"><ele>68.0</ele><time>2026-04-26T11:27:02.298Z</time></trkpt><trkpt lat="38.0800144" lon="13.4834991"><ele>67.0</ele><time>2026-04-26T11:27:03.298Z</time></trkpt><trkpt lat="38.0800594" lon="13.4831781"><ele>68.0</ele><time>2026-04-26T11:27:04.298Z</time></trkpt><trkpt lat="38.0801014" lon="13.4828611"><ele>69.0</ele><time>2026-04-26T11:27:05.298Z</time></trkpt><trkpt lat="38.0801425" lon="13.4825398"><ele>69.0</ele><time>2026-04-26T11:27:06.298Z</time></trkpt><trkpt lat="38.0801801" lon="13.482212"><ele>69.0</ele><time>2026-04-26T11:27:07.298Z</time></trkpt><trkpt lat="38.0802214" lon="13.481901"><ele>69.0</ele><time>2026-04-26T11:27:08.298Z</time></trkpt><trkpt lat="38.0802548" lon="13.4815862"><ele>69.0</ele><time>2026-04-26T11:27:09.298Z</time></trkpt><trkpt lat="38.0803057" lon="13.4812778"><ele>69.0</ele><time>2026-04-26T11:27:10.298Z</time></trkpt><trkpt lat="38.0803491" lon="13.4809693"><ele>69.0</ele><time>2026-04-26T11:27:11.298Z</time></trkpt><trkpt lat="38.0803958" lon="13.4806572"><ele>68.0</ele><time>2026-04-26T11:27:12.298Z</time></trkpt><trkpt lat="38.0804437" lon="13.4803397"><ele>67.0</ele><time>2026-04-26T11:27:13.298Z</time></trkpt><trkpt lat="38.0804892" lon="13.4800131"><ele>67.0</ele><time>2026-04-26T11:27:14.298Z</time></trkpt><trkpt lat="38.0805277" lon="13.4796721"><ele>67.0</ele><time>2026-04-26T11:27:15.298Z</time></trkpt><trkpt lat="38.0805695" lon="13.4793359"><ele>66.5</ele><time>2026-04-26T11:27:16.298Z</time></trkpt><trkpt lat="38.0806185" lon="13.478994"><ele>66.0</ele><time>2026-04-26T11:27:17.298Z</time></trkpt><trkpt lat="38.0806617" lon="13.4786546"><ele>65.0</ele><time>2026-04-26T11:27:18.298Z</time></trkpt><trkpt lat="38.0807006" lon="13.4783153"><ele>64.0</ele><time>2026-04-26T11:27:19.298Z</time></trkpt><trkpt lat="38.0807396" lon="13.4779727"><ele>58.0</ele><time>2026-04-26T11:27:20.298Z</time></trkpt><trkpt lat="38.0807829" lon="13.4776409"><ele>52.0</ele><time>2026-04-26T11:27:21.298Z</time></trkpt><trkpt lat="38.0808286" lon="13.4772947"><ele>43.0</ele><time>2026-04-26T11:27:22.298Z</time></trkpt><trkpt lat="38.0808862" lon="13.4769656"><ele>34.0</ele><time>2026-04-26T11:27:23.298Z</time></trkpt><trkpt lat="38.0809365" lon="13.4766318"><ele>34.0</ele><time>2026-04-26T11:27:24.298Z</time></trkpt><trkpt lat="38.0809854" lon="13.4763041"><ele>34.0</ele><time>2026-04-26T11:27:25.298Z</time></trkpt><trkpt lat="38.0810339" lon="13.4759797"><ele>32.5</ele><time>2026-04-26T11:27:26.298Z</time></trkpt><trkpt lat="38.0810805" lon="13.4756537"><ele>31.0</ele><time>2026-04-26T11:27:27.298Z</time></trkpt><trkpt lat="38.0811247" lon="13.4753238"><ele>31.0</ele><time>2026-04-26T11:27:28.298Z</time></trkpt><trkpt lat="38.0811704" lon="13.4749927"><ele>31.0</ele><time>2026-04-26T11:27:29.298Z</time></trkpt><trkpt lat="38.0812164" lon="13.4746744"><ele>38.5</ele><time>2026-04-26T11:27:30.298Z</time></trkpt><trkpt lat="38.0812598" lon="13.4743559"><ele>46.0</ele><time>2026-04-26T11:27:31.298Z</time></trkpt><trkpt lat="38.0813055" lon="13.474034"><ele>50.5</ele><time>2026-04-26T11:27:32.298Z</time></trkpt><trkpt lat="38.0813475" lon="13.4737124"><ele>55.0</ele><time>2026-04-26T11:27:33.297Z</time></trkpt><trkpt lat="38.0813883" lon="13.4733933"><ele>55.0</ele><time>2026-04-26T11:27:34.298Z</time></trkpt><trkpt lat="38.081434" lon="13.4730668"><ele>55.0</ele><time>2026-04-26T11:27:35.298Z</time></trkpt><trkpt lat="38.081476" lon="13.4727413"><ele>55.0</ele><time>2026-04-26T11:27:36.298Z</time></trkpt><trkpt lat="38.0815194" lon="13.4724188"><ele>55.0</ele><time>2026-04-26T11:27:37.298Z</time></trkpt><trkpt lat="38.0815642" lon="13.472093"><ele>53.5</ele><time>2026-04-26T11:27:38.298Z</time></trkpt><trkpt lat="38.0816098" lon="13.4717659"><ele>52.0</ele><time>2026-04-26T11:27:39.298Z</time></trkpt><trkpt lat="38.0816538" lon="13.4714437"><ele>52.5</ele><time>2026-04-26T11:27:40.298Z</time></trkpt><trkpt lat="38.0816934" lon="13.4711161"><ele>53.0</ele><time>2026-04-26T11:27:41.298Z</time></trkpt><trkpt lat="38.0817286" lon="13.4707847"><ele>53.0</ele><time>2026-04-26T11:27:42.298Z</time></trkpt><trkpt lat="38.0817563" lon="13.4704449"><ele>53.0</ele><time>2026-04-26T11:27:43.298Z</time></trkpt><trkpt lat="38.0817768" lon="13.4700988"><ele>53.0</ele><time>2026-04-26T11:27:44.298Z</time></trkpt><trkpt lat="38.0817986" lon="13.4697511"><ele>53.0</ele><time>2026-04-26T11:27:45.298Z</time></trkpt><trkpt lat="38.0818163" lon="13.469409"><ele>52.0</ele><time>2026-04-26T11:27:46.298Z</time></trkpt><trkpt lat="38.0818329" lon="13.4690675"><ele>51.0</ele><time>2026-04-26T11:27:47.298Z</time></trkpt><trkpt lat="38.0818568" lon="13.4687194"><ele>51.0</ele><time>2026-04-26T11:27:48.298Z</time></trkpt><trkpt lat="38.0818795" lon="13.4683687"><ele>51.0</ele><time>2026-04-26T11:27:49.298Z</time></trkpt><trkpt lat="38.081895" lon="13.4680102"><ele>49.5</ele><time>2026-04-26T11:27:50.297Z</time></trkpt><trkpt lat="38.0819144" lon="13.4676583"><ele>48.0</ele><time>2026-04-26T11:27:51.298Z</time></trkpt><trkpt lat="38.0819339" lon="13.4673053"><ele>47.5</ele><time>2026-04-26T11:27:52.298Z</time></trkpt><trkpt lat="38.0819576" lon="13.4669493"><ele>47.0</ele><time>2026-04-26T11:27:53.298Z</time></trkpt><trkpt lat="38.081979" lon="13.466598"><ele>46.5</ele><time>2026-04-26T11:27:54.298Z</time></trkpt><trkpt lat="38.0820038" lon="13.4662455"><ele>46.0</ele><time>2026-04-26T11:27:55.298Z</time></trkpt><trkpt lat="38.0820246" lon="13.4658899"><ele>46.0</ele><time>2026-04-26T11:27:56.298Z</time></trkpt><trkpt lat="38.0820432" lon="13.4655418"><ele>46.0</ele><time>2026-04-26T11:27:57.298Z</time></trkpt><trkpt lat="38.0820587" lon="13.4651935"><ele>45.5</ele><time>2026-04-26T11:27:58.298Z</time></trkpt><trkpt lat="38.0820789" lon="13.4648505"><ele>45.0</ele><time>2026-04-26T11:27:59.298Z</time></trkpt><trkpt lat="38.0820971" lon="13.4645033"><ele>46.0</ele><time>2026-04-26T11:28:00.298Z</time></trkpt><trkpt lat="38.0821147" lon="13.4641657"><ele>47.0</ele><time>2026-04-26T11:28:01.298Z</time></trkpt><trkpt lat="38.0821354" lon="13.4638325"><ele>46.5</ele><time>2026-04-26T11:28:02.298Z</time></trkpt><trkpt lat="38.0821509" lon="13.4635084"><ele>46.0</ele><time>2026-04-26T11:28:03.298Z</time></trkpt><trkpt lat="38.082168" lon="13.4631794"><ele>45.5</ele><time>2026-04-26T11:28:04.298Z</time></trkpt><trkpt lat="38.082185" lon="13.4628562"><ele>45.0</ele><time>2026-04-26T11:28:05.298Z</time></trkpt><trkpt lat="38.0822134" lon="13.4625292"><ele>45.0</ele><time>2026-04-26T11:28:06.298Z</time></trkpt><trkpt lat="38.0822302" lon="13.4622068"><ele>45.0</ele><time>2026-04-26T11:28:07.298Z</time></trkpt><trkpt lat="38.0822453" lon="13.4618839"><ele>44.5</ele><time>2026-04-26T11:28:08.298Z</time></trkpt><trkpt lat="38.0822641" lon="13.4615655"><ele>44.0</ele><time>2026-04-26T11:28:09.298Z</time></trkpt><trkpt lat="38.0822812" lon="13.4612419"><ele>44.0</ele><time>2026-04-26T11:28:10.298Z</time></trkpt><trkpt lat="38.0822979" lon="13.4609114"><ele>44.0</ele><time>2026-04-26T11:28:11.298Z</time></trkpt><trkpt lat="38.0823188" lon="13.4605803"><ele>43.0</ele><time>2026-04-26T11:28:12.298Z</time></trkpt><trkpt lat="38.08234" lon="13.460251"><ele>42.0</ele><time>2026-04-26T11:28:13.298Z</time></trkpt><trkpt lat="38.0823662" lon="13.4599235"><ele>42.5</ele><time>2026-04-26T11:28:14.298Z</time></trkpt><trkpt lat="38.0823977" lon="13.4595963"><ele>43.0</ele><time>2026-04-26T11:28:15.298Z</time></trkpt><trkpt lat="38.0824346" lon="13.4592702"><ele>41.5</ele><time>2026-04-26T11:28:16.298Z</time></trkpt><trkpt lat="38.0824725" lon="13.4589389"><ele>40.0</ele><time>2026-04-26T11:28:17.298Z</time></trkpt><trkpt lat="38.0825057" lon="13.4586038"><ele>39.5</ele><time>2026-04-26T11:28:18.298Z</time></trkpt><trkpt lat="38.0825389" lon="13.4582677"><ele>39.0</ele><time>2026-04-26T11:28:19.298Z</time></trkpt><trkpt lat="38.0825736" lon="13.457932"><ele>38.5</ele><time>2026-04-26T11:28:20.297Z</time></trkpt><trkpt lat="38.0826107" lon="13.4575851"><ele>38.0</ele><time>2026-04-26T11:28:21.298Z</time></trkpt><trkpt lat="38.082651" lon="13.4572438"><ele>37.0</ele><time>2026-04-26T11:28:22.298Z</time></trkpt><trkpt lat="38.0826888" lon="13.4568958"><ele>36.0</ele><time>2026-04-26T11:28:23.298Z</time></trkpt><trkpt lat="38.0827318" lon="13.456541"><ele>36.0</ele><time>2026-04-26T11:28:24.298Z</time></trkpt><trkpt lat="38.0827722" lon="13.456181"><ele>36.0</ele><time>2026-04-26T11:28:25.298Z</time></trkpt><trkpt lat="38.0828158" lon="13.4558293"><ele>36.0</ele><time>2026-04-26T11:28:26.297Z</time></trkpt><trkpt lat="38.0828563" lon="13.4554755"><ele>36.0</ele><time>2026-04-26T11:28:27.298Z</time></trkpt><trkpt lat="38.0829004" lon="13.4551226"><ele>36.5</ele><time>2026-04-26T11:28:28.297Z</time></trkpt><trkpt lat="38.0829441" lon="13.45477"><ele>37.0</ele><time>2026-04-26T11:28:29.298Z</time></trkpt><trkpt lat="38.0829865" lon="13.4544133"><ele>37.0</ele><time>2026-04-26T11:28:30.298Z</time></trkpt><trkpt lat="38.0830324" lon="13.4540584"><ele>37.0</ele><time>2026-04-26T11:28:31.297Z</time></trkpt><trkpt lat="38.0830758" lon="13.4536945"><ele>37.0</ele><time>2026-04-26T11:28:32.298Z</time></trkpt><trkpt lat="38.0831186" lon="13.4533314"><ele>37.0</ele><time>2026-04-26T11:28:33.298Z</time></trkpt><trkpt lat="38.0831652" lon="13.4529659"><ele>36.0</ele><time>2026-04-26T11:28:34.298Z</time></trkpt><trkpt lat="38.0832103" lon="13.4525966"><ele>35.0</ele><time>2026-04-26T11:28:35.298Z</time></trkpt><trkpt lat="38.0832551" lon="13.452227"><ele>34.5</ele><time>2026-04-26T11:28:36.298Z</time></trkpt><trkpt lat="38.0832954" lon="13.4518647"><ele>34.0</ele><time>2026-04-26T11:28:37.298Z</time></trkpt><trkpt lat="38.0833383" lon="13.4515024"><ele>33.5</ele><time>2026-04-26T11:28:38.298Z</time></trkpt><trkpt lat="38.08338" lon="13.4511458"><ele>33.0</ele><time>2026-04-26T11:28:39.298Z</time></trkpt><trkpt lat="38.0834167" lon="13.4507849"><ele>33.5</ele><time>2026-04-26T11:28:40.298Z</time></trkpt><trkpt lat="38.0834511" lon="13.4504222"><ele>34.0</ele><time>2026-04-26T11:28:41.298Z</time></trkpt><trkpt lat="38.0834726" lon="13.4500543"><ele>34.0</ele><time>2026-04-26T11:28:42.298Z</time></trkpt><trkpt lat="38.0834861" lon="13.4496899"><ele>34.0</ele><time>2026-04-26T11:28:43.298Z</time></trkpt><trkpt lat="38.0834887" lon="13.4493265"><ele>34.0</ele><time>2026-04-26T11:28:44.298Z</time></trkpt><trkpt lat="38.0834773" lon="13.4489685"><ele>34.0</ele><time>2026-04-26T11:28:45.298Z</time></trkpt><trkpt lat="38.0834596" lon="13.4486168"><ele>34.0</ele><time>2026-04-26T11:28:46.298Z</time></trkpt><trkpt lat="38.0834392" lon="13.4482818"><ele>34.0</ele><time>2026-04-26T11:28:47.298Z</time></trkpt><trkpt lat="38.0834233" lon="13.4479538"><ele>35.0</ele><time>2026-04-26T11:28:48.298Z</time></trkpt><trkpt lat="38.0834022" lon="13.4476428"><ele>36.0</ele><time>2026-04-26T11:28:49.298Z</time></trkpt><trkpt lat="38.0833777" lon="13.4473385"><ele>35.5</ele><time>2026-04-26T11:28:50.298Z</time></trkpt><trkpt lat="38.0833585" lon="13.4470448"><ele>35.0</ele><time>2026-04-26T11:28:51.298Z</time></trkpt><trkpt lat="38.0833383" lon="13.4467579"><ele>35.0</ele><time>2026-04-26T11:28:52.297Z</time></trkpt><trkpt lat="38.0833166" lon="13.4464652"><ele>35.0</ele><time>2026-04-26T11:28:53.298Z</time></trkpt><trkpt lat="38.0832974" lon="13.446169"><ele>34.0</ele><time>2026-04-26T11:28:54.298Z</time></trkpt><trkpt lat="38.0832775" lon="13.445866"><ele>33.0</ele><time>2026-04-26T11:28:55.298Z</time></trkpt><trkpt lat="38.0832581" lon="13.4455714"><ele>32.5</ele><time>2026-04-26T11:28:56.298Z</time></trkpt><trkpt lat="38.0832382" lon="13.4452789"><ele>32.0</ele><time>2026-04-26T11:28:57.298Z</time></trkpt><trkpt lat="38.0832184" lon="13.4449844"><ele>32.0</ele><time>2026-04-26T11:28:58.298Z</time></trkpt><trkpt lat="38.0831963" lon="13.4446879"><ele>32.0</ele><time>2026-04-26T11:28:59.298Z</time></trkpt><trkpt lat="38.0831779" lon="13.444389"><ele>32.0</ele><time>2026-04-26T11:29:00.298Z</time></trkpt><trkpt lat="38.0831592" lon="13.444102"><ele>32.0</ele><time>2026-04-26T11:29:01.298Z</time></trkpt><trkpt lat="38.0831426" lon="13.443811"><ele>32.5</ele><time>2026-04-26T11:29:02.298Z</time></trkpt><trkpt lat="38.083126" lon="13.4435198"><ele>33.0</ele><time>2026-04-26T11:29:03.298Z</time></trkpt><trkpt lat="38.0831087" lon="13.4432207"><ele>33.0</ele><time>2026-04-26T11:29:04.298Z</time></trkpt><trkpt lat="38.0830889" lon="13.4429272"><ele>33.0</ele><time>2026-04-26T11:29:05.298Z</time></trkpt><trkpt lat="38.0830729" lon="13.4426201"><ele>33.0</ele><time>2026-04-26T11:29:06.298Z</time></trkpt><trkpt lat="38.0830607" lon="13.442312"><ele>33.0</ele><time>2026-04-26T11:29:07.298Z</time></trkpt><trkpt lat="38.0830512" lon="13.4420038"><ele>34.0</ele><time>2026-04-26T11:29:08.298Z</time></trkpt><trkpt lat="38.0830489" lon="13.4416927"><ele>35.0</ele><time>2026-04-26T11:29:09.298Z</time></trkpt><trkpt lat="38.083066" lon="13.4413789"><ele>35.0</ele><time>2026-04-26T11:29:10.298Z</time></trkpt><trkpt lat="38.083094" lon="13.4410679"><ele>35.0</ele><time>2026-04-26T11:29:11.298Z</time></trkpt><trkpt lat="38.0831373" lon="13.4407715"><ele>35.0</ele><time>2026-04-26T11:29:12.298Z</time></trkpt><trkpt lat="38.0831943" lon="13.4404885"><ele>35.0</ele><time>2026-04-26T11:29:13.298Z</time></trkpt><trkpt lat="38.0832666" lon="13.4402086"><ele>33.5</ele><time>2026-04-26T11:29:14.298Z</time></trkpt><trkpt lat="38.083347" lon="13.4399372"><ele>32.0</ele><time>2026-04-26T11:29:15.298Z</time></trkpt><trkpt lat="38.0834372" lon="13.4396699"><ele>34.0</ele><time>2026-04-26T11:29:16.297Z</time></trkpt><trkpt lat="38.0835286" lon="13.4393969"><ele>36.0</ele><time>2026-04-26T11:29:17.298Z</time></trkpt><trkpt lat="38.0836192" lon="13.4391224"><ele>36.0</ele><time>2026-04-26T11:29:18.298Z</time></trkpt><trkpt lat="38.0837102" lon="13.4388379"><ele>36.0</ele><time>2026-04-26T11:29:19.298Z</time></trkpt><trkpt lat="38.0838009" lon="13.4385577"><ele>35.0</ele><time>2026-04-26T11:29:20.298Z</time></trkpt><trkpt lat="38.083892" lon="13.4382776"><ele>34.0</ele><time>2026-04-26T11:29:21.298Z</time></trkpt><trkpt lat="38.0839795" lon="13.4379982"><ele>34.5</ele><time>2026-04-26T11:29:22.298Z</time></trkpt><trkpt lat="38.0840684" lon="13.4377253"><ele>35.0</ele><time>2026-04-26T11:29:23.298Z</time></trkpt><trkpt lat="38.0841648" lon="13.43746"><ele>35.0</ele><time>2026-04-26T11:29:24.297Z</time></trkpt><trkpt lat="38.0842622" lon="13.4372057"><ele>35.0</ele><time>2026-04-26T11:29:25.298Z</time></trkpt><trkpt lat="38.0843742" lon="13.4369756"><ele>35.0</ele><time>2026-04-26T11:29:26.298Z</time></trkpt><trkpt lat="38.0844975" lon="13.4367489"><ele>35.0</ele><time>2026-04-26T11:29:27.298Z</time></trkpt><trkpt lat="38.0846305" lon="13.4365343"><ele>35.0</ele><time>2026-04-26T11:29:28.298Z</time></trkpt><trkpt lat="38.0847734" lon="13.4363262"><ele>35.0</ele><time>2026-04-26T11:29:29.298Z</time></trkpt><trkpt lat="38.0849211" lon="13.4361297"><ele>34.666666666666664</ele><time>2026-04-26T11:29:30.298Z</time></trkpt><trkpt lat="38.0850785" lon="13.4359335"><ele>34.333333333333336</ele><time>2026-04-26T11:29:31.298Z</time></trkpt><trkpt lat="38.0852351" lon="13.4357446"><ele>34.0</ele><time>2026-04-26T11:29:32.298Z</time></trkpt><trkpt lat="38.0853933" lon="13.4355476"><ele>34.0</ele><time>2026-04-26T11:29:33.298Z</time></trkpt><trkpt lat="38.0855432" lon="13.4353502"><ele>34.0</ele><time>2026-04-26T11:29:34.298Z</time></trkpt><trkpt lat="38.0856852" lon="13.4351456"><ele>34.0</ele><time>2026-04-26T11:29:35.298Z</time></trkpt><trkpt lat="38.0858094" lon="13.4349252"><ele>34.0</ele><time>2026-04-26T11:29:36.298Z</time></trkpt><trkpt lat="38.0859165" lon="13.4346927"><ele>34.0</ele><time>2026-04-26T11:29:37.298Z</time></trkpt><trkpt lat="38.0859948" lon="13.4344611"><ele>34.0</ele><time>2026-04-26T11:29:38.298Z</time></trkpt><trkpt lat="38.0860513" lon="13.4342247"><ele>35.0</ele><time>2026-04-26T11:29:39.298Z</time></trkpt><trkpt lat="38.0860963" lon="13.4339814"><ele>36.0</ele><time>2026-04-26T11:29:40.297Z</time></trkpt><trkpt lat="38.0861186" lon="13.4337336"><ele>37.0</ele><time>2026-04-26T11:29:41.298Z</time></trkpt><trkpt lat="38.0861463" lon="13.4334792"><ele>37.0</ele><time>2026-04-26T11:29:42.298Z</time></trkpt><trkpt lat="38.086158" lon="13.4332259"><ele>37.0</ele><time>2026-04-26T11:29:43.298Z</time></trkpt><trkpt lat="38.0861654" lon="13.4329581"><ele>37.0</ele><time>2026-04-26T11:29:44.298Z</time></trkpt><trkpt lat="38.0861593" lon="13.4326903"><ele>37.0</ele><time>2026-04-26T11:29:45.297Z</time></trkpt><trkpt lat="38.086162" lon="13.4324122"><ele>37.0</ele><time>2026-04-26T11:29:46.297Z</time></trkpt><trkpt lat="38.0861505" lon="13.4321261"><ele>37.0</ele><time>2026-04-26T11:29:47.298Z</time></trkpt><trkpt lat="38.0861445" lon="13.4318381"><ele>35.5</ele><time>2026-04-26T11:29:48.298Z</time></trkpt><trkpt lat="38.0861327" lon="13.4315443"><ele>34.0</ele><time>2026-04-26T11:29:49.297Z</time></trkpt><trkpt lat="38.0861246" lon="13.4312528"><ele>34.0</ele><time>2026-04-26T11:29:50.297Z</time></trkpt><trkpt lat="38.0861122" lon="13.4309542"><ele>34.0</ele><time>2026-04-26T11:29:51.298Z</time></trkpt><trkpt lat="38.0861001" lon="13.4306641"><ele>33.5</ele><time>2026-04-26T11:29:52.298Z</time></trkpt><trkpt lat="38.086087" lon="13.4303733"><ele>33.0</ele><time>2026-04-26T11:29:53.298Z</time></trkpt><trkpt lat="38.0860733" lon="13.4300832"><ele>33.0</ele><time>2026-04-26T11:29:54.297Z</time></trkpt><trkpt lat="38.0860641" lon="13.4297915"><ele>33.0</ele><time>2026-04-26T11:29:55.297Z</time></trkpt><trkpt lat="38.0860528" lon="13.4294961"><ele>34.0</ele><time>2026-04-26T11:29:56.298Z</time></trkpt><trkpt lat="38.0860467" lon="13.4291993"><ele>35.0</ele><time>2026-04-26T11:29:57.298Z</time></trkpt><trkpt lat="38.0860402" lon="13.4289026"><ele>33.5</ele><time>2026-04-26T11:29:58.298Z</time></trkpt><trkpt lat="38.0860312" lon="13.4286025"><ele>32.0</ele><time>2026-04-26T11:29:59.298Z</time></trkpt><trkpt lat="38.0860336" lon="13.4283007"><ele>32.0</ele><time>2026-04-26T11:30:00.298Z</time></trkpt><trkpt lat="38.0860297" lon="13.4280046"><ele>32.0</ele><time>2026-04-26T11:30:01.298Z</time></trkpt><trkpt lat="38.0860266" lon="13.4276957"><ele>31.0</ele><time>2026-04-26T11:30:02.298Z</time></trkpt><trkpt lat="38.0860223" lon="13.4273873"><ele>30.0</ele><time>2026-04-26T11:30:03.298Z</time></trkpt><trkpt lat="38.0860218" lon="13.427075"><ele>28.5</ele><time>2026-04-26T11:30:04.298Z</time></trkpt><trkpt lat="38.0860162" lon="13.4267593"><ele>27.0</ele><time>2026-04-26T11:30:05.298Z</time></trkpt><trkpt lat="38.0860124" lon="13.4264413"><ele>26.5</ele><time>2026-04-26T11:30:06.298Z</time></trkpt><trkpt lat="38.0860022" lon="13.4261286"><ele>26.0</ele><time>2026-04-26T11:30:07.298Z</time></trkpt><trkpt lat="38.0859984" lon="13.4258095"><ele>26.0</ele><time>2026-04-26T11:30:08.298Z</time></trkpt><trkpt lat="38.085998" lon="13.4254917"><ele>26.0</ele><time>2026-04-26T11:30:09.298Z</time></trkpt><trkpt lat="38.0859955" lon="13.4251654"><ele>26.5</ele><time>2026-04-26T11:30:10.298Z</time></trkpt><trkpt lat="38.0859996" lon="13.424834"><ele>27.0</ele><time>2026-04-26T11:30:11.298Z</time></trkpt><trkpt lat="38.0859956" lon="13.4245113"><ele>28.0</ele><time>2026-04-26T11:30:12.298Z</time></trkpt><trkpt lat="38.0859923" lon="13.4241803"><ele>29.0</ele><time>2026-04-26T11:30:13.297Z</time></trkpt><trkpt lat="38.0859878" lon="13.4238451"><ele>29.5</ele><time>2026-04-26T11:30:14.298Z</time></trkpt><trkpt lat="38.0859839" lon="13.423501"><ele>30.0</ele><time>2026-04-26T11:30:15.298Z</time></trkpt><trkpt lat="38.0859865" lon="13.4231656"><ele>30.0</ele><time>2026-04-26T11:30:16.298Z</time></trkpt><trkpt lat="38.0859822" lon="13.4228172"><ele>30.0</ele><time>2026-04-26T11:30:17.298Z</time></trkpt><trkpt lat="38.0859798" lon="13.4224678"><ele>29.5</ele><time>2026-04-26T11:30:18.297Z</time></trkpt><trkpt lat="38.085976" lon="13.4221094"><ele>29.0</ele><time>2026-04-26T11:30:19.298Z</time></trkpt><trkpt lat="38.0859747" lon="13.4217568"><ele>29.0</ele><time>2026-04-26T11:30:20.298Z</time></trkpt><trkpt lat="38.0859732" lon="13.4214096"><ele>29.0</ele><time>2026-04-26T11:30:21.298Z</time></trkpt><trkpt lat="38.0859713" lon="13.4210626"><ele>29.0</ele><time>2026-04-26T11:30:22.298Z</time></trkpt><trkpt lat="38.0859776" lon="13.4207144"><ele>29.0</ele><time>2026-04-26T11:30:23.298Z</time></trkpt><trkpt lat="38.0859704" lon="13.4203671"><ele>29.0</ele><time>2026-04-26T11:30:24.298Z</time></trkpt><trkpt lat="38.0859671" lon="13.4200187"><ele>29.0</ele><time>2026-04-26T11:30:25.298Z</time></trkpt><trkpt lat="38.0859666" lon="13.4196701"><ele>29.5</ele><time>2026-04-26T11:30:26.298Z</time></trkpt><trkpt lat="38.0859663" lon="13.4193347"><ele>30.0</ele><time>2026-04-26T11:30:27.298Z</time></trkpt><trkpt lat="38.0859696" lon="13.4189767"><ele>31.0</ele><time>2026-04-26T11:30:28.298Z</time></trkpt><trkpt lat="38.0859652" lon="13.4186273"><ele>32.0</ele><time>2026-04-26T11:30:29.298Z</time></trkpt><trkpt lat="38.0859657" lon="13.4182728"><ele>31.5</ele><time>2026-04-26T11:30:30.298Z</time></trkpt><trkpt lat="38.085963" lon="13.4179206"><ele>31.0</ele><time>2026-04-26T11:30:31.298Z</time></trkpt><trkpt lat="38.0859601" lon="13.4175742"><ele>31.0</ele><time>2026-04-26T11:30:32.298Z</time></trkpt><trkpt lat="38.0859565" lon="13.4172272"><ele>31.0</ele><time>2026-04-26T11:30:33.298Z</time></trkpt><trkpt lat="38.0859541" lon="13.4168801"><ele>30.5</ele><time>2026-04-26T11:30:34.298Z</time></trkpt><trkpt lat="38.08595" lon="13.4165414"><ele>30.0</ele><time>2026-04-26T11:30:35.298Z</time></trkpt><trkpt lat="38.0859487" lon="13.4161982"><ele>31.0</ele><time>2026-04-26T11:30:36.298Z</time></trkpt><trkpt lat="38.0859462" lon="13.4158584"><ele>32.0</ele><time>2026-04-26T11:30:37.298Z</time></trkpt><trkpt lat="38.0859389" lon="13.4155152"><ele>32.0</ele><time>2026-04-26T11:30:38.298Z</time></trkpt><trkpt lat="38.0859324" lon="13.4151756"><ele>32.0</ele><time>2026-04-26T11:30:39.298Z</time></trkpt><trkpt lat="38.0859273" lon="13.4148359"><ele>31.5</ele><time>2026-04-26T11:30:40.298Z</time></trkpt><trkpt lat="38.0859206" lon="13.4144908"><ele>31.0</ele><time>2026-04-26T11:30:41.298Z</time></trkpt><trkpt lat="38.0859173" lon="13.4141434"><ele>31.0</ele><time>2026-04-26T11:30:42.298Z</time></trkpt><trkpt lat="38.0859162" lon="13.4138027"><ele>31.0</ele><time>2026-04-26T11:30:43.298Z</time></trkpt><trkpt lat="38.0859099" lon="13.4134526"><ele>31.0</ele><time>2026-04-26T11:30:44.298Z</time></trkpt><trkpt lat="38.0859085" lon="13.4131033"><ele>31.0</ele><time>2026-04-26T11:30:45.298Z</time></trkpt><trkpt lat="38.0859102" lon="13.4127546"><ele>31.0</ele><time>2026-04-26T11:30:46.298Z</time></trkpt><trkpt lat="38.0859187" lon="13.4124055"><ele>31.0</ele><time>2026-04-26T11:30:47.298Z</time></trkpt><trkpt lat="38.0859345" lon="13.4120557"><ele>31.0</ele><time>2026-04-26T11:30:48.298Z</time></trkpt><trkpt lat="38.0859609" lon="13.4117101"><ele>31.0</ele><time>2026-04-26T11:30:49.298Z</time></trkpt><trkpt lat="38.0859878" lon="13.4113582"><ele>30.0</ele><time>2026-04-26T11:30:50.298Z</time></trkpt><trkpt lat="38.0860128" lon="13.4110194"><ele>29.0</ele><time>2026-04-26T11:30:51.298Z</time></trkpt><trkpt lat="38.0860458" lon="13.4106808"><ele>29.5</ele><time>2026-04-26T11:30:52.298Z</time></trkpt><trkpt lat="38.0860783" lon="13.4103389"><ele>30.0</ele><time>2026-04-26T11:30:53.298Z</time></trkpt><trkpt lat="38.0861093" lon="13.4099925"><ele>31.0</ele><time>2026-04-26T11:30:54.298Z</time></trkpt><trkpt lat="38.0861379" lon="13.4096466"><ele>32.0</ele><time>2026-04-26T11:30:55.298Z</time></trkpt><trkpt lat="38.0861676" lon="13.409302"><ele>32.0</ele><time>2026-04-26T11:30:56.298Z</time></trkpt><trkpt lat="38.0861966" lon="13.4089612"><ele>32.0</ele><time>2026-04-26T11:30:57.297Z</time></trkpt><trkpt lat="38.086226" lon="13.4086197"><ele>31.5</ele><time>2026-04-26T11:30:58.297Z</time></trkpt><trkpt lat="38.0862567" lon="13.4082839"><ele>31.0</ele><time>2026-04-26T11:30:59.298Z</time></trkpt><trkpt lat="38.0862849" lon="13.4079506"><ele>31.0</ele><time>2026-04-26T11:31:00.298Z</time></trkpt><trkpt lat="38.0863136" lon="13.4076134"><ele>31.0</ele><time>2026-04-26T11:31:01.298Z</time></trkpt><trkpt lat="38.0863426" lon="13.407277"><ele>31.0</ele><time>2026-04-26T11:31:02.298Z</time></trkpt><trkpt lat="38.0863702" lon="13.4069401"><ele>31.0</ele><time>2026-04-26T11:31:03.298Z</time></trkpt><trkpt lat="38.0864015" lon="13.4066032"><ele>30.5</ele><time>2026-04-26T11:31:04.298Z</time></trkpt><trkpt lat="38.0864292" lon="13.4062671"><ele>30.0</ele><time>2026-04-26T11:31:05.298Z</time></trkpt><trkpt lat="38.0864604" lon="13.4059287"><ele>30.0</ele><time>2026-04-26T11:31:06.298Z</time></trkpt><trkpt lat="38.0864936" lon="13.4055958"><ele>30.0</ele><time>2026-04-26T11:31:07.298Z</time></trkpt><trkpt lat="38.0865218" lon="13.4052629"><ele>31.0</ele><time>2026-04-26T11:31:08.298Z</time></trkpt><trkpt lat="38.0865517" lon="13.4049332"><ele>32.0</ele><time>2026-04-26T11:31:09.298Z</time></trkpt><trkpt lat="38.0865802" lon="13.4046034"><ele>31.5</ele><time>2026-04-26T11:31:10.298Z</time></trkpt><trkpt lat="38.0866155" lon="13.4042584"><ele>31.0</ele><time>2026-04-26T11:31:11.298Z</time></trkpt><trkpt lat="38.0866341" lon="13.4039333"><ele>31.0</ele><time>2026-04-26T11:31:12.297Z</time></trkpt><trkpt lat="38.0866644" lon="13.4036064"><ele>31.0</ele><time>2026-04-26T11:31:13.298Z</time></trkpt><trkpt lat="38.0867027" lon="13.4032811"><ele>31.5</ele><time>2026-04-26T11:31:14.298Z</time></trkpt><trkpt lat="38.0867366" lon="13.4029522"><ele>32.0</ele><time>2026-04-26T11:31:15.298Z</time></trkpt><trkpt lat="38.0867698" lon="13.4026289"><ele>32.0</ele><time>2026-04-26T11:31:16.298Z</time></trkpt><trkpt lat="38.0868006" lon="13.4022997"><ele>32.0</ele><time>2026-04-26T11:31:17.298Z</time></trkpt><trkpt lat="38.0868278" lon="13.4019688"><ele>32.0</ele><time>2026-04-26T11:31:18.298Z</time></trkpt><trkpt lat="38.0868592" lon="13.4016387"><ele>32.0</ele><time>2026-04-26T11:31:19.298Z</time></trkpt><trkpt lat="38.0868874" lon="13.4013092"><ele>30.5</ele><time>2026-04-26T11:31:20.298Z</time></trkpt><trkpt lat="38.0869159" lon="13.400977"><ele>29.0</ele><time>2026-04-26T11:31:21.298Z</time></trkpt><trkpt lat="38.0869429" lon="13.4006485"><ele>29.5</ele><time>2026-04-26T11:31:22.298Z</time></trkpt><trkpt lat="38.0869722" lon="13.4003289"><ele>30.0</ele><time>2026-04-26T11:31:23.298Z</time></trkpt><trkpt lat="38.0870013" lon="13.4000016"><ele>30.0</ele><time>2026-04-26T11:31:24.298Z</time></trkpt><trkpt lat="38.0870314" lon="13.399671"><ele>30.0</ele><time>2026-04-26T11:31:25.298Z</time></trkpt><trkpt lat="38.0870628" lon="13.3993497"><ele>30.0</ele><time>2026-04-26T11:31:26.298Z</time></trkpt><trkpt lat="38.0870925" lon="13.3990253"><ele>30.0</ele><time>2026-04-26T11:31:27.297Z</time></trkpt><trkpt lat="38.0871231" lon="13.3987065"><ele>30.5</ele><time>2026-04-26T11:31:28.298Z</time></trkpt><trkpt lat="38.0871489" lon="13.398385"><ele>31.0</ele><time>2026-04-26T11:31:29.298Z</time></trkpt><trkpt lat="38.0871787" lon="13.3980559"><ele>32.5</ele><time>2026-04-26T11:31:30.298Z</time></trkpt><trkpt lat="38.0872104" lon="13.3977386"><ele>34.0</ele><time>2026-04-26T11:31:31.298Z</time></trkpt><trkpt lat="38.0872386" lon="13.3974181"><ele>33.5</ele><time>2026-04-26T11:31:32.297Z</time></trkpt><trkpt lat="38.0872665" lon="13.3970857"><ele>33.0</ele><time>2026-04-26T11:31:33.298Z</time></trkpt><trkpt lat="38.0872919" lon="13.396758"><ele>33.0</ele><time>2026-04-26T11:31:34.298Z</time></trkpt><trkpt lat="38.0873213" lon="13.3964446"><ele>33.0</ele><time>2026-04-26T11:31:35.298Z</time></trkpt><trkpt lat="38.08735" lon="13.3961153"><ele>32.5</ele><time>2026-04-26T11:31:36.298Z</time></trkpt><trkpt lat="38.0873766" lon="13.3957933"><ele>32.0</ele><time>2026-04-26T11:31:37.298Z</time></trkpt><trkpt lat="38.087399" lon="13.3954889"><ele>31.5</ele><time>2026-04-26T11:31:38.298Z</time></trkpt><trkpt lat="38.0874187" lon="13.3951941"><ele>31.0</ele><time>2026-04-26T11:31:39.298Z</time></trkpt><trkpt lat="38.0874421" lon="13.3949004"><ele>31.0</ele><time>2026-04-26T11:31:40.298Z</time></trkpt><trkpt lat="38.0874762" lon="13.394588"><ele>31.0</ele><time>2026-04-26T11:31:41.298Z</time></trkpt><trkpt lat="38.0875138" lon="13.3942799"><ele>31.0</ele><time>2026-04-26T11:31:42.298Z</time></trkpt><trkpt lat="38.0875466" lon="13.3939737"><ele>31.0</ele><time>2026-04-26T11:31:43.298Z</time></trkpt><trkpt lat="38.0875827" lon="13.3936597"><ele>31.0</ele><time>2026-04-26T11:31:44.298Z</time></trkpt><trkpt lat="38.0876368" lon="13.3933515"><ele>31.0</ele><time>2026-04-26T11:31:45.298Z</time></trkpt><trkpt lat="38.087692" lon="13.3930623"><ele>31.0</ele><time>2026-04-26T11:31:46.298Z</time></trkpt><trkpt lat="38.087748" lon="13.3927743"><ele>31.0</ele><time>2026-04-26T11:31:47.298Z</time></trkpt><trkpt lat="38.0878051" lon="13.3924851"><ele>31.0</ele><time>2026-04-26T11:31:48.298Z</time></trkpt><trkpt lat="38.0878645" lon="13.3921994"><ele>31.0</ele><time>2026-04-26T11:31:49.297Z</time></trkpt><trkpt lat="38.0879165" lon="13.3919075"><ele>31.0</ele><time>2026-04-26T11:31:50.298Z</time></trkpt><trkpt lat="38.0879745" lon="13.391611"><ele>31.0</ele><time>2026-04-26T11:31:51.298Z</time></trkpt><trkpt lat="38.0880311" lon="13.3913044"><ele>31.0</ele><time>2026-04-26T11:31:52.298Z</time></trkpt><trkpt lat="38.0880942" lon="13.3909958"><ele>31.0</ele><time>2026-04-26T11:31:53.298Z</time></trkpt><trkpt lat="38.0881526" lon="13.3906947"><ele>32.5</ele><time>2026-04-26T11:31:54.298Z</time></trkpt><trkpt lat="38.0882114" lon="13.3903845"><ele>34.0</ele><time>2026-04-26T11:31:55.298Z</time></trkpt><trkpt lat="38.0882738" lon="13.3900514"><ele>32.0</ele><time>2026-04-26T11:31:56.298Z</time></trkpt><trkpt lat="38.0883423" lon="13.3897164"><ele>30.0</ele><time>2026-04-26T11:31:57.298Z</time></trkpt><trkpt lat="38.0884136" lon="13.3893785"><ele>30.0</ele><time>2026-04-26T11:31:58.298Z</time></trkpt><trkpt lat="38.0884854" lon="13.3890459"><ele>30.0</ele><time>2026-04-26T11:31:59.298Z</time></trkpt><trkpt lat="38.0885546" lon="13.3887155"><ele>34.0</ele><time>2026-04-26T11:32:00.298Z</time></trkpt><trkpt lat="38.0886245" lon="13.3883818"><ele>38.0</ele><time>2026-04-26T11:32:01.298Z</time></trkpt><trkpt lat="38.088702" lon="13.3880523"><ele>39.5</ele><time>2026-04-26T11:32:02.298Z</time></trkpt><trkpt lat="38.088776" lon="13.3877292"><ele>41.0</ele><time>2026-04-26T11:32:03.298Z</time></trkpt><trkpt lat="38.0888535" lon="13.3874022"><ele>39.0</ele><time>2026-04-26T11:32:04.298Z</time></trkpt><trkpt lat="38.0889206" lon="13.3871022"><ele>37.0</ele><time>2026-04-26T11:32:05.298Z</time></trkpt><trkpt lat="38.0889901" lon="13.3868072"><ele>37.0</ele><time>2026-04-26T11:32:06.298Z</time></trkpt><trkpt lat="38.0890683" lon="13.3865135"><ele>37.0</ele><time>2026-04-26T11:32:07.298Z</time></trkpt><trkpt lat="38.0891516" lon="13.3862429"><ele>34.333333333333336</ele><time>2026-04-26T11:32:08.298Z</time></trkpt><trkpt lat="38.0892293" lon="13.3859866"><ele>31.666666666666664</ele><time>2026-04-26T11:32:09.298Z</time></trkpt><trkpt lat="38.0893117" lon="13.3857296"><ele>29.0</ele><time>2026-04-26T11:32:10.298Z</time></trkpt><trkpt lat="38.0894011" lon="13.3854731"><ele>28.666666666666664</ele><time>2026-04-26T11:32:11.298Z</time></trkpt><trkpt lat="38.0894891" lon="13.3852188"><ele>28.333333333333336</ele><time>2026-04-26T11:32:12.298Z</time></trkpt><trkpt lat="38.0895877" lon="13.3849586"><ele>28.0</ele><time>2026-04-26T11:32:13.298Z</time></trkpt><trkpt lat="38.0896831" lon="13.3847031"><ele>29.0</ele><time>2026-04-26T11:32:14.298Z</time></trkpt><trkpt lat="38.0897765" lon="13.384451"><ele>30.0</ele><time>2026-04-26T11:32:15.298Z</time></trkpt><trkpt lat="38.0898665" lon="13.3842"><ele>31.0</ele><time>2026-04-26T11:32:16.298Z</time></trkpt><trkpt lat="38.089952" lon="13.3839559"><ele>32.0</ele><time>2026-04-26T11:32:17.298Z</time></trkpt><trkpt lat="38.0900304" lon="13.3837196"><ele>33.0</ele><time>2026-04-26T11:32:18.298Z</time></trkpt><trkpt lat="38.0901209" lon="13.3834907"><ele>34.0</ele><time>2026-04-26T11:32:19.298Z</time></trkpt><trkpt lat="38.0902089" lon="13.383267"><ele>34.0</ele><time>2026-04-26T11:32:20.297Z</time></trkpt><trkpt lat="38.090292" lon="13.3830517"><ele>34.0</ele><time>2026-04-26T11:32:21.298Z</time></trkpt><trkpt lat="38.0903755" lon="13.3828407"><ele>34.0</ele><time>2026-04-26T11:32:22.298Z</time></trkpt><trkpt lat="38.0904592" lon="13.3826272"><ele>34.333333333333336</ele><time>2026-04-26T11:32:23.298Z</time></trkpt><trkpt lat="38.0905412" lon="13.3824044"><ele>34.666666666666664</ele><time>2026-04-26T11:32:24.298Z</time></trkpt><trkpt lat="38.0906219" lon="13.3821843"><ele>35.0</ele><time>2026-04-26T11:32:25.298Z</time></trkpt><trkpt lat="38.0906958" lon="13.3819715"><ele>35.0</ele><time>2026-04-26T11:32:26.298Z</time></trkpt><trkpt lat="38.0907727" lon="13.3817542"><ele>35.0</ele><time>2026-04-26T11:32:27.298Z</time></trkpt><trkpt lat="38.0908377" lon="13.3815332"><ele>35.0</ele><time>2026-04-26T11:32:28.298Z</time></trkpt><trkpt lat="38.0908975" lon="13.3813126"><ele>35.0</ele><time>2026-04-26T11:32:29.298Z</time></trkpt><trkpt lat="38.0909486" lon="13.3810855"><ele>35.0</ele><time>2026-04-26T11:32:30.298Z</time></trkpt><trkpt lat="38.0909899" lon="13.3808626"><ele>35.0</ele><time>2026-04-26T11:32:31.298Z</time></trkpt><trkpt lat="38.0910267" lon="13.3806406"><ele>35.666666666666664</ele><time>2026-04-26T11:32:32.298Z</time></trkpt><trkpt lat="38.0910578" lon="13.3804271"><ele>36.333333333333336</ele><time>2026-04-26T11:32:33.298Z</time></trkpt><trkpt lat="38.091085" lon="13.3802207"><ele>37.0</ele><time>2026-04-26T11:32:34.298Z</time></trkpt><trkpt lat="38.0911055" lon="13.3800097"><ele>37.0</ele><time>2026-04-26T11:32:35.297Z</time></trkpt><trkpt lat="38.0911247" lon="13.3797869"><ele>37.0</ele><time>2026-04-26T11:32:36.298Z</time></trkpt><trkpt lat="38.0911391" lon="13.3795771"><ele>37.0</ele><time>2026-04-26T11:32:37.298Z</time></trkpt><trkpt lat="38.091147" lon="13.3793676"><ele>37.66666666666667</ele><time>2026-04-26T11:32:38.298Z</time></trkpt><trkpt lat="38.091152" lon="13.3791567"><ele>38.333333333333336</ele><time>2026-04-26T11:32:39.298Z</time></trkpt><trkpt lat="38.0911555" lon="13.3789422"><ele>39.0</ele><time>2026-04-26T11:32:40.298Z</time></trkpt><trkpt lat="38.0911612" lon="13.3787313"><ele>39.666666666666664</ele><time>2026-04-26T11:32:41.298Z</time></trkpt><trkpt lat="38.0911733" lon="13.3785163"><ele>40.33333333333333</ele><time>2026-04-26T11:32:42.298Z</time></trkpt><trkpt lat="38.0911775" lon="13.3783044"><ele>41.0</ele><time>2026-04-26T11:32:43.298Z</time></trkpt><trkpt lat="38.0911835" lon="13.3780996"><ele>40.666666666666664</ele><time>2026-04-26T11:32:44.297Z</time></trkpt><trkpt lat="38.0911843" lon="13.377904"><ele>40.333333333333336</ele><time>2026-04-26T11:32:45.298Z</time></trkpt><trkpt lat="38.0911817" lon="13.3777099"><ele>40.0</ele><time>2026-04-26T11:32:46.297Z</time></trkpt><trkpt lat="38.0911717" lon="13.3775218"><ele>40.0</ele><time>2026-04-26T11:32:47.297Z</time></trkpt><trkpt lat="38.0911484" lon="13.3773393"><ele>40.0</ele><time>2026-04-26T11:32:48.297Z</time></trkpt><trkpt lat="38.0911048" lon="13.3771653"><ele>40.0</ele><time>2026-04-26T11:32:49.297Z</time></trkpt><trkpt lat="38.0910493" lon="13.3769974"><ele>40.0</ele><time>2026-04-26T11:32:50.297Z</time></trkpt><trkpt lat="38.0909875" lon="13.3768224"><ele>40.66666666666667</ele><time>2026-04-26T11:32:51.297Z</time></trkpt><trkpt lat="38.0909192" lon="13.3766489"><ele>41.333333333333336</ele><time>2026-04-26T11:32:52.297Z</time></trkpt><trkpt lat="38.0908391" lon="13.3764705"><ele>42.0</ele><time>2026-04-26T11:32:53.297Z</time></trkpt><trkpt lat="38.0907584" lon="13.3762752"><ele>43.0</ele><time>2026-04-26T11:32:54.297Z</time></trkpt><trkpt lat="38.0906792" lon="13.3760863"><ele>44.0</ele><time>2026-04-26T11:32:55.297Z</time></trkpt><trkpt lat="38.0906008" lon="13.3758962"><ele>45.0</ele><time>2026-04-26T11:32:56.297Z</time></trkpt><trkpt lat="38.0905274" lon="13.3757027"><ele>45.666666666666664</ele><time>2026-04-26T11:32:57.297Z</time></trkpt><trkpt lat="38.0904545" lon="13.3755058"><ele>46.33333333333333</ele><time>2026-04-26T11:32:58.297Z</time></trkpt><trkpt lat="38.0903879" lon="13.3753092"><ele>47.0</ele><time>2026-04-26T11:32:59.297Z</time></trkpt><trkpt lat="38.0903318" lon="13.3751011"><ele>47.0</ele><time>2026-04-26T11:33:00.297Z</time></trkpt><trkpt lat="38.0902778" lon="13.3748912"><ele>47.0</ele><time>2026-04-26T11:33:01.297Z</time></trkpt><trkpt lat="38.0902285" lon="13.3746764"><ele>47.0</ele><time>2026-04-26T11:33:02.297Z</time></trkpt><trkpt lat="38.0901852" lon="13.3744594"><ele>47.33333333333333</ele><time>2026-04-26T11:33:03.297Z</time></trkpt><trkpt lat="38.0901443" lon="13.3742416"><ele>47.666666666666664</ele><time>2026-04-26T11:33:04.297Z</time></trkpt><trkpt lat="38.0900987" lon="13.3740208"><ele>48.0</ele><time>2026-04-26T11:33:05.297Z</time></trkpt><trkpt lat="38.090047" lon="13.3738023"><ele>47.333333333333336</ele><time>2026-04-26T11:33:06.297Z</time></trkpt><trkpt lat="38.0899956" lon="13.3735845"><ele>46.66666666666667</ele><time>2026-04-26T11:33:07.297Z</time></trkpt><trkpt lat="38.0899467" lon="13.3733655"><ele>46.0</ele><time>2026-04-26T11:33:08.297Z</time></trkpt><trkpt lat="38.0898961" lon="13.3731428"><ele>48.66666666666667</ele><time>2026-04-26T11:33:09.297Z</time></trkpt><trkpt lat="38.0898501" lon="13.3729254"><ele>51.333333333333336</ele><time>2026-04-26T11:33:10.297Z</time></trkpt><trkpt lat="38.0898001" lon="13.3727118"><ele>54.0</ele><time>2026-04-26T11:33:11.296Z</time></trkpt><trkpt lat="38.0897499" lon="13.3724932"><ele>54.0</ele><time>2026-04-26T11:33:12.297Z</time></trkpt><trkpt lat="38.0896975" lon="13.3722633"><ele>54.0</ele><time>2026-04-26T11:33:13.297Z</time></trkpt><trkpt lat="38.0896478" lon="13.3720406"><ele>54.0</ele><time>2026-04-26T11:33:14.297Z</time></trkpt><trkpt lat="38.0895944" lon="13.3718184"><ele>53.0</ele><time>2026-04-26T11:33:15.297Z</time></trkpt><trkpt lat="38.0895416" lon="13.3715975"><ele>52.0</ele><time>2026-04-26T11:33:16.297Z</time></trkpt><trkpt lat="38.0895018" lon="13.371362"><ele>51.0</ele><time>2026-04-26T11:33:17.297Z</time></trkpt><trkpt lat="38.0894505" lon="13.3711367"><ele>51.0</ele><time>2026-04-26T11:33:18.297Z</time></trkpt><trkpt lat="38.0894046" lon="13.3709169"><ele>51.0</ele><time>2026-04-26T11:33:19.297Z</time></trkpt><trkpt lat="38.0893553" lon="13.3707006"><ele>51.0</ele><time>2026-04-26T11:33:20.296Z</time></trkpt><trkpt lat="38.0893123" lon="13.3704949"><ele>51.33333333333333</ele><time>2026-04-26T11:33:21.297Z</time></trkpt><trkpt lat="38.0892671" lon="13.3702937"><ele>51.666666666666664</ele><time>2026-04-26T11:33:22.297Z</time></trkpt><trkpt lat="38.089222" lon="13.3700908"><ele>52.0</ele><time>2026-04-26T11:33:23.297Z</time></trkpt><trkpt lat="38.0891728" lon="13.3698753"><ele>52.33333333333333</ele><time>2026-04-26T11:33:24.297Z</time></trkpt><trkpt lat="38.0891332" lon="13.3696498"><ele>52.66666666666667</ele><time>2026-04-26T11:33:25.297Z</time></trkpt><trkpt lat="38.0890906" lon="13.3694263"><ele>53.0</ele><time>2026-04-26T11:33:26.297Z</time></trkpt><trkpt lat="38.0890471" lon="13.3692187"><ele>53.0</ele><time>2026-04-26T11:33:27.297Z</time></trkpt><trkpt lat="38.0890048" lon="13.3690066"><ele>53.0</ele><time>2026-04-26T11:33:28.297Z</time></trkpt><trkpt lat="38.0889614" lon="13.3687958"><ele>53.0</ele><time>2026-04-26T11:33:29.297Z</time></trkpt><trkpt lat="38.0889153" lon="13.3685805"><ele>53.333333333333336</ele><time>2026-04-26T11:33:30.297Z</time></trkpt><trkpt lat="38.0888734" lon="13.3683652"><ele>53.66666666666667</ele><time>2026-04-26T11:33:31.297Z</time></trkpt><trkpt lat="38.0888397" lon="13.3681526"><ele>54.0</ele><time>2026-04-26T11:33:32.297Z</time></trkpt><trkpt lat="38.0888017" lon="13.3679343"><ele>54.66666666666667</ele><time>2026-04-26T11:33:33.297Z</time></trkpt><trkpt lat="38.0887674" lon="13.3677206"><ele>55.333333333333336</ele><time>2026-04-26T11:33:34.297Z</time></trkpt><trkpt lat="38.0887366" lon="13.3675069"><ele>56.0</ele><time>2026-04-26T11:33:35.297Z</time></trkpt><trkpt lat="38.0886979" lon="13.3672941"><ele>56.333333333333336</ele><time>2026-04-26T11:33:36.297Z</time></trkpt><trkpt lat="38.08866" lon="13.3670801"><ele>56.66666666666667</ele><time>2026-04-26T11:33:37.297Z</time></trkpt><trkpt lat="38.088626" lon="13.3668641"><ele>57.0</ele><time>2026-04-26T11:33:38.297Z</time></trkpt><trkpt lat="38.0885882" lon="13.3666557"><ele>57.0</ele><time>2026-04-26T11:33:39.297Z</time></trkpt><trkpt lat="38.0885558" lon="13.3664403"><ele>57.0</ele><time>2026-04-26T11:33:40.297Z</time></trkpt><trkpt lat="38.08852" lon="13.366221"><ele>57.0</ele><time>2026-04-26T11:33:41.297Z</time></trkpt><trkpt lat="38.0884841" lon="13.366002"><ele>57.0</ele><time>2026-04-26T11:33:42.297Z</time></trkpt><trkpt lat="38.0884493" lon="13.3657859"><ele>57.0</ele><time>2026-04-26T11:33:43.297Z</time></trkpt><trkpt lat="38.0884138" lon="13.3655625"><ele>57.0</ele><time>2026-04-26T11:33:44.297Z</time></trkpt><trkpt lat="38.088379" lon="13.3653325"><ele>57.0</ele><time>2026-04-26T11:33:45.297Z</time></trkpt><trkpt lat="38.0883585" lon="13.3651053"><ele>57.0</ele><time>2026-04-26T11:33:46.297Z</time></trkpt><trkpt lat="38.0883214" lon="13.3648762"><ele>57.0</ele><time>2026-04-26T11:33:47.297Z</time></trkpt><trkpt lat="38.088284" lon="13.364646"><ele>57.33333333333333</ele><time>2026-04-26T11:33:48.297Z</time></trkpt><trkpt lat="38.0882467" lon="13.3644217"><ele>57.666666666666664</ele><time>2026-04-26T11:33:49.296Z</time></trkpt><trkpt lat="38.0882064" lon="13.3641979"><ele>58.0</ele><time>2026-04-26T11:33:50.297Z</time></trkpt><trkpt lat="38.0881683" lon="13.3639704"><ele>58.666666666666664</ele><time>2026-04-26T11:33:51.297Z</time></trkpt><trkpt lat="38.0881293" lon="13.3637402"><ele>59.33333333333333</ele><time>2026-04-26T11:33:52.297Z</time></trkpt><trkpt lat="38.0880899" lon="13.3635159"><ele>60.0</ele><time>2026-04-26T11:33:53.297Z</time></trkpt><trkpt lat="38.088055" lon="13.3632924"><ele>60.0</ele><time>2026-04-26T11:33:54.297Z</time></trkpt><trkpt lat="38.0880149" lon="13.3630689"><ele>60.0</ele><time>2026-04-26T11:33:55.296Z</time></trkpt><trkpt lat="38.0879861" lon="13.3628545"><ele>60.0</ele><time>2026-04-26T11:33:56.297Z</time></trkpt><trkpt lat="38.0879501" lon="13.3626375"><ele>60.0</ele><time>2026-04-26T11:33:57.297Z</time></trkpt><trkpt lat="38.0879173" lon="13.3624238"><ele>60.0</ele><time>2026-04-26T11:33:58.297Z</time></trkpt><trkpt lat="38.087884" lon="13.3622169"><ele>60.0</ele><time>2026-04-26T11:33:59.297Z</time></trkpt><trkpt lat="38.0878539" lon="13.3620134"><ele>60.25</ele><time>2026-04-26T11:34:00.296Z</time></trkpt><trkpt lat="38.0878291" lon="13.3618235"><ele>60.5</ele><time>2026-04-26T11:34:01.297Z</time></trkpt><trkpt lat="38.0877952" lon="13.3616359"><ele>60.75</ele><time>2026-04-26T11:34:02.297Z</time></trkpt><trkpt lat="38.0877643" lon="13.3614542"><ele>61.0</ele><time>2026-04-26T11:34:03.297Z</time></trkpt><trkpt lat="38.0877351" lon="13.3612799"><ele>61.0</ele><time>2026-04-26T11:34:04.297Z</time></trkpt><trkpt lat="38.0877042" lon="13.361108"><ele>61.0</ele><time>2026-04-26T11:34:05.297Z</time></trkpt><trkpt lat="38.0876745" lon="13.3609301"><ele>61.0</ele><time>2026-04-26T11:34:06.297Z</time></trkpt><trkpt lat="38.0876387" lon="13.3607563"><ele>61.0</ele><time>2026-04-26T11:34:07.296Z</time></trkpt><trkpt lat="38.0876077" lon="13.3605832"><ele>61.666666666666664</ele><time>2026-04-26T11:34:08.297Z</time></trkpt><trkpt lat="38.0875818" lon="13.3603955"><ele>62.33333333333333</ele><time>2026-04-26T11:34:09.297Z</time></trkpt><trkpt lat="38.0875489" lon="13.3601989"><ele>63.0</ele><time>2026-04-26T11:34:10.297Z</time></trkpt><trkpt lat="38.0875181" lon="13.3599976"><ele>63.0</ele><time>2026-04-26T11:34:11.297Z</time></trkpt><trkpt lat="38.0874924" lon="13.3597937"><ele>63.0</ele><time>2026-04-26T11:34:12.297Z</time></trkpt><trkpt lat="38.0874545" lon="13.3595872"><ele>63.0</ele><time>2026-04-26T11:34:13.297Z</time></trkpt><trkpt lat="38.0874212" lon="13.359377"><ele>64.0</ele><time>2026-04-26T11:34:14.297Z</time></trkpt><trkpt lat="38.0873841" lon="13.3591682"><ele>65.0</ele><time>2026-04-26T11:34:15.296Z</time></trkpt><trkpt lat="38.0873489" lon="13.358957"><ele>66.0</ele><time>2026-04-26T11:34:16.297Z</time></trkpt><trkpt lat="38.0873113" lon="13.3587438"><ele>66.66666666666667</ele><time>2026-04-26T11:34:17.296Z</time></trkpt><trkpt lat="38.087276" lon="13.3585325"><ele>67.33333333333334</ele><time>2026-04-26T11:34:18.297Z</time></trkpt><trkpt lat="38.0872407" lon="13.3583172"><ele>68.0</ele><time>2026-04-26T11:34:19.297Z</time></trkpt><trkpt lat="38.0872032" lon="13.3580982"><ele>68.33333333333334</ele><time>2026-04-26T11:34:20.297Z</time></trkpt><trkpt lat="38.0871673" lon="13.3578759"><ele>68.66666666666667</ele><time>2026-04-26T11:34:21.297Z</time></trkpt><trkpt lat="38.0871324" lon="13.3576586"><ele>69.0</ele><time>2026-04-26T11:34:22.297Z</time></trkpt><trkpt lat="38.0870977" lon="13.3574449"><ele>69.0</ele><time>2026-04-26T11:34:23.297Z</time></trkpt><trkpt lat="38.087063" lon="13.3572328"><ele>69.0</ele><time>2026-04-26T11:34:24.297Z</time></trkpt><trkpt lat="38.0870301" lon="13.3570169"><ele>69.0</ele><time>2026-04-26T11:34:25.297Z</time></trkpt><trkpt lat="38.087004" lon="13.3568013"><ele>69.0</ele><time>2026-04-26T11:34:26.297Z</time></trkpt><trkpt lat="38.0869736" lon="13.3565872"><ele>69.0</ele><time>2026-04-26T11:34:27.297Z</time></trkpt><trkpt lat="38.0869451" lon="13.3563721"><ele>69.0</ele><time>2026-04-26T11:34:28.297Z</time></trkpt><trkpt lat="38.0869132" lon="13.3561565"><ele>69.0</ele><time>2026-04-26T11:34:29.297Z</time></trkpt><trkpt lat="38.086879" lon="13.3559545"><ele>69.0</ele><time>2026-04-26T11:34:30.297Z</time></trkpt><trkpt lat="38.0868351" lon="13.3557446"><ele>69.0</ele><time>2026-04-26T11:34:31.297Z</time></trkpt><trkpt lat="38.0867948" lon="13.3555297"><ele>70.0</ele><time>2026-04-26T11:34:32.297Z</time></trkpt><trkpt lat="38.0867566" lon="13.3553186"><ele>71.0</ele><time>2026-04-26T11:34:33.297Z</time></trkpt><trkpt lat="38.0867212" lon="13.3551065"><ele>72.0</ele><time>2026-04-26T11:34:34.297Z</time></trkpt><trkpt lat="38.0866899" lon="13.3548947"><ele>71.33333333333333</ele><time>2026-04-26T11:34:35.297Z</time></trkpt><trkpt lat="38.0866602" lon="13.3546863"><ele>70.66666666666666</ele><time>2026-04-26T11:34:36.297Z</time></trkpt><trkpt lat="38.0866301" lon="13.3544761"><ele>70.0</ele><time>2026-04-26T11:34:37.297Z</time></trkpt><trkpt lat="38.0866023" lon="13.3542661"><ele>70.33333333333333</ele><time>2026-04-26T11:34:38.297Z</time></trkpt><trkpt lat="38.0865733" lon="13.3540698"><ele>70.66666666666667</ele><time>2026-04-26T11:34:39.297Z</time></trkpt><trkpt lat="38.0865394" lon="13.3538553"><ele>71.0</ele><time>2026-04-26T11:34:40.297Z</time></trkpt><trkpt lat="38.0865047" lon="13.3536464"><ele>71.66666666666667</ele><time>2026-04-26T11:34:41.297Z</time></trkpt><trkpt lat="38.0864717" lon="13.3534319"><ele>72.33333333333333</ele><time>2026-04-26T11:34:42.296Z</time></trkpt><trkpt lat="38.0864415" lon="13.3532203"><ele>73.0</ele><time>2026-04-26T11:34:43.297Z</time></trkpt><trkpt lat="38.0864128" lon="13.3530065"><ele>73.33333333333333</ele><time>2026-04-26T11:34:44.297Z</time></trkpt><trkpt lat="38.0863934" lon="13.3527882"><ele>73.66666666666667</ele><time>2026-04-26T11:34:45.297Z</time></trkpt><trkpt lat="38.0863817" lon="13.3525651"><ele>74.0</ele><time>2026-04-26T11:34:46.297Z</time></trkpt><trkpt lat="38.0863714" lon="13.3523438"><ele>74.0</ele><time>2026-04-26T11:34:47.297Z</time></trkpt><trkpt lat="38.0863705" lon="13.3521235"><ele>74.0</ele><time>2026-04-26T11:34:48.297Z</time></trkpt><trkpt lat="38.0863738" lon="13.3519036"><ele>74.0</ele><time>2026-04-26T11:34:49.297Z</time></trkpt><trkpt lat="38.0863782" lon="13.3516879"><ele>74.0</ele><time>2026-04-26T11:34:50.297Z</time></trkpt><trkpt lat="38.0863717" lon="13.3514914"><ele>74.0</ele><time>2026-04-26T11:34:51.297Z</time></trkpt><trkpt lat="38.0863842" lon="13.3512924"><ele>74.0</ele><time>2026-04-26T11:34:52.297Z</time></trkpt><trkpt lat="38.0863968" lon="13.3510974"><ele>74.0</ele><time>2026-04-26T11:34:53.297Z</time></trkpt><trkpt lat="38.0864225" lon="13.3509034"><ele>74.0</ele><time>2026-04-26T11:34:54.297Z</time></trkpt><trkpt lat="38.0864555" lon="13.3507084"><ele>74.0</ele><time>2026-04-26T11:34:55.297Z</time></trkpt><trkpt lat="38.0864915" lon="13.3505186"><ele>74.0</ele><time>2026-04-26T11:34:56.296Z</time></trkpt><trkpt lat="38.0865322" lon="13.3503418"><ele>74.0</ele><time>2026-04-26T11:34:57.297Z</time></trkpt><trkpt lat="38.0865852" lon="13.3501697"><ele>74.0</ele><time>2026-04-26T11:34:58.297Z</time></trkpt><trkpt lat="38.086642" lon="13.3499989"><ele>74.0</ele><time>2026-04-26T11:34:59.297Z</time></trkpt><trkpt lat="38.0867045" lon="13.3498283"><ele>74.66666666666667</ele><time>2026-04-26T11:35:00.297Z</time></trkpt><trkpt lat="38.0867739" lon="13.3496678"><ele>75.33333333333333</ele><time>2026-04-26T11:35:01.297Z</time></trkpt><trkpt lat="38.0868207" lon="13.349487"><ele>76.0</ele><time>2026-04-26T11:35:02.297Z</time></trkpt><trkpt lat="38.0868925" lon="13.3493108"><ele>76.0</ele><time>2026-04-26T11:35:03.297Z</time></trkpt><trkpt lat="38.0869703" lon="13.3491273"><ele>76.0</ele><time>2026-04-26T11:35:04.297Z</time></trkpt><trkpt lat="38.0870462" lon="13.3489332"><ele>76.0</ele><time>2026-04-26T11:35:05.297Z</time></trkpt><trkpt lat="38.0871298" lon="13.3487375"><ele>77.0</ele><time>2026-04-26T11:35:06.296Z</time></trkpt><trkpt lat="38.0872146" lon="13.3485443"><ele>78.0</ele><time>2026-04-26T11:35:07.297Z</time></trkpt><trkpt lat="38.0873041" lon="13.3483497"><ele>79.0</ele><time>2026-04-26T11:35:08.297Z</time></trkpt><trkpt lat="38.0874013" lon="13.3481602"><ele>78.33333333333333</ele><time>2026-04-26T11:35:09.297Z</time></trkpt><trkpt lat="38.0874951" lon="13.3479672"><ele>77.66666666666667</ele><time>2026-04-26T11:35:10.297Z</time></trkpt><trkpt lat="38.0876009" lon="13.3477866"><ele>77.0</ele><time>2026-04-26T11:35:11.297Z</time></trkpt><trkpt lat="38.0877102" lon="13.3476045"><ele>77.0</ele><time>2026-04-26T11:35:12.297Z</time></trkpt><trkpt lat="38.0878151" lon="13.3474301"><ele>77.0</ele><time>2026-04-26T11:35:13.297Z</time></trkpt><trkpt lat="38.0879174" lon="13.34727"><ele>77.0</ele><time>2026-04-26T11:35:14.297Z</time></trkpt><trkpt lat="38.0880192" lon="13.3471206"><ele>76.75</ele><time>2026-04-26T11:35:15.297Z</time></trkpt><trkpt lat="38.0881179" lon="13.3469804"><ele>76.5</ele><time>2026-04-26T11:35:16.297Z</time></trkpt><trkpt lat="38.0882129" lon="13.3468452"><ele>76.25</ele><time>2026-04-26T11:35:17.297Z</time></trkpt><trkpt lat="38.0883088" lon="13.3467196"><ele>76.0</ele><time>2026-04-26T11:35:18.297Z</time></trkpt><trkpt lat="38.0884002" lon="13.3465934"><ele>75.75</ele><time>2026-04-26T11:35:19.297Z</time></trkpt><trkpt lat="38.0884862" lon="13.346473"><ele>75.5</ele><time>2026-04-26T11:35:20.297Z</time></trkpt><trkpt lat="38.0885757" lon="13.3463607"><ele>75.25</ele><time>2026-04-26T11:35:21.297Z</time></trkpt><trkpt lat="38.0886622" lon="13.346252"><ele>75.0</ele><time>2026-04-26T11:35:22.297Z</time></trkpt><trkpt lat="38.08875" lon="13.3461383"><ele>74.75</ele><time>2026-04-26T11:35:23.297Z</time></trkpt><trkpt lat="38.0888403" lon="13.3460204"><ele>74.5</ele><time>2026-04-26T11:35:24.296Z</time></trkpt><trkpt lat="38.08893" lon="13.3459035"><ele>74.25</ele><time>2026-04-26T11:35:25.297Z</time></trkpt><trkpt lat="38.089016" lon="13.3457838"><ele>74.0</ele><time>2026-04-26T11:35:26.297Z</time></trkpt><trkpt lat="38.0890975" lon="13.3456515"><ele>73.33333333333334</ele><time>2026-04-26T11:35:27.297Z</time></trkpt><trkpt lat="38.0891863" lon="13.3454952"><ele>72.66666666666667</ele><time>2026-04-26T11:35:28.296Z</time></trkpt><trkpt lat="38.0892813" lon="13.3453397"><ele>72.0</ele><time>2026-04-26T11:35:29.297Z</time></trkpt><trkpt lat="38.0893809" lon="13.3451852"><ele>72.0</ele><time>2026-04-26T11:35:30.297Z</time></trkpt><trkpt lat="38.0894939" lon="13.3450321"><ele>72.0</ele><time>2026-04-26T11:35:31.297Z</time></trkpt><trkpt lat="38.0896141" lon="13.3448653"><ele>72.0</ele><time>2026-04-26T11:35:32.297Z</time></trkpt><trkpt lat="38.0897338" lon="13.3446987"><ele>68.66666666666667</ele><time>2026-04-26T11:35:33.297Z</time></trkpt><trkpt lat="38.0898516" lon="13.3445304"><ele>65.33333333333334</ele><time>2026-04-26T11:35:34.297Z</time></trkpt><trkpt lat="38.0899735" lon="13.3443607"><ele>62.0</ele><time>2026-04-26T11:35:35.296Z</time></trkpt><trkpt lat="38.0900947" lon="13.3441963"><ele>62.0</ele><time>2026-04-26T11:35:36.297Z</time></trkpt><trkpt lat="38.0902182" lon="13.3440386"><ele>62.0</ele><time>2026-04-26T11:35:37.296Z</time></trkpt><trkpt lat="38.0903428" lon="13.3438709"><ele>62.0</ele><time>2026-04-26T11:35:38.297Z</time></trkpt><trkpt lat="38.090469" lon="13.3437063"><ele>65.33333333333334</ele><time>2026-04-26T11:35:39.297Z</time></trkpt><trkpt lat="38.0905973" lon="13.3435298"><ele>68.66666666666667</ele><time>2026-04-26T11:35:40.297Z</time></trkpt><trkpt lat="38.0907301" lon="13.3433525"><ele>72.0</ele><time>2026-04-26T11:35:41.297Z</time></trkpt><trkpt lat="38.0908629" lon="13.3431704"><ele>73.33333333333333</ele><time>2026-04-26T11:35:42.297Z</time></trkpt><trkpt lat="38.0909993" lon="13.3429871"><ele>74.66666666666666</ele><time>2026-04-26T11:35:43.297Z</time></trkpt><trkpt lat="38.091134" lon="13.3428089"><ele>76.0</ele><time>2026-04-26T11:35:44.297Z</time></trkpt><trkpt lat="38.0912655" lon="13.3426306"><ele>76.0</ele><time>2026-04-26T11:35:45.297Z</time></trkpt><trkpt lat="38.0913936" lon="13.3424574"><ele>76.0</ele><time>2026-04-26T11:35:46.297Z</time></trkpt><trkpt lat="38.091523" lon="13.3422848"><ele>76.0</ele><time>2026-04-26T11:35:47.297Z</time></trkpt><trkpt lat="38.0916491" lon="13.3421089"><ele>75.33333333333333</ele><time>2026-04-26T11:35:48.297Z</time></trkpt><trkpt lat="38.091777" lon="13.3419353"><ele>74.66666666666667</ele><time>2026-04-26T11:35:49.297Z</time></trkpt><trkpt lat="38.0919045" lon="13.3417659"><ele>74.0</ele><time>2026-04-26T11:35:50.297Z</time></trkpt><trkpt lat="38.0920387" lon="13.3415978"><ele>74.0</ele><time>2026-04-26T11:35:51.297Z</time></trkpt><trkpt lat="38.0921791" lon="13.3414176"><ele>74.0</ele><time>2026-04-26T11:35:52.297Z</time></trkpt><trkpt lat="38.0923019" lon="13.3412215"><ele>74.0</ele><time>2026-04-26T11:35:53.297Z</time></trkpt><trkpt lat="38.0924452" lon="13.3410315"><ele>73.5</ele><time>2026-04-26T11:35:54.297Z</time></trkpt><trkpt lat="38.0925977" lon="13.340823"><ele>73.0</ele><time>2026-04-26T11:35:55.297Z</time></trkpt><trkpt lat="38.0927612" lon="13.3406051"><ele>72.66666666666666</ele><time>2026-04-26T11:35:56.297Z</time></trkpt><trkpt lat="38.0929227" lon="13.3403915"><ele>72.33333333333333</ele><time>2026-04-26T11:35:57.297Z</time></trkpt><trkpt lat="38.0930742" lon="13.3401957"><ele>72.0</ele><time>2026-04-26T11:35:58.297Z</time></trkpt><trkpt lat="38.0932384" lon="13.3400058"><ele>71.33333333333333</ele><time>2026-04-26T11:35:59.296Z</time></trkpt><trkpt lat="38.093377" lon="13.3398287"><ele>70.66666666666666</ele><time>2026-04-26T11:36:00.297Z</time></trkpt><trkpt lat="38.0935036" lon="13.3396528"><ele>70.0</ele><time>2026-04-26T11:36:01.297Z</time></trkpt><trkpt lat="38.0936276" lon="13.3394938"><ele>72.33333333333333</ele><time>2026-04-26T11:36:02.297Z</time></trkpt><trkpt lat="38.0937443" lon="13.339339"><ele>74.66666666666667</ele><time>2026-04-26T11:36:03.297Z</time></trkpt><trkpt lat="38.0938511" lon="13.3391926"><ele>77.0</ele><time>2026-04-26T11:36:04.297Z</time></trkpt><trkpt lat="38.0939483" lon="13.3390564"><ele>77.0</ele><time>2026-04-26T11:36:05.297Z</time></trkpt><trkpt lat="38.0940408" lon="13.338928"><ele>77.0</ele><time>2026-04-26T11:36:06.296Z</time></trkpt><trkpt lat="38.0941309" lon="13.3388075"><ele>77.0</ele><time>2026-04-26T11:36:07.297Z</time></trkpt><trkpt lat="38.0942185" lon="13.3386974"><ele>77.0</ele><time>2026-04-26T11:36:08.297Z</time></trkpt><trkpt lat="38.0943057" lon="13.3385575"><ele>77.0</ele><time>2026-04-26T11:36:09.297Z</time></trkpt><trkpt lat="38.0944152" lon="13.3383885"><ele>77.0</ele><time>2026-04-26T11:36:10.297Z</time></trkpt><trkpt lat="38.0945389" lon="13.3382334"><ele>77.0</ele><time>2026-04-26T11:36:11.297Z</time></trkpt><trkpt lat="38.0946682" lon="13.3380633"><ele>77.33333333333334</ele><time>2026-04-26T11:36:12.297Z</time></trkpt><trkpt lat="38.0947984" lon="13.337874"><ele>77.66666666666667</ele><time>2026-04-26T11:36:13.297Z</time></trkpt><trkpt lat="38.0949393" lon="13.3376878"><ele>78.0</ele><time>2026-04-26T11:36:14.297Z</time></trkpt><trkpt lat="38.0950783" lon="13.3374918"><ele>77.66666666666667</ele><time>2026-04-26T11:36:15.297Z</time></trkpt><trkpt lat="38.0952201" lon="13.337295"><ele>77.33333333333334</ele><time>2026-04-26T11:36:16.296Z</time></trkpt><trkpt lat="38.095364" lon="13.3371026"><ele>77.0</ele><time>2026-04-26T11:36:17.296Z</time></trkpt><trkpt lat="38.0955021" lon="13.336904"><ele>77.0</ele><time>2026-04-26T11:36:18.297Z</time></trkpt><trkpt lat="38.0956445" lon="13.3367073"><ele>77.0</ele><time>2026-04-26T11:36:19.297Z</time></trkpt><trkpt lat="38.0957896" lon="13.3365087"><ele>77.0</ele><time>2026-04-26T11:36:20.297Z</time></trkpt><trkpt lat="38.0959343" lon="13.3363178"><ele>77.0</ele><time>2026-04-26T11:36:21.297Z</time></trkpt><trkpt lat="38.0960735" lon="13.3361236"><ele>77.0</ele><time>2026-04-26T11:36:22.296Z</time></trkpt><trkpt lat="38.0962121" lon="13.3359294"><ele>77.0</ele><time>2026-04-26T11:36:23.297Z</time></trkpt><trkpt lat="38.0963612" lon="13.3357453"><ele>77.0</ele><time>2026-04-26T11:36:24.297Z</time></trkpt><trkpt lat="38.0965078" lon="13.3355524"><ele>77.0</ele><time>2026-04-26T11:36:25.296Z</time></trkpt><trkpt lat="38.0966472" lon="13.3353601"><ele>77.0</ele><time>2026-04-26T11:36:26.297Z</time></trkpt><trkpt lat="38.0967907" lon="13.3351785"><ele>77.0</ele><time>2026-04-26T11:36:27.297Z</time></trkpt><trkpt lat="38.0969422" lon="13.335011"><ele>77.0</ele><time>2026-04-26T11:36:28.297Z</time></trkpt><trkpt lat="38.0970958" lon="13.3348471"><ele>77.0</ele><time>2026-04-26T11:36:29.297Z</time></trkpt><trkpt lat="38.0972447" lon="13.3346728"><ele>77.0</ele><time>2026-04-26T11:36:30.297Z</time></trkpt><trkpt lat="38.0974002" lon="13.334517"><ele>77.0</ele><time>2026-04-26T11:36:31.297Z</time></trkpt><trkpt lat="38.0975629" lon="13.3343633"><ele>77.0</ele><time>2026-04-26T11:36:32.297Z</time></trkpt><trkpt lat="38.0977147" lon="13.334211"><ele>78.66666666666667</ele><time>2026-04-26T11:36:33.297Z</time></trkpt><trkpt lat="38.0978621" lon="13.3340688"><ele>80.33333333333333</ele><time>2026-04-26T11:36:34.297Z</time></trkpt><trkpt lat="38.0980096" lon="13.3339165"><ele>82.0</ele><time>2026-04-26T11:36:35.296Z</time></trkpt><trkpt lat="38.0981619" lon="13.3337639"><ele>81.33333333333333</ele><time>2026-04-26T11:36:36.297Z</time></trkpt><trkpt lat="38.0983197" lon="13.3336087"><ele>80.66666666666667</ele><time>2026-04-26T11:36:37.297Z</time></trkpt><trkpt lat="38.0984729" lon="13.3334561"><ele>80.0</ele><time>2026-04-26T11:36:38.297Z</time></trkpt><trkpt lat="38.0986343" lon="13.3333134"><ele>80.0</ele><time>2026-04-26T11:36:39.297Z</time></trkpt><trkpt lat="38.0987905" lon="13.3331587"><ele>80.0</ele><time>2026-04-26T11:36:40.297Z</time></trkpt><trkpt lat="38.0989446" lon="13.3329946"><ele>80.0</ele><time>2026-04-26T11:36:41.297Z</time></trkpt><trkpt lat="38.099101" lon="13.3328388"><ele>81.0</ele><time>2026-04-26T11:36:42.297Z</time></trkpt><trkpt lat="38.0992484" lon="13.3326679"><ele>82.0</ele><time>2026-04-26T11:36:43.297Z</time></trkpt><trkpt lat="38.0993979" lon="13.3324973"><ele>83.0</ele><time>2026-04-26T11:36:44.297Z</time></trkpt><trkpt lat="38.0995445" lon="13.3323302"><ele>82.66666666666667</ele><time>2026-04-26T11:36:45.297Z</time></trkpt><trkpt lat="38.0997062" lon="13.3321856"><ele>82.33333333333333</ele><time>2026-04-26T11:36:46.297Z</time></trkpt><trkpt lat="38.0998643" lon="13.3320373"><ele>82.0</ele><time>2026-04-26T11:36:47.297Z</time></trkpt><trkpt lat="38.1000238" lon="13.3318894"><ele>82.0</ele><time>2026-04-26T11:36:48.297Z</time></trkpt><trkpt lat="38.1001801" lon="13.3317382"><ele>82.0</ele><time>2026-04-26T11:36:49.297Z</time></trkpt><trkpt lat="38.1003359" lon="13.3315917"><ele>82.0</ele><time>2026-04-26T11:36:50.297Z</time></trkpt><trkpt lat="38.1004873" lon="13.3314495"><ele>83.0</ele><time>2026-04-26T11:36:51.297Z</time></trkpt><trkpt lat="38.1006437" lon="13.3312964"><ele>84.0</ele><time>2026-04-26T11:36:52.297Z</time></trkpt><trkpt lat="38.1007999" lon="13.3311584"><ele>85.0</ele><time>2026-04-26T11:36:53.297Z</time></trkpt><trkpt lat="38.1009665" lon="13.331029"><ele>85.0</ele><time>2026-04-26T11:36:54.297Z</time></trkpt><trkpt lat="38.1011414" lon="13.3309189"><ele>85.0</ele><time>2026-04-26T11:36:55.297Z</time></trkpt><trkpt lat="38.1013217" lon="13.3308237"><ele>85.0</ele><time>2026-04-26T11:36:56.297Z</time></trkpt><trkpt lat="38.1015092" lon="13.3307364"><ele>84.33333333333333</ele><time>2026-04-26T11:36:57.296Z</time></trkpt><trkpt lat="38.1017027" lon="13.3306651"><ele>83.66666666666667</ele><time>2026-04-26T11:36:58.297Z</time></trkpt><trkpt lat="38.1019078" lon="13.3306078"><ele>83.0</ele><time>2026-04-26T11:36:59.296Z</time></trkpt><trkpt lat="38.1021167" lon="13.3305608"><ele>82.66666666666667</ele><time>2026-04-26T11:37:00.297Z</time></trkpt><trkpt lat="38.1023316" lon="13.3305251"><ele>82.33333333333333</ele><time>2026-04-26T11:37:01.297Z</time></trkpt><trkpt lat="38.1025489" lon="13.3304945"><ele>82.0</ele><time>2026-04-26T11:37:02.297Z</time></trkpt><trkpt lat="38.1027729" lon="13.3304716"><ele>81.33333333333333</ele><time>2026-04-26T11:37:03.297Z</time></trkpt><trkpt lat="38.1029893" lon="13.3304488"><ele>80.66666666666667</ele><time>2026-04-26T11:37:04.297Z</time></trkpt><trkpt lat="38.1032104" lon="13.3304292"><ele>80.0</ele><time>2026-04-26T11:37:05.297Z</time></trkpt><trkpt lat="38.1034334" lon="13.3304114"><ele>80.0</ele><time>2026-04-26T11:37:06.297Z</time></trkpt><trkpt lat="38.103653" lon="13.3303936"><ele>80.0</ele><time>2026-04-26T11:37:07.297Z</time></trkpt><trkpt lat="38.1038852" lon="13.3303831"><ele>80.0</ele><time>2026-04-26T11:37:08.297Z</time></trkpt><trkpt lat="38.1041075" lon="13.3303756"><ele>80.0</ele><time>2026-04-26T11:37:09.297Z</time></trkpt><trkpt lat="38.1043184" lon="13.3303641"><ele>80.0</ele><time>2026-04-26T11:37:10.297Z</time></trkpt><trkpt lat="38.1045226" lon="13.3303552"><ele>80.0</ele><time>2026-04-26T11:37:11.296Z</time></trkpt><trkpt lat="38.1047257" lon="13.3303496"><ele>80.0</ele><time>2026-04-26T11:37:12.297Z</time></trkpt><trkpt lat="38.1049257" lon="13.330342"><ele>80.0</ele><time>2026-04-26T11:37:13.297Z</time></trkpt><trkpt lat="38.1051218" lon="13.3303276"><ele>80.33333333333334</ele><time>2026-04-26T11:37:14.297Z</time></trkpt><trkpt lat="38.1053108" lon="13.3303175"><ele>80.66666666666667</ele><time>2026-04-26T11:37:15.297Z</time></trkpt><trkpt lat="38.1054907" lon="13.3303056"><ele>81.0</ele><time>2026-04-26T11:37:16.297Z</time></trkpt><trkpt lat="38.1056629" lon="13.330296"><ele>80.33333333333333</ele><time>2026-04-26T11:37:17.297Z</time></trkpt><trkpt lat="38.105827" lon="13.3302841"><ele>79.66666666666666</ele><time>2026-04-26T11:37:18.297Z</time></trkpt><trkpt lat="38.105988" lon="13.3302744"><ele>79.0</ele><time>2026-04-26T11:37:19.297Z</time></trkpt><trkpt lat="38.1061448" lon="13.3302634"><ele>79.0</ele><time>2026-04-26T11:37:20.297Z</time></trkpt><trkpt lat="38.1062956" lon="13.3302608"><ele>79.0</ele><time>2026-04-26T11:37:21.297Z</time></trkpt><trkpt lat="38.1064475" lon="13.3302573"><ele>79.0</ele><time>2026-04-26T11:37:22.297Z</time></trkpt><trkpt lat="38.1066073" lon="13.3302443"><ele>77.66666666666666</ele><time>2026-04-26T11:37:23.297Z</time></trkpt><trkpt lat="38.1067717" lon="13.3302377"><ele>76.33333333333333</ele><time>2026-04-26T11:37:24.297Z</time></trkpt><trkpt lat="38.1069438" lon="13.330226"><ele>75.0</ele><time>2026-04-26T11:37:25.297Z</time></trkpt><trkpt lat="38.1071241" lon="13.3302125"><ele>75.0</ele><time>2026-04-26T11:37:26.297Z</time></trkpt><trkpt lat="38.1073124" lon="13.3302005"><ele>75.0</ele><time>2026-04-26T11:37:27.296Z</time></trkpt><trkpt lat="38.1075049" lon="13.330174"><ele>75.0</ele><time>2026-04-26T11:37:28.297Z</time></trkpt><trkpt lat="38.107715" lon="13.3301597"><ele>74.33333333333333</ele><time>2026-04-26T11:37:29.297Z</time></trkpt><trkpt lat="38.1079253" lon="13.3301408"><ele>73.66666666666666</ele><time>2026-04-26T11:37:30.297Z</time></trkpt><trkpt lat="38.1081415" lon="13.3301165"><ele>73.0</ele><time>2026-04-26T11:37:31.297Z</time></trkpt><trkpt lat="38.1083596" lon="13.3300903"><ele>72.5</ele><time>2026-04-26T11:37:32.297Z</time></trkpt><trkpt lat="38.1085833" lon="13.3300695"><ele>72.0</ele><time>2026-04-26T11:37:33.297Z</time></trkpt><trkpt lat="38.1088102" lon="13.3300481"><ele>72.0</ele><time>2026-04-26T11:37:34.297Z</time></trkpt><trkpt lat="38.109033" lon="13.3300369"><ele>72.0</ele><time>2026-04-26T11:37:35.297Z</time></trkpt><trkpt lat="38.1092683" lon="13.330021"><ele>74.0</ele><time>2026-04-26T11:37:36.297Z</time></trkpt><trkpt lat="38.1095093" lon="13.3300043"><ele>76.0</ele><time>2026-04-26T11:37:37.297Z</time></trkpt><trkpt lat="38.1097547" lon="13.3299826"><ele>74.5</ele><time>2026-04-26T11:37:38.297Z</time></trkpt><trkpt lat="38.1099993" lon="13.3299606"><ele>73.0</ele><time>2026-04-26T11:37:39.297Z</time></trkpt><trkpt lat="38.1102392" lon="13.3299216"><ele>73.0</ele><time>2026-04-26T11:37:40.297Z</time></trkpt><trkpt lat="38.1104894" lon="13.3298928"><ele>73.0</ele><time>2026-04-26T11:37:41.297Z</time></trkpt><trkpt lat="38.1107339" lon="13.3298684"><ele>71.5</ele><time>2026-04-26T11:37:42.297Z</time></trkpt><trkpt lat="38.1109896" lon="13.3298283"><ele>70.0</ele><time>2026-04-26T11:37:43.297Z</time></trkpt><trkpt lat="38.1112561" lon="13.3297936"><ele>70.0</ele><time>2026-04-26T11:37:44.297Z</time></trkpt><trkpt lat="38.1115083" lon="13.3297617"><ele>70.0</ele><time>2026-04-26T11:37:45.297Z</time></trkpt><trkpt lat="38.1117679" lon="13.3297244"><ele>71.5</ele><time>2026-04-26T11:37:46.297Z</time></trkpt><trkpt lat="38.1120205" lon="13.3296855"><ele>73.0</ele><time>2026-04-26T11:37:47.297Z</time></trkpt><trkpt lat="38.1122537" lon="13.3296576"><ele>72.5</ele><time>2026-04-26T11:37:48.296Z</time></trkpt><trkpt lat="38.1124864" lon="13.3296284"><ele>72.0</ele><time>2026-04-26T11:37:49.297Z</time></trkpt><trkpt lat="38.1127171" lon="13.3296023"><ele>72.0</ele><time>2026-04-26T11:37:50.297Z</time></trkpt><trkpt lat="38.1129492" lon="13.3295745"><ele>72.0</ele><time>2026-04-26T11:37:51.297Z</time></trkpt><trkpt lat="38.113179" lon="13.3295492"><ele>73.5</ele><time>2026-04-26T11:37:52.297Z</time></trkpt><trkpt lat="38.1134142" lon="13.3295225"><ele>75.0</ele><time>2026-04-26T11:37:53.297Z</time></trkpt><trkpt lat="38.113648" lon="13.3295005"><ele>75.0</ele><time>2026-04-26T11:37:54.297Z</time></trkpt><trkpt lat="38.1138748" lon="13.3294711"><ele>75.0</ele><time>2026-04-26T11:37:55.296Z</time></trkpt><trkpt lat="38.1140978" lon="13.3294421"><ele>73.66666666666667</ele><time>2026-04-26T11:37:56.297Z</time></trkpt><trkpt lat="38.114318" lon="13.3294126"><ele>72.33333333333334</ele><time>2026-04-26T11:37:57.297Z</time></trkpt><trkpt lat="38.1145291" lon="13.3293858"><ele>71.0</ele><time>2026-04-26T11:37:58.297Z</time></trkpt><trkpt lat="38.1147398" lon="13.3293541"><ele>70.33333333333334</ele><time>2026-04-26T11:37:59.297Z</time></trkpt><trkpt lat="38.1149475" lon="13.3293254"><ele>69.66666666666667</ele><time>2026-04-26T11:38:00.296Z</time></trkpt><trkpt lat="38.1151549" lon="13.3292978"><ele>69.0</ele><time>2026-04-26T11:38:01.297Z</time></trkpt><trkpt lat="38.1153632" lon="13.329269"><ele>69.0</ele><time>2026-04-26T11:38:02.297Z</time></trkpt><trkpt lat="38.1155672" lon="13.3292357"><ele>69.0</ele><time>2026-04-26T11:38:03.297Z</time></trkpt><trkpt lat="38.11578" lon="13.3292049"><ele>69.0</ele><time>2026-04-26T11:38:04.297Z</time></trkpt><trkpt lat="38.1159881" lon="13.329173"><ele>69.0</ele><time>2026-04-26T11:38:05.296Z</time></trkpt><trkpt lat="38.1161918" lon="13.3291438"><ele>69.0</ele><time>2026-04-26T11:38:06.296Z</time></trkpt><trkpt lat="38.1163954" lon="13.329116"><ele>69.0</ele><time>2026-04-26T11:38:07.297Z</time></trkpt><trkpt lat="38.1166027" lon="13.3290905"><ele>68.33333333333333</ele><time>2026-04-26T11:38:08.297Z</time></trkpt><trkpt lat="38.1168098" lon="13.3290634"><ele>67.66666666666666</ele><time>2026-04-26T11:38:09.297Z</time></trkpt><trkpt lat="38.1170201" lon="13.329036"><ele>67.0</ele><time>2026-04-26T11:38:10.296Z</time></trkpt><trkpt lat="38.1172223" lon="13.329014"><ele>69.0</ele><time>2026-04-26T11:38:11.297Z</time></trkpt><trkpt lat="38.1174155" lon="13.3289878"><ele>71.0</ele><time>2026-04-26T11:38:12.297Z</time></trkpt><trkpt lat="38.1176121" lon="13.3289625"><ele>73.0</ele><time>2026-04-26T11:38:13.297Z</time></trkpt><trkpt lat="38.117809" lon="13.3289336"><ele>73.0</ele><time>2026-04-26T11:38:14.297Z</time></trkpt><trkpt lat="38.1179958" lon="13.3289064"><ele>73.0</ele><time>2026-04-26T11:38:15.297Z</time></trkpt><trkpt lat="38.1181814" lon="13.3288798"><ele>73.0</ele><time>2026-04-26T11:38:16.297Z</time></trkpt><trkpt lat="38.118358" lon="13.3288527"><ele>72.33333333333333</ele><time>2026-04-26T11:38:17.297Z</time></trkpt><trkpt lat="38.1185342" lon="13.3288218"><ele>71.66666666666667</ele><time>2026-04-26T11:38:18.297Z</time></trkpt><trkpt lat="38.118702" lon="13.3287984"><ele>71.0</ele><time>2026-04-26T11:38:19.297Z</time></trkpt><trkpt lat="38.1188607" lon="13.3287835"><ele>71.0</ele><time>2026-04-26T11:38:20.297Z</time></trkpt><trkpt lat="38.1190001" lon="13.3287755"><ele>71.0</ele><time>2026-04-26T11:38:21.297Z</time></trkpt><trkpt lat="38.1191235" lon="13.3287683"><ele>71.0</ele><time>2026-04-26T11:38:22.297Z</time></trkpt><trkpt lat="38.1192401" lon="13.3287629"><ele>71.0</ele><time>2026-04-26T11:38:23.297Z</time></trkpt><trkpt lat="38.1193598" lon="13.3287738"><ele>70.25</ele><time>2026-04-26T11:38:24.297Z</time></trkpt><trkpt lat="38.1194813" lon="13.3287767"><ele>69.5</ele><time>2026-04-26T11:38:25.297Z</time></trkpt><trkpt lat="38.1196115" lon="13.3287811"><ele>68.75</ele><time>2026-04-26T11:38:26.297Z</time></trkpt><trkpt lat="38.119744" lon="13.3287887"><ele>68.0</ele><time>2026-04-26T11:38:27.297Z</time></trkpt><trkpt lat="38.1198743" lon="13.3288003"><ele>66.75</ele><time>2026-04-26T11:38:28.296Z</time></trkpt><trkpt lat="38.120009" lon="13.3288158"><ele>65.5</ele><time>2026-04-26T11:38:29.297Z</time></trkpt><trkpt lat="38.1201439" lon="13.3288267"><ele>64.25</ele><time>2026-04-26T11:38:30.297Z</time></trkpt><trkpt lat="38.1202846" lon="13.3288426"><ele>63.0</ele><time>2026-04-26T11:38:31.297Z</time></trkpt><trkpt lat="38.1204293" lon="13.3288598"><ele>63.0</ele><time>2026-04-26T11:38:32.297Z</time></trkpt><trkpt lat="38.120572" lon="13.3288727"><ele>63.0</ele><time>2026-04-26T11:38:33.297Z</time></trkpt><trkpt lat="38.1207159" lon="13.3288854"><ele>63.0</ele><time>2026-04-26T11:38:34.297Z</time></trkpt><trkpt lat="38.1208575" lon="13.3289078"><ele>63.0</ele><time>2026-04-26T11:38:35.297Z</time></trkpt><trkpt lat="38.1209967" lon="13.3289208"><ele>62.5</ele><time>2026-04-26T11:38:36.297Z</time></trkpt><trkpt lat="38.1211356" lon="13.3289346"><ele>62.0</ele><time>2026-04-26T11:38:37.297Z</time></trkpt><trkpt lat="38.1212824" lon="13.3289459"><ele>61.5</ele><time>2026-04-26T11:38:38.297Z</time></trkpt><trkpt lat="38.1214246" lon="13.3289593"><ele>61.0</ele><time>2026-04-26T11:38:39.297Z</time></trkpt><trkpt lat="38.1215719" lon="13.3289723"><ele>60.33333333333333</ele><time>2026-04-26T11:38:40.297Z</time></trkpt><trkpt lat="38.1217119" lon="13.3289917"><ele>59.66666666666667</ele><time>2026-04-26T11:38:41.297Z</time></trkpt><trkpt lat="38.1218619" lon="13.3290102"><ele>59.0</ele><time>2026-04-26T11:38:42.297Z</time></trkpt><trkpt lat="38.1220184" lon="13.3290396"><ele>59.0</ele><time>2026-04-26T11:38:43.297Z</time></trkpt><trkpt lat="38.1221755" lon="13.329054"><ele>59.0</ele><time>2026-04-26T11:38:44.297Z</time></trkpt><trkpt lat="38.1223364" lon="13.3290702"><ele>59.0</ele><time>2026-04-26T11:38:45.297Z</time></trkpt><trkpt lat="38.1225003" lon="13.329085"><ele>60.0</ele><time>2026-04-26T11:38:46.297Z</time></trkpt><trkpt lat="38.1226738" lon="13.3291061"><ele>61.0</ele><time>2026-04-26T11:38:47.297Z</time></trkpt><trkpt lat="38.1228483" lon="13.3291198"><ele>62.0</ele><time>2026-04-26T11:38:48.297Z</time></trkpt><trkpt lat="38.1230233" lon="13.3291407"><ele>62.0</ele><time>2026-04-26T11:38:49.296Z</time></trkpt><trkpt lat="38.1232062" lon="13.3291523"><ele>62.0</ele><time>2026-04-26T11:38:50.297Z</time></trkpt><trkpt lat="38.1233976" lon="13.3291555"><ele>62.0</ele><time>2026-04-26T11:38:51.297Z</time></trkpt><trkpt lat="38.1235856" lon="13.3292074"><ele>61.0</ele><time>2026-04-26T11:38:52.297Z</time></trkpt><trkpt lat="38.1237726" lon="13.3292266"><ele>60.0</ele><time>2026-04-26T11:38:53.297Z</time></trkpt><trkpt lat="38.123966" lon="13.3292522"><ele>59.0</ele><time>2026-04-26T11:38:54.297Z</time></trkpt><trkpt lat="38.1241747" lon="13.3292872"><ele>61.333333333333336</ele><time>2026-04-26T11:38:55.297Z</time></trkpt><trkpt lat="38.1243822" lon="13.329314"><ele>63.66666666666667</ele><time>2026-04-26T11:38:56.297Z</time></trkpt><trkpt lat="38.1245901" lon="13.3293426"><ele>66.0</ele><time>2026-04-26T11:38:57.296Z</time></trkpt><trkpt lat="38.1248002" lon="13.3293648"><ele>64.0</ele><time>2026-04-26T11:38:58.297Z</time></trkpt><trkpt lat="38.1250087" lon="13.3293959"><ele>62.0</ele><time>2026-04-26T11:38:59.297Z</time></trkpt><trkpt lat="38.1252131" lon="13.3294207"><ele>60.0</ele><time>2026-04-26T11:39:00.297Z</time></trkpt><trkpt lat="38.1254045" lon="13.3294395"><ele>60.0</ele><time>2026-04-26T11:39:01.297Z</time></trkpt><trkpt lat="38.1256031" lon="13.3294516"><ele>60.0</ele><time>2026-04-26T11:39:02.297Z</time></trkpt><trkpt lat="38.1257798" lon="13.3294705"><ele>60.0</ele><time>2026-04-26T11:39:03.297Z</time></trkpt><trkpt lat="38.1259603" lon="13.3294862"><ele>60.33333333333333</ele><time>2026-04-26T11:39:04.296Z</time></trkpt><trkpt lat="38.1261432" lon="13.3295169"><ele>60.666666666666664</ele><time>2026-04-26T11:39:05.296Z</time></trkpt><trkpt lat="38.1263253" lon="13.3295451"><ele>61.0</ele><time>2026-04-26T11:39:06.297Z</time></trkpt><trkpt lat="38.126506" lon="13.3295647"><ele>58.666666666666664</ele><time>2026-04-26T11:39:07.297Z</time></trkpt><trkpt lat="38.1266857" lon="13.3295773"><ele>56.33333333333333</ele><time>2026-04-26T11:39:08.297Z</time></trkpt><trkpt lat="38.1268661" lon="13.3295927"><ele>54.0</ele><time>2026-04-26T11:39:09.297Z</time></trkpt><trkpt lat="38.1270533" lon="13.3296165"><ele>54.0</ele><time>2026-04-26T11:39:10.297Z</time></trkpt><trkpt lat="38.1272471" lon="13.3296443"><ele>54.0</ele><time>2026-04-26T11:39:11.297Z</time></trkpt><trkpt lat="38.1274494" lon="13.3296749"><ele>54.0</ele><time>2026-04-26T11:39:12.297Z</time></trkpt><trkpt lat="38.1276545" lon="13.3296989"><ele>54.33333333333333</ele><time>2026-04-26T11:39:13.297Z</time></trkpt><trkpt lat="38.1278674" lon="13.3297253"><ele>54.666666666666664</ele><time>2026-04-26T11:39:14.297Z</time></trkpt><trkpt lat="38.1280787" lon="13.3297465"><ele>55.0</ele><time>2026-04-26T11:39:15.297Z</time></trkpt><trkpt lat="38.1282922" lon="13.329772"><ele>54.0</ele><time>2026-04-26T11:39:16.297Z</time></trkpt><trkpt lat="38.1285056" lon="13.3297958"><ele>53.0</ele><time>2026-04-26T11:39:17.297Z</time></trkpt><trkpt lat="38.1287205" lon="13.3298183"><ele>52.0</ele><time>2026-04-26T11:39:18.297Z</time></trkpt><trkpt lat="38.1289353" lon="13.3298448"><ele>51.666666666666664</ele><time>2026-04-26T11:39:19.297Z</time></trkpt><trkpt lat="38.1291287" lon="13.3298519"><ele>51.33333333333333</ele><time>2026-04-26T11:39:20.297Z</time></trkpt><trkpt lat="38.1293289" lon="13.3298744"><ele>51.0</ele><time>2026-04-26T11:39:21.297Z</time></trkpt><trkpt lat="38.129528" lon="13.3298943"><ele>51.0</ele><time>2026-04-26T11:39:22.297Z</time></trkpt><trkpt lat="38.1297306" lon="13.329929"><ele>51.0</ele><time>2026-04-26T11:39:23.297Z</time></trkpt><trkpt lat="38.1299347" lon="13.329952"><ele>51.0</ele><time>2026-04-26T11:39:24.297Z</time></trkpt><trkpt lat="38.1301423" lon="13.3299767"><ele>50.66666666666667</ele><time>2026-04-26T11:39:25.297Z</time></trkpt><trkpt lat="38.13034" lon="13.330004"><ele>50.333333333333336</ele><time>2026-04-26T11:39:26.297Z</time></trkpt><trkpt lat="38.1305351" lon="13.3300306"><ele>50.0</ele><time>2026-04-26T11:39:27.296Z</time></trkpt><trkpt lat="38.1307237" lon="13.3300551"><ele>49.0</ele><time>2026-04-26T11:39:28.297Z</time></trkpt><trkpt lat="38.1309108" lon="13.3300833"><ele>48.0</ele><time>2026-04-26T11:39:29.297Z</time></trkpt><trkpt lat="38.1310967" lon="13.3301089"><ele>47.0</ele><time>2026-04-26T11:39:30.297Z</time></trkpt><trkpt lat="38.1312761" lon="13.3301364"><ele>47.0</ele><time>2026-04-26T11:39:31.297Z</time></trkpt><trkpt lat="38.1314551" lon="13.3301664"><ele>47.0</ele><time>2026-04-26T11:39:32.297Z</time></trkpt><trkpt lat="38.1316323" lon="13.3301937"><ele>47.0</ele><time>2026-04-26T11:39:33.297Z</time></trkpt><trkpt lat="38.1318048" lon="13.3302156"><ele>47.666666666666664</ele><time>2026-04-26T11:39:34.297Z</time></trkpt><trkpt lat="38.1319787" lon="13.3302406"><ele>48.33333333333333</ele><time>2026-04-26T11:39:35.296Z</time></trkpt><trkpt lat="38.132156" lon="13.330274"><ele>49.0</ele><time>2026-04-26T11:39:36.297Z</time></trkpt><trkpt lat="38.132333" lon="13.3302999"><ele>48.33333333333333</ele><time>2026-04-26T11:39:37.297Z</time></trkpt><trkpt lat="38.1325193" lon="13.3303321"><ele>47.666666666666664</ele><time>2026-04-26T11:39:38.297Z</time></trkpt><trkpt lat="38.132704" lon="13.33036"><ele>47.0</ele><time>2026-04-26T11:39:39.297Z</time></trkpt><trkpt lat="38.132891" lon="13.3303867"><ele>47.0</ele><time>2026-04-26T11:39:40.297Z</time></trkpt><trkpt lat="38.1330812" lon="13.3304097"><ele>47.0</ele><time>2026-04-26T11:39:41.297Z</time></trkpt><trkpt lat="38.1332718" lon="13.3304403"><ele>47.0</ele><time>2026-04-26T11:39:42.297Z</time></trkpt><trkpt lat="38.1334616" lon="13.3304774"><ele>47.0</ele><time>2026-04-26T11:39:43.297Z</time></trkpt><trkpt lat="38.1336547" lon="13.3305112"><ele>47.0</ele><time>2026-04-26T11:39:44.297Z</time></trkpt><trkpt lat="38.1338467" lon="13.3305464"><ele>47.0</ele><time>2026-04-26T11:39:45.297Z</time></trkpt><trkpt lat="38.1340405" lon="13.3305785"><ele>47.666666666666664</ele><time>2026-04-26T11:39:46.297Z</time></trkpt><trkpt lat="38.1342359" lon="13.3306071"><ele>48.33333333333333</ele><time>2026-04-26T11:39:47.297Z</time></trkpt><trkpt lat="38.1344321" lon="13.3306396"><ele>49.0</ele><time>2026-04-26T11:39:48.297Z</time></trkpt><trkpt lat="38.134635" lon="13.3306447"><ele>49.0</ele><time>2026-04-26T11:39:49.297Z</time></trkpt><trkpt lat="38.1348346" lon="13.330669"><ele>49.0</ele><time>2026-04-26T11:39:50.297Z</time></trkpt><trkpt lat="38.1350312" lon="13.3306932"><ele>49.0</ele><time>2026-04-26T11:39:51.296Z</time></trkpt><trkpt lat="38.1352241" lon="13.3307239"><ele>48.0</ele><time>2026-04-26T11:39:52.297Z</time></trkpt><trkpt lat="38.1354117" lon="13.3307477"><ele>47.0</ele><time>2026-04-26T11:39:53.297Z</time></trkpt><trkpt lat="38.1355926" lon="13.3307721"><ele>46.0</ele><time>2026-04-26T11:39:54.297Z</time></trkpt><trkpt lat="38.1357689" lon="13.3307991"><ele>46.0</ele><time>2026-04-26T11:39:55.297Z</time></trkpt><trkpt lat="38.1359235" lon="13.3308211"><ele>46.0</ele><time>2026-04-26T11:39:56.297Z</time></trkpt><trkpt lat="38.13607" lon="13.3308422"><ele>46.0</ele><time>2026-04-26T11:39:57.297Z</time></trkpt><trkpt lat="38.1362138" lon="13.3308482"><ele>46.0</ele><time>2026-04-26T11:39:58.297Z</time></trkpt><trkpt lat="38.1363808" lon="13.3308856"><ele>46.0</ele><time>2026-04-26T11:39:59.297Z</time></trkpt><trkpt lat="38.136551" lon="13.3309126"><ele>46.0</ele><time>2026-04-26T11:40:00.297Z</time></trkpt><trkpt lat="38.136731" lon="13.3309407"><ele>46.0</ele><time>2026-04-26T11:40:01.297Z</time></trkpt><trkpt lat="38.1369094" lon="13.3309669"><ele>45.66666666666667</ele><time>2026-04-26T11:40:02.296Z</time></trkpt><trkpt lat="38.1370966" lon="13.3309912"><ele>45.333333333333336</ele><time>2026-04-26T11:40:03.297Z</time></trkpt><trkpt lat="38.1372907" lon="13.3310142"><ele>45.0</ele><time>2026-04-26T11:40:04.297Z</time></trkpt><trkpt lat="38.1374938" lon="13.3310506"><ele>44.666666666666664</ele><time>2026-04-26T11:40:05.297Z</time></trkpt><trkpt lat="38.1377031" lon="13.3310877"><ele>44.33333333333333</ele><time>2026-04-26T11:40:06.297Z</time></trkpt><trkpt lat="38.1379123" lon="13.3311167"><ele>44.0</ele><time>2026-04-26T11:40:07.297Z</time></trkpt><trkpt lat="38.138132" lon="13.3311376"><ele>44.0</ele><time>2026-04-26T11:40:08.297Z</time></trkpt><trkpt lat="38.1383559" lon="13.3311662"><ele>44.0</ele><time>2026-04-26T11:40:09.297Z</time></trkpt><trkpt lat="38.138582" lon="13.3311903"><ele>44.0</ele><time>2026-04-26T11:40:10.297Z</time></trkpt><trkpt lat="38.1388087" lon="13.3312162"><ele>44.0</ele><time>2026-04-26T11:40:11.297Z</time></trkpt><trkpt lat="38.1390381" lon="13.3312499"><ele>44.0</ele><time>2026-04-26T11:40:12.297Z</time></trkpt><trkpt lat="38.139266" lon="13.3312821"><ele>44.0</ele><time>2026-04-26T11:40:13.297Z</time></trkpt><trkpt lat="38.1394946" lon="13.3313098"><ele>44.0</ele><time>2026-04-26T11:40:14.296Z</time></trkpt><trkpt lat="38.1397332" lon="13.3313423"><ele>44.0</ele><time>2026-04-26T11:40:15.297Z</time></trkpt><trkpt lat="38.13996" lon="13.3313635"><ele>44.0</ele><time>2026-04-26T11:40:16.297Z</time></trkpt><trkpt lat="38.1401945" lon="13.3313902"><ele>44.0</ele><time>2026-04-26T11:40:17.296Z</time></trkpt><trkpt lat="38.1404252" lon="13.3314167"><ele>43.0</ele><time>2026-04-26T11:40:18.297Z</time></trkpt><trkpt lat="38.1406534" lon="13.331444"><ele>42.0</ele><time>2026-04-26T11:40:19.297Z</time></trkpt><trkpt lat="38.1408846" lon="13.331467"><ele>46.5</ele><time>2026-04-26T11:40:20.297Z</time></trkpt><trkpt lat="38.1411154" lon="13.3314838"><ele>51.0</ele><time>2026-04-26T11:40:21.297Z</time></trkpt><trkpt lat="38.1413483" lon="13.3315077"><ele>54.0</ele><time>2026-04-26T11:40:22.297Z</time></trkpt><trkpt lat="38.1415737" lon="13.3315113"><ele>57.0</ele><time>2026-04-26T11:40:23.297Z</time></trkpt><trkpt lat="38.1418035" lon="13.3315045"><ele>57.0</ele><time>2026-04-26T11:40:24.296Z</time></trkpt><trkpt lat="38.1420331" lon="13.331484"><ele>57.0</ele><time>2026-04-26T11:40:25.297Z</time></trkpt><trkpt lat="38.1422608" lon="13.3314493"><ele>54.5</ele><time>2026-04-26T11:40:26.297Z</time></trkpt><trkpt lat="38.142489" lon="13.3314032"><ele>52.0</ele><time>2026-04-26T11:40:27.297Z</time></trkpt><trkpt lat="38.1427161" lon="13.3313429"><ele>49.5</ele><time>2026-04-26T11:40:28.297Z</time></trkpt><trkpt lat="38.1429401" lon="13.3312585"><ele>47.0</ele><time>2026-04-26T11:40:29.297Z</time></trkpt><trkpt lat="38.1431642" lon="13.3311626"><ele>47.0</ele><time>2026-04-26T11:40:30.297Z</time></trkpt><trkpt lat="38.1433853" lon="13.3310592"><ele>47.0</ele><time>2026-04-26T11:40:31.297Z</time></trkpt><trkpt lat="38.1435995" lon="13.3309413"><ele>47.0</ele><time>2026-04-26T11:40:32.296Z</time></trkpt><trkpt lat="38.1438099" lon="13.3308105"><ele>47.0</ele><time>2026-04-26T11:40:33.297Z</time></trkpt><trkpt lat="38.1440201" lon="13.3306717"><ele>47.0</ele><time>2026-04-26T11:40:34.296Z</time></trkpt><trkpt lat="38.1442332" lon="13.3305052"><ele>47.0</ele><time>2026-04-26T11:40:35.297Z</time></trkpt><trkpt lat="38.1444304" lon="13.3303321"><ele>47.0</ele><time>2026-04-26T11:40:36.297Z</time></trkpt><trkpt lat="38.1446224" lon="13.3301441"><ele>47.0</ele><time>2026-04-26T11:40:37.297Z</time></trkpt><trkpt lat="38.1448151" lon="13.3299529"><ele>47.0</ele><time>2026-04-26T11:40:38.297Z</time></trkpt><trkpt lat="38.1450035" lon="13.3297558"><ele>47.0</ele><time>2026-04-26T11:40:39.297Z</time></trkpt><trkpt lat="38.1451945" lon="13.3295634"><ele>48.0</ele><time>2026-04-26T11:40:40.297Z</time></trkpt><trkpt lat="38.1453841" lon="13.3293698"><ele>49.0</ele><time>2026-04-26T11:40:41.297Z</time></trkpt><trkpt lat="38.1455761" lon="13.3291794"><ele>49.0</ele><time>2026-04-26T11:40:42.296Z</time></trkpt><trkpt lat="38.1457665" lon="13.32899"><ele>49.0</ele><time>2026-04-26T11:40:43.297Z</time></trkpt><trkpt lat="38.1459514" lon="13.3288019"><ele>49.5</ele><time>2026-04-26T11:40:44.297Z</time></trkpt><trkpt lat="38.1461375" lon="13.3286208"><ele>50.0</ele><time>2026-04-26T11:40:45.297Z</time></trkpt><trkpt lat="38.1463304" lon="13.3284402"><ele>50.0</ele><time>2026-04-26T11:40:46.296Z</time></trkpt><trkpt lat="38.146526" lon="13.3282647"><ele>50.0</ele><time>2026-04-26T11:40:47.296Z</time></trkpt><trkpt lat="38.1467281" lon="13.3280963"><ele>49.5</ele><time>2026-04-26T11:40:48.296Z</time></trkpt><trkpt lat="38.1469206" lon="13.3279359"><ele>49.0</ele><time>2026-04-26T11:40:49.296Z</time></trkpt><trkpt lat="38.1471177" lon="13.3277705"><ele>49.0</ele><time>2026-04-26T11:40:50.296Z</time></trkpt><trkpt lat="38.1473287" lon="13.3276292"><ele>49.0</ele><time>2026-04-26T11:40:51.296Z</time></trkpt><trkpt lat="38.1475404" lon="13.3274914"><ele>49.5</ele><time>2026-04-26T11:40:52.296Z</time></trkpt><trkpt lat="38.147754" lon="13.3273523"><ele>50.0</ele><time>2026-04-26T11:40:53.296Z</time></trkpt><trkpt lat="38.1479717" lon="13.327207"><ele>49.0</ele><time>2026-04-26T11:40:54.296Z</time></trkpt><trkpt lat="38.1481934" lon="13.3270516"><ele>48.0</ele><time>2026-04-26T11:40:55.296Z</time></trkpt><trkpt lat="38.1484238" lon="13.3268856"><ele>47.5</ele><time>2026-04-26T11:40:56.296Z</time></trkpt><trkpt lat="38.1486455" lon="13.3266947"><ele>47.0</ele><time>2026-04-26T11:40:57.296Z</time></trkpt><trkpt lat="38.1488628" lon="13.3264785"><ele>46.0</ele><time>2026-04-26T11:40:58.296Z</time></trkpt><trkpt lat="38.1490785" lon="13.3262335"><ele>45.0</ele><time>2026-04-26T11:40:59.296Z</time></trkpt><trkpt lat="38.1492845" lon="13.3259515"><ele>45.0</ele><time>2026-04-26T11:41:00.296Z</time></trkpt><trkpt lat="38.1494963" lon="13.3256328"><ele>45.0</ele><time>2026-04-26T11:41:01.296Z</time></trkpt><trkpt lat="38.1497006" lon="13.3253011"><ele>47.5</ele><time>2026-04-26T11:41:02.296Z</time></trkpt><trkpt lat="38.1498952" lon="13.3250362"><ele>50.0</ele><time>2026-04-26T11:41:03.296Z</time></trkpt><trkpt lat="38.1500942" lon="13.3247774"><ele>49.5</ele><time>2026-04-26T11:41:04.296Z</time></trkpt><trkpt lat="38.1502823" lon="13.3245318"><ele>49.0</ele><time>2026-04-26T11:41:05.296Z</time></trkpt><trkpt lat="38.1504643" lon="13.3243145"><ele>49.0</ele><time>2026-04-26T11:41:06.296Z</time></trkpt><trkpt lat="38.1506313" lon="13.3241121"><ele>49.0</ele><time>2026-04-26T11:41:07.296Z</time></trkpt><trkpt lat="38.1507852" lon="13.3239263"><ele>49.0</ele><time>2026-04-26T11:41:08.296Z</time></trkpt><trkpt lat="38.1509249" lon="13.3237591"><ele>49.666666666666664</ele><time>2026-04-26T11:41:09.296Z</time></trkpt><trkpt lat="38.1510542" lon="13.3236016"><ele>50.33333333333333</ele><time>2026-04-26T11:41:10.296Z</time></trkpt><trkpt lat="38.1511774" lon="13.3234578"><ele>51.0</ele><time>2026-04-26T11:41:11.296Z</time></trkpt><trkpt lat="38.1512957" lon="13.3233182"><ele>51.0</ele><time>2026-04-26T11:41:12.296Z</time></trkpt><trkpt lat="38.1514067" lon="13.3231814"><ele>51.0</ele><time>2026-04-26T11:41:13.296Z</time></trkpt><trkpt lat="38.1515117" lon="13.3230576"><ele>51.0</ele><time>2026-04-26T11:41:14.296Z</time></trkpt><trkpt lat="38.1516115" lon="13.3229369"><ele>51.0</ele><time>2026-04-26T11:41:15.296Z</time></trkpt><trkpt lat="38.1517056" lon="13.3228237"><ele>51.25</ele><time>2026-04-26T11:41:16.296Z</time></trkpt><trkpt lat="38.1517972" lon="13.3227212"><ele>51.5</ele><time>2026-04-26T11:41:17.296Z</time></trkpt><trkpt lat="38.1518924" lon="13.3226238"><ele>51.75</ele><time>2026-04-26T11:41:18.295Z</time></trkpt><trkpt lat="38.1519809" lon="13.3225296"><ele>52.0</ele><time>2026-04-26T11:41:19.296Z</time></trkpt><trkpt lat="38.152058" lon="13.3224491"><ele>52.0</ele><time>2026-04-26T11:41:20.296Z</time></trkpt><trkpt lat="38.1521309" lon="13.3223692"><ele>52.0</ele><time>2026-04-26T11:41:21.295Z</time></trkpt><trkpt lat="38.1522127" lon="13.3222927"><ele>52.0</ele><time>2026-04-26T11:41:22.296Z</time></trkpt><trkpt lat="38.152304" lon="13.3221982"><ele>52.0</ele><time>2026-04-26T11:41:23.296Z</time></trkpt><trkpt lat="38.1524156" lon="13.3220883"><ele>52.666666666666664</ele><time>2026-04-26T11:41:24.296Z</time></trkpt><trkpt lat="38.1525372" lon="13.3219543"><ele>53.33333333333333</ele><time>2026-04-26T11:41:25.295Z</time></trkpt><trkpt lat="38.1526617" lon="13.3218097"><ele>54.0</ele><time>2026-04-26T11:41:26.296Z</time></trkpt><trkpt lat="38.1527856" lon="13.3216497"><ele>54.0</ele><time>2026-04-26T11:41:27.296Z</time></trkpt><trkpt lat="38.1529137" lon="13.3214884"><ele>54.0</ele><time>2026-04-26T11:41:28.296Z</time></trkpt><trkpt lat="38.1530404" lon="13.3213178"><ele>54.0</ele><time>2026-04-26T11:41:29.296Z</time></trkpt><trkpt lat="38.1531755" lon="13.3211409"><ele>54.66666666666667</ele><time>2026-04-26T11:41:30.296Z</time></trkpt><trkpt lat="38.1533074" lon="13.3209617"><ele>55.333333333333336</ele><time>2026-04-26T11:41:31.296Z</time></trkpt><trkpt lat="38.1534435" lon="13.3207847"><ele>56.0</ele><time>2026-04-26T11:41:32.296Z</time></trkpt><trkpt lat="38.1535897" lon="13.3206069"><ele>56.0</ele><time>2026-04-26T11:41:33.296Z</time></trkpt><trkpt lat="38.1537282" lon="13.3204515"><ele>56.0</ele><time>2026-04-26T11:41:34.296Z</time></trkpt><trkpt lat="38.1538613" lon="13.3202978"><ele>56.0</ele><time>2026-04-26T11:41:35.296Z</time></trkpt><trkpt lat="38.1539889" lon="13.3201651"><ele>57.333333333333336</ele><time>2026-04-26T11:41:36.296Z</time></trkpt><trkpt lat="38.1541227" lon="13.3200178"><ele>58.66666666666667</ele><time>2026-04-26T11:41:37.296Z</time></trkpt><trkpt lat="38.1542654" lon="13.3198671"><ele>60.0</ele><time>2026-04-26T11:41:38.296Z</time></trkpt><trkpt lat="38.1544093" lon="13.3196985"><ele>60.33333333333333</ele><time>2026-04-26T11:41:39.296Z</time></trkpt><trkpt lat="38.1545552" lon="13.3195102"><ele>60.666666666666664</ele><time>2026-04-26T11:41:40.296Z</time></trkpt><trkpt lat="38.1547103" lon="13.3193254"><ele>61.0</ele><time>2026-04-26T11:41:41.296Z</time></trkpt><trkpt lat="38.1548541" lon="13.3191419"><ele>61.666666666666664</ele><time>2026-04-26T11:41:42.296Z</time></trkpt><trkpt lat="38.1549894" lon="13.3189679"><ele>62.33333333333333</ele><time>2026-04-26T11:41:43.295Z</time></trkpt><trkpt lat="38.1551167" lon="13.3188094"><ele>63.0</ele><time>2026-04-26T11:41:44.296Z</time></trkpt><trkpt lat="38.155241" lon="13.3186585"><ele>63.0</ele><time>2026-04-26T11:41:45.296Z</time></trkpt><trkpt lat="38.1553528" lon="13.318522"><ele>63.0</ele><time>2026-04-26T11:41:46.295Z</time></trkpt><trkpt lat="38.1554587" lon="13.3184002"><ele>63.0</ele><time>2026-04-26T11:41:47.296Z</time></trkpt><trkpt lat="38.1555667" lon="13.3182639"><ele>63.0</ele><time>2026-04-26T11:41:48.295Z</time></trkpt><trkpt lat="38.1556816" lon="13.3181175"><ele>63.0</ele><time>2026-04-26T11:41:49.296Z</time></trkpt><trkpt lat="38.1558074" lon="13.3179515"><ele>63.0</ele><time>2026-04-26T11:41:50.296Z</time></trkpt><trkpt lat="38.1559368" lon="13.317777"><ele>64.0</ele><time>2026-04-26T11:41:51.296Z</time></trkpt><trkpt lat="38.1560712" lon="13.3176152"><ele>65.0</ele><time>2026-04-26T11:41:52.296Z</time></trkpt><trkpt lat="38.1562201" lon="13.3174632"><ele>66.0</ele><time>2026-04-26T11:41:53.296Z</time></trkpt><trkpt lat="38.1563597" lon="13.3172729"><ele>65.5</ele><time>2026-04-26T11:41:54.296Z</time></trkpt><trkpt lat="38.1565275" lon="13.317084"><ele>65.0</ele><time>2026-04-26T11:41:55.296Z</time></trkpt><trkpt lat="38.1567117" lon="13.3169042"><ele>66.5</ele><time>2026-04-26T11:41:56.296Z</time></trkpt><trkpt lat="38.1569043" lon="13.3166998"><ele>68.0</ele><time>2026-04-26T11:41:57.295Z</time></trkpt><trkpt lat="38.1571103" lon="13.3164912"><ele>68.0</ele><time>2026-04-26T11:41:58.295Z</time></trkpt><trkpt lat="38.1572784" lon="13.3162691"><ele>68.0</ele><time>2026-04-26T11:41:59.296Z</time></trkpt><trkpt lat="38.1574641" lon="13.3160489"><ele>69.5</ele><time>2026-04-26T11:42:00.296Z</time></trkpt><trkpt lat="38.1576282" lon="13.3158408"><ele>71.0</ele><time>2026-04-26T11:42:01.296Z</time></trkpt><trkpt lat="38.1577852" lon="13.315638"><ele>70.66666666666667</ele><time>2026-04-26T11:42:02.296Z</time></trkpt><trkpt lat="38.1579293" lon="13.315453"><ele>70.33333333333333</ele><time>2026-04-26T11:42:03.296Z</time></trkpt><trkpt lat="38.158055" lon="13.3152957"><ele>70.0</ele><time>2026-04-26T11:42:04.296Z</time></trkpt><trkpt lat="38.1581627" lon="13.3151512"><ele>70.8</ele><time>2026-04-26T11:42:05.296Z</time></trkpt><trkpt lat="38.1582549" lon="13.3150364"><ele>71.6</ele><time>2026-04-26T11:42:06.296Z</time></trkpt><trkpt lat="38.1583227" lon="13.3149476"><ele>72.4</ele><time>2026-04-26T11:42:07.296Z</time></trkpt><trkpt lat="38.1583766" lon="13.3148945"><ele>73.2</ele><time>2026-04-26T11:42:08.296Z</time></trkpt><trkpt lat="38.1584574" lon="13.3149168"><ele>74.0</ele><time>2026-04-26T11:42:10.296Z</time></trkpt><trkpt lat="38.1584137" lon="13.3150285"><ele>74.0</ele><time>2026-04-26T11:42:13.296Z</time></trkpt><trkpt lat="38.1583644" lon="13.3151111"><ele>74.0</ele><time>2026-04-26T11:42:15.296Z</time></trkpt><trkpt lat="38.1583249" lon="13.3152052"><ele>74.0</ele><time>2026-04-26T11:42:18.295Z</time></trkpt></trkseg></trk></gpx>